<?xml version="1.0" encoding="UTF-8" standalone="no" ?>
<gpx xmlns="http://www.topografix.com/GPX/1/1" xmlns:xsi="http://www.w3.org/2001/XMLSchema-instance" xsi:schemaLocation="http://www.topografix.com/GPX/1/1 http://www.topografix.com/GPX/1/1/gpx.xsd" version="1.1" creator="VisuGPX - https://www.visugpx.com">
  <metadata>
    <name>HRP2023-J13</name>
  </metadata>
  <trk>
    <name><![CDATA[HRP2023-J13]]></name>
    <extensions>
      <line xmlns="http://www.topografix.com/GPX/gpx_style/0/2">
        <color>0000FF</color>
        <width>4</width>
      </line>
    </extensions>
    <trkseg>
      <trkpt lat="42.70525" lon="1.18878">
        <ele>2281.3999023438</ele>
        <time>2023-07-26T04:56:59.000Z</time>
      </trkpt>
      <trkpt lat="42.70529" lon="1.1888">
        <ele>2281.3999023438</ele>
        <time>2023-07-26T04:57:06.000Z</time>
      </trkpt>
      <trkpt lat="42.70527" lon="1.18881">
        <ele>2281.1999511719</ele>
        <time>2023-07-26T04:57:09.000Z</time>
      </trkpt>
      <trkpt lat="42.70525" lon="1.18882">
        <ele>2281</ele>
        <time>2023-07-26T04:57:13.000Z</time>
      </trkpt>
      <trkpt lat="42.70519" lon="1.18882">
        <ele>2280.1999511719</ele>
        <time>2023-07-26T04:57:20.000Z</time>
      </trkpt>
      <trkpt lat="42.70514" lon="1.18877">
        <ele>2280.1999511719</ele>
        <time>2023-07-26T04:57:27.000Z</time>
      </trkpt>
      <trkpt lat="42.70508" lon="1.18871">
        <ele>2279.8000488281</ele>
        <time>2023-07-26T04:57:36.000Z</time>
      </trkpt>
      <trkpt lat="42.705" lon="1.18867">
        <ele>2280</ele>
        <time>2023-07-26T04:57:43.000Z</time>
      </trkpt>
      <trkpt lat="42.70495" lon="1.18863">
        <ele>2280.3999023438</ele>
        <time>2023-07-26T04:57:50.000Z</time>
      </trkpt>
      <trkpt lat="42.7049" lon="1.1886">
        <ele>2280.8000488281</ele>
        <time>2023-07-26T04:57:57.000Z</time>
      </trkpt>
      <trkpt lat="42.70488" lon="1.1886">
        <ele>2281.1999511719</ele>
        <time>2023-07-26T04:58:01.000Z</time>
      </trkpt>
      <trkpt lat="42.70487" lon="1.18859">
        <ele>2281.8000488281</ele>
        <time>2023-07-26T04:58:04.000Z</time>
      </trkpt>
      <trkpt lat="42.70484" lon="1.18853">
        <ele>2280.8000488281</ele>
        <time>2023-07-26T04:58:13.000Z</time>
      </trkpt>
      <trkpt lat="42.7048" lon="1.18851">
        <ele>2280.1999511719</ele>
        <time>2023-07-26T04:58:18.000Z</time>
      </trkpt>
      <trkpt lat="42.70479" lon="1.18851">
        <ele>2280</ele>
        <time>2023-07-26T04:58:19.000Z</time>
      </trkpt>
      <trkpt lat="42.7047" lon="1.1885">
        <ele>2280</ele>
        <time>2023-07-26T04:58:28.000Z</time>
      </trkpt>
      <trkpt lat="42.70465" lon="1.18848">
        <ele>2280.8000488281</ele>
        <time>2023-07-26T04:58:36.000Z</time>
      </trkpt>
      <trkpt lat="42.70463" lon="1.18847">
        <ele>2281.1999511719</ele>
        <time>2023-07-26T04:58:38.000Z</time>
      </trkpt>
      <trkpt lat="42.70457" lon="1.18844">
        <ele>2281.1999511719</ele>
        <time>2023-07-26T04:58:44.000Z</time>
      </trkpt>
      <trkpt lat="42.70456" lon="1.18842">
        <ele>2281</ele>
        <time>2023-07-26T04:58:49.000Z</time>
      </trkpt>
      <trkpt lat="42.70453" lon="1.18833">
        <ele>2280.8000488281</ele>
        <time>2023-07-26T04:58:56.000Z</time>
      </trkpt>
      <trkpt lat="42.70453" lon="1.18829">
        <ele>2281</ele>
        <time>2023-07-26T04:59:02.000Z</time>
      </trkpt>
      <trkpt lat="42.70452" lon="1.18818">
        <ele>2280.6000976562</ele>
        <time>2023-07-26T04:59:11.000Z</time>
      </trkpt>
      <trkpt lat="42.7045" lon="1.18816">
        <ele>2280.6000976562</ele>
        <time>2023-07-26T04:59:16.000Z</time>
      </trkpt>
      <trkpt lat="42.70448" lon="1.18815">
        <ele>2280.8000488281</ele>
        <time>2023-07-26T04:59:18.000Z</time>
      </trkpt>
      <trkpt lat="42.70444" lon="1.18811">
        <ele>2282</ele>
        <time>2023-07-26T04:59:26.000Z</time>
      </trkpt>
      <trkpt lat="42.70441" lon="1.1881">
        <ele>2282.3999023438</ele>
        <time>2023-07-26T04:59:29.000Z</time>
      </trkpt>
      <trkpt lat="42.70439" lon="1.18808">
        <ele>2283</ele>
        <time>2023-07-26T04:59:34.000Z</time>
      </trkpt>
      <trkpt lat="42.70438" lon="1.18806">
        <ele>2283.3999023438</ele>
        <time>2023-07-26T04:59:37.000Z</time>
      </trkpt>
      <trkpt lat="42.70438" lon="1.18802">
        <ele>2283.8000488281</ele>
        <time>2023-07-26T04:59:41.000Z</time>
      </trkpt>
      <trkpt lat="42.70439" lon="1.18796">
        <ele>2284</ele>
        <time>2023-07-26T04:59:48.000Z</time>
      </trkpt>
      <trkpt lat="42.70438" lon="1.1879">
        <ele>2283.3999023438</ele>
        <time>2023-07-26T04:59:54.000Z</time>
      </trkpt>
      <trkpt lat="42.70436" lon="1.18786">
        <ele>2283.1999511719</ele>
        <time>2023-07-26T05:00:00.000Z</time>
      </trkpt>
      <trkpt lat="42.70432" lon="1.18784">
        <ele>2283.6000976562</ele>
        <time>2023-07-26T05:00:09.000Z</time>
      </trkpt>
      <trkpt lat="42.70429" lon="1.18785">
        <ele>2284.6000976562</ele>
        <time>2023-07-26T05:00:16.000Z</time>
      </trkpt>
      <trkpt lat="42.70426" lon="1.18784">
        <ele>2285.8000488281</ele>
        <time>2023-07-26T05:00:21.000Z</time>
      </trkpt>
      <trkpt lat="42.70426" lon="1.18784">
        <ele>2286.6000976562</ele>
        <time>2023-07-26T05:00:24.000Z</time>
      </trkpt>
      <trkpt lat="42.70427" lon="1.18784">
        <ele>2287</ele>
        <time>2023-07-26T05:00:25.000Z</time>
      </trkpt>
      <trkpt lat="42.70428" lon="1.18785">
        <ele>2288</ele>
        <time>2023-07-26T05:00:29.000Z</time>
      </trkpt>
      <trkpt lat="42.70427" lon="1.18787">
        <ele>2288.1999511719</ele>
        <time>2023-07-26T05:00:33.000Z</time>
      </trkpt>
      <trkpt lat="42.70425" lon="1.18787">
        <ele>2287.8000488281</ele>
        <time>2023-07-26T05:00:40.000Z</time>
      </trkpt>
      <trkpt lat="42.70421" lon="1.18779">
        <ele>2287.1999511719</ele>
        <time>2023-07-26T05:00:47.000Z</time>
      </trkpt>
      <trkpt lat="42.70423" lon="1.18782">
        <ele>2286.8000488281</ele>
        <time>2023-07-26T05:00:54.000Z</time>
      </trkpt>
      <trkpt lat="42.7042" lon="1.1878">
        <ele>2287</ele>
        <time>2023-07-26T05:01:02.000Z</time>
      </trkpt>
      <trkpt lat="42.7042" lon="1.18779">
        <ele>2288</ele>
        <time>2023-07-26T05:01:05.000Z</time>
      </trkpt>
      <trkpt lat="42.70418" lon="1.18778">
        <ele>2288</ele>
        <time>2023-07-26T05:01:09.000Z</time>
      </trkpt>
      <trkpt lat="42.70416" lon="1.18783">
        <ele>2288</ele>
        <time>2023-07-26T05:01:15.000Z</time>
      </trkpt>
      <trkpt lat="42.70415" lon="1.18781">
        <ele>2288</ele>
        <time>2023-07-26T05:01:20.000Z</time>
      </trkpt>
      <trkpt lat="42.70412" lon="1.18777">
        <ele>2289</ele>
        <time>2023-07-26T05:01:26.000Z</time>
      </trkpt>
      <trkpt lat="42.70412" lon="1.18778">
        <ele>2289.1999511719</ele>
        <time>2023-07-26T05:01:28.000Z</time>
      </trkpt>
      <trkpt lat="42.70407" lon="1.18777">
        <ele>2289.8000488281</ele>
        <time>2023-07-26T05:01:34.000Z</time>
      </trkpt>
      <trkpt lat="42.70407" lon="1.18776">
        <ele>2290</ele>
        <time>2023-07-26T05:01:35.000Z</time>
      </trkpt>
      <trkpt lat="42.70405" lon="1.18772">
        <ele>2291</ele>
        <time>2023-07-26T05:01:40.000Z</time>
      </trkpt>
      <trkpt lat="42.70405" lon="1.18772">
        <ele>2291.1999511719</ele>
        <time>2023-07-26T05:01:42.000Z</time>
      </trkpt>
      <trkpt lat="42.70402" lon="1.18773">
        <ele>2292.1999511719</ele>
        <time>2023-07-26T05:01:49.000Z</time>
      </trkpt>
      <trkpt lat="42.70402" lon="1.18773">
        <ele>2292.3999023438</ele>
        <time>2023-07-26T05:01:50.000Z</time>
      </trkpt>
      <trkpt lat="42.70399" lon="1.18772">
        <ele>2293.1999511719</ele>
        <time>2023-07-26T05:01:56.000Z</time>
      </trkpt>
      <trkpt lat="42.70398" lon="1.18771">
        <ele>2293.6000976562</ele>
        <time>2023-07-26T05:01:58.000Z</time>
      </trkpt>
      <trkpt lat="42.70396" lon="1.18768">
        <ele>2294.1999511719</ele>
        <time>2023-07-26T05:02:02.000Z</time>
      </trkpt>
      <trkpt lat="42.70395" lon="1.18768">
        <ele>2294.6000976562</ele>
        <time>2023-07-26T05:02:06.000Z</time>
      </trkpt>
      <trkpt lat="42.70393" lon="1.18771">
        <ele>2295</ele>
        <time>2023-07-26T05:02:12.000Z</time>
      </trkpt>
      <trkpt lat="42.70395" lon="1.18773">
        <ele>2295</ele>
        <time>2023-07-26T05:02:19.000Z</time>
      </trkpt>
      <trkpt lat="42.70394" lon="1.1877">
        <ele>2295</ele>
        <time>2023-07-26T05:02:27.000Z</time>
      </trkpt>
      <trkpt lat="42.70393" lon="1.1877">
        <ele>2294.8000488281</ele>
        <time>2023-07-26T05:02:33.000Z</time>
      </trkpt>
      <trkpt lat="42.70389" lon="1.18761">
        <ele>2295.3999023438</ele>
        <time>2023-07-26T05:02:42.000Z</time>
      </trkpt>
      <trkpt lat="42.70385" lon="1.18757">
        <ele>2296.3999023438</ele>
        <time>2023-07-26T05:02:50.000Z</time>
      </trkpt>
      <trkpt lat="42.70382" lon="1.18755">
        <ele>2297.1999511719</ele>
        <time>2023-07-26T05:02:57.000Z</time>
      </trkpt>
      <trkpt lat="42.70382" lon="1.18755">
        <ele>2297.8000488281</ele>
        <time>2023-07-26T05:03:00.000Z</time>
      </trkpt>
      <trkpt lat="42.7038" lon="1.18753">
        <ele>2299</ele>
        <time>2023-07-26T05:03:05.000Z</time>
      </trkpt>
      <trkpt lat="42.70378" lon="1.1875">
        <ele>2300</ele>
        <time>2023-07-26T05:03:10.000Z</time>
      </trkpt>
      <trkpt lat="42.70376" lon="1.18748">
        <ele>2300.3999023438</ele>
        <time>2023-07-26T05:03:13.000Z</time>
      </trkpt>
      <trkpt lat="42.70373" lon="1.18744">
        <ele>2301</ele>
        <time>2023-07-26T05:03:19.000Z</time>
      </trkpt>
      <trkpt lat="42.70372" lon="1.18743">
        <ele>2301.1999511719</ele>
        <time>2023-07-26T05:03:21.000Z</time>
      </trkpt>
      <trkpt lat="42.70371" lon="1.18737">
        <ele>2300.6000976562</ele>
        <time>2023-07-26T05:03:29.000Z</time>
      </trkpt>
      <trkpt lat="42.70369" lon="1.18732">
        <ele>2300.8000488281</ele>
        <time>2023-07-26T05:03:37.000Z</time>
      </trkpt>
      <trkpt lat="42.70367" lon="1.18727">
        <ele>2301.3999023438</ele>
        <time>2023-07-26T05:03:44.000Z</time>
      </trkpt>
      <trkpt lat="42.70364" lon="1.18724">
        <ele>2302.1999511719</ele>
        <time>2023-07-26T05:03:49.000Z</time>
      </trkpt>
      <trkpt lat="42.70363" lon="1.18724">
        <ele>2302.3999023438</ele>
        <time>2023-07-26T05:03:51.000Z</time>
      </trkpt>
      <trkpt lat="42.70362" lon="1.18725">
        <ele>2303.1999511719</ele>
        <time>2023-07-26T05:03:56.000Z</time>
      </trkpt>
      <trkpt lat="42.70362" lon="1.18729">
        <ele>2303.6000976562</ele>
        <time>2023-07-26T05:03:58.000Z</time>
      </trkpt>
      <trkpt lat="42.70358" lon="1.18736">
        <ele>2304.1999511719</ele>
        <time>2023-07-26T05:04:04.000Z</time>
      </trkpt>
      <trkpt lat="42.70357" lon="1.18739">
        <ele>2304.8000488281</ele>
        <time>2023-07-26T05:04:07.000Z</time>
      </trkpt>
      <trkpt lat="42.70355" lon="1.18742">
        <ele>2305.3999023438</ele>
        <time>2023-07-26T05:04:10.000Z</time>
      </trkpt>
      <trkpt lat="42.70354" lon="1.18743">
        <ele>2306</ele>
        <time>2023-07-26T05:04:14.000Z</time>
      </trkpt>
      <trkpt lat="42.70352" lon="1.18742">
        <ele>2306.6000976562</ele>
        <time>2023-07-26T05:04:18.000Z</time>
      </trkpt>
      <trkpt lat="42.7035" lon="1.18738">
        <ele>2307.3999023438</ele>
        <time>2023-07-26T05:04:22.000Z</time>
      </trkpt>
      <trkpt lat="42.70348" lon="1.18736">
        <ele>2307.6000976562</ele>
        <time>2023-07-26T05:04:24.000Z</time>
      </trkpt>
      <trkpt lat="42.70346" lon="1.18733">
        <ele>2308.6000976562</ele>
        <time>2023-07-26T05:04:29.000Z</time>
      </trkpt>
      <trkpt lat="42.70345" lon="1.18733">
        <ele>2308.8000488281</ele>
        <time>2023-07-26T05:04:30.000Z</time>
      </trkpt>
      <trkpt lat="42.70346" lon="1.1873">
        <ele>2309.3999023438</ele>
        <time>2023-07-26T05:04:37.000Z</time>
      </trkpt>
      <trkpt lat="42.70345" lon="1.18728">
        <ele>2309.8000488281</ele>
        <time>2023-07-26T05:04:41.000Z</time>
      </trkpt>
      <trkpt lat="42.70345" lon="1.18727">
        <ele>2310.3999023438</ele>
        <time>2023-07-26T05:04:43.000Z</time>
      </trkpt>
      <trkpt lat="42.70344" lon="1.18724">
        <ele>2310.8000488281</ele>
        <time>2023-07-26T05:04:46.000Z</time>
      </trkpt>
      <trkpt lat="42.70346" lon="1.18721">
        <ele>2311.3999023438</ele>
        <time>2023-07-26T05:04:52.000Z</time>
      </trkpt>
      <trkpt lat="42.70345" lon="1.18721">
        <ele>2311.3999023438</ele>
        <time>2023-07-26T05:04:59.000Z</time>
      </trkpt>
      <trkpt lat="42.70343" lon="1.18727">
        <ele>2311.3999023438</ele>
        <time>2023-07-26T05:05:06.000Z</time>
      </trkpt>
      <trkpt lat="42.70339" lon="1.18726">
        <ele>2311.3999023438</ele>
        <time>2023-07-26T05:05:12.000Z</time>
      </trkpt>
      <trkpt lat="42.70334" lon="1.18718">
        <ele>2311.1999511719</ele>
        <time>2023-07-26T05:05:21.000Z</time>
      </trkpt>
      <trkpt lat="42.70331" lon="1.18716">
        <ele>2311.3999023438</ele>
        <time>2023-07-26T05:05:27.000Z</time>
      </trkpt>
      <trkpt lat="42.70328" lon="1.18714">
        <ele>2310.3999023438</ele>
        <time>2023-07-26T05:05:35.000Z</time>
      </trkpt>
      <trkpt lat="42.70326" lon="1.18714">
        <ele>2309.8000488281</ele>
        <time>2023-07-26T05:05:39.000Z</time>
      </trkpt>
      <trkpt lat="42.70323" lon="1.18716">
        <ele>2309.6000976562</ele>
        <time>2023-07-26T05:05:43.000Z</time>
      </trkpt>
      <trkpt lat="42.70323" lon="1.18723">
        <ele>2309.8000488281</ele>
        <time>2023-07-26T05:05:51.000Z</time>
      </trkpt>
      <trkpt lat="42.70324" lon="1.18724">
        <ele>2310</ele>
        <time>2023-07-26T05:06:00.000Z</time>
      </trkpt>
      <trkpt lat="42.70322" lon="1.18725">
        <ele>2310.1999511719</ele>
        <time>2023-07-26T05:06:07.000Z</time>
      </trkpt>
      <trkpt lat="42.70322" lon="1.18725">
        <ele>2310</ele>
        <time>2023-07-26T05:06:15.000Z</time>
      </trkpt>
      <trkpt lat="42.70326" lon="1.1873">
        <ele>2309.6000976562</ele>
        <time>2023-07-26T05:06:22.000Z</time>
      </trkpt>
      <trkpt lat="42.70325" lon="1.18724">
        <ele>2309.6000976562</ele>
        <time>2023-07-26T05:06:29.000Z</time>
      </trkpt>
      <trkpt lat="42.70325" lon="1.18722">
        <ele>2309.6000976562</ele>
        <time>2023-07-26T05:06:38.000Z</time>
      </trkpt>
      <trkpt lat="42.70324" lon="1.18722">
        <ele>2309.3999023438</ele>
        <time>2023-07-26T05:06:47.000Z</time>
      </trkpt>
      <trkpt lat="42.70325" lon="1.1872">
        <ele>2309.3999023438</ele>
        <time>2023-07-26T05:06:57.000Z</time>
      </trkpt>
      <trkpt lat="42.70324" lon="1.18722">
        <ele>2309.3999023438</ele>
        <time>2023-07-26T05:07:21.000Z</time>
      </trkpt>
      <trkpt lat="42.70321" lon="1.18724">
        <ele>2309.3999023438</ele>
        <time>2023-07-26T05:07:39.000Z</time>
      </trkpt>
      <trkpt lat="42.70321" lon="1.18723">
        <ele>2309.3999023438</ele>
        <time>2023-07-26T05:07:47.000Z</time>
      </trkpt>
      <trkpt lat="42.70322" lon="1.18728">
        <ele>2309.3999023438</ele>
        <time>2023-07-26T05:07:55.000Z</time>
      </trkpt>
      <trkpt lat="42.70322" lon="1.18729">
        <ele>2309.3999023438</ele>
        <time>2023-07-26T05:08:01.000Z</time>
      </trkpt>
      <trkpt lat="42.70322" lon="1.18726">
        <ele>2309.6000976562</ele>
        <time>2023-07-26T05:08:08.000Z</time>
      </trkpt>
      <trkpt lat="42.7032" lon="1.18726">
        <ele>2309.8000488281</ele>
        <time>2023-07-26T05:08:15.000Z</time>
      </trkpt>
      <trkpt lat="42.70321" lon="1.18723">
        <ele>2309.8000488281</ele>
        <time>2023-07-26T05:08:23.000Z</time>
      </trkpt>
      <trkpt lat="42.70324" lon="1.18724">
        <ele>2309.8000488281</ele>
        <time>2023-07-26T05:08:30.000Z</time>
      </trkpt>
      <trkpt lat="42.70326" lon="1.18721">
        <ele>2310.3999023438</ele>
        <time>2023-07-26T05:08:39.000Z</time>
      </trkpt>
      <trkpt lat="42.70326" lon="1.1872">
        <ele>2310.1999511719</ele>
        <time>2023-07-26T05:08:44.000Z</time>
      </trkpt>
      <trkpt lat="42.70322" lon="1.18722">
        <ele>2310.3999023438</ele>
        <time>2023-07-26T05:08:51.000Z</time>
      </trkpt>
      <trkpt lat="42.70322" lon="1.18725">
        <ele>2310.3999023438</ele>
        <time>2023-07-26T05:08:59.000Z</time>
      </trkpt>
      <trkpt lat="42.70323" lon="1.18727">
        <ele>2310.3999023438</ele>
        <time>2023-07-26T05:09:09.000Z</time>
      </trkpt>
      <trkpt lat="42.70322" lon="1.18727">
        <ele>2310.1999511719</ele>
        <time>2023-07-26T05:09:18.000Z</time>
      </trkpt>
      <trkpt lat="42.70324" lon="1.18727">
        <ele>2310</ele>
        <time>2023-07-26T05:09:27.000Z</time>
      </trkpt>
      <trkpt lat="42.70323" lon="1.18725">
        <ele>2310.3999023438</ele>
        <time>2023-07-26T05:09:34.000Z</time>
      </trkpt>
      <trkpt lat="42.70324" lon="1.18727">
        <ele>2310.6000976562</ele>
        <time>2023-07-26T05:09:39.000Z</time>
      </trkpt>
      <trkpt lat="42.70323" lon="1.18725">
        <ele>2310.6000976562</ele>
        <time>2023-07-26T05:09:47.000Z</time>
      </trkpt>
      <trkpt lat="42.70323" lon="1.18723">
        <ele>2310.6000976562</ele>
        <time>2023-07-26T05:09:53.000Z</time>
      </trkpt>
      <trkpt lat="42.70322" lon="1.18723">
        <ele>2310.6000976562</ele>
        <time>2023-07-26T05:10:02.000Z</time>
      </trkpt>
      <trkpt lat="42.70322" lon="1.18727">
        <ele>2310.6000976562</ele>
        <time>2023-07-26T05:10:12.000Z</time>
      </trkpt>
      <trkpt lat="42.70322" lon="1.18731">
        <ele>2310.3999023438</ele>
        <time>2023-07-26T05:10:19.000Z</time>
      </trkpt>
      <trkpt lat="42.70324" lon="1.18723">
        <ele>2310.1999511719</ele>
        <time>2023-07-26T05:10:26.000Z</time>
      </trkpt>
      <trkpt lat="42.70322" lon="1.18725">
        <ele>2310.1999511719</ele>
        <time>2023-07-26T05:10:34.000Z</time>
      </trkpt>
      <trkpt lat="42.70322" lon="1.18726">
        <ele>2310.3999023438</ele>
        <time>2023-07-26T05:10:42.000Z</time>
      </trkpt>
      <trkpt lat="42.70323" lon="1.18725">
        <ele>2310.1999511719</ele>
        <time>2023-07-26T05:10:51.000Z</time>
      </trkpt>
      <trkpt lat="42.70324" lon="1.18724">
        <ele>2310.6000976562</ele>
        <time>2023-07-26T05:11:00.000Z</time>
      </trkpt>
      <trkpt lat="42.70322" lon="1.18724">
        <ele>2310.8000488281</ele>
        <time>2023-07-26T05:11:06.000Z</time>
      </trkpt>
      <trkpt lat="42.70322" lon="1.18723">
        <ele>2311</ele>
        <time>2023-07-26T05:11:09.000Z</time>
      </trkpt>
      <trkpt lat="42.70323" lon="1.18725">
        <ele>2311.1999511719</ele>
        <time>2023-07-26T05:11:16.000Z</time>
      </trkpt>
      <trkpt lat="42.70325" lon="1.18726">
        <ele>2311.1999511719</ele>
        <time>2023-07-26T05:11:24.000Z</time>
      </trkpt>
      <trkpt lat="42.70321" lon="1.1872">
        <ele>2311.1999511719</ele>
        <time>2023-07-26T05:11:33.000Z</time>
      </trkpt>
      <trkpt lat="42.70321" lon="1.18719">
        <ele>2311.1999511719</ele>
        <time>2023-07-26T05:11:40.000Z</time>
      </trkpt>
      <trkpt lat="42.70319" lon="1.18723">
        <ele>2311.1999511719</ele>
        <time>2023-07-26T05:11:48.000Z</time>
      </trkpt>
      <trkpt lat="42.7032" lon="1.18721">
        <ele>2311</ele>
        <time>2023-07-26T05:11:56.000Z</time>
      </trkpt>
      <trkpt lat="42.70322" lon="1.18714">
        <ele>2311</ele>
        <time>2023-07-26T05:12:03.000Z</time>
      </trkpt>
      <trkpt lat="42.70317" lon="1.18711">
        <ele>2311.3999023438</ele>
        <time>2023-07-26T05:12:11.000Z</time>
      </trkpt>
      <trkpt lat="42.70313" lon="1.18711">
        <ele>2311.1999511719</ele>
        <time>2023-07-26T05:12:21.000Z</time>
      </trkpt>
      <trkpt lat="42.70303" lon="1.18716">
        <ele>2310.6000976562</ele>
        <time>2023-07-26T05:12:29.000Z</time>
      </trkpt>
      <trkpt lat="42.70301" lon="1.18715">
        <ele>2310.3999023438</ele>
        <time>2023-07-26T05:12:34.000Z</time>
      </trkpt>
      <trkpt lat="42.70296" lon="1.18712">
        <ele>2311</ele>
        <time>2023-07-26T05:12:42.000Z</time>
      </trkpt>
      <trkpt lat="42.70294" lon="1.18707">
        <ele>2311.6000976562</ele>
        <time>2023-07-26T05:12:50.000Z</time>
      </trkpt>
      <trkpt lat="42.70295" lon="1.18708">
        <ele>2311.6000976562</ele>
        <time>2023-07-26T05:12:57.000Z</time>
      </trkpt>
      <trkpt lat="42.70295" lon="1.18708">
        <ele>2311.3999023438</ele>
        <time>2023-07-26T05:13:03.000Z</time>
      </trkpt>
      <trkpt lat="42.70297" lon="1.18704">
        <ele>2311.8000488281</ele>
        <time>2023-07-26T05:13:08.000Z</time>
      </trkpt>
      <trkpt lat="42.70299" lon="1.18702">
        <ele>2312</ele>
        <time>2023-07-26T05:13:10.000Z</time>
      </trkpt>
      <trkpt lat="42.70295" lon="1.187">
        <ele>2312.6000976562</ele>
        <time>2023-07-26T05:13:17.000Z</time>
      </trkpt>
      <trkpt lat="42.7029" lon="1.18697">
        <ele>2313</ele>
        <time>2023-07-26T05:13:23.000Z</time>
      </trkpt>
      <trkpt lat="42.70289" lon="1.18698">
        <ele>2313.3999023438</ele>
        <time>2023-07-26T05:13:25.000Z</time>
      </trkpt>
      <trkpt lat="42.70286" lon="1.18697">
        <ele>2314</ele>
        <time>2023-07-26T05:13:29.000Z</time>
      </trkpt>
      <trkpt lat="42.70284" lon="1.18696">
        <ele>2314.6000976562</ele>
        <time>2023-07-26T05:13:32.000Z</time>
      </trkpt>
      <trkpt lat="42.70283" lon="1.18694">
        <ele>2315.1999511719</ele>
        <time>2023-07-26T05:13:34.000Z</time>
      </trkpt>
      <trkpt lat="42.70282" lon="1.18689">
        <ele>2315.6000976562</ele>
        <time>2023-07-26T05:13:39.000Z</time>
      </trkpt>
      <trkpt lat="42.70277" lon="1.18682">
        <ele>2316.1999511719</ele>
        <time>2023-07-26T05:13:48.000Z</time>
      </trkpt>
      <trkpt lat="42.70276" lon="1.18682">
        <ele>2316.1999511719</ele>
        <time>2023-07-26T05:13:49.000Z</time>
      </trkpt>
      <trkpt lat="42.70274" lon="1.1868">
        <ele>2317.1999511719</ele>
        <time>2023-07-26T05:13:56.000Z</time>
      </trkpt>
      <trkpt lat="42.70274" lon="1.1868">
        <ele>2317.6000976562</ele>
        <time>2023-07-26T05:13:57.000Z</time>
      </trkpt>
      <trkpt lat="42.70271" lon="1.18678">
        <ele>2318.1999511719</ele>
        <time>2023-07-26T05:14:02.000Z</time>
      </trkpt>
      <trkpt lat="42.7027" lon="1.18677">
        <ele>2318.8000488281</ele>
        <time>2023-07-26T05:14:04.000Z</time>
      </trkpt>
      <trkpt lat="42.70268" lon="1.18675">
        <ele>2319.3999023438</ele>
        <time>2023-07-26T05:14:07.000Z</time>
      </trkpt>
      <trkpt lat="42.70266" lon="1.18672">
        <ele>2320.1999511719</ele>
        <time>2023-07-26T05:14:12.000Z</time>
      </trkpt>
      <trkpt lat="42.70265" lon="1.1867">
        <ele>2320.6000976562</ele>
        <time>2023-07-26T05:14:14.000Z</time>
      </trkpt>
      <trkpt lat="42.70262" lon="1.18669">
        <ele>2321.3999023438</ele>
        <time>2023-07-26T05:14:20.000Z</time>
      </trkpt>
      <trkpt lat="42.70261" lon="1.18669">
        <ele>2321.6000976562</ele>
        <time>2023-07-26T05:14:21.000Z</time>
      </trkpt>
      <trkpt lat="42.70257" lon="1.18667">
        <ele>2322.6000976562</ele>
        <time>2023-07-26T05:14:28.000Z</time>
      </trkpt>
      <trkpt lat="42.70255" lon="1.18662">
        <ele>2322.6000976562</ele>
        <time>2023-07-26T05:14:35.000Z</time>
      </trkpt>
      <trkpt lat="42.70253" lon="1.18654">
        <ele>2321.8000488281</ele>
        <time>2023-07-26T05:14:43.000Z</time>
      </trkpt>
      <trkpt lat="42.70254" lon="1.18645">
        <ele>2321.6000976562</ele>
        <time>2023-07-26T05:14:51.000Z</time>
      </trkpt>
      <trkpt lat="42.7026" lon="1.18638">
        <ele>2321.3999023438</ele>
        <time>2023-07-26T05:14:59.000Z</time>
      </trkpt>
      <trkpt lat="42.70265" lon="1.18633">
        <ele>2322.8000488281</ele>
        <time>2023-07-26T05:15:06.000Z</time>
      </trkpt>
      <trkpt lat="42.70265" lon="1.18631">
        <ele>2323.1999511719</ele>
        <time>2023-07-26T05:15:09.000Z</time>
      </trkpt>
      <trkpt lat="42.70265" lon="1.18621">
        <ele>2322.8000488281</ele>
        <time>2023-07-26T05:15:19.000Z</time>
      </trkpt>
      <trkpt lat="42.70267" lon="1.1862">
        <ele>2322.6000976562</ele>
        <time>2023-07-26T05:15:25.000Z</time>
      </trkpt>
      <trkpt lat="42.70268" lon="1.18621">
        <ele>2323.1999511719</ele>
        <time>2023-07-26T05:15:34.000Z</time>
      </trkpt>
      <trkpt lat="42.70267" lon="1.18624">
        <ele>2323.1999511719</ele>
        <time>2023-07-26T05:15:41.000Z</time>
      </trkpt>
      <trkpt lat="42.70264" lon="1.18632">
        <ele>2323.3999023438</ele>
        <time>2023-07-26T05:15:49.000Z</time>
      </trkpt>
      <trkpt lat="42.7026" lon="1.18637">
        <ele>2322.8000488281</ele>
        <time>2023-07-26T05:15:57.000Z</time>
      </trkpt>
      <trkpt lat="42.70255" lon="1.18648">
        <ele>2322.1999511719</ele>
        <time>2023-07-26T05:16:04.000Z</time>
      </trkpt>
      <trkpt lat="42.70255" lon="1.18655">
        <ele>2322</ele>
        <time>2023-07-26T05:16:12.000Z</time>
      </trkpt>
      <trkpt lat="42.70257" lon="1.18658">
        <ele>2321.6000976562</ele>
        <time>2023-07-26T05:16:19.000Z</time>
      </trkpt>
      <trkpt lat="42.70257" lon="1.18658">
        <ele>2321.6000976562</ele>
        <time>2023-07-26T05:16:21.000Z</time>
      </trkpt>
      <trkpt lat="42.70252" lon="1.1866">
        <ele>2321.8000488281</ele>
        <time>2023-07-26T05:16:28.000Z</time>
      </trkpt>
      <trkpt lat="42.70248" lon="1.18658">
        <ele>2321.6000976562</ele>
        <time>2023-07-26T05:16:35.000Z</time>
      </trkpt>
      <trkpt lat="42.70248" lon="1.18652">
        <ele>2321.3999023438</ele>
        <time>2023-07-26T05:16:42.000Z</time>
      </trkpt>
      <trkpt lat="42.70245" lon="1.18651">
        <ele>2321.6000976562</ele>
        <time>2023-07-26T05:16:48.000Z</time>
      </trkpt>
      <trkpt lat="42.70243" lon="1.18646">
        <ele>2321</ele>
        <time>2023-07-26T05:16:55.000Z</time>
      </trkpt>
      <trkpt lat="42.70243" lon="1.18645">
        <ele>2320.8000488281</ele>
        <time>2023-07-26T05:17:02.000Z</time>
      </trkpt>
      <trkpt lat="42.70244" lon="1.18644">
        <ele>2320.6000976562</ele>
        <time>2023-07-26T05:17:09.000Z</time>
      </trkpt>
      <trkpt lat="42.70245" lon="1.18644">
        <ele>2320.6000976562</ele>
        <time>2023-07-26T05:17:11.000Z</time>
      </trkpt>
      <trkpt lat="42.70247" lon="1.18639">
        <ele>2320.6000976562</ele>
        <time>2023-07-26T05:17:18.000Z</time>
      </trkpt>
      <trkpt lat="42.70245" lon="1.18646">
        <ele>2320.6000976562</ele>
        <time>2023-07-26T05:17:24.000Z</time>
      </trkpt>
      <trkpt lat="42.70244" lon="1.18642">
        <ele>2320.3999023438</ele>
        <time>2023-07-26T05:17:30.000Z</time>
      </trkpt>
      <trkpt lat="42.70242" lon="1.18639">
        <ele>2321</ele>
        <time>2023-07-26T05:17:37.000Z</time>
      </trkpt>
      <trkpt lat="42.70238" lon="1.1863">
        <ele>2320.8000488281</ele>
        <time>2023-07-26T05:17:45.000Z</time>
      </trkpt>
      <trkpt lat="42.70236" lon="1.18623">
        <ele>2321</ele>
        <time>2023-07-26T05:17:51.000Z</time>
      </trkpt>
      <trkpt lat="42.70235" lon="1.18611">
        <ele>2321.6000976562</ele>
        <time>2023-07-26T05:18:02.000Z</time>
      </trkpt>
      <trkpt lat="42.70235" lon="1.18608">
        <ele>2321.8000488281</ele>
        <time>2023-07-26T05:18:05.000Z</time>
      </trkpt>
      <trkpt lat="42.70236" lon="1.18596">
        <ele>2322.1999511719</ele>
        <time>2023-07-26T05:18:14.000Z</time>
      </trkpt>
      <trkpt lat="42.70236" lon="1.18582">
        <ele>2322.8000488281</ele>
        <time>2023-07-26T05:18:23.000Z</time>
      </trkpt>
      <trkpt lat="42.70236" lon="1.18574">
        <ele>2323.6000976562</ele>
        <time>2023-07-26T05:18:30.000Z</time>
      </trkpt>
      <trkpt lat="42.70236" lon="1.18573">
        <ele>2323.8000488281</ele>
        <time>2023-07-26T05:18:32.000Z</time>
      </trkpt>
      <trkpt lat="42.70236" lon="1.18572">
        <ele>2324.1999511719</ele>
        <time>2023-07-26T05:18:37.000Z</time>
      </trkpt>
      <trkpt lat="42.70236" lon="1.18572">
        <ele>2324.1999511719</ele>
        <time>2023-07-26T05:18:38.000Z</time>
      </trkpt>
      <trkpt lat="42.70237" lon="1.1857">
        <ele>2324</ele>
        <time>2023-07-26T05:18:46.000Z</time>
      </trkpt>
      <trkpt lat="42.70234" lon="1.18565">
        <ele>2324.6000976562</ele>
        <time>2023-07-26T05:18:54.000Z</time>
      </trkpt>
      <trkpt lat="42.70233" lon="1.18565">
        <ele>2325</ele>
        <time>2023-07-26T05:18:58.000Z</time>
      </trkpt>
      <trkpt lat="42.70233" lon="1.18564">
        <ele>2325</ele>
        <time>2023-07-26T05:19:01.000Z</time>
      </trkpt>
      <trkpt lat="42.70232" lon="1.18558">
        <ele>2326</ele>
        <time>2023-07-26T05:19:07.000Z</time>
      </trkpt>
      <trkpt lat="42.70232" lon="1.18558">
        <ele>2326.6000976562</ele>
        <time>2023-07-26T05:19:09.000Z</time>
      </trkpt>
      <trkpt lat="42.70231" lon="1.18558">
        <ele>2327.1999511719</ele>
        <time>2023-07-26T05:19:11.000Z</time>
      </trkpt>
      <trkpt lat="42.70229" lon="1.1856">
        <ele>2327.6000976562</ele>
        <time>2023-07-26T05:19:15.000Z</time>
      </trkpt>
      <trkpt lat="42.70227" lon="1.18564">
        <ele>2328.1999511719</ele>
        <time>2023-07-26T05:19:22.000Z</time>
      </trkpt>
      <trkpt lat="42.70226" lon="1.18565">
        <ele>2328.6000976562</ele>
        <time>2023-07-26T05:19:25.000Z</time>
      </trkpt>
      <trkpt lat="42.70226" lon="1.18566">
        <ele>2329.1999511719</ele>
        <time>2023-07-26T05:19:32.000Z</time>
      </trkpt>
      <trkpt lat="42.70226" lon="1.18567">
        <ele>2329.1999511719</ele>
        <time>2023-07-26T05:19:33.000Z</time>
      </trkpt>
      <trkpt lat="42.70224" lon="1.1857">
        <ele>2329</ele>
        <time>2023-07-26T05:19:40.000Z</time>
      </trkpt>
      <trkpt lat="42.70226" lon="1.18568">
        <ele>2329.8000488281</ele>
        <time>2023-07-26T05:19:48.000Z</time>
      </trkpt>
      <trkpt lat="42.70223" lon="1.18572">
        <ele>2330.1999511719</ele>
        <time>2023-07-26T05:19:53.000Z</time>
      </trkpt>
      <trkpt lat="42.70222" lon="1.18572">
        <ele>2330.6000976562</ele>
        <time>2023-07-26T05:19:55.000Z</time>
      </trkpt>
      <trkpt lat="42.7022" lon="1.18571">
        <ele>2331.1999511719</ele>
        <time>2023-07-26T05:19:58.000Z</time>
      </trkpt>
      <trkpt lat="42.70221" lon="1.18568">
        <ele>2332.3999023438</ele>
        <time>2023-07-26T05:20:03.000Z</time>
      </trkpt>
      <trkpt lat="42.70221" lon="1.18565">
        <ele>2333.3999023438</ele>
        <time>2023-07-26T05:20:07.000Z</time>
      </trkpt>
      <trkpt lat="42.7022" lon="1.18559">
        <ele>2333.6000976562</ele>
        <time>2023-07-26T05:20:12.000Z</time>
      </trkpt>
      <trkpt lat="42.70221" lon="1.18559">
        <ele>2334.3999023438</ele>
        <time>2023-07-26T05:20:16.000Z</time>
      </trkpt>
      <trkpt lat="42.70221" lon="1.18558">
        <ele>2335</ele>
        <time>2023-07-26T05:20:19.000Z</time>
      </trkpt>
      <trkpt lat="42.70223" lon="1.18554">
        <ele>2335</ele>
        <time>2023-07-26T05:20:30.000Z</time>
      </trkpt>
      <trkpt lat="42.70222" lon="1.18553">
        <ele>2335.1999511719</ele>
        <time>2023-07-26T05:20:38.000Z</time>
      </trkpt>
      <trkpt lat="42.70224" lon="1.18558">
        <ele>2335.3999023438</ele>
        <time>2023-07-26T05:20:46.000Z</time>
      </trkpt>
      <trkpt lat="42.70224" lon="1.18558">
        <ele>2335.6000976562</ele>
        <time>2023-07-26T05:20:47.000Z</time>
      </trkpt>
      <trkpt lat="42.70223" lon="1.18558">
        <ele>2335.8000488281</ele>
        <time>2023-07-26T05:20:53.000Z</time>
      </trkpt>
      <trkpt lat="42.70221" lon="1.18558">
        <ele>2335.3999023438</ele>
        <time>2023-07-26T05:21:01.000Z</time>
      </trkpt>
      <trkpt lat="42.70221" lon="1.18559">
        <ele>2335.1999511719</ele>
        <time>2023-07-26T05:21:11.000Z</time>
      </trkpt>
      <trkpt lat="42.70221" lon="1.18559">
        <ele>2335.1999511719</ele>
        <time>2023-07-26T05:21:19.000Z</time>
      </trkpt>
      <trkpt lat="42.7022" lon="1.18557">
        <ele>2335.8000488281</ele>
        <time>2023-07-26T05:21:26.000Z</time>
      </trkpt>
      <trkpt lat="42.70219" lon="1.18559">
        <ele>2336.1999511719</ele>
        <time>2023-07-26T05:21:33.000Z</time>
      </trkpt>
      <trkpt lat="42.7022" lon="1.18558">
        <ele>2336</ele>
        <time>2023-07-26T05:21:41.000Z</time>
      </trkpt>
      <trkpt lat="42.7022" lon="1.18552">
        <ele>2336.3999023438</ele>
        <time>2023-07-26T05:21:49.000Z</time>
      </trkpt>
      <trkpt lat="42.7022" lon="1.18551">
        <ele>2336.6000976562</ele>
        <time>2023-07-26T05:21:51.000Z</time>
      </trkpt>
      <trkpt lat="42.70219" lon="1.18549">
        <ele>2337.3999023438</ele>
        <time>2023-07-26T05:21:56.000Z</time>
      </trkpt>
      <trkpt lat="42.70219" lon="1.18549">
        <ele>2337.8000488281</ele>
        <time>2023-07-26T05:21:58.000Z</time>
      </trkpt>
      <trkpt lat="42.7022" lon="1.18546">
        <ele>2338.8000488281</ele>
        <time>2023-07-26T05:22:04.000Z</time>
      </trkpt>
      <trkpt lat="42.70221" lon="1.18542">
        <ele>2339.3999023438</ele>
        <time>2023-07-26T05:22:08.000Z</time>
      </trkpt>
      <trkpt lat="42.70221" lon="1.18541">
        <ele>2340</ele>
        <time>2023-07-26T05:22:10.000Z</time>
      </trkpt>
      <trkpt lat="42.70222" lon="1.18538">
        <ele>2341</ele>
        <time>2023-07-26T05:22:15.000Z</time>
      </trkpt>
      <trkpt lat="42.70221" lon="1.18536">
        <ele>2341.1999511719</ele>
        <time>2023-07-26T05:22:17.000Z</time>
      </trkpt>
      <trkpt lat="42.70221" lon="1.18534">
        <ele>2342</ele>
        <time>2023-07-26T05:22:22.000Z</time>
      </trkpt>
      <trkpt lat="42.70221" lon="1.18534">
        <ele>2342.6000976562</ele>
        <time>2023-07-26T05:22:25.000Z</time>
      </trkpt>
      <trkpt lat="42.70221" lon="1.18535">
        <ele>2342.6000976562</ele>
        <time>2023-07-26T05:22:26.000Z</time>
      </trkpt>
      <trkpt lat="42.70219" lon="1.18536">
        <ele>2342.8000488281</ele>
        <time>2023-07-26T05:22:29.000Z</time>
      </trkpt>
      <trkpt lat="42.70218" lon="1.18537">
        <ele>2343.1999511719</ele>
        <time>2023-07-26T05:22:33.000Z</time>
      </trkpt>
      <trkpt lat="42.7022" lon="1.18537">
        <ele>2343.8000488281</ele>
        <time>2023-07-26T05:22:42.000Z</time>
      </trkpt>
      <trkpt lat="42.7022" lon="1.18533">
        <ele>2344.3999023438</ele>
        <time>2023-07-26T05:22:50.000Z</time>
      </trkpt>
      <trkpt lat="42.70219" lon="1.18535">
        <ele>2344.3999023438</ele>
        <time>2023-07-26T05:22:57.000Z</time>
      </trkpt>
      <trkpt lat="42.70215" lon="1.18536">
        <ele>2344.8000488281</ele>
        <time>2023-07-26T05:23:03.000Z</time>
      </trkpt>
      <trkpt lat="42.70214" lon="1.18537">
        <ele>2345.1999511719</ele>
        <time>2023-07-26T05:23:05.000Z</time>
      </trkpt>
      <trkpt lat="42.70212" lon="1.18539">
        <ele>2345.3999023438</ele>
        <time>2023-07-26T05:23:11.000Z</time>
      </trkpt>
      <trkpt lat="42.70212" lon="1.18538">
        <ele>2346.1999511719</ele>
        <time>2023-07-26T05:23:18.000Z</time>
      </trkpt>
      <trkpt lat="42.70212" lon="1.18539">
        <ele>2346.3999023438</ele>
        <time>2023-07-26T05:23:20.000Z</time>
      </trkpt>
      <trkpt lat="42.70211" lon="1.1854">
        <ele>2346.3999023438</ele>
        <time>2023-07-26T05:23:26.000Z</time>
      </trkpt>
      <trkpt lat="42.70208" lon="1.18548">
        <ele>2345.6000976562</ele>
        <time>2023-07-26T05:23:34.000Z</time>
      </trkpt>
      <trkpt lat="42.70207" lon="1.1855">
        <ele>2345</ele>
        <time>2023-07-26T05:23:36.000Z</time>
      </trkpt>
      <trkpt lat="42.70207" lon="1.18547">
        <ele>2344.1999511719</ele>
        <time>2023-07-26T05:23:41.000Z</time>
      </trkpt>
      <trkpt lat="42.70209" lon="1.18545">
        <ele>2344</ele>
        <time>2023-07-26T05:23:47.000Z</time>
      </trkpt>
      <trkpt lat="42.7021" lon="1.18547">
        <ele>2343.8000488281</ele>
        <time>2023-07-26T05:23:49.000Z</time>
      </trkpt>
      <trkpt lat="42.70207" lon="1.18552">
        <ele>2342.8000488281</ele>
        <time>2023-07-26T05:23:54.000Z</time>
      </trkpt>
      <trkpt lat="42.70206" lon="1.18554">
        <ele>2342.6000976562</ele>
        <time>2023-07-26T05:23:55.000Z</time>
      </trkpt>
      <trkpt lat="42.70202" lon="1.18563">
        <ele>2341.8000488281</ele>
        <time>2023-07-26T05:24:01.000Z</time>
      </trkpt>
      <trkpt lat="42.70201" lon="1.18564">
        <ele>2341.8000488281</ele>
        <time>2023-07-26T05:24:03.000Z</time>
      </trkpt>
      <trkpt lat="42.70197" lon="1.18563">
        <ele>2342.6000976562</ele>
        <time>2023-07-26T05:24:10.000Z</time>
      </trkpt>
      <trkpt lat="42.70191" lon="1.18563">
        <ele>2342.8000488281</ele>
        <time>2023-07-26T05:24:17.000Z</time>
      </trkpt>
      <trkpt lat="42.70191" lon="1.18563">
        <ele>2342.8000488281</ele>
        <time>2023-07-26T05:24:18.000Z</time>
      </trkpt>
      <trkpt lat="42.70192" lon="1.18562">
        <ele>2342.6000976562</ele>
        <time>2023-07-26T05:24:23.000Z</time>
      </trkpt>
      <trkpt lat="42.70194" lon="1.1856">
        <ele>2342.3999023438</ele>
        <time>2023-07-26T05:24:32.000Z</time>
      </trkpt>
      <trkpt lat="42.70193" lon="1.1856">
        <ele>2342.6000976562</ele>
        <time>2023-07-26T05:24:41.000Z</time>
      </trkpt>
      <trkpt lat="42.70192" lon="1.18568">
        <ele>2342.3999023438</ele>
        <time>2023-07-26T05:24:48.000Z</time>
      </trkpt>
      <trkpt lat="42.70186" lon="1.18574">
        <ele>2341.8000488281</ele>
        <time>2023-07-26T05:24:55.000Z</time>
      </trkpt>
      <trkpt lat="42.70184" lon="1.18582">
        <ele>2342</ele>
        <time>2023-07-26T05:25:01.000Z</time>
      </trkpt>
      <trkpt lat="42.70184" lon="1.18584">
        <ele>2341.6000976562</ele>
        <time>2023-07-26T05:25:04.000Z</time>
      </trkpt>
      <trkpt lat="42.70186" lon="1.18588">
        <ele>2341.1999511719</ele>
        <time>2023-07-26T05:25:09.000Z</time>
      </trkpt>
      <trkpt lat="42.70186" lon="1.18592">
        <ele>2340.6000976562</ele>
        <time>2023-07-26T05:25:12.000Z</time>
      </trkpt>
      <trkpt lat="42.70187" lon="1.18595">
        <ele>2340.3999023438</ele>
        <time>2023-07-26T05:25:16.000Z</time>
      </trkpt>
      <trkpt lat="42.70186" lon="1.186">
        <ele>2341</ele>
        <time>2023-07-26T05:25:25.000Z</time>
      </trkpt>
      <trkpt lat="42.70187" lon="1.18599">
        <ele>2340.8000488281</ele>
        <time>2023-07-26T05:25:33.000Z</time>
      </trkpt>
      <trkpt lat="42.70187" lon="1.18598">
        <ele>2341</ele>
        <time>2023-07-26T05:25:39.000Z</time>
      </trkpt>
      <trkpt lat="42.70186" lon="1.18599">
        <ele>2341.8000488281</ele>
        <time>2023-07-26T05:25:46.000Z</time>
      </trkpt>
      <trkpt lat="42.70185" lon="1.186">
        <ele>2342</ele>
        <time>2023-07-26T05:25:47.000Z</time>
      </trkpt>
      <trkpt lat="42.70183" lon="1.18604">
        <ele>2342.8000488281</ele>
        <time>2023-07-26T05:25:51.000Z</time>
      </trkpt>
      <trkpt lat="42.7018" lon="1.18607">
        <ele>2343.1999511719</ele>
        <time>2023-07-26T05:25:55.000Z</time>
      </trkpt>
      <trkpt lat="42.70177" lon="1.18611">
        <ele>2343.8000488281</ele>
        <time>2023-07-26T05:26:01.000Z</time>
      </trkpt>
      <trkpt lat="42.70175" lon="1.18613">
        <ele>2344.3999023438</ele>
        <time>2023-07-26T05:26:04.000Z</time>
      </trkpt>
      <trkpt lat="42.70174" lon="1.18615">
        <ele>2345</ele>
        <time>2023-07-26T05:26:06.000Z</time>
      </trkpt>
      <trkpt lat="42.70172" lon="1.18616">
        <ele>2346</ele>
        <time>2023-07-26T05:26:12.000Z</time>
      </trkpt>
      <trkpt lat="42.70172" lon="1.18617">
        <ele>2346</ele>
        <time>2023-07-26T05:26:13.000Z</time>
      </trkpt>
      <trkpt lat="42.70167" lon="1.18623">
        <ele>2346</ele>
        <time>2023-07-26T05:26:21.000Z</time>
      </trkpt>
      <trkpt lat="42.70165" lon="1.18622">
        <ele>2345.3999023438</ele>
        <time>2023-07-26T05:26:29.000Z</time>
      </trkpt>
      <trkpt lat="42.70164" lon="1.18622">
        <ele>2344.8000488281</ele>
        <time>2023-07-26T05:26:32.000Z</time>
      </trkpt>
      <trkpt lat="42.7016" lon="1.18623">
        <ele>2343.6000976562</ele>
        <time>2023-07-26T05:26:36.000Z</time>
      </trkpt>
      <trkpt lat="42.70159" lon="1.18623">
        <ele>2343.1999511719</ele>
        <time>2023-07-26T05:26:37.000Z</time>
      </trkpt>
      <trkpt lat="42.70157" lon="1.18624">
        <ele>2342.3999023438</ele>
        <time>2023-07-26T05:26:39.000Z</time>
      </trkpt>
      <trkpt lat="42.70152" lon="1.1863">
        <ele>2341.6000976562</ele>
        <time>2023-07-26T05:26:47.000Z</time>
      </trkpt>
      <trkpt lat="42.70145" lon="1.1864">
        <ele>2341.8000488281</ele>
        <time>2023-07-26T05:26:54.000Z</time>
      </trkpt>
      <trkpt lat="42.70139" lon="1.1864">
        <ele>2342</ele>
        <time>2023-07-26T05:27:01.000Z</time>
      </trkpt>
      <trkpt lat="42.70139" lon="1.1864">
        <ele>2342</ele>
        <time>2023-07-26T05:27:02.000Z</time>
      </trkpt>
      <trkpt lat="42.70135" lon="1.1864">
        <ele>2342.1999511719</ele>
        <time>2023-07-26T05:27:09.000Z</time>
      </trkpt>
      <trkpt lat="42.70127" lon="1.18642">
        <ele>2342.1999511719</ele>
        <time>2023-07-26T05:27:16.000Z</time>
      </trkpt>
      <trkpt lat="42.70122" lon="1.1864">
        <ele>2342.1999511719</ele>
        <time>2023-07-26T05:27:23.000Z</time>
      </trkpt>
      <trkpt lat="42.70118" lon="1.18636">
        <ele>2342.3999023438</ele>
        <time>2023-07-26T05:27:30.000Z</time>
      </trkpt>
      <trkpt lat="42.70115" lon="1.18633">
        <ele>2342.3999023438</ele>
        <time>2023-07-26T05:27:35.000Z</time>
      </trkpt>
      <trkpt lat="42.70112" lon="1.18633">
        <ele>2342.1999511719</ele>
        <time>2023-07-26T05:27:40.000Z</time>
      </trkpt>
      <trkpt lat="42.70111" lon="1.18631">
        <ele>2342.8000488281</ele>
        <time>2023-07-26T05:27:48.000Z</time>
      </trkpt>
      <trkpt lat="42.70111" lon="1.18629">
        <ele>2343.6000976562</ele>
        <time>2023-07-26T05:27:52.000Z</time>
      </trkpt>
      <trkpt lat="42.70111" lon="1.18627">
        <ele>2344</ele>
        <time>2023-07-26T05:27:55.000Z</time>
      </trkpt>
      <trkpt lat="42.70111" lon="1.18623">
        <ele>2344.1999511719</ele>
        <time>2023-07-26T05:28:00.000Z</time>
      </trkpt>
      <trkpt lat="42.70113" lon="1.18625">
        <ele>2344</ele>
        <time>2023-07-26T05:28:09.000Z</time>
      </trkpt>
      <trkpt lat="42.70113" lon="1.18627">
        <ele>2344.1999511719</ele>
        <time>2023-07-26T05:28:16.000Z</time>
      </trkpt>
      <trkpt lat="42.70113" lon="1.1863">
        <ele>2344.1999511719</ele>
        <time>2023-07-26T05:28:24.000Z</time>
      </trkpt>
      <trkpt lat="42.7011" lon="1.18635">
        <ele>2344.3999023438</ele>
        <time>2023-07-26T05:28:31.000Z</time>
      </trkpt>
      <trkpt lat="42.70107" lon="1.18633">
        <ele>2344.6000976562</ele>
        <time>2023-07-26T05:28:35.000Z</time>
      </trkpt>
      <trkpt lat="42.70106" lon="1.18632">
        <ele>2345.1999511719</ele>
        <time>2023-07-26T05:28:38.000Z</time>
      </trkpt>
      <trkpt lat="42.70105" lon="1.18631">
        <ele>2345.6000976562</ele>
        <time>2023-07-26T05:28:40.000Z</time>
      </trkpt>
      <trkpt lat="42.70104" lon="1.18627">
        <ele>2345.8000488281</ele>
        <time>2023-07-26T05:28:47.000Z</time>
      </trkpt>
      <trkpt lat="42.70101" lon="1.18624">
        <ele>2346.1999511719</ele>
        <time>2023-07-26T05:28:54.000Z</time>
      </trkpt>
      <trkpt lat="42.70096" lon="1.18621">
        <ele>2346.6000976562</ele>
        <time>2023-07-26T05:29:00.000Z</time>
      </trkpt>
      <trkpt lat="42.70094" lon="1.1862">
        <ele>2346.8000488281</ele>
        <time>2023-07-26T05:29:03.000Z</time>
      </trkpt>
      <trkpt lat="42.70092" lon="1.18619">
        <ele>2346.3999023438</ele>
        <time>2023-07-26T05:29:10.000Z</time>
      </trkpt>
      <trkpt lat="42.70091" lon="1.18619">
        <ele>2345.6000976562</ele>
        <time>2023-07-26T05:29:14.000Z</time>
      </trkpt>
      <trkpt lat="42.70091" lon="1.18619">
        <ele>2345</ele>
        <time>2023-07-26T05:29:18.000Z</time>
      </trkpt>
      <trkpt lat="42.7009" lon="1.18619">
        <ele>2344.6000976562</ele>
        <time>2023-07-26T05:29:20.000Z</time>
      </trkpt>
      <trkpt lat="42.70087" lon="1.18619">
        <ele>2344.1999511719</ele>
        <time>2023-07-26T05:29:24.000Z</time>
      </trkpt>
      <trkpt lat="42.70077" lon="1.18616">
        <ele>2344.1999511719</ele>
        <time>2023-07-26T05:29:33.000Z</time>
      </trkpt>
      <trkpt lat="42.70069" lon="1.18616">
        <ele>2344.8000488281</ele>
        <time>2023-07-26T05:29:41.000Z</time>
      </trkpt>
      <trkpt lat="42.7006" lon="1.18614">
        <ele>2345</ele>
        <time>2023-07-26T05:29:49.000Z</time>
      </trkpt>
      <trkpt lat="42.70058" lon="1.18614">
        <ele>2345.1999511719</ele>
        <time>2023-07-26T05:29:51.000Z</time>
      </trkpt>
      <trkpt lat="42.70055" lon="1.18615">
        <ele>2345.3999023438</ele>
        <time>2023-07-26T05:29:57.000Z</time>
      </trkpt>
      <trkpt lat="42.70052" lon="1.18612">
        <ele>2344</ele>
        <time>2023-07-26T05:30:02.000Z</time>
      </trkpt>
      <trkpt lat="42.70051" lon="1.18611">
        <ele>2344</ele>
        <time>2023-07-26T05:30:04.000Z</time>
      </trkpt>
      <trkpt lat="42.7005" lon="1.18609">
        <ele>2345.1999511719</ele>
        <time>2023-07-26T05:30:09.000Z</time>
      </trkpt>
      <trkpt lat="42.70049" lon="1.18607">
        <ele>2345.6000976562</ele>
        <time>2023-07-26T05:30:11.000Z</time>
      </trkpt>
      <trkpt lat="42.70048" lon="1.18606">
        <ele>2346.1999511719</ele>
        <time>2023-07-26T05:30:15.000Z</time>
      </trkpt>
      <trkpt lat="42.70047" lon="1.18606">
        <ele>2346.8000488281</ele>
        <time>2023-07-26T05:30:17.000Z</time>
      </trkpt>
      <trkpt lat="42.70046" lon="1.18608">
        <ele>2347.3999023438</ele>
        <time>2023-07-26T05:30:20.000Z</time>
      </trkpt>
      <trkpt lat="42.70045" lon="1.1861">
        <ele>2347.8000488281</ele>
        <time>2023-07-26T05:30:23.000Z</time>
      </trkpt>
      <trkpt lat="42.70047" lon="1.18607">
        <ele>2348.3999023438</ele>
        <time>2023-07-26T05:30:27.000Z</time>
      </trkpt>
      <trkpt lat="42.70047" lon="1.18603">
        <ele>2348.8000488281</ele>
        <time>2023-07-26T05:30:30.000Z</time>
      </trkpt>
      <trkpt lat="42.70047" lon="1.18602">
        <ele>2349.6000976562</ele>
        <time>2023-07-26T05:30:33.000Z</time>
      </trkpt>
      <trkpt lat="42.70047" lon="1.186">
        <ele>2350.1999511719</ele>
        <time>2023-07-26T05:30:36.000Z</time>
      </trkpt>
      <trkpt lat="42.70047" lon="1.18598">
        <ele>2350.6000976562</ele>
        <time>2023-07-26T05:30:41.000Z</time>
      </trkpt>
      <trkpt lat="42.70047" lon="1.18597">
        <ele>2350.6000976562</ele>
        <time>2023-07-26T05:30:44.000Z</time>
      </trkpt>
      <trkpt lat="42.70046" lon="1.18595">
        <ele>2350.8000488281</ele>
        <time>2023-07-26T05:30:53.000Z</time>
      </trkpt>
      <trkpt lat="42.70047" lon="1.18592">
        <ele>2351</ele>
        <time>2023-07-26T05:31:00.000Z</time>
      </trkpt>
      <trkpt lat="42.70045" lon="1.18593">
        <ele>2351.1999511719</ele>
        <time>2023-07-26T05:31:08.000Z</time>
      </trkpt>
      <trkpt lat="42.70044" lon="1.18587">
        <ele>2351.1999511719</ele>
        <time>2023-07-26T05:31:15.000Z</time>
      </trkpt>
      <trkpt lat="42.70046" lon="1.18588">
        <ele>2351.1999511719</ele>
        <time>2023-07-26T05:31:21.000Z</time>
      </trkpt>
      <trkpt lat="42.70048" lon="1.18592">
        <ele>2351.1999511719</ele>
        <time>2023-07-26T05:31:27.000Z</time>
      </trkpt>
      <trkpt lat="42.70048" lon="1.18591">
        <ele>2351</ele>
        <time>2023-07-26T05:31:35.000Z</time>
      </trkpt>
      <trkpt lat="42.70048" lon="1.18592">
        <ele>2351.1999511719</ele>
        <time>2023-07-26T05:31:45.000Z</time>
      </trkpt>
      <trkpt lat="42.70049" lon="1.18591">
        <ele>2351.3999023438</ele>
        <time>2023-07-26T05:31:52.000Z</time>
      </trkpt>
      <trkpt lat="42.70048" lon="1.18589">
        <ele>2351</ele>
        <time>2023-07-26T05:31:59.000Z</time>
      </trkpt>
      <trkpt lat="42.70047" lon="1.18591">
        <ele>2351</ele>
        <time>2023-07-26T05:32:06.000Z</time>
      </trkpt>
      <trkpt lat="42.70046" lon="1.18594">
        <ele>2351.6000976562</ele>
        <time>2023-07-26T05:32:12.000Z</time>
      </trkpt>
      <trkpt lat="42.70045" lon="1.18601">
        <ele>2352.3999023438</ele>
        <time>2023-07-26T05:32:22.000Z</time>
      </trkpt>
      <trkpt lat="42.70044" lon="1.18602">
        <ele>2352.6000976562</ele>
        <time>2023-07-26T05:32:23.000Z</time>
      </trkpt>
      <trkpt lat="42.70041" lon="1.18607">
        <ele>2352.6000976562</ele>
        <time>2023-07-26T05:32:30.000Z</time>
      </trkpt>
      <trkpt lat="42.70038" lon="1.18611">
        <ele>2354</ele>
        <time>2023-07-26T05:32:37.000Z</time>
      </trkpt>
      <trkpt lat="42.70037" lon="1.18609">
        <ele>2354.6000976562</ele>
        <time>2023-07-26T05:32:40.000Z</time>
      </trkpt>
      <trkpt lat="42.70036" lon="1.18608">
        <ele>2354.8000488281</ele>
        <time>2023-07-26T05:32:43.000Z</time>
      </trkpt>
      <trkpt lat="42.70035" lon="1.18607">
        <ele>2355.1999511719</ele>
        <time>2023-07-26T05:32:46.000Z</time>
      </trkpt>
      <trkpt lat="42.70034" lon="1.18606">
        <ele>2355.3999023438</ele>
        <time>2023-07-26T05:32:50.000Z</time>
      </trkpt>
      <trkpt lat="42.70033" lon="1.18605">
        <ele>2355.1999511719</ele>
        <time>2023-07-26T05:32:56.000Z</time>
      </trkpt>
      <trkpt lat="42.70031" lon="1.18605">
        <ele>2356.1999511719</ele>
        <time>2023-07-26T05:33:00.000Z</time>
      </trkpt>
      <trkpt lat="42.7003" lon="1.18606">
        <ele>2357</ele>
        <time>2023-07-26T05:33:04.000Z</time>
      </trkpt>
      <trkpt lat="42.70029" lon="1.18607">
        <ele>2357.1999511719</ele>
        <time>2023-07-26T05:33:06.000Z</time>
      </trkpt>
      <trkpt lat="42.70025" lon="1.18609">
        <ele>2358</ele>
        <time>2023-07-26T05:33:11.000Z</time>
      </trkpt>
      <trkpt lat="42.70024" lon="1.18611">
        <ele>2358.3999023438</ele>
        <time>2023-07-26T05:33:13.000Z</time>
      </trkpt>
      <trkpt lat="42.70018" lon="1.18617">
        <ele>2359.6000976562</ele>
        <time>2023-07-26T05:33:19.000Z</time>
      </trkpt>
      <trkpt lat="42.70018" lon="1.18617">
        <ele>2359.8000488281</ele>
        <time>2023-07-26T05:33:20.000Z</time>
      </trkpt>
      <trkpt lat="42.70017" lon="1.18617">
        <ele>2360.6000976562</ele>
        <time>2023-07-26T05:33:24.000Z</time>
      </trkpt>
      <trkpt lat="42.70016" lon="1.18615">
        <ele>2361</ele>
        <time>2023-07-26T05:33:26.000Z</time>
      </trkpt>
      <trkpt lat="42.70017" lon="1.18612">
        <ele>2361.3999023438</ele>
        <time>2023-07-26T05:33:28.000Z</time>
      </trkpt>
      <trkpt lat="42.70016" lon="1.18611">
        <ele>2361.6000976562</ele>
        <time>2023-07-26T05:33:29.000Z</time>
      </trkpt>
      <trkpt lat="42.70015" lon="1.18608">
        <ele>2362.3999023438</ele>
        <time>2023-07-26T05:33:33.000Z</time>
      </trkpt>
      <trkpt lat="42.70014" lon="1.18606">
        <ele>2362.8000488281</ele>
        <time>2023-07-26T05:33:35.000Z</time>
      </trkpt>
      <trkpt lat="42.70014" lon="1.18606">
        <ele>2363.3999023438</ele>
        <time>2023-07-26T05:33:40.000Z</time>
      </trkpt>
      <trkpt lat="42.70014" lon="1.18607">
        <ele>2363.6000976562</ele>
        <time>2023-07-26T05:33:42.000Z</time>
      </trkpt>
      <trkpt lat="42.70014" lon="1.18608">
        <ele>2363.6000976562</ele>
        <time>2023-07-26T05:33:49.000Z</time>
      </trkpt>
      <trkpt lat="42.70016" lon="1.18606">
        <ele>2363.6000976562</ele>
        <time>2023-07-26T05:33:56.000Z</time>
      </trkpt>
      <trkpt lat="42.70015" lon="1.18604">
        <ele>2363.3999023438</ele>
        <time>2023-07-26T05:34:03.000Z</time>
      </trkpt>
      <trkpt lat="42.70012" lon="1.18608">
        <ele>2363.3999023438</ele>
        <time>2023-07-26T05:34:09.000Z</time>
      </trkpt>
      <trkpt lat="42.70006" lon="1.18611">
        <ele>2363.6000976562</ele>
        <time>2023-07-26T05:34:14.000Z</time>
      </trkpt>
      <trkpt lat="42.70005" lon="1.1861">
        <ele>2364</ele>
        <time>2023-07-26T05:34:16.000Z</time>
      </trkpt>
      <trkpt lat="42.70004" lon="1.18608">
        <ele>2364</ele>
        <time>2023-07-26T05:34:18.000Z</time>
      </trkpt>
      <trkpt lat="42.70004" lon="1.18605">
        <ele>2364</ele>
        <time>2023-07-26T05:34:20.000Z</time>
      </trkpt>
      <trkpt lat="42.70004" lon="1.18597">
        <ele>2363.3999023438</ele>
        <time>2023-07-26T05:34:28.000Z</time>
      </trkpt>
      <trkpt lat="42.7" lon="1.18594">
        <ele>2363</ele>
        <time>2023-07-26T05:34:35.000Z</time>
      </trkpt>
      <trkpt lat="42.69999" lon="1.18593">
        <ele>2363</ele>
        <time>2023-07-26T05:34:36.000Z</time>
      </trkpt>
      <trkpt lat="42.69997" lon="1.18591">
        <ele>2363</ele>
        <time>2023-07-26T05:34:43.000Z</time>
      </trkpt>
      <trkpt lat="42.69997" lon="1.18585">
        <ele>2363</ele>
        <time>2023-07-26T05:34:52.000Z</time>
      </trkpt>
      <trkpt lat="42.69999" lon="1.18579">
        <ele>2363.8000488281</ele>
        <time>2023-07-26T05:35:00.000Z</time>
      </trkpt>
      <trkpt lat="42.69998" lon="1.18579">
        <ele>2364</ele>
        <time>2023-07-26T05:35:09.000Z</time>
      </trkpt>
      <trkpt lat="42.69998" lon="1.18579">
        <ele>2364</ele>
        <time>2023-07-26T05:35:11.000Z</time>
      </trkpt>
      <trkpt lat="42.69999" lon="1.1858">
        <ele>2363.8000488281</ele>
        <time>2023-07-26T05:35:17.000Z</time>
      </trkpt>
      <trkpt lat="42.69998" lon="1.18581">
        <ele>2363.6000976562</ele>
        <time>2023-07-26T05:35:26.000Z</time>
      </trkpt>
      <trkpt lat="42.69997" lon="1.18582">
        <ele>2363.3999023438</ele>
        <time>2023-07-26T05:35:38.000Z</time>
      </trkpt>
      <trkpt lat="42.69999" lon="1.1858">
        <ele>2363.3999023438</ele>
        <time>2023-07-26T05:35:45.000Z</time>
      </trkpt>
      <trkpt lat="42.7" lon="1.18576">
        <ele>2363.6000976562</ele>
        <time>2023-07-26T05:35:58.000Z</time>
      </trkpt>
      <trkpt lat="42.7" lon="1.18576">
        <ele>2363.6000976562</ele>
        <time>2023-07-26T05:36:06.000Z</time>
      </trkpt>
      <trkpt lat="42.69999" lon="1.18578">
        <ele>2363.6000976562</ele>
        <time>2023-07-26T05:36:15.000Z</time>
      </trkpt>
      <trkpt lat="42.69997" lon="1.1858">
        <ele>2363.6000976562</ele>
        <time>2023-07-26T05:36:22.000Z</time>
      </trkpt>
      <trkpt lat="42.69997" lon="1.18585">
        <ele>2363.8000488281</ele>
        <time>2023-07-26T05:36:30.000Z</time>
      </trkpt>
      <trkpt lat="42.69998" lon="1.1858">
        <ele>2363.8000488281</ele>
        <time>2023-07-26T05:36:38.000Z</time>
      </trkpt>
      <trkpt lat="42.69994" lon="1.18579">
        <ele>2363.6000976562</ele>
        <time>2023-07-26T05:36:47.000Z</time>
      </trkpt>
      <trkpt lat="42.69999" lon="1.18577">
        <ele>2363.8000488281</ele>
        <time>2023-07-26T05:37:01.000Z</time>
      </trkpt>
      <trkpt lat="42.70002" lon="1.18581">
        <ele>2363.6000976562</ele>
        <time>2023-07-26T05:37:08.000Z</time>
      </trkpt>
      <trkpt lat="42.7" lon="1.18582">
        <ele>2363.3999023438</ele>
        <time>2023-07-26T05:37:14.000Z</time>
      </trkpt>
      <trkpt lat="42.7" lon="1.18583">
        <ele>2363.6000976562</ele>
        <time>2023-07-26T05:37:22.000Z</time>
      </trkpt>
      <trkpt lat="42.70001" lon="1.18578">
        <ele>2363.1999511719</ele>
        <time>2023-07-26T05:37:29.000Z</time>
      </trkpt>
      <trkpt lat="42.70002" lon="1.18571">
        <ele>2363.6000976562</ele>
        <time>2023-07-26T05:37:37.000Z</time>
      </trkpt>
      <trkpt lat="42.70004" lon="1.18569">
        <ele>2363.8000488281</ele>
        <time>2023-07-26T05:37:45.000Z</time>
      </trkpt>
      <trkpt lat="42.69998" lon="1.1857">
        <ele>2364</ele>
        <time>2023-07-26T05:37:53.000Z</time>
      </trkpt>
      <trkpt lat="42.69996" lon="1.18564">
        <ele>2364.3999023438</ele>
        <time>2023-07-26T05:38:01.000Z</time>
      </trkpt>
      <trkpt lat="42.69996" lon="1.18562">
        <ele>2365</ele>
        <time>2023-07-26T05:38:05.000Z</time>
      </trkpt>
      <trkpt lat="42.69997" lon="1.18561">
        <ele>2365.8000488281</ele>
        <time>2023-07-26T05:38:09.000Z</time>
      </trkpt>
      <trkpt lat="42.69997" lon="1.18561">
        <ele>2366.1999511719</ele>
        <time>2023-07-26T05:38:11.000Z</time>
      </trkpt>
      <trkpt lat="42.69996" lon="1.18561">
        <ele>2366.1999511719</ele>
        <time>2023-07-26T05:38:18.000Z</time>
      </trkpt>
      <trkpt lat="42.69997" lon="1.18557">
        <ele>2368</ele>
        <time>2023-07-26T05:38:32.000Z</time>
      </trkpt>
      <trkpt lat="42.69998" lon="1.18554">
        <ele>2368.1999511719</ele>
        <time>2023-07-26T05:38:35.000Z</time>
      </trkpt>
      <trkpt lat="42.69998" lon="1.18553">
        <ele>2368.6000976562</ele>
        <time>2023-07-26T05:38:38.000Z</time>
      </trkpt>
      <trkpt lat="42.69998" lon="1.18553">
        <ele>2369.1999511719</ele>
        <time>2023-07-26T05:38:41.000Z</time>
      </trkpt>
      <trkpt lat="42.69998" lon="1.1855">
        <ele>2370.3999023438</ele>
        <time>2023-07-26T05:38:47.000Z</time>
      </trkpt>
      <trkpt lat="42.69998" lon="1.1855">
        <ele>2371.1999511719</ele>
        <time>2023-07-26T05:38:53.000Z</time>
      </trkpt>
      <trkpt lat="42.69997" lon="1.1855">
        <ele>2371.3999023438</ele>
        <time>2023-07-26T05:38:54.000Z</time>
      </trkpt>
      <trkpt lat="42.69997" lon="1.18551">
        <ele>2371.8000488281</ele>
        <time>2023-07-26T05:39:03.000Z</time>
      </trkpt>
      <trkpt lat="42.69999" lon="1.18545">
        <ele>2372</ele>
        <time>2023-07-26T05:39:10.000Z</time>
      </trkpt>
      <trkpt lat="42.69999" lon="1.18545">
        <ele>2372.3999023438</ele>
        <time>2023-07-26T05:39:12.000Z</time>
      </trkpt>
      <trkpt lat="42.69999" lon="1.18544">
        <ele>2372.8000488281</ele>
        <time>2023-07-26T05:39:18.000Z</time>
      </trkpt>
      <trkpt lat="42.70001" lon="1.18541">
        <ele>2373.3999023438</ele>
        <time>2023-07-26T05:39:23.000Z</time>
      </trkpt>
      <trkpt lat="42.70003" lon="1.18539">
        <ele>2373.6000976562</ele>
        <time>2023-07-26T05:39:26.000Z</time>
      </trkpt>
      <trkpt lat="42.70008" lon="1.18528">
        <ele>2374</ele>
        <time>2023-07-26T05:39:39.000Z</time>
      </trkpt>
      <trkpt lat="42.7001" lon="1.18527">
        <ele>2374.8000488281</ele>
        <time>2023-07-26T05:39:43.000Z</time>
      </trkpt>
      <trkpt lat="42.70009" lon="1.18528">
        <ele>2374.8000488281</ele>
        <time>2023-07-26T05:39:52.000Z</time>
      </trkpt>
      <trkpt lat="42.70011" lon="1.18525">
        <ele>2375.1999511719</ele>
        <time>2023-07-26T05:40:08.000Z</time>
      </trkpt>
      <trkpt lat="42.70006" lon="1.18527">
        <ele>2375</ele>
        <time>2023-07-26T05:40:19.000Z</time>
      </trkpt>
      <trkpt lat="42.70004" lon="1.18531">
        <ele>2374.3999023438</ele>
        <time>2023-07-26T05:40:26.000Z</time>
      </trkpt>
      <trkpt lat="42.70002" lon="1.18529">
        <ele>2374.8000488281</ele>
        <time>2023-07-26T05:40:34.000Z</time>
      </trkpt>
      <trkpt lat="42.70003" lon="1.18528">
        <ele>2375.8000488281</ele>
        <time>2023-07-26T05:40:40.000Z</time>
      </trkpt>
      <trkpt lat="42.70003" lon="1.18528">
        <ele>2375.8000488281</ele>
        <time>2023-07-26T05:40:41.000Z</time>
      </trkpt>
      <trkpt lat="42.70002" lon="1.18526">
        <ele>2376.8000488281</ele>
        <time>2023-07-26T05:40:49.000Z</time>
      </trkpt>
      <trkpt lat="42.70001" lon="1.18525">
        <ele>2377.1999511719</ele>
        <time>2023-07-26T05:40:52.000Z</time>
      </trkpt>
      <trkpt lat="42.7" lon="1.18525">
        <ele>2378</ele>
        <time>2023-07-26T05:40:56.000Z</time>
      </trkpt>
      <trkpt lat="42.7" lon="1.18525">
        <ele>2378.3999023438</ele>
        <time>2023-07-26T05:41:00.000Z</time>
      </trkpt>
      <trkpt lat="42.7" lon="1.18527">
        <ele>2379</ele>
        <time>2023-07-26T05:41:08.000Z</time>
      </trkpt>
      <trkpt lat="42.70001" lon="1.18529">
        <ele>2379.1999511719</ele>
        <time>2023-07-26T05:41:10.000Z</time>
      </trkpt>
      <trkpt lat="42.69997" lon="1.18532">
        <ele>2379.1999511719</ele>
        <time>2023-07-26T05:41:17.000Z</time>
      </trkpt>
      <trkpt lat="42.69989" lon="1.18536">
        <ele>2379.3999023438</ele>
        <time>2023-07-26T05:41:27.000Z</time>
      </trkpt>
      <trkpt lat="42.69988" lon="1.18537">
        <ele>2380.3999023438</ele>
        <time>2023-07-26T05:41:31.000Z</time>
      </trkpt>
      <trkpt lat="42.69985" lon="1.18534">
        <ele>2381.1999511719</ele>
        <time>2023-07-26T05:41:37.000Z</time>
      </trkpt>
      <trkpt lat="42.69984" lon="1.18533">
        <ele>2381.3999023438</ele>
        <time>2023-07-26T05:41:38.000Z</time>
      </trkpt>
      <trkpt lat="42.69981" lon="1.18532">
        <ele>2382</ele>
        <time>2023-07-26T05:41:44.000Z</time>
      </trkpt>
      <trkpt lat="42.69984" lon="1.18533">
        <ele>2382.1999511719</ele>
        <time>2023-07-26T05:41:51.000Z</time>
      </trkpt>
      <trkpt lat="42.69981" lon="1.18537">
        <ele>2381.8000488281</ele>
        <time>2023-07-26T05:41:59.000Z</time>
      </trkpt>
      <trkpt lat="42.69982" lon="1.18537">
        <ele>2381.6000976562</ele>
        <time>2023-07-26T05:42:06.000Z</time>
      </trkpt>
      <trkpt lat="42.69986" lon="1.1853">
        <ele>2381.3999023438</ele>
        <time>2023-07-26T05:42:14.000Z</time>
      </trkpt>
      <trkpt lat="42.69987" lon="1.1853">
        <ele>2381.1999511719</ele>
        <time>2023-07-26T05:42:20.000Z</time>
      </trkpt>
      <trkpt lat="42.69983" lon="1.18532">
        <ele>2381.1999511719</ele>
        <time>2023-07-26T05:42:26.000Z</time>
      </trkpt>
      <trkpt lat="42.69977" lon="1.18534">
        <ele>2382</ele>
        <time>2023-07-26T05:42:38.000Z</time>
      </trkpt>
      <trkpt lat="42.69975" lon="1.18534">
        <ele>2382.1999511719</ele>
        <time>2023-07-26T05:42:40.000Z</time>
      </trkpt>
      <trkpt lat="42.69973" lon="1.1853">
        <ele>2382.8000488281</ele>
        <time>2023-07-26T05:42:55.000Z</time>
      </trkpt>
      <trkpt lat="42.69969" lon="1.18547">
        <ele>2382.3999023438</ele>
        <time>2023-07-26T05:43:07.000Z</time>
      </trkpt>
      <trkpt lat="42.69971" lon="1.18542">
        <ele>2382.1999511719</ele>
        <time>2023-07-26T05:43:13.000Z</time>
      </trkpt>
      <trkpt lat="42.69971" lon="1.18538">
        <ele>2382.1999511719</ele>
        <time>2023-07-26T05:43:22.000Z</time>
      </trkpt>
      <trkpt lat="42.69976" lon="1.18532">
        <ele>2382.1999511719</ele>
        <time>2023-07-26T05:43:35.000Z</time>
      </trkpt>
      <trkpt lat="42.69978" lon="1.18531">
        <ele>2382</ele>
        <time>2023-07-26T05:43:42.000Z</time>
      </trkpt>
      <trkpt lat="42.69979" lon="1.18532">
        <ele>2381.3999023438</ele>
        <time>2023-07-26T05:43:45.000Z</time>
      </trkpt>
      <trkpt lat="42.6998" lon="1.18533">
        <ele>2380.8000488281</ele>
        <time>2023-07-26T05:43:48.000Z</time>
      </trkpt>
      <trkpt lat="42.69982" lon="1.18536">
        <ele>2380.1999511719</ele>
        <time>2023-07-26T05:43:51.000Z</time>
      </trkpt>
      <trkpt lat="42.69985" lon="1.18537">
        <ele>2379.8000488281</ele>
        <time>2023-07-26T05:43:55.000Z</time>
      </trkpt>
      <trkpt lat="42.69986" lon="1.18538">
        <ele>2379.1999511719</ele>
        <time>2023-07-26T05:43:58.000Z</time>
      </trkpt>
      <trkpt lat="42.69989" lon="1.18533">
        <ele>2378.1999511719</ele>
        <time>2023-07-26T05:44:08.000Z</time>
      </trkpt>
      <trkpt lat="42.69989" lon="1.18532">
        <ele>2378.3999023438</ele>
        <time>2023-07-26T05:44:18.000Z</time>
      </trkpt>
      <trkpt lat="42.69991" lon="1.18532">
        <ele>2378.1999511719</ele>
        <time>2023-07-26T05:44:36.000Z</time>
      </trkpt>
      <trkpt lat="42.69984" lon="1.18539">
        <ele>2380</ele>
        <time>2023-07-26T05:45:04.000Z</time>
      </trkpt>
      <trkpt lat="42.69984" lon="1.18541">
        <ele>2380.1999511719</ele>
        <time>2023-07-26T05:45:06.000Z</time>
      </trkpt>
      <trkpt lat="42.69982" lon="1.18543">
        <ele>2381.1999511719</ele>
        <time>2023-07-26T05:45:13.000Z</time>
      </trkpt>
      <trkpt lat="42.69982" lon="1.18544">
        <ele>2381.3999023438</ele>
        <time>2023-07-26T05:45:15.000Z</time>
      </trkpt>
      <trkpt lat="42.6998" lon="1.18545">
        <ele>2381.6000976562</ele>
        <time>2023-07-26T05:45:21.000Z</time>
      </trkpt>
      <trkpt lat="42.69978" lon="1.18551">
        <ele>2382.8000488281</ele>
        <time>2023-07-26T05:45:32.000Z</time>
      </trkpt>
      <trkpt lat="42.69973" lon="1.18557">
        <ele>2382.6000976562</ele>
        <time>2023-07-26T05:45:41.000Z</time>
      </trkpt>
      <trkpt lat="42.69974" lon="1.18559">
        <ele>2381.6000976562</ele>
        <time>2023-07-26T05:45:48.000Z</time>
      </trkpt>
      <trkpt lat="42.69974" lon="1.1856">
        <ele>2381.3999023438</ele>
        <time>2023-07-26T05:45:49.000Z</time>
      </trkpt>
      <trkpt lat="42.69975" lon="1.18564">
        <ele>2380.3999023438</ele>
        <time>2023-07-26T05:45:54.000Z</time>
      </trkpt>
      <trkpt lat="42.69974" lon="1.18565">
        <ele>2380</ele>
        <time>2023-07-26T05:45:55.000Z</time>
      </trkpt>
      <trkpt lat="42.69973" lon="1.18567">
        <ele>2379.1999511719</ele>
        <time>2023-07-26T05:45:58.000Z</time>
      </trkpt>
      <trkpt lat="42.6997" lon="1.18568">
        <ele>2378.8000488281</ele>
        <time>2023-07-26T05:46:02.000Z</time>
      </trkpt>
      <trkpt lat="42.6993" lon="1.18571">
        <ele>2377.6000976562</ele>
        <time>2023-07-26T05:47:43.000Z</time>
      </trkpt>
      <trkpt lat="42.69929" lon="1.18573">
        <ele>2378.1999511719</ele>
        <time>2023-07-26T05:47:46.000Z</time>
      </trkpt>
      <trkpt lat="42.69931" lon="1.18575">
        <ele>2379.6000976562</ele>
        <time>2023-07-26T05:47:53.000Z</time>
      </trkpt>
      <trkpt lat="42.69927" lon="1.18581">
        <ele>2381</ele>
        <time>2023-07-26T05:48:01.000Z</time>
      </trkpt>
      <trkpt lat="42.69927" lon="1.18581">
        <ele>2381.1999511719</ele>
        <time>2023-07-26T05:48:02.000Z</time>
      </trkpt>
      <trkpt lat="42.69927" lon="1.18585">
        <ele>2382.3999023438</ele>
        <time>2023-07-26T05:48:09.000Z</time>
      </trkpt>
      <trkpt lat="42.69926" lon="1.18585">
        <ele>2382.6000976562</ele>
        <time>2023-07-26T05:48:10.000Z</time>
      </trkpt>
      <trkpt lat="42.69924" lon="1.18588">
        <ele>2383.3999023438</ele>
        <time>2023-07-26T05:48:15.000Z</time>
      </trkpt>
      <trkpt lat="42.69923" lon="1.18589">
        <ele>2384</ele>
        <time>2023-07-26T05:48:19.000Z</time>
      </trkpt>
      <trkpt lat="42.69923" lon="1.1859">
        <ele>2384.3999023438</ele>
        <time>2023-07-26T05:48:21.000Z</time>
      </trkpt>
      <trkpt lat="42.69922" lon="1.18592">
        <ele>2385.3999023438</ele>
        <time>2023-07-26T05:48:26.000Z</time>
      </trkpt>
      <trkpt lat="42.69922" lon="1.18592">
        <ele>2385.3999023438</ele>
        <time>2023-07-26T05:48:27.000Z</time>
      </trkpt>
      <trkpt lat="42.69922" lon="1.18594">
        <ele>2386.1999511719</ele>
        <time>2023-07-26T05:48:32.000Z</time>
      </trkpt>
      <trkpt lat="42.69922" lon="1.18594">
        <ele>2386.3999023438</ele>
        <time>2023-07-26T05:48:34.000Z</time>
      </trkpt>
      <trkpt lat="42.6992" lon="1.18598">
        <ele>2387.6000976562</ele>
        <time>2023-07-26T05:48:42.000Z</time>
      </trkpt>
      <trkpt lat="42.69917" lon="1.18603">
        <ele>2388.8000488281</ele>
        <time>2023-07-26T05:48:50.000Z</time>
      </trkpt>
      <trkpt lat="42.69916" lon="1.18605">
        <ele>2389.6000976562</ele>
        <time>2023-07-26T05:48:55.000Z</time>
      </trkpt>
      <trkpt lat="42.69917" lon="1.18606">
        <ele>2390</ele>
        <time>2023-07-26T05:48:57.000Z</time>
      </trkpt>
      <trkpt lat="42.69917" lon="1.18608">
        <ele>2390.8000488281</ele>
        <time>2023-07-26T05:49:02.000Z</time>
      </trkpt>
      <trkpt lat="42.69917" lon="1.18608">
        <ele>2391</ele>
        <time>2023-07-26T05:49:03.000Z</time>
      </trkpt>
      <trkpt lat="42.69918" lon="1.18608">
        <ele>2391.8000488281</ele>
        <time>2023-07-26T05:49:09.000Z</time>
      </trkpt>
      <trkpt lat="42.69917" lon="1.18609">
        <ele>2392.1999511719</ele>
        <time>2023-07-26T05:49:11.000Z</time>
      </trkpt>
      <trkpt lat="42.69911" lon="1.18614">
        <ele>2395.3999023438</ele>
        <time>2023-07-26T05:49:30.000Z</time>
      </trkpt>
      <trkpt lat="42.69911" lon="1.18615">
        <ele>2395.6000976562</ele>
        <time>2023-07-26T05:49:32.000Z</time>
      </trkpt>
      <trkpt lat="42.69908" lon="1.18619">
        <ele>2398</ele>
        <time>2023-07-26T05:49:49.000Z</time>
      </trkpt>
      <trkpt lat="42.69907" lon="1.18621">
        <ele>2398.3999023438</ele>
        <time>2023-07-26T05:49:52.000Z</time>
      </trkpt>
      <trkpt lat="42.69906" lon="1.18623">
        <ele>2399.3999023438</ele>
        <time>2023-07-26T05:49:58.000Z</time>
      </trkpt>
      <trkpt lat="42.69906" lon="1.18624">
        <ele>2399.6000976562</ele>
        <time>2023-07-26T05:49:59.000Z</time>
      </trkpt>
      <trkpt lat="42.69904" lon="1.18625">
        <ele>2400.6000976562</ele>
        <time>2023-07-26T05:50:05.000Z</time>
      </trkpt>
      <trkpt lat="42.69905" lon="1.18625">
        <ele>2400.8000488281</ele>
        <time>2023-07-26T05:50:06.000Z</time>
      </trkpt>
      <trkpt lat="42.69904" lon="1.18623">
        <ele>2401.8000488281</ele>
        <time>2023-07-26T05:50:12.000Z</time>
      </trkpt>
      <trkpt lat="42.69903" lon="1.18623">
        <ele>2402.3999023438</ele>
        <time>2023-07-26T05:50:16.000Z</time>
      </trkpt>
      <trkpt lat="42.69903" lon="1.18624">
        <ele>2402.8000488281</ele>
        <time>2023-07-26T05:50:18.000Z</time>
      </trkpt>
      <trkpt lat="42.69901" lon="1.18628">
        <ele>2403.3999023438</ele>
        <time>2023-07-26T05:50:22.000Z</time>
      </trkpt>
      <trkpt lat="42.699" lon="1.1863">
        <ele>2403.8000488281</ele>
        <time>2023-07-26T05:50:25.000Z</time>
      </trkpt>
      <trkpt lat="42.69898" lon="1.18634">
        <ele>2404.8000488281</ele>
        <time>2023-07-26T05:50:31.000Z</time>
      </trkpt>
      <trkpt lat="42.69898" lon="1.18633">
        <ele>2405</ele>
        <time>2023-07-26T05:50:32.000Z</time>
      </trkpt>
      <trkpt lat="42.69896" lon="1.1864">
        <ele>2407.1999511719</ele>
        <time>2023-07-26T05:50:50.000Z</time>
      </trkpt>
      <trkpt lat="42.69895" lon="1.18643">
        <ele>2408.6000976562</ele>
        <time>2023-07-26T05:51:01.000Z</time>
      </trkpt>
      <trkpt lat="42.69894" lon="1.18644">
        <ele>2409.3999023438</ele>
        <time>2023-07-26T05:51:05.000Z</time>
      </trkpt>
      <trkpt lat="42.69893" lon="1.18645">
        <ele>2409.8000488281</ele>
        <time>2023-07-26T05:51:08.000Z</time>
      </trkpt>
      <trkpt lat="42.69892" lon="1.18647">
        <ele>2410.3999023438</ele>
        <time>2023-07-26T05:51:13.000Z</time>
      </trkpt>
      <trkpt lat="42.69891" lon="1.18649">
        <ele>2411</ele>
        <time>2023-07-26T05:51:16.000Z</time>
      </trkpt>
      <trkpt lat="42.6989" lon="1.18653">
        <ele>2411.6000976562</ele>
        <time>2023-07-26T05:51:20.000Z</time>
      </trkpt>
      <trkpt lat="42.69889" lon="1.18656">
        <ele>2412.1999511719</ele>
        <time>2023-07-26T05:51:23.000Z</time>
      </trkpt>
      <trkpt lat="42.6989" lon="1.18657">
        <ele>2412.8000488281</ele>
        <time>2023-07-26T05:51:27.000Z</time>
      </trkpt>
      <trkpt lat="42.6989" lon="1.18658">
        <ele>2413</ele>
        <time>2023-07-26T05:51:29.000Z</time>
      </trkpt>
      <trkpt lat="42.69891" lon="1.1866">
        <ele>2413.8000488281</ele>
        <time>2023-07-26T05:51:32.000Z</time>
      </trkpt>
      <trkpt lat="42.6989" lon="1.18663">
        <ele>2414.6000976562</ele>
        <time>2023-07-26T05:51:36.000Z</time>
      </trkpt>
      <trkpt lat="42.69889" lon="1.18664">
        <ele>2414.8000488281</ele>
        <time>2023-07-26T05:51:38.000Z</time>
      </trkpt>
      <trkpt lat="42.69888" lon="1.18666">
        <ele>2416</ele>
        <time>2023-07-26T05:51:45.000Z</time>
      </trkpt>
      <trkpt lat="42.69888" lon="1.18666">
        <ele>2417.1999511719</ele>
        <time>2023-07-26T05:51:50.000Z</time>
      </trkpt>
      <trkpt lat="42.69887" lon="1.18666">
        <ele>2417.3999023438</ele>
        <time>2023-07-26T05:51:51.000Z</time>
      </trkpt>
      <trkpt lat="42.69886" lon="1.18666">
        <ele>2418.6000976562</ele>
        <time>2023-07-26T05:52:04.000Z</time>
      </trkpt>
      <trkpt lat="42.69886" lon="1.18667">
        <ele>2419.1999511719</ele>
        <time>2023-07-26T05:52:07.000Z</time>
      </trkpt>
      <trkpt lat="42.69877" lon="1.18656">
        <ele>2422</ele>
        <time>2023-07-26T05:52:39.000Z</time>
      </trkpt>
      <trkpt lat="42.69879" lon="1.18651">
        <ele>2421.8000488281</ele>
        <time>2023-07-26T05:52:50.000Z</time>
      </trkpt>
      <trkpt lat="42.69868" lon="1.18649">
        <ele>2423.6000976562</ele>
        <time>2023-07-26T05:53:13.000Z</time>
      </trkpt>
      <trkpt lat="42.69867" lon="1.18649">
        <ele>2424.1999511719</ele>
        <time>2023-07-26T05:53:15.000Z</time>
      </trkpt>
      <trkpt lat="42.69867" lon="1.1865">
        <ele>2424.3999023438</ele>
        <time>2023-07-26T05:53:17.000Z</time>
      </trkpt>
      <trkpt lat="42.69848" lon="1.18656">
        <ele>2429.8000488281</ele>
        <time>2023-07-26T05:53:55.000Z</time>
      </trkpt>
      <trkpt lat="42.69848" lon="1.18656">
        <ele>2430</ele>
        <time>2023-07-26T05:53:56.000Z</time>
      </trkpt>
      <trkpt lat="42.69848" lon="1.18657">
        <ele>2430</ele>
        <time>2023-07-26T05:54:04.000Z</time>
      </trkpt>
      <trkpt lat="42.69843" lon="1.18653">
        <ele>2429.6000976562</ele>
        <time>2023-07-26T05:54:36.000Z</time>
      </trkpt>
      <trkpt lat="42.69841" lon="1.18652">
        <ele>2429.6000976562</ele>
        <time>2023-07-26T05:54:43.000Z</time>
      </trkpt>
      <trkpt lat="42.6983" lon="1.18649">
        <ele>2431.6000976562</ele>
        <time>2023-07-26T05:55:05.000Z</time>
      </trkpt>
      <trkpt lat="42.6983" lon="1.18649">
        <ele>2432</ele>
        <time>2023-07-26T05:55:12.000Z</time>
      </trkpt>
      <trkpt lat="42.6983" lon="1.18654">
        <ele>2433</ele>
        <time>2023-07-26T05:55:18.000Z</time>
      </trkpt>
      <trkpt lat="42.69829" lon="1.18654">
        <ele>2433.1999511719</ele>
        <time>2023-07-26T05:55:19.000Z</time>
      </trkpt>
      <trkpt lat="42.69828" lon="1.18654">
        <ele>2434.3999023438</ele>
        <time>2023-07-26T05:55:24.000Z</time>
      </trkpt>
      <trkpt lat="42.69828" lon="1.18653">
        <ele>2435.3999023438</ele>
        <time>2023-07-26T05:55:29.000Z</time>
      </trkpt>
      <trkpt lat="42.69822" lon="1.18654">
        <ele>2436.8000488281</ele>
        <time>2023-07-26T05:55:48.000Z</time>
      </trkpt>
      <trkpt lat="42.69815" lon="1.18657">
        <ele>2439.6000976562</ele>
        <time>2023-07-26T05:56:07.000Z</time>
      </trkpt>
      <trkpt lat="42.69816" lon="1.18656">
        <ele>2439.8000488281</ele>
        <time>2023-07-26T05:56:09.000Z</time>
      </trkpt>
      <trkpt lat="42.69813" lon="1.18658">
        <ele>2440.6000976562</ele>
        <time>2023-07-26T05:56:13.000Z</time>
      </trkpt>
      <trkpt lat="42.69813" lon="1.18658">
        <ele>2441</ele>
        <time>2023-07-26T05:56:15.000Z</time>
      </trkpt>
      <trkpt lat="42.69802" lon="1.1866">
        <ele>2441.3999023438</ele>
        <time>2023-07-26T05:56:34.000Z</time>
      </trkpt>
      <trkpt lat="42.69802" lon="1.18662">
        <ele>2442</ele>
        <time>2023-07-26T05:56:49.000Z</time>
      </trkpt>
      <trkpt lat="42.69802" lon="1.18663">
        <ele>2442.3999023438</ele>
        <time>2023-07-26T05:56:51.000Z</time>
      </trkpt>
      <trkpt lat="42.69802" lon="1.18665">
        <ele>2443.1999511719</ele>
        <time>2023-07-26T05:56:55.000Z</time>
      </trkpt>
      <trkpt lat="42.69803" lon="1.18664">
        <ele>2443.1999511719</ele>
        <time>2023-07-26T05:57:00.000Z</time>
      </trkpt>
      <trkpt lat="42.69803" lon="1.18668">
        <ele>2443</ele>
        <time>2023-07-26T05:57:08.000Z</time>
      </trkpt>
      <trkpt lat="42.69802" lon="1.18671">
        <ele>2443.3999023438</ele>
        <time>2023-07-26T05:57:16.000Z</time>
      </trkpt>
      <trkpt lat="42.698" lon="1.18672">
        <ele>2444.1999511719</ele>
        <time>2023-07-26T05:57:21.000Z</time>
      </trkpt>
      <trkpt lat="42.698" lon="1.18674">
        <ele>2444.6000976562</ele>
        <time>2023-07-26T05:57:35.000Z</time>
      </trkpt>
      <trkpt lat="42.69799" lon="1.18675">
        <ele>2444.8000488281</ele>
        <time>2023-07-26T05:57:42.000Z</time>
      </trkpt>
      <trkpt lat="42.698" lon="1.18678">
        <ele>2445.1999511719</ele>
        <time>2023-07-26T05:57:49.000Z</time>
      </trkpt>
      <trkpt lat="42.698" lon="1.18678">
        <ele>2445.3999023438</ele>
        <time>2023-07-26T05:57:50.000Z</time>
      </trkpt>
      <trkpt lat="42.69807" lon="1.18678">
        <ele>2446.6000976562</ele>
        <time>2023-07-26T05:58:02.000Z</time>
      </trkpt>
      <trkpt lat="42.69806" lon="1.18679">
        <ele>2447.6000976562</ele>
        <time>2023-07-26T05:58:08.000Z</time>
      </trkpt>
      <trkpt lat="42.69805" lon="1.18686">
        <ele>2448.8000488281</ele>
        <time>2023-07-26T05:58:14.000Z</time>
      </trkpt>
      <trkpt lat="42.69804" lon="1.18694">
        <ele>2450</ele>
        <time>2023-07-26T05:58:20.000Z</time>
      </trkpt>
      <trkpt lat="42.69805" lon="1.18694">
        <ele>2450</ele>
        <time>2023-07-26T05:58:21.000Z</time>
      </trkpt>
      <trkpt lat="42.69806" lon="1.18698">
        <ele>2451</ele>
        <time>2023-07-26T05:58:27.000Z</time>
      </trkpt>
      <trkpt lat="42.69805" lon="1.18699">
        <ele>2451.6000976562</ele>
        <time>2023-07-26T05:58:30.000Z</time>
      </trkpt>
      <trkpt lat="42.69804" lon="1.18703">
        <ele>2452.1999511719</ele>
        <time>2023-07-26T05:58:38.000Z</time>
      </trkpt>
      <trkpt lat="42.69804" lon="1.18703">
        <ele>2452.1999511719</ele>
        <time>2023-07-26T05:58:39.000Z</time>
      </trkpt>
      <trkpt lat="42.69803" lon="1.18705">
        <ele>2452.8000488281</ele>
        <time>2023-07-26T05:58:48.000Z</time>
      </trkpt>
      <trkpt lat="42.698" lon="1.18709">
        <ele>2454.1999511719</ele>
        <time>2023-07-26T05:59:01.000Z</time>
      </trkpt>
      <trkpt lat="42.69801" lon="1.1871">
        <ele>2455</ele>
        <time>2023-07-26T05:59:09.000Z</time>
      </trkpt>
      <trkpt lat="42.69801" lon="1.18711">
        <ele>2455.3999023438</ele>
        <time>2023-07-26T05:59:13.000Z</time>
      </trkpt>
      <trkpt lat="42.698" lon="1.18719">
        <ele>2456.3999023438</ele>
        <time>2023-07-26T05:59:22.000Z</time>
      </trkpt>
      <trkpt lat="42.69802" lon="1.1872">
        <ele>2457.1999511719</ele>
        <time>2023-07-26T05:59:30.000Z</time>
      </trkpt>
      <trkpt lat="42.69802" lon="1.18721">
        <ele>2457.3999023438</ele>
        <time>2023-07-26T05:59:33.000Z</time>
      </trkpt>
      <trkpt lat="42.69802" lon="1.18723">
        <ele>2458</ele>
        <time>2023-07-26T05:59:37.000Z</time>
      </trkpt>
      <trkpt lat="42.69801" lon="1.18722">
        <ele>2458.3999023438</ele>
        <time>2023-07-26T05:59:46.000Z</time>
      </trkpt>
      <trkpt lat="42.698" lon="1.18721">
        <ele>2458.3999023438</ele>
        <time>2023-07-26T05:59:48.000Z</time>
      </trkpt>
      <trkpt lat="42.69798" lon="1.18722">
        <ele>2459.3999023438</ele>
        <time>2023-07-26T05:59:55.000Z</time>
      </trkpt>
      <trkpt lat="42.69797" lon="1.18722">
        <ele>2459.3999023438</ele>
        <time>2023-07-26T05:59:56.000Z</time>
      </trkpt>
      <trkpt lat="42.69792" lon="1.1872">
        <ele>2459.3999023438</ele>
        <time>2023-07-26T06:00:04.000Z</time>
      </trkpt>
      <trkpt lat="42.6978" lon="1.18714">
        <ele>2459.1999511719</ele>
        <time>2023-07-26T06:00:12.000Z</time>
      </trkpt>
      <trkpt lat="42.69778" lon="1.18712">
        <ele>2459.8000488281</ele>
        <time>2023-07-26T06:00:20.000Z</time>
      </trkpt>
      <trkpt lat="42.69773" lon="1.1871">
        <ele>2459.3999023438</ele>
        <time>2023-07-26T06:00:28.000Z</time>
      </trkpt>
      <trkpt lat="42.69773" lon="1.18711">
        <ele>2459.6000976562</ele>
        <time>2023-07-26T06:00:33.000Z</time>
      </trkpt>
      <trkpt lat="42.69773" lon="1.18711">
        <ele>2459.6000976562</ele>
        <time>2023-07-26T06:00:35.000Z</time>
      </trkpt>
      <trkpt lat="42.69775" lon="1.18707">
        <ele>2459.6000976562</ele>
        <time>2023-07-26T06:00:43.000Z</time>
      </trkpt>
      <trkpt lat="42.69778" lon="1.18705">
        <ele>2459.3999023438</ele>
        <time>2023-07-26T06:00:51.000Z</time>
      </trkpt>
      <trkpt lat="42.69772" lon="1.18706">
        <ele>2459.8000488281</ele>
        <time>2023-07-26T06:01:00.000Z</time>
      </trkpt>
      <trkpt lat="42.69769" lon="1.18706">
        <ele>2460.1999511719</ele>
        <time>2023-07-26T06:01:10.000Z</time>
      </trkpt>
      <trkpt lat="42.69768" lon="1.18707">
        <ele>2460.1999511719</ele>
        <time>2023-07-26T06:01:17.000Z</time>
      </trkpt>
      <trkpt lat="42.69757" lon="1.18709">
        <ele>2461.3999023438</ele>
        <time>2023-07-26T06:01:32.000Z</time>
      </trkpt>
      <trkpt lat="42.69758" lon="1.18708">
        <ele>2461.3999023438</ele>
        <time>2023-07-26T06:01:35.000Z</time>
      </trkpt>
      <trkpt lat="42.69757" lon="1.18703">
        <ele>2461.1999511719</ele>
        <time>2023-07-26T06:01:42.000Z</time>
      </trkpt>
      <trkpt lat="42.69755" lon="1.18702">
        <ele>2461.6000976562</ele>
        <time>2023-07-26T06:01:50.000Z</time>
      </trkpt>
      <trkpt lat="42.69752" lon="1.187">
        <ele>2462.6000976562</ele>
        <time>2023-07-26T06:01:57.000Z</time>
      </trkpt>
      <trkpt lat="42.69748" lon="1.18696">
        <ele>2463.1999511719</ele>
        <time>2023-07-26T06:02:04.000Z</time>
      </trkpt>
      <trkpt lat="42.6975" lon="1.1869">
        <ele>2462.8000488281</ele>
        <time>2023-07-26T06:02:12.000Z</time>
      </trkpt>
      <trkpt lat="42.6975" lon="1.18685">
        <ele>2461.6000976562</ele>
        <time>2023-07-26T06:02:19.000Z</time>
      </trkpt>
      <trkpt lat="42.69751" lon="1.18685">
        <ele>2461.3999023438</ele>
        <time>2023-07-26T06:02:20.000Z</time>
      </trkpt>
      <trkpt lat="42.69752" lon="1.18687">
        <ele>2461.3999023438</ele>
        <time>2023-07-26T06:02:26.000Z</time>
      </trkpt>
      <trkpt lat="42.69751" lon="1.1869">
        <ele>2461.3999023438</ele>
        <time>2023-07-26T06:02:36.000Z</time>
      </trkpt>
      <trkpt lat="42.69747" lon="1.18692">
        <ele>2461.6000976562</ele>
        <time>2023-07-26T06:02:45.000Z</time>
      </trkpt>
      <trkpt lat="42.69743" lon="1.1869">
        <ele>2461.6000976562</ele>
        <time>2023-07-26T06:02:51.000Z</time>
      </trkpt>
      <trkpt lat="42.69739" lon="1.18689">
        <ele>2462.1999511719</ele>
        <time>2023-07-26T06:03:00.000Z</time>
      </trkpt>
      <trkpt lat="42.69736" lon="1.18687">
        <ele>2462.6000976562</ele>
        <time>2023-07-26T06:03:04.000Z</time>
      </trkpt>
      <trkpt lat="42.69734" lon="1.18687">
        <ele>2463.1999511719</ele>
        <time>2023-07-26T06:03:08.000Z</time>
      </trkpt>
      <trkpt lat="42.69733" lon="1.18687">
        <ele>2463.6000976562</ele>
        <time>2023-07-26T06:03:10.000Z</time>
      </trkpt>
      <trkpt lat="42.69729" lon="1.18688">
        <ele>2464.1999511719</ele>
        <time>2023-07-26T06:03:15.000Z</time>
      </trkpt>
      <trkpt lat="42.69727" lon="1.18685">
        <ele>2464.8000488281</ele>
        <time>2023-07-26T06:03:20.000Z</time>
      </trkpt>
      <trkpt lat="42.69725" lon="1.18683">
        <ele>2465</ele>
        <time>2023-07-26T06:03:22.000Z</time>
      </trkpt>
      <trkpt lat="42.69724" lon="1.18679">
        <ele>2465.8000488281</ele>
        <time>2023-07-26T06:03:28.000Z</time>
      </trkpt>
      <trkpt lat="42.69723" lon="1.18679">
        <ele>2465.8000488281</ele>
        <time>2023-07-26T06:03:29.000Z</time>
      </trkpt>
      <trkpt lat="42.69721" lon="1.18677">
        <ele>2466.8000488281</ele>
        <time>2023-07-26T06:03:35.000Z</time>
      </trkpt>
      <trkpt lat="42.69721" lon="1.18678">
        <ele>2467.1999511719</ele>
        <time>2023-07-26T06:03:38.000Z</time>
      </trkpt>
      <trkpt lat="42.69723" lon="1.18676">
        <ele>2467.8000488281</ele>
        <time>2023-07-26T06:03:42.000Z</time>
      </trkpt>
      <trkpt lat="42.69724" lon="1.18678">
        <ele>2468.1999511719</ele>
        <time>2023-07-26T06:03:45.000Z</time>
      </trkpt>
      <trkpt lat="42.69722" lon="1.18678">
        <ele>2468.8000488281</ele>
        <time>2023-07-26T06:03:52.000Z</time>
      </trkpt>
      <trkpt lat="42.69719" lon="1.18677">
        <ele>2469.6000976562</ele>
        <time>2023-07-26T06:03:59.000Z</time>
      </trkpt>
      <trkpt lat="42.69719" lon="1.18676">
        <ele>2470</ele>
        <time>2023-07-26T06:04:01.000Z</time>
      </trkpt>
      <trkpt lat="42.69717" lon="1.18675">
        <ele>2471</ele>
        <time>2023-07-26T06:04:08.000Z</time>
      </trkpt>
      <trkpt lat="42.69717" lon="1.18675">
        <ele>2471</ele>
        <time>2023-07-26T06:04:09.000Z</time>
      </trkpt>
      <trkpt lat="42.69715" lon="1.18673">
        <ele>2471.8000488281</ele>
        <time>2023-07-26T06:04:15.000Z</time>
      </trkpt>
      <trkpt lat="42.69715" lon="1.18673">
        <ele>2472</ele>
        <time>2023-07-26T06:04:16.000Z</time>
      </trkpt>
      <trkpt lat="42.69713" lon="1.1867">
        <ele>2473</ele>
        <time>2023-07-26T06:04:22.000Z</time>
      </trkpt>
      <trkpt lat="42.69713" lon="1.18669">
        <ele>2473.1999511719</ele>
        <time>2023-07-26T06:04:23.000Z</time>
      </trkpt>
      <trkpt lat="42.69715" lon="1.18665">
        <ele>2473.8000488281</ele>
        <time>2023-07-26T06:04:32.000Z</time>
      </trkpt>
      <trkpt lat="42.69718" lon="1.18662">
        <ele>2474.1999511719</ele>
        <time>2023-07-26T06:04:38.000Z</time>
      </trkpt>
      <trkpt lat="42.6972" lon="1.1866">
        <ele>2475.1999511719</ele>
        <time>2023-07-26T06:04:44.000Z</time>
      </trkpt>
      <trkpt lat="42.6972" lon="1.18659">
        <ele>2475.6000976562</ele>
        <time>2023-07-26T06:04:46.000Z</time>
      </trkpt>
      <trkpt lat="42.69721" lon="1.18657">
        <ele>2476.3999023438</ele>
        <time>2023-07-26T06:04:52.000Z</time>
      </trkpt>
      <trkpt lat="42.69721" lon="1.18657">
        <ele>2476.6000976562</ele>
        <time>2023-07-26T06:04:53.000Z</time>
      </trkpt>
      <trkpt lat="42.69721" lon="1.18656">
        <ele>2477.3999023438</ele>
        <time>2023-07-26T06:04:59.000Z</time>
      </trkpt>
      <trkpt lat="42.69721" lon="1.18654">
        <ele>2478</ele>
        <time>2023-07-26T06:05:02.000Z</time>
      </trkpt>
      <trkpt lat="42.69722" lon="1.18654">
        <ele>2478.6000976562</ele>
        <time>2023-07-26T06:05:05.000Z</time>
      </trkpt>
      <trkpt lat="42.6972" lon="1.18654">
        <ele>2478.8000488281</ele>
        <time>2023-07-26T06:05:08.000Z</time>
      </trkpt>
      <trkpt lat="42.69719" lon="1.18652">
        <ele>2479.1999511719</ele>
        <time>2023-07-26T06:05:10.000Z</time>
      </trkpt>
      <trkpt lat="42.69718" lon="1.18649">
        <ele>2479.6000976562</ele>
        <time>2023-07-26T06:05:13.000Z</time>
      </trkpt>
      <trkpt lat="42.6972" lon="1.18647">
        <ele>2480.3999023438</ele>
        <time>2023-07-26T06:05:18.000Z</time>
      </trkpt>
      <trkpt lat="42.69721" lon="1.18647">
        <ele>2480.8000488281</ele>
        <time>2023-07-26T06:05:19.000Z</time>
      </trkpt>
      <trkpt lat="42.69721" lon="1.18644">
        <ele>2481.3999023438</ele>
        <time>2023-07-26T06:05:26.000Z</time>
      </trkpt>
      <trkpt lat="42.69721" lon="1.18643">
        <ele>2481.8000488281</ele>
        <time>2023-07-26T06:05:28.000Z</time>
      </trkpt>
      <trkpt lat="42.69721" lon="1.1864">
        <ele>2482.3999023438</ele>
        <time>2023-07-26T06:05:33.000Z</time>
      </trkpt>
      <trkpt lat="42.69721" lon="1.18639">
        <ele>2482.8000488281</ele>
        <time>2023-07-26T06:05:36.000Z</time>
      </trkpt>
      <trkpt lat="42.69721" lon="1.18635">
        <ele>2483.6000976562</ele>
        <time>2023-07-26T06:05:41.000Z</time>
      </trkpt>
      <trkpt lat="42.69721" lon="1.18631">
        <ele>2484</ele>
        <time>2023-07-26T06:05:44.000Z</time>
      </trkpt>
      <trkpt lat="42.69721" lon="1.1863">
        <ele>2484.1999511719</ele>
        <time>2023-07-26T06:05:48.000Z</time>
      </trkpt>
      <trkpt lat="42.69722" lon="1.18625">
        <ele>2484.8000488281</ele>
        <time>2023-07-26T06:05:56.000Z</time>
      </trkpt>
      <trkpt lat="42.6972" lon="1.18622">
        <ele>2484.6000976562</ele>
        <time>2023-07-26T06:06:05.000Z</time>
      </trkpt>
      <trkpt lat="42.69718" lon="1.18623">
        <ele>2485</ele>
        <time>2023-07-26T06:06:08.000Z</time>
      </trkpt>
      <trkpt lat="42.69717" lon="1.18617">
        <ele>2486.1999511719</ele>
        <time>2023-07-26T06:06:15.000Z</time>
      </trkpt>
      <trkpt lat="42.69717" lon="1.18617">
        <ele>2486.1999511719</ele>
        <time>2023-07-26T06:06:16.000Z</time>
      </trkpt>
      <trkpt lat="42.69715" lon="1.18612">
        <ele>2487.1999511719</ele>
        <time>2023-07-26T06:06:24.000Z</time>
      </trkpt>
      <trkpt lat="42.69713" lon="1.18607">
        <ele>2488</ele>
        <time>2023-07-26T06:06:32.000Z</time>
      </trkpt>
      <trkpt lat="42.69713" lon="1.18605">
        <ele>2488.1999511719</ele>
        <time>2023-07-26T06:06:35.000Z</time>
      </trkpt>
      <trkpt lat="42.69713" lon="1.18604">
        <ele>2489</ele>
        <time>2023-07-26T06:06:41.000Z</time>
      </trkpt>
      <trkpt lat="42.69712" lon="1.18605">
        <ele>2489.3999023438</ele>
        <time>2023-07-26T06:06:45.000Z</time>
      </trkpt>
      <trkpt lat="42.69711" lon="1.18603">
        <ele>2489.8000488281</ele>
        <time>2023-07-26T06:06:48.000Z</time>
      </trkpt>
      <trkpt lat="42.69712" lon="1.186">
        <ele>2490.3999023438</ele>
        <time>2023-07-26T06:06:56.000Z</time>
      </trkpt>
      <trkpt lat="42.6971" lon="1.18593">
        <ele>2491.6000976562</ele>
        <time>2023-07-26T06:07:04.000Z</time>
      </trkpt>
      <trkpt lat="42.6971" lon="1.18592">
        <ele>2491.6000976562</ele>
        <time>2023-07-26T06:07:05.000Z</time>
      </trkpt>
      <trkpt lat="42.69709" lon="1.18589">
        <ele>2492.3999023438</ele>
        <time>2023-07-26T06:07:13.000Z</time>
      </trkpt>
      <trkpt lat="42.69709" lon="1.18589">
        <ele>2492.6000976562</ele>
        <time>2023-07-26T06:07:14.000Z</time>
      </trkpt>
      <trkpt lat="42.69709" lon="1.18591">
        <ele>2493.6000976562</ele>
        <time>2023-07-26T06:07:20.000Z</time>
      </trkpt>
      <trkpt lat="42.69709" lon="1.18591">
        <ele>2493.8000488281</ele>
        <time>2023-07-26T06:07:21.000Z</time>
      </trkpt>
      <trkpt lat="42.69709" lon="1.18587">
        <ele>2494.8000488281</ele>
        <time>2023-07-26T06:07:28.000Z</time>
      </trkpt>
      <trkpt lat="42.69709" lon="1.18587">
        <ele>2494.8000488281</ele>
        <time>2023-07-26T06:07:29.000Z</time>
      </trkpt>
      <trkpt lat="42.69708" lon="1.18584">
        <ele>2495.6000976562</ele>
        <time>2023-07-26T06:07:35.000Z</time>
      </trkpt>
      <trkpt lat="42.69708" lon="1.18583">
        <ele>2495.8000488281</ele>
        <time>2023-07-26T06:07:36.000Z</time>
      </trkpt>
      <trkpt lat="42.69708" lon="1.18579">
        <ele>2496.6000976562</ele>
        <time>2023-07-26T06:07:43.000Z</time>
      </trkpt>
      <trkpt lat="42.69708" lon="1.18576">
        <ele>2496.8000488281</ele>
        <time>2023-07-26T06:07:46.000Z</time>
      </trkpt>
      <trkpt lat="42.6971" lon="1.18578">
        <ele>2497</ele>
        <time>2023-07-26T06:07:51.000Z</time>
      </trkpt>
      <trkpt lat="42.69714" lon="1.18576">
        <ele>2496.6000976562</ele>
        <time>2023-07-26T06:08:00.000Z</time>
      </trkpt>
      <trkpt lat="42.69716" lon="1.1857">
        <ele>2495.8000488281</ele>
        <time>2023-07-26T06:08:07.000Z</time>
      </trkpt>
      <trkpt lat="42.69716" lon="1.18568">
        <ele>2495.6000976562</ele>
        <time>2023-07-26T06:08:09.000Z</time>
      </trkpt>
      <trkpt lat="42.69718" lon="1.18566">
        <ele>2495.1999511719</ele>
        <time>2023-07-26T06:08:16.000Z</time>
      </trkpt>
      <trkpt lat="42.6972" lon="1.18568">
        <ele>2495</ele>
        <time>2023-07-26T06:08:21.000Z</time>
      </trkpt>
      <trkpt lat="42.6972" lon="1.18566">
        <ele>2494.8000488281</ele>
        <time>2023-07-26T06:08:25.000Z</time>
      </trkpt>
      <trkpt lat="42.69718" lon="1.18564">
        <ele>2494.6000976562</ele>
        <time>2023-07-26T06:08:29.000Z</time>
      </trkpt>
      <trkpt lat="42.69718" lon="1.18566">
        <ele>2494.6000976562</ele>
        <time>2023-07-26T06:08:38.000Z</time>
      </trkpt>
      <trkpt lat="42.69718" lon="1.18561">
        <ele>2494.3999023438</ele>
        <time>2023-07-26T06:08:45.000Z</time>
      </trkpt>
      <trkpt lat="42.69718" lon="1.18557">
        <ele>2493.6000976562</ele>
        <time>2023-07-26T06:08:49.000Z</time>
      </trkpt>
      <trkpt lat="42.69718" lon="1.18551">
        <ele>2493</ele>
        <time>2023-07-26T06:08:54.000Z</time>
      </trkpt>
      <trkpt lat="42.69718" lon="1.18546">
        <ele>2492.8000488281</ele>
        <time>2023-07-26T06:09:00.000Z</time>
      </trkpt>
      <trkpt lat="42.69719" lon="1.18539">
        <ele>2493.1999511719</ele>
        <time>2023-07-26T06:09:08.000Z</time>
      </trkpt>
      <trkpt lat="42.69722" lon="1.18536">
        <ele>2494</ele>
        <time>2023-07-26T06:09:14.000Z</time>
      </trkpt>
      <trkpt lat="42.69725" lon="1.18529">
        <ele>2494.3999023438</ele>
        <time>2023-07-26T06:09:22.000Z</time>
      </trkpt>
      <trkpt lat="42.69723" lon="1.18526">
        <ele>2494.8000488281</ele>
        <time>2023-07-26T06:09:26.000Z</time>
      </trkpt>
      <trkpt lat="42.69721" lon="1.18521">
        <ele>2495.3999023438</ele>
        <time>2023-07-26T06:09:31.000Z</time>
      </trkpt>
      <trkpt lat="42.6972" lon="1.18519">
        <ele>2495.8000488281</ele>
        <time>2023-07-26T06:09:34.000Z</time>
      </trkpt>
      <trkpt lat="42.69721" lon="1.18512">
        <ele>2496</ele>
        <time>2023-07-26T06:09:38.000Z</time>
      </trkpt>
      <trkpt lat="42.69722" lon="1.18504">
        <ele>2495.8000488281</ele>
        <time>2023-07-26T06:09:46.000Z</time>
      </trkpt>
      <trkpt lat="42.69723" lon="1.18496">
        <ele>2495.3999023438</ele>
        <time>2023-07-26T06:09:53.000Z</time>
      </trkpt>
      <trkpt lat="42.69723" lon="1.18489">
        <ele>2495.3999023438</ele>
        <time>2023-07-26T06:10:01.000Z</time>
      </trkpt>
      <trkpt lat="42.69724" lon="1.1848">
        <ele>2494.8000488281</ele>
        <time>2023-07-26T06:10:08.000Z</time>
      </trkpt>
      <trkpt lat="42.69724" lon="1.1848">
        <ele>2494.8000488281</ele>
        <time>2023-07-26T06:10:09.000Z</time>
      </trkpt>
      <trkpt lat="42.69724" lon="1.18472">
        <ele>2494.6000976562</ele>
        <time>2023-07-26T06:10:16.000Z</time>
      </trkpt>
      <trkpt lat="42.69726" lon="1.18466">
        <ele>2494.6000976562</ele>
        <time>2023-07-26T06:10:23.000Z</time>
      </trkpt>
      <trkpt lat="42.69726" lon="1.18457">
        <ele>2495</ele>
        <time>2023-07-26T06:10:30.000Z</time>
      </trkpt>
      <trkpt lat="42.69726" lon="1.18447">
        <ele>2495.6000976562</ele>
        <time>2023-07-26T06:10:37.000Z</time>
      </trkpt>
      <trkpt lat="42.69727" lon="1.18446">
        <ele>2495.8000488281</ele>
        <time>2023-07-26T06:10:39.000Z</time>
      </trkpt>
      <trkpt lat="42.69728" lon="1.18439">
        <ele>2496</ele>
        <time>2023-07-26T06:10:45.000Z</time>
      </trkpt>
      <trkpt lat="42.69728" lon="1.18433">
        <ele>2497</ele>
        <time>2023-07-26T06:10:52.000Z</time>
      </trkpt>
      <trkpt lat="42.69728" lon="1.18431">
        <ele>2497</ele>
        <time>2023-07-26T06:10:53.000Z</time>
      </trkpt>
      <trkpt lat="42.69727" lon="1.18421">
        <ele>2497.1999511719</ele>
        <time>2023-07-26T06:11:03.000Z</time>
      </trkpt>
      <trkpt lat="42.69725" lon="1.18415">
        <ele>2496.6000976562</ele>
        <time>2023-07-26T06:11:11.000Z</time>
      </trkpt>
      <trkpt lat="42.69722" lon="1.18411">
        <ele>2497.1999511719</ele>
        <time>2023-07-26T06:11:18.000Z</time>
      </trkpt>
      <trkpt lat="42.69719" lon="1.18406">
        <ele>2497.1999511719</ele>
        <time>2023-07-26T06:11:27.000Z</time>
      </trkpt>
      <trkpt lat="42.69713" lon="1.18404">
        <ele>2496.8000488281</ele>
        <time>2023-07-26T06:11:35.000Z</time>
      </trkpt>
      <trkpt lat="42.6971" lon="1.18405">
        <ele>2497.6000976562</ele>
        <time>2023-07-26T06:11:42.000Z</time>
      </trkpt>
      <trkpt lat="42.69709" lon="1.18404">
        <ele>2498</ele>
        <time>2023-07-26T06:11:45.000Z</time>
      </trkpt>
      <trkpt lat="42.69708" lon="1.18403">
        <ele>2498.6000976562</ele>
        <time>2023-07-26T06:11:50.000Z</time>
      </trkpt>
      <trkpt lat="42.69707" lon="1.18398">
        <ele>2499</ele>
        <time>2023-07-26T06:11:55.000Z</time>
      </trkpt>
      <trkpt lat="42.69707" lon="1.18397">
        <ele>2499.1999511719</ele>
        <time>2023-07-26T06:11:57.000Z</time>
      </trkpt>
      <trkpt lat="42.69706" lon="1.18393">
        <ele>2499.1999511719</ele>
        <time>2023-07-26T06:12:04.000Z</time>
      </trkpt>
      <trkpt lat="42.69707" lon="1.18395">
        <ele>2499.1999511719</ele>
        <time>2023-07-26T06:12:12.000Z</time>
      </trkpt>
      <trkpt lat="42.69707" lon="1.18393">
        <ele>2499</ele>
        <time>2023-07-26T06:12:23.000Z</time>
      </trkpt>
      <trkpt lat="42.6971" lon="1.18392">
        <ele>2499</ele>
        <time>2023-07-26T06:12:29.000Z</time>
      </trkpt>
      <trkpt lat="42.69707" lon="1.18391">
        <ele>2499</ele>
        <time>2023-07-26T06:12:38.000Z</time>
      </trkpt>
      <trkpt lat="42.69704" lon="1.18397">
        <ele>2499</ele>
        <time>2023-07-26T06:12:48.000Z</time>
      </trkpt>
      <trkpt lat="42.69704" lon="1.18393">
        <ele>2498.8000488281</ele>
        <time>2023-07-26T06:12:55.000Z</time>
      </trkpt>
      <trkpt lat="42.69705" lon="1.18385">
        <ele>2498.3999023438</ele>
        <time>2023-07-26T06:13:03.000Z</time>
      </trkpt>
      <trkpt lat="42.69706" lon="1.18384">
        <ele>2498</ele>
        <time>2023-07-26T06:13:08.000Z</time>
      </trkpt>
      <trkpt lat="42.69706" lon="1.18382">
        <ele>2497.8000488281</ele>
        <time>2023-07-26T06:13:10.000Z</time>
      </trkpt>
      <trkpt lat="42.69706" lon="1.18376">
        <ele>2497</ele>
        <time>2023-07-26T06:13:18.000Z</time>
      </trkpt>
      <trkpt lat="42.69705" lon="1.18374">
        <ele>2496.6000976562</ele>
        <time>2023-07-26T06:13:20.000Z</time>
      </trkpt>
      <trkpt lat="42.69705" lon="1.18373">
        <ele>2496</ele>
        <time>2023-07-26T06:13:24.000Z</time>
      </trkpt>
      <trkpt lat="42.69705" lon="1.18371">
        <ele>2495.8000488281</ele>
        <time>2023-07-26T06:13:27.000Z</time>
      </trkpt>
      <trkpt lat="42.69704" lon="1.18367">
        <ele>2495</ele>
        <time>2023-07-26T06:13:32.000Z</time>
      </trkpt>
      <trkpt lat="42.69704" lon="1.18366">
        <ele>2495</ele>
        <time>2023-07-26T06:13:34.000Z</time>
      </trkpt>
      <trkpt lat="42.69703" lon="1.18358">
        <ele>2494.8000488281</ele>
        <time>2023-07-26T06:13:41.000Z</time>
      </trkpt>
      <trkpt lat="42.69702" lon="1.18352">
        <ele>2494.8000488281</ele>
        <time>2023-07-26T06:13:49.000Z</time>
      </trkpt>
      <trkpt lat="42.69702" lon="1.18342">
        <ele>2494.1999511719</ele>
        <time>2023-07-26T06:13:58.000Z</time>
      </trkpt>
      <trkpt lat="42.69702" lon="1.18334">
        <ele>2494</ele>
        <time>2023-07-26T06:14:07.000Z</time>
      </trkpt>
      <trkpt lat="42.69702" lon="1.18332">
        <ele>2494</ele>
        <time>2023-07-26T06:14:09.000Z</time>
      </trkpt>
      <trkpt lat="42.69702" lon="1.18328">
        <ele>2493.3999023438</ele>
        <time>2023-07-26T06:14:15.000Z</time>
      </trkpt>
      <trkpt lat="42.69702" lon="1.18319">
        <ele>2493</ele>
        <time>2023-07-26T06:14:22.000Z</time>
      </trkpt>
      <trkpt lat="42.69701" lon="1.18314">
        <ele>2492.8000488281</ele>
        <time>2023-07-26T06:14:25.000Z</time>
      </trkpt>
      <trkpt lat="42.69702" lon="1.1831">
        <ele>2492.6000976562</ele>
        <time>2023-07-26T06:14:28.000Z</time>
      </trkpt>
      <trkpt lat="42.69703" lon="1.18304">
        <ele>2492.6000976562</ele>
        <time>2023-07-26T06:14:35.000Z</time>
      </trkpt>
      <trkpt lat="42.69701" lon="1.18299">
        <ele>2492.3999023438</ele>
        <time>2023-07-26T06:14:42.000Z</time>
      </trkpt>
      <trkpt lat="42.69697" lon="1.18291">
        <ele>2492.3999023438</ele>
        <time>2023-07-26T06:14:49.000Z</time>
      </trkpt>
      <trkpt lat="42.69695" lon="1.18283">
        <ele>2492.3999023438</ele>
        <time>2023-07-26T06:14:58.000Z</time>
      </trkpt>
      <trkpt lat="42.69696" lon="1.18277">
        <ele>2492</ele>
        <time>2023-07-26T06:15:06.000Z</time>
      </trkpt>
      <trkpt lat="42.69697" lon="1.18274">
        <ele>2491.6000976562</ele>
        <time>2023-07-26T06:15:09.000Z</time>
      </trkpt>
      <trkpt lat="42.69698" lon="1.1827">
        <ele>2491.6000976562</ele>
        <time>2023-07-26T06:15:13.000Z</time>
      </trkpt>
      <trkpt lat="42.69698" lon="1.18268">
        <ele>2491.6000976562</ele>
        <time>2023-07-26T06:15:20.000Z</time>
      </trkpt>
      <trkpt lat="42.697" lon="1.1826">
        <ele>2491.6000976562</ele>
        <time>2023-07-26T06:15:26.000Z</time>
      </trkpt>
      <trkpt lat="42.69701" lon="1.18257">
        <ele>2491.3999023438</ele>
        <time>2023-07-26T06:15:32.000Z</time>
      </trkpt>
      <trkpt lat="42.69701" lon="1.18261">
        <ele>2491.1999511719</ele>
        <time>2023-07-26T06:15:40.000Z</time>
      </trkpt>
      <trkpt lat="42.69699" lon="1.18267">
        <ele>2491.8000488281</ele>
        <time>2023-07-26T06:15:48.000Z</time>
      </trkpt>
      <trkpt lat="42.69696" lon="1.18265">
        <ele>2492.3999023438</ele>
        <time>2023-07-26T06:15:54.000Z</time>
      </trkpt>
      <trkpt lat="42.69697" lon="1.18266">
        <ele>2492.8000488281</ele>
        <time>2023-07-26T06:15:56.000Z</time>
      </trkpt>
      <trkpt lat="42.69699" lon="1.18268">
        <ele>2493</ele>
        <time>2023-07-26T06:16:01.000Z</time>
      </trkpt>
      <trkpt lat="42.69699" lon="1.18273">
        <ele>2492.6000976562</ele>
        <time>2023-07-26T06:16:09.000Z</time>
      </trkpt>
      <trkpt lat="42.69697" lon="1.18278">
        <ele>2491.8000488281</ele>
        <time>2023-07-26T06:16:14.000Z</time>
      </trkpt>
      <trkpt lat="42.69697" lon="1.18278">
        <ele>2491.8000488281</ele>
        <time>2023-07-26T06:16:16.000Z</time>
      </trkpt>
      <trkpt lat="42.69693" lon="1.18281">
        <ele>2491.8000488281</ele>
        <time>2023-07-26T06:16:24.000Z</time>
      </trkpt>
      <trkpt lat="42.69694" lon="1.18283">
        <ele>2491.8000488281</ele>
        <time>2023-07-26T06:16:32.000Z</time>
      </trkpt>
      <trkpt lat="42.69694" lon="1.18283">
        <ele>2491.8000488281</ele>
        <time>2023-07-26T06:16:38.000Z</time>
      </trkpt>
      <trkpt lat="42.69694" lon="1.18283">
        <ele>2491.8000488281</ele>
        <time>2023-07-26T06:16:47.000Z</time>
      </trkpt>
      <trkpt lat="42.69696" lon="1.18279">
        <ele>2491.6000976562</ele>
        <time>2023-07-26T06:16:54.000Z</time>
      </trkpt>
      <trkpt lat="42.69696" lon="1.18281">
        <ele>2491.8000488281</ele>
        <time>2023-07-26T06:17:03.000Z</time>
      </trkpt>
      <trkpt lat="42.69695" lon="1.1828">
        <ele>2491.8000488281</ele>
        <time>2023-07-26T06:17:10.000Z</time>
      </trkpt>
      <trkpt lat="42.69693" lon="1.1828">
        <ele>2491.3999023438</ele>
        <time>2023-07-26T06:17:21.000Z</time>
      </trkpt>
      <trkpt lat="42.6969" lon="1.18285">
        <ele>2491.6000976562</ele>
        <time>2023-07-26T06:17:28.000Z</time>
      </trkpt>
      <trkpt lat="42.69693" lon="1.18285">
        <ele>2491.6000976562</ele>
        <time>2023-07-26T06:17:37.000Z</time>
      </trkpt>
      <trkpt lat="42.69695" lon="1.18283">
        <ele>2491.8000488281</ele>
        <time>2023-07-26T06:17:44.000Z</time>
      </trkpt>
      <trkpt lat="42.69695" lon="1.1828">
        <ele>2492</ele>
        <time>2023-07-26T06:17:55.000Z</time>
      </trkpt>
      <trkpt lat="42.69695" lon="1.18279">
        <ele>2492</ele>
        <time>2023-07-26T06:18:01.000Z</time>
      </trkpt>
      <trkpt lat="42.69693" lon="1.18281">
        <ele>2492.1999511719</ele>
        <time>2023-07-26T06:18:10.000Z</time>
      </trkpt>
      <trkpt lat="42.69695" lon="1.18281">
        <ele>2492.1999511719</ele>
        <time>2023-07-26T06:18:20.000Z</time>
      </trkpt>
      <trkpt lat="42.69695" lon="1.1828">
        <ele>2492.6000976562</ele>
        <time>2023-07-26T06:18:28.000Z</time>
      </trkpt>
      <trkpt lat="42.69694" lon="1.18278">
        <ele>2492.8000488281</ele>
        <time>2023-07-26T06:18:35.000Z</time>
      </trkpt>
      <trkpt lat="42.69694" lon="1.18278">
        <ele>2492.6000976562</ele>
        <time>2023-07-26T06:18:42.000Z</time>
      </trkpt>
      <trkpt lat="42.69694" lon="1.18279">
        <ele>2492.6000976562</ele>
        <time>2023-07-26T06:18:52.000Z</time>
      </trkpt>
      <trkpt lat="42.69694" lon="1.18279">
        <ele>2492.8000488281</ele>
        <time>2023-07-26T06:19:10.000Z</time>
      </trkpt>
      <trkpt lat="42.69694" lon="1.18281">
        <ele>2492.6000976562</ele>
        <time>2023-07-26T06:19:17.000Z</time>
      </trkpt>
      <trkpt lat="42.69694" lon="1.1828">
        <ele>2492.3999023438</ele>
        <time>2023-07-26T06:19:25.000Z</time>
      </trkpt>
      <trkpt lat="42.69692" lon="1.1828">
        <ele>2492.6000976562</ele>
        <time>2023-07-26T06:19:32.000Z</time>
      </trkpt>
      <trkpt lat="42.69693" lon="1.18282">
        <ele>2492.6000976562</ele>
        <time>2023-07-26T06:19:43.000Z</time>
      </trkpt>
      <trkpt lat="42.69696" lon="1.18281">
        <ele>2492.8000488281</ele>
        <time>2023-07-26T06:19:52.000Z</time>
      </trkpt>
      <trkpt lat="42.69695" lon="1.18277">
        <ele>2492.8000488281</ele>
        <time>2023-07-26T06:19:59.000Z</time>
      </trkpt>
      <trkpt lat="42.69695" lon="1.18277">
        <ele>2492.8000488281</ele>
        <time>2023-07-26T06:20:00.000Z</time>
      </trkpt>
      <trkpt lat="42.69696" lon="1.18281">
        <ele>2493</ele>
        <time>2023-07-26T06:20:06.000Z</time>
      </trkpt>
      <trkpt lat="42.69696" lon="1.18282">
        <ele>2493.1999511719</ele>
        <time>2023-07-26T06:20:14.000Z</time>
      </trkpt>
      <trkpt lat="42.69694" lon="1.18281">
        <ele>2493.1999511719</ele>
        <time>2023-07-26T06:20:23.000Z</time>
      </trkpt>
      <trkpt lat="42.69696" lon="1.18276">
        <ele>2493.1999511719</ele>
        <time>2023-07-26T06:20:32.000Z</time>
      </trkpt>
      <trkpt lat="42.69697" lon="1.18279">
        <ele>2493.1999511719</ele>
        <time>2023-07-26T06:20:43.000Z</time>
      </trkpt>
      <trkpt lat="42.69694" lon="1.18279">
        <ele>2493.1999511719</ele>
        <time>2023-07-26T06:20:55.000Z</time>
      </trkpt>
      <trkpt lat="42.69695" lon="1.18279">
        <ele>2493</ele>
        <time>2023-07-26T06:21:04.000Z</time>
      </trkpt>
      <trkpt lat="42.69697" lon="1.18279">
        <ele>2493</ele>
        <time>2023-07-26T06:21:15.000Z</time>
      </trkpt>
      <trkpt lat="42.69695" lon="1.18282">
        <ele>2493.1999511719</ele>
        <time>2023-07-26T06:21:23.000Z</time>
      </trkpt>
      <trkpt lat="42.69695" lon="1.18281">
        <ele>2493.1999511719</ele>
        <time>2023-07-26T06:21:32.000Z</time>
      </trkpt>
      <trkpt lat="42.69697" lon="1.18283">
        <ele>2493.3999023438</ele>
        <time>2023-07-26T06:21:40.000Z</time>
      </trkpt>
      <trkpt lat="42.69694" lon="1.1828">
        <ele>2493.3999023438</ele>
        <time>2023-07-26T06:21:50.000Z</time>
      </trkpt>
      <trkpt lat="42.69695" lon="1.18279">
        <ele>2493.3999023438</ele>
        <time>2023-07-26T06:22:00.000Z</time>
      </trkpt>
      <trkpt lat="42.69696" lon="1.1828">
        <ele>2493.6000976562</ele>
        <time>2023-07-26T06:22:11.000Z</time>
      </trkpt>
      <trkpt lat="42.69694" lon="1.18281">
        <ele>2493.8000488281</ele>
        <time>2023-07-26T06:22:19.000Z</time>
      </trkpt>
      <trkpt lat="42.69694" lon="1.18281">
        <ele>2493.8000488281</ele>
        <time>2023-07-26T06:22:20.000Z</time>
      </trkpt>
      <trkpt lat="42.69691" lon="1.1828">
        <ele>2493.6000976562</ele>
        <time>2023-07-26T06:22:27.000Z</time>
      </trkpt>
      <trkpt lat="42.69694" lon="1.18283">
        <ele>2493.6000976562</ele>
        <time>2023-07-26T06:22:34.000Z</time>
      </trkpt>
      <trkpt lat="42.69695" lon="1.18283">
        <ele>2493.6000976562</ele>
        <time>2023-07-26T06:22:43.000Z</time>
      </trkpt>
      <trkpt lat="42.69694" lon="1.18281">
        <ele>2493.8000488281</ele>
        <time>2023-07-26T06:22:50.000Z</time>
      </trkpt>
      <trkpt lat="42.69698" lon="1.1828">
        <ele>2493.6000976562</ele>
        <time>2023-07-26T06:22:56.000Z</time>
      </trkpt>
      <trkpt lat="42.69695" lon="1.18278">
        <ele>2493.8000488281</ele>
        <time>2023-07-26T06:23:05.000Z</time>
      </trkpt>
      <trkpt lat="42.69696" lon="1.1828">
        <ele>2493.6000976562</ele>
        <time>2023-07-26T06:23:13.000Z</time>
      </trkpt>
      <trkpt lat="42.69691" lon="1.18276">
        <ele>2493.3999023438</ele>
        <time>2023-07-26T06:23:31.000Z</time>
      </trkpt>
      <trkpt lat="42.69696" lon="1.18277">
        <ele>2493.6000976562</ele>
        <time>2023-07-26T06:23:38.000Z</time>
      </trkpt>
      <trkpt lat="42.69698" lon="1.18274">
        <ele>2493.6000976562</ele>
        <time>2023-07-26T06:23:51.000Z</time>
      </trkpt>
      <trkpt lat="42.69697" lon="1.18279">
        <ele>2493.8000488281</ele>
        <time>2023-07-26T06:23:58.000Z</time>
      </trkpt>
      <trkpt lat="42.69694" lon="1.18278">
        <ele>2493.6000976562</ele>
        <time>2023-07-26T06:24:06.000Z</time>
      </trkpt>
      <trkpt lat="42.69692" lon="1.18278">
        <ele>2493.8000488281</ele>
        <time>2023-07-26T06:24:17.000Z</time>
      </trkpt>
      <trkpt lat="42.69692" lon="1.18275">
        <ele>2493.8000488281</ele>
        <time>2023-07-26T06:24:28.000Z</time>
      </trkpt>
      <trkpt lat="42.69694" lon="1.18281">
        <ele>2493.8000488281</ele>
        <time>2023-07-26T06:24:36.000Z</time>
      </trkpt>
      <trkpt lat="42.69694" lon="1.18284">
        <ele>2493.8000488281</ele>
        <time>2023-07-26T06:24:44.000Z</time>
      </trkpt>
      <trkpt lat="42.69693" lon="1.18281">
        <ele>2493.8000488281</ele>
        <time>2023-07-26T06:24:54.000Z</time>
      </trkpt>
      <trkpt lat="42.69695" lon="1.1828">
        <ele>2494</ele>
        <time>2023-07-26T06:25:04.000Z</time>
      </trkpt>
      <trkpt lat="42.69694" lon="1.1828">
        <ele>2494.1999511719</ele>
        <time>2023-07-26T06:25:15.000Z</time>
      </trkpt>
      <trkpt lat="42.69695" lon="1.18277">
        <ele>2494.3999023438</ele>
        <time>2023-07-26T06:25:24.000Z</time>
      </trkpt>
      <trkpt lat="42.69695" lon="1.18281">
        <ele>2494.1999511719</ele>
        <time>2023-07-26T06:25:33.000Z</time>
      </trkpt>
      <trkpt lat="42.69696" lon="1.18284">
        <ele>2494.1999511719</ele>
        <time>2023-07-26T06:25:40.000Z</time>
      </trkpt>
      <trkpt lat="42.69696" lon="1.18283">
        <ele>2494</ele>
        <time>2023-07-26T06:25:49.000Z</time>
      </trkpt>
      <trkpt lat="42.69695" lon="1.18284">
        <ele>2494</ele>
        <time>2023-07-26T06:25:58.000Z</time>
      </trkpt>
      <trkpt lat="42.69696" lon="1.18281">
        <ele>2494</ele>
        <time>2023-07-26T06:26:09.000Z</time>
      </trkpt>
      <trkpt lat="42.69696" lon="1.18276">
        <ele>2494.1999511719</ele>
        <time>2023-07-26T06:26:17.000Z</time>
      </trkpt>
      <trkpt lat="42.69695" lon="1.18269">
        <ele>2494.1999511719</ele>
        <time>2023-07-26T06:26:26.000Z</time>
      </trkpt>
      <trkpt lat="42.69703" lon="1.18258">
        <ele>2493.2</ele>
        <time>2023-07-26T06:34:18Z</time>
      </trkpt>
      <trkpt lat="42.6971" lon="1.18237">
        <ele>2493.1</ele>
        <time>2023-07-26T06:34:36Z</time>
      </trkpt>
      <trkpt lat="42.69719" lon="1.18209">
        <ele>2493.8</ele>
        <time>2023-07-26T06:34:54Z</time>
      </trkpt>
      <trkpt lat="42.69717" lon="1.1819">
        <ele>2494.2</ele>
        <time>2023-07-26T06:35:12Z</time>
      </trkpt>
      <trkpt lat="42.69711" lon="1.18123">
        <ele>2494.9</ele>
        <time>2023-07-26T06:35:30Z</time>
      </trkpt>
      <trkpt lat="42.69708" lon="1.18108">
        <ele>2494.5</ele>
        <time>2023-07-26T06:35:48Z</time>
      </trkpt>
      <trkpt lat="42.69697" lon="1.1808">
        <ele>2493.5</ele>
        <time>2023-07-26T06:36:06Z</time>
      </trkpt>
      <trkpt lat="42.69691" lon="1.18062">
        <ele>2496.2</ele>
        <time>2023-07-26T06:36:24Z</time>
      </trkpt>
      <trkpt lat="42.69682" lon="1.18051">
        <ele>2498.6</ele>
        <time>2023-07-26T06:36:42Z</time>
      </trkpt>
      <trkpt lat="42.69671" lon="1.18035">
        <ele>2503.1</ele>
        <time>2023-07-26T06:37:00Z</time>
      </trkpt>
      <trkpt lat="42.69658" lon="1.18034">
        <ele>2504.8</ele>
        <time>2023-07-26T06:37:18Z</time>
      </trkpt>
      <trkpt lat="42.69647" lon="1.18037">
        <ele>2505.9</ele>
        <time>2023-07-26T06:37:36Z</time>
      </trkpt>
      <trkpt lat="42.69645" lon="1.18037">
        <ele>2510.1999511719</ele>
        <time>2023-07-26T06:38:03.000Z</time>
      </trkpt>
      <trkpt lat="42.69643" lon="1.18037">
        <ele>2510.8000488281</ele>
        <time>2023-07-26T06:38:06.000Z</time>
      </trkpt>
      <trkpt lat="42.69641" lon="1.18036">
        <ele>2511</ele>
        <time>2023-07-26T06:38:08.000Z</time>
      </trkpt>
      <trkpt lat="42.69636" lon="1.18033">
        <ele>2511.6000976562</ele>
        <time>2023-07-26T06:38:16.000Z</time>
      </trkpt>
      <trkpt lat="42.69627" lon="1.18035">
        <ele>2512.1999511719</ele>
        <time>2023-07-26T06:38:29.000Z</time>
      </trkpt>
      <trkpt lat="42.69619" lon="1.1803">
        <ele>2512.6000976562</ele>
        <time>2023-07-26T06:38:38.000Z</time>
      </trkpt>
      <trkpt lat="42.69614" lon="1.18027">
        <ele>2511.6000976562</ele>
        <time>2023-07-26T06:38:47.000Z</time>
      </trkpt>
      <trkpt lat="42.69611" lon="1.18026">
        <ele>2511</ele>
        <time>2023-07-26T06:38:51.000Z</time>
      </trkpt>
      <trkpt lat="42.69607" lon="1.18028">
        <ele>2511</ele>
        <time>2023-07-26T06:38:55.000Z</time>
      </trkpt>
      <trkpt lat="42.69601" lon="1.18027">
        <ele>2510.8000488281</ele>
        <time>2023-07-26T06:39:03.000Z</time>
      </trkpt>
      <trkpt lat="42.69598" lon="1.18027">
        <ele>2510</ele>
        <time>2023-07-26T06:39:07.000Z</time>
      </trkpt>
      <trkpt lat="42.69594" lon="1.18026">
        <ele>2509.6000976562</ele>
        <time>2023-07-26T06:39:10.000Z</time>
      </trkpt>
      <trkpt lat="42.69589" lon="1.18021">
        <ele>2510.1999511719</ele>
        <time>2023-07-26T06:39:18.000Z</time>
      </trkpt>
      <trkpt lat="42.69586" lon="1.18021">
        <ele>2511</ele>
        <time>2023-07-26T06:39:24.000Z</time>
      </trkpt>
      <trkpt lat="42.69585" lon="1.18021">
        <ele>2511.1999511719</ele>
        <time>2023-07-26T06:39:25.000Z</time>
      </trkpt>
      <trkpt lat="42.69584" lon="1.18021">
        <ele>2511.6000976562</ele>
        <time>2023-07-26T06:39:26.000Z</time>
      </trkpt>
      <trkpt lat="42.69579" lon="1.18023">
        <ele>2511.6000976562</ele>
        <time>2023-07-26T06:39:33.000Z</time>
      </trkpt>
      <trkpt lat="42.69579" lon="1.18023">
        <ele>2511.8000488281</ele>
        <time>2023-07-26T06:39:39.000Z</time>
      </trkpt>
      <trkpt lat="42.69576" lon="1.18022">
        <ele>2513.1999511719</ele>
        <time>2023-07-26T06:39:49.000Z</time>
      </trkpt>
      <trkpt lat="42.69575" lon="1.18022">
        <ele>2513.6000976562</ele>
        <time>2023-07-26T06:39:51.000Z</time>
      </trkpt>
      <trkpt lat="42.69573" lon="1.18019">
        <ele>2514.6000976562</ele>
        <time>2023-07-26T06:39:58.000Z</time>
      </trkpt>
      <trkpt lat="42.69573" lon="1.18018">
        <ele>2515.6000976562</ele>
        <time>2023-07-26T06:40:02.000Z</time>
      </trkpt>
      <trkpt lat="42.69572" lon="1.18023">
        <ele>2516.3999023438</ele>
        <time>2023-07-26T06:40:06.000Z</time>
      </trkpt>
      <trkpt lat="42.6957" lon="1.18025">
        <ele>2516.6000976562</ele>
        <time>2023-07-26T06:40:08.000Z</time>
      </trkpt>
      <trkpt lat="42.69568" lon="1.18029">
        <ele>2517.3999023438</ele>
        <time>2023-07-26T06:40:12.000Z</time>
      </trkpt>
      <trkpt lat="42.69565" lon="1.1803">
        <ele>2517.8000488281</ele>
        <time>2023-07-26T06:40:20.000Z</time>
      </trkpt>
      <trkpt lat="42.69561" lon="1.18027">
        <ele>2518</ele>
        <time>2023-07-26T06:40:28.000Z</time>
      </trkpt>
      <trkpt lat="42.69562" lon="1.18028">
        <ele>2518.6000976562</ele>
        <time>2023-07-26T06:40:35.000Z</time>
      </trkpt>
      <trkpt lat="42.69561" lon="1.18027">
        <ele>2518.1999511719</ele>
        <time>2023-07-26T06:40:41.000Z</time>
      </trkpt>
      <trkpt lat="42.69561" lon="1.18027">
        <ele>2517.8000488281</ele>
        <time>2023-07-26T06:40:46.000Z</time>
      </trkpt>
      <trkpt lat="42.69563" lon="1.18029">
        <ele>2518.3999023438</ele>
        <time>2023-07-26T06:40:54.000Z</time>
      </trkpt>
      <trkpt lat="42.69568" lon="1.18027">
        <ele>2517.8000488281</ele>
        <time>2023-07-26T06:41:01.000Z</time>
      </trkpt>
      <trkpt lat="42.69569" lon="1.18027">
        <ele>2517</ele>
        <time>2023-07-26T06:41:10.000Z</time>
      </trkpt>
      <trkpt lat="42.69563" lon="1.18027">
        <ele>2517.3999023438</ele>
        <time>2023-07-26T06:41:17.000Z</time>
      </trkpt>
      <trkpt lat="42.6956" lon="1.18023">
        <ele>2518.8000488281</ele>
        <time>2023-07-26T06:41:27.000Z</time>
      </trkpt>
      <trkpt lat="42.69561" lon="1.18024">
        <ele>2519.1999511719</ele>
        <time>2023-07-26T06:41:29.000Z</time>
      </trkpt>
      <trkpt lat="42.69561" lon="1.18024">
        <ele>2520</ele>
        <time>2023-07-26T06:41:41.000Z</time>
      </trkpt>
      <trkpt lat="42.69558" lon="1.18021">
        <ele>2521</ele>
        <time>2023-07-26T06:41:46.000Z</time>
      </trkpt>
      <trkpt lat="42.69556" lon="1.18018">
        <ele>2521.6000976562</ele>
        <time>2023-07-26T06:41:49.000Z</time>
      </trkpt>
      <trkpt lat="42.69554" lon="1.18016">
        <ele>2522.1999511719</ele>
        <time>2023-07-26T06:41:54.000Z</time>
      </trkpt>
      <trkpt lat="42.69553" lon="1.18016">
        <ele>2522.8000488281</ele>
        <time>2023-07-26T06:41:57.000Z</time>
      </trkpt>
      <trkpt lat="42.69553" lon="1.18017">
        <ele>2523.1999511719</ele>
        <time>2023-07-26T06:42:00.000Z</time>
      </trkpt>
      <trkpt lat="42.69552" lon="1.18017">
        <ele>2524.1999511719</ele>
        <time>2023-07-26T06:42:05.000Z</time>
      </trkpt>
      <trkpt lat="42.69551" lon="1.18016">
        <ele>2524.3999023438</ele>
        <time>2023-07-26T06:42:07.000Z</time>
      </trkpt>
      <trkpt lat="42.69549" lon="1.18009">
        <ele>2525.3999023438</ele>
        <time>2023-07-26T06:42:14.000Z</time>
      </trkpt>
      <trkpt lat="42.69548" lon="1.18007">
        <ele>2525.8000488281</ele>
        <time>2023-07-26T06:42:16.000Z</time>
      </trkpt>
      <trkpt lat="42.69546" lon="1.18006">
        <ele>2526.6000976562</ele>
        <time>2023-07-26T06:42:22.000Z</time>
      </trkpt>
      <trkpt lat="42.69546" lon="1.18005">
        <ele>2527</ele>
        <time>2023-07-26T06:42:25.000Z</time>
      </trkpt>
      <trkpt lat="42.69544" lon="1.18003">
        <ele>2527.6000976562</ele>
        <time>2023-07-26T06:42:29.000Z</time>
      </trkpt>
      <trkpt lat="42.69544" lon="1.18002">
        <ele>2528.1999511719</ele>
        <time>2023-07-26T06:42:33.000Z</time>
      </trkpt>
      <trkpt lat="42.69541" lon="1.18001">
        <ele>2528.8000488281</ele>
        <time>2023-07-26T06:42:38.000Z</time>
      </trkpt>
      <trkpt lat="42.69539" lon="1.18001">
        <ele>2529.6000976562</ele>
        <time>2023-07-26T06:42:43.000Z</time>
      </trkpt>
      <trkpt lat="42.69537" lon="1.18001">
        <ele>2530</ele>
        <time>2023-07-26T06:42:46.000Z</time>
      </trkpt>
      <trkpt lat="42.69533" lon="1.18">
        <ele>2530.8000488281</ele>
        <time>2023-07-26T06:42:51.000Z</time>
      </trkpt>
      <trkpt lat="42.69533" lon="1.18">
        <ele>2531.1999511719</ele>
        <time>2023-07-26T06:42:52.000Z</time>
      </trkpt>
      <trkpt lat="42.69525" lon="1.18003">
        <ele>2531.8000488281</ele>
        <time>2023-07-26T06:43:00.000Z</time>
      </trkpt>
      <trkpt lat="42.69522" lon="1.18007">
        <ele>2532.1999511719</ele>
        <time>2023-07-26T06:43:05.000Z</time>
      </trkpt>
      <trkpt lat="42.69521" lon="1.18008">
        <ele>2532.3999023438</ele>
        <time>2023-07-26T06:43:07.000Z</time>
      </trkpt>
      <trkpt lat="42.69516" lon="1.18012">
        <ele>2533.1999511719</ele>
        <time>2023-07-26T06:43:13.000Z</time>
      </trkpt>
      <trkpt lat="42.69511" lon="1.18009">
        <ele>2534.3999023438</ele>
        <time>2023-07-26T06:43:21.000Z</time>
      </trkpt>
      <trkpt lat="42.69507" lon="1.18008">
        <ele>2535.3999023438</ele>
        <time>2023-07-26T06:43:26.000Z</time>
      </trkpt>
      <trkpt lat="42.69504" lon="1.18006">
        <ele>2536</ele>
        <time>2023-07-26T06:43:30.000Z</time>
      </trkpt>
      <trkpt lat="42.695" lon="1.18003">
        <ele>2536.3999023438</ele>
        <time>2023-07-26T06:43:38.000Z</time>
      </trkpt>
      <trkpt lat="42.69494" lon="1.17999">
        <ele>2537.1999511719</ele>
        <time>2023-07-26T06:43:46.000Z</time>
      </trkpt>
      <trkpt lat="42.69489" lon="1.17999">
        <ele>2537.6000976562</ele>
        <time>2023-07-26T06:43:51.000Z</time>
      </trkpt>
      <trkpt lat="42.69485" lon="1.18">
        <ele>2537.8000488281</ele>
        <time>2023-07-26T06:43:55.000Z</time>
      </trkpt>
      <trkpt lat="42.69482" lon="1.18">
        <ele>2538.6000976562</ele>
        <time>2023-07-26T06:44:00.000Z</time>
      </trkpt>
      <trkpt lat="42.69481" lon="1.17999">
        <ele>2538.8000488281</ele>
        <time>2023-07-26T06:44:03.000Z</time>
      </trkpt>
      <trkpt lat="42.6948" lon="1.18">
        <ele>2539.8000488281</ele>
        <time>2023-07-26T06:44:08.000Z</time>
      </trkpt>
      <trkpt lat="42.69478" lon="1.18004">
        <ele>2540.3999023438</ele>
        <time>2023-07-26T06:44:12.000Z</time>
      </trkpt>
      <trkpt lat="42.69474" lon="1.18008">
        <ele>2540.8000488281</ele>
        <time>2023-07-26T06:44:18.000Z</time>
      </trkpt>
      <trkpt lat="42.69474" lon="1.1801">
        <ele>2541</ele>
        <time>2023-07-26T06:44:20.000Z</time>
      </trkpt>
      <trkpt lat="42.69472" lon="1.18017">
        <ele>2541.3999023438</ele>
        <time>2023-07-26T06:44:28.000Z</time>
      </trkpt>
      <trkpt lat="42.69468" lon="1.18023">
        <ele>2541.8000488281</ele>
        <time>2023-07-26T06:44:35.000Z</time>
      </trkpt>
      <trkpt lat="42.69466" lon="1.18024">
        <ele>2541.8000488281</ele>
        <time>2023-07-26T06:44:37.000Z</time>
      </trkpt>
      <trkpt lat="42.69463" lon="1.18026">
        <ele>2542.3999023438</ele>
        <time>2023-07-26T06:44:42.000Z</time>
      </trkpt>
      <trkpt lat="42.6946" lon="1.18033">
        <ele>2543.1999511719</ele>
        <time>2023-07-26T06:44:49.000Z</time>
      </trkpt>
      <trkpt lat="42.69459" lon="1.18034">
        <ele>2543.3999023438</ele>
        <time>2023-07-26T06:44:50.000Z</time>
      </trkpt>
      <trkpt lat="42.69456" lon="1.18037">
        <ele>2544.3999023438</ele>
        <time>2023-07-26T06:44:55.000Z</time>
      </trkpt>
      <trkpt lat="42.69456" lon="1.18037">
        <ele>2544.3999023438</ele>
        <time>2023-07-26T06:44:56.000Z</time>
      </trkpt>
      <trkpt lat="42.6945" lon="1.18035">
        <ele>2543.8000488281</ele>
        <time>2023-07-26T06:45:04.000Z</time>
      </trkpt>
      <trkpt lat="42.69448" lon="1.18033">
        <ele>2543.3999023438</ele>
        <time>2023-07-26T06:45:09.000Z</time>
      </trkpt>
      <trkpt lat="42.69446" lon="1.18032">
        <ele>2543.3999023438</ele>
        <time>2023-07-26T06:45:11.000Z</time>
      </trkpt>
      <trkpt lat="42.69446" lon="1.18031">
        <ele>2543.1999511719</ele>
        <time>2023-07-26T06:45:14.000Z</time>
      </trkpt>
      <trkpt lat="42.69446" lon="1.1803">
        <ele>2543.1999511719</ele>
        <time>2023-07-26T06:45:17.000Z</time>
      </trkpt>
      <trkpt lat="42.69445" lon="1.18031">
        <ele>2542.8000488281</ele>
        <time>2023-07-26T06:45:22.000Z</time>
      </trkpt>
      <trkpt lat="42.69445" lon="1.1803">
        <ele>2542.3999023438</ele>
        <time>2023-07-26T06:45:24.000Z</time>
      </trkpt>
      <trkpt lat="42.69443" lon="1.18029">
        <ele>2541.1999511719</ele>
        <time>2023-07-26T06:45:27.000Z</time>
      </trkpt>
      <trkpt lat="42.69443" lon="1.18029">
        <ele>2540.1999511719</ele>
        <time>2023-07-26T06:45:28.000Z</time>
      </trkpt>
      <trkpt lat="42.69442" lon="1.18029">
        <ele>2539.6000976562</ele>
        <time>2023-07-26T06:45:32.000Z</time>
      </trkpt>
      <trkpt lat="42.6944" lon="1.18032">
        <ele>2539.1999511719</ele>
        <time>2023-07-26T06:45:39.000Z</time>
      </trkpt>
      <trkpt lat="42.6944" lon="1.18033">
        <ele>2539.1999511719</ele>
        <time>2023-07-26T06:45:40.000Z</time>
      </trkpt>
      <trkpt lat="42.69437" lon="1.18036">
        <ele>2538.1999511719</ele>
        <time>2023-07-26T06:45:46.000Z</time>
      </trkpt>
      <trkpt lat="42.69437" lon="1.18036">
        <ele>2538</ele>
        <time>2023-07-26T06:45:47.000Z</time>
      </trkpt>
      <trkpt lat="42.69433" lon="1.18038">
        <ele>2537.1999511719</ele>
        <time>2023-07-26T06:45:53.000Z</time>
      </trkpt>
      <trkpt lat="42.69433" lon="1.1804">
        <ele>2537</ele>
        <time>2023-07-26T06:45:58.000Z</time>
      </trkpt>
      <trkpt lat="42.69434" lon="1.18042">
        <ele>2537</ele>
        <time>2023-07-26T06:46:02.000Z</time>
      </trkpt>
      <trkpt lat="42.69432" lon="1.18042">
        <ele>2537</ele>
        <time>2023-07-26T06:46:10.000Z</time>
      </trkpt>
      <trkpt lat="42.69431" lon="1.18041">
        <ele>2536</ele>
        <time>2023-07-26T06:46:15.000Z</time>
      </trkpt>
      <trkpt lat="42.69431" lon="1.1804">
        <ele>2535.8000488281</ele>
        <time>2023-07-26T06:46:19.000Z</time>
      </trkpt>
      <trkpt lat="42.69429" lon="1.18043">
        <ele>2536.3999023438</ele>
        <time>2023-07-26T06:46:27.000Z</time>
      </trkpt>
      <trkpt lat="42.69427" lon="1.18045">
        <ele>2537</ele>
        <time>2023-07-26T06:46:31.000Z</time>
      </trkpt>
      <trkpt lat="42.69427" lon="1.18045">
        <ele>2537.1999511719</ele>
        <time>2023-07-26T06:46:33.000Z</time>
      </trkpt>
      <trkpt lat="42.69426" lon="1.18047">
        <ele>2537.6000976562</ele>
        <time>2023-07-26T06:46:42.000Z</time>
      </trkpt>
      <trkpt lat="42.69426" lon="1.1805">
        <ele>2538.1999511719</ele>
        <time>2023-07-26T06:46:45.000Z</time>
      </trkpt>
      <trkpt lat="42.69425" lon="1.18055">
        <ele>2538.6000976562</ele>
        <time>2023-07-26T06:46:48.000Z</time>
      </trkpt>
      <trkpt lat="42.69422" lon="1.1806">
        <ele>2539.1999511719</ele>
        <time>2023-07-26T06:46:54.000Z</time>
      </trkpt>
      <trkpt lat="42.69421" lon="1.18062">
        <ele>2539.1999511719</ele>
        <time>2023-07-26T06:46:56.000Z</time>
      </trkpt>
      <trkpt lat="42.69419" lon="1.18063">
        <ele>2540.1999511719</ele>
        <time>2023-07-26T06:47:00.000Z</time>
      </trkpt>
      <trkpt lat="42.69416" lon="1.18065">
        <ele>2540.6000976562</ele>
        <time>2023-07-26T06:47:03.000Z</time>
      </trkpt>
      <trkpt lat="42.69413" lon="1.18065">
        <ele>2541.1999511719</ele>
        <time>2023-07-26T06:47:09.000Z</time>
      </trkpt>
      <trkpt lat="42.69412" lon="1.18065">
        <ele>2541.3999023438</ele>
        <time>2023-07-26T06:47:10.000Z</time>
      </trkpt>
      <trkpt lat="42.69412" lon="1.18067">
        <ele>2541.6000976562</ele>
        <time>2023-07-26T06:47:16.000Z</time>
      </trkpt>
      <trkpt lat="42.69409" lon="1.18071">
        <ele>2542.3999023438</ele>
        <time>2023-07-26T06:47:24.000Z</time>
      </trkpt>
      <trkpt lat="42.69408" lon="1.18073">
        <ele>2542.6000976562</ele>
        <time>2023-07-26T06:47:29.000Z</time>
      </trkpt>
      <trkpt lat="42.69407" lon="1.18074">
        <ele>2542.8000488281</ele>
        <time>2023-07-26T06:47:30.000Z</time>
      </trkpt>
      <trkpt lat="42.69405" lon="1.18079">
        <ele>2543.8000488281</ele>
        <time>2023-07-26T06:47:38.000Z</time>
      </trkpt>
      <trkpt lat="42.69404" lon="1.1808">
        <ele>2544</ele>
        <time>2023-07-26T06:47:39.000Z</time>
      </trkpt>
      <trkpt lat="42.69404" lon="1.18082">
        <ele>2544.8000488281</ele>
        <time>2023-07-26T06:47:43.000Z</time>
      </trkpt>
      <trkpt lat="42.69404" lon="1.18083">
        <ele>2545.6000976562</ele>
        <time>2023-07-26T06:47:48.000Z</time>
      </trkpt>
      <trkpt lat="42.69405" lon="1.18086">
        <ele>2545.3999023438</ele>
        <time>2023-07-26T06:47:58.000Z</time>
      </trkpt>
      <trkpt lat="42.69404" lon="1.18082">
        <ele>2545.6000976562</ele>
        <time>2023-07-26T06:48:07.000Z</time>
      </trkpt>
      <trkpt lat="42.69403" lon="1.18084">
        <ele>2545.6000976562</ele>
        <time>2023-07-26T06:48:13.000Z</time>
      </trkpt>
      <trkpt lat="42.69404" lon="1.18083">
        <ele>2544.6000976562</ele>
        <time>2023-07-26T06:48:21.000Z</time>
      </trkpt>
      <trkpt lat="42.69407" lon="1.18079">
        <ele>2543.6000976562</ele>
        <time>2023-07-26T06:48:26.000Z</time>
      </trkpt>
      <trkpt lat="42.69408" lon="1.18077">
        <ele>2542.8000488281</ele>
        <time>2023-07-26T06:48:29.000Z</time>
      </trkpt>
      <trkpt lat="42.69408" lon="1.18076">
        <ele>2542.6000976562</ele>
        <time>2023-07-26T06:48:30.000Z</time>
      </trkpt>
      <trkpt lat="42.6941" lon="1.1807">
        <ele>2541.3999023438</ele>
        <time>2023-07-26T06:48:37.000Z</time>
      </trkpt>
      <trkpt lat="42.69411" lon="1.1807">
        <ele>2541.1999511719</ele>
        <time>2023-07-26T06:48:38.000Z</time>
      </trkpt>
      <trkpt lat="42.69413" lon="1.18067">
        <ele>2540.1999511719</ele>
        <time>2023-07-26T06:48:42.000Z</time>
      </trkpt>
      <trkpt lat="42.69414" lon="1.18066">
        <ele>2539.1999511719</ele>
        <time>2023-07-26T06:48:47.000Z</time>
      </trkpt>
      <trkpt lat="42.69414" lon="1.18066">
        <ele>2538.8000488281</ele>
        <time>2023-07-26T06:48:48.000Z</time>
      </trkpt>
      <trkpt lat="42.69418" lon="1.18063">
        <ele>2538.1999511719</ele>
        <time>2023-07-26T06:48:54.000Z</time>
      </trkpt>
      <trkpt lat="42.6942" lon="1.18061">
        <ele>2537.8000488281</ele>
        <time>2023-07-26T06:48:56.000Z</time>
      </trkpt>
      <trkpt lat="42.69423" lon="1.18059">
        <ele>2537.6000976562</ele>
        <time>2023-07-26T06:49:02.000Z</time>
      </trkpt>
      <trkpt lat="42.69426" lon="1.18055">
        <ele>2537.1999511719</ele>
        <time>2023-07-26T06:49:08.000Z</time>
      </trkpt>
      <trkpt lat="42.69429" lon="1.18048">
        <ele>2536.3999023438</ele>
        <time>2023-07-26T06:49:14.000Z</time>
      </trkpt>
      <trkpt lat="42.69429" lon="1.18047">
        <ele>2536</ele>
        <time>2023-07-26T06:49:16.000Z</time>
      </trkpt>
      <trkpt lat="42.69429" lon="1.18044">
        <ele>2535.8000488281</ele>
        <time>2023-07-26T06:49:21.000Z</time>
      </trkpt>
      <trkpt lat="42.69429" lon="1.18047">
        <ele>2535.1999511719</ele>
        <time>2023-07-26T06:49:31.000Z</time>
      </trkpt>
      <trkpt lat="42.69426" lon="1.18043">
        <ele>2535.6000976562</ele>
        <time>2023-07-26T06:49:38.000Z</time>
      </trkpt>
      <trkpt lat="42.69427" lon="1.18038">
        <ele>2535.6000976562</ele>
        <time>2023-07-26T06:49:44.000Z</time>
      </trkpt>
      <trkpt lat="42.69435" lon="1.18036">
        <ele>2535.6000976562</ele>
        <time>2023-07-26T06:49:53.000Z</time>
      </trkpt>
      <trkpt lat="42.69439" lon="1.1804">
        <ele>2536.6000976562</ele>
        <time>2023-07-26T06:50:00.000Z</time>
      </trkpt>
      <trkpt lat="42.6944" lon="1.18037">
        <ele>2537.1999511719</ele>
        <time>2023-07-26T06:50:06.000Z</time>
      </trkpt>
      <trkpt lat="42.69442" lon="1.18035">
        <ele>2537.6000976562</ele>
        <time>2023-07-26T06:50:08.000Z</time>
      </trkpt>
      <trkpt lat="42.69443" lon="1.18031">
        <ele>2538.3999023438</ele>
        <time>2023-07-26T06:50:13.000Z</time>
      </trkpt>
      <trkpt lat="42.69443" lon="1.1803">
        <ele>2539.1999511719</ele>
        <time>2023-07-26T06:50:17.000Z</time>
      </trkpt>
      <trkpt lat="42.69442" lon="1.18032">
        <ele>2539.3999023438</ele>
        <time>2023-07-26T06:50:23.000Z</time>
      </trkpt>
      <trkpt lat="42.69442" lon="1.18033">
        <ele>2539.6000976562</ele>
        <time>2023-07-26T06:50:24.000Z</time>
      </trkpt>
      <trkpt lat="42.69445" lon="1.18031">
        <ele>2540.6000976562</ele>
        <time>2023-07-26T06:50:29.000Z</time>
      </trkpt>
      <trkpt lat="42.69445" lon="1.18031">
        <ele>2540.8000488281</ele>
        <time>2023-07-26T06:50:30.000Z</time>
      </trkpt>
      <trkpt lat="42.69448" lon="1.18029">
        <ele>2541.6000976562</ele>
        <time>2023-07-26T06:50:34.000Z</time>
      </trkpt>
      <trkpt lat="42.69449" lon="1.18028">
        <ele>2542.1999511719</ele>
        <time>2023-07-26T06:50:38.000Z</time>
      </trkpt>
      <trkpt lat="42.69451" lon="1.1803">
        <ele>2542.3999023438</ele>
        <time>2023-07-26T06:50:48.000Z</time>
      </trkpt>
      <trkpt lat="42.69461" lon="1.18029">
        <ele>2543</ele>
        <time>2023-07-26T06:50:59.000Z</time>
      </trkpt>
      <trkpt lat="42.69461" lon="1.18031">
        <ele>2542.6000976562</ele>
        <time>2023-07-26T06:51:04.000Z</time>
      </trkpt>
      <trkpt lat="42.69458" lon="1.18025">
        <ele>2542.3999023438</ele>
        <time>2023-07-26T06:51:10.000Z</time>
      </trkpt>
      <trkpt lat="42.69459" lon="1.18029">
        <ele>2542</ele>
        <time>2023-07-26T06:51:22.000Z</time>
      </trkpt>
      <trkpt lat="42.69459" lon="1.1803">
        <ele>2542</ele>
        <time>2023-07-26T06:51:29.000Z</time>
      </trkpt>
      <trkpt lat="42.69461" lon="1.18026">
        <ele>2542</ele>
        <time>2023-07-26T06:51:42.000Z</time>
      </trkpt>
      <trkpt lat="42.69461" lon="1.18026">
        <ele>2542</ele>
        <time>2023-07-26T06:51:53.000Z</time>
      </trkpt>
      <trkpt lat="42.69466" lon="1.18024">
        <ele>2541.6000976562</ele>
        <time>2023-07-26T06:51:59.000Z</time>
      </trkpt>
      <trkpt lat="42.69467" lon="1.18018">
        <ele>2541</ele>
        <time>2023-07-26T06:52:07.000Z</time>
      </trkpt>
      <trkpt lat="42.69466" lon="1.1801">
        <ele>2541</ele>
        <time>2023-07-26T06:52:14.000Z</time>
      </trkpt>
      <trkpt lat="42.69465" lon="1.18005">
        <ele>2541.3999023438</ele>
        <time>2023-07-26T06:52:20.000Z</time>
      </trkpt>
      <trkpt lat="42.69467" lon="1.18002">
        <ele>2542.3999023438</ele>
        <time>2023-07-26T06:52:28.000Z</time>
      </trkpt>
      <trkpt lat="42.69468" lon="1.18002">
        <ele>2542.3999023438</ele>
        <time>2023-07-26T06:52:29.000Z</time>
      </trkpt>
      <trkpt lat="42.6947" lon="1.17997">
        <ele>2542.1999511719</ele>
        <time>2023-07-26T06:52:33.000Z</time>
      </trkpt>
      <trkpt lat="42.69468" lon="1.17995">
        <ele>2542.1999511719</ele>
        <time>2023-07-26T06:52:37.000Z</time>
      </trkpt>
      <trkpt lat="42.69467" lon="1.17993">
        <ele>2542</ele>
        <time>2023-07-26T06:52:39.000Z</time>
      </trkpt>
      <trkpt lat="42.69466" lon="1.17988">
        <ele>2541.8000488281</ele>
        <time>2023-07-26T06:52:48.000Z</time>
      </trkpt>
      <trkpt lat="42.6947" lon="1.17989">
        <ele>2541.6000976562</ele>
        <time>2023-07-26T06:52:56.000Z</time>
      </trkpt>
      <trkpt lat="42.69469" lon="1.17986">
        <ele>2542</ele>
        <time>2023-07-26T06:53:05.000Z</time>
      </trkpt>
      <trkpt lat="42.69462" lon="1.1798">
        <ele>2542</ele>
        <time>2023-07-26T06:53:18.000Z</time>
      </trkpt>
      <trkpt lat="42.6946" lon="1.17975">
        <ele>2542.6000976562</ele>
        <time>2023-07-26T06:53:25.000Z</time>
      </trkpt>
      <trkpt lat="42.69459" lon="1.17974">
        <ele>2542.8000488281</ele>
        <time>2023-07-26T06:53:26.000Z</time>
      </trkpt>
      <trkpt lat="42.69458" lon="1.17972">
        <ele>2543.8000488281</ele>
        <time>2023-07-26T06:53:31.000Z</time>
      </trkpt>
      <trkpt lat="42.69458" lon="1.17973">
        <ele>2544.3999023438</ele>
        <time>2023-07-26T06:53:35.000Z</time>
      </trkpt>
      <trkpt lat="42.69458" lon="1.17974">
        <ele>2544.6000976562</ele>
        <time>2023-07-26T06:53:36.000Z</time>
      </trkpt>
      <trkpt lat="42.69458" lon="1.17975">
        <ele>2545</ele>
        <time>2023-07-26T06:53:38.000Z</time>
      </trkpt>
      <trkpt lat="42.69459" lon="1.17978">
        <ele>2545.8000488281</ele>
        <time>2023-07-26T06:53:43.000Z</time>
      </trkpt>
      <trkpt lat="42.69459" lon="1.17982">
        <ele>2546.1999511719</ele>
        <time>2023-07-26T06:53:46.000Z</time>
      </trkpt>
      <trkpt lat="42.69459" lon="1.17984">
        <ele>2546.1999511719</ele>
        <time>2023-07-26T06:53:48.000Z</time>
      </trkpt>
      <trkpt lat="42.69459" lon="1.17987">
        <ele>2547.1999511719</ele>
        <time>2023-07-26T06:53:52.000Z</time>
      </trkpt>
      <trkpt lat="42.69459" lon="1.17987">
        <ele>2547.8000488281</ele>
        <time>2023-07-26T06:53:54.000Z</time>
      </trkpt>
      <trkpt lat="42.69457" lon="1.17985">
        <ele>2548</ele>
        <time>2023-07-26T06:54:01.000Z</time>
      </trkpt>
      <trkpt lat="42.69456" lon="1.17985">
        <ele>2548.3999023438</ele>
        <time>2023-07-26T06:54:02.000Z</time>
      </trkpt>
      <trkpt lat="42.69453" lon="1.17982">
        <ele>2549.3999023438</ele>
        <time>2023-07-26T06:54:09.000Z</time>
      </trkpt>
      <trkpt lat="42.69452" lon="1.17982">
        <ele>2549.8000488281</ele>
        <time>2023-07-26T06:54:11.000Z</time>
      </trkpt>
      <trkpt lat="42.6945" lon="1.17978">
        <ele>2550.3999023438</ele>
        <time>2023-07-26T06:54:20.000Z</time>
      </trkpt>
      <trkpt lat="42.69448" lon="1.17975">
        <ele>2551.3999023438</ele>
        <time>2023-07-26T06:54:27.000Z</time>
      </trkpt>
      <trkpt lat="42.69448" lon="1.17975">
        <ele>2551.6000976562</ele>
        <time>2023-07-26T06:54:28.000Z</time>
      </trkpt>
      <trkpt lat="42.69447" lon="1.17974">
        <ele>2552.6000976562</ele>
        <time>2023-07-26T06:54:33.000Z</time>
      </trkpt>
      <trkpt lat="42.69448" lon="1.17971">
        <ele>2553.6000976562</ele>
        <time>2023-07-26T06:54:41.000Z</time>
      </trkpt>
      <trkpt lat="42.69448" lon="1.17972">
        <ele>2553.8000488281</ele>
        <time>2023-07-26T06:54:42.000Z</time>
      </trkpt>
      <trkpt lat="42.69449" lon="1.17976">
        <ele>2554</ele>
        <time>2023-07-26T06:54:49.000Z</time>
      </trkpt>
      <trkpt lat="42.69448" lon="1.17976">
        <ele>2554</ele>
        <time>2023-07-26T06:54:58.000Z</time>
      </trkpt>
      <trkpt lat="42.69446" lon="1.17978">
        <ele>2554.8000488281</ele>
        <time>2023-07-26T06:55:05.000Z</time>
      </trkpt>
      <trkpt lat="42.69445" lon="1.17978">
        <ele>2555.1999511719</ele>
        <time>2023-07-26T06:55:07.000Z</time>
      </trkpt>
      <trkpt lat="42.69443" lon="1.17976">
        <ele>2555.8000488281</ele>
        <time>2023-07-26T06:55:10.000Z</time>
      </trkpt>
      <trkpt lat="42.69443" lon="1.17973">
        <ele>2556.3999023438</ele>
        <time>2023-07-26T06:55:14.000Z</time>
      </trkpt>
      <trkpt lat="42.69443" lon="1.17972">
        <ele>2557</ele>
        <time>2023-07-26T06:55:16.000Z</time>
      </trkpt>
      <trkpt lat="42.69443" lon="1.1797">
        <ele>2558</ele>
        <time>2023-07-26T06:55:22.000Z</time>
      </trkpt>
      <trkpt lat="42.69443" lon="1.1797">
        <ele>2558.1999511719</ele>
        <time>2023-07-26T06:55:23.000Z</time>
      </trkpt>
      <trkpt lat="42.69437" lon="1.17967">
        <ele>2559.1999511719</ele>
        <time>2023-07-26T06:55:29.000Z</time>
      </trkpt>
      <trkpt lat="42.69432" lon="1.17965">
        <ele>2559.8000488281</ele>
        <time>2023-07-26T06:55:38.000Z</time>
      </trkpt>
      <trkpt lat="42.69425" lon="1.1796">
        <ele>2560.1999511719</ele>
        <time>2023-07-26T06:55:46.000Z</time>
      </trkpt>
      <trkpt lat="42.69422" lon="1.17959">
        <ele>2561.6000976562</ele>
        <time>2023-07-26T06:55:53.000Z</time>
      </trkpt>
      <trkpt lat="42.69421" lon="1.17959">
        <ele>2562.1999511719</ele>
        <time>2023-07-26T06:55:56.000Z</time>
      </trkpt>
      <trkpt lat="42.69421" lon="1.17958">
        <ele>2562.8000488281</ele>
        <time>2023-07-26T06:55:59.000Z</time>
      </trkpt>
      <trkpt lat="42.69422" lon="1.17957">
        <ele>2563.6000976562</ele>
        <time>2023-07-26T06:56:02.000Z</time>
      </trkpt>
      <trkpt lat="42.69422" lon="1.17957">
        <ele>2563.8000488281</ele>
        <time>2023-07-26T06:56:03.000Z</time>
      </trkpt>
      <trkpt lat="42.69423" lon="1.17957">
        <ele>2563.8000488281</ele>
        <time>2023-07-26T06:56:04.000Z</time>
      </trkpt>
      <trkpt lat="42.69426" lon="1.17955">
        <ele>2564.3999023438</ele>
        <time>2023-07-26T06:56:11.000Z</time>
      </trkpt>
      <trkpt lat="42.69425" lon="1.17953">
        <ele>2565.1999511719</ele>
        <time>2023-07-26T06:56:16.000Z</time>
      </trkpt>
      <trkpt lat="42.69422" lon="1.17951">
        <ele>2566</ele>
        <time>2023-07-26T06:56:20.000Z</time>
      </trkpt>
      <trkpt lat="42.69422" lon="1.17951">
        <ele>2566.1999511719</ele>
        <time>2023-07-26T06:56:21.000Z</time>
      </trkpt>
      <trkpt lat="42.6942" lon="1.17951">
        <ele>2567.3999023438</ele>
        <time>2023-07-26T06:56:25.000Z</time>
      </trkpt>
      <trkpt lat="42.69419" lon="1.17953">
        <ele>2568</ele>
        <time>2023-07-26T06:56:28.000Z</time>
      </trkpt>
      <trkpt lat="42.69419" lon="1.17954">
        <ele>2568.3999023438</ele>
        <time>2023-07-26T06:56:30.000Z</time>
      </trkpt>
      <trkpt lat="42.69419" lon="1.17954">
        <ele>2568.6000976562</ele>
        <time>2023-07-26T06:56:31.000Z</time>
      </trkpt>
      <trkpt lat="42.69419" lon="1.17954">
        <ele>2569.1999511719</ele>
        <time>2023-07-26T06:56:34.000Z</time>
      </trkpt>
      <trkpt lat="42.69418" lon="1.17953">
        <ele>2569.6000976562</ele>
        <time>2023-07-26T06:56:36.000Z</time>
      </trkpt>
      <trkpt lat="42.69416" lon="1.17954">
        <ele>2570</ele>
        <time>2023-07-26T06:56:38.000Z</time>
      </trkpt>
      <trkpt lat="42.69414" lon="1.17955">
        <ele>2570.6000976562</ele>
        <time>2023-07-26T06:56:43.000Z</time>
      </trkpt>
      <trkpt lat="42.69413" lon="1.17953">
        <ele>2571.8000488281</ele>
        <time>2023-07-26T06:56:49.000Z</time>
      </trkpt>
      <trkpt lat="42.69413" lon="1.17953">
        <ele>2571.8000488281</ele>
        <time>2023-07-26T06:56:50.000Z</time>
      </trkpt>
      <trkpt lat="42.69416" lon="1.17946">
        <ele>2572.8000488281</ele>
        <time>2023-07-26T06:56:57.000Z</time>
      </trkpt>
      <trkpt lat="42.69417" lon="1.17945">
        <ele>2573</ele>
        <time>2023-07-26T06:56:58.000Z</time>
      </trkpt>
      <trkpt lat="42.69418" lon="1.17941">
        <ele>2574</ele>
        <time>2023-07-26T06:57:04.000Z</time>
      </trkpt>
      <trkpt lat="42.69418" lon="1.17939">
        <ele>2575</ele>
        <time>2023-07-26T06:57:07.000Z</time>
      </trkpt>
      <trkpt lat="42.69419" lon="1.17939">
        <ele>2575.1999511719</ele>
        <time>2023-07-26T06:57:08.000Z</time>
      </trkpt>
      <trkpt lat="42.69419" lon="1.17937">
        <ele>2576.1999511719</ele>
        <time>2023-07-26T06:57:13.000Z</time>
      </trkpt>
      <trkpt lat="42.6942" lon="1.17935">
        <ele>2576.8000488281</ele>
        <time>2023-07-26T06:57:16.000Z</time>
      </trkpt>
      <trkpt lat="42.69423" lon="1.17932">
        <ele>2577.3999023438</ele>
        <time>2023-07-26T06:57:20.000Z</time>
      </trkpt>
      <trkpt lat="42.69425" lon="1.17933">
        <ele>2578</ele>
        <time>2023-07-26T06:57:24.000Z</time>
      </trkpt>
      <trkpt lat="42.69425" lon="1.17932">
        <ele>2578.3999023438</ele>
        <time>2023-07-26T06:57:28.000Z</time>
      </trkpt>
      <trkpt lat="42.69425" lon="1.1793">
        <ele>2578.6000976562</ele>
        <time>2023-07-26T06:57:31.000Z</time>
      </trkpt>
      <trkpt lat="42.69426" lon="1.17928">
        <ele>2579.6000976562</ele>
        <time>2023-07-26T06:57:37.000Z</time>
      </trkpt>
      <trkpt lat="42.69425" lon="1.17927">
        <ele>2580</ele>
        <time>2023-07-26T06:57:40.000Z</time>
      </trkpt>
      <trkpt lat="42.69423" lon="1.17924">
        <ele>2580.6000976562</ele>
        <time>2023-07-26T06:57:45.000Z</time>
      </trkpt>
      <trkpt lat="42.69421" lon="1.17921">
        <ele>2581.3999023438</ele>
        <time>2023-07-26T06:57:49.000Z</time>
      </trkpt>
      <trkpt lat="42.69421" lon="1.17921">
        <ele>2581.8000488281</ele>
        <time>2023-07-26T06:57:51.000Z</time>
      </trkpt>
      <trkpt lat="42.69421" lon="1.17916">
        <ele>2582.8000488281</ele>
        <time>2023-07-26T06:57:55.000Z</time>
      </trkpt>
      <trkpt lat="42.69421" lon="1.17914">
        <ele>2583</ele>
        <time>2023-07-26T06:57:56.000Z</time>
      </trkpt>
      <trkpt lat="42.69422" lon="1.17912">
        <ele>2583.8000488281</ele>
        <time>2023-07-26T06:58:00.000Z</time>
      </trkpt>
      <trkpt lat="42.69422" lon="1.17912">
        <ele>2584.1999511719</ele>
        <time>2023-07-26T06:58:02.000Z</time>
      </trkpt>
      <trkpt lat="42.69421" lon="1.17914">
        <ele>2585.3999023438</ele>
        <time>2023-07-26T06:58:08.000Z</time>
      </trkpt>
      <trkpt lat="42.69419" lon="1.17912">
        <ele>2586</ele>
        <time>2023-07-26T06:58:16.000Z</time>
      </trkpt>
      <trkpt lat="42.69419" lon="1.17911">
        <ele>2586.3999023438</ele>
        <time>2023-07-26T06:58:21.000Z</time>
      </trkpt>
      <trkpt lat="42.69419" lon="1.17911">
        <ele>2586.6000976562</ele>
        <time>2023-07-26T06:58:23.000Z</time>
      </trkpt>
      <trkpt lat="42.6942" lon="1.1791">
        <ele>2587.3999023438</ele>
        <time>2023-07-26T06:58:28.000Z</time>
      </trkpt>
      <trkpt lat="42.6942" lon="1.17908">
        <ele>2587.6000976562</ele>
        <time>2023-07-26T06:58:33.000Z</time>
      </trkpt>
      <trkpt lat="42.69417" lon="1.17905">
        <ele>2588.3999023438</ele>
        <time>2023-07-26T06:58:39.000Z</time>
      </trkpt>
      <trkpt lat="42.69417" lon="1.17904">
        <ele>2588.8000488281</ele>
        <time>2023-07-26T06:58:40.000Z</time>
      </trkpt>
      <trkpt lat="42.69416" lon="1.179">
        <ele>2589.6000976562</ele>
        <time>2023-07-26T06:58:44.000Z</time>
      </trkpt>
      <trkpt lat="42.69417" lon="1.17896">
        <ele>2591</ele>
        <time>2023-07-26T06:58:49.000Z</time>
      </trkpt>
      <trkpt lat="42.69418" lon="1.17898">
        <ele>2592.1999511719</ele>
        <time>2023-07-26T06:58:52.000Z</time>
      </trkpt>
      <trkpt lat="42.6942" lon="1.17899">
        <ele>2592.6000976562</ele>
        <time>2023-07-26T06:58:56.000Z</time>
      </trkpt>
      <trkpt lat="42.69424" lon="1.17898">
        <ele>2593.8000488281</ele>
        <time>2023-07-26T06:59:02.000Z</time>
      </trkpt>
      <trkpt lat="42.69425" lon="1.17898">
        <ele>2594.8000488281</ele>
        <time>2023-07-26T06:59:04.000Z</time>
      </trkpt>
      <trkpt lat="42.69427" lon="1.17895">
        <ele>2595.3999023438</ele>
        <time>2023-07-26T06:59:11.000Z</time>
      </trkpt>
      <trkpt lat="42.69429" lon="1.17893">
        <ele>2595.3999023438</ele>
        <time>2023-07-26T06:59:18.000Z</time>
      </trkpt>
      <trkpt lat="42.69429" lon="1.1789">
        <ele>2595.8000488281</ele>
        <time>2023-07-26T06:59:21.000Z</time>
      </trkpt>
      <trkpt lat="42.6943" lon="1.17889">
        <ele>2596.6000976562</ele>
        <time>2023-07-26T06:59:25.000Z</time>
      </trkpt>
      <trkpt lat="42.69431" lon="1.1789">
        <ele>2597</ele>
        <time>2023-07-26T06:59:27.000Z</time>
      </trkpt>
      <trkpt lat="42.69434" lon="1.17891">
        <ele>2597.6000976562</ele>
        <time>2023-07-26T06:59:32.000Z</time>
      </trkpt>
      <trkpt lat="42.69434" lon="1.17889">
        <ele>2598</ele>
        <time>2023-07-26T06:59:34.000Z</time>
      </trkpt>
      <trkpt lat="42.69433" lon="1.17882">
        <ele>2598.6000976562</ele>
        <time>2023-07-26T06:59:39.000Z</time>
      </trkpt>
      <trkpt lat="42.69434" lon="1.17881">
        <ele>2599.1999511719</ele>
        <time>2023-07-26T06:59:45.000Z</time>
      </trkpt>
      <trkpt lat="42.69434" lon="1.17881">
        <ele>2599.6000976562</ele>
        <time>2023-07-26T06:59:47.000Z</time>
      </trkpt>
      <trkpt lat="42.69434" lon="1.1788">
        <ele>2600.1999511719</ele>
        <time>2023-07-26T06:59:50.000Z</time>
      </trkpt>
      <trkpt lat="42.69431" lon="1.17879">
        <ele>2600.6000976562</ele>
        <time>2023-07-26T06:59:56.000Z</time>
      </trkpt>
      <trkpt lat="42.69429" lon="1.17878">
        <ele>2601.1999511719</ele>
        <time>2023-07-26T07:00:00.000Z</time>
      </trkpt>
      <trkpt lat="42.69428" lon="1.17878">
        <ele>2601.6000976562</ele>
        <time>2023-07-26T07:00:04.000Z</time>
      </trkpt>
      <trkpt lat="42.69426" lon="1.17878">
        <ele>2602.1999511719</ele>
        <time>2023-07-26T07:00:11.000Z</time>
      </trkpt>
      <trkpt lat="42.69425" lon="1.17876">
        <ele>2603.3999023438</ele>
        <time>2023-07-26T07:00:16.000Z</time>
      </trkpt>
      <trkpt lat="42.69424" lon="1.17876">
        <ele>2604</ele>
        <time>2023-07-26T07:00:18.000Z</time>
      </trkpt>
      <trkpt lat="42.69423" lon="1.17875">
        <ele>2604.6000976562</ele>
        <time>2023-07-26T07:00:22.000Z</time>
      </trkpt>
      <trkpt lat="42.69421" lon="1.17873">
        <ele>2605.8000488281</ele>
        <time>2023-07-26T07:00:27.000Z</time>
      </trkpt>
      <trkpt lat="42.69417" lon="1.17869">
        <ele>2607</ele>
        <time>2023-07-26T07:00:33.000Z</time>
      </trkpt>
      <trkpt lat="42.69415" lon="1.17866">
        <ele>2608.3999023438</ele>
        <time>2023-07-26T07:00:36.000Z</time>
      </trkpt>
      <trkpt lat="42.69415" lon="1.17868">
        <ele>2609</ele>
        <time>2023-07-26T07:00:42.000Z</time>
      </trkpt>
      <trkpt lat="42.69416" lon="1.17869">
        <ele>2607.6000976562</ele>
        <time>2023-07-26T07:00:51.000Z</time>
      </trkpt>
      <trkpt lat="42.69416" lon="1.17865">
        <ele>2607.8000488281</ele>
        <time>2023-07-26T07:00:58.000Z</time>
      </trkpt>
      <trkpt lat="42.69415" lon="1.17864">
        <ele>2607.8000488281</ele>
        <time>2023-07-26T07:01:04.000Z</time>
      </trkpt>
      <trkpt lat="42.69417" lon="1.1787">
        <ele>2606.6000976562</ele>
        <time>2023-07-26T07:01:18.000Z</time>
      </trkpt>
      <trkpt lat="42.69417" lon="1.17871">
        <ele>2606.3999023438</ele>
        <time>2023-07-26T07:01:25.000Z</time>
      </trkpt>
      <trkpt lat="42.69416" lon="1.17863">
        <ele>2606.8000488281</ele>
        <time>2023-07-26T07:01:34.000Z</time>
      </trkpt>
      <trkpt lat="42.69415" lon="1.17861">
        <ele>2607.3999023438</ele>
        <time>2023-07-26T07:01:38.000Z</time>
      </trkpt>
      <trkpt lat="42.69414" lon="1.17861">
        <ele>2607.8000488281</ele>
        <time>2023-07-26T07:01:41.000Z</time>
      </trkpt>
      <trkpt lat="42.69413" lon="1.17862">
        <ele>2607.3999023438</ele>
        <time>2023-07-26T07:01:47.000Z</time>
      </trkpt>
      <trkpt lat="42.69414" lon="1.17863">
        <ele>2607.3999023438</ele>
        <time>2023-07-26T07:01:57.000Z</time>
      </trkpt>
      <trkpt lat="42.69414" lon="1.17862">
        <ele>2606.8000488281</ele>
        <time>2023-07-26T07:02:05.000Z</time>
      </trkpt>
      <trkpt lat="42.69419" lon="1.17859">
        <ele>2606.1999511719</ele>
        <time>2023-07-26T07:02:11.000Z</time>
      </trkpt>
      <trkpt lat="42.69419" lon="1.17858">
        <ele>2606</ele>
        <time>2023-07-26T07:02:12.000Z</time>
      </trkpt>
      <trkpt lat="42.69419" lon="1.17852">
        <ele>2605.1999511719</ele>
        <time>2023-07-26T07:02:18.000Z</time>
      </trkpt>
      <trkpt lat="42.69419" lon="1.17851">
        <ele>2604.6000976562</ele>
        <time>2023-07-26T07:02:19.000Z</time>
      </trkpt>
      <trkpt lat="42.69419" lon="1.17849">
        <ele>2603.6000976562</ele>
        <time>2023-07-26T07:02:21.000Z</time>
      </trkpt>
      <trkpt lat="42.69418" lon="1.17847">
        <ele>2602.3999023438</ele>
        <time>2023-07-26T07:02:24.000Z</time>
      </trkpt>
      <trkpt lat="42.69418" lon="1.17846">
        <ele>2601</ele>
        <time>2023-07-26T07:02:27.000Z</time>
      </trkpt>
      <trkpt lat="42.69417" lon="1.17845">
        <ele>2600</ele>
        <time>2023-07-26T07:02:31.000Z</time>
      </trkpt>
      <trkpt lat="42.69418" lon="1.17848">
        <ele>2599.3999023438</ele>
        <time>2023-07-26T07:02:36.000Z</time>
      </trkpt>
      <trkpt lat="42.69418" lon="1.17847">
        <ele>2598.8000488281</ele>
        <time>2023-07-26T07:02:41.000Z</time>
      </trkpt>
      <trkpt lat="42.69419" lon="1.17849">
        <ele>2598.8000488281</ele>
        <time>2023-07-26T07:02:45.000Z</time>
      </trkpt>
      <trkpt lat="42.69418" lon="1.17843">
        <ele>2599.6000976562</ele>
        <time>2023-07-26T07:02:52.000Z</time>
      </trkpt>
      <trkpt lat="42.69418" lon="1.1784">
        <ele>2598.3999023438</ele>
        <time>2023-07-26T07:02:59.000Z</time>
      </trkpt>
      <trkpt lat="42.69416" lon="1.17835">
        <ele>2597.6000976562</ele>
        <time>2023-07-26T07:03:03.000Z</time>
      </trkpt>
      <trkpt lat="42.69416" lon="1.17831">
        <ele>2597</ele>
        <time>2023-07-26T07:03:06.000Z</time>
      </trkpt>
      <trkpt lat="42.69415" lon="1.17828">
        <ele>2596.3999023438</ele>
        <time>2023-07-26T07:03:08.000Z</time>
      </trkpt>
      <trkpt lat="42.69414" lon="1.17822">
        <ele>2595.3999023438</ele>
        <time>2023-07-26T07:03:12.000Z</time>
      </trkpt>
      <trkpt lat="42.69413" lon="1.17821">
        <ele>2595</ele>
        <time>2023-07-26T07:03:14.000Z</time>
      </trkpt>
      <trkpt lat="42.6941" lon="1.17816">
        <ele>2594</ele>
        <time>2023-07-26T07:03:20.000Z</time>
      </trkpt>
      <trkpt lat="42.69408" lon="1.17812">
        <ele>2593</ele>
        <time>2023-07-26T07:03:23.000Z</time>
      </trkpt>
      <trkpt lat="42.69404" lon="1.17804">
        <ele>2592</ele>
        <time>2023-07-26T07:03:29.000Z</time>
      </trkpt>
      <trkpt lat="42.69403" lon="1.17802">
        <ele>2591.8000488281</ele>
        <time>2023-07-26T07:03:30.000Z</time>
      </trkpt>
      <trkpt lat="42.69402" lon="1.17797">
        <ele>2591.6000976562</ele>
        <time>2023-07-26T07:03:36.000Z</time>
      </trkpt>
      <trkpt lat="42.69401" lon="1.1779">
        <ele>2590.8000488281</ele>
        <time>2023-07-26T07:03:44.000Z</time>
      </trkpt>
      <trkpt lat="42.69401" lon="1.17788">
        <ele>2590.8000488281</ele>
        <time>2023-07-26T07:03:45.000Z</time>
      </trkpt>
      <trkpt lat="42.69402" lon="1.17783">
        <ele>2589.8000488281</ele>
        <time>2023-07-26T07:03:51.000Z</time>
      </trkpt>
      <trkpt lat="42.69403" lon="1.1778">
        <ele>2589.6000976562</ele>
        <time>2023-07-26T07:03:53.000Z</time>
      </trkpt>
      <trkpt lat="42.69403" lon="1.17773">
        <ele>2588.8000488281</ele>
        <time>2023-07-26T07:04:00.000Z</time>
      </trkpt>
      <trkpt lat="42.69403" lon="1.17772">
        <ele>2588.3999023438</ele>
        <time>2023-07-26T07:04:02.000Z</time>
      </trkpt>
      <trkpt lat="42.69403" lon="1.17769">
        <ele>2587.6000976562</ele>
        <time>2023-07-26T07:04:06.000Z</time>
      </trkpt>
      <trkpt lat="42.69402" lon="1.17768">
        <ele>2586.3999023438</ele>
        <time>2023-07-26T07:04:09.000Z</time>
      </trkpt>
      <trkpt lat="42.69402" lon="1.17767">
        <ele>2586.1999511719</ele>
        <time>2023-07-26T07:04:10.000Z</time>
      </trkpt>
      <trkpt lat="42.69402" lon="1.17766">
        <ele>2585.3999023438</ele>
        <time>2023-07-26T07:04:13.000Z</time>
      </trkpt>
      <trkpt lat="42.69402" lon="1.17764">
        <ele>2584.8000488281</ele>
        <time>2023-07-26T07:04:18.000Z</time>
      </trkpt>
      <trkpt lat="42.69405" lon="1.17766">
        <ele>2584.8000488281</ele>
        <time>2023-07-26T07:04:30.000Z</time>
      </trkpt>
      <trkpt lat="42.69403" lon="1.17762">
        <ele>2584.8000488281</ele>
        <time>2023-07-26T07:04:38.000Z</time>
      </trkpt>
      <trkpt lat="42.69401" lon="1.17756">
        <ele>2584.3999023438</ele>
        <time>2023-07-26T07:04:44.000Z</time>
      </trkpt>
      <trkpt lat="42.69401" lon="1.17754">
        <ele>2583.3999023438</ele>
        <time>2023-07-26T07:04:50.000Z</time>
      </trkpt>
      <trkpt lat="42.69401" lon="1.17755">
        <ele>2583.1999511719</ele>
        <time>2023-07-26T07:04:51.000Z</time>
      </trkpt>
      <trkpt lat="42.69404" lon="1.17751">
        <ele>2582</ele>
        <time>2023-07-26T07:04:56.000Z</time>
      </trkpt>
      <trkpt lat="42.69404" lon="1.17747">
        <ele>2581.3999023438</ele>
        <time>2023-07-26T07:04:59.000Z</time>
      </trkpt>
      <trkpt lat="42.69403" lon="1.17745">
        <ele>2580.8000488281</ele>
        <time>2023-07-26T07:05:01.000Z</time>
      </trkpt>
      <trkpt lat="42.69404" lon="1.17742">
        <ele>2579.8000488281</ele>
        <time>2023-07-26T07:05:05.000Z</time>
      </trkpt>
      <trkpt lat="42.69404" lon="1.17741">
        <ele>2579.3999023438</ele>
        <time>2023-07-26T07:05:06.000Z</time>
      </trkpt>
      <trkpt lat="42.69404" lon="1.17741">
        <ele>2578.8000488281</ele>
        <time>2023-07-26T07:05:11.000Z</time>
      </trkpt>
      <trkpt lat="42.69404" lon="1.17741">
        <ele>2578.6000976562</ele>
        <time>2023-07-26T07:05:12.000Z</time>
      </trkpt>
      <trkpt lat="42.69404" lon="1.17739">
        <ele>2578.6000976562</ele>
        <time>2023-07-26T07:05:14.000Z</time>
      </trkpt>
      <trkpt lat="42.69406" lon="1.17738">
        <ele>2577.6000976562</ele>
        <time>2023-07-26T07:05:20.000Z</time>
      </trkpt>
      <trkpt lat="42.69407" lon="1.17738">
        <ele>2576.3999023438</ele>
        <time>2023-07-26T07:05:22.000Z</time>
      </trkpt>
      <trkpt lat="42.69408" lon="1.17738">
        <ele>2576.3999023438</ele>
        <time>2023-07-26T07:05:23.000Z</time>
      </trkpt>
      <trkpt lat="42.69409" lon="1.17737">
        <ele>2576.8000488281</ele>
        <time>2023-07-26T07:05:30.000Z</time>
      </trkpt>
      <trkpt lat="42.69405" lon="1.17736">
        <ele>2577</ele>
        <time>2023-07-26T07:05:39.000Z</time>
      </trkpt>
      <trkpt lat="42.69403" lon="1.17739">
        <ele>2577.8000488281</ele>
        <time>2023-07-26T07:05:45.000Z</time>
      </trkpt>
      <trkpt lat="42.69403" lon="1.17739">
        <ele>2578.1999511719</ele>
        <time>2023-07-26T07:05:46.000Z</time>
      </trkpt>
      <trkpt lat="42.69404" lon="1.1774">
        <ele>2578.8000488281</ele>
        <time>2023-07-26T07:05:54.000Z</time>
      </trkpt>
      <trkpt lat="42.69405" lon="1.1774">
        <ele>2578.8000488281</ele>
        <time>2023-07-26T07:05:55.000Z</time>
      </trkpt>
      <trkpt lat="42.69407" lon="1.17734">
        <ele>2577.3999023438</ele>
        <time>2023-07-26T07:06:04.000Z</time>
      </trkpt>
      <trkpt lat="42.69407" lon="1.17733">
        <ele>2577.1999511719</ele>
        <time>2023-07-26T07:06:05.000Z</time>
      </trkpt>
      <trkpt lat="42.6941" lon="1.17734">
        <ele>2576.6000976562</ele>
        <time>2023-07-26T07:06:11.000Z</time>
      </trkpt>
      <trkpt lat="42.69413" lon="1.17731">
        <ele>2577.6000976562</ele>
        <time>2023-07-26T07:06:19.000Z</time>
      </trkpt>
      <trkpt lat="42.69416" lon="1.17727">
        <ele>2578.1999511719</ele>
        <time>2023-07-26T07:06:27.000Z</time>
      </trkpt>
      <trkpt lat="42.69416" lon="1.17725">
        <ele>2578.6000976562</ele>
        <time>2023-07-26T07:06:29.000Z</time>
      </trkpt>
      <trkpt lat="42.69414" lon="1.17727">
        <ele>2578.1999511719</ele>
        <time>2023-07-26T07:06:35.000Z</time>
      </trkpt>
      <trkpt lat="42.69417" lon="1.17731">
        <ele>2578.1999511719</ele>
        <time>2023-07-26T07:06:40.000Z</time>
      </trkpt>
      <trkpt lat="42.69417" lon="1.17731">
        <ele>2578.1999511719</ele>
        <time>2023-07-26T07:06:41.000Z</time>
      </trkpt>
      <trkpt lat="42.69419" lon="1.17729">
        <ele>2578.1999511719</ele>
        <time>2023-07-26T07:06:50.000Z</time>
      </trkpt>
      <trkpt lat="42.69422" lon="1.17732">
        <ele>2578.3999023438</ele>
        <time>2023-07-26T07:06:57.000Z</time>
      </trkpt>
      <trkpt lat="42.69412" lon="1.17731">
        <ele>2579</ele>
        <time>2023-07-26T07:07:05.000Z</time>
      </trkpt>
      <trkpt lat="42.69408" lon="1.17731">
        <ele>2578.1999511719</ele>
        <time>2023-07-26T07:07:12.000Z</time>
      </trkpt>
      <trkpt lat="42.69408" lon="1.17729">
        <ele>2577.6000976562</ele>
        <time>2023-07-26T07:07:15.000Z</time>
      </trkpt>
      <trkpt lat="42.69405" lon="1.17725">
        <ele>2577</ele>
        <time>2023-07-26T07:07:19.000Z</time>
      </trkpt>
      <trkpt lat="42.69406" lon="1.17725">
        <ele>2576.3999023438</ele>
        <time>2023-07-26T07:07:21.000Z</time>
      </trkpt>
      <trkpt lat="42.69407" lon="1.17724">
        <ele>2575.1999511719</ele>
        <time>2023-07-26T07:07:25.000Z</time>
      </trkpt>
      <trkpt lat="42.69407" lon="1.17723">
        <ele>2575</ele>
        <time>2023-07-26T07:07:26.000Z</time>
      </trkpt>
      <trkpt lat="42.69408" lon="1.17718">
        <ele>2574</ele>
        <time>2023-07-26T07:07:30.000Z</time>
      </trkpt>
      <trkpt lat="42.69408" lon="1.17715">
        <ele>2573.3999023438</ele>
        <time>2023-07-26T07:07:34.000Z</time>
      </trkpt>
      <trkpt lat="42.69407" lon="1.17713">
        <ele>2573</ele>
        <time>2023-07-26T07:07:36.000Z</time>
      </trkpt>
      <trkpt lat="42.69407" lon="1.17711">
        <ele>2571.8000488281</ele>
        <time>2023-07-26T07:07:40.000Z</time>
      </trkpt>
      <trkpt lat="42.69408" lon="1.17711">
        <ele>2571.3999023438</ele>
        <time>2023-07-26T07:07:42.000Z</time>
      </trkpt>
      <trkpt lat="42.69408" lon="1.1771">
        <ele>2570.8000488281</ele>
        <time>2023-07-26T07:07:44.000Z</time>
      </trkpt>
      <trkpt lat="42.69409" lon="1.17708">
        <ele>2569.8000488281</ele>
        <time>2023-07-26T07:07:50.000Z</time>
      </trkpt>
      <trkpt lat="42.6941" lon="1.17708">
        <ele>2569.8000488281</ele>
        <time>2023-07-26T07:07:51.000Z</time>
      </trkpt>
      <trkpt lat="42.69412" lon="1.17704">
        <ele>2568.3999023438</ele>
        <time>2023-07-26T07:07:58.000Z</time>
      </trkpt>
      <trkpt lat="42.69412" lon="1.17703">
        <ele>2568.1999511719</ele>
        <time>2023-07-26T07:07:59.000Z</time>
      </trkpt>
      <trkpt lat="42.69415" lon="1.17699">
        <ele>2567.1999511719</ele>
        <time>2023-07-26T07:08:05.000Z</time>
      </trkpt>
      <trkpt lat="42.69416" lon="1.17699">
        <ele>2567</ele>
        <time>2023-07-26T07:08:07.000Z</time>
      </trkpt>
      <trkpt lat="42.69417" lon="1.17698">
        <ele>2566.8000488281</ele>
        <time>2023-07-26T07:08:08.000Z</time>
      </trkpt>
      <trkpt lat="42.69418" lon="1.17696">
        <ele>2566.1999511719</ele>
        <time>2023-07-26T07:08:11.000Z</time>
      </trkpt>
      <trkpt lat="42.69418" lon="1.17695">
        <ele>2565.3999023438</ele>
        <time>2023-07-26T07:08:15.000Z</time>
      </trkpt>
      <trkpt lat="42.69418" lon="1.17694">
        <ele>2565.1999511719</ele>
        <time>2023-07-26T07:08:16.000Z</time>
      </trkpt>
      <trkpt lat="42.69416" lon="1.17694">
        <ele>2565</ele>
        <time>2023-07-26T07:08:26.000Z</time>
      </trkpt>
      <trkpt lat="42.69418" lon="1.17695">
        <ele>2565.1999511719</ele>
        <time>2023-07-26T07:08:35.000Z</time>
      </trkpt>
      <trkpt lat="42.69419" lon="1.17691">
        <ele>2565.6000976562</ele>
        <time>2023-07-26T07:08:42.000Z</time>
      </trkpt>
      <trkpt lat="42.69421" lon="1.17685">
        <ele>2564.3999023438</ele>
        <time>2023-07-26T07:08:49.000Z</time>
      </trkpt>
      <trkpt lat="42.69422" lon="1.17683">
        <ele>2564.1999511719</ele>
        <time>2023-07-26T07:08:51.000Z</time>
      </trkpt>
      <trkpt lat="42.69424" lon="1.17681">
        <ele>2563</ele>
        <time>2023-07-26T07:08:55.000Z</time>
      </trkpt>
      <trkpt lat="42.69426" lon="1.17683">
        <ele>2562.6000976562</ele>
        <time>2023-07-26T07:08:57.000Z</time>
      </trkpt>
      <trkpt lat="42.69427" lon="1.17685">
        <ele>2562.1999511719</ele>
        <time>2023-07-26T07:08:59.000Z</time>
      </trkpt>
      <trkpt lat="42.69427" lon="1.17685">
        <ele>2562</ele>
        <time>2023-07-26T07:09:00.000Z</time>
      </trkpt>
      <trkpt lat="42.69426" lon="1.17683">
        <ele>2561.3999023438</ele>
        <time>2023-07-26T07:09:04.000Z</time>
      </trkpt>
      <trkpt lat="42.69427" lon="1.17679">
        <ele>2560.8000488281</ele>
        <time>2023-07-26T07:09:09.000Z</time>
      </trkpt>
      <trkpt lat="42.69426" lon="1.17678">
        <ele>2560.3999023438</ele>
        <time>2023-07-26T07:09:12.000Z</time>
      </trkpt>
      <trkpt lat="42.69426" lon="1.17672">
        <ele>2559.8000488281</ele>
        <time>2023-07-26T07:09:18.000Z</time>
      </trkpt>
      <trkpt lat="42.69427" lon="1.17672">
        <ele>2558.8000488281</ele>
        <time>2023-07-26T07:09:23.000Z</time>
      </trkpt>
      <trkpt lat="42.69427" lon="1.17672">
        <ele>2558.1999511719</ele>
        <time>2023-07-26T07:09:25.000Z</time>
      </trkpt>
      <trkpt lat="42.69428" lon="1.1767">
        <ele>2557.6000976562</ele>
        <time>2023-07-26T07:09:27.000Z</time>
      </trkpt>
      <trkpt lat="42.69428" lon="1.17666">
        <ele>2556.6000976562</ele>
        <time>2023-07-26T07:09:31.000Z</time>
      </trkpt>
      <trkpt lat="42.69427" lon="1.17664">
        <ele>2556.1999511719</ele>
        <time>2023-07-26T07:09:33.000Z</time>
      </trkpt>
      <trkpt lat="42.69428" lon="1.17661">
        <ele>2555.6000976562</ele>
        <time>2023-07-26T07:09:36.000Z</time>
      </trkpt>
      <trkpt lat="42.69427" lon="1.17658">
        <ele>2554.3999023438</ele>
        <time>2023-07-26T07:09:39.000Z</time>
      </trkpt>
      <trkpt lat="42.69426" lon="1.17656">
        <ele>2554.1999511719</ele>
        <time>2023-07-26T07:09:40.000Z</time>
      </trkpt>
      <trkpt lat="42.69425" lon="1.17654">
        <ele>2553.1999511719</ele>
        <time>2023-07-26T07:09:44.000Z</time>
      </trkpt>
      <trkpt lat="42.69424" lon="1.17651">
        <ele>2551.8000488281</ele>
        <time>2023-07-26T07:09:49.000Z</time>
      </trkpt>
      <trkpt lat="42.69424" lon="1.17646">
        <ele>2550.6000976562</ele>
        <time>2023-07-26T07:09:53.000Z</time>
      </trkpt>
      <trkpt lat="42.69424" lon="1.17643">
        <ele>2549.3999023438</ele>
        <time>2023-07-26T07:09:57.000Z</time>
      </trkpt>
      <trkpt lat="42.69424" lon="1.17641">
        <ele>2548.3999023438</ele>
        <time>2023-07-26T07:10:01.000Z</time>
      </trkpt>
      <trkpt lat="42.69423" lon="1.17639">
        <ele>2548</ele>
        <time>2023-07-26T07:10:04.000Z</time>
      </trkpt>
      <trkpt lat="42.69421" lon="1.17636">
        <ele>2547.3999023438</ele>
        <time>2023-07-26T07:10:12.000Z</time>
      </trkpt>
      <trkpt lat="42.69421" lon="1.17635">
        <ele>2547.1999511719</ele>
        <time>2023-07-26T07:10:13.000Z</time>
      </trkpt>
      <trkpt lat="42.69421" lon="1.17631">
        <ele>2546</ele>
        <time>2023-07-26T07:10:19.000Z</time>
      </trkpt>
      <trkpt lat="42.69421" lon="1.17631">
        <ele>2545.8000488281</ele>
        <time>2023-07-26T07:10:20.000Z</time>
      </trkpt>
      <trkpt lat="42.69421" lon="1.17629">
        <ele>2544.8000488281</ele>
        <time>2023-07-26T07:10:23.000Z</time>
      </trkpt>
      <trkpt lat="42.69421" lon="1.17627">
        <ele>2544.1999511719</ele>
        <time>2023-07-26T07:10:26.000Z</time>
      </trkpt>
      <trkpt lat="42.69422" lon="1.17625">
        <ele>2543.8000488281</ele>
        <time>2023-07-26T07:10:30.000Z</time>
      </trkpt>
      <trkpt lat="42.69422" lon="1.17626">
        <ele>2543.1999511719</ele>
        <time>2023-07-26T07:10:32.000Z</time>
      </trkpt>
      <trkpt lat="42.69425" lon="1.17624">
        <ele>2542.3999023438</ele>
        <time>2023-07-26T07:10:36.000Z</time>
      </trkpt>
      <trkpt lat="42.69428" lon="1.1762">
        <ele>2541.8000488281</ele>
        <time>2023-07-26T07:10:40.000Z</time>
      </trkpt>
      <trkpt lat="42.69428" lon="1.17618">
        <ele>2541.3999023438</ele>
        <time>2023-07-26T07:10:42.000Z</time>
      </trkpt>
      <trkpt lat="42.69428" lon="1.17613">
        <ele>2540.3999023438</ele>
        <time>2023-07-26T07:10:47.000Z</time>
      </trkpt>
      <trkpt lat="42.69427" lon="1.17613">
        <ele>2540</ele>
        <time>2023-07-26T07:10:48.000Z</time>
      </trkpt>
      <trkpt lat="42.69427" lon="1.17609">
        <ele>2539</ele>
        <time>2023-07-26T07:10:51.000Z</time>
      </trkpt>
      <trkpt lat="42.69427" lon="1.17604">
        <ele>2537.8000488281</ele>
        <time>2023-07-26T07:10:55.000Z</time>
      </trkpt>
      <trkpt lat="42.69426" lon="1.17602">
        <ele>2537.1999511719</ele>
        <time>2023-07-26T07:10:57.000Z</time>
      </trkpt>
      <trkpt lat="42.69425" lon="1.176">
        <ele>2536.6000976562</ele>
        <time>2023-07-26T07:10:59.000Z</time>
      </trkpt>
      <trkpt lat="42.69423" lon="1.17599">
        <ele>2535.6000976562</ele>
        <time>2023-07-26T07:11:04.000Z</time>
      </trkpt>
      <trkpt lat="42.69424" lon="1.17599">
        <ele>2535.3999023438</ele>
        <time>2023-07-26T07:11:05.000Z</time>
      </trkpt>
      <trkpt lat="42.69424" lon="1.17596">
        <ele>2535.1999511719</ele>
        <time>2023-07-26T07:11:09.000Z</time>
      </trkpt>
      <trkpt lat="42.69423" lon="1.17595">
        <ele>2534.3999023438</ele>
        <time>2023-07-26T07:11:15.000Z</time>
      </trkpt>
      <trkpt lat="42.69424" lon="1.17597">
        <ele>2533.1999511719</ele>
        <time>2023-07-26T07:11:21.000Z</time>
      </trkpt>
      <trkpt lat="42.69423" lon="1.17597">
        <ele>2533</ele>
        <time>2023-07-26T07:11:23.000Z</time>
      </trkpt>
      <trkpt lat="42.69422" lon="1.17596">
        <ele>2532.1999511719</ele>
        <time>2023-07-26T07:11:26.000Z</time>
      </trkpt>
      <trkpt lat="42.69422" lon="1.17593">
        <ele>2531</ele>
        <time>2023-07-26T07:11:31.000Z</time>
      </trkpt>
      <trkpt lat="42.69419" lon="1.17588">
        <ele>2530</ele>
        <time>2023-07-26T07:11:37.000Z</time>
      </trkpt>
      <trkpt lat="42.69419" lon="1.17586">
        <ele>2529.8000488281</ele>
        <time>2023-07-26T07:11:39.000Z</time>
      </trkpt>
      <trkpt lat="42.69417" lon="1.17582">
        <ele>2529</ele>
        <time>2023-07-26T07:11:44.000Z</time>
      </trkpt>
      <trkpt lat="42.69415" lon="1.17579">
        <ele>2528.1999511719</ele>
        <time>2023-07-26T07:11:48.000Z</time>
      </trkpt>
      <trkpt lat="42.69414" lon="1.17576">
        <ele>2527.6000976562</ele>
        <time>2023-07-26T07:11:50.000Z</time>
      </trkpt>
      <trkpt lat="42.69411" lon="1.17573">
        <ele>2526.6000976562</ele>
        <time>2023-07-26T07:11:53.000Z</time>
      </trkpt>
      <trkpt lat="42.69409" lon="1.17569">
        <ele>2526</ele>
        <time>2023-07-26T07:11:57.000Z</time>
      </trkpt>
      <trkpt lat="42.69409" lon="1.17567">
        <ele>2525.3999023438</ele>
        <time>2023-07-26T07:11:59.000Z</time>
      </trkpt>
      <trkpt lat="42.69408" lon="1.17559">
        <ele>2524</ele>
        <time>2023-07-26T07:12:06.000Z</time>
      </trkpt>
      <trkpt lat="42.69409" lon="1.1756">
        <ele>2523.3999023438</ele>
        <time>2023-07-26T07:12:09.000Z</time>
      </trkpt>
      <trkpt lat="42.69408" lon="1.17559">
        <ele>2523.1999511719</ele>
        <time>2023-07-26T07:12:11.000Z</time>
      </trkpt>
      <trkpt lat="42.69408" lon="1.17558">
        <ele>2523</ele>
        <time>2023-07-26T07:12:13.000Z</time>
      </trkpt>
      <trkpt lat="42.69408" lon="1.17556">
        <ele>2522.3999023438</ele>
        <time>2023-07-26T07:12:17.000Z</time>
      </trkpt>
      <trkpt lat="42.69408" lon="1.17552">
        <ele>2521.8000488281</ele>
        <time>2023-07-26T07:12:20.000Z</time>
      </trkpt>
      <trkpt lat="42.69407" lon="1.1755">
        <ele>2521</ele>
        <time>2023-07-26T07:12:24.000Z</time>
      </trkpt>
      <trkpt lat="42.69407" lon="1.1755">
        <ele>2520.8000488281</ele>
        <time>2023-07-26T07:12:25.000Z</time>
      </trkpt>
      <trkpt lat="42.69406" lon="1.17549">
        <ele>2520.1999511719</ele>
        <time>2023-07-26T07:12:32.000Z</time>
      </trkpt>
      <trkpt lat="42.69407" lon="1.17554">
        <ele>2520.1999511719</ele>
        <time>2023-07-26T07:12:44.000Z</time>
      </trkpt>
      <trkpt lat="42.69406" lon="1.17546">
        <ele>2520.1999511719</ele>
        <time>2023-07-26T07:12:51.000Z</time>
      </trkpt>
      <trkpt lat="42.69406" lon="1.17542">
        <ele>2519.6000976562</ele>
        <time>2023-07-26T07:12:55.000Z</time>
      </trkpt>
      <trkpt lat="42.69407" lon="1.17536">
        <ele>2518.1999511719</ele>
        <time>2023-07-26T07:13:00.000Z</time>
      </trkpt>
      <trkpt lat="42.69406" lon="1.17528">
        <ele>2517.1999511719</ele>
        <time>2023-07-26T07:13:04.000Z</time>
      </trkpt>
      <trkpt lat="42.69406" lon="1.17525">
        <ele>2516.6000976562</ele>
        <time>2023-07-26T07:13:07.000Z</time>
      </trkpt>
      <trkpt lat="42.69406" lon="1.1752">
        <ele>2516.1999511719</ele>
        <time>2023-07-26T07:13:12.000Z</time>
      </trkpt>
      <trkpt lat="42.69405" lon="1.17515">
        <ele>2516</ele>
        <time>2023-07-26T07:13:16.000Z</time>
      </trkpt>
      <trkpt lat="42.69406" lon="1.17512">
        <ele>2515.8000488281</ele>
        <time>2023-07-26T07:13:22.000Z</time>
      </trkpt>
      <trkpt lat="42.69407" lon="1.1751">
        <ele>2515.1999511719</ele>
        <time>2023-07-26T07:13:25.000Z</time>
      </trkpt>
      <trkpt lat="42.69407" lon="1.17505">
        <ele>2514.3999023438</ele>
        <time>2023-07-26T07:13:28.000Z</time>
      </trkpt>
      <trkpt lat="42.69408" lon="1.17504">
        <ele>2514</ele>
        <time>2023-07-26T07:13:29.000Z</time>
      </trkpt>
      <trkpt lat="42.69408" lon="1.17501">
        <ele>2512.8000488281</ele>
        <time>2023-07-26T07:13:33.000Z</time>
      </trkpt>
      <trkpt lat="42.69408" lon="1.175">
        <ele>2512.3999023438</ele>
        <time>2023-07-26T07:13:35.000Z</time>
      </trkpt>
      <trkpt lat="42.69409" lon="1.17496">
        <ele>2511.8000488281</ele>
        <time>2023-07-26T07:13:38.000Z</time>
      </trkpt>
      <trkpt lat="42.6941" lon="1.17493">
        <ele>2511.1999511719</ele>
        <time>2023-07-26T07:13:40.000Z</time>
      </trkpt>
      <trkpt lat="42.69412" lon="1.1749">
        <ele>2510.8000488281</ele>
        <time>2023-07-26T07:13:42.000Z</time>
      </trkpt>
      <trkpt lat="42.69413" lon="1.17486">
        <ele>2509.6000976562</ele>
        <time>2023-07-26T07:13:46.000Z</time>
      </trkpt>
      <trkpt lat="42.69413" lon="1.17481">
        <ele>2508.8000488281</ele>
        <time>2023-07-26T07:13:49.000Z</time>
      </trkpt>
      <trkpt lat="42.69413" lon="1.1748">
        <ele>2508.6000976562</ele>
        <time>2023-07-26T07:13:50.000Z</time>
      </trkpt>
      <trkpt lat="42.69413" lon="1.17472">
        <ele>2507.8000488281</ele>
        <time>2023-07-26T07:13:56.000Z</time>
      </trkpt>
      <trkpt lat="42.69413" lon="1.17469">
        <ele>2507.6000976562</ele>
        <time>2023-07-26T07:13:59.000Z</time>
      </trkpt>
      <trkpt lat="42.69414" lon="1.17466">
        <ele>2507.1999511719</ele>
        <time>2023-07-26T07:14:03.000Z</time>
      </trkpt>
      <trkpt lat="42.69415" lon="1.17457">
        <ele>2506.3999023438</ele>
        <time>2023-07-26T07:14:08.000Z</time>
      </trkpt>
      <trkpt lat="42.69415" lon="1.17455">
        <ele>2506</ele>
        <time>2023-07-26T07:14:10.000Z</time>
      </trkpt>
      <trkpt lat="42.69416" lon="1.17446">
        <ele>2505.3999023438</ele>
        <time>2023-07-26T07:14:17.000Z</time>
      </trkpt>
      <trkpt lat="42.69416" lon="1.17444">
        <ele>2505</ele>
        <time>2023-07-26T07:14:19.000Z</time>
      </trkpt>
      <trkpt lat="42.69417" lon="1.1744">
        <ele>2504.1999511719</ele>
        <time>2023-07-26T07:14:23.000Z</time>
      </trkpt>
      <trkpt lat="42.69418" lon="1.17435">
        <ele>2503.3999023438</ele>
        <time>2023-07-26T07:14:27.000Z</time>
      </trkpt>
      <trkpt lat="42.69418" lon="1.17435">
        <ele>2503.1999511719</ele>
        <time>2023-07-26T07:14:29.000Z</time>
      </trkpt>
      <trkpt lat="42.69417" lon="1.17432">
        <ele>2503</ele>
        <time>2023-07-26T07:14:33.000Z</time>
      </trkpt>
      <trkpt lat="42.69416" lon="1.17428">
        <ele>2502</ele>
        <time>2023-07-26T07:14:41.000Z</time>
      </trkpt>
      <trkpt lat="42.69417" lon="1.17429">
        <ele>2501.8000488281</ele>
        <time>2023-07-26T07:14:42.000Z</time>
      </trkpt>
      <trkpt lat="42.69417" lon="1.17426">
        <ele>2501</ele>
        <time>2023-07-26T07:14:47.000Z</time>
      </trkpt>
      <trkpt lat="42.69417" lon="1.17423">
        <ele>2500.3999023438</ele>
        <time>2023-07-26T07:14:50.000Z</time>
      </trkpt>
      <trkpt lat="42.69417" lon="1.17418">
        <ele>2499.8000488281</ele>
        <time>2023-07-26T07:14:53.000Z</time>
      </trkpt>
      <trkpt lat="42.69417" lon="1.17414">
        <ele>2498.8000488281</ele>
        <time>2023-07-26T07:14:58.000Z</time>
      </trkpt>
      <trkpt lat="42.69419" lon="1.1741">
        <ele>2497.3999023438</ele>
        <time>2023-07-26T07:15:03.000Z</time>
      </trkpt>
      <trkpt lat="42.69421" lon="1.17407">
        <ele>2496.8000488281</ele>
        <time>2023-07-26T07:15:06.000Z</time>
      </trkpt>
      <trkpt lat="42.69423" lon="1.17404">
        <ele>2496.3999023438</ele>
        <time>2023-07-26T07:15:09.000Z</time>
      </trkpt>
      <trkpt lat="42.69425" lon="1.17399">
        <ele>2495.6000976562</ele>
        <time>2023-07-26T07:15:14.000Z</time>
      </trkpt>
      <trkpt lat="42.69426" lon="1.17397">
        <ele>2495.3999023438</ele>
        <time>2023-07-26T07:15:16.000Z</time>
      </trkpt>
      <trkpt lat="42.69427" lon="1.17394">
        <ele>2495</ele>
        <time>2023-07-26T07:15:22.000Z</time>
      </trkpt>
      <trkpt lat="42.69429" lon="1.17389">
        <ele>2494.1999511719</ele>
        <time>2023-07-26T07:15:29.000Z</time>
      </trkpt>
      <trkpt lat="42.69429" lon="1.17386">
        <ele>2494</ele>
        <time>2023-07-26T07:15:31.000Z</time>
      </trkpt>
      <trkpt lat="42.6943" lon="1.1738">
        <ele>2493</ele>
        <time>2023-07-26T07:15:35.000Z</time>
      </trkpt>
      <trkpt lat="42.6943" lon="1.17376">
        <ele>2493</ele>
        <time>2023-07-26T07:15:39.000Z</time>
      </trkpt>
      <trkpt lat="42.69431" lon="1.17364">
        <ele>2492</ele>
        <time>2023-07-26T07:15:46.000Z</time>
      </trkpt>
      <trkpt lat="42.69432" lon="1.17357">
        <ele>2492.6000976562</ele>
        <time>2023-07-26T07:15:55.000Z</time>
      </trkpt>
      <trkpt lat="42.69431" lon="1.1735">
        <ele>2493</ele>
        <time>2023-07-26T07:16:02.000Z</time>
      </trkpt>
      <trkpt lat="42.69431" lon="1.17341">
        <ele>2493.6000976562</ele>
        <time>2023-07-26T07:16:11.000Z</time>
      </trkpt>
      <trkpt lat="42.69436" lon="1.17336">
        <ele>2492.8000488281</ele>
        <time>2023-07-26T07:16:19.000Z</time>
      </trkpt>
      <trkpt lat="42.69438" lon="1.17335">
        <ele>2492</ele>
        <time>2023-07-26T07:16:21.000Z</time>
      </trkpt>
      <trkpt lat="42.69439" lon="1.17334">
        <ele>2491.3999023438</ele>
        <time>2023-07-26T07:16:26.000Z</time>
      </trkpt>
      <trkpt lat="42.69438" lon="1.17334">
        <ele>2491.1999511719</ele>
        <time>2023-07-26T07:16:28.000Z</time>
      </trkpt>
      <trkpt lat="42.69436" lon="1.17334">
        <ele>2491.1999511719</ele>
        <time>2023-07-26T07:16:31.000Z</time>
      </trkpt>
      <trkpt lat="42.69436" lon="1.17333">
        <ele>2491.3999023438</ele>
        <time>2023-07-26T07:16:33.000Z</time>
      </trkpt>
      <trkpt lat="42.69436" lon="1.17334">
        <ele>2491.3999023438</ele>
        <time>2023-07-26T07:16:35.000Z</time>
      </trkpt>
      <trkpt lat="42.69435" lon="1.17333">
        <ele>2491.8000488281</ele>
        <time>2023-07-26T07:16:39.000Z</time>
      </trkpt>
      <trkpt lat="42.69433" lon="1.17336">
        <ele>2492.6000976562</ele>
        <time>2023-07-26T07:16:45.000Z</time>
      </trkpt>
      <trkpt lat="42.69433" lon="1.17338">
        <ele>2492.3999023438</ele>
        <time>2023-07-26T07:16:53.000Z</time>
      </trkpt>
      <trkpt lat="42.69437" lon="1.17339">
        <ele>2492.3999023438</ele>
        <time>2023-07-26T07:17:02.000Z</time>
      </trkpt>
      <trkpt lat="42.69441" lon="1.17332">
        <ele>2492.6000976562</ele>
        <time>2023-07-26T07:17:08.000Z</time>
      </trkpt>
      <trkpt lat="42.69442" lon="1.17323">
        <ele>2493</ele>
        <time>2023-07-26T07:17:14.000Z</time>
      </trkpt>
      <trkpt lat="42.69442" lon="1.17314">
        <ele>2492.8000488281</ele>
        <time>2023-07-26T07:17:20.000Z</time>
      </trkpt>
      <trkpt lat="42.69445" lon="1.17303">
        <ele>2493</ele>
        <time>2023-07-26T07:17:28.000Z</time>
      </trkpt>
      <trkpt lat="42.6945" lon="1.17302">
        <ele>2493</ele>
        <time>2023-07-26T07:17:34.000Z</time>
      </trkpt>
      <trkpt lat="42.69457" lon="1.173">
        <ele>2492.8000488281</ele>
        <time>2023-07-26T07:17:40.000Z</time>
      </trkpt>
      <trkpt lat="42.69461" lon="1.17293">
        <ele>2492.6000976562</ele>
        <time>2023-07-26T07:17:46.000Z</time>
      </trkpt>
      <trkpt lat="42.6946" lon="1.17285">
        <ele>2492.3999023438</ele>
        <time>2023-07-26T07:17:52.000Z</time>
      </trkpt>
      <trkpt lat="42.69456" lon="1.17278">
        <ele>2492</ele>
        <time>2023-07-26T07:17:59.000Z</time>
      </trkpt>
      <trkpt lat="42.69455" lon="1.17276">
        <ele>2491.8000488281</ele>
        <time>2023-07-26T07:18:00.000Z</time>
      </trkpt>
      <trkpt lat="42.6945" lon="1.17271">
        <ele>2491</ele>
        <time>2023-07-26T07:18:07.000Z</time>
      </trkpt>
      <trkpt lat="42.69451" lon="1.1727">
        <ele>2490.8000488281</ele>
        <time>2023-07-26T07:18:08.000Z</time>
      </trkpt>
      <trkpt lat="42.6945" lon="1.17266">
        <ele>2489.8000488281</ele>
        <time>2023-07-26T07:18:15.000Z</time>
      </trkpt>
      <trkpt lat="42.69449" lon="1.17265">
        <ele>2489.6000976562</ele>
        <time>2023-07-26T07:18:16.000Z</time>
      </trkpt>
      <trkpt lat="42.69446" lon="1.17259">
        <ele>2489</ele>
        <time>2023-07-26T07:18:21.000Z</time>
      </trkpt>
      <trkpt lat="42.69443" lon="1.17256">
        <ele>2488.3999023438</ele>
        <time>2023-07-26T07:18:25.000Z</time>
      </trkpt>
      <trkpt lat="42.69443" lon="1.17257">
        <ele>2488</ele>
        <time>2023-07-26T07:18:30.000Z</time>
      </trkpt>
      <trkpt lat="42.69441" lon="1.17252">
        <ele>2488</ele>
        <time>2023-07-26T07:18:36.000Z</time>
      </trkpt>
      <trkpt lat="42.6944" lon="1.17248">
        <ele>2487.3999023438</ele>
        <time>2023-07-26T07:18:39.000Z</time>
      </trkpt>
      <trkpt lat="42.6944" lon="1.17245">
        <ele>2486.6000976562</ele>
        <time>2023-07-26T07:18:43.000Z</time>
      </trkpt>
      <trkpt lat="42.6944" lon="1.17243">
        <ele>2486.3999023438</ele>
        <time>2023-07-26T07:18:45.000Z</time>
      </trkpt>
      <trkpt lat="42.69439" lon="1.1724">
        <ele>2485.8000488281</ele>
        <time>2023-07-26T07:18:50.000Z</time>
      </trkpt>
      <trkpt lat="42.69438" lon="1.17235">
        <ele>2485.3999023438</ele>
        <time>2023-07-26T07:18:56.000Z</time>
      </trkpt>
      <trkpt lat="42.69438" lon="1.17231">
        <ele>2485</ele>
        <time>2023-07-26T07:19:00.000Z</time>
      </trkpt>
      <trkpt lat="42.69438" lon="1.17222">
        <ele>2484.8000488281</ele>
        <time>2023-07-26T07:19:08.000Z</time>
      </trkpt>
      <trkpt lat="42.69438" lon="1.17213">
        <ele>2484.6000976562</ele>
        <time>2023-07-26T07:19:16.000Z</time>
      </trkpt>
      <trkpt lat="42.69438" lon="1.17213">
        <ele>2484.1999511719</ele>
        <time>2023-07-26T07:19:17.000Z</time>
      </trkpt>
      <trkpt lat="42.69438" lon="1.1721">
        <ele>2483</ele>
        <time>2023-07-26T07:19:23.000Z</time>
      </trkpt>
      <trkpt lat="42.69437" lon="1.17209">
        <ele>2482.1999511719</ele>
        <time>2023-07-26T07:19:26.000Z</time>
      </trkpt>
      <trkpt lat="42.69436" lon="1.17207">
        <ele>2481.8000488281</ele>
        <time>2023-07-26T07:19:29.000Z</time>
      </trkpt>
      <trkpt lat="42.69432" lon="1.17202">
        <ele>2480.8000488281</ele>
        <time>2023-07-26T07:19:34.000Z</time>
      </trkpt>
      <trkpt lat="42.69432" lon="1.17197">
        <ele>2479.8000488281</ele>
        <time>2023-07-26T07:19:40.000Z</time>
      </trkpt>
      <trkpt lat="42.69432" lon="1.17196">
        <ele>2479.3999023438</ele>
        <time>2023-07-26T07:19:42.000Z</time>
      </trkpt>
      <trkpt lat="42.69432" lon="1.17193">
        <ele>2478.8000488281</ele>
        <time>2023-07-26T07:19:45.000Z</time>
      </trkpt>
      <trkpt lat="42.69432" lon="1.17187">
        <ele>2478</ele>
        <time>2023-07-26T07:19:50.000Z</time>
      </trkpt>
      <trkpt lat="42.69432" lon="1.1718">
        <ele>2477.3999023438</ele>
        <time>2023-07-26T07:19:56.000Z</time>
      </trkpt>
      <trkpt lat="42.69431" lon="1.17179">
        <ele>2476.8000488281</ele>
        <time>2023-07-26T07:19:58.000Z</time>
      </trkpt>
      <trkpt lat="42.69431" lon="1.17178">
        <ele>2476.3999023438</ele>
        <time>2023-07-26T07:19:59.000Z</time>
      </trkpt>
      <trkpt lat="42.69432" lon="1.17173">
        <ele>2475.3999023438</ele>
        <time>2023-07-26T07:20:06.000Z</time>
      </trkpt>
      <trkpt lat="42.69432" lon="1.17173">
        <ele>2475.1999511719</ele>
        <time>2023-07-26T07:20:07.000Z</time>
      </trkpt>
      <trkpt lat="42.69433" lon="1.17169">
        <ele>2474.6000976562</ele>
        <time>2023-07-26T07:20:13.000Z</time>
      </trkpt>
      <trkpt lat="42.69433" lon="1.17166">
        <ele>2474.6000976562</ele>
        <time>2023-07-26T07:20:22.000Z</time>
      </trkpt>
      <trkpt lat="42.69429" lon="1.17154">
        <ele>2474.1999511719</ele>
        <time>2023-07-26T07:20:30.000Z</time>
      </trkpt>
      <trkpt lat="42.69427" lon="1.17144">
        <ele>2473.1999511719</ele>
        <time>2023-07-26T07:20:38.000Z</time>
      </trkpt>
      <trkpt lat="42.69425" lon="1.17138">
        <ele>2472.1999511719</ele>
        <time>2023-07-26T07:20:44.000Z</time>
      </trkpt>
      <trkpt lat="42.69425" lon="1.17133">
        <ele>2471.8000488281</ele>
        <time>2023-07-26T07:20:47.000Z</time>
      </trkpt>
      <trkpt lat="42.69427" lon="1.17123">
        <ele>2472.3999023438</ele>
        <time>2023-07-26T07:20:54.000Z</time>
      </trkpt>
      <trkpt lat="42.69427" lon="1.17114">
        <ele>2472.1999511719</ele>
        <time>2023-07-26T07:21:01.000Z</time>
      </trkpt>
      <trkpt lat="42.69425" lon="1.17108">
        <ele>2471</ele>
        <time>2023-07-26T07:21:09.000Z</time>
      </trkpt>
      <trkpt lat="42.69425" lon="1.17106">
        <ele>2470.8000488281</ele>
        <time>2023-07-26T07:21:10.000Z</time>
      </trkpt>
      <trkpt lat="42.69427" lon="1.171">
        <ele>2470.1999511719</ele>
        <time>2023-07-26T07:21:17.000Z</time>
      </trkpt>
      <trkpt lat="42.69427" lon="1.17092">
        <ele>2470</ele>
        <time>2023-07-26T07:21:24.000Z</time>
      </trkpt>
      <trkpt lat="42.69427" lon="1.17086">
        <ele>2469.3999023438</ele>
        <time>2023-07-26T07:21:31.000Z</time>
      </trkpt>
      <trkpt lat="42.69426" lon="1.17085">
        <ele>2469.8</ele>
        <time>2023-07-26T07:45:25Z</time>
      </trkpt>
      <trkpt lat="42.69426" lon="1.17082">
        <ele>2469.1</ele>
        <time>2023-07-26T07:45:35Z</time>
      </trkpt>
      <trkpt lat="42.69425" lon="1.17081">
        <ele>2468.7</ele>
        <time>2023-07-26T07:45:45Z</time>
      </trkpt>
      <trkpt lat="42.69424" lon="1.17079">
        <ele>2468.1</ele>
        <time>2023-07-26T07:45:55Z</time>
      </trkpt>
      <trkpt lat="42.69424" lon="1.17077">
        <ele>2467.2</ele>
        <time>2023-07-26T07:46:05Z</time>
      </trkpt>
      <trkpt lat="42.69423" lon="1.17073">
        <ele>2466.2</ele>
        <time>2023-07-26T07:46:15Z</time>
      </trkpt>
      <trkpt lat="42.69422" lon="1.17069">
        <ele>2464.7</ele>
        <time>2023-07-26T07:46:25Z</time>
      </trkpt>
      <trkpt lat="42.69422" lon="1.17063">
        <ele>2463.2</ele>
        <time>2023-07-26T07:46:35Z</time>
      </trkpt>
      <trkpt lat="42.69422" lon="1.17059">
        <ele>2462.3</ele>
        <time>2023-07-26T07:46:45Z</time>
      </trkpt>
      <trkpt lat="42.69422" lon="1.17055">
        <ele>2461.1</ele>
        <time>2023-07-26T07:46:55Z</time>
      </trkpt>
      <trkpt lat="42.69421" lon="1.1705">
        <ele>2460.5</ele>
        <time>2023-07-26T07:47:05Z</time>
      </trkpt>
      <trkpt lat="42.69421" lon="1.17045">
        <ele>2459.9</ele>
        <time>2023-07-26T07:47:15Z</time>
      </trkpt>
      <trkpt lat="42.69422" lon="1.17038">
        <ele>2459.6</ele>
        <time>2023-07-26T07:47:25Z</time>
      </trkpt>
      <trkpt lat="42.69422" lon="1.1703">
        <ele>2458.9</ele>
        <time>2023-07-26T07:47:35Z</time>
      </trkpt>
      <trkpt lat="42.69421" lon="1.17025">
        <ele>2458.1</ele>
        <time>2023-07-26T07:47:45Z</time>
      </trkpt>
      <trkpt lat="42.69423" lon="1.17018">
        <ele>2457.7</ele>
        <time>2023-07-26T07:47:55Z</time>
      </trkpt>
      <trkpt lat="42.69426" lon="1.17015">
        <ele>2458.5</ele>
        <time>2023-07-26T07:48:05Z</time>
      </trkpt>
      <trkpt lat="42.69428" lon="1.17011">
        <ele>2458</ele>
        <time>2023-07-26T07:48:15Z</time>
      </trkpt>
      <trkpt lat="42.69433" lon="1.17">
        <ele>2455.6</ele>
        <time>2023-07-26T07:48:25Z</time>
      </trkpt>
      <trkpt lat="42.69436" lon="1.16999">
        <ele>2455.3</ele>
        <time>2023-07-26T07:48:35Z</time>
      </trkpt>
      <trkpt lat="42.69439" lon="1.16997">
        <ele>2454.7</ele>
        <time>2023-07-26T07:48:45Z</time>
      </trkpt>
      <trkpt lat="42.69442" lon="1.16993">
        <ele>2452.9</ele>
        <time>2023-07-26T07:48:55Z</time>
      </trkpt>
      <trkpt lat="42.69446" lon="1.16992">
        <ele>2452.6</ele>
        <time>2023-07-26T07:49:05Z</time>
      </trkpt>
      <trkpt lat="42.69448" lon="1.16991">
        <ele>2452.6</ele>
        <time>2023-07-26T07:49:15Z</time>
      </trkpt>
      <trkpt lat="42.69451" lon="1.1699">
        <ele>2453</ele>
        <time>2023-07-26T07:49:25Z</time>
      </trkpt>
      <trkpt lat="42.69452" lon="1.16989">
        <ele>2452.4</ele>
        <time>2023-07-26T07:49:35Z</time>
      </trkpt>
      <trkpt lat="42.69454" lon="1.16988">
        <ele>2452.4</ele>
        <time>2023-07-26T07:49:45Z</time>
      </trkpt>
      <trkpt lat="42.69455" lon="1.16988">
        <ele>2450.3999023438</ele>
        <time>2023-07-26T07:49:59.000Z</time>
      </trkpt>
      <trkpt lat="42.69458" lon="1.16987">
        <ele>2449.8000488281</ele>
        <time>2023-07-26T07:50:07.000Z</time>
      </trkpt>
      <trkpt lat="42.6946" lon="1.16984">
        <ele>2450.1999511719</ele>
        <time>2023-07-26T07:50:13.000Z</time>
      </trkpt>
      <trkpt lat="42.69463" lon="1.16981">
        <ele>2449.8000488281</ele>
        <time>2023-07-26T07:50:20.000Z</time>
      </trkpt>
      <trkpt lat="42.69466" lon="1.1698">
        <ele>2449</ele>
        <time>2023-07-26T07:50:25.000Z</time>
      </trkpt>
      <trkpt lat="42.69469" lon="1.16979">
        <ele>2448.8000488281</ele>
        <time>2023-07-26T07:50:28.000Z</time>
      </trkpt>
      <trkpt lat="42.69471" lon="1.1698">
        <ele>2448.3999023438</ele>
        <time>2023-07-26T07:50:32.000Z</time>
      </trkpt>
      <trkpt lat="42.69475" lon="1.16978">
        <ele>2447.6000976562</ele>
        <time>2023-07-26T07:50:38.000Z</time>
      </trkpt>
      <trkpt lat="42.69476" lon="1.16978">
        <ele>2447.3999023438</ele>
        <time>2023-07-26T07:50:39.000Z</time>
      </trkpt>
      <trkpt lat="42.69475" lon="1.16974">
        <ele>2446.8000488281</ele>
        <time>2023-07-26T07:50:42.000Z</time>
      </trkpt>
      <trkpt lat="42.69475" lon="1.16972">
        <ele>2446.6000976562</ele>
        <time>2023-07-26T07:50:43.000Z</time>
      </trkpt>
      <trkpt lat="42.69475" lon="1.16971">
        <ele>2446.1999511719</ele>
        <time>2023-07-26T07:50:45.000Z</time>
      </trkpt>
      <trkpt lat="42.69476" lon="1.1697">
        <ele>2445.3999023438</ele>
        <time>2023-07-26T07:50:49.000Z</time>
      </trkpt>
      <trkpt lat="42.69479" lon="1.16968">
        <ele>2444.8000488281</ele>
        <time>2023-07-26T07:50:54.000Z</time>
      </trkpt>
      <trkpt lat="42.69481" lon="1.16969">
        <ele>2444.3999023438</ele>
        <time>2023-07-26T07:50:56.000Z</time>
      </trkpt>
      <trkpt lat="42.69488" lon="1.16972">
        <ele>2444.6000976562</ele>
        <time>2023-07-26T07:51:02.000Z</time>
      </trkpt>
      <trkpt lat="42.69493" lon="1.16972">
        <ele>2445.3999023438</ele>
        <time>2023-07-26T07:51:08.000Z</time>
      </trkpt>
      <trkpt lat="42.69497" lon="1.16972">
        <ele>2445.8000488281</ele>
        <time>2023-07-26T07:51:15.000Z</time>
      </trkpt>
      <trkpt lat="42.69498" lon="1.16972">
        <ele>2445.1999511719</ele>
        <time>2023-07-26T07:51:23.000Z</time>
      </trkpt>
      <trkpt lat="42.69501" lon="1.16968">
        <ele>2444.3999023438</ele>
        <time>2023-07-26T07:51:30.000Z</time>
      </trkpt>
      <trkpt lat="42.69502" lon="1.16964">
        <ele>2443.6000976562</ele>
        <time>2023-07-26T07:51:36.000Z</time>
      </trkpt>
      <trkpt lat="42.69503" lon="1.16962">
        <ele>2443.1999511719</ele>
        <time>2023-07-26T07:51:38.000Z</time>
      </trkpt>
      <trkpt lat="42.69506" lon="1.16961">
        <ele>2443</ele>
        <time>2023-07-26T07:51:42.000Z</time>
      </trkpt>
      <trkpt lat="42.69512" lon="1.16961">
        <ele>2442.3999023438</ele>
        <time>2023-07-26T07:51:48.000Z</time>
      </trkpt>
      <trkpt lat="42.69517" lon="1.16961">
        <ele>2443.1999511719</ele>
        <time>2023-07-26T07:51:55.000Z</time>
      </trkpt>
      <trkpt lat="42.69518" lon="1.16961">
        <ele>2444.3999023438</ele>
        <time>2023-07-26T07:52:01.000Z</time>
      </trkpt>
      <trkpt lat="42.69519" lon="1.16961">
        <ele>2444.8000488281</ele>
        <time>2023-07-26T07:52:04.000Z</time>
      </trkpt>
      <trkpt lat="42.6952" lon="1.16959">
        <ele>2445.3999023438</ele>
        <time>2023-07-26T07:52:10.000Z</time>
      </trkpt>
      <trkpt lat="42.69519" lon="1.16957">
        <ele>2446</ele>
        <time>2023-07-26T07:52:13.000Z</time>
      </trkpt>
      <trkpt lat="42.69518" lon="1.16956">
        <ele>2446.6000976562</ele>
        <time>2023-07-26T07:52:17.000Z</time>
      </trkpt>
      <trkpt lat="42.69518" lon="1.16956">
        <ele>2446.8000488281</ele>
        <time>2023-07-26T07:52:21.000Z</time>
      </trkpt>
      <trkpt lat="42.69518" lon="1.16956">
        <ele>2447</ele>
        <time>2023-07-26T07:52:30.000Z</time>
      </trkpt>
      <trkpt lat="42.69521" lon="1.16959">
        <ele>2447.1999511719</ele>
        <time>2023-07-26T07:52:39.000Z</time>
      </trkpt>
      <trkpt lat="42.69515" lon="1.16954">
        <ele>2447.1999511719</ele>
        <time>2023-07-26T07:52:47.000Z</time>
      </trkpt>
      <trkpt lat="42.69517" lon="1.16954">
        <ele>2447</ele>
        <time>2023-07-26T07:52:54.000Z</time>
      </trkpt>
      <trkpt lat="42.69518" lon="1.16948">
        <ele>2446.8000488281</ele>
        <time>2023-07-26T07:53:02.000Z</time>
      </trkpt>
      <trkpt lat="42.69523" lon="1.16942">
        <ele>2447.1999511719</ele>
        <time>2023-07-26T07:53:13.000Z</time>
      </trkpt>
      <trkpt lat="42.69527" lon="1.16943">
        <ele>2447.1999511719</ele>
        <time>2023-07-26T07:53:20.000Z</time>
      </trkpt>
      <trkpt lat="42.69527" lon="1.16939">
        <ele>2446.6000976562</ele>
        <time>2023-07-26T07:53:27.000Z</time>
      </trkpt>
      <trkpt lat="42.69529" lon="1.16934">
        <ele>2446.6000976562</ele>
        <time>2023-07-26T07:53:34.000Z</time>
      </trkpt>
      <trkpt lat="42.69529" lon="1.16932">
        <ele>2447</ele>
        <time>2023-07-26T07:53:42.000Z</time>
      </trkpt>
      <trkpt lat="42.69533" lon="1.16934">
        <ele>2447</ele>
        <time>2023-07-26T07:53:50.000Z</time>
      </trkpt>
      <trkpt lat="42.69539" lon="1.16934">
        <ele>2446.6000976562</ele>
        <time>2023-07-26T07:53:58.000Z</time>
      </trkpt>
      <trkpt lat="42.69541" lon="1.1693">
        <ele>2445.3999023438</ele>
        <time>2023-07-26T07:54:04.000Z</time>
      </trkpt>
      <trkpt lat="42.69542" lon="1.1693">
        <ele>2445.3999023438</ele>
        <time>2023-07-26T07:54:06.000Z</time>
      </trkpt>
      <trkpt lat="42.69546" lon="1.16927">
        <ele>2445.8000488281</ele>
        <time>2023-07-26T07:54:14.000Z</time>
      </trkpt>
      <trkpt lat="42.6955" lon="1.16921">
        <ele>2446</ele>
        <time>2023-07-26T07:54:20.000Z</time>
      </trkpt>
      <trkpt lat="42.69551" lon="1.1692">
        <ele>2446.1999511719</ele>
        <time>2023-07-26T07:54:29.000Z</time>
      </trkpt>
      <trkpt lat="42.6955" lon="1.16921">
        <ele>2446.3999023438</ele>
        <time>2023-07-26T07:54:36.000Z</time>
      </trkpt>
      <trkpt lat="42.69551" lon="1.1692">
        <ele>2446.6000976562</ele>
        <time>2023-07-26T07:54:37.000Z</time>
      </trkpt>
      <trkpt lat="42.69552" lon="1.16917">
        <ele>2446.3999023438</ele>
        <time>2023-07-26T07:54:42.000Z</time>
      </trkpt>
      <trkpt lat="42.69551" lon="1.16916">
        <ele>2446</ele>
        <time>2023-07-26T07:54:47.000Z</time>
      </trkpt>
      <trkpt lat="42.69552" lon="1.16914">
        <ele>2446.1999511719</ele>
        <time>2023-07-26T07:54:53.000Z</time>
      </trkpt>
      <trkpt lat="42.69554" lon="1.16917">
        <ele>2446</ele>
        <time>2023-07-26T07:55:01.000Z</time>
      </trkpt>
      <trkpt lat="42.69556" lon="1.16916">
        <ele>2445.8000488281</ele>
        <time>2023-07-26T07:55:09.000Z</time>
      </trkpt>
      <trkpt lat="42.69556" lon="1.16912">
        <ele>2445.6000976562</ele>
        <time>2023-07-26T07:55:16.000Z</time>
      </trkpt>
      <trkpt lat="42.69556" lon="1.16912">
        <ele>2445.3999023438</ele>
        <time>2023-07-26T07:55:17.000Z</time>
      </trkpt>
      <trkpt lat="42.69555" lon="1.16913">
        <ele>2445</ele>
        <time>2023-07-26T07:55:22.000Z</time>
      </trkpt>
      <trkpt lat="42.69554" lon="1.1691">
        <ele>2444.3999023438</ele>
        <time>2023-07-26T07:55:29.000Z</time>
      </trkpt>
      <trkpt lat="42.69555" lon="1.16911">
        <ele>2443.8000488281</ele>
        <time>2023-07-26T07:55:37.000Z</time>
      </trkpt>
      <trkpt lat="42.69556" lon="1.1691">
        <ele>2443.3999023438</ele>
        <time>2023-07-26T07:55:39.000Z</time>
      </trkpt>
      <trkpt lat="42.69557" lon="1.16908">
        <ele>2443.1999511719</ele>
        <time>2023-07-26T07:55:43.000Z</time>
      </trkpt>
      <trkpt lat="42.69555" lon="1.16907">
        <ele>2442.1999511719</ele>
        <time>2023-07-26T07:55:48.000Z</time>
      </trkpt>
      <trkpt lat="42.69555" lon="1.16906">
        <ele>2442</ele>
        <time>2023-07-26T07:55:49.000Z</time>
      </trkpt>
      <trkpt lat="42.69555" lon="1.16902">
        <ele>2441.1999511719</ele>
        <time>2023-07-26T07:55:54.000Z</time>
      </trkpt>
      <trkpt lat="42.69555" lon="1.16899">
        <ele>2440.1999511719</ele>
        <time>2023-07-26T07:55:58.000Z</time>
      </trkpt>
      <trkpt lat="42.69555" lon="1.16898">
        <ele>2440</ele>
        <time>2023-07-26T07:55:59.000Z</time>
      </trkpt>
      <trkpt lat="42.69556" lon="1.16895">
        <ele>2439.1999511719</ele>
        <time>2023-07-26T07:56:05.000Z</time>
      </trkpt>
      <trkpt lat="42.69557" lon="1.16894">
        <ele>2438.8000488281</ele>
        <time>2023-07-26T07:56:08.000Z</time>
      </trkpt>
      <trkpt lat="42.69557" lon="1.16889">
        <ele>2437.6000976562</ele>
        <time>2023-07-26T07:56:13.000Z</time>
      </trkpt>
      <trkpt lat="42.6956" lon="1.16887">
        <ele>2436.8000488281</ele>
        <time>2023-07-26T07:56:20.000Z</time>
      </trkpt>
      <trkpt lat="42.69561" lon="1.16887">
        <ele>2436.1999511719</ele>
        <time>2023-07-26T07:56:23.000Z</time>
      </trkpt>
      <trkpt lat="42.69562" lon="1.16888">
        <ele>2435.1999511719</ele>
        <time>2023-07-26T07:56:29.000Z</time>
      </trkpt>
      <trkpt lat="42.69563" lon="1.16889">
        <ele>2434.8000488281</ele>
        <time>2023-07-26T07:56:31.000Z</time>
      </trkpt>
      <trkpt lat="42.69566" lon="1.16889">
        <ele>2434.6000976562</ele>
        <time>2023-07-26T07:56:39.000Z</time>
      </trkpt>
      <trkpt lat="42.69569" lon="1.16888">
        <ele>2434</ele>
        <time>2023-07-26T07:56:44.000Z</time>
      </trkpt>
      <trkpt lat="42.6957" lon="1.16888">
        <ele>2433.8000488281</ele>
        <time>2023-07-26T07:56:45.000Z</time>
      </trkpt>
      <trkpt lat="42.69571" lon="1.1689">
        <ele>2433</ele>
        <time>2023-07-26T07:56:49.000Z</time>
      </trkpt>
      <trkpt lat="42.69574" lon="1.1689">
        <ele>2432.8000488281</ele>
        <time>2023-07-26T07:56:53.000Z</time>
      </trkpt>
      <trkpt lat="42.69579" lon="1.1689">
        <ele>2432.3999023438</ele>
        <time>2023-07-26T07:57:01.000Z</time>
      </trkpt>
      <trkpt lat="42.6958" lon="1.1689">
        <ele>2432</ele>
        <time>2023-07-26T07:57:05.000Z</time>
      </trkpt>
      <trkpt lat="42.69582" lon="1.1689">
        <ele>2431.6000976562</ele>
        <time>2023-07-26T07:57:08.000Z</time>
      </trkpt>
      <trkpt lat="42.69584" lon="1.1689">
        <ele>2431</ele>
        <time>2023-07-26T07:57:11.000Z</time>
      </trkpt>
      <trkpt lat="42.69589" lon="1.16891">
        <ele>2430.1999511719</ele>
        <time>2023-07-26T07:57:16.000Z</time>
      </trkpt>
      <trkpt lat="42.69589" lon="1.1689">
        <ele>2430</ele>
        <time>2023-07-26T07:57:20.000Z</time>
      </trkpt>
      <trkpt lat="42.69589" lon="1.16888">
        <ele>2429.3999023438</ele>
        <time>2023-07-26T07:57:25.000Z</time>
      </trkpt>
      <trkpt lat="42.69591" lon="1.16886">
        <ele>2429</ele>
        <time>2023-07-26T07:57:29.000Z</time>
      </trkpt>
      <trkpt lat="42.69593" lon="1.16883">
        <ele>2428</ele>
        <time>2023-07-26T07:57:33.000Z</time>
      </trkpt>
      <trkpt lat="42.69595" lon="1.16881">
        <ele>2427.6000976562</ele>
        <time>2023-07-26T07:57:35.000Z</time>
      </trkpt>
      <trkpt lat="42.69597" lon="1.1688">
        <ele>2427</ele>
        <time>2023-07-26T07:57:44.000Z</time>
      </trkpt>
      <trkpt lat="42.696" lon="1.16879">
        <ele>2426.6000976562</ele>
        <time>2023-07-26T07:57:49.000Z</time>
      </trkpt>
      <trkpt lat="42.696" lon="1.16878">
        <ele>2426.1999511719</ele>
        <time>2023-07-26T07:57:51.000Z</time>
      </trkpt>
      <trkpt lat="42.69601" lon="1.16879">
        <ele>2425.6000976562</ele>
        <time>2023-07-26T07:57:55.000Z</time>
      </trkpt>
      <trkpt lat="42.69602" lon="1.16878">
        <ele>2425</ele>
        <time>2023-07-26T07:57:57.000Z</time>
      </trkpt>
      <trkpt lat="42.69607" lon="1.16878">
        <ele>2424.3999023438</ele>
        <time>2023-07-26T07:58:02.000Z</time>
      </trkpt>
      <trkpt lat="42.69607" lon="1.16878">
        <ele>2424.1999511719</ele>
        <time>2023-07-26T07:58:05.000Z</time>
      </trkpt>
      <trkpt lat="42.69612" lon="1.16878">
        <ele>2423.1999511719</ele>
        <time>2023-07-26T07:58:12.000Z</time>
      </trkpt>
      <trkpt lat="42.69611" lon="1.16878">
        <ele>2423</ele>
        <time>2023-07-26T07:58:13.000Z</time>
      </trkpt>
      <trkpt lat="42.69612" lon="1.16878">
        <ele>2422</ele>
        <time>2023-07-26T07:58:17.000Z</time>
      </trkpt>
      <trkpt lat="42.69613" lon="1.16878">
        <ele>2422</ele>
        <time>2023-07-26T07:58:20.000Z</time>
      </trkpt>
      <trkpt lat="42.69617" lon="1.16877">
        <ele>2421.8000488281</ele>
        <time>2023-07-26T07:58:29.000Z</time>
      </trkpt>
      <trkpt lat="42.69621" lon="1.16879">
        <ele>2421.1999511719</ele>
        <time>2023-07-26T07:58:35.000Z</time>
      </trkpt>
      <trkpt lat="42.69622" lon="1.16878">
        <ele>2421</ele>
        <time>2023-07-26T07:58:36.000Z</time>
      </trkpt>
      <trkpt lat="42.69625" lon="1.16875">
        <ele>2420.1999511719</ele>
        <time>2023-07-26T07:58:42.000Z</time>
      </trkpt>
      <trkpt lat="42.69627" lon="1.16872">
        <ele>2420</ele>
        <time>2023-07-26T07:58:50.000Z</time>
      </trkpt>
      <trkpt lat="42.69627" lon="1.16872">
        <ele>2420</ele>
        <time>2023-07-26T07:58:51.000Z</time>
      </trkpt>
      <trkpt lat="42.69628" lon="1.16874">
        <ele>2419.8000488281</ele>
        <time>2023-07-26T07:58:56.000Z</time>
      </trkpt>
      <trkpt lat="42.69627" lon="1.16872">
        <ele>2419.6000976562</ele>
        <time>2023-07-26T07:59:03.000Z</time>
      </trkpt>
      <trkpt lat="42.69625" lon="1.16871">
        <ele>2419.8000488281</ele>
        <time>2023-07-26T07:59:10.000Z</time>
      </trkpt>
      <trkpt lat="42.69628" lon="1.16872">
        <ele>2420.1999511719</ele>
        <time>2023-07-26T07:59:18.000Z</time>
      </trkpt>
      <trkpt lat="42.69637" lon="1.16877">
        <ele>2420.3999023438</ele>
        <time>2023-07-26T07:59:27.000Z</time>
      </trkpt>
      <trkpt lat="42.69637" lon="1.16877">
        <ele>2420.3999023438</ele>
        <time>2023-07-26T07:59:28.000Z</time>
      </trkpt>
      <trkpt lat="42.69639" lon="1.1688">
        <ele>2419.3999023438</ele>
        <time>2023-07-26T07:59:36.000Z</time>
      </trkpt>
      <trkpt lat="42.69645" lon="1.16882">
        <ele>2419.1999511719</ele>
        <time>2023-07-26T07:59:44.000Z</time>
      </trkpt>
      <trkpt lat="42.69643" lon="1.1688">
        <ele>2419.6000976562</ele>
        <time>2023-07-26T07:59:50.000Z</time>
      </trkpt>
      <trkpt lat="42.69648" lon="1.1688">
        <ele>2419</ele>
        <time>2023-07-26T07:59:59.000Z</time>
      </trkpt>
      <trkpt lat="42.69649" lon="1.1688">
        <ele>2418.8000488281</ele>
        <time>2023-07-26T08:00:01.000Z</time>
      </trkpt>
      <trkpt lat="42.69652" lon="1.16879">
        <ele>2418.1999511719</ele>
        <time>2023-07-26T08:00:05.000Z</time>
      </trkpt>
      <trkpt lat="42.6965" lon="1.16876">
        <ele>2418</ele>
        <time>2023-07-26T08:00:12.000Z</time>
      </trkpt>
      <trkpt lat="42.69651" lon="1.16877">
        <ele>2417.8000488281</ele>
        <time>2023-07-26T08:00:13.000Z</time>
      </trkpt>
      <trkpt lat="42.69652" lon="1.16875">
        <ele>2417</ele>
        <time>2023-07-26T08:00:20.000Z</time>
      </trkpt>
      <trkpt lat="42.69654" lon="1.16875">
        <ele>2416.8000488281</ele>
        <time>2023-07-26T08:00:24.000Z</time>
      </trkpt>
      <trkpt lat="42.69656" lon="1.16875">
        <ele>2416.6000976562</ele>
        <time>2023-07-26T08:00:27.000Z</time>
      </trkpt>
      <trkpt lat="42.69658" lon="1.16875">
        <ele>2417.1999511719</ele>
        <time>2023-07-26T08:00:34.000Z</time>
      </trkpt>
      <trkpt lat="42.69661" lon="1.16873">
        <ele>2417.1999511719</ele>
        <time>2023-07-26T08:00:40.000Z</time>
      </trkpt>
      <trkpt lat="42.69667" lon="1.16868">
        <ele>2417.3999023438</ele>
        <time>2023-07-26T08:00:48.000Z</time>
      </trkpt>
      <trkpt lat="42.69668" lon="1.16865">
        <ele>2417.3999023438</ele>
        <time>2023-07-26T08:00:55.000Z</time>
      </trkpt>
      <trkpt lat="42.6967" lon="1.16865">
        <ele>2418</ele>
        <time>2023-07-26T08:00:58.000Z</time>
      </trkpt>
      <trkpt lat="42.6967" lon="1.16865">
        <ele>2418.6000976562</ele>
        <time>2023-07-26T08:01:02.000Z</time>
      </trkpt>
      <trkpt lat="42.69672" lon="1.16862">
        <ele>2418.8000488281</ele>
        <time>2023-07-26T08:01:08.000Z</time>
      </trkpt>
      <trkpt lat="42.69673" lon="1.16861">
        <ele>2419.1999511719</ele>
        <time>2023-07-26T08:01:12.000Z</time>
      </trkpt>
      <trkpt lat="42.69677" lon="1.16862">
        <ele>2420</ele>
        <time>2023-07-26T08:01:17.000Z</time>
      </trkpt>
      <trkpt lat="42.69679" lon="1.16863">
        <ele>2418.8000488281</ele>
        <time>2023-07-26T08:01:25.000Z</time>
      </trkpt>
      <trkpt lat="42.69679" lon="1.16865">
        <ele>2418</ele>
        <time>2023-07-26T08:01:29.000Z</time>
      </trkpt>
      <trkpt lat="42.6968" lon="1.16865">
        <ele>2417</ele>
        <time>2023-07-26T08:01:32.000Z</time>
      </trkpt>
      <trkpt lat="42.6968" lon="1.16864">
        <ele>2416.8000488281</ele>
        <time>2023-07-26T08:01:33.000Z</time>
      </trkpt>
      <trkpt lat="42.69681" lon="1.16863">
        <ele>2415.8000488281</ele>
        <time>2023-07-26T08:01:37.000Z</time>
      </trkpt>
      <trkpt lat="42.69683" lon="1.16862">
        <ele>2415.1999511719</ele>
        <time>2023-07-26T08:01:40.000Z</time>
      </trkpt>
      <trkpt lat="42.69685" lon="1.16862">
        <ele>2414.8000488281</ele>
        <time>2023-07-26T08:01:42.000Z</time>
      </trkpt>
      <trkpt lat="42.6969" lon="1.16864">
        <ele>2413.8000488281</ele>
        <time>2023-07-26T08:01:46.000Z</time>
      </trkpt>
      <trkpt lat="42.69693" lon="1.16866">
        <ele>2413.8000488281</ele>
        <time>2023-07-26T08:01:53.000Z</time>
      </trkpt>
      <trkpt lat="42.69695" lon="1.16866">
        <ele>2413</ele>
        <time>2023-07-26T08:02:02.000Z</time>
      </trkpt>
      <trkpt lat="42.69695" lon="1.16864">
        <ele>2412.6000976562</ele>
        <time>2023-07-26T08:02:05.000Z</time>
      </trkpt>
      <trkpt lat="42.69695" lon="1.16862">
        <ele>2412</ele>
        <time>2023-07-26T08:02:08.000Z</time>
      </trkpt>
      <trkpt lat="42.69695" lon="1.1686">
        <ele>2411.3999023438</ele>
        <time>2023-07-26T08:02:10.000Z</time>
      </trkpt>
      <trkpt lat="42.69696" lon="1.16863">
        <ele>2410.6000976562</ele>
        <time>2023-07-26T08:02:17.000Z</time>
      </trkpt>
      <trkpt lat="42.69696" lon="1.16864">
        <ele>2410.1999511719</ele>
        <time>2023-07-26T08:02:19.000Z</time>
      </trkpt>
      <trkpt lat="42.69697" lon="1.16867">
        <ele>2410.3999023438</ele>
        <time>2023-07-26T08:02:25.000Z</time>
      </trkpt>
      <trkpt lat="42.69701" lon="1.1687">
        <ele>2410</ele>
        <time>2023-07-26T08:02:31.000Z</time>
      </trkpt>
      <trkpt lat="42.69706" lon="1.16874">
        <ele>2409.1999511719</ele>
        <time>2023-07-26T08:02:36.000Z</time>
      </trkpt>
      <trkpt lat="42.69706" lon="1.16872">
        <ele>2408.6000976562</ele>
        <time>2023-07-26T08:02:38.000Z</time>
      </trkpt>
      <trkpt lat="42.69705" lon="1.16869">
        <ele>2408</ele>
        <time>2023-07-26T08:02:42.000Z</time>
      </trkpt>
      <trkpt lat="42.69704" lon="1.16865">
        <ele>2407.6000976562</ele>
        <time>2023-07-26T08:02:44.000Z</time>
      </trkpt>
      <trkpt lat="42.69703" lon="1.16861">
        <ele>2406.8000488281</ele>
        <time>2023-07-26T08:02:47.000Z</time>
      </trkpt>
      <trkpt lat="42.69704" lon="1.16861">
        <ele>2406.3999023438</ele>
        <time>2023-07-26T08:02:50.000Z</time>
      </trkpt>
      <trkpt lat="42.69703" lon="1.16861">
        <ele>2406</ele>
        <time>2023-07-26T08:02:58.000Z</time>
      </trkpt>
      <trkpt lat="42.69705" lon="1.16862">
        <ele>2406</ele>
        <time>2023-07-26T08:03:05.000Z</time>
      </trkpt>
      <trkpt lat="42.69706" lon="1.16863">
        <ele>2406</ele>
        <time>2023-07-26T08:03:14.000Z</time>
      </trkpt>
      <trkpt lat="42.69707" lon="1.16865">
        <ele>2405.8000488281</ele>
        <time>2023-07-26T08:03:17.000Z</time>
      </trkpt>
      <trkpt lat="42.69709" lon="1.16866">
        <ele>2405.6000976562</ele>
        <time>2023-07-26T08:03:20.000Z</time>
      </trkpt>
      <trkpt lat="42.6971" lon="1.16864">
        <ele>2404.8000488281</ele>
        <time>2023-07-26T08:03:23.000Z</time>
      </trkpt>
      <trkpt lat="42.6971" lon="1.16859">
        <ele>2404.1999511719</ele>
        <time>2023-07-26T08:03:26.000Z</time>
      </trkpt>
      <trkpt lat="42.69709" lon="1.16856">
        <ele>2403.3999023438</ele>
        <time>2023-07-26T08:03:29.000Z</time>
      </trkpt>
      <trkpt lat="42.6971" lon="1.16856">
        <ele>2402.8000488281</ele>
        <time>2023-07-26T08:03:31.000Z</time>
      </trkpt>
      <trkpt lat="42.6971" lon="1.16856">
        <ele>2402.6000976562</ele>
        <time>2023-07-26T08:03:32.000Z</time>
      </trkpt>
      <trkpt lat="42.69712" lon="1.16857">
        <ele>2402.3999023438</ele>
        <time>2023-07-26T08:03:34.000Z</time>
      </trkpt>
      <trkpt lat="42.69715" lon="1.16856">
        <ele>2401.3999023438</ele>
        <time>2023-07-26T08:03:40.000Z</time>
      </trkpt>
      <trkpt lat="42.69718" lon="1.16854">
        <ele>2400.1999511719</ele>
        <time>2023-07-26T08:03:45.000Z</time>
      </trkpt>
      <trkpt lat="42.69719" lon="1.16855">
        <ele>2399.8000488281</ele>
        <time>2023-07-26T08:03:47.000Z</time>
      </trkpt>
      <trkpt lat="42.69721" lon="1.16857">
        <ele>2399.6000976562</ele>
        <time>2023-07-26T08:03:54.000Z</time>
      </trkpt>
      <trkpt lat="42.69727" lon="1.16854">
        <ele>2399.1999511719</ele>
        <time>2023-07-26T08:04:01.000Z</time>
      </trkpt>
      <trkpt lat="42.6973" lon="1.16848">
        <ele>2399</ele>
        <time>2023-07-26T08:04:08.000Z</time>
      </trkpt>
      <trkpt lat="42.69735" lon="1.16843">
        <ele>2398.8000488281</ele>
        <time>2023-07-26T08:04:15.000Z</time>
      </trkpt>
      <trkpt lat="42.69741" lon="1.16837">
        <ele>2399</ele>
        <time>2023-07-26T08:04:21.000Z</time>
      </trkpt>
      <trkpt lat="42.69746" lon="1.1683">
        <ele>2399.1999511719</ele>
        <time>2023-07-26T08:04:28.000Z</time>
      </trkpt>
      <trkpt lat="42.69751" lon="1.16822">
        <ele>2400</ele>
        <time>2023-07-26T08:04:36.000Z</time>
      </trkpt>
      <trkpt lat="42.69754" lon="1.16818">
        <ele>2400.1999511719</ele>
        <time>2023-07-26T08:04:41.000Z</time>
      </trkpt>
      <trkpt lat="42.69755" lon="1.16817">
        <ele>2400.3999023438</ele>
        <time>2023-07-26T08:04:43.000Z</time>
      </trkpt>
      <trkpt lat="42.69759" lon="1.16813">
        <ele>2400.3999023438</ele>
        <time>2023-07-26T08:04:49.000Z</time>
      </trkpt>
      <trkpt lat="42.69761" lon="1.16813">
        <ele>2400.3999023438</ele>
        <time>2023-07-26T08:04:56.000Z</time>
      </trkpt>
      <trkpt lat="42.69764" lon="1.16808">
        <ele>2400.1999511719</ele>
        <time>2023-07-26T08:05:02.000Z</time>
      </trkpt>
      <trkpt lat="42.69767" lon="1.16798">
        <ele>2400</ele>
        <time>2023-07-26T08:05:10.000Z</time>
      </trkpt>
      <trkpt lat="42.69772" lon="1.16789">
        <ele>2401</ele>
        <time>2023-07-26T08:05:19.000Z</time>
      </trkpt>
      <trkpt lat="42.69774" lon="1.16787">
        <ele>2401.3999023438</ele>
        <time>2023-07-26T08:05:23.000Z</time>
      </trkpt>
      <trkpt lat="42.69777" lon="1.16784">
        <ele>2401.3999023438</ele>
        <time>2023-07-26T08:05:27.000Z</time>
      </trkpt>
      <trkpt lat="42.6978" lon="1.1678">
        <ele>2401.3999023438</ele>
        <time>2023-07-26T08:05:34.000Z</time>
      </trkpt>
      <trkpt lat="42.69783" lon="1.16782">
        <ele>2401</ele>
        <time>2023-07-26T08:05:43.000Z</time>
      </trkpt>
      <trkpt lat="42.69781" lon="1.16781">
        <ele>2401</ele>
        <time>2023-07-26T08:05:48.000Z</time>
      </trkpt>
      <trkpt lat="42.69781" lon="1.16782">
        <ele>2401</ele>
        <time>2023-07-26T08:05:49.000Z</time>
      </trkpt>
      <trkpt lat="42.69782" lon="1.16781">
        <ele>2400.8000488281</ele>
        <time>2023-07-26T08:05:56.000Z</time>
      </trkpt>
      <trkpt lat="42.69782" lon="1.16779">
        <ele>2400.1999511719</ele>
        <time>2023-07-26T08:06:04.000Z</time>
      </trkpt>
      <trkpt lat="42.69782" lon="1.16778">
        <ele>2400.1999511719</ele>
        <time>2023-07-26T08:06:07.000Z</time>
      </trkpt>
      <trkpt lat="42.6978" lon="1.16778">
        <ele>2400.3999023438</ele>
        <time>2023-07-26T08:06:17.000Z</time>
      </trkpt>
      <trkpt lat="42.69779" lon="1.1678">
        <ele>2400.1999511719</ele>
        <time>2023-07-26T08:06:23.000Z</time>
      </trkpt>
      <trkpt lat="42.6978" lon="1.16781">
        <ele>2400</ele>
        <time>2023-07-26T08:06:31.000Z</time>
      </trkpt>
      <trkpt lat="42.69779" lon="1.16781">
        <ele>2399.8000488281</ele>
        <time>2023-07-26T08:06:40.000Z</time>
      </trkpt>
      <trkpt lat="42.69782" lon="1.16782">
        <ele>2400</ele>
        <time>2023-07-26T08:06:46.000Z</time>
      </trkpt>
      <trkpt lat="42.69782" lon="1.16781">
        <ele>2400</ele>
        <time>2023-07-26T08:06:54.000Z</time>
      </trkpt>
      <trkpt lat="42.6978" lon="1.1678">
        <ele>2400</ele>
        <time>2023-07-26T08:07:02.000Z</time>
      </trkpt>
      <trkpt lat="42.69779" lon="1.16781">
        <ele>2400</ele>
        <time>2023-07-26T08:07:10.000Z</time>
      </trkpt>
      <trkpt lat="42.69778" lon="1.16778">
        <ele>2399.6000976562</ele>
        <time>2023-07-26T08:07:18.000Z</time>
      </trkpt>
      <trkpt lat="42.69776" lon="1.16773">
        <ele>2399.3999023438</ele>
        <time>2023-07-26T08:07:25.000Z</time>
      </trkpt>
      <trkpt lat="42.69776" lon="1.16772">
        <ele>2399.1999511719</ele>
        <time>2023-07-26T08:07:28.000Z</time>
      </trkpt>
      <trkpt lat="42.69776" lon="1.16772">
        <ele>2399</ele>
        <time>2023-07-26T08:07:33.000Z</time>
      </trkpt>
      <trkpt lat="42.69777" lon="1.16771">
        <ele>2398.8000488281</ele>
        <time>2023-07-26T08:07:40.000Z</time>
      </trkpt>
      <trkpt lat="42.6978" lon="1.16775">
        <ele>2399</ele>
        <time>2023-07-26T08:07:48.000Z</time>
      </trkpt>
      <trkpt lat="42.69781" lon="1.16779">
        <ele>2399</ele>
        <time>2023-07-26T08:07:57.000Z</time>
      </trkpt>
      <trkpt lat="42.69784" lon="1.16777">
        <ele>2398.3999023438</ele>
        <time>2023-07-26T08:08:05.000Z</time>
      </trkpt>
      <trkpt lat="42.69784" lon="1.16777">
        <ele>2398.1999511719</ele>
        <time>2023-07-26T08:08:06.000Z</time>
      </trkpt>
      <trkpt lat="42.69788" lon="1.16777">
        <ele>2397.1999511719</ele>
        <time>2023-07-26T08:08:12.000Z</time>
      </trkpt>
      <trkpt lat="42.69788" lon="1.16778">
        <ele>2397</ele>
        <time>2023-07-26T08:08:13.000Z</time>
      </trkpt>
      <trkpt lat="42.69794" lon="1.16779">
        <ele>2396.8000488281</ele>
        <time>2023-07-26T08:08:19.000Z</time>
      </trkpt>
      <trkpt lat="42.69797" lon="1.1678">
        <ele>2396.8000488281</ele>
        <time>2023-07-26T08:08:26.000Z</time>
      </trkpt>
      <trkpt lat="42.698" lon="1.16783">
        <ele>2395.8000488281</ele>
        <time>2023-07-26T08:08:31.000Z</time>
      </trkpt>
      <trkpt lat="42.69801" lon="1.16785">
        <ele>2395.3999023438</ele>
        <time>2023-07-26T08:08:34.000Z</time>
      </trkpt>
      <trkpt lat="42.69803" lon="1.16788">
        <ele>2394.8000488281</ele>
        <time>2023-07-26T08:08:37.000Z</time>
      </trkpt>
      <trkpt lat="42.69806" lon="1.1679">
        <ele>2394</ele>
        <time>2023-07-26T08:08:42.000Z</time>
      </trkpt>
      <trkpt lat="42.69806" lon="1.16791">
        <ele>2393.8000488281</ele>
        <time>2023-07-26T08:08:43.000Z</time>
      </trkpt>
      <trkpt lat="42.69813" lon="1.16791">
        <ele>2393.3999023438</ele>
        <time>2023-07-26T08:08:50.000Z</time>
      </trkpt>
      <trkpt lat="42.69819" lon="1.16791">
        <ele>2393.6000976562</ele>
        <time>2023-07-26T08:08:58.000Z</time>
      </trkpt>
      <trkpt lat="42.69823" lon="1.16789">
        <ele>2394.8000488281</ele>
        <time>2023-07-26T08:09:06.000Z</time>
      </trkpt>
      <trkpt lat="42.69823" lon="1.16788">
        <ele>2394.8000488281</ele>
        <time>2023-07-26T08:09:07.000Z</time>
      </trkpt>
      <trkpt lat="42.69829" lon="1.16788">
        <ele>2395</ele>
        <time>2023-07-26T08:09:17.000Z</time>
      </trkpt>
      <trkpt lat="42.69833" lon="1.16793">
        <ele>2394.6000976562</ele>
        <time>2023-07-26T08:09:24.000Z</time>
      </trkpt>
      <trkpt lat="42.69839" lon="1.16797">
        <ele>2393.8000488281</ele>
        <time>2023-07-26T08:09:30.000Z</time>
      </trkpt>
      <trkpt lat="42.69839" lon="1.16796">
        <ele>2393.6000976562</ele>
        <time>2023-07-26T08:09:31.000Z</time>
      </trkpt>
      <trkpt lat="42.6984" lon="1.16794">
        <ele>2393</ele>
        <time>2023-07-26T08:09:35.000Z</time>
      </trkpt>
      <trkpt lat="42.69839" lon="1.16793">
        <ele>2392.6000976562</ele>
        <time>2023-07-26T08:09:37.000Z</time>
      </trkpt>
      <trkpt lat="42.6984" lon="1.16791">
        <ele>2392.1999511719</ele>
        <time>2023-07-26T08:09:38.000Z</time>
      </trkpt>
      <trkpt lat="42.69838" lon="1.16787">
        <ele>2391.3999023438</ele>
        <time>2023-07-26T08:09:42.000Z</time>
      </trkpt>
      <trkpt lat="42.69838" lon="1.16785">
        <ele>2390.8000488281</ele>
        <time>2023-07-26T08:09:44.000Z</time>
      </trkpt>
      <trkpt lat="42.69839" lon="1.1678">
        <ele>2390.1999511719</ele>
        <time>2023-07-26T08:09:48.000Z</time>
      </trkpt>
      <trkpt lat="42.69842" lon="1.16778">
        <ele>2389.6000976562</ele>
        <time>2023-07-26T08:09:51.000Z</time>
      </trkpt>
      <trkpt lat="42.69844" lon="1.16777">
        <ele>2389</ele>
        <time>2023-07-26T08:09:53.000Z</time>
      </trkpt>
      <trkpt lat="42.69848" lon="1.16776">
        <ele>2388.1999511719</ele>
        <time>2023-07-26T08:09:59.000Z</time>
      </trkpt>
      <trkpt lat="42.69849" lon="1.16775">
        <ele>2388</ele>
        <time>2023-07-26T08:10:00.000Z</time>
      </trkpt>
      <trkpt lat="42.69851" lon="1.16774">
        <ele>2386.8000488281</ele>
        <time>2023-07-26T08:10:05.000Z</time>
      </trkpt>
      <trkpt lat="42.69851" lon="1.16774">
        <ele>2386.6000976562</ele>
        <time>2023-07-26T08:10:06.000Z</time>
      </trkpt>
      <trkpt lat="42.69854" lon="1.16771">
        <ele>2385.6000976562</ele>
        <time>2023-07-26T08:10:11.000Z</time>
      </trkpt>
      <trkpt lat="42.69854" lon="1.16771">
        <ele>2385.1999511719</ele>
        <time>2023-07-26T08:10:12.000Z</time>
      </trkpt>
      <trkpt lat="42.69852" lon="1.16773">
        <ele>2384.8000488281</ele>
        <time>2023-07-26T08:10:17.000Z</time>
      </trkpt>
      <trkpt lat="42.69854" lon="1.16769">
        <ele>2384.6000976562</ele>
        <time>2023-07-26T08:10:25.000Z</time>
      </trkpt>
      <trkpt lat="42.69853" lon="1.16765">
        <ele>2384.8000488281</ele>
        <time>2023-07-26T08:10:33.000Z</time>
      </trkpt>
      <trkpt lat="42.6985" lon="1.16763">
        <ele>2385.3999023438</ele>
        <time>2023-07-26T08:10:39.000Z</time>
      </trkpt>
      <trkpt lat="42.69847" lon="1.16758">
        <ele>2386.6000976562</ele>
        <time>2023-07-26T08:10:45.000Z</time>
      </trkpt>
      <trkpt lat="42.69846" lon="1.16757">
        <ele>2386.8000488281</ele>
        <time>2023-07-26T08:10:46.000Z</time>
      </trkpt>
      <trkpt lat="42.69841" lon="1.16751">
        <ele>2387</ele>
        <time>2023-07-26T08:10:52.000Z</time>
      </trkpt>
      <trkpt lat="42.69839" lon="1.1675">
        <ele>2386.6000976562</ele>
        <time>2023-07-26T08:10:59.000Z</time>
      </trkpt>
      <trkpt lat="42.69839" lon="1.16744">
        <ele>2386.8000488281</ele>
        <time>2023-07-26T08:11:06.000Z</time>
      </trkpt>
      <trkpt lat="42.69839" lon="1.16737">
        <ele>2387.3999023438</ele>
        <time>2023-07-26T08:11:11.000Z</time>
      </trkpt>
      <trkpt lat="42.69837" lon="1.1673">
        <ele>2386.3999023438</ele>
        <time>2023-07-26T08:11:19.000Z</time>
      </trkpt>
      <trkpt lat="42.69837" lon="1.16724">
        <ele>2385.6000976562</ele>
        <time>2023-07-26T08:11:24.000Z</time>
      </trkpt>
      <trkpt lat="42.69839" lon="1.16721">
        <ele>2384.8000488281</ele>
        <time>2023-07-26T08:11:28.000Z</time>
      </trkpt>
      <trkpt lat="42.69839" lon="1.1672">
        <ele>2384.3999023438</ele>
        <time>2023-07-26T08:11:30.000Z</time>
      </trkpt>
      <trkpt lat="42.69838" lon="1.16717">
        <ele>2383.1999511719</ele>
        <time>2023-07-26T08:11:35.000Z</time>
      </trkpt>
      <trkpt lat="42.69838" lon="1.16711">
        <ele>2382.1999511719</ele>
        <time>2023-07-26T08:11:41.000Z</time>
      </trkpt>
      <trkpt lat="42.69835" lon="1.16707">
        <ele>2381</ele>
        <time>2023-07-26T08:11:48.000Z</time>
      </trkpt>
      <trkpt lat="42.69834" lon="1.16703">
        <ele>2380</ele>
        <time>2023-07-26T08:11:53.000Z</time>
      </trkpt>
      <trkpt lat="42.69835" lon="1.16702">
        <ele>2379.8000488281</ele>
        <time>2023-07-26T08:11:54.000Z</time>
      </trkpt>
      <trkpt lat="42.69835" lon="1.16694">
        <ele>2379.3999023438</ele>
        <time>2023-07-26T08:12:01.000Z</time>
      </trkpt>
      <trkpt lat="42.69834" lon="1.16688">
        <ele>2379</ele>
        <time>2023-07-26T08:12:08.000Z</time>
      </trkpt>
      <trkpt lat="42.69834" lon="1.16688">
        <ele>2379</ele>
        <time>2023-07-26T08:12:09.000Z</time>
      </trkpt>
      <trkpt lat="42.69833" lon="1.16685">
        <ele>2378.6000976562</ele>
        <time>2023-07-26T08:12:13.000Z</time>
      </trkpt>
      <trkpt lat="42.69831" lon="1.16684">
        <ele>2378.1999511719</ele>
        <time>2023-07-26T08:12:17.000Z</time>
      </trkpt>
      <trkpt lat="42.6983" lon="1.16683">
        <ele>2377.8000488281</ele>
        <time>2023-07-26T08:12:19.000Z</time>
      </trkpt>
      <trkpt lat="42.69832" lon="1.16682">
        <ele>2377.3999023438</ele>
        <time>2023-07-26T08:12:24.000Z</time>
      </trkpt>
      <trkpt lat="42.69837" lon="1.16673">
        <ele>2377.8000488281</ele>
        <time>2023-07-26T08:12:31.000Z</time>
      </trkpt>
      <trkpt lat="42.69842" lon="1.16667">
        <ele>2377.6000976562</ele>
        <time>2023-07-26T08:12:40.000Z</time>
      </trkpt>
      <trkpt lat="42.69842" lon="1.16667">
        <ele>2377.1999511719</ele>
        <time>2023-07-26T08:12:44.000Z</time>
      </trkpt>
      <trkpt lat="42.69841" lon="1.16667">
        <ele>2377</ele>
        <time>2023-07-26T08:12:46.000Z</time>
      </trkpt>
      <trkpt lat="42.69839" lon="1.16668">
        <ele>2376.8000488281</ele>
        <time>2023-07-26T08:12:53.000Z</time>
      </trkpt>
      <trkpt lat="42.69844" lon="1.16669">
        <ele>2376.8000488281</ele>
        <time>2023-07-26T08:13:03.000Z</time>
      </trkpt>
      <trkpt lat="42.69843" lon="1.16668">
        <ele>2377</ele>
        <time>2023-07-26T08:13:11.000Z</time>
      </trkpt>
      <trkpt lat="42.69848" lon="1.16661">
        <ele>2377</ele>
        <time>2023-07-26T08:13:18.000Z</time>
      </trkpt>
      <trkpt lat="42.69851" lon="1.1666">
        <ele>2376.6000976562</ele>
        <time>2023-07-26T08:13:20.000Z</time>
      </trkpt>
      <trkpt lat="42.69854" lon="1.1666">
        <ele>2375.3999023438</ele>
        <time>2023-07-26T08:13:25.000Z</time>
      </trkpt>
      <trkpt lat="42.69855" lon="1.16659">
        <ele>2375.1999511719</ele>
        <time>2023-07-26T08:13:27.000Z</time>
      </trkpt>
      <trkpt lat="42.69859" lon="1.16657">
        <ele>2374.6000976562</ele>
        <time>2023-07-26T08:13:34.000Z</time>
      </trkpt>
      <trkpt lat="42.69861" lon="1.16657">
        <ele>2374.3999023438</ele>
        <time>2023-07-26T08:13:36.000Z</time>
      </trkpt>
      <trkpt lat="42.69866" lon="1.16656">
        <ele>2373.1999511719</ele>
        <time>2023-07-26T08:13:41.000Z</time>
      </trkpt>
      <trkpt lat="42.69867" lon="1.16656">
        <ele>2372.8000488281</ele>
        <time>2023-07-26T08:13:43.000Z</time>
      </trkpt>
      <trkpt lat="42.69873" lon="1.16652">
        <ele>2372.1999511719</ele>
        <time>2023-07-26T08:13:50.000Z</time>
      </trkpt>
      <trkpt lat="42.69879" lon="1.16651">
        <ele>2371.8000488281</ele>
        <time>2023-07-26T08:13:57.000Z</time>
      </trkpt>
      <trkpt lat="42.69884" lon="1.1665">
        <ele>2371.3999023438</ele>
        <time>2023-07-26T08:14:04.000Z</time>
      </trkpt>
      <trkpt lat="42.69887" lon="1.1665">
        <ele>2371.1999511719</ele>
        <time>2023-07-26T08:14:11.000Z</time>
      </trkpt>
      <trkpt lat="42.69887" lon="1.16657">
        <ele>2371.3999023438</ele>
        <time>2023-07-26T08:14:17.000Z</time>
      </trkpt>
      <trkpt lat="42.69887" lon="1.16655">
        <ele>2371.1999511719</ele>
        <time>2023-07-26T08:14:24.000Z</time>
      </trkpt>
      <trkpt lat="42.69888" lon="1.16655">
        <ele>2371.3999023438</ele>
        <time>2023-07-26T08:14:31.000Z</time>
      </trkpt>
      <trkpt lat="42.69885" lon="1.16657">
        <ele>2371.1999511719</ele>
        <time>2023-07-26T08:14:37.000Z</time>
      </trkpt>
      <trkpt lat="42.69883" lon="1.16657">
        <ele>2371.1999511719</ele>
        <time>2023-07-26T08:14:39.000Z</time>
      </trkpt>
      <trkpt lat="42.69883" lon="1.16656">
        <ele>2371.1999511719</ele>
        <time>2023-07-26T08:14:42.000Z</time>
      </trkpt>
      <trkpt lat="42.69886" lon="1.16657">
        <ele>2371.3999023438</ele>
        <time>2023-07-26T08:14:48.000Z</time>
      </trkpt>
      <trkpt lat="42.69886" lon="1.16659">
        <ele>2371.3999023438</ele>
        <time>2023-07-26T08:14:59.000Z</time>
      </trkpt>
      <trkpt lat="42.69888" lon="1.16655">
        <ele>2371.6000976562</ele>
        <time>2023-07-26T08:15:06.000Z</time>
      </trkpt>
      <trkpt lat="42.69894" lon="1.1665">
        <ele>2372</ele>
        <time>2023-07-26T08:15:14.000Z</time>
      </trkpt>
      <trkpt lat="42.699" lon="1.16647">
        <ele>2371.8000488281</ele>
        <time>2023-07-26T08:15:21.000Z</time>
      </trkpt>
      <trkpt lat="42.69908" lon="1.16645">
        <ele>2372</ele>
        <time>2023-07-26T08:15:30.000Z</time>
      </trkpt>
      <trkpt lat="42.69912" lon="1.16644">
        <ele>2372.1999511719</ele>
        <time>2023-07-26T08:15:34.000Z</time>
      </trkpt>
      <trkpt lat="42.69915" lon="1.16643">
        <ele>2372.1999511719</ele>
        <time>2023-07-26T08:15:37.000Z</time>
      </trkpt>
      <trkpt lat="42.69919" lon="1.16637">
        <ele>2372.1999511719</ele>
        <time>2023-07-26T08:15:43.000Z</time>
      </trkpt>
      <trkpt lat="42.69918" lon="1.16631">
        <ele>2372.6000976562</ele>
        <time>2023-07-26T08:15:49.000Z</time>
      </trkpt>
      <trkpt lat="42.69918" lon="1.16626">
        <ele>2373.1999511719</ele>
        <time>2023-07-26T08:15:55.000Z</time>
      </trkpt>
      <trkpt lat="42.69918" lon="1.16624">
        <ele>2373.3999023438</ele>
        <time>2023-07-26T08:15:56.000Z</time>
      </trkpt>
      <trkpt lat="42.69916" lon="1.16614">
        <ele>2374.1999511719</ele>
        <time>2023-07-26T08:16:04.000Z</time>
      </trkpt>
      <trkpt lat="42.69911" lon="1.16609">
        <ele>2373.8000488281</ele>
        <time>2023-07-26T08:16:10.000Z</time>
      </trkpt>
      <trkpt lat="42.69908" lon="1.16606">
        <ele>2374</ele>
        <time>2023-07-26T08:16:18.000Z</time>
      </trkpt>
      <trkpt lat="42.69909" lon="1.16606">
        <ele>2374.1999511719</ele>
        <time>2023-07-26T08:16:19.000Z</time>
      </trkpt>
      <trkpt lat="42.69909" lon="1.16607">
        <ele>2374.1999511719</ele>
        <time>2023-07-26T08:16:20.000Z</time>
      </trkpt>
      <trkpt lat="42.69909" lon="1.16606">
        <ele>2374.8000488281</ele>
        <time>2023-07-26T08:16:25.000Z</time>
      </trkpt>
      <trkpt lat="42.69907" lon="1.16606">
        <ele>2374.6000976562</ele>
        <time>2023-07-26T08:16:33.000Z</time>
      </trkpt>
      <trkpt lat="42.69911" lon="1.16603">
        <ele>2374.8000488281</ele>
        <time>2023-07-26T08:16:41.000Z</time>
      </trkpt>
      <trkpt lat="42.69908" lon="1.16604">
        <ele>2374.8000488281</ele>
        <time>2023-07-26T08:16:48.000Z</time>
      </trkpt>
      <trkpt lat="42.6991" lon="1.16601">
        <ele>2373.8000488281</ele>
        <time>2023-07-26T08:16:56.000Z</time>
      </trkpt>
      <trkpt lat="42.6991" lon="1.16597">
        <ele>2373</ele>
        <time>2023-07-26T08:17:00.000Z</time>
      </trkpt>
      <trkpt lat="42.69911" lon="1.16592">
        <ele>2372.3999023438</ele>
        <time>2023-07-26T08:17:03.000Z</time>
      </trkpt>
      <trkpt lat="42.6991" lon="1.1659">
        <ele>2372</ele>
        <time>2023-07-26T08:17:05.000Z</time>
      </trkpt>
      <trkpt lat="42.69911" lon="1.16584">
        <ele>2372</ele>
        <time>2023-07-26T08:17:10.000Z</time>
      </trkpt>
      <trkpt lat="42.69915" lon="1.16579">
        <ele>2371.6000976562</ele>
        <time>2023-07-26T08:17:16.000Z</time>
      </trkpt>
      <trkpt lat="42.6992" lon="1.16574">
        <ele>2371.6000976562</ele>
        <time>2023-07-26T08:17:23.000Z</time>
      </trkpt>
      <trkpt lat="42.69921" lon="1.16565">
        <ele>2371.1999511719</ele>
        <time>2023-07-26T08:17:30.000Z</time>
      </trkpt>
      <trkpt lat="42.69924" lon="1.16564">
        <ele>2371.3999023438</ele>
        <time>2023-07-26T08:17:37.000Z</time>
      </trkpt>
      <trkpt lat="42.69926" lon="1.16563">
        <ele>2371.3999023438</ele>
        <time>2023-07-26T08:17:42.000Z</time>
      </trkpt>
      <trkpt lat="42.69929" lon="1.16561">
        <ele>2371.6000976562</ele>
        <time>2023-07-26T08:17:49.000Z</time>
      </trkpt>
      <trkpt lat="42.69935" lon="1.16559">
        <ele>2372</ele>
        <time>2023-07-26T08:17:58.000Z</time>
      </trkpt>
      <trkpt lat="42.69939" lon="1.16556">
        <ele>2372.1999511719</ele>
        <time>2023-07-26T08:18:06.000Z</time>
      </trkpt>
      <trkpt lat="42.69943" lon="1.16556">
        <ele>2372.8000488281</ele>
        <time>2023-07-26T08:18:13.000Z</time>
      </trkpt>
      <trkpt lat="42.69949" lon="1.16553">
        <ele>2372.3999023438</ele>
        <time>2023-07-26T08:18:20.000Z</time>
      </trkpt>
      <trkpt lat="42.69951" lon="1.16551">
        <ele>2372.6000976562</ele>
        <time>2023-07-26T08:18:27.000Z</time>
      </trkpt>
      <trkpt lat="42.69954" lon="1.16551">
        <ele>2372.8000488281</ele>
        <time>2023-07-26T08:18:34.000Z</time>
      </trkpt>
      <trkpt lat="42.69953" lon="1.16551">
        <ele>2372.6000976562</ele>
        <time>2023-07-26T08:18:42.000Z</time>
      </trkpt>
      <trkpt lat="42.69957" lon="1.16547">
        <ele>2372.1999511719</ele>
        <time>2023-07-26T08:18:49.000Z</time>
      </trkpt>
      <trkpt lat="42.6996" lon="1.1654">
        <ele>2372.1999511719</ele>
        <time>2023-07-26T08:18:55.000Z</time>
      </trkpt>
      <trkpt lat="42.69961" lon="1.16535">
        <ele>2372.3999023438</ele>
        <time>2023-07-26T08:19:01.000Z</time>
      </trkpt>
      <trkpt lat="42.69963" lon="1.16525">
        <ele>2372.3999023438</ele>
        <time>2023-07-26T08:19:09.000Z</time>
      </trkpt>
      <trkpt lat="42.69967" lon="1.16517">
        <ele>2372.6000976562</ele>
        <time>2023-07-26T08:19:16.000Z</time>
      </trkpt>
      <trkpt lat="42.69971" lon="1.16515">
        <ele>2373</ele>
        <time>2023-07-26T08:19:21.000Z</time>
      </trkpt>
      <trkpt lat="42.69973" lon="1.16514">
        <ele>2373.1999511719</ele>
        <time>2023-07-26T08:19:24.000Z</time>
      </trkpt>
      <trkpt lat="42.69976" lon="1.16515">
        <ele>2373.6000976562</ele>
        <time>2023-07-26T08:19:30.000Z</time>
      </trkpt>
      <trkpt lat="42.6998" lon="1.16518">
        <ele>2374</ele>
        <time>2023-07-26T08:19:38.000Z</time>
      </trkpt>
      <trkpt lat="42.69981" lon="1.16518">
        <ele>2374.1999511719</ele>
        <time>2023-07-26T08:19:39.000Z</time>
      </trkpt>
      <trkpt lat="42.69983" lon="1.16518">
        <ele>2374.6000976562</ele>
        <time>2023-07-26T08:19:43.000Z</time>
      </trkpt>
      <trkpt lat="42.69983" lon="1.16519">
        <ele>2374.8000488281</ele>
        <time>2023-07-26T08:19:51.000Z</time>
      </trkpt>
      <trkpt lat="42.69983" lon="1.16519">
        <ele>2374.8000488281</ele>
        <time>2023-07-26T08:19:52.000Z</time>
      </trkpt>
      <trkpt lat="42.69984" lon="1.16517">
        <ele>2374.8000488281</ele>
        <time>2023-07-26T08:20:01.000Z</time>
      </trkpt>
      <trkpt lat="42.69987" lon="1.16516">
        <ele>2375</ele>
        <time>2023-07-26T08:20:09.000Z</time>
      </trkpt>
      <trkpt lat="42.69985" lon="1.16515">
        <ele>2374.8000488281</ele>
        <time>2023-07-26T08:20:17.000Z</time>
      </trkpt>
      <trkpt lat="42.69986" lon="1.16515">
        <ele>2375</ele>
        <time>2023-07-26T08:20:25.000Z</time>
      </trkpt>
      <trkpt lat="42.69988" lon="1.16515">
        <ele>2375</ele>
        <time>2023-07-26T08:20:33.000Z</time>
      </trkpt>
      <trkpt lat="42.69986" lon="1.16512">
        <ele>2375.1999511719</ele>
        <time>2023-07-26T08:20:40.000Z</time>
      </trkpt>
      <trkpt lat="42.69976" lon="1.16515">
        <ele>2374.1999511719</ele>
        <time>2023-07-26T08:20:49.000Z</time>
      </trkpt>
      <trkpt lat="42.69974" lon="1.16515">
        <ele>2374</ele>
        <time>2023-07-26T08:20:51.000Z</time>
      </trkpt>
      <trkpt lat="42.69969" lon="1.16515">
        <ele>2373.8000488281</ele>
        <time>2023-07-26T08:20:57.000Z</time>
      </trkpt>
      <trkpt lat="42.69964" lon="1.16515">
        <ele>2373.1999511719</ele>
        <time>2023-07-26T08:21:03.000Z</time>
      </trkpt>
      <trkpt lat="42.69963" lon="1.16515">
        <ele>2373</ele>
        <time>2023-07-26T08:21:04.000Z</time>
      </trkpt>
      <trkpt lat="42.69958" lon="1.16514">
        <ele>2372.1999511719</ele>
        <time>2023-07-26T08:21:09.000Z</time>
      </trkpt>
      <trkpt lat="42.69955" lon="1.16513">
        <ele>2372</ele>
        <time>2023-07-26T08:21:12.000Z</time>
      </trkpt>
      <trkpt lat="42.69951" lon="1.16511">
        <ele>2371.8000488281</ele>
        <time>2023-07-26T08:21:16.000Z</time>
      </trkpt>
      <trkpt lat="42.69947" lon="1.16508">
        <ele>2371.1999511719</ele>
        <time>2023-07-26T08:21:23.000Z</time>
      </trkpt>
      <trkpt lat="42.69947" lon="1.16508">
        <ele>2371.1999511719</ele>
        <time>2023-07-26T08:21:26.000Z</time>
      </trkpt>
      <trkpt lat="42.69946" lon="1.16507">
        <ele>2371.6000976562</ele>
        <time>2023-07-26T08:21:31.000Z</time>
      </trkpt>
      <trkpt lat="42.69943" lon="1.1651">
        <ele>2371.8000488281</ele>
        <time>2023-07-26T08:21:40.000Z</time>
      </trkpt>
      <trkpt lat="42.69948" lon="1.16508">
        <ele>2372</ele>
        <time>2023-07-26T08:21:46.000Z</time>
      </trkpt>
      <trkpt lat="42.69944" lon="1.16504">
        <ele>2371.6000976562</ele>
        <time>2023-07-26T08:21:53.000Z</time>
      </trkpt>
      <trkpt lat="42.69938" lon="1.16505">
        <ele>2370.8000488281</ele>
        <time>2023-07-26T08:21:58.000Z</time>
      </trkpt>
      <trkpt lat="42.69936" lon="1.16505">
        <ele>2369.6000976562</ele>
        <time>2023-07-26T08:22:00.000Z</time>
      </trkpt>
      <trkpt lat="42.69935" lon="1.16505">
        <ele>2369.6000976562</ele>
        <time>2023-07-26T08:22:01.000Z</time>
      </trkpt>
      <trkpt lat="42.69931" lon="1.16502">
        <ele>2369</ele>
        <time>2023-07-26T08:22:06.000Z</time>
      </trkpt>
      <trkpt lat="42.69929" lon="1.16498">
        <ele>2368.6000976562</ele>
        <time>2023-07-26T08:22:10.000Z</time>
      </trkpt>
      <trkpt lat="42.69927" lon="1.16496">
        <ele>2368</ele>
        <time>2023-07-26T08:22:13.000Z</time>
      </trkpt>
      <trkpt lat="42.6992" lon="1.16495">
        <ele>2368</ele>
        <time>2023-07-26T08:22:20.000Z</time>
      </trkpt>
      <trkpt lat="42.69919" lon="1.16495">
        <ele>2367.6000976562</ele>
        <time>2023-07-26T08:22:21.000Z</time>
      </trkpt>
      <trkpt lat="42.69916" lon="1.16494">
        <ele>2367.3999023438</ele>
        <time>2023-07-26T08:22:26.000Z</time>
      </trkpt>
      <trkpt lat="42.69913" lon="1.16485">
        <ele>2366.6000976562</ele>
        <time>2023-07-26T08:22:34.000Z</time>
      </trkpt>
      <trkpt lat="42.69912" lon="1.16484">
        <ele>2366.3999023438</ele>
        <time>2023-07-26T08:22:36.000Z</time>
      </trkpt>
      <trkpt lat="42.6991" lon="1.16481">
        <ele>2366</ele>
        <time>2023-07-26T08:22:39.000Z</time>
      </trkpt>
      <trkpt lat="42.69905" lon="1.1648">
        <ele>2366</ele>
        <time>2023-07-26T08:22:47.000Z</time>
      </trkpt>
      <trkpt lat="42.69905" lon="1.1648">
        <ele>2366.3999023438</ele>
        <time>2023-07-26T08:23:00.000Z</time>
      </trkpt>
      <trkpt lat="42.69905" lon="1.1648">
        <ele>2366.6000976562</ele>
        <time>2023-07-26T08:23:22.000Z</time>
      </trkpt>
      <trkpt lat="42.69904" lon="1.1648">
        <ele>2366.8000488281</ele>
        <time>2023-07-26T08:23:33.000Z</time>
      </trkpt>
      <trkpt lat="42.69905" lon="1.16482">
        <ele>2367</ele>
        <time>2023-07-26T08:23:42.000Z</time>
      </trkpt>
      <trkpt lat="42.69904" lon="1.1648">
        <ele>2366.8000488281</ele>
        <time>2023-07-26T08:23:52.000Z</time>
      </trkpt>
      <trkpt lat="42.69903" lon="1.16479">
        <ele>2367</ele>
        <time>2023-07-26T08:24:04.000Z</time>
      </trkpt>
      <trkpt lat="42.69898" lon="1.16482">
        <ele>2367</ele>
        <time>2023-07-26T08:24:11.000Z</time>
      </trkpt>
      <trkpt lat="42.69895" lon="1.16484">
        <ele>2367</ele>
        <time>2023-07-26T08:24:17.000Z</time>
      </trkpt>
      <trkpt lat="42.69895" lon="1.1648">
        <ele>2365.3999023438</ele>
        <time>2023-07-26T08:24:22.000Z</time>
      </trkpt>
      <trkpt lat="42.69891" lon="1.1648">
        <ele>2365.6000976562</ele>
        <time>2023-07-26T08:24:26.000Z</time>
      </trkpt>
      <trkpt lat="42.69886" lon="1.16482">
        <ele>2366.8000488281</ele>
        <time>2023-07-26T08:24:31.000Z</time>
      </trkpt>
      <trkpt lat="42.69884" lon="1.16483">
        <ele>2367.6000976562</ele>
        <time>2023-07-26T08:24:33.000Z</time>
      </trkpt>
      <trkpt lat="42.69884" lon="1.16483">
        <ele>2368</ele>
        <time>2023-07-26T08:24:34.000Z</time>
      </trkpt>
      <trkpt lat="42.6988" lon="1.16484">
        <ele>2368</ele>
        <time>2023-07-26T08:24:39.000Z</time>
      </trkpt>
      <trkpt lat="42.69878" lon="1.16483">
        <ele>2367</ele>
        <time>2023-07-26T08:24:41.000Z</time>
      </trkpt>
      <trkpt lat="42.69874" lon="1.1648">
        <ele>2366</ele>
        <time>2023-07-26T08:24:47.000Z</time>
      </trkpt>
      <trkpt lat="42.69868" lon="1.16476">
        <ele>2367</ele>
        <time>2023-07-26T08:24:55.000Z</time>
      </trkpt>
      <trkpt lat="42.69865" lon="1.1647">
        <ele>2368.1999511719</ele>
        <time>2023-07-26T08:25:02.000Z</time>
      </trkpt>
      <trkpt lat="42.69865" lon="1.16468">
        <ele>2368.8000488281</ele>
        <time>2023-07-26T08:25:05.000Z</time>
      </trkpt>
      <trkpt lat="42.69864" lon="1.16464">
        <ele>2369.1999511719</ele>
        <time>2023-07-26T08:25:10.000Z</time>
      </trkpt>
      <trkpt lat="42.69862" lon="1.16461">
        <ele>2369.6000976562</ele>
        <time>2023-07-26T08:25:13.000Z</time>
      </trkpt>
      <trkpt lat="42.69861" lon="1.16458">
        <ele>2370.8000488281</ele>
        <time>2023-07-26T08:25:17.000Z</time>
      </trkpt>
      <trkpt lat="42.69861" lon="1.16459">
        <ele>2371.3999023438</ele>
        <time>2023-07-26T08:25:20.000Z</time>
      </trkpt>
      <trkpt lat="42.69861" lon="1.16459">
        <ele>2371.3999023438</ele>
        <time>2023-07-26T08:25:21.000Z</time>
      </trkpt>
      <trkpt lat="42.69861" lon="1.1646">
        <ele>2371.3999023438</ele>
        <time>2023-07-26T08:25:27.000Z</time>
      </trkpt>
      <trkpt lat="42.69863" lon="1.1646">
        <ele>2371.1999511719</ele>
        <time>2023-07-26T08:25:37.000Z</time>
      </trkpt>
      <trkpt lat="42.69865" lon="1.16458">
        <ele>2370.8000488281</ele>
        <time>2023-07-26T08:25:43.000Z</time>
      </trkpt>
      <trkpt lat="42.69864" lon="1.16449">
        <ele>2369.8000488281</ele>
        <time>2023-07-26T08:25:49.000Z</time>
      </trkpt>
      <trkpt lat="42.69862" lon="1.16439">
        <ele>2369.1999511719</ele>
        <time>2023-07-26T08:25:56.000Z</time>
      </trkpt>
      <trkpt lat="42.69858" lon="1.16429">
        <ele>2369.1999511719</ele>
        <time>2023-07-26T08:26:03.000Z</time>
      </trkpt>
      <trkpt lat="42.69856" lon="1.16424">
        <ele>2369.6000976562</ele>
        <time>2023-07-26T08:26:09.000Z</time>
      </trkpt>
      <trkpt lat="42.69851" lon="1.16414">
        <ele>2370</ele>
        <time>2023-07-26T08:26:16.000Z</time>
      </trkpt>
      <trkpt lat="42.69847" lon="1.16409">
        <ele>2369.6000976562</ele>
        <time>2023-07-26T08:26:22.000Z</time>
      </trkpt>
      <trkpt lat="42.69842" lon="1.16402">
        <ele>2369</ele>
        <time>2023-07-26T08:26:29.000Z</time>
      </trkpt>
      <trkpt lat="42.69838" lon="1.16395">
        <ele>2369</ele>
        <time>2023-07-26T08:26:38.000Z</time>
      </trkpt>
      <trkpt lat="42.6984" lon="1.16395">
        <ele>2369.6000976562</ele>
        <time>2023-07-26T08:26:45.000Z</time>
      </trkpt>
      <trkpt lat="42.69839" lon="1.16395">
        <ele>2369.3999023438</ele>
        <time>2023-07-26T08:26:47.000Z</time>
      </trkpt>
      <trkpt lat="42.69839" lon="1.16394">
        <ele>2369.3999023438</ele>
        <time>2023-07-26T08:26:55.000Z</time>
      </trkpt>
      <trkpt lat="42.69838" lon="1.16394">
        <ele>2369.3999023438</ele>
        <time>2023-07-26T08:27:01.000Z</time>
      </trkpt>
      <trkpt lat="42.69839" lon="1.16395">
        <ele>2369.6000976562</ele>
        <time>2023-07-26T08:27:10.000Z</time>
      </trkpt>
      <trkpt lat="42.69838" lon="1.16394">
        <ele>2369.6000976562</ele>
        <time>2023-07-26T08:27:16.000Z</time>
      </trkpt>
      <trkpt lat="42.69837" lon="1.16396">
        <ele>2369.3999023438</ele>
        <time>2023-07-26T08:27:25.000Z</time>
      </trkpt>
      <trkpt lat="42.69838" lon="1.16401">
        <ele>2369.6000976562</ele>
        <time>2023-07-26T08:27:34.000Z</time>
      </trkpt>
      <trkpt lat="42.6984" lon="1.16407">
        <ele>2369.8000488281</ele>
        <time>2023-07-26T08:27:43.000Z</time>
      </trkpt>
      <trkpt lat="42.69841" lon="1.16402">
        <ele>2369.6000976562</ele>
        <time>2023-07-26T08:27:51.000Z</time>
      </trkpt>
      <trkpt lat="42.69841" lon="1.164">
        <ele>2370</ele>
        <time>2023-07-26T08:28:00.000Z</time>
      </trkpt>
      <trkpt lat="42.69843" lon="1.16399">
        <ele>2370</ele>
        <time>2023-07-26T08:28:09.000Z</time>
      </trkpt>
      <trkpt lat="42.69841" lon="1.16395">
        <ele>2369.8000488281</ele>
        <time>2023-07-26T08:28:16.000Z</time>
      </trkpt>
      <trkpt lat="42.69839" lon="1.16394">
        <ele>2369.8000488281</ele>
        <time>2023-07-26T08:28:23.000Z</time>
      </trkpt>
      <trkpt lat="42.69833" lon="1.16389">
        <ele>2369</ele>
        <time>2023-07-26T08:28:31.000Z</time>
      </trkpt>
      <trkpt lat="42.69832" lon="1.16386">
        <ele>2368.1999511719</ele>
        <time>2023-07-26T08:28:34.000Z</time>
      </trkpt>
      <trkpt lat="42.6983" lon="1.16383">
        <ele>2367.1999511719</ele>
        <time>2023-07-26T08:28:38.000Z</time>
      </trkpt>
      <trkpt lat="42.69829" lon="1.16381">
        <ele>2367</ele>
        <time>2023-07-26T08:28:39.000Z</time>
      </trkpt>
      <trkpt lat="42.69829" lon="1.16378">
        <ele>2366</ele>
        <time>2023-07-26T08:28:43.000Z</time>
      </trkpt>
      <trkpt lat="42.69829" lon="1.16375">
        <ele>2365.3999023438</ele>
        <time>2023-07-26T08:28:46.000Z</time>
      </trkpt>
      <trkpt lat="42.69827" lon="1.16368">
        <ele>2364.8000488281</ele>
        <time>2023-07-26T08:28:51.000Z</time>
      </trkpt>
      <trkpt lat="42.69827" lon="1.16364">
        <ele>2364.3999023438</ele>
        <time>2023-07-26T08:28:55.000Z</time>
      </trkpt>
      <trkpt lat="42.69831" lon="1.16358">
        <ele>2364.1999511719</ele>
        <time>2023-07-26T08:29:02.000Z</time>
      </trkpt>
      <trkpt lat="42.69832" lon="1.16356">
        <ele>2363.8000488281</ele>
        <time>2023-07-26T08:29:04.000Z</time>
      </trkpt>
      <trkpt lat="42.69835" lon="1.1635">
        <ele>2363.3999023438</ele>
        <time>2023-07-26T08:29:10.000Z</time>
      </trkpt>
      <trkpt lat="42.69838" lon="1.16345">
        <ele>2362.8000488281</ele>
        <time>2023-07-26T08:29:17.000Z</time>
      </trkpt>
      <trkpt lat="42.69842" lon="1.16342">
        <ele>2363.1999511719</ele>
        <time>2023-07-26T08:29:24.000Z</time>
      </trkpt>
      <trkpt lat="42.69849" lon="1.16336">
        <ele>2363.1999511719</ele>
        <time>2023-07-26T08:29:32.000Z</time>
      </trkpt>
      <trkpt lat="42.69855" lon="1.16334">
        <ele>2364</ele>
        <time>2023-07-26T08:29:40.000Z</time>
      </trkpt>
      <trkpt lat="42.69859" lon="1.16335">
        <ele>2364.8000488281</ele>
        <time>2023-07-26T08:29:47.000Z</time>
      </trkpt>
      <trkpt lat="42.69868" lon="1.16334">
        <ele>2364.6000976562</ele>
        <time>2023-07-26T08:29:54.000Z</time>
      </trkpt>
      <trkpt lat="42.69869" lon="1.16333">
        <ele>2364</ele>
        <time>2023-07-26T08:30:00.000Z</time>
      </trkpt>
      <trkpt lat="42.69869" lon="1.16333">
        <ele>2363.8000488281</ele>
        <time>2023-07-26T08:30:01.000Z</time>
      </trkpt>
      <trkpt lat="42.69866" lon="1.16332">
        <ele>2363.6000976562</ele>
        <time>2023-07-26T08:30:10.000Z</time>
      </trkpt>
      <trkpt lat="42.69864" lon="1.16333">
        <ele>2363.6000976562</ele>
        <time>2023-07-26T08:30:20.000Z</time>
      </trkpt>
      <trkpt lat="42.69867" lon="1.16338">
        <ele>2363.6000976562</ele>
        <time>2023-07-26T08:30:27.000Z</time>
      </trkpt>
      <trkpt lat="42.69873" lon="1.16336">
        <ele>2364.1999511719</ele>
        <time>2023-07-26T08:30:35.000Z</time>
      </trkpt>
      <trkpt lat="42.69874" lon="1.16338">
        <ele>2364</ele>
        <time>2023-07-26T08:30:39.000Z</time>
      </trkpt>
      <trkpt lat="42.69876" lon="1.16341">
        <ele>2363.1999511719</ele>
        <time>2023-07-26T08:30:43.000Z</time>
      </trkpt>
      <trkpt lat="42.69877" lon="1.16343">
        <ele>2362.8000488281</ele>
        <time>2023-07-26T08:30:46.000Z</time>
      </trkpt>
      <trkpt lat="42.69878" lon="1.16346">
        <ele>2362</ele>
        <time>2023-07-26T08:30:49.000Z</time>
      </trkpt>
      <trkpt lat="42.6988" lon="1.16346">
        <ele>2361.8000488281</ele>
        <time>2023-07-26T08:30:51.000Z</time>
      </trkpt>
      <trkpt lat="42.69882" lon="1.16345">
        <ele>2361.3999023438</ele>
        <time>2023-07-26T08:30:55.000Z</time>
      </trkpt>
      <trkpt lat="42.69885" lon="1.16347">
        <ele>2360.8000488281</ele>
        <time>2023-07-26T08:31:01.000Z</time>
      </trkpt>
      <trkpt lat="42.69885" lon="1.16347">
        <ele>2360.6000976562</ele>
        <time>2023-07-26T08:31:03.000Z</time>
      </trkpt>
      <trkpt lat="42.69884" lon="1.16348">
        <ele>2360.6000976562</ele>
        <time>2023-07-26T08:31:10.000Z</time>
      </trkpt>
      <trkpt lat="42.69885" lon="1.16347">
        <ele>2361.1999511719</ele>
        <time>2023-07-26T08:31:17.000Z</time>
      </trkpt>
      <trkpt lat="42.69887" lon="1.16354">
        <ele>2361.3999023438</ele>
        <time>2023-07-26T08:31:23.000Z</time>
      </trkpt>
      <trkpt lat="42.69887" lon="1.16357">
        <ele>2361.8000488281</ele>
        <time>2023-07-26T08:31:27.000Z</time>
      </trkpt>
      <trkpt lat="42.69888" lon="1.16358">
        <ele>2361.8000488281</ele>
        <time>2023-07-26T08:31:28.000Z</time>
      </trkpt>
      <trkpt lat="42.69889" lon="1.16361">
        <ele>2363</ele>
        <time>2023-07-26T08:31:33.000Z</time>
      </trkpt>
      <trkpt lat="42.69892" lon="1.16365">
        <ele>2363.1999511719</ele>
        <time>2023-07-26T08:31:37.000Z</time>
      </trkpt>
      <trkpt lat="42.69894" lon="1.16369">
        <ele>2363</ele>
        <time>2023-07-26T08:31:43.000Z</time>
      </trkpt>
      <trkpt lat="42.69897" lon="1.16374">
        <ele>2362.8000488281</ele>
        <time>2023-07-26T08:31:49.000Z</time>
      </trkpt>
      <trkpt lat="42.69901" lon="1.16377">
        <ele>2362</ele>
        <time>2023-07-26T08:31:55.000Z</time>
      </trkpt>
      <trkpt lat="42.69905" lon="1.1638">
        <ele>2361.3999023438</ele>
        <time>2023-07-26T08:32:02.000Z</time>
      </trkpt>
      <trkpt lat="42.69907" lon="1.16381">
        <ele>2361.6000976562</ele>
        <time>2023-07-26T08:32:08.000Z</time>
      </trkpt>
      <trkpt lat="42.69907" lon="1.16375">
        <ele>2361.8000488281</ele>
        <time>2023-07-26T08:32:16.000Z</time>
      </trkpt>
      <trkpt lat="42.69907" lon="1.16383">
        <ele>2361.8000488281</ele>
        <time>2023-07-26T08:32:23.000Z</time>
      </trkpt>
      <trkpt lat="42.69907" lon="1.16382">
        <ele>2361.3999023438</ele>
        <time>2023-07-26T08:32:31.000Z</time>
      </trkpt>
      <trkpt lat="42.69905" lon="1.16381">
        <ele>2361.3999023438</ele>
        <time>2023-07-26T08:32:41.000Z</time>
      </trkpt>
      <trkpt lat="42.69903" lon="1.16382">
        <ele>2361</ele>
        <time>2023-07-26T08:32:46.000Z</time>
      </trkpt>
      <trkpt lat="42.69903" lon="1.16381">
        <ele>2361</ele>
        <time>2023-07-26T08:32:50.000Z</time>
      </trkpt>
      <trkpt lat="42.69905" lon="1.16384">
        <ele>2361.3999023438</ele>
        <time>2023-07-26T08:32:59.000Z</time>
      </trkpt>
      <trkpt lat="42.69908" lon="1.16389">
        <ele>2361.1999511719</ele>
        <time>2023-07-26T08:33:05.000Z</time>
      </trkpt>
      <trkpt lat="42.69911" lon="1.16396">
        <ele>2361.1999511719</ele>
        <time>2023-07-26T08:33:10.000Z</time>
      </trkpt>
      <trkpt lat="42.69915" lon="1.16401">
        <ele>2361.1999511719</ele>
        <time>2023-07-26T08:33:16.000Z</time>
      </trkpt>
      <trkpt lat="42.69918" lon="1.16408">
        <ele>2361.3999023438</ele>
        <time>2023-07-26T08:33:21.000Z</time>
      </trkpt>
      <trkpt lat="42.69922" lon="1.16417">
        <ele>2361.3999023438</ele>
        <time>2023-07-26T08:33:29.000Z</time>
      </trkpt>
      <trkpt lat="42.69924" lon="1.16421">
        <ele>2361.3999023438</ele>
        <time>2023-07-26T08:33:34.000Z</time>
      </trkpt>
      <trkpt lat="42.69926" lon="1.16426">
        <ele>2361.3999023438</ele>
        <time>2023-07-26T08:33:39.000Z</time>
      </trkpt>
      <trkpt lat="42.69927" lon="1.16433">
        <ele>2361.3999023438</ele>
        <time>2023-07-26T08:33:46.000Z</time>
      </trkpt>
      <trkpt lat="42.69928" lon="1.16439">
        <ele>2361.3999023438</ele>
        <time>2023-07-26T08:33:51.000Z</time>
      </trkpt>
      <trkpt lat="42.6993" lon="1.16445">
        <ele>2361.6000976562</ele>
        <time>2023-07-26T08:33:56.000Z</time>
      </trkpt>
      <trkpt lat="42.69933" lon="1.1645">
        <ele>2361.3999023438</ele>
        <time>2023-07-26T08:34:02.000Z</time>
      </trkpt>
      <trkpt lat="42.69937" lon="1.16459">
        <ele>2361.3999023438</ele>
        <time>2023-07-26T08:34:09.000Z</time>
      </trkpt>
      <trkpt lat="42.6994" lon="1.16462">
        <ele>2361.8000488281</ele>
        <time>2023-07-26T08:34:15.000Z</time>
      </trkpt>
      <trkpt lat="42.6994" lon="1.16464">
        <ele>2362.1999511719</ele>
        <time>2023-07-26T08:34:17.000Z</time>
      </trkpt>
      <trkpt lat="42.69941" lon="1.16466">
        <ele>2362.8000488281</ele>
        <time>2023-07-26T08:34:21.000Z</time>
      </trkpt>
      <trkpt lat="42.69941" lon="1.16466">
        <ele>2363.1999511719</ele>
        <time>2023-07-26T08:34:23.000Z</time>
      </trkpt>
      <trkpt lat="42.69941" lon="1.16468">
        <ele>2363.3999023438</ele>
        <time>2023-07-26T08:34:28.000Z</time>
      </trkpt>
      <trkpt lat="42.69941" lon="1.16469">
        <ele>2363.3999023438</ele>
        <time>2023-07-26T08:34:37.000Z</time>
      </trkpt>
      <trkpt lat="42.69944" lon="1.16468">
        <ele>2363.6000976562</ele>
        <time>2023-07-26T08:34:46.000Z</time>
      </trkpt>
      <trkpt lat="42.69949" lon="1.16468">
        <ele>2363.8000488281</ele>
        <time>2023-07-26T08:34:54.000Z</time>
      </trkpt>
      <trkpt lat="42.6995" lon="1.16469">
        <ele>2364.3999023438</ele>
        <time>2023-07-26T08:34:57.000Z</time>
      </trkpt>
      <trkpt lat="42.69951" lon="1.16472">
        <ele>2365.1999511719</ele>
        <time>2023-07-26T08:35:02.000Z</time>
      </trkpt>
      <trkpt lat="42.69951" lon="1.16473">
        <ele>2365.3999023438</ele>
        <time>2023-07-26T08:35:03.000Z</time>
      </trkpt>
      <trkpt lat="42.69953" lon="1.16479">
        <ele>2365.8000488281</ele>
        <time>2023-07-26T08:35:09.000Z</time>
      </trkpt>
      <trkpt lat="42.69955" lon="1.1648">
        <ele>2366.3999023438</ele>
        <time>2023-07-26T08:35:15.000Z</time>
      </trkpt>
      <trkpt lat="42.69956" lon="1.1648">
        <ele>2366.6000976562</ele>
        <time>2023-07-26T08:35:16.000Z</time>
      </trkpt>
      <trkpt lat="42.69961" lon="1.16481">
        <ele>2367.3999023438</ele>
        <time>2023-07-26T08:35:23.000Z</time>
      </trkpt>
      <trkpt lat="42.69961" lon="1.16483">
        <ele>2367.3999023438</ele>
        <time>2023-07-26T08:35:26.000Z</time>
      </trkpt>
      <trkpt lat="42.6996" lon="1.16487">
        <ele>2367.6000976562</ele>
        <time>2023-07-26T08:35:29.000Z</time>
      </trkpt>
      <trkpt lat="42.69959" lon="1.16487">
        <ele>2367.6000976562</ele>
        <time>2023-07-26T08:35:30.000Z</time>
      </trkpt>
      <trkpt lat="42.69959" lon="1.16488">
        <ele>2368</ele>
        <time>2023-07-26T08:35:35.000Z</time>
      </trkpt>
      <trkpt lat="42.69959" lon="1.16488">
        <ele>2368</ele>
        <time>2023-07-26T08:35:37.000Z</time>
      </trkpt>
      <trkpt lat="42.69959" lon="1.16487">
        <ele>2367.8000488281</ele>
        <time>2023-07-26T08:35:43.000Z</time>
      </trkpt>
      <trkpt lat="42.69958" lon="1.16488">
        <ele>2367.8000488281</ele>
        <time>2023-07-26T08:35:53.000Z</time>
      </trkpt>
      <trkpt lat="42.69961" lon="1.1649">
        <ele>2368.3999023438</ele>
        <time>2023-07-26T08:36:00.000Z</time>
      </trkpt>
      <trkpt lat="42.69962" lon="1.16491">
        <ele>2368.6000976562</ele>
        <time>2023-07-26T08:36:02.000Z</time>
      </trkpt>
      <trkpt lat="42.69966" lon="1.16494">
        <ele>2369</ele>
        <time>2023-07-26T08:36:07.000Z</time>
      </trkpt>
      <trkpt lat="42.69971" lon="1.16493">
        <ele>2369.1999511719</ele>
        <time>2023-07-26T08:36:11.000Z</time>
      </trkpt>
      <trkpt lat="42.69973" lon="1.16488">
        <ele>2369.3999023438</ele>
        <time>2023-07-26T08:36:18.000Z</time>
      </trkpt>
      <trkpt lat="42.69974" lon="1.1649">
        <ele>2369.6000976562</ele>
        <time>2023-07-26T08:36:24.000Z</time>
      </trkpt>
      <trkpt lat="42.69974" lon="1.16491">
        <ele>2369.8000488281</ele>
        <time>2023-07-26T08:36:26.000Z</time>
      </trkpt>
      <trkpt lat="42.6998" lon="1.16491">
        <ele>2370.6000976562</ele>
        <time>2023-07-26T08:36:33.000Z</time>
      </trkpt>
      <trkpt lat="42.69981" lon="1.16491">
        <ele>2370.8000488281</ele>
        <time>2023-07-26T08:36:34.000Z</time>
      </trkpt>
      <trkpt lat="42.69985" lon="1.16493">
        <ele>2371.1999511719</ele>
        <time>2023-07-26T08:36:41.000Z</time>
      </trkpt>
      <trkpt lat="42.69988" lon="1.16493">
        <ele>2371.3999023438</ele>
        <time>2023-07-26T08:36:49.000Z</time>
      </trkpt>
      <trkpt lat="42.69987" lon="1.16494">
        <ele>2371.6000976562</ele>
        <time>2023-07-26T08:36:58.000Z</time>
      </trkpt>
      <trkpt lat="42.69984" lon="1.1649">
        <ele>2371.3999023438</ele>
        <time>2023-07-26T08:37:05.000Z</time>
      </trkpt>
      <trkpt lat="42.69982" lon="1.16484">
        <ele>2370.1999511719</ele>
        <time>2023-07-26T08:37:12.000Z</time>
      </trkpt>
      <trkpt lat="42.6998" lon="1.16483">
        <ele>2371.1999511719</ele>
        <time>2023-07-26T08:37:19.000Z</time>
      </trkpt>
      <trkpt lat="42.6998" lon="1.16482">
        <ele>2371</ele>
        <time>2023-07-26T08:37:29.000Z</time>
      </trkpt>
      <trkpt lat="42.69977" lon="1.16477">
        <ele>2370.3999023438</ele>
        <time>2023-07-26T08:37:37.000Z</time>
      </trkpt>
      <trkpt lat="42.69976" lon="1.16474">
        <ele>2369.8000488281</ele>
        <time>2023-07-26T08:37:45.000Z</time>
      </trkpt>
      <trkpt lat="42.69976" lon="1.16473">
        <ele>2369.8000488281</ele>
        <time>2023-07-26T08:37:46.000Z</time>
      </trkpt>
      <trkpt lat="42.69978" lon="1.16471">
        <ele>2369.1999511719</ele>
        <time>2023-07-26T08:37:52.000Z</time>
      </trkpt>
      <trkpt lat="42.69983" lon="1.16467">
        <ele>2369</ele>
        <time>2023-07-26T08:37:57.000Z</time>
      </trkpt>
      <trkpt lat="42.69987" lon="1.16466">
        <ele>2369.1999511719</ele>
        <time>2023-07-26T08:38:03.000Z</time>
      </trkpt>
      <trkpt lat="42.69987" lon="1.16468">
        <ele>2369.3999023438</ele>
        <time>2023-07-26T08:38:09.000Z</time>
      </trkpt>
      <trkpt lat="42.69993" lon="1.16461">
        <ele>2368.8000488281</ele>
        <time>2023-07-26T08:38:17.000Z</time>
      </trkpt>
      <trkpt lat="42.69998" lon="1.16457">
        <ele>2369.1999511719</ele>
        <time>2023-07-26T08:38:26.000Z</time>
      </trkpt>
      <trkpt lat="42.70001" lon="1.16454">
        <ele>2368.6000976562</ele>
        <time>2023-07-26T08:38:33.000Z</time>
      </trkpt>
      <trkpt lat="42.70001" lon="1.16453">
        <ele>2368.6000976562</ele>
        <time>2023-07-26T08:38:34.000Z</time>
      </trkpt>
      <trkpt lat="42.70003" lon="1.16449">
        <ele>2368</ele>
        <time>2023-07-26T08:38:41.000Z</time>
      </trkpt>
      <trkpt lat="42.70006" lon="1.16448">
        <ele>2367.6000976562</ele>
        <time>2023-07-26T08:38:44.000Z</time>
      </trkpt>
      <trkpt lat="42.70006" lon="1.16449">
        <ele>2367.1999511719</ele>
        <time>2023-07-26T08:38:47.000Z</time>
      </trkpt>
      <trkpt lat="42.70007" lon="1.16449">
        <ele>2366.6000976562</ele>
        <time>2023-07-26T08:38:54.000Z</time>
      </trkpt>
      <trkpt lat="42.70006" lon="1.16443">
        <ele>2366.8000488281</ele>
        <time>2023-07-26T08:39:03.000Z</time>
      </trkpt>
      <trkpt lat="42.70008" lon="1.16447">
        <ele>2367</ele>
        <time>2023-07-26T08:39:13.000Z</time>
      </trkpt>
      <trkpt lat="42.7001" lon="1.1645">
        <ele>2367</ele>
        <time>2023-07-26T08:39:20.000Z</time>
      </trkpt>
      <trkpt lat="42.70012" lon="1.16452">
        <ele>2367.1999511719</ele>
        <time>2023-07-26T08:39:27.000Z</time>
      </trkpt>
      <trkpt lat="42.70014" lon="1.1645">
        <ele>2366.8000488281</ele>
        <time>2023-07-26T08:39:35.000Z</time>
      </trkpt>
      <trkpt lat="42.70015" lon="1.16451">
        <ele>2366.8000488281</ele>
        <time>2023-07-26T08:39:43.000Z</time>
      </trkpt>
      <trkpt lat="42.7002" lon="1.16452">
        <ele>2366.6000976562</ele>
        <time>2023-07-26T08:39:48.000Z</time>
      </trkpt>
      <trkpt lat="42.7002" lon="1.16453">
        <ele>2366.6000976562</ele>
        <time>2023-07-26T08:39:51.000Z</time>
      </trkpt>
      <trkpt lat="42.70021" lon="1.16454">
        <ele>2367.6000976562</ele>
        <time>2023-07-26T08:39:57.000Z</time>
      </trkpt>
      <trkpt lat="42.70024" lon="1.16453">
        <ele>2368.6000976562</ele>
        <time>2023-07-26T08:40:01.000Z</time>
      </trkpt>
      <trkpt lat="42.70025" lon="1.16453">
        <ele>2368.8000488281</ele>
        <time>2023-07-26T08:40:04.000Z</time>
      </trkpt>
      <trkpt lat="42.70038" lon="1.16449">
        <ele>2369.6000976562</ele>
        <time>2023-07-26T08:40:28.000Z</time>
      </trkpt>
      <trkpt lat="42.70041" lon="1.16447">
        <ele>2370.3999023438</ele>
        <time>2023-07-26T08:40:35.000Z</time>
      </trkpt>
      <trkpt lat="42.70042" lon="1.16444">
        <ele>2370.6000976562</ele>
        <time>2023-07-26T08:40:39.000Z</time>
      </trkpt>
      <trkpt lat="42.70041" lon="1.16442">
        <ele>2371</ele>
        <time>2023-07-26T08:40:44.000Z</time>
      </trkpt>
      <trkpt lat="42.70041" lon="1.16437">
        <ele>2371.6000976562</ele>
        <time>2023-07-26T08:40:51.000Z</time>
      </trkpt>
      <trkpt lat="42.7004" lon="1.16437">
        <ele>2372.8000488281</ele>
        <time>2023-07-26T08:40:59.000Z</time>
      </trkpt>
      <trkpt lat="42.7004" lon="1.16438">
        <ele>2373.3999023438</ele>
        <time>2023-07-26T08:41:05.000Z</time>
      </trkpt>
      <trkpt lat="42.70043" lon="1.16438">
        <ele>2374</ele>
        <time>2023-07-26T08:41:13.000Z</time>
      </trkpt>
      <trkpt lat="42.70043" lon="1.16434">
        <ele>2375.3999023438</ele>
        <time>2023-07-26T08:41:23.000Z</time>
      </trkpt>
      <trkpt lat="42.70043" lon="1.16431">
        <ele>2376.1999511719</ele>
        <time>2023-07-26T08:41:27.000Z</time>
      </trkpt>
      <trkpt lat="42.70043" lon="1.1643">
        <ele>2376.3999023438</ele>
        <time>2023-07-26T08:41:28.000Z</time>
      </trkpt>
      <trkpt lat="42.70043" lon="1.16429">
        <ele>2376</ele>
        <time>2023-07-26T08:41:33.000Z</time>
      </trkpt>
      <trkpt lat="42.70043" lon="1.16427">
        <ele>2375.8000488281</ele>
        <time>2023-07-26T08:41:40.000Z</time>
      </trkpt>
      <trkpt lat="42.70044" lon="1.16424">
        <ele>2375.8000488281</ele>
        <time>2023-07-26T08:41:47.000Z</time>
      </trkpt>
      <trkpt lat="42.70044" lon="1.1642">
        <ele>2376</ele>
        <time>2023-07-26T08:41:51.000Z</time>
      </trkpt>
      <trkpt lat="42.70043" lon="1.16415">
        <ele>2376</ele>
        <time>2023-07-26T08:41:57.000Z</time>
      </trkpt>
      <trkpt lat="42.70042" lon="1.16412">
        <ele>2376.1999511719</ele>
        <time>2023-07-26T08:42:01.000Z</time>
      </trkpt>
      <trkpt lat="42.70041" lon="1.16407">
        <ele>2377</ele>
        <time>2023-07-26T08:42:07.000Z</time>
      </trkpt>
      <trkpt lat="42.7004" lon="1.16401">
        <ele>2376.8000488281</ele>
        <time>2023-07-26T08:42:13.000Z</time>
      </trkpt>
      <trkpt lat="42.70039" lon="1.16398">
        <ele>2376.8000488281</ele>
        <time>2023-07-26T08:42:16.000Z</time>
      </trkpt>
      <trkpt lat="42.70039" lon="1.16397">
        <ele>2376</ele>
        <time>2023-07-26T08:42:23.000Z</time>
      </trkpt>
      <trkpt lat="42.70038" lon="1.16391">
        <ele>2376</ele>
        <time>2023-07-26T08:42:29.000Z</time>
      </trkpt>
      <trkpt lat="42.70038" lon="1.16389">
        <ele>2376.8000488281</ele>
        <time>2023-07-26T08:42:37.000Z</time>
      </trkpt>
      <trkpt lat="42.70039" lon="1.16382">
        <ele>2377.1999511719</ele>
        <time>2023-07-26T08:42:45.000Z</time>
      </trkpt>
      <trkpt lat="42.70039" lon="1.16377">
        <ele>2377.8000488281</ele>
        <time>2023-07-26T08:42:52.000Z</time>
      </trkpt>
      <trkpt lat="42.70038" lon="1.16372">
        <ele>2378.1999511719</ele>
        <time>2023-07-26T08:42:58.000Z</time>
      </trkpt>
      <trkpt lat="42.70036" lon="1.16369">
        <ele>2378.3999023438</ele>
        <time>2023-07-26T08:43:01.000Z</time>
      </trkpt>
      <trkpt lat="42.70036" lon="1.16372">
        <ele>2378.6000976562</ele>
        <time>2023-07-26T08:43:09.000Z</time>
      </trkpt>
      <trkpt lat="42.70035" lon="1.16371">
        <ele>2378.6000976562</ele>
        <time>2023-07-26T08:43:15.000Z</time>
      </trkpt>
      <trkpt lat="42.70033" lon="1.16365">
        <ele>2378.8000488281</ele>
        <time>2023-07-26T08:43:22.000Z</time>
      </trkpt>
      <trkpt lat="42.70035" lon="1.16367">
        <ele>2378.6000976562</ele>
        <time>2023-07-26T08:43:30.000Z</time>
      </trkpt>
      <trkpt lat="42.70037" lon="1.16367">
        <ele>2378.3999023438</ele>
        <time>2023-07-26T08:43:36.000Z</time>
      </trkpt>
      <trkpt lat="42.70036" lon="1.16366">
        <ele>2378</ele>
        <time>2023-07-26T08:43:42.000Z</time>
      </trkpt>
      <trkpt lat="42.70035" lon="1.16367">
        <ele>2378.3999023438</ele>
        <time>2023-07-26T08:43:48.000Z</time>
      </trkpt>
      <trkpt lat="42.70036" lon="1.16361">
        <ele>2378.3999023438</ele>
        <time>2023-07-26T08:43:55.000Z</time>
      </trkpt>
      <trkpt lat="42.70036" lon="1.16362">
        <ele>2379.3999023438</ele>
        <time>2023-07-26T08:44:02.000Z</time>
      </trkpt>
      <trkpt lat="42.70036" lon="1.1636">
        <ele>2379.3999023438</ele>
        <time>2023-07-26T08:44:06.000Z</time>
      </trkpt>
      <trkpt lat="42.70035" lon="1.16359">
        <ele>2379.3999023438</ele>
        <time>2023-07-26T08:44:13.000Z</time>
      </trkpt>
      <trkpt lat="42.70029" lon="1.1636">
        <ele>2379.1999511719</ele>
        <time>2023-07-26T08:44:23.000Z</time>
      </trkpt>
      <trkpt lat="42.70034" lon="1.1636">
        <ele>2379.1999511719</ele>
        <time>2023-07-26T08:44:30.000Z</time>
      </trkpt>
      <trkpt lat="42.70036" lon="1.1636">
        <ele>2379</ele>
        <time>2023-07-26T08:44:36.000Z</time>
      </trkpt>
      <trkpt lat="42.70034" lon="1.1636">
        <ele>2379.1999511719</ele>
        <time>2023-07-26T08:44:42.000Z</time>
      </trkpt>
      <trkpt lat="42.70033" lon="1.1636">
        <ele>2378.1999511719</ele>
        <time>2023-07-26T08:44:47.000Z</time>
      </trkpt>
      <trkpt lat="42.70033" lon="1.1636">
        <ele>2377.8000488281</ele>
        <time>2023-07-26T08:44:50.000Z</time>
      </trkpt>
      <trkpt lat="42.70032" lon="1.16362">
        <ele>2377.6000976562</ele>
        <time>2023-07-26T08:44:56.000Z</time>
      </trkpt>
      <trkpt lat="42.70032" lon="1.16361">
        <ele>2377.1999511719</ele>
        <time>2023-07-26T08:44:59.000Z</time>
      </trkpt>
      <trkpt lat="42.70031" lon="1.1636">
        <ele>2376.8000488281</ele>
        <time>2023-07-26T08:45:04.000Z</time>
      </trkpt>
      <trkpt lat="42.70031" lon="1.16361">
        <ele>2376.1999511719</ele>
        <time>2023-07-26T08:45:08.000Z</time>
      </trkpt>
      <trkpt lat="42.70031" lon="1.1636">
        <ele>2376</ele>
        <time>2023-07-26T08:45:09.000Z</time>
      </trkpt>
      <trkpt lat="42.70028" lon="1.16356">
        <ele>2375.8000488281</ele>
        <time>2023-07-26T08:45:15.000Z</time>
      </trkpt>
      <trkpt lat="42.70026" lon="1.16353">
        <ele>2375</ele>
        <time>2023-07-26T08:45:20.000Z</time>
      </trkpt>
      <trkpt lat="42.70025" lon="1.16353">
        <ele>2374.8000488281</ele>
        <time>2023-07-26T08:45:23.000Z</time>
      </trkpt>
      <trkpt lat="42.70023" lon="1.1635">
        <ele>2374.1999511719</ele>
        <time>2023-07-26T08:45:31.000Z</time>
      </trkpt>
      <trkpt lat="42.70023" lon="1.16349">
        <ele>2374</ele>
        <time>2023-07-26T08:45:33.000Z</time>
      </trkpt>
      <trkpt lat="42.70021" lon="1.16346">
        <ele>2373.6000976562</ele>
        <time>2023-07-26T08:45:38.000Z</time>
      </trkpt>
      <trkpt lat="42.70019" lon="1.16343">
        <ele>2373.8000488281</ele>
        <time>2023-07-26T08:45:45.000Z</time>
      </trkpt>
      <trkpt lat="42.70016" lon="1.16341">
        <ele>2374.1999511719</ele>
        <time>2023-07-26T08:45:51.000Z</time>
      </trkpt>
      <trkpt lat="42.70013" lon="1.16338">
        <ele>2373.6000976562</ele>
        <time>2023-07-26T08:45:59.000Z</time>
      </trkpt>
      <trkpt lat="42.70011" lon="1.16335">
        <ele>2373.8000488281</ele>
        <time>2023-07-26T08:46:07.000Z</time>
      </trkpt>
      <trkpt lat="42.7001" lon="1.16335">
        <ele>2373.8000488281</ele>
        <time>2023-07-26T08:46:14.000Z</time>
      </trkpt>
      <trkpt lat="42.70012" lon="1.16338">
        <ele>2373.8000488281</ele>
        <time>2023-07-26T08:46:24.000Z</time>
      </trkpt>
      <trkpt lat="42.70011" lon="1.16336">
        <ele>2373.8000488281</ele>
        <time>2023-07-26T08:46:32.000Z</time>
      </trkpt>
      <trkpt lat="42.70008" lon="1.16335">
        <ele>2373.8000488281</ele>
        <time>2023-07-26T08:46:40.000Z</time>
      </trkpt>
      <trkpt lat="42.70003" lon="1.16336">
        <ele>2373.3999023438</ele>
        <time>2023-07-26T08:46:47.000Z</time>
      </trkpt>
      <trkpt lat="42.69999" lon="1.16334">
        <ele>2373</ele>
        <time>2023-07-26T08:46:54.000Z</time>
      </trkpt>
      <trkpt lat="42.69998" lon="1.16334">
        <ele>2373.6000976562</ele>
        <time>2023-07-26T08:47:02.000Z</time>
      </trkpt>
      <trkpt lat="42.69996" lon="1.16334">
        <ele>2373.8000488281</ele>
        <time>2023-07-26T08:47:10.000Z</time>
      </trkpt>
      <trkpt lat="42.69999" lon="1.16337">
        <ele>2374</ele>
        <time>2023-07-26T08:47:16.000Z</time>
      </trkpt>
      <trkpt lat="42.69999" lon="1.16336">
        <ele>2373.8000488281</ele>
        <time>2023-07-26T08:47:25.000Z</time>
      </trkpt>
      <trkpt lat="42.69999" lon="1.1633">
        <ele>2373.8000488281</ele>
        <time>2023-07-26T08:47:31.000Z</time>
      </trkpt>
      <trkpt lat="42.69998" lon="1.16327">
        <ele>2373.1999511719</ele>
        <time>2023-07-26T08:47:38.000Z</time>
      </trkpt>
      <trkpt lat="42.69997" lon="1.16327">
        <ele>2373</ele>
        <time>2023-07-26T08:47:40.000Z</time>
      </trkpt>
      <trkpt lat="42.69996" lon="1.16326">
        <ele>2372.1999511719</ele>
        <time>2023-07-26T08:47:46.000Z</time>
      </trkpt>
      <trkpt lat="42.69994" lon="1.16323">
        <ele>2371.8000488281</ele>
        <time>2023-07-26T08:47:50.000Z</time>
      </trkpt>
      <trkpt lat="42.69994" lon="1.16322">
        <ele>2371.6000976562</ele>
        <time>2023-07-26T08:47:52.000Z</time>
      </trkpt>
      <trkpt lat="42.69992" lon="1.16321">
        <ele>2371.3999023438</ele>
        <time>2023-07-26T08:47:59.000Z</time>
      </trkpt>
      <trkpt lat="42.69991" lon="1.16318">
        <ele>2371</ele>
        <time>2023-07-26T08:48:05.000Z</time>
      </trkpt>
      <trkpt lat="42.6999" lon="1.16316">
        <ele>2370.8000488281</ele>
        <time>2023-07-26T08:48:07.000Z</time>
      </trkpt>
      <trkpt lat="42.69989" lon="1.16315">
        <ele>2370.6000976562</ele>
        <time>2023-07-26T08:48:09.000Z</time>
      </trkpt>
      <trkpt lat="42.69989" lon="1.16315">
        <ele>2370.6000976562</ele>
        <time>2023-07-26T08:48:14.000Z</time>
      </trkpt>
      <trkpt lat="42.69985" lon="1.16312">
        <ele>2370.3999023438</ele>
        <time>2023-07-26T08:48:22.000Z</time>
      </trkpt>
      <trkpt lat="42.69983" lon="1.16308">
        <ele>2370.8000488281</ele>
        <time>2023-07-26T08:48:29.000Z</time>
      </trkpt>
      <trkpt lat="42.69982" lon="1.16304">
        <ele>2371.6000976562</ele>
        <time>2023-07-26T08:48:36.000Z</time>
      </trkpt>
      <trkpt lat="42.69982" lon="1.16301">
        <ele>2371.8000488281</ele>
        <time>2023-07-26T08:48:41.000Z</time>
      </trkpt>
      <trkpt lat="42.69982" lon="1.16299">
        <ele>2372</ele>
        <time>2023-07-26T08:48:42.000Z</time>
      </trkpt>
      <trkpt lat="42.6998" lon="1.16297">
        <ele>2371.8000488281</ele>
        <time>2023-07-26T08:48:49.000Z</time>
      </trkpt>
      <trkpt lat="42.69983" lon="1.16297">
        <ele>2371.8000488281</ele>
        <time>2023-07-26T08:48:56.000Z</time>
      </trkpt>
      <trkpt lat="42.69979" lon="1.16296">
        <ele>2371.8000488281</ele>
        <time>2023-07-26T08:49:05.000Z</time>
      </trkpt>
      <trkpt lat="42.6998" lon="1.16299">
        <ele>2371.8000488281</ele>
        <time>2023-07-26T08:49:12.000Z</time>
      </trkpt>
      <trkpt lat="42.69977" lon="1.16296">
        <ele>2372</ele>
        <time>2023-07-26T08:49:17.000Z</time>
      </trkpt>
      <trkpt lat="42.69973" lon="1.16293">
        <ele>2372.1999511719</ele>
        <time>2023-07-26T08:49:24.000Z</time>
      </trkpt>
      <trkpt lat="42.69972" lon="1.16293">
        <ele>2373</ele>
        <time>2023-07-26T08:49:27.000Z</time>
      </trkpt>
      <trkpt lat="42.69974" lon="1.16292">
        <ele>2373.1999511719</ele>
        <time>2023-07-26T08:49:31.000Z</time>
      </trkpt>
      <trkpt lat="42.6998" lon="1.16288">
        <ele>2373.3999023438</ele>
        <time>2023-07-26T08:49:37.000Z</time>
      </trkpt>
      <trkpt lat="42.69977" lon="1.16285">
        <ele>2374</ele>
        <time>2023-07-26T08:49:44.000Z</time>
      </trkpt>
      <trkpt lat="42.69979" lon="1.16284">
        <ele>2374.8000488281</ele>
        <time>2023-07-26T08:49:50.000Z</time>
      </trkpt>
      <trkpt lat="42.6998" lon="1.16284">
        <ele>2375</ele>
        <time>2023-07-26T08:49:52.000Z</time>
      </trkpt>
      <trkpt lat="42.69981" lon="1.16281">
        <ele>2375.3999023438</ele>
        <time>2023-07-26T08:49:58.000Z</time>
      </trkpt>
      <trkpt lat="42.69977" lon="1.16284">
        <ele>2375.3999023438</ele>
        <time>2023-07-26T08:50:07.000Z</time>
      </trkpt>
      <trkpt lat="42.69979" lon="1.16283">
        <ele>2375.3999023438</ele>
        <time>2023-07-26T08:50:14.000Z</time>
      </trkpt>
      <trkpt lat="42.6998" lon="1.1628">
        <ele>2375.8000488281</ele>
        <time>2023-07-26T08:50:19.000Z</time>
      </trkpt>
      <trkpt lat="42.6998" lon="1.16278">
        <ele>2376.1999511719</ele>
        <time>2023-07-26T08:50:22.000Z</time>
      </trkpt>
      <trkpt lat="42.6998" lon="1.16276">
        <ele>2376.3999023438</ele>
        <time>2023-07-26T08:50:24.000Z</time>
      </trkpt>
      <trkpt lat="42.69981" lon="1.16272">
        <ele>2377.3999023438</ele>
        <time>2023-07-26T08:50:29.000Z</time>
      </trkpt>
      <trkpt lat="42.69982" lon="1.1627">
        <ele>2377.6000976562</ele>
        <time>2023-07-26T08:50:31.000Z</time>
      </trkpt>
      <trkpt lat="42.69983" lon="1.16263">
        <ele>2378.3999023438</ele>
        <time>2023-07-26T08:50:38.000Z</time>
      </trkpt>
      <trkpt lat="42.69983" lon="1.16263">
        <ele>2378.8000488281</ele>
        <time>2023-07-26T08:50:39.000Z</time>
      </trkpt>
      <trkpt lat="42.69984" lon="1.16263">
        <ele>2379.6000976562</ele>
        <time>2023-07-26T08:50:44.000Z</time>
      </trkpt>
      <trkpt lat="42.69984" lon="1.16263">
        <ele>2379.6000976562</ele>
        <time>2023-07-26T08:50:45.000Z</time>
      </trkpt>
      <trkpt lat="42.69988" lon="1.16267">
        <ele>2379.8000488281</ele>
        <time>2023-07-26T08:50:51.000Z</time>
      </trkpt>
      <trkpt lat="42.6999" lon="1.16266">
        <ele>2380.6000976562</ele>
        <time>2023-07-26T08:50:56.000Z</time>
      </trkpt>
      <trkpt lat="42.6999" lon="1.16265">
        <ele>2380.6000976562</ele>
        <time>2023-07-26T08:51:00.000Z</time>
      </trkpt>
      <trkpt lat="42.69988" lon="1.16264">
        <ele>2381</ele>
        <time>2023-07-26T08:51:07.000Z</time>
      </trkpt>
      <trkpt lat="42.69989" lon="1.16263">
        <ele>2381.6000976562</ele>
        <time>2023-07-26T08:51:10.000Z</time>
      </trkpt>
      <trkpt lat="42.69993" lon="1.16259">
        <ele>2382.6000976562</ele>
        <time>2023-07-26T08:51:16.000Z</time>
      </trkpt>
      <trkpt lat="42.69995" lon="1.1626">
        <ele>2382.8000488281</ele>
        <time>2023-07-26T08:51:19.000Z</time>
      </trkpt>
      <trkpt lat="42.69996" lon="1.16261">
        <ele>2382.8000488281</ele>
        <time>2023-07-26T08:51:23.000Z</time>
      </trkpt>
      <trkpt lat="42.69994" lon="1.1626">
        <ele>2384</ele>
        <time>2023-07-26T08:51:32.000Z</time>
      </trkpt>
      <trkpt lat="42.69996" lon="1.16261">
        <ele>2385</ele>
        <time>2023-07-26T08:51:39.000Z</time>
      </trkpt>
      <trkpt lat="42.69996" lon="1.16261">
        <ele>2385</ele>
        <time>2023-07-26T08:51:40.000Z</time>
      </trkpt>
      <trkpt lat="42.69999" lon="1.16262">
        <ele>2386.1999511719</ele>
        <time>2023-07-26T08:51:47.000Z</time>
      </trkpt>
      <trkpt lat="42.7" lon="1.16261">
        <ele>2387.3999023438</ele>
        <time>2023-07-26T08:51:53.000Z</time>
      </trkpt>
      <trkpt lat="42.7" lon="1.1626">
        <ele>2387.3999023438</ele>
        <time>2023-07-26T08:51:54.000Z</time>
      </trkpt>
      <trkpt lat="42.7" lon="1.16257">
        <ele>2387.8000488281</ele>
        <time>2023-07-26T08:52:02.000Z</time>
      </trkpt>
      <trkpt lat="42.69999" lon="1.16259">
        <ele>2387.6000976562</ele>
        <time>2023-07-26T08:52:09.000Z</time>
      </trkpt>
      <trkpt lat="42.70002" lon="1.1626">
        <ele>2387.6000976562</ele>
        <time>2023-07-26T08:52:17.000Z</time>
      </trkpt>
      <trkpt lat="42.7" lon="1.16255">
        <ele>2387.8000488281</ele>
        <time>2023-07-26T08:52:24.000Z</time>
      </trkpt>
      <trkpt lat="42.70001" lon="1.16254">
        <ele>2387.8000488281</ele>
        <time>2023-07-26T08:52:31.000Z</time>
      </trkpt>
      <trkpt lat="42.70003" lon="1.16255">
        <ele>2387.8000488281</ele>
        <time>2023-07-26T08:52:37.000Z</time>
      </trkpt>
      <trkpt lat="42.70003" lon="1.16255">
        <ele>2388.3999023438</ele>
        <time>2023-07-26T08:52:39.000Z</time>
      </trkpt>
      <trkpt lat="42.70003" lon="1.16252">
        <ele>2389.3999023438</ele>
        <time>2023-07-26T08:52:45.000Z</time>
      </trkpt>
      <trkpt lat="42.70003" lon="1.16252">
        <ele>2389.6000976562</ele>
        <time>2023-07-26T08:52:46.000Z</time>
      </trkpt>
      <trkpt lat="42.70002" lon="1.16248">
        <ele>2390.8000488281</ele>
        <time>2023-07-26T08:52:53.000Z</time>
      </trkpt>
      <trkpt lat="42.70002" lon="1.16247">
        <ele>2391.3999023438</ele>
        <time>2023-07-26T08:52:56.000Z</time>
      </trkpt>
      <trkpt lat="42.70002" lon="1.16245">
        <ele>2392</ele>
        <time>2023-07-26T08:52:58.000Z</time>
      </trkpt>
      <trkpt lat="42.70004" lon="1.16243">
        <ele>2392.1999511719</ele>
        <time>2023-07-26T08:53:04.000Z</time>
      </trkpt>
      <trkpt lat="42.70005" lon="1.16244">
        <ele>2392.1999511719</ele>
        <time>2023-07-26T08:53:12.000Z</time>
      </trkpt>
      <trkpt lat="42.70005" lon="1.16242">
        <ele>2392</ele>
        <time>2023-07-26T08:53:21.000Z</time>
      </trkpt>
      <trkpt lat="42.70004" lon="1.16244">
        <ele>2392.1999511719</ele>
        <time>2023-07-26T08:53:31.000Z</time>
      </trkpt>
      <trkpt lat="42.70004" lon="1.16243">
        <ele>2392.3999023438</ele>
        <time>2023-07-26T08:53:37.000Z</time>
      </trkpt>
      <trkpt lat="42.70005" lon="1.1624">
        <ele>2393</ele>
        <time>2023-07-26T08:53:43.000Z</time>
      </trkpt>
      <trkpt lat="42.70005" lon="1.1624">
        <ele>2393.3999023438</ele>
        <time>2023-07-26T08:53:44.000Z</time>
      </trkpt>
      <trkpt lat="42.70006" lon="1.16238">
        <ele>2394.3999023438</ele>
        <time>2023-07-26T08:53:51.000Z</time>
      </trkpt>
      <trkpt lat="42.70007" lon="1.16237">
        <ele>2395</ele>
        <time>2023-07-26T08:53:53.000Z</time>
      </trkpt>
      <trkpt lat="42.70007" lon="1.16236">
        <ele>2395.6000976562</ele>
        <time>2023-07-26T08:53:55.000Z</time>
      </trkpt>
      <trkpt lat="42.70009" lon="1.16234">
        <ele>2396.6000976562</ele>
        <time>2023-07-26T08:54:01.000Z</time>
      </trkpt>
      <trkpt lat="42.70009" lon="1.16234">
        <ele>2397.1999511719</ele>
        <time>2023-07-26T08:54:03.000Z</time>
      </trkpt>
      <trkpt lat="42.7001" lon="1.16234">
        <ele>2397.8000488281</ele>
        <time>2023-07-26T08:54:06.000Z</time>
      </trkpt>
      <trkpt lat="42.70012" lon="1.16235">
        <ele>2398.1999511719</ele>
        <time>2023-07-26T08:54:10.000Z</time>
      </trkpt>
      <trkpt lat="42.70012" lon="1.16235">
        <ele>2398.8000488281</ele>
        <time>2023-07-26T08:54:17.000Z</time>
      </trkpt>
      <trkpt lat="42.70012" lon="1.16235">
        <ele>2399</ele>
        <time>2023-07-26T08:54:18.000Z</time>
      </trkpt>
      <trkpt lat="42.70012" lon="1.16231">
        <ele>2399.8000488281</ele>
        <time>2023-07-26T08:54:25.000Z</time>
      </trkpt>
      <trkpt lat="42.70012" lon="1.16229">
        <ele>2400</ele>
        <time>2023-07-26T08:54:26.000Z</time>
      </trkpt>
      <trkpt lat="42.70011" lon="1.16226">
        <ele>2401</ele>
        <time>2023-07-26T08:54:31.000Z</time>
      </trkpt>
      <trkpt lat="42.70011" lon="1.16226">
        <ele>2401.1999511719</ele>
        <time>2023-07-26T08:54:33.000Z</time>
      </trkpt>
      <trkpt lat="42.70011" lon="1.16228">
        <ele>2401.6000976562</ele>
        <time>2023-07-26T08:54:40.000Z</time>
      </trkpt>
      <trkpt lat="42.7001" lon="1.16225">
        <ele>2402</ele>
        <time>2023-07-26T08:54:46.000Z</time>
      </trkpt>
      <trkpt lat="42.7001" lon="1.16224">
        <ele>2402.3999023438</ele>
        <time>2023-07-26T08:54:48.000Z</time>
      </trkpt>
      <trkpt lat="42.7001" lon="1.16225">
        <ele>2403</ele>
        <time>2023-07-26T08:54:54.000Z</time>
      </trkpt>
      <trkpt lat="42.7001" lon="1.16224">
        <ele>2403.3999023438</ele>
        <time>2023-07-26T08:54:56.000Z</time>
      </trkpt>
      <trkpt lat="42.70011" lon="1.16222">
        <ele>2404.1999511719</ele>
        <time>2023-07-26T08:55:01.000Z</time>
      </trkpt>
      <trkpt lat="42.70011" lon="1.16218">
        <ele>2405</ele>
        <time>2023-07-26T08:55:04.000Z</time>
      </trkpt>
      <trkpt lat="42.70012" lon="1.16217">
        <ele>2405.1999511719</ele>
        <time>2023-07-26T08:55:06.000Z</time>
      </trkpt>
      <trkpt lat="42.70012" lon="1.16217">
        <ele>2405.3999023438</ele>
        <time>2023-07-26T08:55:07.000Z</time>
      </trkpt>
      <trkpt lat="42.70012" lon="1.16216">
        <ele>2405.3999023438</ele>
        <time>2023-07-26T08:55:10.000Z</time>
      </trkpt>
      <trkpt lat="42.70012" lon="1.16218">
        <ele>2406.3999023438</ele>
        <time>2023-07-26T08:55:15.000Z</time>
      </trkpt>
      <trkpt lat="42.70012" lon="1.16218">
        <ele>2406.8000488281</ele>
        <time>2023-07-26T08:55:16.000Z</time>
      </trkpt>
      <trkpt lat="42.70011" lon="1.16217">
        <ele>2407.6000976562</ele>
        <time>2023-07-26T08:55:19.000Z</time>
      </trkpt>
      <trkpt lat="42.70012" lon="1.16218">
        <ele>2408.6000976562</ele>
        <time>2023-07-26T08:55:24.000Z</time>
      </trkpt>
      <trkpt lat="42.70014" lon="1.16216">
        <ele>2408.3999023438</ele>
        <time>2023-07-26T08:55:29.000Z</time>
      </trkpt>
      <trkpt lat="42.70014" lon="1.16216">
        <ele>2408.8000488281</ele>
        <time>2023-07-26T08:55:31.000Z</time>
      </trkpt>
      <trkpt lat="42.70015" lon="1.16214">
        <ele>2409.6000976562</ele>
        <time>2023-07-26T08:55:34.000Z</time>
      </trkpt>
      <trkpt lat="42.70017" lon="1.16212">
        <ele>2409.3999023438</ele>
        <time>2023-07-26T08:55:41.000Z</time>
      </trkpt>
      <trkpt lat="42.70017" lon="1.16212">
        <ele>2409.8000488281</ele>
        <time>2023-07-26T08:55:45.000Z</time>
      </trkpt>
      <trkpt lat="42.7002" lon="1.16208">
        <ele>2410.3999023438</ele>
        <time>2023-07-26T08:55:49.000Z</time>
      </trkpt>
      <trkpt lat="42.70022" lon="1.16204">
        <ele>2411</ele>
        <time>2023-07-26T08:55:51.000Z</time>
      </trkpt>
      <trkpt lat="42.70022" lon="1.16204">
        <ele>2411.1999511719</ele>
        <time>2023-07-26T08:55:55.000Z</time>
      </trkpt>
      <trkpt lat="42.70019" lon="1.16209">
        <ele>2411.1999511719</ele>
        <time>2023-07-26T08:56:03.000Z</time>
      </trkpt>
      <trkpt lat="42.70021" lon="1.1621">
        <ele>2411.3999023438</ele>
        <time>2023-07-26T08:56:10.000Z</time>
      </trkpt>
      <trkpt lat="42.70024" lon="1.16207">
        <ele>2412</ele>
        <time>2023-07-26T08:56:17.000Z</time>
      </trkpt>
      <trkpt lat="42.70026" lon="1.16208">
        <ele>2413.1999511719</ele>
        <time>2023-07-26T08:56:24.000Z</time>
      </trkpt>
      <trkpt lat="42.70027" lon="1.16207">
        <ele>2413</ele>
        <time>2023-07-26T08:56:33.000Z</time>
      </trkpt>
      <trkpt lat="42.70025" lon="1.16212">
        <ele>2414</ele>
        <time>2023-07-26T08:56:43.000Z</time>
      </trkpt>
      <trkpt lat="42.70029" lon="1.16208">
        <ele>2414.1999511719</ele>
        <time>2023-07-26T08:56:50.000Z</time>
      </trkpt>
      <trkpt lat="42.7003" lon="1.16208">
        <ele>2414.1999511719</ele>
        <time>2023-07-26T08:56:51.000Z</time>
      </trkpt>
      <trkpt lat="42.70032" lon="1.1621">
        <ele>2415.3999023438</ele>
        <time>2023-07-26T08:56:56.000Z</time>
      </trkpt>
      <trkpt lat="42.70032" lon="1.16211">
        <ele>2415.6000976562</ele>
        <time>2023-07-26T08:56:59.000Z</time>
      </trkpt>
      <trkpt lat="42.70035" lon="1.16214">
        <ele>2416.3999023438</ele>
        <time>2023-07-26T08:57:08.000Z</time>
      </trkpt>
      <trkpt lat="42.70037" lon="1.16212">
        <ele>2417.3999023438</ele>
        <time>2023-07-26T08:57:17.000Z</time>
      </trkpt>
      <trkpt lat="42.70037" lon="1.16212">
        <ele>2417.3999023438</ele>
        <time>2023-07-26T08:57:18.000Z</time>
      </trkpt>
      <trkpt lat="42.70039" lon="1.16209">
        <ele>2418.6000976562</ele>
        <time>2023-07-26T08:57:24.000Z</time>
      </trkpt>
      <trkpt lat="42.70038" lon="1.16209">
        <ele>2418.6000976562</ele>
        <time>2023-07-26T08:57:25.000Z</time>
      </trkpt>
      <trkpt lat="42.70037" lon="1.1621">
        <ele>2419</ele>
        <time>2023-07-26T08:57:33.000Z</time>
      </trkpt>
      <trkpt lat="42.70038" lon="1.16209">
        <ele>2419.6000976562</ele>
        <time>2023-07-26T08:57:37.000Z</time>
      </trkpt>
      <trkpt lat="42.70039" lon="1.16209">
        <ele>2420.3999023438</ele>
        <time>2023-07-26T08:57:40.000Z</time>
      </trkpt>
      <trkpt lat="42.7004" lon="1.16209">
        <ele>2420.8000488281</ele>
        <time>2023-07-26T08:57:45.000Z</time>
      </trkpt>
      <trkpt lat="42.7004" lon="1.16209">
        <ele>2421</ele>
        <time>2023-07-26T08:57:46.000Z</time>
      </trkpt>
      <trkpt lat="42.7004" lon="1.16209">
        <ele>2421.6000976562</ele>
        <time>2023-07-26T08:57:52.000Z</time>
      </trkpt>
      <trkpt lat="42.7004" lon="1.16209">
        <ele>2421.8000488281</ele>
        <time>2023-07-26T08:57:53.000Z</time>
      </trkpt>
      <trkpt lat="42.70042" lon="1.16208">
        <ele>2423</ele>
        <time>2023-07-26T08:58:00.000Z</time>
      </trkpt>
      <trkpt lat="42.70044" lon="1.16208">
        <ele>2424.1999511719</ele>
        <time>2023-07-26T08:58:07.000Z</time>
      </trkpt>
      <trkpt lat="42.70047" lon="1.16207">
        <ele>2425.1999511719</ele>
        <time>2023-07-26T08:58:13.000Z</time>
      </trkpt>
      <trkpt lat="42.70048" lon="1.16207">
        <ele>2425.3999023438</ele>
        <time>2023-07-26T08:58:15.000Z</time>
      </trkpt>
      <trkpt lat="42.7005" lon="1.16205">
        <ele>2426.3999023438</ele>
        <time>2023-07-26T08:58:20.000Z</time>
      </trkpt>
      <trkpt lat="42.70052" lon="1.16204">
        <ele>2427.1999511719</ele>
        <time>2023-07-26T08:58:24.000Z</time>
      </trkpt>
      <trkpt lat="42.70053" lon="1.16203">
        <ele>2427.3999023438</ele>
        <time>2023-07-26T08:58:27.000Z</time>
      </trkpt>
      <trkpt lat="42.70053" lon="1.16204">
        <ele>2428.1999511719</ele>
        <time>2023-07-26T08:58:31.000Z</time>
      </trkpt>
      <trkpt lat="42.70054" lon="1.16205">
        <ele>2428.1999511719</ele>
        <time>2023-07-26T08:58:39.000Z</time>
      </trkpt>
      <trkpt lat="42.70054" lon="1.16204">
        <ele>2428.6000976562</ele>
        <time>2023-07-26T08:58:43.000Z</time>
      </trkpt>
      <trkpt lat="42.70054" lon="1.16204">
        <ele>2429.1999511719</ele>
        <time>2023-07-26T08:58:46.000Z</time>
      </trkpt>
      <trkpt lat="42.70054" lon="1.16203">
        <ele>2429.6000976562</ele>
        <time>2023-07-26T08:58:49.000Z</time>
      </trkpt>
      <trkpt lat="42.70054" lon="1.16201">
        <ele>2429.8000488281</ele>
        <time>2023-07-26T08:58:52.000Z</time>
      </trkpt>
      <trkpt lat="42.70056" lon="1.16198">
        <ele>2430.8000488281</ele>
        <time>2023-07-26T08:58:59.000Z</time>
      </trkpt>
      <trkpt lat="42.70058" lon="1.16197">
        <ele>2431.8000488281</ele>
        <time>2023-07-26T08:59:05.000Z</time>
      </trkpt>
      <trkpt lat="42.70058" lon="1.16194">
        <ele>2432.8000488281</ele>
        <time>2023-07-26T08:59:11.000Z</time>
      </trkpt>
      <trkpt lat="42.70058" lon="1.16193">
        <ele>2433</ele>
        <time>2023-07-26T08:59:12.000Z</time>
      </trkpt>
      <trkpt lat="42.70056" lon="1.1619">
        <ele>2433.8000488281</ele>
        <time>2023-07-26T08:59:18.000Z</time>
      </trkpt>
      <trkpt lat="42.70055" lon="1.1619">
        <ele>2434</ele>
        <time>2023-07-26T08:59:20.000Z</time>
      </trkpt>
      <trkpt lat="42.70054" lon="1.16189">
        <ele>2434.1999511719</ele>
        <time>2023-07-26T08:59:24.000Z</time>
      </trkpt>
      <trkpt lat="42.70053" lon="1.16189">
        <ele>2435</ele>
        <time>2023-07-26T08:59:28.000Z</time>
      </trkpt>
      <trkpt lat="42.70053" lon="1.16191">
        <ele>2435.6000976562</ele>
        <time>2023-07-26T08:59:31.000Z</time>
      </trkpt>
      <trkpt lat="42.70053" lon="1.16193">
        <ele>2436.1999511719</ele>
        <time>2023-07-26T08:59:34.000Z</time>
      </trkpt>
      <trkpt lat="42.70053" lon="1.16194">
        <ele>2436.3999023438</ele>
        <time>2023-07-26T08:59:40.000Z</time>
      </trkpt>
      <trkpt lat="42.70055" lon="1.16196">
        <ele>2436.6000976562</ele>
        <time>2023-07-26T08:59:46.000Z</time>
      </trkpt>
      <trkpt lat="42.70057" lon="1.16196">
        <ele>2437.1999511719</ele>
        <time>2023-07-26T08:59:51.000Z</time>
      </trkpt>
      <trkpt lat="42.70058" lon="1.16194">
        <ele>2438</ele>
        <time>2023-07-26T08:59:54.000Z</time>
      </trkpt>
      <trkpt lat="42.70058" lon="1.16193">
        <ele>2438.3999023438</ele>
        <time>2023-07-26T08:59:57.000Z</time>
      </trkpt>
      <trkpt lat="42.70059" lon="1.16192">
        <ele>2438.8000488281</ele>
        <time>2023-07-26T09:00:01.000Z</time>
      </trkpt>
      <trkpt lat="42.70059" lon="1.16192">
        <ele>2439.3999023438</ele>
        <time>2023-07-26T09:00:07.000Z</time>
      </trkpt>
      <trkpt lat="42.70058" lon="1.1619">
        <ele>2439.6000976562</ele>
        <time>2023-07-26T09:00:10.000Z</time>
      </trkpt>
      <trkpt lat="42.70058" lon="1.1619">
        <ele>2440.3999023438</ele>
        <time>2023-07-26T09:00:17.000Z</time>
      </trkpt>
      <trkpt lat="42.70058" lon="1.1619">
        <ele>2440.6000976562</ele>
        <time>2023-07-26T09:00:18.000Z</time>
      </trkpt>
      <trkpt lat="42.7006" lon="1.16187">
        <ele>2441.6000976562</ele>
        <time>2023-07-26T09:00:24.000Z</time>
      </trkpt>
      <trkpt lat="42.7006" lon="1.16187">
        <ele>2441.6000976562</ele>
        <time>2023-07-26T09:00:25.000Z</time>
      </trkpt>
      <trkpt lat="42.70062" lon="1.16184">
        <ele>2442.1999511719</ele>
        <time>2023-07-26T09:00:31.000Z</time>
      </trkpt>
      <trkpt lat="42.70063" lon="1.16183">
        <ele>2442.6000976562</ele>
        <time>2023-07-26T09:00:35.000Z</time>
      </trkpt>
      <trkpt lat="42.70062" lon="1.16183">
        <ele>2443</ele>
        <time>2023-07-26T09:00:37.000Z</time>
      </trkpt>
      <trkpt lat="42.70063" lon="1.16181">
        <ele>2443.6000976562</ele>
        <time>2023-07-26T09:00:42.000Z</time>
      </trkpt>
      <trkpt lat="42.70063" lon="1.1618">
        <ele>2444.1999511719</ele>
        <time>2023-07-26T09:00:44.000Z</time>
      </trkpt>
      <trkpt lat="42.70063" lon="1.1618">
        <ele>2444.8000488281</ele>
        <time>2023-07-26T09:00:49.000Z</time>
      </trkpt>
      <trkpt lat="42.70063" lon="1.1618">
        <ele>2445.1999511719</ele>
        <time>2023-07-26T09:00:51.000Z</time>
      </trkpt>
      <trkpt lat="42.70063" lon="1.16179">
        <ele>2446</ele>
        <time>2023-07-26T09:00:55.000Z</time>
      </trkpt>
      <trkpt lat="42.70063" lon="1.16178">
        <ele>2446.3999023438</ele>
        <time>2023-07-26T09:01:00.000Z</time>
      </trkpt>
      <trkpt lat="42.70063" lon="1.16173">
        <ele>2446.8000488281</ele>
        <time>2023-07-26T09:01:08.000Z</time>
      </trkpt>
      <trkpt lat="42.70062" lon="1.16172">
        <ele>2446.8000488281</ele>
        <time>2023-07-26T09:01:14.000Z</time>
      </trkpt>
      <trkpt lat="42.70061" lon="1.16174">
        <ele>2446.8000488281</ele>
        <time>2023-07-26T09:01:20.000Z</time>
      </trkpt>
      <trkpt lat="42.70059" lon="1.16175">
        <ele>2446.8000488281</ele>
        <time>2023-07-26T09:01:29.000Z</time>
      </trkpt>
      <trkpt lat="42.70059" lon="1.16176">
        <ele>2447</ele>
        <time>2023-07-26T09:01:33.000Z</time>
      </trkpt>
      <trkpt lat="42.70058" lon="1.16176">
        <ele>2447.1999511719</ele>
        <time>2023-07-26T09:01:38.000Z</time>
      </trkpt>
      <trkpt lat="42.70058" lon="1.16176">
        <ele>2447.1999511719</ele>
        <time>2023-07-26T09:01:45.000Z</time>
      </trkpt>
      <trkpt lat="42.7006" lon="1.16177">
        <ele>2447.3999023438</ele>
        <time>2023-07-26T09:01:53.000Z</time>
      </trkpt>
      <trkpt lat="42.70063" lon="1.16177">
        <ele>2447.3999023438</ele>
        <time>2023-07-26T09:01:59.000Z</time>
      </trkpt>
      <trkpt lat="42.70065" lon="1.16177">
        <ele>2448</ele>
        <time>2023-07-26T09:02:05.000Z</time>
      </trkpt>
      <trkpt lat="42.70066" lon="1.16176">
        <ele>2448.3999023438</ele>
        <time>2023-07-26T09:02:07.000Z</time>
      </trkpt>
      <trkpt lat="42.70067" lon="1.16175">
        <ele>2449</ele>
        <time>2023-07-26T09:02:10.000Z</time>
      </trkpt>
      <trkpt lat="42.70067" lon="1.16174">
        <ele>2449.3999023438</ele>
        <time>2023-07-26T09:02:15.000Z</time>
      </trkpt>
      <trkpt lat="42.70066" lon="1.16174">
        <ele>2450.1999511719</ele>
        <time>2023-07-26T09:02:21.000Z</time>
      </trkpt>
      <trkpt lat="42.70066" lon="1.16174">
        <ele>2450.3999023438</ele>
        <time>2023-07-26T09:02:23.000Z</time>
      </trkpt>
      <trkpt lat="42.70067" lon="1.16173">
        <ele>2451.3999023438</ele>
        <time>2023-07-26T09:02:29.000Z</time>
      </trkpt>
      <trkpt lat="42.70067" lon="1.16173">
        <ele>2451.6000976562</ele>
        <time>2023-07-26T09:02:30.000Z</time>
      </trkpt>
      <trkpt lat="42.70067" lon="1.16173">
        <ele>2452.3999023438</ele>
        <time>2023-07-26T09:02:34.000Z</time>
      </trkpt>
      <trkpt lat="42.70067" lon="1.16173">
        <ele>2452.6000976562</ele>
        <time>2023-07-26T09:02:38.000Z</time>
      </trkpt>
      <trkpt lat="42.7007" lon="1.16174">
        <ele>2453.3999023438</ele>
        <time>2023-07-26T09:02:44.000Z</time>
      </trkpt>
      <trkpt lat="42.7007" lon="1.16175">
        <ele>2454.3999023438</ele>
        <time>2023-07-26T09:02:49.000Z</time>
      </trkpt>
      <trkpt lat="42.7007" lon="1.16175">
        <ele>2454.6000976562</ele>
        <time>2023-07-26T09:02:50.000Z</time>
      </trkpt>
      <trkpt lat="42.70071" lon="1.16175">
        <ele>2455.3999023438</ele>
        <time>2023-07-26T09:02:55.000Z</time>
      </trkpt>
      <trkpt lat="42.70072" lon="1.16175">
        <ele>2455.6000976562</ele>
        <time>2023-07-26T09:02:58.000Z</time>
      </trkpt>
      <trkpt lat="42.70077" lon="1.16177">
        <ele>2456.8000488281</ele>
        <time>2023-07-26T09:03:07.000Z</time>
      </trkpt>
      <trkpt lat="42.70079" lon="1.16177">
        <ele>2457.6000976562</ele>
        <time>2023-07-26T09:03:10.000Z</time>
      </trkpt>
      <trkpt lat="42.70081" lon="1.16176">
        <ele>2458</ele>
        <time>2023-07-26T09:03:15.000Z</time>
      </trkpt>
      <trkpt lat="42.70079" lon="1.16173">
        <ele>2458.8000488281</ele>
        <time>2023-07-26T09:03:19.000Z</time>
      </trkpt>
      <trkpt lat="42.70079" lon="1.16173">
        <ele>2459.6000976562</ele>
        <time>2023-07-26T09:03:22.000Z</time>
      </trkpt>
      <trkpt lat="42.70081" lon="1.16173">
        <ele>2459.8000488281</ele>
        <time>2023-07-26T09:03:28.000Z</time>
      </trkpt>
      <trkpt lat="42.70084" lon="1.16171">
        <ele>2461</ele>
        <time>2023-07-26T09:03:35.000Z</time>
      </trkpt>
      <trkpt lat="42.70085" lon="1.16169">
        <ele>2461</ele>
        <time>2023-07-26T09:03:46.000Z</time>
      </trkpt>
      <trkpt lat="42.70083" lon="1.16169">
        <ele>2460.8000488281</ele>
        <time>2023-07-26T09:03:55.000Z</time>
      </trkpt>
      <trkpt lat="42.70083" lon="1.16171">
        <ele>2460.8000488281</ele>
        <time>2023-07-26T09:04:01.000Z</time>
      </trkpt>
      <trkpt lat="42.70082" lon="1.16171">
        <ele>2461.3999023438</ele>
        <time>2023-07-26T09:04:08.000Z</time>
      </trkpt>
      <trkpt lat="42.70082" lon="1.16171">
        <ele>2462.1999511719</ele>
        <time>2023-07-26T09:04:12.000Z</time>
      </trkpt>
      <trkpt lat="42.70081" lon="1.16171">
        <ele>2463</ele>
        <time>2023-07-26T09:04:15.000Z</time>
      </trkpt>
      <trkpt lat="42.70082" lon="1.16171">
        <ele>2463.1999511719</ele>
        <time>2023-07-26T09:04:17.000Z</time>
      </trkpt>
      <trkpt lat="42.70083" lon="1.16171">
        <ele>2463.8000488281</ele>
        <time>2023-07-26T09:04:21.000Z</time>
      </trkpt>
      <trkpt lat="42.70083" lon="1.16171">
        <ele>2464.3999023438</ele>
        <time>2023-07-26T09:04:24.000Z</time>
      </trkpt>
      <trkpt lat="42.70086" lon="1.16169">
        <ele>2465</ele>
        <time>2023-07-26T09:04:30.000Z</time>
      </trkpt>
      <trkpt lat="42.70089" lon="1.16168">
        <ele>2465.8000488281</ele>
        <time>2023-07-26T09:04:33.000Z</time>
      </trkpt>
      <trkpt lat="42.70091" lon="1.16167">
        <ele>2466.8000488281</ele>
        <time>2023-07-26T09:04:37.000Z</time>
      </trkpt>
      <trkpt lat="42.70092" lon="1.16167">
        <ele>2468</ele>
        <time>2023-07-26T09:04:41.000Z</time>
      </trkpt>
      <trkpt lat="42.70092" lon="1.16167">
        <ele>2468</ele>
        <time>2023-07-26T09:04:43.000Z</time>
      </trkpt>
      <trkpt lat="42.70093" lon="1.16166">
        <ele>2469</ele>
        <time>2023-07-26T09:04:54.000Z</time>
      </trkpt>
      <trkpt lat="42.70091" lon="1.16167">
        <ele>2469.1999511719</ele>
        <time>2023-07-26T09:05:03.000Z</time>
      </trkpt>
      <trkpt lat="42.7009" lon="1.16169">
        <ele>2469.6000976562</ele>
        <time>2023-07-26T09:05:11.000Z</time>
      </trkpt>
      <trkpt lat="42.70089" lon="1.16168">
        <ele>2470</ele>
        <time>2023-07-26T09:05:16.000Z</time>
      </trkpt>
      <trkpt lat="42.70089" lon="1.16167">
        <ele>2470.6000976562</ele>
        <time>2023-07-26T09:05:19.000Z</time>
      </trkpt>
      <trkpt lat="42.70092" lon="1.16164">
        <ele>2471</ele>
        <time>2023-07-26T09:05:25.000Z</time>
      </trkpt>
      <trkpt lat="42.70093" lon="1.16164">
        <ele>2471.1999511719</ele>
        <time>2023-07-26T09:05:27.000Z</time>
      </trkpt>
      <trkpt lat="42.70094" lon="1.16162">
        <ele>2472.1999511719</ele>
        <time>2023-07-26T09:05:31.000Z</time>
      </trkpt>
      <trkpt lat="42.70094" lon="1.16162">
        <ele>2472.3999023438</ele>
        <time>2023-07-26T09:05:34.000Z</time>
      </trkpt>
      <trkpt lat="42.70095" lon="1.16161">
        <ele>2473.1999511719</ele>
        <time>2023-07-26T09:05:38.000Z</time>
      </trkpt>
      <trkpt lat="42.70096" lon="1.16159">
        <ele>2473.6000976562</ele>
        <time>2023-07-26T09:05:42.000Z</time>
      </trkpt>
      <trkpt lat="42.70096" lon="1.1616">
        <ele>2473.6000976562</ele>
        <time>2023-07-26T09:05:49.000Z</time>
      </trkpt>
      <trkpt lat="42.70097" lon="1.16158">
        <ele>2474.3999023438</ele>
        <time>2023-07-26T09:05:54.000Z</time>
      </trkpt>
      <trkpt lat="42.70098" lon="1.16157">
        <ele>2475.1999511719</ele>
        <time>2023-07-26T09:05:57.000Z</time>
      </trkpt>
      <trkpt lat="42.70099" lon="1.16156">
        <ele>2475.3999023438</ele>
        <time>2023-07-26T09:05:59.000Z</time>
      </trkpt>
      <trkpt lat="42.70101" lon="1.16156">
        <ele>2475.8000488281</ele>
        <time>2023-07-26T09:06:02.000Z</time>
      </trkpt>
      <trkpt lat="42.70101" lon="1.16157">
        <ele>2475.6000976562</ele>
        <time>2023-07-26T09:06:11.000Z</time>
      </trkpt>
      <trkpt lat="42.701" lon="1.16158">
        <ele>2476.6000976562</ele>
        <time>2023-07-26T09:06:19.000Z</time>
      </trkpt>
      <trkpt lat="42.701" lon="1.16158">
        <ele>2476.6000976562</ele>
        <time>2023-07-26T09:06:20.000Z</time>
      </trkpt>
      <trkpt lat="42.70098" lon="1.16155">
        <ele>2477.6000976562</ele>
        <time>2023-07-26T09:06:27.000Z</time>
      </trkpt>
      <trkpt lat="42.701" lon="1.16155">
        <ele>2478.3999023438</ele>
        <time>2023-07-26T09:06:36.000Z</time>
      </trkpt>
      <trkpt lat="42.701" lon="1.16154">
        <ele>2478.6000976562</ele>
        <time>2023-07-26T09:06:38.000Z</time>
      </trkpt>
      <trkpt lat="42.701" lon="1.16153">
        <ele>2479.1999511719</ele>
        <time>2023-07-26T09:06:41.000Z</time>
      </trkpt>
      <trkpt lat="42.70104" lon="1.16153">
        <ele>2479.6000976562</ele>
        <time>2023-07-26T09:06:49.000Z</time>
      </trkpt>
      <trkpt lat="42.70104" lon="1.16153">
        <ele>2479.8000488281</ele>
        <time>2023-07-26T09:06:53.000Z</time>
      </trkpt>
      <trkpt lat="42.70104" lon="1.16151">
        <ele>2480</ele>
        <time>2023-07-26T09:06:56.000Z</time>
      </trkpt>
      <trkpt lat="42.70103" lon="1.16152">
        <ele>2480</ele>
        <time>2023-07-26T09:07:05.000Z</time>
      </trkpt>
      <trkpt lat="42.70103" lon="1.16156">
        <ele>2479.8000488281</ele>
        <time>2023-07-26T09:07:12.000Z</time>
      </trkpt>
      <trkpt lat="42.70102" lon="1.16155">
        <ele>2480.3999023438</ele>
        <time>2023-07-26T09:07:20.000Z</time>
      </trkpt>
      <trkpt lat="42.70103" lon="1.16157">
        <ele>2481</ele>
        <time>2023-07-26T09:07:24.000Z</time>
      </trkpt>
      <trkpt lat="42.70104" lon="1.16156">
        <ele>2481</ele>
        <time>2023-07-26T09:07:27.000Z</time>
      </trkpt>
      <trkpt lat="42.70105" lon="1.16159">
        <ele>2481.6000976562</ele>
        <time>2023-07-26T09:07:34.000Z</time>
      </trkpt>
      <trkpt lat="42.70102" lon="1.16159">
        <ele>2482.3999023438</ele>
        <time>2023-07-26T09:07:44.000Z</time>
      </trkpt>
      <trkpt lat="42.70106" lon="1.16156">
        <ele>2482.3999023438</ele>
        <time>2023-07-26T09:07:52.000Z</time>
      </trkpt>
      <trkpt lat="42.70107" lon="1.16153">
        <ele>2483.1999511719</ele>
        <time>2023-07-26T09:07:57.000Z</time>
      </trkpt>
      <trkpt lat="42.70107" lon="1.16153">
        <ele>2483.3999023438</ele>
        <time>2023-07-26T09:07:58.000Z</time>
      </trkpt>
      <trkpt lat="42.70108" lon="1.16151">
        <ele>2484.1999511719</ele>
        <time>2023-07-26T09:08:04.000Z</time>
      </trkpt>
      <trkpt lat="42.70109" lon="1.1615">
        <ele>2485</ele>
        <time>2023-07-26T09:08:11.000Z</time>
      </trkpt>
      <trkpt lat="42.70109" lon="1.16149">
        <ele>2485.3999023438</ele>
        <time>2023-07-26T09:08:13.000Z</time>
      </trkpt>
      <trkpt lat="42.70108" lon="1.16149">
        <ele>2486.1999511719</ele>
        <time>2023-07-26T09:08:17.000Z</time>
      </trkpt>
      <trkpt lat="42.70108" lon="1.16147">
        <ele>2486.3999023438</ele>
        <time>2023-07-26T09:08:20.000Z</time>
      </trkpt>
      <trkpt lat="42.70108" lon="1.16147">
        <ele>2487</ele>
        <time>2023-07-26T09:08:24.000Z</time>
      </trkpt>
      <trkpt lat="42.70109" lon="1.16146">
        <ele>2487</ele>
        <time>2023-07-26T09:08:30.000Z</time>
      </trkpt>
      <trkpt lat="42.7011" lon="1.16146">
        <ele>2486.8000488281</ele>
        <time>2023-07-26T09:08:37.000Z</time>
      </trkpt>
      <trkpt lat="42.70109" lon="1.16148">
        <ele>2486.6000976562</ele>
        <time>2023-07-26T09:08:44.000Z</time>
      </trkpt>
      <trkpt lat="42.7011" lon="1.16148">
        <ele>2486.3999023438</ele>
        <time>2023-07-26T09:08:50.000Z</time>
      </trkpt>
      <trkpt lat="42.7011" lon="1.16145">
        <ele>2486.1999511719</ele>
        <time>2023-07-26T09:08:59.000Z</time>
      </trkpt>
      <trkpt lat="42.70112" lon="1.16144">
        <ele>2486</ele>
        <time>2023-07-26T09:09:07.000Z</time>
      </trkpt>
      <trkpt lat="42.70116" lon="1.16146">
        <ele>2485.6000976562</ele>
        <time>2023-07-26T09:09:22.000Z</time>
      </trkpt>
      <trkpt lat="42.70115" lon="1.16148">
        <ele>2485.1999511719</ele>
        <time>2023-07-26T09:09:25.000Z</time>
      </trkpt>
      <trkpt lat="42.70114" lon="1.16147">
        <ele>2485.1999511719</ele>
        <time>2023-07-26T09:09:28.000Z</time>
      </trkpt>
      <trkpt lat="42.70111" lon="1.16147">
        <ele>2485.1999511719</ele>
        <time>2023-07-26T09:09:37.000Z</time>
      </trkpt>
      <trkpt lat="42.70111" lon="1.16146">
        <ele>2485.3999023438</ele>
        <time>2023-07-26T09:09:44.000Z</time>
      </trkpt>
      <trkpt lat="42.70108" lon="1.16143">
        <ele>2485.1999511719</ele>
        <time>2023-07-26T09:09:51.000Z</time>
      </trkpt>
      <trkpt lat="42.70111" lon="1.16143">
        <ele>2485</ele>
        <time>2023-07-26T09:09:57.000Z</time>
      </trkpt>
      <trkpt lat="42.70112" lon="1.16147">
        <ele>2484.3999023438</ele>
        <time>2023-07-26T09:10:02.000Z</time>
      </trkpt>
      <trkpt lat="42.70112" lon="1.16147">
        <ele>2484.1999511719</ele>
        <time>2023-07-26T09:10:04.000Z</time>
      </trkpt>
      <trkpt lat="42.7011" lon="1.16148">
        <ele>2484</ele>
        <time>2023-07-26T09:10:12.000Z</time>
      </trkpt>
      <trkpt lat="42.70113" lon="1.16148">
        <ele>2484</ele>
        <time>2023-07-26T09:10:23.000Z</time>
      </trkpt>
      <trkpt lat="42.70113" lon="1.16149">
        <ele>2483.6000976562</ele>
        <time>2023-07-26T09:10:33.000Z</time>
      </trkpt>
      <trkpt lat="42.70111" lon="1.16146">
        <ele>2483.3999023438</ele>
        <time>2023-07-26T09:10:41.000Z</time>
      </trkpt>
      <trkpt lat="42.70112" lon="1.16149">
        <ele>2483.1999511719</ele>
        <time>2023-07-26T09:10:50.000Z</time>
      </trkpt>
      <trkpt lat="42.70112" lon="1.16149">
        <ele>2483.1999511719</ele>
        <time>2023-07-26T09:10:51.000Z</time>
      </trkpt>
      <trkpt lat="42.70113" lon="1.16148">
        <ele>2483.1999511719</ele>
        <time>2023-07-26T09:10:59.000Z</time>
      </trkpt>
      <trkpt lat="42.70111" lon="1.16148">
        <ele>2483.1999511719</ele>
        <time>2023-07-26T09:11:07.000Z</time>
      </trkpt>
      <trkpt lat="42.70112" lon="1.16146">
        <ele>2482.8000488281</ele>
        <time>2023-07-26T09:11:16.000Z</time>
      </trkpt>
      <trkpt lat="42.70111" lon="1.16145">
        <ele>2482.8000488281</ele>
        <time>2023-07-26T09:11:24.000Z</time>
      </trkpt>
      <trkpt lat="42.7011" lon="1.16146">
        <ele>2482.6000976562</ele>
        <time>2023-07-26T09:11:31.000Z</time>
      </trkpt>
      <trkpt lat="42.70112" lon="1.1615">
        <ele>2482.6000976562</ele>
        <time>2023-07-26T09:11:40.000Z</time>
      </trkpt>
      <trkpt lat="42.70112" lon="1.16148">
        <ele>2482.1999511719</ele>
        <time>2023-07-26T09:11:48.000Z</time>
      </trkpt>
      <trkpt lat="42.70112" lon="1.16148">
        <ele>2482.1999511719</ele>
        <time>2023-07-26T09:11:49.000Z</time>
      </trkpt>
      <trkpt lat="42.70111" lon="1.16146">
        <ele>2482</ele>
        <time>2023-07-26T09:12:00.000Z</time>
      </trkpt>
      <trkpt lat="42.70111" lon="1.16147">
        <ele>2482</ele>
        <time>2023-07-26T09:12:09.000Z</time>
      </trkpt>
      <trkpt lat="42.70111" lon="1.16149">
        <ele>2482</ele>
        <time>2023-07-26T09:12:20.000Z</time>
      </trkpt>
      <trkpt lat="42.70114" lon="1.16149">
        <ele>2481.8000488281</ele>
        <time>2023-07-26T09:12:33.000Z</time>
      </trkpt>
      <trkpt lat="42.70113" lon="1.16149">
        <ele>2481.8000488281</ele>
        <time>2023-07-26T09:12:43.000Z</time>
      </trkpt>
      <trkpt lat="42.70111" lon="1.16149">
        <ele>2481.8000488281</ele>
        <time>2023-07-26T09:12:53.000Z</time>
      </trkpt>
      <trkpt lat="42.70112" lon="1.16147">
        <ele>2481.6000976562</ele>
        <time>2023-07-26T09:13:01.000Z</time>
      </trkpt>
      <trkpt lat="42.7011" lon="1.16148">
        <ele>2481.1999511719</ele>
        <time>2023-07-26T09:13:08.000Z</time>
      </trkpt>
      <trkpt lat="42.7011" lon="1.16149">
        <ele>2481.1999511719</ele>
        <time>2023-07-26T09:13:09.000Z</time>
      </trkpt>
      <trkpt lat="42.70115" lon="1.1615">
        <ele>2481.1999511719</ele>
        <time>2023-07-26T09:13:20.000Z</time>
      </trkpt>
      <trkpt lat="42.70113" lon="1.16149">
        <ele>2480.8000488281</ele>
        <time>2023-07-26T09:13:29.000Z</time>
      </trkpt>
      <trkpt lat="42.70111" lon="1.16148">
        <ele>2480.8000488281</ele>
        <time>2023-07-26T09:13:36.000Z</time>
      </trkpt>
      <trkpt lat="42.70113" lon="1.16147">
        <ele>2480.6000976562</ele>
        <time>2023-07-26T09:13:46.000Z</time>
      </trkpt>
      <trkpt lat="42.70112" lon="1.16144">
        <ele>2480.6000976562</ele>
        <time>2023-07-26T09:13:54.000Z</time>
      </trkpt>
      <trkpt lat="42.70115" lon="1.16146">
        <ele>2480.3999023438</ele>
        <time>2023-07-26T09:14:00.000Z</time>
      </trkpt>
      <trkpt lat="42.70113" lon="1.16147">
        <ele>2480.3999023438</ele>
        <time>2023-07-26T09:14:08.000Z</time>
      </trkpt>
      <trkpt lat="42.70113" lon="1.16147">
        <ele>2480.1999511719</ele>
        <time>2023-07-26T09:14:10.000Z</time>
      </trkpt>
      <trkpt lat="42.70114" lon="1.1615">
        <ele>2479.8000488281</ele>
        <time>2023-07-26T09:14:17.000Z</time>
      </trkpt>
      <trkpt lat="42.70113" lon="1.16149">
        <ele>2480</ele>
        <time>2023-07-26T09:14:25.000Z</time>
      </trkpt>
      <trkpt lat="42.70114" lon="1.16149">
        <ele>2479.8000488281</ele>
        <time>2023-07-26T09:14:33.000Z</time>
      </trkpt>
      <trkpt lat="42.70111" lon="1.1615">
        <ele>2479.6000976562</ele>
        <time>2023-07-26T09:14:42.000Z</time>
      </trkpt>
      <trkpt lat="42.70113" lon="1.16149">
        <ele>2479.1999511719</ele>
        <time>2023-07-26T09:14:49.000Z</time>
      </trkpt>
      <trkpt lat="42.70114" lon="1.16149">
        <ele>2479.1999511719</ele>
        <time>2023-07-26T09:14:57.000Z</time>
      </trkpt>
      <trkpt lat="42.70113" lon="1.16146">
        <ele>2479.8000488281</ele>
        <time>2023-07-26T09:15:04.000Z</time>
      </trkpt>
      <trkpt lat="42.70113" lon="1.16147">
        <ele>2479.6000976562</ele>
        <time>2023-07-26T09:15:12.000Z</time>
      </trkpt>
      <trkpt lat="42.70113" lon="1.16148">
        <ele>2479.3999023438</ele>
        <time>2023-07-26T09:15:18.000Z</time>
      </trkpt>
      <trkpt lat="42.70115" lon="1.16148">
        <ele>2479.1999511719</ele>
        <time>2023-07-26T09:15:27.000Z</time>
      </trkpt>
      <trkpt lat="42.70113" lon="1.16148">
        <ele>2479.6000976562</ele>
        <time>2023-07-26T09:15:33.000Z</time>
      </trkpt>
      <trkpt lat="42.70114" lon="1.16149">
        <ele>2480</ele>
        <time>2023-07-26T09:15:43.000Z</time>
      </trkpt>
      <trkpt lat="42.70114" lon="1.16147">
        <ele>2479.8000488281</ele>
        <time>2023-07-26T09:15:52.000Z</time>
      </trkpt>
      <trkpt lat="42.70113" lon="1.1615">
        <ele>2480</ele>
        <time>2023-07-26T09:16:01.000Z</time>
      </trkpt>
      <trkpt lat="42.70114" lon="1.16149">
        <ele>2479.8000488281</ele>
        <time>2023-07-26T09:16:09.000Z</time>
      </trkpt>
      <trkpt lat="42.70111" lon="1.16149">
        <ele>2479.6000976562</ele>
        <time>2023-07-26T09:16:17.000Z</time>
      </trkpt>
      <trkpt lat="42.70112" lon="1.16148">
        <ele>2479.6000976562</ele>
        <time>2023-07-26T09:16:23.000Z</time>
      </trkpt>
      <trkpt lat="42.70111" lon="1.16145">
        <ele>2479</ele>
        <time>2023-07-26T09:16:30.000Z</time>
      </trkpt>
      <trkpt lat="42.70112" lon="1.16145">
        <ele>2478.1999511719</ele>
        <time>2023-07-26T09:16:38.000Z</time>
      </trkpt>
      <trkpt lat="42.70112" lon="1.16144">
        <ele>2478</ele>
        <time>2023-07-26T09:16:39.000Z</time>
      </trkpt>
      <trkpt lat="42.70114" lon="1.16139">
        <ele>2477.3999023438</ele>
        <time>2023-07-26T09:16:46.000Z</time>
      </trkpt>
      <trkpt lat="42.70113" lon="1.16139">
        <ele>2477</ele>
        <time>2023-07-26T09:16:50.000Z</time>
      </trkpt>
      <trkpt lat="42.70112" lon="1.16138">
        <ele>2476.3999023438</ele>
        <time>2023-07-26T09:16:54.000Z</time>
      </trkpt>
      <trkpt lat="42.7011" lon="1.16138">
        <ele>2474.1999511719</ele>
        <time>2023-07-26T09:17:12.000Z</time>
      </trkpt>
      <trkpt lat="42.70115" lon="1.16134">
        <ele>2472.6000976562</ele>
        <time>2023-07-26T09:17:35.000Z</time>
      </trkpt>
      <trkpt lat="42.70113" lon="1.16132">
        <ele>2471.6000976562</ele>
        <time>2023-07-26T09:17:41.000Z</time>
      </trkpt>
      <trkpt lat="42.70113" lon="1.16132">
        <ele>2471.6000976562</ele>
        <time>2023-07-26T09:17:42.000Z</time>
      </trkpt>
      <trkpt lat="42.70112" lon="1.16131">
        <ele>2470.6000976562</ele>
        <time>2023-07-26T09:17:49.000Z</time>
      </trkpt>
      <trkpt lat="42.70112" lon="1.16132">
        <ele>2470.1999511719</ele>
        <time>2023-07-26T09:17:51.000Z</time>
      </trkpt>
      <trkpt lat="42.7011" lon="1.16128">
        <ele>2469</ele>
        <time>2023-07-26T09:18:06.000Z</time>
      </trkpt>
      <trkpt lat="42.70111" lon="1.16128">
        <ele>2468.6000976562</ele>
        <time>2023-07-26T09:18:10.000Z</time>
      </trkpt>
      <trkpt lat="42.70112" lon="1.16127">
        <ele>2468.1999511719</ele>
        <time>2023-07-26T09:18:14.000Z</time>
      </trkpt>
      <trkpt lat="42.70113" lon="1.16125">
        <ele>2467.6000976562</ele>
        <time>2023-07-26T09:18:24.000Z</time>
      </trkpt>
      <trkpt lat="42.70114" lon="1.16127">
        <ele>2467.3999023438</ele>
        <time>2023-07-26T09:18:26.000Z</time>
      </trkpt>
      <trkpt lat="42.70115" lon="1.16124">
        <ele>2465.1999511719</ele>
        <time>2023-07-26T09:18:39.000Z</time>
      </trkpt>
      <trkpt lat="42.70115" lon="1.16119">
        <ele>2464</ele>
        <time>2023-07-26T09:18:46.000Z</time>
      </trkpt>
      <trkpt lat="42.70114" lon="1.16116">
        <ele>2463.3999023438</ele>
        <time>2023-07-26T09:18:50.000Z</time>
      </trkpt>
      <trkpt lat="42.70114" lon="1.16114">
        <ele>2463</ele>
        <time>2023-07-26T09:18:53.000Z</time>
      </trkpt>
      <trkpt lat="42.70115" lon="1.16114">
        <ele>2462.1999511719</ele>
        <time>2023-07-26T09:18:59.000Z</time>
      </trkpt>
      <trkpt lat="42.70115" lon="1.16114">
        <ele>2462</ele>
        <time>2023-07-26T09:19:00.000Z</time>
      </trkpt>
      <trkpt lat="42.7012" lon="1.16105">
        <ele>2455.1999511719</ele>
        <time>2023-07-26T09:19:49.000Z</time>
      </trkpt>
      <trkpt lat="42.70121" lon="1.16102">
        <ele>2454.6000976562</ele>
        <time>2023-07-26T09:19:53.000Z</time>
      </trkpt>
      <trkpt lat="42.70122" lon="1.16102">
        <ele>2454.1999511719</ele>
        <time>2023-07-26T09:19:55.000Z</time>
      </trkpt>
      <trkpt lat="42.70123" lon="1.16101">
        <ele>2453</ele>
        <time>2023-07-26T09:19:58.000Z</time>
      </trkpt>
      <trkpt lat="42.70124" lon="1.16098">
        <ele>2451.6000976562</ele>
        <time>2023-07-26T09:20:05.000Z</time>
      </trkpt>
      <trkpt lat="42.70127" lon="1.16095">
        <ele>2450.8000488281</ele>
        <time>2023-07-26T09:20:11.000Z</time>
      </trkpt>
      <trkpt lat="42.70127" lon="1.16095">
        <ele>2450.6000976562</ele>
        <time>2023-07-26T09:20:12.000Z</time>
      </trkpt>
      <trkpt lat="42.70124" lon="1.1609">
        <ele>2446</ele>
        <time>2023-07-26T09:20:42.000Z</time>
      </trkpt>
      <trkpt lat="42.70129" lon="1.16087">
        <ele>2444</ele>
        <time>2023-07-26T09:20:59.000Z</time>
      </trkpt>
      <trkpt lat="42.70127" lon="1.16086">
        <ele>2443.3999023438</ele>
        <time>2023-07-26T09:21:04.000Z</time>
      </trkpt>
      <trkpt lat="42.70126" lon="1.16086">
        <ele>2442.8000488281</ele>
        <time>2023-07-26T09:21:08.000Z</time>
      </trkpt>
      <trkpt lat="42.70128" lon="1.16085">
        <ele>2442.1999511719</ele>
        <time>2023-07-26T09:21:13.000Z</time>
      </trkpt>
      <trkpt lat="42.70131" lon="1.16082">
        <ele>2441.8000488281</ele>
        <time>2023-07-26T09:21:18.000Z</time>
      </trkpt>
      <trkpt lat="42.70129" lon="1.16082">
        <ele>2441.3999023438</ele>
        <time>2023-07-26T09:21:21.000Z</time>
      </trkpt>
      <trkpt lat="42.70128" lon="1.16082">
        <ele>2440.6000976562</ele>
        <time>2023-07-26T09:21:26.000Z</time>
      </trkpt>
      <trkpt lat="42.70132" lon="1.1608">
        <ele>2440</ele>
        <time>2023-07-26T09:21:35.000Z</time>
      </trkpt>
      <trkpt lat="42.70137" lon="1.16076">
        <ele>2439.6000976562</ele>
        <time>2023-07-26T09:21:41.000Z</time>
      </trkpt>
      <trkpt lat="42.70137" lon="1.16076">
        <ele>2439.3999023438</ele>
        <time>2023-07-26T09:21:42.000Z</time>
      </trkpt>
      <trkpt lat="42.70136" lon="1.1607">
        <ele>2435</ele>
        <time>2023-07-26T09:22:15.000Z</time>
      </trkpt>
      <trkpt lat="42.70133" lon="1.16056">
        <ele>2431.6000976562</ele>
        <time>2023-07-26T09:22:37.000Z</time>
      </trkpt>
      <trkpt lat="42.70135" lon="1.16058">
        <ele>2430.1999511719</ele>
        <time>2023-07-26T09:23:04.000Z</time>
      </trkpt>
      <trkpt lat="42.70135" lon="1.16057">
        <ele>2430</ele>
        <time>2023-07-26T09:23:06.000Z</time>
      </trkpt>
      <trkpt lat="42.70137" lon="1.16057">
        <ele>2429.6000976562</ele>
        <time>2023-07-26T09:23:12.000Z</time>
      </trkpt>
      <trkpt lat="42.70132" lon="1.16048">
        <ele>2428.8000488281</ele>
        <time>2023-07-26T09:23:20.000Z</time>
      </trkpt>
      <trkpt lat="42.70135" lon="1.16044">
        <ele>2428.3999023438</ele>
        <time>2023-07-26T09:23:24.000Z</time>
      </trkpt>
      <trkpt lat="42.70138" lon="1.16041">
        <ele>2427.8000488281</ele>
        <time>2023-07-26T09:23:28.000Z</time>
      </trkpt>
      <trkpt lat="42.70139" lon="1.16041">
        <ele>2427.6000976562</ele>
        <time>2023-07-26T09:23:30.000Z</time>
      </trkpt>
      <trkpt lat="42.70141" lon="1.16043">
        <ele>2424.3999023438</ele>
        <time>2023-07-26T09:23:52.000Z</time>
      </trkpt>
      <trkpt lat="42.7014" lon="1.16036">
        <ele>2422.1999511719</ele>
        <time>2023-07-26T09:24:09.000Z</time>
      </trkpt>
      <trkpt lat="42.70141" lon="1.1603">
        <ele>2420.6000976562</ele>
        <time>2023-07-26T09:24:23.000Z</time>
      </trkpt>
      <trkpt lat="42.7014" lon="1.16029">
        <ele>2420</ele>
        <time>2023-07-26T09:24:30.000Z</time>
      </trkpt>
      <trkpt lat="42.70137" lon="1.16026">
        <ele>2419</ele>
        <time>2023-07-26T09:24:38.000Z</time>
      </trkpt>
      <trkpt lat="42.70141" lon="1.1603">
        <ele>2418.3999023438</ele>
        <time>2023-07-26T09:24:46.000Z</time>
      </trkpt>
      <trkpt lat="42.70145" lon="1.16021">
        <ele>2417.8000488281</ele>
        <time>2023-07-26T09:25:01.000Z</time>
      </trkpt>
      <trkpt lat="42.70145" lon="1.1602">
        <ele>2417.3999023438</ele>
        <time>2023-07-26T09:25:02.000Z</time>
      </trkpt>
      <trkpt lat="42.70145" lon="1.1602">
        <ele>2416.8000488281</ele>
        <time>2023-07-26T09:25:07.000Z</time>
      </trkpt>
      <trkpt lat="42.70146" lon="1.1602">
        <ele>2416.6000976562</ele>
        <time>2023-07-26T09:25:09.000Z</time>
      </trkpt>
      <trkpt lat="42.70145" lon="1.16017">
        <ele>2415</ele>
        <time>2023-07-26T09:25:21.000Z</time>
      </trkpt>
      <trkpt lat="42.70146" lon="1.16016">
        <ele>2414.8000488281</ele>
        <time>2023-07-26T09:25:24.000Z</time>
      </trkpt>
      <trkpt lat="42.70144" lon="1.16016">
        <ele>2414.6000976562</ele>
        <time>2023-07-26T09:25:27.000Z</time>
      </trkpt>
      <trkpt lat="42.70142" lon="1.16008">
        <ele>2412</ele>
        <time>2023-07-26T09:25:45.000Z</time>
      </trkpt>
      <trkpt lat="42.7014" lon="1.16008">
        <ele>2411.6000976562</ele>
        <time>2023-07-26T09:25:48.000Z</time>
      </trkpt>
      <trkpt lat="42.7014" lon="1.16005">
        <ele>2411</ele>
        <time>2023-07-26T09:25:52.000Z</time>
      </trkpt>
      <trkpt lat="42.7014" lon="1.16003">
        <ele>2410.6000976562</ele>
        <time>2023-07-26T09:25:55.000Z</time>
      </trkpt>
      <trkpt lat="42.7014" lon="1.16005">
        <ele>2409.6000976562</ele>
        <time>2023-07-26T09:26:00.000Z</time>
      </trkpt>
      <trkpt lat="42.7014" lon="1.16005">
        <ele>2409.3999023438</ele>
        <time>2023-07-26T09:26:01.000Z</time>
      </trkpt>
      <trkpt lat="42.70139" lon="1.16006">
        <ele>2408.3999023438</ele>
        <time>2023-07-26T09:26:07.000Z</time>
      </trkpt>
      <trkpt lat="42.70138" lon="1.15999">
        <ele>2407.1999511719</ele>
        <time>2023-07-26T09:26:17.000Z</time>
      </trkpt>
      <trkpt lat="42.70137" lon="1.15994">
        <ele>2407</ele>
        <time>2023-07-26T09:26:19.000Z</time>
      </trkpt>
      <trkpt lat="42.70135" lon="1.15993">
        <ele>2406.1999511719</ele>
        <time>2023-07-26T09:26:25.000Z</time>
      </trkpt>
      <trkpt lat="42.70133" lon="1.15987">
        <ele>2405.1999511719</ele>
        <time>2023-07-26T09:26:33.000Z</time>
      </trkpt>
      <trkpt lat="42.70133" lon="1.15986">
        <ele>2405</ele>
        <time>2023-07-26T09:26:34.000Z</time>
      </trkpt>
      <trkpt lat="42.70134" lon="1.15982">
        <ele>2404.1999511719</ele>
        <time>2023-07-26T09:26:41.000Z</time>
      </trkpt>
      <trkpt lat="42.70134" lon="1.15982">
        <ele>2403.8000488281</ele>
        <time>2023-07-26T09:26:44.000Z</time>
      </trkpt>
      <trkpt lat="42.70135" lon="1.15981">
        <ele>2403.1999511719</ele>
        <time>2023-07-26T09:26:49.000Z</time>
      </trkpt>
      <trkpt lat="42.70136" lon="1.15977">
        <ele>2402.8000488281</ele>
        <time>2023-07-26T09:26:55.000Z</time>
      </trkpt>
      <trkpt lat="42.70137" lon="1.1597">
        <ele>2401.8000488281</ele>
        <time>2023-07-26T09:27:03.000Z</time>
      </trkpt>
      <trkpt lat="42.70137" lon="1.15969">
        <ele>2401.6000976562</ele>
        <time>2023-07-26T09:27:05.000Z</time>
      </trkpt>
      <trkpt lat="42.70138" lon="1.15963">
        <ele>2400.6000976562</ele>
        <time>2023-07-26T09:27:11.000Z</time>
      </trkpt>
      <trkpt lat="42.70135" lon="1.15959">
        <ele>2399.3999023438</ele>
        <time>2023-07-26T09:27:17.000Z</time>
      </trkpt>
      <trkpt lat="42.70135" lon="1.15959">
        <ele>2399.3999023438</ele>
        <time>2023-07-26T09:27:18.000Z</time>
      </trkpt>
      <trkpt lat="42.70134" lon="1.15959">
        <ele>2399.1999511719</ele>
        <time>2023-07-26T09:27:20.000Z</time>
      </trkpt>
      <trkpt lat="42.70138" lon="1.15953">
        <ele>2398.6000976562</ele>
        <time>2023-07-26T09:27:26.000Z</time>
      </trkpt>
      <trkpt lat="42.70138" lon="1.15951">
        <ele>2398.3999023438</ele>
        <time>2023-07-26T09:27:29.000Z</time>
      </trkpt>
      <trkpt lat="42.70134" lon="1.15952">
        <ele>2398.1999511719</ele>
        <time>2023-07-26T09:27:34.000Z</time>
      </trkpt>
      <trkpt lat="42.70135" lon="1.15947">
        <ele>2397.8000488281</ele>
        <time>2023-07-26T09:27:42.000Z</time>
      </trkpt>
      <trkpt lat="42.70137" lon="1.15946">
        <ele>2397.1999511719</ele>
        <time>2023-07-26T09:27:48.000Z</time>
      </trkpt>
      <trkpt lat="42.70143" lon="1.15942">
        <ele>2394.8000488281</ele>
        <time>2023-07-26T09:28:01.000Z</time>
      </trkpt>
      <trkpt lat="42.70142" lon="1.1594">
        <ele>2393.8000488281</ele>
        <time>2023-07-26T09:28:05.000Z</time>
      </trkpt>
      <trkpt lat="42.70141" lon="1.15937">
        <ele>2393.6000976562</ele>
        <time>2023-07-26T09:28:07.000Z</time>
      </trkpt>
      <trkpt lat="42.70141" lon="1.15932">
        <ele>2392.8000488281</ele>
        <time>2023-07-26T09:28:13.000Z</time>
      </trkpt>
      <trkpt lat="42.70142" lon="1.15929">
        <ele>2392.3999023438</ele>
        <time>2023-07-26T09:28:15.000Z</time>
      </trkpt>
      <trkpt lat="42.7014" lon="1.15927">
        <ele>2391.6000976562</ele>
        <time>2023-07-26T09:28:18.000Z</time>
      </trkpt>
      <trkpt lat="42.70141" lon="1.15925">
        <ele>2390.8000488281</ele>
        <time>2023-07-26T09:28:22.000Z</time>
      </trkpt>
      <trkpt lat="42.7014" lon="1.15925">
        <ele>2390.3999023438</ele>
        <time>2023-07-26T09:28:24.000Z</time>
      </trkpt>
      <trkpt lat="42.70139" lon="1.15925">
        <ele>2390.1999511719</ele>
        <time>2023-07-26T09:28:26.000Z</time>
      </trkpt>
      <trkpt lat="42.70141" lon="1.15929">
        <ele>2390</ele>
        <time>2023-07-26T09:28:33.000Z</time>
      </trkpt>
      <trkpt lat="42.70142" lon="1.15923">
        <ele>2390</ele>
        <time>2023-07-26T09:28:43.000Z</time>
      </trkpt>
      <trkpt lat="42.70143" lon="1.1592">
        <ele>2389.3999023438</ele>
        <time>2023-07-26T09:28:56.000Z</time>
      </trkpt>
      <trkpt lat="42.70145" lon="1.15923">
        <ele>2388.8000488281</ele>
        <time>2023-07-26T09:29:00.000Z</time>
      </trkpt>
      <trkpt lat="42.70145" lon="1.15926">
        <ele>2388.3999023438</ele>
        <time>2023-07-26T09:29:03.000Z</time>
      </trkpt>
      <trkpt lat="42.70146" lon="1.15926">
        <ele>2388.1999511719</ele>
        <time>2023-07-26T09:29:08.000Z</time>
      </trkpt>
      <trkpt lat="42.7015" lon="1.15928">
        <ele>2387.6000976562</ele>
        <time>2023-07-26T09:29:28.000Z</time>
      </trkpt>
      <trkpt lat="42.7015" lon="1.15929">
        <ele>2387.1999511719</ele>
        <time>2023-07-26T09:29:29.000Z</time>
      </trkpt>
      <trkpt lat="42.70152" lon="1.15929">
        <ele>2386.3999023438</ele>
        <time>2023-07-26T09:29:36.000Z</time>
      </trkpt>
      <trkpt lat="42.70152" lon="1.1593">
        <ele>2386.1999511719</ele>
        <time>2023-07-26T09:29:37.000Z</time>
      </trkpt>
      <trkpt lat="42.70153" lon="1.15929">
        <ele>2385.6000976562</ele>
        <time>2023-07-26T09:29:44.000Z</time>
      </trkpt>
      <trkpt lat="42.70152" lon="1.15927">
        <ele>2385.1999511719</ele>
        <time>2023-07-26T09:29:51.000Z</time>
      </trkpt>
      <trkpt lat="42.70154" lon="1.15925">
        <ele>2384.3999023438</ele>
        <time>2023-07-26T09:29:56.000Z</time>
      </trkpt>
      <trkpt lat="42.70153" lon="1.15922">
        <ele>2384</ele>
        <time>2023-07-26T09:30:00.000Z</time>
      </trkpt>
      <trkpt lat="42.70153" lon="1.15923">
        <ele>2383.6000976562</ele>
        <time>2023-07-26T09:30:03.000Z</time>
      </trkpt>
      <trkpt lat="42.70153" lon="1.15922">
        <ele>2383</ele>
        <time>2023-07-26T09:30:06.000Z</time>
      </trkpt>
      <trkpt lat="42.70161" lon="1.15918">
        <ele>2381.1999511719</ele>
        <time>2023-07-26T09:30:21.000Z</time>
      </trkpt>
      <trkpt lat="42.70162" lon="1.15917">
        <ele>2380.8000488281</ele>
        <time>2023-07-26T09:30:24.000Z</time>
      </trkpt>
      <trkpt lat="42.70163" lon="1.15917">
        <ele>2380.1999511719</ele>
        <time>2023-07-26T09:30:28.000Z</time>
      </trkpt>
      <trkpt lat="42.70158" lon="1.15914">
        <ele>2379.6000976562</ele>
        <time>2023-07-26T09:31:01.000Z</time>
      </trkpt>
      <trkpt lat="42.70158" lon="1.15913">
        <ele>2379.3999023438</ele>
        <time>2023-07-26T09:31:03.000Z</time>
      </trkpt>
      <trkpt lat="42.7016" lon="1.15913">
        <ele>2378.3999023438</ele>
        <time>2023-07-26T09:31:09.000Z</time>
      </trkpt>
      <trkpt lat="42.70161" lon="1.15913">
        <ele>2378.1999511719</ele>
        <time>2023-07-26T09:31:12.000Z</time>
      </trkpt>
      <trkpt lat="42.70164" lon="1.15911">
        <ele>2377.3999023438</ele>
        <time>2023-07-26T09:31:18.000Z</time>
      </trkpt>
      <trkpt lat="42.70165" lon="1.15909">
        <ele>2376.8000488281</ele>
        <time>2023-07-26T09:31:21.000Z</time>
      </trkpt>
      <trkpt lat="42.70168" lon="1.15906">
        <ele>2376.1999511719</ele>
        <time>2023-07-26T09:31:25.000Z</time>
      </trkpt>
      <trkpt lat="42.7017" lon="1.15903">
        <ele>2375.1999511719</ele>
        <time>2023-07-26T09:31:29.000Z</time>
      </trkpt>
      <trkpt lat="42.7017" lon="1.15903">
        <ele>2375</ele>
        <time>2023-07-26T09:31:30.000Z</time>
      </trkpt>
      <trkpt lat="42.70169" lon="1.15899">
        <ele>2372.8000488281</ele>
        <time>2023-07-26T09:31:41.000Z</time>
      </trkpt>
      <trkpt lat="42.7017" lon="1.15899">
        <ele>2372.6000976562</ele>
        <time>2023-07-26T09:31:42.000Z</time>
      </trkpt>
      <trkpt lat="42.70178" lon="1.15894">
        <ele>2369.3999023438</ele>
        <time>2023-07-26T09:31:58.000Z</time>
      </trkpt>
      <trkpt lat="42.7018" lon="1.15893">
        <ele>2368.3999023438</ele>
        <time>2023-07-26T09:32:05.000Z</time>
      </trkpt>
      <trkpt lat="42.70181" lon="1.15887">
        <ele>2367.6000976562</ele>
        <time>2023-07-26T09:32:14.000Z</time>
      </trkpt>
      <trkpt lat="42.70181" lon="1.15884">
        <ele>2367.1999511719</ele>
        <time>2023-07-26T09:32:16.000Z</time>
      </trkpt>
      <trkpt lat="42.70179" lon="1.15879">
        <ele>2366.8000488281</ele>
        <time>2023-07-26T09:32:22.000Z</time>
      </trkpt>
      <trkpt lat="42.70179" lon="1.15878">
        <ele>2366</ele>
        <time>2023-07-26T09:32:26.000Z</time>
      </trkpt>
      <trkpt lat="42.70178" lon="1.15876">
        <ele>2365.6000976562</ele>
        <time>2023-07-26T09:32:28.000Z</time>
      </trkpt>
      <trkpt lat="42.70179" lon="1.15873">
        <ele>2364.8000488281</ele>
        <time>2023-07-26T09:32:32.000Z</time>
      </trkpt>
      <trkpt lat="42.70181" lon="1.15869">
        <ele>2364.1999511719</ele>
        <time>2023-07-26T09:32:36.000Z</time>
      </trkpt>
      <trkpt lat="42.70182" lon="1.15868">
        <ele>2363.8000488281</ele>
        <time>2023-07-26T09:32:38.000Z</time>
      </trkpt>
      <trkpt lat="42.70182" lon="1.1587">
        <ele>2363</ele>
        <time>2023-07-26T09:32:43.000Z</time>
      </trkpt>
      <trkpt lat="42.70181" lon="1.1587">
        <ele>2362.6000976562</ele>
        <time>2023-07-26T09:32:44.000Z</time>
      </trkpt>
      <trkpt lat="42.70184" lon="1.1587">
        <ele>2361.6000976562</ele>
        <time>2023-07-26T09:32:52.000Z</time>
      </trkpt>
      <trkpt lat="42.70191" lon="1.15859">
        <ele>2358.3999023438</ele>
        <time>2023-07-26T09:33:13.000Z</time>
      </trkpt>
      <trkpt lat="42.70192" lon="1.15858">
        <ele>2358.1999511719</ele>
        <time>2023-07-26T09:33:18.000Z</time>
      </trkpt>
      <trkpt lat="42.70195" lon="1.15855">
        <ele>2358</ele>
        <time>2023-07-26T09:33:25.000Z</time>
      </trkpt>
      <trkpt lat="42.70195" lon="1.15849">
        <ele>2357.3999023438</ele>
        <time>2023-07-26T09:33:33.000Z</time>
      </trkpt>
      <trkpt lat="42.70194" lon="1.15847">
        <ele>2356.8000488281</ele>
        <time>2023-07-26T09:33:40.000Z</time>
      </trkpt>
      <trkpt lat="42.70222" lon="1.15777">
        <ele>2350.6000976562</ele>
        <time>2023-07-26T09:37:47.000Z</time>
      </trkpt>
      <trkpt lat="42.70222" lon="1.15778">
        <ele>2350.6000976562</ele>
        <time>2023-07-26T09:37:49.000Z</time>
      </trkpt>
      <trkpt lat="42.70219" lon="1.15784">
        <ele>2350.8000488281</ele>
        <time>2023-07-26T09:37:57.000Z</time>
      </trkpt>
      <trkpt lat="42.7022" lon="1.1578">
        <ele>2351.3999023438</ele>
        <time>2023-07-26T09:38:04.000Z</time>
      </trkpt>
      <trkpt lat="42.70217" lon="1.15782">
        <ele>2351.1999511719</ele>
        <time>2023-07-26T09:38:49.000Z</time>
      </trkpt>
      <trkpt lat="42.70217" lon="1.15782">
        <ele>2351.1999511719</ele>
        <time>2023-07-26T09:39:27.000Z</time>
      </trkpt>
      <trkpt lat="42.70218" lon="1.15783">
        <ele>2351.3999023438</ele>
        <time>2023-07-26T09:39:37.000Z</time>
      </trkpt>
      <trkpt lat="42.70219" lon="1.15782">
        <ele>2351.3999023438</ele>
        <time>2023-07-26T09:40:13.000Z</time>
      </trkpt>
      <trkpt lat="42.70225" lon="1.15789">
        <ele>2351.3999023438</ele>
        <time>2023-07-26T09:40:35.000Z</time>
      </trkpt>
      <trkpt lat="42.70222" lon="1.15784">
        <ele>2351.8000488281</ele>
        <time>2023-07-26T09:40:40.000Z</time>
      </trkpt>
      <trkpt lat="42.70223" lon="1.15784">
        <ele>2351.8000488281</ele>
        <time>2023-07-26T09:40:41.000Z</time>
      </trkpt>
      <trkpt lat="42.7022" lon="1.15782">
        <ele>2352.1999511719</ele>
        <time>2023-07-26T09:40:48.000Z</time>
      </trkpt>
      <trkpt lat="42.7022" lon="1.15782">
        <ele>2352.1999511719</ele>
        <time>2023-07-26T09:40:53.000Z</time>
      </trkpt>
      <trkpt lat="42.70218" lon="1.15788">
        <ele>2352</ele>
        <time>2023-07-26T09:41:16.000Z</time>
      </trkpt>
      <trkpt lat="42.70216" lon="1.15788">
        <ele>2352.1999511719</ele>
        <time>2023-07-26T09:41:25.000Z</time>
      </trkpt>
      <trkpt lat="42.70215" lon="1.15782">
        <ele>2352.3999023438</ele>
        <time>2023-07-26T09:41:33.000Z</time>
      </trkpt>
      <trkpt lat="42.70214" lon="1.15783">
        <ele>2352.6000976562</ele>
        <time>2023-07-26T09:41:42.000Z</time>
      </trkpt>
      <trkpt lat="42.70214" lon="1.15782">
        <ele>2352.8000488281</ele>
        <time>2023-07-26T09:41:44.000Z</time>
      </trkpt>
      <trkpt lat="42.70214" lon="1.15782">
        <ele>2353</ele>
        <time>2023-07-26T09:41:48.000Z</time>
      </trkpt>
      <trkpt lat="42.70216" lon="1.15784">
        <ele>2353</ele>
        <time>2023-07-26T09:41:56.000Z</time>
      </trkpt>
      <trkpt lat="42.70215" lon="1.15787">
        <ele>2353.1999511719</ele>
        <time>2023-07-26T09:42:11.000Z</time>
      </trkpt>
      <trkpt lat="42.70213" lon="1.15793">
        <ele>2353.1999511719</ele>
        <time>2023-07-26T09:42:21.000Z</time>
      </trkpt>
      <trkpt lat="42.70218" lon="1.15784">
        <ele>2353.1999511719</ele>
        <time>2023-07-26T09:42:42.000Z</time>
      </trkpt>
      <trkpt lat="42.70216" lon="1.15782">
        <ele>2353.1999511719</ele>
        <time>2023-07-26T09:43:01.000Z</time>
      </trkpt>
      <trkpt lat="42.70218" lon="1.15782">
        <ele>2353</ele>
        <time>2023-07-26T09:43:25.000Z</time>
      </trkpt>
      <trkpt lat="42.70216" lon="1.15785">
        <ele>2353.1999511719</ele>
        <time>2023-07-26T09:43:40.000Z</time>
      </trkpt>
      <trkpt lat="42.70216" lon="1.15784">
        <ele>2353.3999023438</ele>
        <time>2023-07-26T09:43:43.000Z</time>
      </trkpt>
      <trkpt lat="42.70219" lon="1.15788">
        <ele>2353.6000976562</ele>
        <time>2023-07-26T09:43:52.000Z</time>
      </trkpt>
      <trkpt lat="42.70219" lon="1.15783">
        <ele>2353.6000976562</ele>
        <time>2023-07-26T09:44:02.000Z</time>
      </trkpt>
      <trkpt lat="42.70218" lon="1.15782">
        <ele>2353.6000976562</ele>
        <time>2023-07-26T09:44:12.000Z</time>
      </trkpt>
      <trkpt lat="42.70218" lon="1.1578">
        <ele>2353.8000488281</ele>
        <time>2023-07-26T09:44:17.000Z</time>
      </trkpt>
      <trkpt lat="42.70217" lon="1.1578">
        <ele>2353.8000488281</ele>
        <time>2023-07-26T09:44:19.000Z</time>
      </trkpt>
      <trkpt lat="42.70219" lon="1.15779">
        <ele>2354.1999511719</ele>
        <time>2023-07-26T09:44:27.000Z</time>
      </trkpt>
      <trkpt lat="42.7022" lon="1.15777">
        <ele>2354.1999511719</ele>
        <time>2023-07-26T09:44:35.000Z</time>
      </trkpt>
      <trkpt lat="42.70216" lon="1.15778">
        <ele>2354.6000976562</ele>
        <time>2023-07-26T09:44:41.000Z</time>
      </trkpt>
      <trkpt lat="42.70215" lon="1.15782">
        <ele>2354.3999023438</ele>
        <time>2023-07-26T09:44:53.000Z</time>
      </trkpt>
      <trkpt lat="42.70217" lon="1.1578">
        <ele>2354.6000976562</ele>
        <time>2023-07-26T09:45:02.000Z</time>
      </trkpt>
      <trkpt lat="42.70213" lon="1.15782">
        <ele>2354.3999023438</ele>
        <time>2023-07-26T09:45:38.000Z</time>
      </trkpt>
      <trkpt lat="42.70214" lon="1.15776">
        <ele>2354.3999023438</ele>
        <time>2023-07-26T09:45:45.000Z</time>
      </trkpt>
      <trkpt lat="42.70218" lon="1.15775">
        <ele>2354.6000976562</ele>
        <time>2023-07-26T09:45:52.000Z</time>
      </trkpt>
      <trkpt lat="42.70219" lon="1.15777">
        <ele>2354.6000976562</ele>
        <time>2023-07-26T09:46:02.000Z</time>
      </trkpt>
      <trkpt lat="42.70218" lon="1.15778">
        <ele>2354.8000488281</ele>
        <time>2023-07-26T09:46:09.000Z</time>
      </trkpt>
      <trkpt lat="42.70217" lon="1.15779">
        <ele>2354.8000488281</ele>
        <time>2023-07-26T09:46:10.000Z</time>
      </trkpt>
      <trkpt lat="42.70216" lon="1.15781">
        <ele>2355</ele>
        <time>2023-07-26T09:46:19.000Z</time>
      </trkpt>
      <trkpt lat="42.70214" lon="1.15778">
        <ele>2355</ele>
        <time>2023-07-26T09:46:28.000Z</time>
      </trkpt>
      <trkpt lat="42.70216" lon="1.15778">
        <ele>2355.1999511719</ele>
        <time>2023-07-26T09:46:35.000Z</time>
      </trkpt>
      <trkpt lat="42.70218" lon="1.15782">
        <ele>2355.3999023438</ele>
        <time>2023-07-26T09:46:49.000Z</time>
      </trkpt>
      <trkpt lat="42.70217" lon="1.15782">
        <ele>2355.3999023438</ele>
        <time>2023-07-26T09:47:00.000Z</time>
      </trkpt>
      <trkpt lat="42.70213" lon="1.1578">
        <ele>2355.3999023438</ele>
        <time>2023-07-26T09:47:22.000Z</time>
      </trkpt>
      <trkpt lat="42.70215" lon="1.15781">
        <ele>2355.3999023438</ele>
        <time>2023-07-26T09:47:32.000Z</time>
      </trkpt>
      <trkpt lat="42.70215" lon="1.15782">
        <ele>2355.6000976562</ele>
        <time>2023-07-26T09:47:40.000Z</time>
      </trkpt>
      <trkpt lat="42.70213" lon="1.1578">
        <ele>2355.6000976562</ele>
        <time>2023-07-26T09:47:49.000Z</time>
      </trkpt>
      <trkpt lat="42.70215" lon="1.15781">
        <ele>2355.6000976562</ele>
        <time>2023-07-26T09:47:58.000Z</time>
      </trkpt>
      <trkpt lat="42.70215" lon="1.15781">
        <ele>2355.8000488281</ele>
        <time>2023-07-26T09:48:10.000Z</time>
      </trkpt>
      <trkpt lat="42.70215" lon="1.15782">
        <ele>2355.8000488281</ele>
        <time>2023-07-26T09:48:11.000Z</time>
      </trkpt>
      <trkpt lat="42.70216" lon="1.15785">
        <ele>2356</ele>
        <time>2023-07-26T09:48:19.000Z</time>
      </trkpt>
      <trkpt lat="42.70219" lon="1.15785">
        <ele>2356</ele>
        <time>2023-07-26T09:48:27.000Z</time>
      </trkpt>
      <trkpt lat="42.70214" lon="1.15778">
        <ele>2356.1999511719</ele>
        <time>2023-07-26T09:48:37.000Z</time>
      </trkpt>
      <trkpt lat="42.70213" lon="1.15775">
        <ele>2356.1999511719</ele>
        <time>2023-07-26T09:48:43.000Z</time>
      </trkpt>
      <trkpt lat="42.70215" lon="1.15778">
        <ele>2356.1999511719</ele>
        <time>2023-07-26T09:48:50.000Z</time>
      </trkpt>
      <trkpt lat="42.70215" lon="1.1578">
        <ele>2356.1999511719</ele>
        <time>2023-07-26T09:49:00.000Z</time>
      </trkpt>
      <trkpt lat="42.70215" lon="1.15781">
        <ele>2356.3999023438</ele>
        <time>2023-07-26T09:49:08.000Z</time>
      </trkpt>
      <trkpt lat="42.70216" lon="1.15783">
        <ele>2356.3999023438</ele>
        <time>2023-07-26T09:49:22.000Z</time>
      </trkpt>
      <trkpt lat="42.7022" lon="1.15784">
        <ele>2356.6000976562</ele>
        <time>2023-07-26T09:49:34.000Z</time>
      </trkpt>
      <trkpt lat="42.70218" lon="1.15781">
        <ele>2356.3999023438</ele>
        <time>2023-07-26T09:49:43.000Z</time>
      </trkpt>
      <trkpt lat="42.70215" lon="1.15781">
        <ele>2356</ele>
        <time>2023-07-26T09:49:51.000Z</time>
      </trkpt>
      <trkpt lat="42.70215" lon="1.15779">
        <ele>2356</ele>
        <time>2023-07-26T09:50:02.000Z</time>
      </trkpt>
      <trkpt lat="42.70215" lon="1.1578">
        <ele>2356.3999023438</ele>
        <time>2023-07-26T09:50:10.000Z</time>
      </trkpt>
      <trkpt lat="42.70218" lon="1.15778">
        <ele>2355.8000488281</ele>
        <time>2023-07-26T09:50:18.000Z</time>
      </trkpt>
      <trkpt lat="42.70218" lon="1.15778">
        <ele>2355.1999511719</ele>
        <time>2023-07-26T09:50:24.000Z</time>
      </trkpt>
      <trkpt lat="42.70214" lon="1.15778">
        <ele>2356.3999023438</ele>
        <time>2023-07-26T09:50:37.000Z</time>
      </trkpt>
      <trkpt lat="42.70217" lon="1.15781">
        <ele>2356.1999511719</ele>
        <time>2023-07-26T09:50:44.000Z</time>
      </trkpt>
      <trkpt lat="42.70218" lon="1.15771">
        <ele>2354.6000976562</ele>
        <time>2023-07-26T09:50:52.000Z</time>
      </trkpt>
      <trkpt lat="42.70219" lon="1.15767">
        <ele>2354.1999511719</ele>
        <time>2023-07-26T09:50:57.000Z</time>
      </trkpt>
      <trkpt lat="42.70219" lon="1.15761">
        <ele>2353.8000488281</ele>
        <time>2023-07-26T09:51:04.000Z</time>
      </trkpt>
      <trkpt lat="42.70215" lon="1.15757">
        <ele>2353.3999023438</ele>
        <time>2023-07-26T09:51:14.000Z</time>
      </trkpt>
      <trkpt lat="42.70217" lon="1.15752">
        <ele>2353.1999511719</ele>
        <time>2023-07-26T09:51:20.000Z</time>
      </trkpt>
      <trkpt lat="42.70217" lon="1.15749">
        <ele>2352.6000976562</ele>
        <time>2023-07-26T09:51:25.000Z</time>
      </trkpt>
      <trkpt lat="42.70216" lon="1.15745">
        <ele>2352.1999511719</ele>
        <time>2023-07-26T09:51:30.000Z</time>
      </trkpt>
      <trkpt lat="42.70214" lon="1.1574">
        <ele>2352</ele>
        <time>2023-07-26T09:51:37.000Z</time>
      </trkpt>
      <trkpt lat="42.70214" lon="1.15737">
        <ele>2351.3999023438</ele>
        <time>2023-07-26T09:51:42.000Z</time>
      </trkpt>
      <trkpt lat="42.70214" lon="1.15733">
        <ele>2350.8000488281</ele>
        <time>2023-07-26T09:51:46.000Z</time>
      </trkpt>
      <trkpt lat="42.70214" lon="1.15731">
        <ele>2350.3999023438</ele>
        <time>2023-07-26T09:51:48.000Z</time>
      </trkpt>
      <trkpt lat="42.70215" lon="1.15727">
        <ele>2349.6000976562</ele>
        <time>2023-07-26T09:51:55.000Z</time>
      </trkpt>
      <trkpt lat="42.70215" lon="1.15728">
        <ele>2349.3999023438</ele>
        <time>2023-07-26T09:51:58.000Z</time>
      </trkpt>
      <trkpt lat="42.70217" lon="1.15727">
        <ele>2349.1999511719</ele>
        <time>2023-07-26T09:52:02.000Z</time>
      </trkpt>
      <trkpt lat="42.70214" lon="1.15722">
        <ele>2348.3999023438</ele>
        <time>2023-07-26T09:52:09.000Z</time>
      </trkpt>
      <trkpt lat="42.70214" lon="1.15721">
        <ele>2348.1999511719</ele>
        <time>2023-07-26T09:52:10.000Z</time>
      </trkpt>
      <trkpt lat="42.70213" lon="1.15715">
        <ele>2347.6000976562</ele>
        <time>2023-07-26T09:52:15.000Z</time>
      </trkpt>
      <trkpt lat="42.70214" lon="1.1571">
        <ele>2347.1999511719</ele>
        <time>2023-07-26T09:52:24.000Z</time>
      </trkpt>
      <trkpt lat="42.70214" lon="1.15707">
        <ele>2347.1999511719</ele>
        <time>2023-07-26T09:52:31.000Z</time>
      </trkpt>
      <trkpt lat="42.70216" lon="1.15704">
        <ele>2347.1999511719</ele>
        <time>2023-07-26T09:52:37.000Z</time>
      </trkpt>
      <trkpt lat="42.70218" lon="1.15702">
        <ele>2347</ele>
        <time>2023-07-26T09:52:40.000Z</time>
      </trkpt>
      <trkpt lat="42.70218" lon="1.15702">
        <ele>2347.1999511719</ele>
        <time>2023-07-26T09:52:49.000Z</time>
      </trkpt>
      <trkpt lat="42.70217" lon="1.157">
        <ele>2346.8000488281</ele>
        <time>2023-07-26T09:52:58.000Z</time>
      </trkpt>
      <trkpt lat="42.70214" lon="1.15695">
        <ele>2346</ele>
        <time>2023-07-26T09:53:05.000Z</time>
      </trkpt>
      <trkpt lat="42.70214" lon="1.15694">
        <ele>2345.8000488281</ele>
        <time>2023-07-26T09:53:06.000Z</time>
      </trkpt>
      <trkpt lat="42.70209" lon="1.15689">
        <ele>2345</ele>
        <time>2023-07-26T09:53:14.000Z</time>
      </trkpt>
      <trkpt lat="42.70208" lon="1.15686">
        <ele>2343.8000488281</ele>
        <time>2023-07-26T09:53:19.000Z</time>
      </trkpt>
      <trkpt lat="42.70207" lon="1.15685">
        <ele>2343.6000976562</ele>
        <time>2023-07-26T09:53:22.000Z</time>
      </trkpt>
      <trkpt lat="42.70208" lon="1.15684">
        <ele>2342.8000488281</ele>
        <time>2023-07-26T09:53:37.000Z</time>
      </trkpt>
      <trkpt lat="42.70204" lon="1.15685">
        <ele>2342.6000976562</ele>
        <time>2023-07-26T09:53:45.000Z</time>
      </trkpt>
      <trkpt lat="42.70201" lon="1.15685">
        <ele>2341.6000976562</ele>
        <time>2023-07-26T09:53:49.000Z</time>
      </trkpt>
      <trkpt lat="42.70202" lon="1.15682">
        <ele>2340.8000488281</ele>
        <time>2023-07-26T09:53:53.000Z</time>
      </trkpt>
      <trkpt lat="42.70202" lon="1.15681">
        <ele>2340.3999023438</ele>
        <time>2023-07-26T09:53:54.000Z</time>
      </trkpt>
      <trkpt lat="42.70202" lon="1.15678">
        <ele>2339.3999023438</ele>
        <time>2023-07-26T09:53:59.000Z</time>
      </trkpt>
      <trkpt lat="42.70203" lon="1.15676">
        <ele>2338.6000976562</ele>
        <time>2023-07-26T09:54:03.000Z</time>
      </trkpt>
      <trkpt lat="42.70203" lon="1.15675">
        <ele>2338.3999023438</ele>
        <time>2023-07-26T09:54:04.000Z</time>
      </trkpt>
      <trkpt lat="42.70202" lon="1.15676">
        <ele>2337.8000488281</ele>
        <time>2023-07-26T09:54:12.000Z</time>
      </trkpt>
      <trkpt lat="42.70201" lon="1.15678">
        <ele>2337.1999511719</ele>
        <time>2023-07-26T09:54:19.000Z</time>
      </trkpt>
      <trkpt lat="42.70202" lon="1.15678">
        <ele>2337.1999511719</ele>
        <time>2023-07-26T09:54:20.000Z</time>
      </trkpt>
      <trkpt lat="42.70201" lon="1.15676">
        <ele>2337</ele>
        <time>2023-07-26T09:54:28.000Z</time>
      </trkpt>
      <trkpt lat="42.702" lon="1.15673">
        <ele>2337.1999511719</ele>
        <time>2023-07-26T09:54:36.000Z</time>
      </trkpt>
      <trkpt lat="42.702" lon="1.15673">
        <ele>2337.1999511719</ele>
        <time>2023-07-26T09:54:44.000Z</time>
      </trkpt>
      <trkpt lat="42.70199" lon="1.15672">
        <ele>2337.3999023438</ele>
        <time>2023-07-26T09:54:54.000Z</time>
      </trkpt>
      <trkpt lat="42.70201" lon="1.15674">
        <ele>2337.6000976562</ele>
        <time>2023-07-26T09:55:04.000Z</time>
      </trkpt>
      <trkpt lat="42.70201" lon="1.15672">
        <ele>2337.8000488281</ele>
        <time>2023-07-26T09:55:13.000Z</time>
      </trkpt>
      <trkpt lat="42.702" lon="1.15671">
        <ele>2337.3999023438</ele>
        <time>2023-07-26T09:55:22.000Z</time>
      </trkpt>
      <trkpt lat="42.70204" lon="1.15673">
        <ele>2337.6000976562</ele>
        <time>2023-07-26T09:55:33.000Z</time>
      </trkpt>
      <trkpt lat="42.70207" lon="1.15679">
        <ele>2337.6000976562</ele>
        <time>2023-07-26T09:55:44.000Z</time>
      </trkpt>
      <trkpt lat="42.70202" lon="1.15675">
        <ele>2337.8000488281</ele>
        <time>2023-07-26T09:55:51.000Z</time>
      </trkpt>
      <trkpt lat="42.702" lon="1.15672">
        <ele>2337.8000488281</ele>
        <time>2023-07-26T09:55:59.000Z</time>
      </trkpt>
      <trkpt lat="42.702" lon="1.15671">
        <ele>2338</ele>
        <time>2023-07-26T09:56:08.000Z</time>
      </trkpt>
      <trkpt lat="42.70203" lon="1.15675">
        <ele>2338</ele>
        <time>2023-07-26T09:56:19.000Z</time>
      </trkpt>
      <trkpt lat="42.702" lon="1.15673">
        <ele>2338.1999511719</ele>
        <time>2023-07-26T09:56:27.000Z</time>
      </trkpt>
      <trkpt lat="42.70199" lon="1.15667">
        <ele>2336.6000976562</ele>
        <time>2023-07-26T09:56:34.000Z</time>
      </trkpt>
      <trkpt lat="42.702" lon="1.15666">
        <ele>2336.1999511719</ele>
        <time>2023-07-26T09:56:39.000Z</time>
      </trkpt>
      <trkpt lat="42.702" lon="1.15666">
        <ele>2336</ele>
        <time>2023-07-26T09:56:42.000Z</time>
      </trkpt>
      <trkpt lat="42.70198" lon="1.15666">
        <ele>2335.8000488281</ele>
        <time>2023-07-26T09:56:50.000Z</time>
      </trkpt>
      <trkpt lat="42.70198" lon="1.15667">
        <ele>2335</ele>
        <time>2023-07-26T09:56:54.000Z</time>
      </trkpt>
      <trkpt lat="42.70201" lon="1.1567">
        <ele>2334.6000976562</ele>
        <time>2023-07-26T09:56:59.000Z</time>
      </trkpt>
      <trkpt lat="42.70202" lon="1.15671">
        <ele>2334</ele>
        <time>2023-07-26T09:57:03.000Z</time>
      </trkpt>
      <trkpt lat="42.70204" lon="1.15672">
        <ele>2333.3999023438</ele>
        <time>2023-07-26T09:57:07.000Z</time>
      </trkpt>
      <trkpt lat="42.70205" lon="1.1567">
        <ele>2332.8000488281</ele>
        <time>2023-07-26T09:57:10.000Z</time>
      </trkpt>
      <trkpt lat="42.70204" lon="1.15667">
        <ele>2331.8000488281</ele>
        <time>2023-07-26T09:57:14.000Z</time>
      </trkpt>
      <trkpt lat="42.70204" lon="1.15665">
        <ele>2331.1999511719</ele>
        <time>2023-07-26T09:57:17.000Z</time>
      </trkpt>
      <trkpt lat="42.70203" lon="1.15665">
        <ele>2330.8000488281</ele>
        <time>2023-07-26T09:57:20.000Z</time>
      </trkpt>
      <trkpt lat="42.702" lon="1.15661">
        <ele>2330</ele>
        <time>2023-07-26T09:57:26.000Z</time>
      </trkpt>
      <trkpt lat="42.70199" lon="1.15659">
        <ele>2329.6000976562</ele>
        <time>2023-07-26T09:57:29.000Z</time>
      </trkpt>
      <trkpt lat="42.70197" lon="1.15658">
        <ele>2329</ele>
        <time>2023-07-26T09:57:33.000Z</time>
      </trkpt>
      <trkpt lat="42.70195" lon="1.15655">
        <ele>2328.6000976562</ele>
        <time>2023-07-26T09:57:36.000Z</time>
      </trkpt>
      <trkpt lat="42.70191" lon="1.15648">
        <ele>2327.6000976562</ele>
        <time>2023-07-26T09:57:41.000Z</time>
      </trkpt>
      <trkpt lat="42.70189" lon="1.15642">
        <ele>2327.6000976562</ele>
        <time>2023-07-26T09:57:45.000Z</time>
      </trkpt>
      <trkpt lat="42.70188" lon="1.15641">
        <ele>2327.6000976562</ele>
        <time>2023-07-26T09:57:47.000Z</time>
      </trkpt>
      <trkpt lat="42.70188" lon="1.15635">
        <ele>2326.6000976562</ele>
        <time>2023-07-26T09:57:54.000Z</time>
      </trkpt>
      <trkpt lat="42.70188" lon="1.15635">
        <ele>2326.3999023438</ele>
        <time>2023-07-26T09:57:55.000Z</time>
      </trkpt>
      <trkpt lat="42.70188" lon="1.15634">
        <ele>2325.6000976562</ele>
        <time>2023-07-26T09:58:02.000Z</time>
      </trkpt>
      <trkpt lat="42.70188" lon="1.15634">
        <ele>2324.8000488281</ele>
        <time>2023-07-26T09:58:06.000Z</time>
      </trkpt>
      <trkpt lat="42.70194" lon="1.1564">
        <ele>2324.3999023438</ele>
        <time>2023-07-26T09:58:13.000Z</time>
      </trkpt>
      <trkpt lat="42.70193" lon="1.15641">
        <ele>2324</ele>
        <time>2023-07-26T09:58:15.000Z</time>
      </trkpt>
      <trkpt lat="42.70194" lon="1.1564">
        <ele>2323.3999023438</ele>
        <time>2023-07-26T09:58:19.000Z</time>
      </trkpt>
      <trkpt lat="42.70194" lon="1.1564">
        <ele>2322.8000488281</ele>
        <time>2023-07-26T09:58:22.000Z</time>
      </trkpt>
      <trkpt lat="42.70195" lon="1.15638">
        <ele>2322.1999511719</ele>
        <time>2023-07-26T09:58:25.000Z</time>
      </trkpt>
      <trkpt lat="42.70196" lon="1.15637">
        <ele>2321.6000976562</ele>
        <time>2023-07-26T09:58:29.000Z</time>
      </trkpt>
      <trkpt lat="42.70196" lon="1.15637">
        <ele>2321.1999511719</ele>
        <time>2023-07-26T09:58:30.000Z</time>
      </trkpt>
      <trkpt lat="42.7019" lon="1.15637">
        <ele>2320.1999511719</ele>
        <time>2023-07-26T09:58:40.000Z</time>
      </trkpt>
      <trkpt lat="42.7019" lon="1.15636">
        <ele>2318.3999023438</ele>
        <time>2023-07-26T09:58:52.000Z</time>
      </trkpt>
      <trkpt lat="42.70192" lon="1.15633">
        <ele>2318</ele>
        <time>2023-07-26T09:58:56.000Z</time>
      </trkpt>
      <trkpt lat="42.70192" lon="1.15632">
        <ele>2317.6000976562</ele>
        <time>2023-07-26T09:59:01.000Z</time>
      </trkpt>
      <trkpt lat="42.70192" lon="1.15626">
        <ele>2317.8000488281</ele>
        <time>2023-07-26T09:59:10.000Z</time>
      </trkpt>
      <trkpt lat="42.70186" lon="1.15623">
        <ele>2315.1999511719</ele>
        <time>2023-07-26T09:59:30.000Z</time>
      </trkpt>
      <trkpt lat="42.70196" lon="1.15634">
        <ele>2309.3999023438</ele>
        <time>2023-07-26T10:00:05.000Z</time>
      </trkpt>
      <trkpt lat="42.70177" lon="1.15604">
        <ele>2306.3999023438</ele>
        <time>2023-07-26T10:00:22.000Z</time>
      </trkpt>
      <trkpt lat="42.70187" lon="1.15599">
        <ele>2301.8000488281</ele>
        <time>2023-07-26T10:01:17.000Z</time>
      </trkpt>
      <trkpt lat="42.70186" lon="1.15599">
        <ele>2301.3999023438</ele>
        <time>2023-07-26T10:01:19.000Z</time>
      </trkpt>
      <trkpt lat="42.70187" lon="1.1559">
        <ele>2295.3999023438</ele>
        <time>2023-07-26T10:02:03.000Z</time>
      </trkpt>
      <trkpt lat="42.70188" lon="1.15589">
        <ele>2294.8000488281</ele>
        <time>2023-07-26T10:02:08.000Z</time>
      </trkpt>
      <trkpt lat="42.70187" lon="1.15588">
        <ele>2294.6000976562</ele>
        <time>2023-07-26T10:02:13.000Z</time>
      </trkpt>
      <trkpt lat="42.70187" lon="1.15588">
        <ele>2294.3999023438</ele>
        <time>2023-07-26T10:02:14.000Z</time>
      </trkpt>
      <trkpt lat="42.70186" lon="1.15584">
        <ele>2293.6000976562</ele>
        <time>2023-07-26T10:02:19.000Z</time>
      </trkpt>
      <trkpt lat="42.70185" lon="1.15583">
        <ele>2293</ele>
        <time>2023-07-26T10:02:21.000Z</time>
      </trkpt>
      <trkpt lat="42.70171" lon="1.15562">
        <ele>2290.8000488281</ele>
        <time>2023-07-26T10:02:40.000Z</time>
      </trkpt>
      <trkpt lat="42.70171" lon="1.15563">
        <ele>2290.1999511719</ele>
        <time>2023-07-26T10:02:43.000Z</time>
      </trkpt>
      <trkpt lat="42.70173" lon="1.15563">
        <ele>2289.8000488281</ele>
        <time>2023-07-26T10:02:47.000Z</time>
      </trkpt>
      <trkpt lat="42.70176" lon="1.15564">
        <ele>2289.1999511719</ele>
        <time>2023-07-26T10:02:51.000Z</time>
      </trkpt>
      <trkpt lat="42.70178" lon="1.15566">
        <ele>2289</ele>
        <time>2023-07-26T10:02:54.000Z</time>
      </trkpt>
      <trkpt lat="42.70188" lon="1.15573">
        <ele>2288.1999511719</ele>
        <time>2023-07-26T10:03:09.000Z</time>
      </trkpt>
      <trkpt lat="42.7019" lon="1.15573">
        <ele>2287.8000488281</ele>
        <time>2023-07-26T10:03:15.000Z</time>
      </trkpt>
      <trkpt lat="42.70187" lon="1.1557">
        <ele>2287.6000976562</ele>
        <time>2023-07-26T10:03:22.000Z</time>
      </trkpt>
      <trkpt lat="42.70188" lon="1.15563">
        <ele>2287.3999023438</ele>
        <time>2023-07-26T10:03:29.000Z</time>
      </trkpt>
      <trkpt lat="42.70187" lon="1.15564">
        <ele>2287.1999511719</ele>
        <time>2023-07-26T10:03:31.000Z</time>
      </trkpt>
      <trkpt lat="42.70188" lon="1.15563">
        <ele>2286</ele>
        <time>2023-07-26T10:03:36.000Z</time>
      </trkpt>
      <trkpt lat="42.70187" lon="1.1556">
        <ele>2285.1999511719</ele>
        <time>2023-07-26T10:03:42.000Z</time>
      </trkpt>
      <trkpt lat="42.70184" lon="1.15558">
        <ele>2285</ele>
        <time>2023-07-26T10:03:50.000Z</time>
      </trkpt>
      <trkpt lat="42.70181" lon="1.15553">
        <ele>2284.6000976562</ele>
        <time>2023-07-26T10:03:58.000Z</time>
      </trkpt>
      <trkpt lat="42.70177" lon="1.15549">
        <ele>2284.3999023438</ele>
        <time>2023-07-26T10:04:06.000Z</time>
      </trkpt>
      <trkpt lat="42.70174" lon="1.15548">
        <ele>2284</ele>
        <time>2023-07-26T10:04:13.000Z</time>
      </trkpt>
      <trkpt lat="42.70174" lon="1.1555">
        <ele>2284</ele>
        <time>2023-07-26T10:04:16.000Z</time>
      </trkpt>
      <trkpt lat="42.70178" lon="1.15552">
        <ele>2283.1999511719</ele>
        <time>2023-07-26T10:04:26.000Z</time>
      </trkpt>
      <trkpt lat="42.70178" lon="1.15552">
        <ele>2283</ele>
        <time>2023-07-26T10:04:27.000Z</time>
      </trkpt>
      <trkpt lat="42.7018" lon="1.15552">
        <ele>2282</ele>
        <time>2023-07-26T10:04:36.000Z</time>
      </trkpt>
      <trkpt lat="42.70179" lon="1.15551">
        <ele>2281.8000488281</ele>
        <time>2023-07-26T10:04:37.000Z</time>
      </trkpt>
      <trkpt lat="42.70173" lon="1.15543">
        <ele>2281</ele>
        <time>2023-07-26T10:04:45.000Z</time>
      </trkpt>
      <trkpt lat="42.70173" lon="1.15544">
        <ele>2280.8000488281</ele>
        <time>2023-07-26T10:04:46.000Z</time>
      </trkpt>
      <trkpt lat="42.7017" lon="1.15543">
        <ele>2280</ele>
        <time>2023-07-26T10:04:52.000Z</time>
      </trkpt>
      <trkpt lat="42.70172" lon="1.15537">
        <ele>2280</ele>
        <time>2023-07-26T10:05:02.000Z</time>
      </trkpt>
      <trkpt lat="42.70175" lon="1.15543">
        <ele>2280.1999511719</ele>
        <time>2023-07-26T10:05:12.000Z</time>
      </trkpt>
      <trkpt lat="42.70174" lon="1.15547">
        <ele>2279.8000488281</ele>
        <time>2023-07-26T10:05:20.000Z</time>
      </trkpt>
      <trkpt lat="42.70174" lon="1.15546">
        <ele>2279.6000976562</ele>
        <time>2023-07-26T10:05:21.000Z</time>
      </trkpt>
      <trkpt lat="42.70172" lon="1.1554">
        <ele>2279.1999511719</ele>
        <time>2023-07-26T10:05:27.000Z</time>
      </trkpt>
      <trkpt lat="42.70172" lon="1.15537">
        <ele>2278.8000488281</ele>
        <time>2023-07-26T10:05:31.000Z</time>
      </trkpt>
      <trkpt lat="42.70172" lon="1.15537">
        <ele>2278.1999511719</ele>
        <time>2023-07-26T10:05:34.000Z</time>
      </trkpt>
      <trkpt lat="42.70171" lon="1.15537">
        <ele>2277.8000488281</ele>
        <time>2023-07-26T10:05:38.000Z</time>
      </trkpt>
      <trkpt lat="42.70172" lon="1.15536">
        <ele>2277.1999511719</ele>
        <time>2023-07-26T10:05:42.000Z</time>
      </trkpt>
      <trkpt lat="42.70173" lon="1.15536">
        <ele>2276.3999023438</ele>
        <time>2023-07-26T10:05:47.000Z</time>
      </trkpt>
      <trkpt lat="42.70174" lon="1.15535">
        <ele>2276</ele>
        <time>2023-07-26T10:05:52.000Z</time>
      </trkpt>
      <trkpt lat="42.70178" lon="1.15534">
        <ele>2275.3999023438</ele>
        <time>2023-07-26T10:05:58.000Z</time>
      </trkpt>
      <trkpt lat="42.70178" lon="1.15533">
        <ele>2275.3999023438</ele>
        <time>2023-07-26T10:05:59.000Z</time>
      </trkpt>
      <trkpt lat="42.70179" lon="1.15533">
        <ele>2274.3999023438</ele>
        <time>2023-07-26T10:06:05.000Z</time>
      </trkpt>
      <trkpt lat="42.7018" lon="1.15533">
        <ele>2274.3999023438</ele>
        <time>2023-07-26T10:06:06.000Z</time>
      </trkpt>
      <trkpt lat="42.70182" lon="1.15533">
        <ele>2273.1999511719</ele>
        <time>2023-07-26T10:06:11.000Z</time>
      </trkpt>
      <trkpt lat="42.70184" lon="1.15532">
        <ele>2272.6000976562</ele>
        <time>2023-07-26T10:06:14.000Z</time>
      </trkpt>
      <trkpt lat="42.70183" lon="1.15533">
        <ele>2272</ele>
        <time>2023-07-26T10:06:17.000Z</time>
      </trkpt>
      <trkpt lat="42.70183" lon="1.15534">
        <ele>2271.6000976562</ele>
        <time>2023-07-26T10:06:20.000Z</time>
      </trkpt>
      <trkpt lat="42.7018" lon="1.15529">
        <ele>2271</ele>
        <time>2023-07-26T10:06:27.000Z</time>
      </trkpt>
      <trkpt lat="42.7018" lon="1.15529">
        <ele>2270</ele>
        <time>2023-07-26T10:06:33.000Z</time>
      </trkpt>
      <trkpt lat="42.7018" lon="1.1553">
        <ele>2269.3999023438</ele>
        <time>2023-07-26T10:06:37.000Z</time>
      </trkpt>
      <trkpt lat="42.7018" lon="1.15527">
        <ele>2268.8000488281</ele>
        <time>2023-07-26T10:06:43.000Z</time>
      </trkpt>
      <trkpt lat="42.7018" lon="1.15527">
        <ele>2268.6000976562</ele>
        <time>2023-07-26T10:06:44.000Z</time>
      </trkpt>
      <trkpt lat="42.70178" lon="1.15523">
        <ele>2267.8000488281</ele>
        <time>2023-07-26T10:06:50.000Z</time>
      </trkpt>
      <trkpt lat="42.70177" lon="1.15523">
        <ele>2267.8000488281</ele>
        <time>2023-07-26T10:06:51.000Z</time>
      </trkpt>
      <trkpt lat="42.70175" lon="1.15519">
        <ele>2266.8000488281</ele>
        <time>2023-07-26T10:06:58.000Z</time>
      </trkpt>
      <trkpt lat="42.70176" lon="1.15519">
        <ele>2266</ele>
        <time>2023-07-26T10:07:01.000Z</time>
      </trkpt>
      <trkpt lat="42.70177" lon="1.15519">
        <ele>2265.8000488281</ele>
        <time>2023-07-26T10:07:02.000Z</time>
      </trkpt>
      <trkpt lat="42.70178" lon="1.15516">
        <ele>2264.6000976562</ele>
        <time>2023-07-26T10:07:06.000Z</time>
      </trkpt>
      <trkpt lat="42.70178" lon="1.15514">
        <ele>2264.6000976562</ele>
        <time>2023-07-26T10:07:08.000Z</time>
      </trkpt>
      <trkpt lat="42.70177" lon="1.15512">
        <ele>2263.6000976562</ele>
        <time>2023-07-26T10:07:15.000Z</time>
      </trkpt>
      <trkpt lat="42.70177" lon="1.15512">
        <ele>2262.8000488281</ele>
        <time>2023-07-26T10:07:18.000Z</time>
      </trkpt>
      <trkpt lat="42.70176" lon="1.15511">
        <ele>2261.3999023438</ele>
        <time>2023-07-26T10:07:25.000Z</time>
      </trkpt>
      <trkpt lat="42.70175" lon="1.15505">
        <ele>2259.1999511719</ele>
        <time>2023-07-26T10:07:35.000Z</time>
      </trkpt>
      <trkpt lat="42.70175" lon="1.15504">
        <ele>2259.1999511719</ele>
        <time>2023-07-26T10:07:36.000Z</time>
      </trkpt>
      <trkpt lat="42.70172" lon="1.15504">
        <ele>2258.1999511719</ele>
        <time>2023-07-26T10:07:42.000Z</time>
      </trkpt>
      <trkpt lat="42.70171" lon="1.15497">
        <ele>2257</ele>
        <time>2023-07-26T10:07:51.000Z</time>
      </trkpt>
      <trkpt lat="42.70171" lon="1.15495">
        <ele>2256.8000488281</ele>
        <time>2023-07-26T10:07:52.000Z</time>
      </trkpt>
      <trkpt lat="42.70167" lon="1.15488">
        <ele>2255.8000488281</ele>
        <time>2023-07-26T10:07:58.000Z</time>
      </trkpt>
      <trkpt lat="42.70155" lon="1.15478">
        <ele>2253</ele>
        <time>2023-07-26T10:08:24.000Z</time>
      </trkpt>
      <trkpt lat="42.70173" lon="1.15479">
        <ele>2248.1999511719</ele>
        <time>2023-07-26T10:08:53.000Z</time>
      </trkpt>
      <trkpt lat="42.70168" lon="1.15474">
        <ele>2246.8000488281</ele>
        <time>2023-07-26T10:09:01.000Z</time>
      </trkpt>
      <trkpt lat="42.70168" lon="1.15473">
        <ele>2246.6000976562</ele>
        <time>2023-07-26T10:09:02.000Z</time>
      </trkpt>
      <trkpt lat="42.70162" lon="1.15459">
        <ele>2243.6000976562</ele>
        <time>2023-07-26T10:09:24.000Z</time>
      </trkpt>
      <trkpt lat="42.70162" lon="1.15456">
        <ele>2243</ele>
        <time>2023-07-26T10:09:28.000Z</time>
      </trkpt>
      <trkpt lat="42.70162" lon="1.15456">
        <ele>2242.6000976562</ele>
        <time>2023-07-26T10:09:31.000Z</time>
      </trkpt>
      <trkpt lat="42.70205" lon="1.15377">
        <ele>2214.1999511719</ele>
        <time>2023-07-26T10:14:19.000Z</time>
      </trkpt>
      <trkpt lat="42.70207" lon="1.15377">
        <ele>2214</ele>
        <time>2023-07-26T10:14:22.000Z</time>
      </trkpt>
      <trkpt lat="42.70211" lon="1.15373">
        <ele>2213.6000976562</ele>
        <time>2023-07-26T10:14:26.000Z</time>
      </trkpt>
      <trkpt lat="42.70212" lon="1.15372">
        <ele>2213.3999023438</ele>
        <time>2023-07-26T10:14:29.000Z</time>
      </trkpt>
      <trkpt lat="42.70233" lon="1.15354">
        <ele>2209</ele>
        <time>2023-07-26T10:15:15.000Z</time>
      </trkpt>
      <trkpt lat="42.70235" lon="1.1535">
        <ele>2208.8000488281</ele>
        <time>2023-07-26T10:15:22.000Z</time>
      </trkpt>
      <trkpt lat="42.70234" lon="1.15348">
        <ele>2208.6000976562</ele>
        <time>2023-07-26T10:15:30.000Z</time>
      </trkpt>
      <trkpt lat="42.70238" lon="1.15346">
        <ele>2208.6000976562</ele>
        <time>2023-07-26T10:15:37.000Z</time>
      </trkpt>
      <trkpt lat="42.70241" lon="1.15349">
        <ele>2208.6000976562</ele>
        <time>2023-07-26T10:15:45.000Z</time>
      </trkpt>
      <trkpt lat="42.70242" lon="1.15351">
        <ele>2208.6000976562</ele>
        <time>2023-07-26T10:15:55.000Z</time>
      </trkpt>
      <trkpt lat="42.70238" lon="1.15343">
        <ele>2208.6000976562</ele>
        <time>2023-07-26T10:16:10.000Z</time>
      </trkpt>
      <trkpt lat="42.70235" lon="1.15338">
        <ele>2208.8000488281</ele>
        <time>2023-07-26T10:16:19.000Z</time>
      </trkpt>
      <trkpt lat="42.70236" lon="1.15333">
        <ele>2208.6000976562</ele>
        <time>2023-07-26T10:16:26.000Z</time>
      </trkpt>
      <trkpt lat="42.70234" lon="1.1533">
        <ele>2208.3999023438</ele>
        <time>2023-07-26T10:16:31.000Z</time>
      </trkpt>
      <trkpt lat="42.70237" lon="1.1533">
        <ele>2208</ele>
        <time>2023-07-26T10:16:39.000Z</time>
      </trkpt>
      <trkpt lat="42.70237" lon="1.1533">
        <ele>2208</ele>
        <time>2023-07-26T10:16:40.000Z</time>
      </trkpt>
      <trkpt lat="42.70242" lon="1.15332">
        <ele>2208.1999511719</ele>
        <time>2023-07-26T10:16:51.000Z</time>
      </trkpt>
      <trkpt lat="42.70244" lon="1.15329">
        <ele>2207.6000976562</ele>
        <time>2023-07-26T10:16:59.000Z</time>
      </trkpt>
      <trkpt lat="42.7023" lon="1.15311">
        <ele>2207.8000488281</ele>
        <time>2023-07-26T10:17:12.000Z</time>
      </trkpt>
      <trkpt lat="42.70233" lon="1.15313">
        <ele>2207.6000976562</ele>
        <time>2023-07-26T10:17:19.000Z</time>
      </trkpt>
      <trkpt lat="42.70248" lon="1.15317">
        <ele>2206.8000488281</ele>
        <time>2023-07-26T10:17:46.000Z</time>
      </trkpt>
      <trkpt lat="42.70249" lon="1.15314">
        <ele>2206.1999511719</ele>
        <time>2023-07-26T10:17:53.000Z</time>
      </trkpt>
      <trkpt lat="42.70249" lon="1.15313">
        <ele>2206</ele>
        <time>2023-07-26T10:17:55.000Z</time>
      </trkpt>
      <trkpt lat="42.70248" lon="1.15307">
        <ele>2205.3999023438</ele>
        <time>2023-07-26T10:18:01.000Z</time>
      </trkpt>
      <trkpt lat="42.70247" lon="1.15306">
        <ele>2204.8000488281</ele>
        <time>2023-07-26T10:18:05.000Z</time>
      </trkpt>
      <trkpt lat="42.70248" lon="1.15307">
        <ele>2204.6000976562</ele>
        <time>2023-07-26T10:18:07.000Z</time>
      </trkpt>
      <trkpt lat="42.70249" lon="1.1531">
        <ele>2204.3999023438</ele>
        <time>2023-07-26T10:18:16.000Z</time>
      </trkpt>
      <trkpt lat="42.70252" lon="1.15309">
        <ele>2203.3999023438</ele>
        <time>2023-07-26T10:18:27.000Z</time>
      </trkpt>
      <trkpt lat="42.70256" lon="1.15306">
        <ele>2202</ele>
        <time>2023-07-26T10:18:39.000Z</time>
      </trkpt>
      <trkpt lat="42.70255" lon="1.15303">
        <ele>2201.6000976562</ele>
        <time>2023-07-26T10:18:45.000Z</time>
      </trkpt>
      <trkpt lat="42.70256" lon="1.15296">
        <ele>2201.1999511719</ele>
        <time>2023-07-26T10:18:51.000Z</time>
      </trkpt>
      <trkpt lat="42.70257" lon="1.15291">
        <ele>2200.6000976562</ele>
        <time>2023-07-26T10:18:58.000Z</time>
      </trkpt>
      <trkpt lat="42.70257" lon="1.15291">
        <ele>2200.6000976562</ele>
        <time>2023-07-26T10:18:59.000Z</time>
      </trkpt>
      <trkpt lat="42.70258" lon="1.15289">
        <ele>2201.1999511719</ele>
        <time>2023-07-26T10:19:09.000Z</time>
      </trkpt>
      <trkpt lat="42.70258" lon="1.15288">
        <ele>2201.8000488281</ele>
        <time>2023-07-26T10:19:12.000Z</time>
      </trkpt>
      <trkpt lat="42.7026" lon="1.15289">
        <ele>2202.8000488281</ele>
        <time>2023-07-26T10:19:18.000Z</time>
      </trkpt>
      <trkpt lat="42.7026" lon="1.15289">
        <ele>2203</ele>
        <time>2023-07-26T10:19:19.000Z</time>
      </trkpt>
      <trkpt lat="42.70263" lon="1.15285">
        <ele>2203</ele>
        <time>2023-07-26T10:19:27.000Z</time>
      </trkpt>
      <trkpt lat="42.70261" lon="1.15281">
        <ele>2203</ele>
        <time>2023-07-26T10:19:36.000Z</time>
      </trkpt>
      <trkpt lat="42.70256" lon="1.15281">
        <ele>2202.8000488281</ele>
        <time>2023-07-26T10:19:45.000Z</time>
      </trkpt>
      <trkpt lat="42.70259" lon="1.15284">
        <ele>2202.6000976562</ele>
        <time>2023-07-26T10:19:52.000Z</time>
      </trkpt>
      <trkpt lat="42.70262" lon="1.15283">
        <ele>2202.6000976562</ele>
        <time>2023-07-26T10:20:01.000Z</time>
      </trkpt>
      <trkpt lat="42.70259" lon="1.15286">
        <ele>2202.6000976562</ele>
        <time>2023-07-26T10:20:08.000Z</time>
      </trkpt>
      <trkpt lat="42.7026" lon="1.15287">
        <ele>2202.3999023438</ele>
        <time>2023-07-26T10:20:16.000Z</time>
      </trkpt>
      <trkpt lat="42.7026" lon="1.15284">
        <ele>2202.3999023438</ele>
        <time>2023-07-26T10:20:25.000Z</time>
      </trkpt>
      <trkpt lat="42.70257" lon="1.15279">
        <ele>2202.6000976562</ele>
        <time>2023-07-26T10:20:34.000Z</time>
      </trkpt>
      <trkpt lat="42.70257" lon="1.15282">
        <ele>2202.1999511719</ele>
        <time>2023-07-26T10:20:41.000Z</time>
      </trkpt>
      <trkpt lat="42.70257" lon="1.15282">
        <ele>2202.1999511719</ele>
        <time>2023-07-26T10:20:48.000Z</time>
      </trkpt>
      <trkpt lat="42.7026" lon="1.15282">
        <ele>2202</ele>
        <time>2023-07-26T10:20:56.000Z</time>
      </trkpt>
      <trkpt lat="42.70259" lon="1.15283">
        <ele>2202</ele>
        <time>2023-07-26T10:21:05.000Z</time>
      </trkpt>
      <trkpt lat="42.70255" lon="1.15281">
        <ele>2201.8000488281</ele>
        <time>2023-07-26T10:21:10.000Z</time>
      </trkpt>
      <trkpt lat="42.70255" lon="1.1528">
        <ele>2201.8000488281</ele>
        <time>2023-07-26T10:21:11.000Z</time>
      </trkpt>
      <trkpt lat="42.70256" lon="1.15279">
        <ele>2201.8000488281</ele>
        <time>2023-07-26T10:21:18.000Z</time>
      </trkpt>
      <trkpt lat="42.70257" lon="1.15282">
        <ele>2201.8000488281</ele>
        <time>2023-07-26T10:21:23.000Z</time>
      </trkpt>
      <trkpt lat="42.70258" lon="1.15283">
        <ele>2201.8000488281</ele>
        <time>2023-07-26T10:21:30.000Z</time>
      </trkpt>
      <trkpt lat="42.70265" lon="1.15282">
        <ele>2202.6000976562</ele>
        <time>2023-07-26T10:21:38.000Z</time>
      </trkpt>
      <trkpt lat="42.70264" lon="1.15279">
        <ele>2202.6000976562</ele>
        <time>2023-07-26T10:21:48.000Z</time>
      </trkpt>
      <trkpt lat="42.70265" lon="1.15278">
        <ele>2202.1999511719</ele>
        <time>2023-07-26T10:21:55.000Z</time>
      </trkpt>
      <trkpt lat="42.70266" lon="1.15278">
        <ele>2203</ele>
        <time>2023-07-26T10:22:02.000Z</time>
      </trkpt>
      <trkpt lat="42.70267" lon="1.15278">
        <ele>2203.6000976562</ele>
        <time>2023-07-26T10:22:09.000Z</time>
      </trkpt>
      <trkpt lat="42.70269" lon="1.15278">
        <ele>2204</ele>
        <time>2023-07-26T10:22:14.000Z</time>
      </trkpt>
      <trkpt lat="42.7027" lon="1.15277">
        <ele>2204.1999511719</ele>
        <time>2023-07-26T10:22:16.000Z</time>
      </trkpt>
      <trkpt lat="42.70272" lon="1.15275">
        <ele>2205</ele>
        <time>2023-07-26T10:22:21.000Z</time>
      </trkpt>
      <trkpt lat="42.70273" lon="1.15275">
        <ele>2205.1999511719</ele>
        <time>2023-07-26T10:22:24.000Z</time>
      </trkpt>
      <trkpt lat="42.70276" lon="1.15276">
        <ele>2205.6000976562</ele>
        <time>2023-07-26T10:22:31.000Z</time>
      </trkpt>
      <trkpt lat="42.70276" lon="1.15275">
        <ele>2206</ele>
        <time>2023-07-26T10:22:33.000Z</time>
      </trkpt>
      <trkpt lat="42.70276" lon="1.15275">
        <ele>2206.3999023438</ele>
        <time>2023-07-26T10:22:38.000Z</time>
      </trkpt>
      <trkpt lat="42.70277" lon="1.15274">
        <ele>2207.1999511719</ele>
        <time>2023-07-26T10:22:42.000Z</time>
      </trkpt>
      <trkpt lat="42.70277" lon="1.1527">
        <ele>2207.6000976562</ele>
        <time>2023-07-26T10:22:47.000Z</time>
      </trkpt>
      <trkpt lat="42.70279" lon="1.15269">
        <ele>2208.1999511719</ele>
        <time>2023-07-26T10:22:54.000Z</time>
      </trkpt>
      <trkpt lat="42.70281" lon="1.15267">
        <ele>2209</ele>
        <time>2023-07-26T10:23:03.000Z</time>
      </trkpt>
      <trkpt lat="42.7028" lon="1.15262">
        <ele>2209</ele>
        <time>2023-07-26T10:23:11.000Z</time>
      </trkpt>
      <trkpt lat="42.70281" lon="1.15256">
        <ele>2208.8000488281</ele>
        <time>2023-07-26T10:23:19.000Z</time>
      </trkpt>
      <trkpt lat="42.7028" lon="1.15252">
        <ele>2209</ele>
        <time>2023-07-26T10:23:26.000Z</time>
      </trkpt>
      <trkpt lat="42.70281" lon="1.15249">
        <ele>2209</ele>
        <time>2023-07-26T10:23:32.000Z</time>
      </trkpt>
      <trkpt lat="42.70281" lon="1.15247">
        <ele>2209.1999511719</ele>
        <time>2023-07-26T10:23:35.000Z</time>
      </trkpt>
      <trkpt lat="42.70282" lon="1.15246">
        <ele>2209.3999023438</ele>
        <time>2023-07-26T10:23:39.000Z</time>
      </trkpt>
      <trkpt lat="42.70284" lon="1.15241">
        <ele>2210.3999023438</ele>
        <time>2023-07-26T10:23:46.000Z</time>
      </trkpt>
      <trkpt lat="42.70285" lon="1.15241">
        <ele>2210.3999023438</ele>
        <time>2023-07-26T10:23:47.000Z</time>
      </trkpt>
      <trkpt lat="42.70285" lon="1.15238">
        <ele>2210.8000488281</ele>
        <time>2023-07-26T10:23:54.000Z</time>
      </trkpt>
      <trkpt lat="42.70286" lon="1.15235">
        <ele>2211.1999511719</ele>
        <time>2023-07-26T10:23:59.000Z</time>
      </trkpt>
      <trkpt lat="42.70287" lon="1.15229">
        <ele>2211.1999511719</ele>
        <time>2023-07-26T10:24:08.000Z</time>
      </trkpt>
      <trkpt lat="42.70289" lon="1.15226">
        <ele>2211.3999023438</ele>
        <time>2023-07-26T10:24:11.000Z</time>
      </trkpt>
      <trkpt lat="42.70289" lon="1.15228">
        <ele>2211.6000976562</ele>
        <time>2023-07-26T10:24:15.000Z</time>
      </trkpt>
      <trkpt lat="42.7029" lon="1.15229">
        <ele>2211.6000976562</ele>
        <time>2023-07-26T10:24:22.000Z</time>
      </trkpt>
      <trkpt lat="42.70288" lon="1.15228">
        <ele>2211.3999023438</ele>
        <time>2023-07-26T10:24:33.000Z</time>
      </trkpt>
      <trkpt lat="42.70287" lon="1.15227">
        <ele>2211.3999023438</ele>
        <time>2023-07-26T10:24:39.000Z</time>
      </trkpt>
      <trkpt lat="42.70292" lon="1.15222">
        <ele>2211.8000488281</ele>
        <time>2023-07-26T10:24:47.000Z</time>
      </trkpt>
      <trkpt lat="42.70294" lon="1.15217">
        <ele>2212.3999023438</ele>
        <time>2023-07-26T10:24:55.000Z</time>
      </trkpt>
      <trkpt lat="42.70295" lon="1.15212">
        <ele>2212.3999023438</ele>
        <time>2023-07-26T10:25:03.000Z</time>
      </trkpt>
      <trkpt lat="42.70298" lon="1.15206">
        <ele>2212.3999023438</ele>
        <time>2023-07-26T10:25:14.000Z</time>
      </trkpt>
      <trkpt lat="42.70303" lon="1.15204">
        <ele>2213.6000976562</ele>
        <time>2023-07-26T10:25:22.000Z</time>
      </trkpt>
      <trkpt lat="42.70303" lon="1.15204">
        <ele>2214</ele>
        <time>2023-07-26T10:25:23.000Z</time>
      </trkpt>
      <trkpt lat="42.70304" lon="1.15203">
        <ele>2214.8000488281</ele>
        <time>2023-07-26T10:25:28.000Z</time>
      </trkpt>
      <trkpt lat="42.70304" lon="1.15201">
        <ele>2215.1999511719</ele>
        <time>2023-07-26T10:25:35.000Z</time>
      </trkpt>
      <trkpt lat="42.70308" lon="1.15199">
        <ele>2214.3999023438</ele>
        <time>2023-07-26T10:25:43.000Z</time>
      </trkpt>
      <trkpt lat="42.70312" lon="1.15204">
        <ele>2214.3999023438</ele>
        <time>2023-07-26T10:25:53.000Z</time>
      </trkpt>
      <trkpt lat="42.70315" lon="1.15204">
        <ele>2215.3999023438</ele>
        <time>2023-07-26T10:26:01.000Z</time>
      </trkpt>
      <trkpt lat="42.70315" lon="1.15204">
        <ele>2215.6000976562</ele>
        <time>2023-07-26T10:26:02.000Z</time>
      </trkpt>
      <trkpt lat="42.70316" lon="1.15204">
        <ele>2215.8000488281</ele>
        <time>2023-07-26T10:26:03.000Z</time>
      </trkpt>
      <trkpt lat="42.70321" lon="1.15204">
        <ele>2216.3999023438</ele>
        <time>2023-07-26T10:26:10.000Z</time>
      </trkpt>
      <trkpt lat="42.70319" lon="1.15203">
        <ele>2216.1999511719</ele>
        <time>2023-07-26T10:26:17.000Z</time>
      </trkpt>
      <trkpt lat="42.70316" lon="1.15202">
        <ele>2216</ele>
        <time>2023-07-26T10:26:27.000Z</time>
      </trkpt>
      <trkpt lat="42.7032" lon="1.15203">
        <ele>2216</ele>
        <time>2023-07-26T10:26:34.000Z</time>
      </trkpt>
      <trkpt lat="42.70323" lon="1.15205">
        <ele>2215.8000488281</ele>
        <time>2023-07-26T10:26:42.000Z</time>
      </trkpt>
      <trkpt lat="42.7032" lon="1.15205">
        <ele>2215.8000488281</ele>
        <time>2023-07-26T10:26:50.000Z</time>
      </trkpt>
      <trkpt lat="42.70324" lon="1.15199">
        <ele>2215.8000488281</ele>
        <time>2023-07-26T10:27:00.000Z</time>
      </trkpt>
      <trkpt lat="42.70321" lon="1.152">
        <ele>2215.8000488281</ele>
        <time>2023-07-26T10:27:07.000Z</time>
      </trkpt>
      <trkpt lat="42.70317" lon="1.152">
        <ele>2215.1999511719</ele>
        <time>2023-07-26T10:27:16.000Z</time>
      </trkpt>
      <trkpt lat="42.70316" lon="1.152">
        <ele>2215</ele>
        <time>2023-07-26T10:27:24.000Z</time>
      </trkpt>
      <trkpt lat="42.70316" lon="1.15199">
        <ele>2215</ele>
        <time>2023-07-26T10:27:34.000Z</time>
      </trkpt>
      <trkpt lat="42.70319" lon="1.152">
        <ele>2214.8000488281</ele>
        <time>2023-07-26T10:27:43.000Z</time>
      </trkpt>
      <trkpt lat="42.70317" lon="1.15199">
        <ele>2215</ele>
        <time>2023-07-26T10:27:50.000Z</time>
      </trkpt>
      <trkpt lat="42.70317" lon="1.15204">
        <ele>2215</ele>
        <time>2023-07-26T10:27:57.000Z</time>
      </trkpt>
      <trkpt lat="42.70314" lon="1.15206">
        <ele>2214.8000488281</ele>
        <time>2023-07-26T10:28:03.000Z</time>
      </trkpt>
      <trkpt lat="42.70314" lon="1.15205">
        <ele>2214.6000976562</ele>
        <time>2023-07-26T10:28:04.000Z</time>
      </trkpt>
      <trkpt lat="42.70313" lon="1.15201">
        <ele>2213.6000976562</ele>
        <time>2023-07-26T10:28:10.000Z</time>
      </trkpt>
      <trkpt lat="42.7031" lon="1.152">
        <ele>2213</ele>
        <time>2023-07-26T10:28:13.000Z</time>
      </trkpt>
      <trkpt lat="42.70308" lon="1.15199">
        <ele>2212.6000976562</ele>
        <time>2023-07-26T10:28:16.000Z</time>
      </trkpt>
      <trkpt lat="42.70305" lon="1.15199">
        <ele>2212.1999511719</ele>
        <time>2023-07-26T10:28:21.000Z</time>
      </trkpt>
      <trkpt lat="42.70303" lon="1.15201">
        <ele>2213</ele>
        <time>2023-07-26T10:28:28.000Z</time>
      </trkpt>
      <trkpt lat="42.70303" lon="1.152">
        <ele>2213</ele>
        <time>2023-07-26T10:28:33.000Z</time>
      </trkpt>
      <trkpt lat="42.70302" lon="1.15201">
        <ele>2212.3999023438</ele>
        <time>2023-07-26T10:28:42.000Z</time>
      </trkpt>
      <trkpt lat="42.70298" lon="1.15201">
        <ele>2212.3999023438</ele>
        <time>2023-07-26T10:28:50.000Z</time>
      </trkpt>
      <trkpt lat="42.70302" lon="1.15204">
        <ele>2212.6000976562</ele>
        <time>2023-07-26T10:28:54.000Z</time>
      </trkpt>
      <trkpt lat="42.70302" lon="1.15204">
        <ele>2212.3999023438</ele>
        <time>2023-07-26T10:28:57.000Z</time>
      </trkpt>
      <trkpt lat="42.703" lon="1.15205">
        <ele>2211.6000976562</ele>
        <time>2023-07-26T10:29:02.000Z</time>
      </trkpt>
      <trkpt lat="42.70299" lon="1.15203">
        <ele>2210.8000488281</ele>
        <time>2023-07-26T10:29:06.000Z</time>
      </trkpt>
      <trkpt lat="42.70299" lon="1.15203">
        <ele>2210.6000976562</ele>
        <time>2023-07-26T10:29:07.000Z</time>
      </trkpt>
      <trkpt lat="42.70297" lon="1.15205">
        <ele>2209.3999023438</ele>
        <time>2023-07-26T10:29:13.000Z</time>
      </trkpt>
      <trkpt lat="42.70296" lon="1.15206">
        <ele>2208.3999023438</ele>
        <time>2023-07-26T10:29:20.000Z</time>
      </trkpt>
      <trkpt lat="42.70295" lon="1.15206">
        <ele>2208.1999511719</ele>
        <time>2023-07-26T10:29:21.000Z</time>
      </trkpt>
      <trkpt lat="42.70293" lon="1.15205">
        <ele>2207.1999511719</ele>
        <time>2023-07-26T10:29:26.000Z</time>
      </trkpt>
      <trkpt lat="42.70291" lon="1.15204">
        <ele>2206.8000488281</ele>
        <time>2023-07-26T10:29:29.000Z</time>
      </trkpt>
      <trkpt lat="42.7029" lon="1.15202">
        <ele>2206.1999511719</ele>
        <time>2023-07-26T10:29:32.000Z</time>
      </trkpt>
      <trkpt lat="42.70291" lon="1.15199">
        <ele>2205.6000976562</ele>
        <time>2023-07-26T10:29:35.000Z</time>
      </trkpt>
      <trkpt lat="42.7029" lon="1.15196">
        <ele>2205.1999511719</ele>
        <time>2023-07-26T10:29:39.000Z</time>
      </trkpt>
      <trkpt lat="42.70291" lon="1.15195">
        <ele>2204.8000488281</ele>
        <time>2023-07-26T10:29:41.000Z</time>
      </trkpt>
      <trkpt lat="42.70292" lon="1.15193">
        <ele>2204.1999511719</ele>
        <time>2023-07-26T10:29:46.000Z</time>
      </trkpt>
      <trkpt lat="42.70293" lon="1.15191">
        <ele>2204</ele>
        <time>2023-07-26T10:29:49.000Z</time>
      </trkpt>
      <trkpt lat="42.70293" lon="1.15187">
        <ele>2203.6000976562</ele>
        <time>2023-07-26T10:29:59.000Z</time>
      </trkpt>
      <trkpt lat="42.70293" lon="1.15185">
        <ele>2203</ele>
        <time>2023-07-26T10:30:02.000Z</time>
      </trkpt>
      <trkpt lat="42.70292" lon="1.15184">
        <ele>2202.8000488281</ele>
        <time>2023-07-26T10:30:06.000Z</time>
      </trkpt>
      <trkpt lat="42.7029" lon="1.15182">
        <ele>2202</ele>
        <time>2023-07-26T10:30:11.000Z</time>
      </trkpt>
      <trkpt lat="42.7029" lon="1.1518">
        <ele>2201.6000976562</ele>
        <time>2023-07-26T10:30:13.000Z</time>
      </trkpt>
      <trkpt lat="42.7029" lon="1.15178">
        <ele>2201</ele>
        <time>2023-07-26T10:30:15.000Z</time>
      </trkpt>
      <trkpt lat="42.70291" lon="1.15176">
        <ele>2200.6000976562</ele>
        <time>2023-07-26T10:30:18.000Z</time>
      </trkpt>
      <trkpt lat="42.70293" lon="1.15175">
        <ele>2200</ele>
        <time>2023-07-26T10:30:26.000Z</time>
      </trkpt>
      <trkpt lat="42.70294" lon="1.15176">
        <ele>2200</ele>
        <time>2023-07-26T10:30:29.000Z</time>
      </trkpt>
      <trkpt lat="42.70294" lon="1.15175">
        <ele>2200</ele>
        <time>2023-07-26T10:30:36.000Z</time>
      </trkpt>
      <trkpt lat="42.70293" lon="1.15172">
        <ele>2199.8000488281</ele>
        <time>2023-07-26T10:30:43.000Z</time>
      </trkpt>
      <trkpt lat="42.70292" lon="1.15175">
        <ele>2198.8000488281</ele>
        <time>2023-07-26T10:30:51.000Z</time>
      </trkpt>
      <trkpt lat="42.70292" lon="1.15175">
        <ele>2198.6000976562</ele>
        <time>2023-07-26T10:30:52.000Z</time>
      </trkpt>
      <trkpt lat="42.70292" lon="1.15172">
        <ele>2198.6000976562</ele>
        <time>2023-07-26T10:30:59.000Z</time>
      </trkpt>
      <trkpt lat="42.70291" lon="1.15168">
        <ele>2197.8000488281</ele>
        <time>2023-07-26T10:31:04.000Z</time>
      </trkpt>
      <trkpt lat="42.70292" lon="1.15167">
        <ele>2197</ele>
        <time>2023-07-26T10:31:07.000Z</time>
      </trkpt>
      <trkpt lat="42.70291" lon="1.15167">
        <ele>2196.6000976562</ele>
        <time>2023-07-26T10:31:10.000Z</time>
      </trkpt>
      <trkpt lat="42.70291" lon="1.15166">
        <ele>2196</ele>
        <time>2023-07-26T10:31:14.000Z</time>
      </trkpt>
      <trkpt lat="42.7029" lon="1.15165">
        <ele>2195.6000976562</ele>
        <time>2023-07-26T10:31:16.000Z</time>
      </trkpt>
      <trkpt lat="42.70288" lon="1.15163">
        <ele>2194.3999023438</ele>
        <time>2023-07-26T10:31:21.000Z</time>
      </trkpt>
      <trkpt lat="42.70288" lon="1.15162">
        <ele>2194.1999511719</ele>
        <time>2023-07-26T10:31:22.000Z</time>
      </trkpt>
      <trkpt lat="42.70286" lon="1.15159">
        <ele>2193.1999511719</ele>
        <time>2023-07-26T10:31:28.000Z</time>
      </trkpt>
      <trkpt lat="42.70285" lon="1.1516">
        <ele>2192.8000488281</ele>
        <time>2023-07-26T10:31:30.000Z</time>
      </trkpt>
      <trkpt lat="42.70286" lon="1.15158">
        <ele>2192.1999511719</ele>
        <time>2023-07-26T10:31:34.000Z</time>
      </trkpt>
      <trkpt lat="42.70286" lon="1.15157">
        <ele>2192</ele>
        <time>2023-07-26T10:31:36.000Z</time>
      </trkpt>
      <trkpt lat="42.70286" lon="1.15156">
        <ele>2191.1999511719</ele>
        <time>2023-07-26T10:31:39.000Z</time>
      </trkpt>
      <trkpt lat="42.70285" lon="1.15155">
        <ele>2190.1999511719</ele>
        <time>2023-07-26T10:31:46.000Z</time>
      </trkpt>
      <trkpt lat="42.70285" lon="1.15154">
        <ele>2190</ele>
        <time>2023-07-26T10:31:47.000Z</time>
      </trkpt>
      <trkpt lat="42.70284" lon="1.15152">
        <ele>2189.1999511719</ele>
        <time>2023-07-26T10:31:53.000Z</time>
      </trkpt>
      <trkpt lat="42.70284" lon="1.15152">
        <ele>2189</ele>
        <time>2023-07-26T10:31:54.000Z</time>
      </trkpt>
      <trkpt lat="42.70282" lon="1.15153">
        <ele>2188.1999511719</ele>
        <time>2023-07-26T10:32:01.000Z</time>
      </trkpt>
      <trkpt lat="42.70282" lon="1.15152">
        <ele>2188</ele>
        <time>2023-07-26T10:32:04.000Z</time>
      </trkpt>
      <trkpt lat="42.70282" lon="1.15151">
        <ele>2187.1999511719</ele>
        <time>2023-07-26T10:32:10.000Z</time>
      </trkpt>
      <trkpt lat="42.70281" lon="1.1515">
        <ele>2187</ele>
        <time>2023-07-26T10:32:11.000Z</time>
      </trkpt>
      <trkpt lat="42.7028" lon="1.1515">
        <ele>2186.1999511719</ele>
        <time>2023-07-26T10:32:16.000Z</time>
      </trkpt>
      <trkpt lat="42.70279" lon="1.15149">
        <ele>2186</ele>
        <time>2023-07-26T10:32:18.000Z</time>
      </trkpt>
      <trkpt lat="42.70279" lon="1.1515">
        <ele>2184.8000488281</ele>
        <time>2023-07-26T10:32:23.000Z</time>
      </trkpt>
      <trkpt lat="42.70279" lon="1.1515">
        <ele>2184.6000976562</ele>
        <time>2023-07-26T10:32:24.000Z</time>
      </trkpt>
      <trkpt lat="42.70277" lon="1.15151">
        <ele>2184.6000976562</ele>
        <time>2023-07-26T10:32:31.000Z</time>
      </trkpt>
      <trkpt lat="42.70276" lon="1.15147">
        <ele>2184.6000976562</ele>
        <time>2023-07-26T10:32:41.000Z</time>
      </trkpt>
      <trkpt lat="42.70275" lon="1.15149">
        <ele>2184</ele>
        <time>2023-07-26T10:32:50.000Z</time>
      </trkpt>
      <trkpt lat="42.70275" lon="1.15149">
        <ele>2183.6000976562</ele>
        <time>2023-07-26T10:32:53.000Z</time>
      </trkpt>
      <trkpt lat="42.7027" lon="1.15148">
        <ele>2182.6000976562</ele>
        <time>2023-07-26T10:33:00.000Z</time>
      </trkpt>
      <trkpt lat="42.70271" lon="1.15147">
        <ele>2182.6000976562</ele>
        <time>2023-07-26T10:33:01.000Z</time>
      </trkpt>
      <trkpt lat="42.70273" lon="1.15145">
        <ele>2181.3999023438</ele>
        <time>2023-07-26T10:33:07.000Z</time>
      </trkpt>
      <trkpt lat="42.70273" lon="1.15144">
        <ele>2181.1999511719</ele>
        <time>2023-07-26T10:33:08.000Z</time>
      </trkpt>
      <trkpt lat="42.70275" lon="1.15138">
        <ele>2180.3999023438</ele>
        <time>2023-07-26T10:33:15.000Z</time>
      </trkpt>
      <trkpt lat="42.70275" lon="1.15137">
        <ele>2180.1999511719</ele>
        <time>2023-07-26T10:33:16.000Z</time>
      </trkpt>
      <trkpt lat="42.70276" lon="1.15134">
        <ele>2179.3999023438</ele>
        <time>2023-07-26T10:33:23.000Z</time>
      </trkpt>
      <trkpt lat="42.70277" lon="1.15134">
        <ele>2178.3999023438</ele>
        <time>2023-07-26T10:33:28.000Z</time>
      </trkpt>
      <trkpt lat="42.70277" lon="1.15134">
        <ele>2178.1999511719</ele>
        <time>2023-07-26T10:33:29.000Z</time>
      </trkpt>
      <trkpt lat="42.70279" lon="1.1513">
        <ele>2177.6000976562</ele>
        <time>2023-07-26T10:33:37.000Z</time>
      </trkpt>
      <trkpt lat="42.70278" lon="1.15133">
        <ele>2177.3999023438</ele>
        <time>2023-07-26T10:33:47.000Z</time>
      </trkpt>
      <trkpt lat="42.70276" lon="1.15127">
        <ele>2177.3999023438</ele>
        <time>2023-07-26T10:33:54.000Z</time>
      </trkpt>
      <trkpt lat="42.70276" lon="1.15127">
        <ele>2177.3999023438</ele>
        <time>2023-07-26T10:33:58.000Z</time>
      </trkpt>
      <trkpt lat="42.70276" lon="1.15128">
        <ele>2177.1999511719</ele>
        <time>2023-07-26T10:34:00.000Z</time>
      </trkpt>
      <trkpt lat="42.70276" lon="1.15126">
        <ele>2176.3999023438</ele>
        <time>2023-07-26T10:34:06.000Z</time>
      </trkpt>
      <trkpt lat="42.70276" lon="1.15125">
        <ele>2176.1999511719</ele>
        <time>2023-07-26T10:34:08.000Z</time>
      </trkpt>
      <trkpt lat="42.70276" lon="1.15125">
        <ele>2175.1999511719</ele>
        <time>2023-07-26T10:34:13.000Z</time>
      </trkpt>
      <trkpt lat="42.70275" lon="1.15125">
        <ele>2175</ele>
        <time>2023-07-26T10:34:15.000Z</time>
      </trkpt>
      <trkpt lat="42.70272" lon="1.15124">
        <ele>2174.6000976562</ele>
        <time>2023-07-26T10:34:20.000Z</time>
      </trkpt>
      <trkpt lat="42.70272" lon="1.15123">
        <ele>2174</ele>
        <time>2023-07-26T10:34:28.000Z</time>
      </trkpt>
      <trkpt lat="42.70273" lon="1.15122">
        <ele>2174</ele>
        <time>2023-07-26T10:34:29.000Z</time>
      </trkpt>
      <trkpt lat="42.70273" lon="1.15118">
        <ele>2173.1999511719</ele>
        <time>2023-07-26T10:34:36.000Z</time>
      </trkpt>
      <trkpt lat="42.70273" lon="1.15118">
        <ele>2172.8000488281</ele>
        <time>2023-07-26T10:34:37.000Z</time>
      </trkpt>
      <trkpt lat="42.70273" lon="1.15118">
        <ele>2172.3999023438</ele>
        <time>2023-07-26T10:34:45.000Z</time>
      </trkpt>
      <trkpt lat="42.70277" lon="1.15118">
        <ele>2172.3999023438</ele>
        <time>2023-07-26T10:34:53.000Z</time>
      </trkpt>
      <trkpt lat="42.70275" lon="1.15116">
        <ele>2172.6000976562</ele>
        <time>2023-07-26T10:35:00.000Z</time>
      </trkpt>
      <trkpt lat="42.70273" lon="1.15114">
        <ele>2171.8000488281</ele>
        <time>2023-07-26T10:35:08.000Z</time>
      </trkpt>
      <trkpt lat="42.70273" lon="1.15115">
        <ele>2170.8000488281</ele>
        <time>2023-07-26T10:35:15.000Z</time>
      </trkpt>
      <trkpt lat="42.70274" lon="1.15115">
        <ele>2170.6000976562</ele>
        <time>2023-07-26T10:35:16.000Z</time>
      </trkpt>
      <trkpt lat="42.70273" lon="1.15113">
        <ele>2170.3999023438</ele>
        <time>2023-07-26T10:35:24.000Z</time>
      </trkpt>
      <trkpt lat="42.70273" lon="1.15117">
        <ele>2170.3999023438</ele>
        <time>2023-07-26T10:35:32.000Z</time>
      </trkpt>
      <trkpt lat="42.70272" lon="1.15119">
        <ele>2170.3999023438</ele>
        <time>2023-07-26T10:35:40.000Z</time>
      </trkpt>
      <trkpt lat="42.70272" lon="1.15115">
        <ele>2170.3999023438</ele>
        <time>2023-07-26T10:35:49.000Z</time>
      </trkpt>
      <trkpt lat="42.70273" lon="1.15111">
        <ele>2170</ele>
        <time>2023-07-26T10:35:57.000Z</time>
      </trkpt>
      <trkpt lat="42.70275" lon="1.1511">
        <ele>2169.6000976562</ele>
        <time>2023-07-26T10:36:00.000Z</time>
      </trkpt>
      <trkpt lat="42.70276" lon="1.1511">
        <ele>2169.1999511719</ele>
        <time>2023-07-26T10:36:04.000Z</time>
      </trkpt>
      <trkpt lat="42.70278" lon="1.15106">
        <ele>2168.6000976562</ele>
        <time>2023-07-26T10:36:12.000Z</time>
      </trkpt>
      <trkpt lat="42.70278" lon="1.15105">
        <ele>2168.3999023438</ele>
        <time>2023-07-26T10:36:13.000Z</time>
      </trkpt>
      <trkpt lat="42.70278" lon="1.15104">
        <ele>2167.3999023438</ele>
        <time>2023-07-26T10:36:19.000Z</time>
      </trkpt>
      <trkpt lat="42.70273" lon="1.15108">
        <ele>2167</ele>
        <time>2023-07-26T10:36:26.000Z</time>
      </trkpt>
      <trkpt lat="42.70272" lon="1.15108">
        <ele>2166.3999023438</ele>
        <time>2023-07-26T10:36:33.000Z</time>
      </trkpt>
      <trkpt lat="42.70271" lon="1.15108">
        <ele>2165.3999023438</ele>
        <time>2023-07-26T10:36:39.000Z</time>
      </trkpt>
      <trkpt lat="42.70271" lon="1.15108">
        <ele>2165.1999511719</ele>
        <time>2023-07-26T10:36:40.000Z</time>
      </trkpt>
      <trkpt lat="42.70269" lon="1.15108">
        <ele>2164.3999023438</ele>
        <time>2023-07-26T10:36:45.000Z</time>
      </trkpt>
      <trkpt lat="42.70269" lon="1.15109">
        <ele>2164.1999511719</ele>
        <time>2023-07-26T10:36:47.000Z</time>
      </trkpt>
      <trkpt lat="42.70268" lon="1.15108">
        <ele>2164</ele>
        <time>2023-07-26T10:36:53.000Z</time>
      </trkpt>
      <trkpt lat="42.70267" lon="1.15103">
        <ele>2164.1999511719</ele>
        <time>2023-07-26T10:37:04.000Z</time>
      </trkpt>
      <trkpt lat="42.70269" lon="1.15101">
        <ele>2164.1999511719</ele>
        <time>2023-07-26T10:37:11.000Z</time>
      </trkpt>
      <trkpt lat="42.70267" lon="1.15103">
        <ele>2164</ele>
        <time>2023-07-26T10:37:21.000Z</time>
      </trkpt>
      <trkpt lat="42.70267" lon="1.15101">
        <ele>2163.1999511719</ele>
        <time>2023-07-26T10:37:24.000Z</time>
      </trkpt>
      <trkpt lat="42.70268" lon="1.15097">
        <ele>2162.3999023438</ele>
        <time>2023-07-26T10:37:28.000Z</time>
      </trkpt>
      <trkpt lat="42.70267" lon="1.15093">
        <ele>2162.1999511719</ele>
        <time>2023-07-26T10:37:31.000Z</time>
      </trkpt>
      <trkpt lat="42.70268" lon="1.15091">
        <ele>2161.8000488281</ele>
        <time>2023-07-26T10:37:35.000Z</time>
      </trkpt>
      <trkpt lat="42.70269" lon="1.15092">
        <ele>2161.1999511719</ele>
        <time>2023-07-26T10:37:40.000Z</time>
      </trkpt>
      <trkpt lat="42.70271" lon="1.15094">
        <ele>2160.8000488281</ele>
        <time>2023-07-26T10:37:44.000Z</time>
      </trkpt>
      <trkpt lat="42.70269" lon="1.15091">
        <ele>2160.3999023438</ele>
        <time>2023-07-26T10:37:52.000Z</time>
      </trkpt>
      <trkpt lat="42.70268" lon="1.1509">
        <ele>2160</ele>
        <time>2023-07-26T10:37:54.000Z</time>
      </trkpt>
      <trkpt lat="42.70268" lon="1.15091">
        <ele>2159.1999511719</ele>
        <time>2023-07-26T10:37:59.000Z</time>
      </trkpt>
      <trkpt lat="42.70268" lon="1.15091">
        <ele>2158.8000488281</ele>
        <time>2023-07-26T10:38:04.000Z</time>
      </trkpt>
      <trkpt lat="42.70269" lon="1.15091">
        <ele>2158.1999511719</ele>
        <time>2023-07-26T10:38:08.000Z</time>
      </trkpt>
      <trkpt lat="42.70268" lon="1.15089">
        <ele>2157.8000488281</ele>
        <time>2023-07-26T10:38:11.000Z</time>
      </trkpt>
      <trkpt lat="42.70267" lon="1.15086">
        <ele>2157.3999023438</ele>
        <time>2023-07-26T10:38:16.000Z</time>
      </trkpt>
      <trkpt lat="42.70265" lon="1.15084">
        <ele>2156.6000976562</ele>
        <time>2023-07-26T10:38:21.000Z</time>
      </trkpt>
      <trkpt lat="42.70264" lon="1.15084">
        <ele>2156</ele>
        <time>2023-07-26T10:38:24.000Z</time>
      </trkpt>
      <trkpt lat="42.70263" lon="1.15084">
        <ele>2155.6000976562</ele>
        <time>2023-07-26T10:38:26.000Z</time>
      </trkpt>
      <trkpt lat="42.70263" lon="1.15081">
        <ele>2154.3999023438</ele>
        <time>2023-07-26T10:38:31.000Z</time>
      </trkpt>
      <trkpt lat="42.70262" lon="1.1508">
        <ele>2154.1999511719</ele>
        <time>2023-07-26T10:38:32.000Z</time>
      </trkpt>
      <trkpt lat="42.7026" lon="1.15084">
        <ele>2153.6000976562</ele>
        <time>2023-07-26T10:38:39.000Z</time>
      </trkpt>
      <trkpt lat="42.7026" lon="1.15088">
        <ele>2153.6000976562</ele>
        <time>2023-07-26T10:38:47.000Z</time>
      </trkpt>
      <trkpt lat="42.70261" lon="1.15082">
        <ele>2153.1999511719</ele>
        <time>2023-07-26T10:38:55.000Z</time>
      </trkpt>
      <trkpt lat="42.70263" lon="1.15078">
        <ele>2152.8000488281</ele>
        <time>2023-07-26T10:39:03.000Z</time>
      </trkpt>
      <trkpt lat="42.70264" lon="1.15076">
        <ele>2152.6000976562</ele>
        <time>2023-07-26T10:39:10.000Z</time>
      </trkpt>
      <trkpt lat="42.70264" lon="1.15074">
        <ele>2152</ele>
        <time>2023-07-26T10:39:14.000Z</time>
      </trkpt>
      <trkpt lat="42.70265" lon="1.15073">
        <ele>2151.8000488281</ele>
        <time>2023-07-26T10:39:17.000Z</time>
      </trkpt>
      <trkpt lat="42.70264" lon="1.1507">
        <ele>2151</ele>
        <time>2023-07-26T10:39:22.000Z</time>
      </trkpt>
      <trkpt lat="42.70264" lon="1.1507">
        <ele>2150.6000976562</ele>
        <time>2023-07-26T10:39:25.000Z</time>
      </trkpt>
      <trkpt lat="42.70261" lon="1.15069">
        <ele>2150</ele>
        <time>2023-07-26T10:39:29.000Z</time>
      </trkpt>
      <trkpt lat="42.70261" lon="1.15069">
        <ele>2149.3999023438</ele>
        <time>2023-07-26T10:39:34.000Z</time>
      </trkpt>
      <trkpt lat="42.70263" lon="1.15068">
        <ele>2149</ele>
        <time>2023-07-26T10:39:40.000Z</time>
      </trkpt>
      <trkpt lat="42.70263" lon="1.15067">
        <ele>2148.8000488281</ele>
        <time>2023-07-26T10:39:41.000Z</time>
      </trkpt>
      <trkpt lat="42.70261" lon="1.15064">
        <ele>2148</ele>
        <time>2023-07-26T10:39:49.000Z</time>
      </trkpt>
      <trkpt lat="42.70263" lon="1.15063">
        <ele>2147.3999023438</ele>
        <time>2023-07-26T10:39:55.000Z</time>
      </trkpt>
      <trkpt lat="42.70264" lon="1.15062">
        <ele>2146.8000488281</ele>
        <time>2023-07-26T10:39:58.000Z</time>
      </trkpt>
      <trkpt lat="42.70265" lon="1.1506">
        <ele>2146</ele>
        <time>2023-07-26T10:40:02.000Z</time>
      </trkpt>
      <trkpt lat="42.70264" lon="1.15059">
        <ele>2145.8000488281</ele>
        <time>2023-07-26T10:40:04.000Z</time>
      </trkpt>
      <trkpt lat="42.70261" lon="1.15055">
        <ele>2145</ele>
        <time>2023-07-26T10:40:10.000Z</time>
      </trkpt>
      <trkpt lat="42.7026" lon="1.15055">
        <ele>2144.6000976562</ele>
        <time>2023-07-26T10:40:13.000Z</time>
      </trkpt>
      <trkpt lat="42.7026" lon="1.15056">
        <ele>2144</ele>
        <time>2023-07-26T10:40:17.000Z</time>
      </trkpt>
      <trkpt lat="42.7026" lon="1.15055">
        <ele>2143.6000976562</ele>
        <time>2023-07-26T10:40:21.000Z</time>
      </trkpt>
      <trkpt lat="42.70261" lon="1.15053">
        <ele>2143.3999023438</ele>
        <time>2023-07-26T10:40:26.000Z</time>
      </trkpt>
      <trkpt lat="42.7026" lon="1.15048">
        <ele>2142.3999023438</ele>
        <time>2023-07-26T10:40:32.000Z</time>
      </trkpt>
      <trkpt lat="42.7026" lon="1.15045">
        <ele>2141.3999023438</ele>
        <time>2023-07-26T10:40:37.000Z</time>
      </trkpt>
      <trkpt lat="42.70259" lon="1.15044">
        <ele>2141.1999511719</ele>
        <time>2023-07-26T10:40:38.000Z</time>
      </trkpt>
      <trkpt lat="42.70258" lon="1.15043">
        <ele>2140.3999023438</ele>
        <time>2023-07-26T10:40:44.000Z</time>
      </trkpt>
      <trkpt lat="42.70254" lon="1.15043">
        <ele>2140</ele>
        <time>2023-07-26T10:40:53.000Z</time>
      </trkpt>
      <trkpt lat="42.70257" lon="1.15042">
        <ele>2140</ele>
        <time>2023-07-26T10:40:59.000Z</time>
      </trkpt>
      <trkpt lat="42.70256" lon="1.15042">
        <ele>2139.8000488281</ele>
        <time>2023-07-26T10:41:07.000Z</time>
      </trkpt>
      <trkpt lat="42.70257" lon="1.1504">
        <ele>2139.6000976562</ele>
        <time>2023-07-26T10:41:15.000Z</time>
      </trkpt>
      <trkpt lat="42.70255" lon="1.15038">
        <ele>2139.1999511719</ele>
        <time>2023-07-26T10:41:18.000Z</time>
      </trkpt>
      <trkpt lat="42.70254" lon="1.15034">
        <ele>2138.6000976562</ele>
        <time>2023-07-26T10:41:23.000Z</time>
      </trkpt>
      <trkpt lat="42.70254" lon="1.15032">
        <ele>2138.1999511719</ele>
        <time>2023-07-26T10:41:27.000Z</time>
      </trkpt>
      <trkpt lat="42.70255" lon="1.1503">
        <ele>2137.3999023438</ele>
        <time>2023-07-26T10:41:32.000Z</time>
      </trkpt>
      <trkpt lat="42.70256" lon="1.15029">
        <ele>2137.1999511719</ele>
        <time>2023-07-26T10:41:36.000Z</time>
      </trkpt>
      <trkpt lat="42.70256" lon="1.15028">
        <ele>2136.8000488281</ele>
        <time>2023-07-26T10:41:38.000Z</time>
      </trkpt>
      <trkpt lat="42.70255" lon="1.15027">
        <ele>2136</ele>
        <time>2023-07-26T10:41:43.000Z</time>
      </trkpt>
      <trkpt lat="42.70254" lon="1.15026">
        <ele>2135.6000976562</ele>
        <time>2023-07-26T10:41:45.000Z</time>
      </trkpt>
      <trkpt lat="42.70254" lon="1.15026">
        <ele>2134.8000488281</ele>
        <time>2023-07-26T10:41:50.000Z</time>
      </trkpt>
      <trkpt lat="42.70254" lon="1.15026">
        <ele>2134.6000976562</ele>
        <time>2023-07-26T10:41:52.000Z</time>
      </trkpt>
      <trkpt lat="42.70254" lon="1.15025">
        <ele>2133.8000488281</ele>
        <time>2023-07-26T10:41:58.000Z</time>
      </trkpt>
      <trkpt lat="42.70254" lon="1.15023">
        <ele>2133.1999511719</ele>
        <time>2023-07-26T10:42:01.000Z</time>
      </trkpt>
      <trkpt lat="42.70252" lon="1.1502">
        <ele>2132.6000976562</ele>
        <time>2023-07-26T10:42:05.000Z</time>
      </trkpt>
      <trkpt lat="42.70251" lon="1.15019">
        <ele>2132.3999023438</ele>
        <time>2023-07-26T10:42:07.000Z</time>
      </trkpt>
      <trkpt lat="42.70249" lon="1.15017">
        <ele>2131.6000976562</ele>
        <time>2023-07-26T10:42:11.000Z</time>
      </trkpt>
      <trkpt lat="42.70249" lon="1.15017">
        <ele>2131.1999511719</ele>
        <time>2023-07-26T10:42:15.000Z</time>
      </trkpt>
      <trkpt lat="42.70246" lon="1.15018">
        <ele>2130.8000488281</ele>
        <time>2023-07-26T10:42:23.000Z</time>
      </trkpt>
      <trkpt lat="42.70243" lon="1.15016">
        <ele>2130.3999023438</ele>
        <time>2023-07-26T10:42:28.000Z</time>
      </trkpt>
      <trkpt lat="42.70243" lon="1.15016">
        <ele>2130</ele>
        <time>2023-07-26T10:42:31.000Z</time>
      </trkpt>
      <trkpt lat="42.70243" lon="1.15016">
        <ele>2129.6000976562</ele>
        <time>2023-07-26T10:42:36.000Z</time>
      </trkpt>
      <trkpt lat="42.70242" lon="1.15016">
        <ele>2129.3999023438</ele>
        <time>2023-07-26T10:42:39.000Z</time>
      </trkpt>
      <trkpt lat="42.70242" lon="1.15014">
        <ele>2128.3999023438</ele>
        <time>2023-07-26T10:42:45.000Z</time>
      </trkpt>
      <trkpt lat="42.70243" lon="1.15013">
        <ele>2128.3999023438</ele>
        <time>2023-07-26T10:42:46.000Z</time>
      </trkpt>
      <trkpt lat="42.70244" lon="1.15011">
        <ele>2127.6000976562</ele>
        <time>2023-07-26T10:42:53.000Z</time>
      </trkpt>
      <trkpt lat="42.70244" lon="1.1501">
        <ele>2127.3999023438</ele>
        <time>2023-07-26T10:42:55.000Z</time>
      </trkpt>
      <trkpt lat="42.70245" lon="1.15007">
        <ele>2126.1999511719</ele>
        <time>2023-07-26T10:43:02.000Z</time>
      </trkpt>
      <trkpt lat="42.70245" lon="1.15006">
        <ele>2126.1999511719</ele>
        <time>2023-07-26T10:43:03.000Z</time>
      </trkpt>
      <trkpt lat="42.70245" lon="1.15002">
        <ele>2125</ele>
        <time>2023-07-26T10:43:10.000Z</time>
      </trkpt>
      <trkpt lat="42.70245" lon="1.15002">
        <ele>2124.8000488281</ele>
        <time>2023-07-26T10:43:11.000Z</time>
      </trkpt>
      <trkpt lat="42.70245" lon="1.15002">
        <ele>2123.8000488281</ele>
        <time>2023-07-26T10:43:16.000Z</time>
      </trkpt>
      <trkpt lat="42.70246" lon="1.15001">
        <ele>2123.1999511719</ele>
        <time>2023-07-26T10:43:19.000Z</time>
      </trkpt>
      <trkpt lat="42.70246" lon="1.14998">
        <ele>2122.6000976562</ele>
        <time>2023-07-26T10:43:22.000Z</time>
      </trkpt>
      <trkpt lat="42.70246" lon="1.14999">
        <ele>2122.3999023438</ele>
        <time>2023-07-26T10:43:26.000Z</time>
      </trkpt>
      <trkpt lat="42.70247" lon="1.15">
        <ele>2122.3999023438</ele>
        <time>2023-07-26T10:43:34.000Z</time>
      </trkpt>
      <trkpt lat="42.7025" lon="1.14995">
        <ele>2122.1999511719</ele>
        <time>2023-07-26T10:43:42.000Z</time>
      </trkpt>
      <trkpt lat="42.70251" lon="1.14994">
        <ele>2121.3999023438</ele>
        <time>2023-07-26T10:43:47.000Z</time>
      </trkpt>
      <trkpt lat="42.70252" lon="1.14994">
        <ele>2120.6000976562</ele>
        <time>2023-07-26T10:43:50.000Z</time>
      </trkpt>
      <trkpt lat="42.70253" lon="1.14993">
        <ele>2120.3999023438</ele>
        <time>2023-07-26T10:43:52.000Z</time>
      </trkpt>
      <trkpt lat="42.70254" lon="1.14989">
        <ele>2119.6000976562</ele>
        <time>2023-07-26T10:43:56.000Z</time>
      </trkpt>
      <trkpt lat="42.70254" lon="1.14987">
        <ele>2119.3999023438</ele>
        <time>2023-07-26T10:43:58.000Z</time>
      </trkpt>
      <trkpt lat="42.70255" lon="1.14981">
        <ele>2118.1999511719</ele>
        <time>2023-07-26T10:44:03.000Z</time>
      </trkpt>
      <trkpt lat="42.70255" lon="1.1498">
        <ele>2118</ele>
        <time>2023-07-26T10:44:04.000Z</time>
      </trkpt>
      <trkpt lat="42.70254" lon="1.14977">
        <ele>2117</ele>
        <time>2023-07-26T10:44:07.000Z</time>
      </trkpt>
      <trkpt lat="42.70253" lon="1.14974">
        <ele>2116</ele>
        <time>2023-07-26T10:44:11.000Z</time>
      </trkpt>
      <trkpt lat="42.70253" lon="1.14973">
        <ele>2115.8000488281</ele>
        <time>2023-07-26T10:44:12.000Z</time>
      </trkpt>
      <trkpt lat="42.70253" lon="1.14969">
        <ele>2115</ele>
        <time>2023-07-26T10:44:16.000Z</time>
      </trkpt>
      <trkpt lat="42.70255" lon="1.14966">
        <ele>2114.3999023438</ele>
        <time>2023-07-26T10:44:20.000Z</time>
      </trkpt>
      <trkpt lat="42.70258" lon="1.1496">
        <ele>2113.8000488281</ele>
        <time>2023-07-26T10:44:29.000Z</time>
      </trkpt>
      <trkpt lat="42.7026" lon="1.14951">
        <ele>2112.8000488281</ele>
        <time>2023-07-26T10:44:38.000Z</time>
      </trkpt>
      <trkpt lat="42.70261" lon="1.14951">
        <ele>2112.8000488281</ele>
        <time>2023-07-26T10:44:39.000Z</time>
      </trkpt>
      <trkpt lat="42.70262" lon="1.1495">
        <ele>2111.8000488281</ele>
        <time>2023-07-26T10:44:45.000Z</time>
      </trkpt>
      <trkpt lat="42.70263" lon="1.1495">
        <ele>2111.3999023438</ele>
        <time>2023-07-26T10:44:47.000Z</time>
      </trkpt>
      <trkpt lat="42.70265" lon="1.14948">
        <ele>2110.6000976562</ele>
        <time>2023-07-26T10:44:52.000Z</time>
      </trkpt>
      <trkpt lat="42.70266" lon="1.14946">
        <ele>2110.3999023438</ele>
        <time>2023-07-26T10:44:54.000Z</time>
      </trkpt>
      <trkpt lat="42.70268" lon="1.14943">
        <ele>2109.8000488281</ele>
        <time>2023-07-26T10:45:01.000Z</time>
      </trkpt>
      <trkpt lat="42.70269" lon="1.1494">
        <ele>2109.3999023438</ele>
        <time>2023-07-26T10:45:04.000Z</time>
      </trkpt>
      <trkpt lat="42.7027" lon="1.14937">
        <ele>2109</ele>
        <time>2023-07-26T10:45:08.000Z</time>
      </trkpt>
      <trkpt lat="42.70272" lon="1.14934">
        <ele>2108.1999511719</ele>
        <time>2023-07-26T10:45:15.000Z</time>
      </trkpt>
      <trkpt lat="42.70272" lon="1.14933">
        <ele>2108</ele>
        <time>2023-07-26T10:45:16.000Z</time>
      </trkpt>
      <trkpt lat="42.70273" lon="1.14929">
        <ele>2107</ele>
        <time>2023-07-26T10:45:23.000Z</time>
      </trkpt>
      <trkpt lat="42.70274" lon="1.14928">
        <ele>2106.8000488281</ele>
        <time>2023-07-26T10:45:25.000Z</time>
      </trkpt>
      <trkpt lat="42.70276" lon="1.14927">
        <ele>2106</ele>
        <time>2023-07-26T10:45:30.000Z</time>
      </trkpt>
      <trkpt lat="42.70276" lon="1.14925">
        <ele>2105.3999023438</ele>
        <time>2023-07-26T10:45:34.000Z</time>
      </trkpt>
      <trkpt lat="42.70277" lon="1.14921">
        <ele>2105</ele>
        <time>2023-07-26T10:45:40.000Z</time>
      </trkpt>
      <trkpt lat="42.70277" lon="1.14921">
        <ele>2104.6000976562</ele>
        <time>2023-07-26T10:45:43.000Z</time>
      </trkpt>
      <trkpt lat="42.70274" lon="1.14919">
        <ele>2103.8000488281</ele>
        <time>2023-07-26T10:45:50.000Z</time>
      </trkpt>
      <trkpt lat="42.70273" lon="1.14921">
        <ele>2103.6000976562</ele>
        <time>2023-07-26T10:45:58.000Z</time>
      </trkpt>
      <trkpt lat="42.70273" lon="1.1492">
        <ele>2103.8000488281</ele>
        <time>2023-07-26T10:46:08.000Z</time>
      </trkpt>
      <trkpt lat="42.70277" lon="1.14917">
        <ele>2102.8000488281</ele>
        <time>2023-07-26T10:46:17.000Z</time>
      </trkpt>
      <trkpt lat="42.7028" lon="1.14912">
        <ele>2102.1999511719</ele>
        <time>2023-07-26T10:46:22.000Z</time>
      </trkpt>
      <trkpt lat="42.70281" lon="1.14911">
        <ele>2101.6000976562</ele>
        <time>2023-07-26T10:46:27.000Z</time>
      </trkpt>
      <trkpt lat="42.70281" lon="1.14911">
        <ele>2101.6000976562</ele>
        <time>2023-07-26T10:46:29.000Z</time>
      </trkpt>
      <trkpt lat="42.70281" lon="1.14906">
        <ele>2100.6000976562</ele>
        <time>2023-07-26T10:46:34.000Z</time>
      </trkpt>
      <trkpt lat="42.70281" lon="1.14904">
        <ele>2100</ele>
        <time>2023-07-26T10:46:38.000Z</time>
      </trkpt>
      <trkpt lat="42.70279" lon="1.14901">
        <ele>2099.6000976562</ele>
        <time>2023-07-26T10:46:42.000Z</time>
      </trkpt>
      <trkpt lat="42.70279" lon="1.14899">
        <ele>2099.1999511719</ele>
        <time>2023-07-26T10:46:45.000Z</time>
      </trkpt>
      <trkpt lat="42.70279" lon="1.14898">
        <ele>2098.6000976562</ele>
        <time>2023-07-26T10:46:48.000Z</time>
      </trkpt>
      <trkpt lat="42.70279" lon="1.14894">
        <ele>2097.6000976562</ele>
        <time>2023-07-26T10:46:54.000Z</time>
      </trkpt>
      <trkpt lat="42.70281" lon="1.14891">
        <ele>2096.3999023438</ele>
        <time>2023-07-26T10:47:00.000Z</time>
      </trkpt>
      <trkpt lat="42.70282" lon="1.1489">
        <ele>2096</ele>
        <time>2023-07-26T10:47:02.000Z</time>
      </trkpt>
      <trkpt lat="42.70283" lon="1.14886">
        <ele>2095.3999023438</ele>
        <time>2023-07-26T10:47:06.000Z</time>
      </trkpt>
      <trkpt lat="42.70284" lon="1.14882">
        <ele>2094.1999511719</ele>
        <time>2023-07-26T10:47:12.000Z</time>
      </trkpt>
      <trkpt lat="42.70284" lon="1.14879">
        <ele>2093.1999511719</ele>
        <time>2023-07-26T10:47:17.000Z</time>
      </trkpt>
      <trkpt lat="42.70286" lon="1.14875">
        <ele>2092.6000976562</ele>
        <time>2023-07-26T10:47:21.000Z</time>
      </trkpt>
      <trkpt lat="42.70286" lon="1.14873">
        <ele>2092.1999511719</ele>
        <time>2023-07-26T10:47:23.000Z</time>
      </trkpt>
      <trkpt lat="42.70287" lon="1.14869">
        <ele>2091.1999511719</ele>
        <time>2023-07-26T10:47:30.000Z</time>
      </trkpt>
      <trkpt lat="42.70288" lon="1.14865">
        <ele>2090.1999511719</ele>
        <time>2023-07-26T10:47:35.000Z</time>
      </trkpt>
      <trkpt lat="42.70288" lon="1.14864">
        <ele>2089.8000488281</ele>
        <time>2023-07-26T10:47:37.000Z</time>
      </trkpt>
      <trkpt lat="42.70289" lon="1.14862">
        <ele>2089.1999511719</ele>
        <time>2023-07-26T10:47:42.000Z</time>
      </trkpt>
      <trkpt lat="42.7029" lon="1.14861">
        <ele>2088.6000976562</ele>
        <time>2023-07-26T10:47:45.000Z</time>
      </trkpt>
      <trkpt lat="42.70292" lon="1.14856">
        <ele>2088</ele>
        <time>2023-07-26T10:47:49.000Z</time>
      </trkpt>
      <trkpt lat="42.70293" lon="1.14848">
        <ele>2087.1999511719</ele>
        <time>2023-07-26T10:47:54.000Z</time>
      </trkpt>
      <trkpt lat="42.70293" lon="1.14846">
        <ele>2087</ele>
        <time>2023-07-26T10:47:55.000Z</time>
      </trkpt>
      <trkpt lat="42.70292" lon="1.14843">
        <ele>2086.6000976562</ele>
        <time>2023-07-26T10:47:59.000Z</time>
      </trkpt>
      <trkpt lat="42.70294" lon="1.14837">
        <ele>2086</ele>
        <time>2023-07-26T10:48:05.000Z</time>
      </trkpt>
      <trkpt lat="42.70295" lon="1.14837">
        <ele>2085.8000488281</ele>
        <time>2023-07-26T10:48:06.000Z</time>
      </trkpt>
      <trkpt lat="42.70299" lon="1.14833">
        <ele>2085</ele>
        <time>2023-07-26T10:48:12.000Z</time>
      </trkpt>
      <trkpt lat="42.70304" lon="1.14831">
        <ele>2084</ele>
        <time>2023-07-26T10:48:16.000Z</time>
      </trkpt>
      <trkpt lat="42.70305" lon="1.1483">
        <ele>2083.8000488281</ele>
        <time>2023-07-26T10:48:17.000Z</time>
      </trkpt>
      <trkpt lat="42.70309" lon="1.14828">
        <ele>2082.6000976562</ele>
        <time>2023-07-26T10:48:23.000Z</time>
      </trkpt>
      <trkpt lat="42.70311" lon="1.14827">
        <ele>2082.3999023438</ele>
        <time>2023-07-26T10:48:25.000Z</time>
      </trkpt>
      <trkpt lat="42.70314" lon="1.14825">
        <ele>2081.8000488281</ele>
        <time>2023-07-26T10:48:32.000Z</time>
      </trkpt>
      <trkpt lat="42.70316" lon="1.14825">
        <ele>2081.6000976562</ele>
        <time>2023-07-26T10:48:34.000Z</time>
      </trkpt>
      <trkpt lat="42.70318" lon="1.14823">
        <ele>2080.3999023438</ele>
        <time>2023-07-26T10:48:40.000Z</time>
      </trkpt>
      <trkpt lat="42.70327" lon="1.14825">
        <ele>2078.3999023438</ele>
        <time>2023-07-26T10:48:50.000Z</time>
      </trkpt>
      <trkpt lat="42.70329" lon="1.14824">
        <ele>2078.1999511719</ele>
        <time>2023-07-26T10:48:51.000Z</time>
      </trkpt>
      <trkpt lat="42.70333" lon="1.14821">
        <ele>2078</ele>
        <time>2023-07-26T10:48:56.000Z</time>
      </trkpt>
      <trkpt lat="42.70339" lon="1.14812">
        <ele>2077.6000976562</ele>
        <time>2023-07-26T10:49:03.000Z</time>
      </trkpt>
      <trkpt lat="42.70343" lon="1.14802">
        <ele>2077</ele>
        <time>2023-07-26T10:49:08.000Z</time>
      </trkpt>
      <trkpt lat="42.70343" lon="1.14801">
        <ele>2077</ele>
        <time>2023-07-26T10:49:09.000Z</time>
      </trkpt>
      <trkpt lat="42.70346" lon="1.14794">
        <ele>2077.1999511719</ele>
        <time>2023-07-26T10:49:17.000Z</time>
      </trkpt>
      <trkpt lat="42.70347" lon="1.14786">
        <ele>2076.8000488281</ele>
        <time>2023-07-26T10:49:23.000Z</time>
      </trkpt>
      <trkpt lat="42.70353" lon="1.14783">
        <ele>2076</ele>
        <time>2023-07-26T10:49:31.000Z</time>
      </trkpt>
      <trkpt lat="42.70354" lon="1.14782">
        <ele>2076</ele>
        <time>2023-07-26T10:49:32.000Z</time>
      </trkpt>
      <trkpt lat="42.70362" lon="1.1478">
        <ele>2075</ele>
        <time>2023-07-26T10:49:40.000Z</time>
      </trkpt>
      <trkpt lat="42.70366" lon="1.14778">
        <ele>2074</ele>
        <time>2023-07-26T10:49:47.000Z</time>
      </trkpt>
      <trkpt lat="42.70369" lon="1.14774">
        <ele>2072.8000488281</ele>
        <time>2023-07-26T10:49:53.000Z</time>
      </trkpt>
      <trkpt lat="42.70369" lon="1.14773">
        <ele>2072.6000976562</ele>
        <time>2023-07-26T10:49:54.000Z</time>
      </trkpt>
      <trkpt lat="42.70369" lon="1.1477">
        <ele>2071.8000488281</ele>
        <time>2023-07-26T10:49:59.000Z</time>
      </trkpt>
      <trkpt lat="42.70369" lon="1.1477">
        <ele>2071.1999511719</ele>
        <time>2023-07-26T10:50:02.000Z</time>
      </trkpt>
      <trkpt lat="42.7037" lon="1.14769">
        <ele>2070.6000976562</ele>
        <time>2023-07-26T10:50:05.000Z</time>
      </trkpt>
      <trkpt lat="42.70372" lon="1.14767">
        <ele>2069.6000976562</ele>
        <time>2023-07-26T10:50:09.000Z</time>
      </trkpt>
      <trkpt lat="42.70376" lon="1.14765">
        <ele>2068.6000976562</ele>
        <time>2023-07-26T10:50:14.000Z</time>
      </trkpt>
      <trkpt lat="42.70376" lon="1.14766">
        <ele>2068.1999511719</ele>
        <time>2023-07-26T10:50:16.000Z</time>
      </trkpt>
      <trkpt lat="42.70376" lon="1.14767">
        <ele>2067.6000976562</ele>
        <time>2023-07-26T10:50:20.000Z</time>
      </trkpt>
      <trkpt lat="42.70378" lon="1.14767">
        <ele>2066.3999023438</ele>
        <time>2023-07-26T10:50:25.000Z</time>
      </trkpt>
      <trkpt lat="42.70378" lon="1.14766">
        <ele>2065.3999023438</ele>
        <time>2023-07-26T10:50:33.000Z</time>
      </trkpt>
      <trkpt lat="42.70378" lon="1.14766">
        <ele>2065.3999023438</ele>
        <time>2023-07-26T10:50:35.000Z</time>
      </trkpt>
      <trkpt lat="42.70379" lon="1.14769">
        <ele>2064.3999023438</ele>
        <time>2023-07-26T10:50:42.000Z</time>
      </trkpt>
      <trkpt lat="42.70378" lon="1.14769">
        <ele>2064.3999023438</ele>
        <time>2023-07-26T10:50:43.000Z</time>
      </trkpt>
      <trkpt lat="42.70379" lon="1.14763">
        <ele>2063.8000488281</ele>
        <time>2023-07-26T10:50:48.000Z</time>
      </trkpt>
      <trkpt lat="42.70379" lon="1.14763">
        <ele>2063.3999023438</ele>
        <time>2023-07-26T10:50:51.000Z</time>
      </trkpt>
      <trkpt lat="42.70379" lon="1.14763">
        <ele>2063</ele>
        <time>2023-07-26T10:50:54.000Z</time>
      </trkpt>
      <trkpt lat="42.70382" lon="1.14763">
        <ele>2062.3999023438</ele>
        <time>2023-07-26T10:50:58.000Z</time>
      </trkpt>
      <trkpt lat="42.70385" lon="1.14763">
        <ele>2062</ele>
        <time>2023-07-26T10:51:01.000Z</time>
      </trkpt>
      <trkpt lat="42.70389" lon="1.14764">
        <ele>2061.1999511719</ele>
        <time>2023-07-26T10:51:06.000Z</time>
      </trkpt>
      <trkpt lat="42.7039" lon="1.14767">
        <ele>2060.6000976562</ele>
        <time>2023-07-26T10:51:09.000Z</time>
      </trkpt>
      <trkpt lat="42.7039" lon="1.14767">
        <ele>2060</ele>
        <time>2023-07-26T10:51:12.000Z</time>
      </trkpt>
      <trkpt lat="42.70391" lon="1.14771">
        <ele>2059.1999511719</ele>
        <time>2023-07-26T10:51:17.000Z</time>
      </trkpt>
      <trkpt lat="42.70392" lon="1.14773">
        <ele>2058.8000488281</ele>
        <time>2023-07-26T10:51:19.000Z</time>
      </trkpt>
      <trkpt lat="42.70394" lon="1.14775">
        <ele>2058.1999511719</ele>
        <time>2023-07-26T10:51:23.000Z</time>
      </trkpt>
      <trkpt lat="42.70397" lon="1.14776">
        <ele>2057.8000488281</ele>
        <time>2023-07-26T10:51:26.000Z</time>
      </trkpt>
      <trkpt lat="42.70396" lon="1.14772">
        <ele>2057.1999511719</ele>
        <time>2023-07-26T10:51:30.000Z</time>
      </trkpt>
      <trkpt lat="42.70395" lon="1.14773">
        <ele>2056.8000488281</ele>
        <time>2023-07-26T10:51:34.000Z</time>
      </trkpt>
      <trkpt lat="42.70395" lon="1.14773">
        <ele>2056.1999511719</ele>
        <time>2023-07-26T10:51:37.000Z</time>
      </trkpt>
      <trkpt lat="42.70393" lon="1.14771">
        <ele>2055.6000976562</ele>
        <time>2023-07-26T10:51:41.000Z</time>
      </trkpt>
      <trkpt lat="42.70392" lon="1.1477">
        <ele>2054.8000488281</ele>
        <time>2023-07-26T10:51:45.000Z</time>
      </trkpt>
      <trkpt lat="42.70391" lon="1.14769">
        <ele>2054.6000976562</ele>
        <time>2023-07-26T10:51:46.000Z</time>
      </trkpt>
      <trkpt lat="42.70393" lon="1.14765">
        <ele>2053.8000488281</ele>
        <time>2023-07-26T10:51:53.000Z</time>
      </trkpt>
      <trkpt lat="42.70393" lon="1.14763">
        <ele>2053.1999511719</ele>
        <time>2023-07-26T10:51:55.000Z</time>
      </trkpt>
      <trkpt lat="42.70394" lon="1.1476">
        <ele>2052.6000976562</ele>
        <time>2023-07-26T10:52:00.000Z</time>
      </trkpt>
      <trkpt lat="42.70394" lon="1.14759">
        <ele>2052.1999511719</ele>
        <time>2023-07-26T10:52:02.000Z</time>
      </trkpt>
      <trkpt lat="42.70394" lon="1.14756">
        <ele>2051.6000976562</ele>
        <time>2023-07-26T10:52:07.000Z</time>
      </trkpt>
      <trkpt lat="42.70393" lon="1.14754">
        <ele>2051.1999511719</ele>
        <time>2023-07-26T10:52:15.000Z</time>
      </trkpt>
      <trkpt lat="42.70393" lon="1.14754">
        <ele>2051.1999511719</ele>
        <time>2023-07-26T10:52:16.000Z</time>
      </trkpt>
      <trkpt lat="42.70393" lon="1.14752">
        <ele>2050.3999023438</ele>
        <time>2023-07-26T10:52:21.000Z</time>
      </trkpt>
      <trkpt lat="42.70393" lon="1.14751">
        <ele>2050</ele>
        <time>2023-07-26T10:52:23.000Z</time>
      </trkpt>
      <trkpt lat="42.70394" lon="1.14749">
        <ele>2049</ele>
        <time>2023-07-26T10:52:29.000Z</time>
      </trkpt>
      <trkpt lat="42.70395" lon="1.1475">
        <ele>2048</ele>
        <time>2023-07-26T10:52:33.000Z</time>
      </trkpt>
      <trkpt lat="42.70396" lon="1.1475">
        <ele>2047.5999755859</ele>
        <time>2023-07-26T10:52:38.000Z</time>
      </trkpt>
      <trkpt lat="42.70394" lon="1.14747">
        <ele>2047.5999755859</ele>
        <time>2023-07-26T10:52:45.000Z</time>
      </trkpt>
      <trkpt lat="42.70395" lon="1.14746">
        <ele>2047</ele>
        <time>2023-07-26T10:52:51.000Z</time>
      </trkpt>
      <trkpt lat="42.70394" lon="1.14746">
        <ele>2047</ele>
        <time>2023-07-26T10:52:53.000Z</time>
      </trkpt>
      <trkpt lat="42.70397" lon="1.14743">
        <ele>2046.1999511719</ele>
        <time>2023-07-26T10:52:59.000Z</time>
      </trkpt>
      <trkpt lat="42.70398" lon="1.14741">
        <ele>2046</ele>
        <time>2023-07-26T10:53:06.000Z</time>
      </trkpt>
      <trkpt lat="42.70396" lon="1.1474">
        <ele>2046.1999511719</ele>
        <time>2023-07-26T10:53:14.000Z</time>
      </trkpt>
      <trkpt lat="42.70394" lon="1.14739">
        <ele>2045.8000488281</ele>
        <time>2023-07-26T10:53:20.000Z</time>
      </trkpt>
      <trkpt lat="42.70394" lon="1.14739">
        <ele>2045.8000488281</ele>
        <time>2023-07-26T10:53:21.000Z</time>
      </trkpt>
      <trkpt lat="42.70395" lon="1.14741">
        <ele>2046</ele>
        <time>2023-07-26T10:53:29.000Z</time>
      </trkpt>
      <trkpt lat="42.70395" lon="1.14744">
        <ele>2046</ele>
        <time>2023-07-26T10:53:37.000Z</time>
      </trkpt>
      <trkpt lat="42.70397" lon="1.14743">
        <ele>2045.8000488281</ele>
        <time>2023-07-26T10:53:45.000Z</time>
      </trkpt>
      <trkpt lat="42.70396" lon="1.14743">
        <ele>2045.8000488281</ele>
        <time>2023-07-26T10:53:53.000Z</time>
      </trkpt>
      <trkpt lat="42.70396" lon="1.14739">
        <ele>2045.8000488281</ele>
        <time>2023-07-26T10:54:00.000Z</time>
      </trkpt>
      <trkpt lat="42.70392" lon="1.14739">
        <ele>2044.8000488281</ele>
        <time>2023-07-26T10:54:09.000Z</time>
      </trkpt>
      <trkpt lat="42.70392" lon="1.14739">
        <ele>2044.8000488281</ele>
        <time>2023-07-26T10:54:12.000Z</time>
      </trkpt>
      <trkpt lat="42.70393" lon="1.14741">
        <ele>2044.5999755859</ele>
        <time>2023-07-26T10:54:17.000Z</time>
      </trkpt>
      <trkpt lat="42.70395" lon="1.1474">
        <ele>2044.5999755859</ele>
        <time>2023-07-26T10:54:24.000Z</time>
      </trkpt>
      <trkpt lat="42.70396" lon="1.14742">
        <ele>2045.1999511719</ele>
        <time>2023-07-26T10:54:31.000Z</time>
      </trkpt>
      <trkpt lat="42.70396" lon="1.14749">
        <ele>2045.5999755859</ele>
        <time>2023-07-26T10:54:39.000Z</time>
      </trkpt>
      <trkpt lat="42.70397" lon="1.14748">
        <ele>2046</ele>
        <time>2023-07-26T10:54:41.000Z</time>
      </trkpt>
      <trkpt lat="42.704" lon="1.1475">
        <ele>2047</ele>
        <time>2023-07-26T10:54:46.000Z</time>
      </trkpt>
      <trkpt lat="42.70402" lon="1.14756">
        <ele>2046</ele>
        <time>2023-07-26T10:54:54.000Z</time>
      </trkpt>
      <trkpt lat="42.70402" lon="1.14758">
        <ele>2046</ele>
        <time>2023-07-26T10:55:00.000Z</time>
      </trkpt>
      <trkpt lat="42.70404" lon="1.14764">
        <ele>2045.1999511719</ele>
        <time>2023-07-26T10:55:07.000Z</time>
      </trkpt>
      <trkpt lat="42.70405" lon="1.14764">
        <ele>2044.8000488281</ele>
        <time>2023-07-26T10:55:11.000Z</time>
      </trkpt>
      <trkpt lat="42.70406" lon="1.14764">
        <ele>2044.1999511719</ele>
        <time>2023-07-26T10:55:15.000Z</time>
      </trkpt>
      <trkpt lat="42.70406" lon="1.14766">
        <ele>2043.8000488281</ele>
        <time>2023-07-26T10:55:18.000Z</time>
      </trkpt>
      <trkpt lat="42.70408" lon="1.14767">
        <ele>2043</ele>
        <time>2023-07-26T10:55:23.000Z</time>
      </trkpt>
      <trkpt lat="42.70407" lon="1.14767">
        <ele>2042.8000488281</ele>
        <time>2023-07-26T10:55:24.000Z</time>
      </trkpt>
      <trkpt lat="42.70411" lon="1.14768">
        <ele>2041.5999755859</ele>
        <time>2023-07-26T10:55:30.000Z</time>
      </trkpt>
      <trkpt lat="42.7041" lon="1.14768">
        <ele>2041.1999511719</ele>
        <time>2023-07-26T10:55:31.000Z</time>
      </trkpt>
      <trkpt lat="42.70412" lon="1.14767">
        <ele>2040.5999755859</ele>
        <time>2023-07-26T10:55:35.000Z</time>
      </trkpt>
      <trkpt lat="42.70414" lon="1.14765">
        <ele>2040.1999511719</ele>
        <time>2023-07-26T10:55:38.000Z</time>
      </trkpt>
      <trkpt lat="42.70415" lon="1.14763">
        <ele>2039.4000244141</ele>
        <time>2023-07-26T10:55:43.000Z</time>
      </trkpt>
      <trkpt lat="42.70414" lon="1.14763">
        <ele>2039</ele>
        <time>2023-07-26T10:55:45.000Z</time>
      </trkpt>
      <trkpt lat="42.70415" lon="1.1476">
        <ele>2038.4000244141</ele>
        <time>2023-07-26T10:55:52.000Z</time>
      </trkpt>
      <trkpt lat="42.70417" lon="1.14757">
        <ele>2037.1999511719</ele>
        <time>2023-07-26T10:55:56.000Z</time>
      </trkpt>
      <trkpt lat="42.70418" lon="1.14757">
        <ele>2036.4000244141</ele>
        <time>2023-07-26T10:55:59.000Z</time>
      </trkpt>
      <trkpt lat="42.70418" lon="1.14757">
        <ele>2036</ele>
        <time>2023-07-26T10:56:01.000Z</time>
      </trkpt>
      <trkpt lat="42.70417" lon="1.14755">
        <ele>2035.4000244141</ele>
        <time>2023-07-26T10:56:07.000Z</time>
      </trkpt>
      <trkpt lat="42.70416" lon="1.14752">
        <ele>2035</ele>
        <time>2023-07-26T10:56:13.000Z</time>
      </trkpt>
      <trkpt lat="42.70416" lon="1.14751">
        <ele>2034.8000488281</ele>
        <time>2023-07-26T10:56:14.000Z</time>
      </trkpt>
      <trkpt lat="42.70417" lon="1.14748">
        <ele>2033.8000488281</ele>
        <time>2023-07-26T10:56:21.000Z</time>
      </trkpt>
      <trkpt lat="42.70417" lon="1.14747">
        <ele>2033.8000488281</ele>
        <time>2023-07-26T10:56:22.000Z</time>
      </trkpt>
      <trkpt lat="42.70419" lon="1.14746">
        <ele>2032.8000488281</ele>
        <time>2023-07-26T10:56:27.000Z</time>
      </trkpt>
      <trkpt lat="42.70421" lon="1.14748">
        <ele>2032.4000244141</ele>
        <time>2023-07-26T10:56:30.000Z</time>
      </trkpt>
      <trkpt lat="42.70423" lon="1.14749">
        <ele>2030.5999755859</ele>
        <time>2023-07-26T10:56:40.000Z</time>
      </trkpt>
      <trkpt lat="42.70423" lon="1.14748">
        <ele>2030.4000244141</ele>
        <time>2023-07-26T10:56:41.000Z</time>
      </trkpt>
      <trkpt lat="42.70423" lon="1.14748">
        <ele>2028.5999755859</ele>
        <time>2023-07-26T10:56:53.000Z</time>
      </trkpt>
      <trkpt lat="42.70425" lon="1.1475">
        <ele>2027.1999511719</ele>
        <time>2023-07-26T10:57:00.000Z</time>
      </trkpt>
      <trkpt lat="42.70426" lon="1.14751">
        <ele>2026.5999755859</ele>
        <time>2023-07-26T10:57:04.000Z</time>
      </trkpt>
      <trkpt lat="42.70427" lon="1.14751">
        <ele>2026.1999511719</ele>
        <time>2023-07-26T10:57:06.000Z</time>
      </trkpt>
      <trkpt lat="42.70432" lon="1.14754">
        <ele>2025</ele>
        <time>2023-07-26T10:57:10.000Z</time>
      </trkpt>
      <trkpt lat="42.70433" lon="1.14756">
        <ele>2024.5999755859</ele>
        <time>2023-07-26T10:57:12.000Z</time>
      </trkpt>
      <trkpt lat="42.70434" lon="1.14756">
        <ele>2023.8000488281</ele>
        <time>2023-07-26T10:57:15.000Z</time>
      </trkpt>
      <trkpt lat="42.70434" lon="1.14755">
        <ele>2023.1999511719</ele>
        <time>2023-07-26T10:57:19.000Z</time>
      </trkpt>
      <trkpt lat="42.70435" lon="1.14756">
        <ele>2022.8000488281</ele>
        <time>2023-07-26T10:57:21.000Z</time>
      </trkpt>
      <trkpt lat="42.70434" lon="1.14758">
        <ele>2021.5999755859</ele>
        <time>2023-07-26T10:57:26.000Z</time>
      </trkpt>
      <trkpt lat="42.70434" lon="1.14758">
        <ele>2021.4000244141</ele>
        <time>2023-07-26T10:57:27.000Z</time>
      </trkpt>
      <trkpt lat="42.70434" lon="1.14762">
        <ele>2021.1999511719</ele>
        <time>2023-07-26T10:57:34.000Z</time>
      </trkpt>
      <trkpt lat="42.70435" lon="1.14759">
        <ele>2021.4000244141</ele>
        <time>2023-07-26T10:57:40.000Z</time>
      </trkpt>
      <trkpt lat="42.70438" lon="1.14762">
        <ele>2020.8000488281</ele>
        <time>2023-07-26T10:57:48.000Z</time>
      </trkpt>
      <trkpt lat="42.70437" lon="1.14761">
        <ele>2020.4000244141</ele>
        <time>2023-07-26T10:57:50.000Z</time>
      </trkpt>
      <trkpt lat="42.70439" lon="1.14762">
        <ele>2019.4000244141</ele>
        <time>2023-07-26T10:57:54.000Z</time>
      </trkpt>
      <trkpt lat="42.70443" lon="1.14763">
        <ele>2018.5999755859</ele>
        <time>2023-07-26T10:57:58.000Z</time>
      </trkpt>
      <trkpt lat="42.70444" lon="1.14765">
        <ele>2018.1999511719</ele>
        <time>2023-07-26T10:58:01.000Z</time>
      </trkpt>
      <trkpt lat="42.70445" lon="1.14766">
        <ele>2017.4000244141</ele>
        <time>2023-07-26T10:58:06.000Z</time>
      </trkpt>
      <trkpt lat="42.70447" lon="1.14767">
        <ele>2017</ele>
        <time>2023-07-26T10:58:08.000Z</time>
      </trkpt>
      <trkpt lat="42.70446" lon="1.14765">
        <ele>2016.1999511719</ele>
        <time>2023-07-26T10:58:13.000Z</time>
      </trkpt>
      <trkpt lat="42.70446" lon="1.14766">
        <ele>2016</ele>
        <time>2023-07-26T10:58:15.000Z</time>
      </trkpt>
      <trkpt lat="42.70447" lon="1.14768">
        <ele>2015</ele>
        <time>2023-07-26T10:58:20.000Z</time>
      </trkpt>
      <trkpt lat="42.7045" lon="1.14771">
        <ele>2014.5999755859</ele>
        <time>2023-07-26T10:58:23.000Z</time>
      </trkpt>
      <trkpt lat="42.70451" lon="1.14771">
        <ele>2013.8000488281</ele>
        <time>2023-07-26T10:58:28.000Z</time>
      </trkpt>
      <trkpt lat="42.70452" lon="1.14773">
        <ele>2013.4000244141</ele>
        <time>2023-07-26T10:58:30.000Z</time>
      </trkpt>
      <trkpt lat="42.70452" lon="1.14776">
        <ele>2012.5999755859</ele>
        <time>2023-07-26T10:58:33.000Z</time>
      </trkpt>
      <trkpt lat="42.70453" lon="1.14782">
        <ele>2011.5999755859</ele>
        <time>2023-07-26T10:58:38.000Z</time>
      </trkpt>
      <trkpt lat="42.70453" lon="1.14781">
        <ele>2011.4000244141</ele>
        <time>2023-07-26T10:58:39.000Z</time>
      </trkpt>
      <trkpt lat="42.70454" lon="1.14777">
        <ele>2010.8000488281</ele>
        <time>2023-07-26T10:58:44.000Z</time>
      </trkpt>
      <trkpt lat="42.70455" lon="1.14775">
        <ele>2010.4000244141</ele>
        <time>2023-07-26T10:58:46.000Z</time>
      </trkpt>
      <trkpt lat="42.70458" lon="1.14773">
        <ele>2009.1999511719</ele>
        <time>2023-07-26T10:58:52.000Z</time>
      </trkpt>
      <trkpt lat="42.70464" lon="1.14774">
        <ele>2007</ele>
        <time>2023-07-26T10:59:05.000Z</time>
      </trkpt>
      <trkpt lat="42.70464" lon="1.14772">
        <ele>2006</ele>
        <time>2023-07-26T10:59:11.000Z</time>
      </trkpt>
      <trkpt lat="42.70465" lon="1.14771">
        <ele>2005.5999755859</ele>
        <time>2023-07-26T10:59:13.000Z</time>
      </trkpt>
      <trkpt lat="42.70468" lon="1.1477">
        <ele>2004.8000488281</ele>
        <time>2023-07-26T10:59:17.000Z</time>
      </trkpt>
      <trkpt lat="42.70469" lon="1.14773">
        <ele>2004</ele>
        <time>2023-07-26T10:59:22.000Z</time>
      </trkpt>
      <trkpt lat="42.70469" lon="1.14774">
        <ele>2003.5999755859</ele>
        <time>2023-07-26T10:59:24.000Z</time>
      </trkpt>
      <trkpt lat="42.70468" lon="1.14777">
        <ele>2002.4000244141</ele>
        <time>2023-07-26T10:59:31.000Z</time>
      </trkpt>
      <trkpt lat="42.70472" lon="1.14778">
        <ele>2001.1999511719</ele>
        <time>2023-07-26T10:59:37.000Z</time>
      </trkpt>
      <trkpt lat="42.70472" lon="1.14777">
        <ele>2001</ele>
        <time>2023-07-26T10:59:39.000Z</time>
      </trkpt>
      <trkpt lat="42.70473" lon="1.14777">
        <ele>2000</ele>
        <time>2023-07-26T10:59:44.000Z</time>
      </trkpt>
      <trkpt lat="42.70473" lon="1.14778">
        <ele>1999.4000244141</ele>
        <time>2023-07-26T10:59:46.000Z</time>
      </trkpt>
      <trkpt lat="42.70474" lon="1.14781">
        <ele>1999</ele>
        <time>2023-07-26T10:59:49.000Z</time>
      </trkpt>
      <trkpt lat="42.70478" lon="1.14783">
        <ele>1998.4000244141</ele>
        <time>2023-07-26T10:59:53.000Z</time>
      </trkpt>
      <trkpt lat="42.7048" lon="1.14783">
        <ele>1998.1999511719</ele>
        <time>2023-07-26T10:59:55.000Z</time>
      </trkpt>
      <trkpt lat="42.70481" lon="1.14782">
        <ele>1998</ele>
        <time>2023-07-26T10:59:57.000Z</time>
      </trkpt>
      <trkpt lat="42.70482" lon="1.14777">
        <ele>1996.8000488281</ele>
        <time>2023-07-26T11:00:03.000Z</time>
      </trkpt>
      <trkpt lat="42.70484" lon="1.14772">
        <ele>1995.8000488281</ele>
        <time>2023-07-26T11:00:09.000Z</time>
      </trkpt>
      <trkpt lat="42.70484" lon="1.14773">
        <ele>1995.5999755859</ele>
        <time>2023-07-26T11:00:11.000Z</time>
      </trkpt>
      <trkpt lat="42.70485" lon="1.14773">
        <ele>1994.5999755859</ele>
        <time>2023-07-26T11:00:15.000Z</time>
      </trkpt>
      <trkpt lat="42.70488" lon="1.14775">
        <ele>1993.8000488281</ele>
        <time>2023-07-26T11:00:20.000Z</time>
      </trkpt>
      <trkpt lat="42.70489" lon="1.14775">
        <ele>1993.4000244141</ele>
        <time>2023-07-26T11:00:22.000Z</time>
      </trkpt>
      <trkpt lat="42.70488" lon="1.14773">
        <ele>1992.8000488281</ele>
        <time>2023-07-26T11:00:27.000Z</time>
      </trkpt>
      <trkpt lat="42.70489" lon="1.14772">
        <ele>1992.4000244141</ele>
        <time>2023-07-26T11:00:31.000Z</time>
      </trkpt>
      <trkpt lat="42.7049" lon="1.14774">
        <ele>1991.4000244141</ele>
        <time>2023-07-26T11:00:35.000Z</time>
      </trkpt>
      <trkpt lat="42.7049" lon="1.14772">
        <ele>1991.4000244141</ele>
        <time>2023-07-26T11:00:36.000Z</time>
      </trkpt>
      <trkpt lat="42.70491" lon="1.14775">
        <ele>1990.4000244141</ele>
        <time>2023-07-26T11:00:40.000Z</time>
      </trkpt>
      <trkpt lat="42.70491" lon="1.14775">
        <ele>1990.1999511719</ele>
        <time>2023-07-26T11:00:41.000Z</time>
      </trkpt>
      <trkpt lat="42.70491" lon="1.14776">
        <ele>1989.5999755859</ele>
        <time>2023-07-26T11:00:46.000Z</time>
      </trkpt>
      <trkpt lat="42.7049" lon="1.14773">
        <ele>1989.4000244141</ele>
        <time>2023-07-26T11:00:54.000Z</time>
      </trkpt>
      <trkpt lat="42.70491" lon="1.14775">
        <ele>1989.5999755859</ele>
        <time>2023-07-26T11:01:01.000Z</time>
      </trkpt>
      <trkpt lat="42.70487" lon="1.14776">
        <ele>1989.8000488281</ele>
        <time>2023-07-26T11:01:12.000Z</time>
      </trkpt>
      <trkpt lat="42.70493" lon="1.14771">
        <ele>1989.4000244141</ele>
        <time>2023-07-26T11:01:20.000Z</time>
      </trkpt>
      <trkpt lat="42.70494" lon="1.1477">
        <ele>1989.1999511719</ele>
        <time>2023-07-26T11:01:21.000Z</time>
      </trkpt>
      <trkpt lat="42.70495" lon="1.14764">
        <ele>1988.1999511719</ele>
        <time>2023-07-26T11:01:28.000Z</time>
      </trkpt>
      <trkpt lat="42.70495" lon="1.14765">
        <ele>1987.8000488281</ele>
        <time>2023-07-26T11:01:30.000Z</time>
      </trkpt>
      <trkpt lat="42.70496" lon="1.14767">
        <ele>1987.1999511719</ele>
        <time>2023-07-26T11:01:33.000Z</time>
      </trkpt>
      <trkpt lat="42.70496" lon="1.14768">
        <ele>1987</ele>
        <time>2023-07-26T11:01:34.000Z</time>
      </trkpt>
      <trkpt lat="42.70498" lon="1.1477">
        <ele>1986</ele>
        <time>2023-07-26T11:01:39.000Z</time>
      </trkpt>
      <trkpt lat="42.70499" lon="1.14773">
        <ele>1985.5999755859</ele>
        <time>2023-07-26T11:01:42.000Z</time>
      </trkpt>
      <trkpt lat="42.70501" lon="1.14776">
        <ele>1985</ele>
        <time>2023-07-26T11:01:46.000Z</time>
      </trkpt>
      <trkpt lat="42.70503" lon="1.14776">
        <ele>1984.5999755859</ele>
        <time>2023-07-26T11:01:50.000Z</time>
      </trkpt>
      <trkpt lat="42.7051" lon="1.14778">
        <ele>1983</ele>
        <time>2023-07-26T11:02:01.000Z</time>
      </trkpt>
      <trkpt lat="42.7051" lon="1.14777">
        <ele>1982.8000488281</ele>
        <time>2023-07-26T11:02:02.000Z</time>
      </trkpt>
      <trkpt lat="42.70511" lon="1.14771">
        <ele>1982</ele>
        <time>2023-07-26T11:02:09.000Z</time>
      </trkpt>
      <trkpt lat="42.70512" lon="1.14771">
        <ele>1981.5999755859</ele>
        <time>2023-07-26T11:02:12.000Z</time>
      </trkpt>
      <trkpt lat="42.70514" lon="1.14772">
        <ele>1981.1999511719</ele>
        <time>2023-07-26T11:02:15.000Z</time>
      </trkpt>
      <trkpt lat="42.70515" lon="1.14772">
        <ele>1981</ele>
        <time>2023-07-26T11:02:16.000Z</time>
      </trkpt>
      <trkpt lat="42.70517" lon="1.14773">
        <ele>1980.4000244141</ele>
        <time>2023-07-26T11:02:20.000Z</time>
      </trkpt>
      <trkpt lat="42.70521" lon="1.14774">
        <ele>1979.8000488281</ele>
        <time>2023-07-26T11:02:26.000Z</time>
      </trkpt>
      <trkpt lat="42.70522" lon="1.14774">
        <ele>1979.4000244141</ele>
        <time>2023-07-26T11:02:29.000Z</time>
      </trkpt>
      <trkpt lat="42.70528" lon="1.14774">
        <ele>1978.5999755859</ele>
        <time>2023-07-26T11:02:34.000Z</time>
      </trkpt>
      <trkpt lat="42.70529" lon="1.14773">
        <ele>1978.4000244141</ele>
        <time>2023-07-26T11:02:37.000Z</time>
      </trkpt>
      <trkpt lat="42.70526" lon="1.14773">
        <ele>1977.8000488281</ele>
        <time>2023-07-26T11:02:43.000Z</time>
      </trkpt>
      <trkpt lat="42.70525" lon="1.14772">
        <ele>1977.5999755859</ele>
        <time>2023-07-26T11:02:45.000Z</time>
      </trkpt>
      <trkpt lat="42.70525" lon="1.14769">
        <ele>1977.1999511719</ele>
        <time>2023-07-26T11:02:48.000Z</time>
      </trkpt>
      <trkpt lat="42.70525" lon="1.14769">
        <ele>1977</ele>
        <time>2023-07-26T11:02:49.000Z</time>
      </trkpt>
      <trkpt lat="42.70524" lon="1.14766">
        <ele>1976</ele>
        <time>2023-07-26T11:02:54.000Z</time>
      </trkpt>
      <trkpt lat="42.70524" lon="1.14763">
        <ele>1975.8000488281</ele>
        <time>2023-07-26T11:02:56.000Z</time>
      </trkpt>
      <trkpt lat="42.70525" lon="1.1476">
        <ele>1975</ele>
        <time>2023-07-26T11:03:03.000Z</time>
      </trkpt>
      <trkpt lat="42.70523" lon="1.14753">
        <ele>1973.8000488281</ele>
        <time>2023-07-26T11:03:11.000Z</time>
      </trkpt>
      <trkpt lat="42.70524" lon="1.14745">
        <ele>1973.1999511719</ele>
        <time>2023-07-26T11:03:19.000Z</time>
      </trkpt>
      <trkpt lat="42.70526" lon="1.14744">
        <ele>1972.8000488281</ele>
        <time>2023-07-26T11:03:22.000Z</time>
      </trkpt>
      <trkpt lat="42.70527" lon="1.14742">
        <ele>1971.8000488281</ele>
        <time>2023-07-26T11:03:27.000Z</time>
      </trkpt>
      <trkpt lat="42.70527" lon="1.14742">
        <ele>1971.5999755859</ele>
        <time>2023-07-26T11:03:28.000Z</time>
      </trkpt>
      <trkpt lat="42.70527" lon="1.14734">
        <ele>1970.5999755859</ele>
        <time>2023-07-26T11:03:35.000Z</time>
      </trkpt>
      <trkpt lat="42.70527" lon="1.14734">
        <ele>1970.4000244141</ele>
        <time>2023-07-26T11:03:36.000Z</time>
      </trkpt>
      <trkpt lat="42.7053" lon="1.14733">
        <ele>1969.5999755859</ele>
        <time>2023-07-26T11:03:43.000Z</time>
      </trkpt>
      <trkpt lat="42.70531" lon="1.14733">
        <ele>1969.4000244141</ele>
        <time>2023-07-26T11:03:44.000Z</time>
      </trkpt>
      <trkpt lat="42.70538" lon="1.14731">
        <ele>1968.4000244141</ele>
        <time>2023-07-26T11:03:51.000Z</time>
      </trkpt>
      <trkpt lat="42.70539" lon="1.1473">
        <ele>1968</ele>
        <time>2023-07-26T11:03:53.000Z</time>
      </trkpt>
      <trkpt lat="42.70539" lon="1.14728">
        <ele>1967.4000244141</ele>
        <time>2023-07-26T11:03:57.000Z</time>
      </trkpt>
      <trkpt lat="42.70542" lon="1.14728">
        <ele>1966.8000488281</ele>
        <time>2023-07-26T11:04:01.000Z</time>
      </trkpt>
      <trkpt lat="42.70549" lon="1.14725">
        <ele>1966.4000244141</ele>
        <time>2023-07-26T11:04:05.000Z</time>
      </trkpt>
      <trkpt lat="42.70549" lon="1.14725">
        <ele>1966.4000244141</ele>
        <time>2023-07-26T11:04:06.000Z</time>
      </trkpt>
      <trkpt lat="42.70551" lon="1.14723">
        <ele>1965.8000488281</ele>
        <time>2023-07-26T11:04:12.000Z</time>
      </trkpt>
      <trkpt lat="42.70551" lon="1.14722">
        <ele>1965.5999755859</ele>
        <time>2023-07-26T11:04:13.000Z</time>
      </trkpt>
      <trkpt lat="42.70551" lon="1.14721">
        <ele>1965.1999511719</ele>
        <time>2023-07-26T11:04:15.000Z</time>
      </trkpt>
      <trkpt lat="42.7055" lon="1.14717">
        <ele>1965</ele>
        <time>2023-07-26T11:04:21.000Z</time>
      </trkpt>
      <trkpt lat="42.70548" lon="1.14717">
        <ele>1964.5999755859</ele>
        <time>2023-07-26T11:04:28.000Z</time>
      </trkpt>
      <trkpt lat="42.70551" lon="1.14717">
        <ele>1964.5999755859</ele>
        <time>2023-07-26T11:04:36.000Z</time>
      </trkpt>
      <trkpt lat="42.70554" lon="1.14716">
        <ele>1964.4000244141</ele>
        <time>2023-07-26T11:04:42.000Z</time>
      </trkpt>
      <trkpt lat="42.70554" lon="1.14715">
        <ele>1964.1999511719</ele>
        <time>2023-07-26T11:04:43.000Z</time>
      </trkpt>
      <trkpt lat="42.70551" lon="1.14714">
        <ele>1963.5999755859</ele>
        <time>2023-07-26T11:04:50.000Z</time>
      </trkpt>
      <trkpt lat="42.70552" lon="1.14712">
        <ele>1963.1999511719</ele>
        <time>2023-07-26T11:04:55.000Z</time>
      </trkpt>
      <trkpt lat="42.70553" lon="1.14713">
        <ele>1962.8000488281</ele>
        <time>2023-07-26T11:04:58.000Z</time>
      </trkpt>
      <trkpt lat="42.70556" lon="1.1471">
        <ele>1962.8000488281</ele>
        <time>2023-07-26T11:05:07.000Z</time>
      </trkpt>
      <trkpt lat="42.70561" lon="1.14713">
        <ele>1962.8000488281</ele>
        <time>2023-07-26T11:05:13.000Z</time>
      </trkpt>
      <trkpt lat="42.70561" lon="1.14714">
        <ele>1962.4000244141</ele>
        <time>2023-07-26T11:05:20.000Z</time>
      </trkpt>
      <trkpt lat="42.70562" lon="1.14718">
        <ele>1962.4000244141</ele>
        <time>2023-07-26T11:05:26.000Z</time>
      </trkpt>
      <trkpt lat="42.70568" lon="1.14718">
        <ele>1962.1999511719</ele>
        <time>2023-07-26T11:05:34.000Z</time>
      </trkpt>
      <trkpt lat="42.70569" lon="1.14717">
        <ele>1962</ele>
        <time>2023-07-26T11:05:35.000Z</time>
      </trkpt>
      <trkpt lat="42.70571" lon="1.14712">
        <ele>1961.8000488281</ele>
        <time>2023-07-26T11:05:41.000Z</time>
      </trkpt>
      <trkpt lat="42.70571" lon="1.14708">
        <ele>1961.1999511719</ele>
        <time>2023-07-26T11:05:47.000Z</time>
      </trkpt>
      <trkpt lat="42.70572" lon="1.14708">
        <ele>1961</ele>
        <time>2023-07-26T11:05:50.000Z</time>
      </trkpt>
      <trkpt lat="42.70575" lon="1.1471">
        <ele>1960.5999755859</ele>
        <time>2023-07-26T11:05:56.000Z</time>
      </trkpt>
      <trkpt lat="42.70579" lon="1.14709">
        <ele>1960</ele>
        <time>2023-07-26T11:06:04.000Z</time>
      </trkpt>
      <trkpt lat="42.70585" lon="1.14707">
        <ele>1959</ele>
        <time>2023-07-26T11:06:11.000Z</time>
      </trkpt>
      <trkpt lat="42.70586" lon="1.14706">
        <ele>1958.1999511719</ele>
        <time>2023-07-26T11:06:20.000Z</time>
      </trkpt>
      <trkpt lat="42.7059" lon="1.14705">
        <ele>1957.8000488281</ele>
        <time>2023-07-26T11:06:25.000Z</time>
      </trkpt>
      <trkpt lat="42.70592" lon="1.14705">
        <ele>1957.4000244141</ele>
        <time>2023-07-26T11:06:28.000Z</time>
      </trkpt>
      <trkpt lat="42.70593" lon="1.14706">
        <ele>1956.5999755859</ele>
        <time>2023-07-26T11:06:32.000Z</time>
      </trkpt>
      <trkpt lat="42.70594" lon="1.14708">
        <ele>1955.5999755859</ele>
        <time>2023-07-26T11:06:37.000Z</time>
      </trkpt>
      <trkpt lat="42.70594" lon="1.14709">
        <ele>1955.4000244141</ele>
        <time>2023-07-26T11:06:38.000Z</time>
      </trkpt>
      <trkpt lat="42.70593" lon="1.1471">
        <ele>1954.4000244141</ele>
        <time>2023-07-26T11:06:44.000Z</time>
      </trkpt>
      <trkpt lat="42.70593" lon="1.1471">
        <ele>1954.1999511719</ele>
        <time>2023-07-26T11:06:45.000Z</time>
      </trkpt>
      <trkpt lat="42.70594" lon="1.14716">
        <ele>1953.1999511719</ele>
        <time>2023-07-26T11:06:52.000Z</time>
      </trkpt>
      <trkpt lat="42.70594" lon="1.14717">
        <ele>1953.1999511719</ele>
        <time>2023-07-26T11:06:53.000Z</time>
      </trkpt>
      <trkpt lat="42.706" lon="1.14721">
        <ele>1952</ele>
        <time>2023-07-26T11:07:00.000Z</time>
      </trkpt>
      <trkpt lat="42.70601" lon="1.14721">
        <ele>1951.8000488281</ele>
        <time>2023-07-26T11:07:02.000Z</time>
      </trkpt>
      <trkpt lat="42.70602" lon="1.14719">
        <ele>1951</ele>
        <time>2023-07-26T11:07:08.000Z</time>
      </trkpt>
      <trkpt lat="42.70605" lon="1.14715">
        <ele>1949.8000488281</ele>
        <time>2023-07-26T11:07:15.000Z</time>
      </trkpt>
      <trkpt lat="42.70608" lon="1.14711">
        <ele>1948.8000488281</ele>
        <time>2023-07-26T11:07:21.000Z</time>
      </trkpt>
      <trkpt lat="42.70608" lon="1.14711">
        <ele>1948.5999755859</ele>
        <time>2023-07-26T11:07:23.000Z</time>
      </trkpt>
      <trkpt lat="42.70611" lon="1.14716">
        <ele>1947.8000488281</ele>
        <time>2023-07-26T11:07:31.000Z</time>
      </trkpt>
      <trkpt lat="42.70612" lon="1.14717">
        <ele>1947.8000488281</ele>
        <time>2023-07-26T11:07:32.000Z</time>
      </trkpt>
      <trkpt lat="42.70614" lon="1.1472">
        <ele>1946.8000488281</ele>
        <time>2023-07-26T11:07:39.000Z</time>
      </trkpt>
      <trkpt lat="42.70614" lon="1.14721">
        <ele>1946.8000488281</ele>
        <time>2023-07-26T11:07:40.000Z</time>
      </trkpt>
      <trkpt lat="42.70616" lon="1.14726">
        <ele>1945.8000488281</ele>
        <time>2023-07-26T11:07:46.000Z</time>
      </trkpt>
      <trkpt lat="42.70617" lon="1.14727">
        <ele>1945.5999755859</ele>
        <time>2023-07-26T11:07:47.000Z</time>
      </trkpt>
      <trkpt lat="42.7062" lon="1.14729">
        <ele>1944.5999755859</ele>
        <time>2023-07-26T11:07:53.000Z</time>
      </trkpt>
      <trkpt lat="42.7062" lon="1.14729">
        <ele>1944.4000244141</ele>
        <time>2023-07-26T11:07:54.000Z</time>
      </trkpt>
      <trkpt lat="42.70623" lon="1.14728">
        <ele>1943.4000244141</ele>
        <time>2023-07-26T11:08:01.000Z</time>
      </trkpt>
      <trkpt lat="42.70625" lon="1.14727">
        <ele>1943</ele>
        <time>2023-07-26T11:08:04.000Z</time>
      </trkpt>
      <trkpt lat="42.70627" lon="1.14727">
        <ele>1942.1999511719</ele>
        <time>2023-07-26T11:08:10.000Z</time>
      </trkpt>
      <trkpt lat="42.7063" lon="1.14726">
        <ele>1941.1999511719</ele>
        <time>2023-07-26T11:08:17.000Z</time>
      </trkpt>
      <trkpt lat="42.70631" lon="1.14726">
        <ele>1940.8000488281</ele>
        <time>2023-07-26T11:08:20.000Z</time>
      </trkpt>
      <trkpt lat="42.70632" lon="1.14725">
        <ele>1940.1999511719</ele>
        <time>2023-07-26T11:08:23.000Z</time>
      </trkpt>
      <trkpt lat="42.70633" lon="1.14722">
        <ele>1939.8000488281</ele>
        <time>2023-07-26T11:08:27.000Z</time>
      </trkpt>
      <trkpt lat="42.70635" lon="1.14718">
        <ele>1939</ele>
        <time>2023-07-26T11:08:31.000Z</time>
      </trkpt>
      <trkpt lat="42.70635" lon="1.14718">
        <ele>1938.4000244141</ele>
        <time>2023-07-26T11:08:33.000Z</time>
      </trkpt>
      <trkpt lat="42.70636" lon="1.14717">
        <ele>1937.8000488281</ele>
        <time>2023-07-26T11:08:36.000Z</time>
      </trkpt>
      <trkpt lat="42.70637" lon="1.14713">
        <ele>1937</ele>
        <time>2023-07-26T11:08:41.000Z</time>
      </trkpt>
      <trkpt lat="42.70637" lon="1.14712">
        <ele>1936.8000488281</ele>
        <time>2023-07-26T11:08:42.000Z</time>
      </trkpt>
      <trkpt lat="42.70635" lon="1.1471">
        <ele>1935.5999755859</ele>
        <time>2023-07-26T11:08:47.000Z</time>
      </trkpt>
      <trkpt lat="42.70635" lon="1.14708">
        <ele>1935.1999511719</ele>
        <time>2023-07-26T11:08:49.000Z</time>
      </trkpt>
      <trkpt lat="42.70634" lon="1.14704">
        <ele>1934.5999755859</ele>
        <time>2023-07-26T11:08:54.000Z</time>
      </trkpt>
      <trkpt lat="42.70635" lon="1.14705">
        <ele>1934.4000244141</ele>
        <time>2023-07-26T11:08:55.000Z</time>
      </trkpt>
      <trkpt lat="42.70638" lon="1.14708">
        <ele>1933.4000244141</ele>
        <time>2023-07-26T11:09:00.000Z</time>
      </trkpt>
      <trkpt lat="42.70639" lon="1.1471">
        <ele>1933.4000244141</ele>
        <time>2023-07-26T11:09:02.000Z</time>
      </trkpt>
      <trkpt lat="42.70645" lon="1.14711">
        <ele>1932.8000488281</ele>
        <time>2023-07-26T11:09:08.000Z</time>
      </trkpt>
      <trkpt lat="42.70646" lon="1.14711">
        <ele>1932.4000244141</ele>
        <time>2023-07-26T11:09:10.000Z</time>
      </trkpt>
      <trkpt lat="42.70651" lon="1.14709">
        <ele>1931.5999755859</ele>
        <time>2023-07-26T11:09:15.000Z</time>
      </trkpt>
      <trkpt lat="42.70654" lon="1.14704">
        <ele>1931.1999511719</ele>
        <time>2023-07-26T11:09:20.000Z</time>
      </trkpt>
      <trkpt lat="42.70655" lon="1.14702">
        <ele>1931</ele>
        <time>2023-07-26T11:09:22.000Z</time>
      </trkpt>
      <trkpt lat="42.70657" lon="1.14696">
        <ele>1930.1999511719</ele>
        <time>2023-07-26T11:09:27.000Z</time>
      </trkpt>
      <trkpt lat="42.70657" lon="1.14695">
        <ele>1930</ele>
        <time>2023-07-26T11:09:28.000Z</time>
      </trkpt>
      <trkpt lat="42.7066" lon="1.14694">
        <ele>1929</ele>
        <time>2023-07-26T11:09:32.000Z</time>
      </trkpt>
      <trkpt lat="42.70662" lon="1.14694">
        <ele>1928.5999755859</ele>
        <time>2023-07-26T11:09:35.000Z</time>
      </trkpt>
      <trkpt lat="42.70664" lon="1.14694">
        <ele>1928.1999511719</ele>
        <time>2023-07-26T11:09:37.000Z</time>
      </trkpt>
      <trkpt lat="42.70664" lon="1.14694">
        <ele>1928</ele>
        <time>2023-07-26T11:09:38.000Z</time>
      </trkpt>
      <trkpt lat="42.70663" lon="1.14689">
        <ele>1927.1999511719</ele>
        <time>2023-07-26T11:09:43.000Z</time>
      </trkpt>
      <trkpt lat="42.70663" lon="1.14688">
        <ele>1926.8000488281</ele>
        <time>2023-07-26T11:09:45.000Z</time>
      </trkpt>
      <trkpt lat="42.70663" lon="1.14684">
        <ele>1926</ele>
        <time>2023-07-26T11:09:50.000Z</time>
      </trkpt>
      <trkpt lat="42.70663" lon="1.14683">
        <ele>1925.5999755859</ele>
        <time>2023-07-26T11:09:51.000Z</time>
      </trkpt>
      <trkpt lat="42.70665" lon="1.14682">
        <ele>1924.5999755859</ele>
        <time>2023-07-26T11:09:57.000Z</time>
      </trkpt>
      <trkpt lat="42.70667" lon="1.14678">
        <ele>1923.5999755859</ele>
        <time>2023-07-26T11:10:02.000Z</time>
      </trkpt>
      <trkpt lat="42.70667" lon="1.14678">
        <ele>1923.1999511719</ele>
        <time>2023-07-26T11:10:04.000Z</time>
      </trkpt>
      <trkpt lat="42.70668" lon="1.14677">
        <ele>1922.4000244141</ele>
        <time>2023-07-26T11:10:07.000Z</time>
      </trkpt>
      <trkpt lat="42.70671" lon="1.14677">
        <ele>1921</ele>
        <time>2023-07-26T11:10:12.000Z</time>
      </trkpt>
      <trkpt lat="42.70676" lon="1.14671">
        <ele>1920</ele>
        <time>2023-07-26T11:10:19.000Z</time>
      </trkpt>
      <trkpt lat="42.70675" lon="1.14661">
        <ele>1919</ele>
        <time>2023-07-26T11:10:25.000Z</time>
      </trkpt>
      <trkpt lat="42.70677" lon="1.14652">
        <ele>1918.1999511719</ele>
        <time>2023-07-26T11:10:32.000Z</time>
      </trkpt>
      <trkpt lat="42.70677" lon="1.1465">
        <ele>1918</ele>
        <time>2023-07-26T11:10:34.000Z</time>
      </trkpt>
      <trkpt lat="42.70676" lon="1.14643">
        <ele>1917.1999511719</ele>
        <time>2023-07-26T11:10:39.000Z</time>
      </trkpt>
      <trkpt lat="42.70676" lon="1.1464">
        <ele>1916.8000488281</ele>
        <time>2023-07-26T11:10:41.000Z</time>
      </trkpt>
      <trkpt lat="42.70677" lon="1.14632">
        <ele>1916.4000244141</ele>
        <time>2023-07-26T11:10:46.000Z</time>
      </trkpt>
      <trkpt lat="42.70678" lon="1.14629">
        <ele>1915.8000488281</ele>
        <time>2023-07-26T11:10:50.000Z</time>
      </trkpt>
      <trkpt lat="42.70679" lon="1.14626">
        <ele>1915.5999755859</ele>
        <time>2023-07-26T11:10:53.000Z</time>
      </trkpt>
      <trkpt lat="42.70678" lon="1.14627">
        <ele>1914.8000488281</ele>
        <time>2023-07-26T11:10:59.000Z</time>
      </trkpt>
      <trkpt lat="42.70678" lon="1.14628">
        <ele>1914.5999755859</ele>
        <time>2023-07-26T11:11:01.000Z</time>
      </trkpt>
      <trkpt lat="42.70681" lon="1.14626">
        <ele>1914.5999755859</ele>
        <time>2023-07-26T11:11:08.000Z</time>
      </trkpt>
      <trkpt lat="42.70685" lon="1.14626">
        <ele>1914.1999511719</ele>
        <time>2023-07-26T11:11:15.000Z</time>
      </trkpt>
      <trkpt lat="42.7069" lon="1.14625">
        <ele>1913.8000488281</ele>
        <time>2023-07-26T11:11:23.000Z</time>
      </trkpt>
      <trkpt lat="42.70692" lon="1.14625">
        <ele>1913.8000488281</ele>
        <time>2023-07-26T11:11:25.000Z</time>
      </trkpt>
      <trkpt lat="42.70694" lon="1.14622">
        <ele>1913.8000488281</ele>
        <time>2023-07-26T11:11:30.000Z</time>
      </trkpt>
      <trkpt lat="42.70698" lon="1.14614">
        <ele>1914.1999511719</ele>
        <time>2023-07-26T11:11:38.000Z</time>
      </trkpt>
      <trkpt lat="42.70703" lon="1.14608">
        <ele>1913.4000244141</ele>
        <time>2023-07-26T11:11:45.000Z</time>
      </trkpt>
      <trkpt lat="42.70707" lon="1.14602">
        <ele>1913</ele>
        <time>2023-07-26T11:11:50.000Z</time>
      </trkpt>
      <trkpt lat="42.70712" lon="1.14596">
        <ele>1912.5999755859</ele>
        <time>2023-07-26T11:11:55.000Z</time>
      </trkpt>
      <trkpt lat="42.70712" lon="1.14595">
        <ele>1912.4000244141</ele>
        <time>2023-07-26T11:11:56.000Z</time>
      </trkpt>
      <trkpt lat="42.70717" lon="1.14588">
        <ele>1911.8000488281</ele>
        <time>2023-07-26T11:12:03.000Z</time>
      </trkpt>
      <trkpt lat="42.70719" lon="1.14586">
        <ele>1911.5999755859</ele>
        <time>2023-07-26T11:12:05.000Z</time>
      </trkpt>
      <trkpt lat="42.70723" lon="1.14581">
        <ele>1911.1999511719</ele>
        <time>2023-07-26T11:12:09.000Z</time>
      </trkpt>
      <trkpt lat="42.70728" lon="1.14576">
        <ele>1910.8000488281</ele>
        <time>2023-07-26T11:12:15.000Z</time>
      </trkpt>
      <trkpt lat="42.70731" lon="1.14572">
        <ele>1910.5999755859</ele>
        <time>2023-07-26T11:12:19.000Z</time>
      </trkpt>
      <trkpt lat="42.70733" lon="1.1457">
        <ele>1910.1999511719</ele>
        <time>2023-07-26T11:12:22.000Z</time>
      </trkpt>
      <trkpt lat="42.70739" lon="1.14565">
        <ele>1909.5999755859</ele>
        <time>2023-07-26T11:12:29.000Z</time>
      </trkpt>
      <trkpt lat="42.70742" lon="1.14563">
        <ele>1909.4000244141</ele>
        <time>2023-07-26T11:12:32.000Z</time>
      </trkpt>
      <trkpt lat="42.70747" lon="1.14558">
        <ele>1908.8000488281</ele>
        <time>2023-07-26T11:12:37.000Z</time>
      </trkpt>
      <trkpt lat="42.70748" lon="1.14557">
        <ele>1908.4000244141</ele>
        <time>2023-07-26T11:12:39.000Z</time>
      </trkpt>
      <trkpt lat="42.70756" lon="1.14554">
        <ele>1907.5999755859</ele>
        <time>2023-07-26T11:12:45.000Z</time>
      </trkpt>
      <trkpt lat="42.70759" lon="1.14553">
        <ele>1907.1999511719</ele>
        <time>2023-07-26T11:12:47.000Z</time>
      </trkpt>
      <trkpt lat="42.70763" lon="1.1455">
        <ele>1906.1999511719</ele>
        <time>2023-07-26T11:12:52.000Z</time>
      </trkpt>
      <trkpt lat="42.70771" lon="1.14545">
        <ele>1905.8000488281</ele>
        <time>2023-07-26T11:13:00.000Z</time>
      </trkpt>
      <trkpt lat="42.70782" lon="1.14542">
        <ele>1905.4000244141</ele>
        <time>2023-07-26T11:13:09.000Z</time>
      </trkpt>
      <trkpt lat="42.7079" lon="1.14538">
        <ele>1905.1999511719</ele>
        <time>2023-07-26T11:13:15.000Z</time>
      </trkpt>
      <trkpt lat="42.7079" lon="1.14537">
        <ele>1905.1999511719</ele>
        <time>2023-07-26T11:13:16.000Z</time>
      </trkpt>
      <trkpt lat="42.70799" lon="1.14532">
        <ele>1904.5999755859</ele>
        <time>2023-07-26T11:13:25.000Z</time>
      </trkpt>
      <trkpt lat="42.7081" lon="1.14519">
        <ele>1904.1999511719</ele>
        <time>2023-07-26T11:13:35.000Z</time>
      </trkpt>
      <trkpt lat="42.70811" lon="1.14518">
        <ele>1904</ele>
        <time>2023-07-26T11:13:36.000Z</time>
      </trkpt>
      <trkpt lat="42.70815" lon="1.14513">
        <ele>1904</ele>
        <time>2023-07-26T11:13:42.000Z</time>
      </trkpt>
      <trkpt lat="42.70822" lon="1.14508">
        <ele>1903.1999511719</ele>
        <time>2023-07-26T11:13:51.000Z</time>
      </trkpt>
      <trkpt lat="42.70822" lon="1.14507">
        <ele>1903</ele>
        <time>2023-07-26T11:13:52.000Z</time>
      </trkpt>
      <trkpt lat="42.70826" lon="1.14502">
        <ele>1903</ele>
        <time>2023-07-26T11:13:57.000Z</time>
      </trkpt>
      <trkpt lat="42.70832" lon="1.14493">
        <ele>1903.5999755859</ele>
        <time>2023-07-26T11:14:07.000Z</time>
      </trkpt>
      <trkpt lat="42.70836" lon="1.14483">
        <ele>1904</ele>
        <time>2023-07-26T11:14:15.000Z</time>
      </trkpt>
      <trkpt lat="42.7084" lon="1.14477">
        <ele>1904</ele>
        <time>2023-07-26T11:14:22.000Z</time>
      </trkpt>
      <trkpt lat="42.70842" lon="1.14474">
        <ele>1904</ele>
        <time>2023-07-26T11:14:26.000Z</time>
      </trkpt>
      <trkpt lat="42.70843" lon="1.1447">
        <ele>1904.1999511719</ele>
        <time>2023-07-26T11:14:31.000Z</time>
      </trkpt>
      <trkpt lat="42.70844" lon="1.14469">
        <ele>1903.5999755859</ele>
        <time>2023-07-26T11:14:40.000Z</time>
      </trkpt>
      <trkpt lat="42.70847" lon="1.14469">
        <ele>1903.5999755859</ele>
        <time>2023-07-26T11:14:49.000Z</time>
      </trkpt>
      <trkpt lat="42.7085" lon="1.1446">
        <ele>1903.8000488281</ele>
        <time>2023-07-26T11:14:55.000Z</time>
      </trkpt>
      <trkpt lat="42.70851" lon="1.14453">
        <ele>1903.5999755859</ele>
        <time>2023-07-26T11:15:01.000Z</time>
      </trkpt>
      <trkpt lat="42.70852" lon="1.14448">
        <ele>1903</ele>
        <time>2023-07-26T11:15:06.000Z</time>
      </trkpt>
      <trkpt lat="42.70855" lon="1.14439">
        <ele>1902.4000244141</ele>
        <time>2023-07-26T11:15:13.000Z</time>
      </trkpt>
      <trkpt lat="42.70856" lon="1.14432">
        <ele>1902.1999511719</ele>
        <time>2023-07-26T11:15:18.000Z</time>
      </trkpt>
      <trkpt lat="42.70857" lon="1.14429">
        <ele>1901.5999755859</ele>
        <time>2023-07-26T11:15:20.000Z</time>
      </trkpt>
      <trkpt lat="42.70861" lon="1.14421">
        <ele>1901.1999511719</ele>
        <time>2023-07-26T11:15:26.000Z</time>
      </trkpt>
      <trkpt lat="42.70861" lon="1.14414">
        <ele>1900.5999755859</ele>
        <time>2023-07-26T11:15:32.000Z</time>
      </trkpt>
      <trkpt lat="42.70861" lon="1.1441">
        <ele>1900.1999511719</ele>
        <time>2023-07-26T11:15:35.000Z</time>
      </trkpt>
      <trkpt lat="42.70862" lon="1.14403">
        <ele>1899.5999755859</ele>
        <time>2023-07-26T11:15:40.000Z</time>
      </trkpt>
      <trkpt lat="42.70862" lon="1.14402">
        <ele>1899.4000244141</ele>
        <time>2023-07-26T11:15:41.000Z</time>
      </trkpt>
      <trkpt lat="42.70862" lon="1.14393">
        <ele>1898.5999755859</ele>
        <time>2023-07-26T11:15:46.000Z</time>
      </trkpt>
      <trkpt lat="42.70863" lon="1.14392">
        <ele>1898</ele>
        <time>2023-07-26T11:15:48.000Z</time>
      </trkpt>
      <trkpt lat="42.70863" lon="1.14388">
        <ele>1897.4000244141</ele>
        <time>2023-07-26T11:15:51.000Z</time>
      </trkpt>
      <trkpt lat="42.70863" lon="1.14383">
        <ele>1896.4000244141</ele>
        <time>2023-07-26T11:15:56.000Z</time>
      </trkpt>
      <trkpt lat="42.70863" lon="1.14382">
        <ele>1896.4000244141</ele>
        <time>2023-07-26T11:15:57.000Z</time>
      </trkpt>
      <trkpt lat="42.70867" lon="1.14376">
        <ele>1895.4000244141</ele>
        <time>2023-07-26T11:16:03.000Z</time>
      </trkpt>
      <trkpt lat="42.70868" lon="1.14373">
        <ele>1895.1999511719</ele>
        <time>2023-07-26T11:16:05.000Z</time>
      </trkpt>
      <trkpt lat="42.70869" lon="1.1437">
        <ele>1894.8000488281</ele>
        <time>2023-07-26T11:16:08.000Z</time>
      </trkpt>
      <trkpt lat="42.70871" lon="1.14365">
        <ele>1894.4000244141</ele>
        <time>2023-07-26T11:16:15.000Z</time>
      </trkpt>
      <trkpt lat="42.70872" lon="1.14364">
        <ele>1894.1999511719</ele>
        <time>2023-07-26T11:16:16.000Z</time>
      </trkpt>
      <trkpt lat="42.70872" lon="1.14356">
        <ele>1893.5999755859</ele>
        <time>2023-07-26T11:16:22.000Z</time>
      </trkpt>
      <trkpt lat="42.70873" lon="1.14353">
        <ele>1893</ele>
        <time>2023-07-26T11:16:25.000Z</time>
      </trkpt>
      <trkpt lat="42.70874" lon="1.14347">
        <ele>1892.8000488281</ele>
        <time>2023-07-26T11:16:28.000Z</time>
      </trkpt>
      <trkpt lat="42.70875" lon="1.14338">
        <ele>1892.1999511719</ele>
        <time>2023-07-26T11:16:34.000Z</time>
      </trkpt>
      <trkpt lat="42.70875" lon="1.14336">
        <ele>1892</ele>
        <time>2023-07-26T11:16:36.000Z</time>
      </trkpt>
      <trkpt lat="42.70875" lon="1.1433">
        <ele>1891.5999755859</ele>
        <time>2023-07-26T11:16:40.000Z</time>
      </trkpt>
      <trkpt lat="42.70874" lon="1.14328">
        <ele>1890.8000488281</ele>
        <time>2023-07-26T11:16:45.000Z</time>
      </trkpt>
      <trkpt lat="42.70875" lon="1.14323">
        <ele>1890.1999511719</ele>
        <time>2023-07-26T11:16:51.000Z</time>
      </trkpt>
      <trkpt lat="42.70875" lon="1.14321">
        <ele>1889.8000488281</ele>
        <time>2023-07-26T11:16:54.000Z</time>
      </trkpt>
      <trkpt lat="42.70876" lon="1.14321">
        <ele>1889.5999755859</ele>
        <time>2023-07-26T11:16:56.000Z</time>
      </trkpt>
      <trkpt lat="42.7088" lon="1.14317">
        <ele>1889</ele>
        <time>2023-07-26T11:17:04.000Z</time>
      </trkpt>
      <trkpt lat="42.7088" lon="1.14317">
        <ele>1888.8000488281</ele>
        <time>2023-07-26T11:17:05.000Z</time>
      </trkpt>
      <trkpt lat="42.70884" lon="1.14311">
        <ele>1888.1999511719</ele>
        <time>2023-07-26T11:17:12.000Z</time>
      </trkpt>
      <trkpt lat="42.70884" lon="1.14304">
        <ele>1887.8000488281</ele>
        <time>2023-07-26T11:17:17.000Z</time>
      </trkpt>
      <trkpt lat="42.70884" lon="1.14301">
        <ele>1887.8000488281</ele>
        <time>2023-07-26T11:17:18.000Z</time>
      </trkpt>
      <trkpt lat="42.70884" lon="1.14294">
        <ele>1887.1999511719</ele>
        <time>2023-07-26T11:17:23.000Z</time>
      </trkpt>
      <trkpt lat="42.70885" lon="1.14292">
        <ele>1886.8000488281</ele>
        <time>2023-07-26T11:17:27.000Z</time>
      </trkpt>
      <trkpt lat="42.70886" lon="1.14291">
        <ele>1886.5999755859</ele>
        <time>2023-07-26T11:17:29.000Z</time>
      </trkpt>
      <trkpt lat="42.70895" lon="1.14287">
        <ele>1886.8000488281</ele>
        <time>2023-07-26T11:17:36.000Z</time>
      </trkpt>
      <trkpt lat="42.70895" lon="1.14283">
        <ele>1886.5999755859</ele>
        <time>2023-07-26T11:17:40.000Z</time>
      </trkpt>
      <trkpt lat="42.70894" lon="1.14281">
        <ele>1886.5999755859</ele>
        <time>2023-07-26T11:17:42.000Z</time>
      </trkpt>
      <trkpt lat="42.70893" lon="1.14278">
        <ele>1885.8000488281</ele>
        <time>2023-07-26T11:17:46.000Z</time>
      </trkpt>
      <trkpt lat="42.70893" lon="1.14277">
        <ele>1885.1999511719</ele>
        <time>2023-07-26T11:17:49.000Z</time>
      </trkpt>
      <trkpt lat="42.70894" lon="1.14274">
        <ele>1884.5999755859</ele>
        <time>2023-07-26T11:17:54.000Z</time>
      </trkpt>
      <trkpt lat="42.70893" lon="1.14274">
        <ele>1884.4000244141</ele>
        <time>2023-07-26T11:17:55.000Z</time>
      </trkpt>
      <trkpt lat="42.70895" lon="1.14267">
        <ele>1883.4000244141</ele>
        <time>2023-07-26T11:18:03.000Z</time>
      </trkpt>
      <trkpt lat="42.70895" lon="1.14266">
        <ele>1883.4000244141</ele>
        <time>2023-07-26T11:18:04.000Z</time>
      </trkpt>
      <trkpt lat="42.709" lon="1.14258">
        <ele>1882.8000488281</ele>
        <time>2023-07-26T11:18:11.000Z</time>
      </trkpt>
      <trkpt lat="42.70901" lon="1.14253">
        <ele>1882.4000244141</ele>
        <time>2023-07-26T11:18:16.000Z</time>
      </trkpt>
      <trkpt lat="42.70902" lon="1.14251">
        <ele>1882.1999511719</ele>
        <time>2023-07-26T11:18:17.000Z</time>
      </trkpt>
      <trkpt lat="42.70905" lon="1.1424">
        <ele>1881.8000488281</ele>
        <time>2023-07-26T11:18:24.000Z</time>
      </trkpt>
      <trkpt lat="42.70907" lon="1.14235">
        <ele>1881.4000244141</ele>
        <time>2023-07-26T11:18:30.000Z</time>
      </trkpt>
      <trkpt lat="42.70908" lon="1.14233">
        <ele>1881.1999511719</ele>
        <time>2023-07-26T11:18:32.000Z</time>
      </trkpt>
      <trkpt lat="42.70908" lon="1.1423">
        <ele>1880.5999755859</ele>
        <time>2023-07-26T11:18:36.000Z</time>
      </trkpt>
      <trkpt lat="42.70908" lon="1.14226">
        <ele>1880.1999511719</ele>
        <time>2023-07-26T11:18:39.000Z</time>
      </trkpt>
      <trkpt lat="42.7091" lon="1.14219">
        <ele>1879.8000488281</ele>
        <time>2023-07-26T11:18:43.000Z</time>
      </trkpt>
      <trkpt lat="42.70911" lon="1.14215">
        <ele>1879.1999511719</ele>
        <time>2023-07-26T11:18:47.000Z</time>
      </trkpt>
      <trkpt lat="42.70912" lon="1.14211">
        <ele>1878.8000488281</ele>
        <time>2023-07-26T11:18:50.000Z</time>
      </trkpt>
      <trkpt lat="42.70916" lon="1.14206">
        <ele>1878.1999511719</ele>
        <time>2023-07-26T11:18:56.000Z</time>
      </trkpt>
      <trkpt lat="42.70917" lon="1.14205">
        <ele>1878</ele>
        <time>2023-07-26T11:18:57.000Z</time>
      </trkpt>
      <trkpt lat="42.70919" lon="1.142">
        <ele>1877.8000488281</ele>
        <time>2023-07-26T11:19:03.000Z</time>
      </trkpt>
      <trkpt lat="42.70923" lon="1.14193">
        <ele>1877</ele>
        <time>2023-07-26T11:19:10.000Z</time>
      </trkpt>
      <trkpt lat="42.70926" lon="1.14191">
        <ele>1876.5999755859</ele>
        <time>2023-07-26T11:19:16.000Z</time>
      </trkpt>
      <trkpt lat="42.70929" lon="1.14187">
        <ele>1876</ele>
        <time>2023-07-26T11:19:21.000Z</time>
      </trkpt>
      <trkpt lat="42.70929" lon="1.14187">
        <ele>1875.4000244141</ele>
        <time>2023-07-26T11:19:23.000Z</time>
      </trkpt>
      <trkpt lat="42.7093" lon="1.14186">
        <ele>1874.8000488281</ele>
        <time>2023-07-26T11:19:25.000Z</time>
      </trkpt>
      <trkpt lat="42.7093" lon="1.14186">
        <ele>1874.8000488281</ele>
        <time>2023-07-26T11:19:27.000Z</time>
      </trkpt>
      <trkpt lat="42.70929" lon="1.14187">
        <ele>1874.5999755859</ele>
        <time>2023-07-26T11:19:30.000Z</time>
      </trkpt>
      <trkpt lat="42.70927" lon="1.14186">
        <ele>1874.5999755859</ele>
        <time>2023-07-26T11:19:33.000Z</time>
      </trkpt>
      <trkpt lat="42.70925" lon="1.14186">
        <ele>1874.4000244141</ele>
        <time>2023-07-26T11:19:41.000Z</time>
      </trkpt>
      <trkpt lat="42.70927" lon="1.14185">
        <ele>1874.1999511719</ele>
        <time>2023-07-26T11:19:49.000Z</time>
      </trkpt>
      <trkpt lat="42.70935" lon="1.14182">
        <ele>1874</ele>
        <time>2023-07-26T11:19:57.000Z</time>
      </trkpt>
      <trkpt lat="42.70937" lon="1.1418">
        <ele>1873.8000488281</ele>
        <time>2023-07-26T11:19:59.000Z</time>
      </trkpt>
      <trkpt lat="42.70939" lon="1.14175">
        <ele>1872.4000244141</ele>
        <time>2023-07-26T11:20:04.000Z</time>
      </trkpt>
      <trkpt lat="42.70939" lon="1.14175">
        <ele>1872.1999511719</ele>
        <time>2023-07-26T11:20:05.000Z</time>
      </trkpt>
      <trkpt lat="42.70942" lon="1.14173">
        <ele>1871.4000244141</ele>
        <time>2023-07-26T11:20:10.000Z</time>
      </trkpt>
      <trkpt lat="42.70945" lon="1.14172">
        <ele>1870.5999755859</ele>
        <time>2023-07-26T11:20:13.000Z</time>
      </trkpt>
      <trkpt lat="42.70948" lon="1.1417">
        <ele>1870.1999511719</ele>
        <time>2023-07-26T11:20:15.000Z</time>
      </trkpt>
      <trkpt lat="42.70952" lon="1.14168">
        <ele>1869</ele>
        <time>2023-07-26T11:20:19.000Z</time>
      </trkpt>
      <trkpt lat="42.70954" lon="1.14168">
        <ele>1868.5999755859</ele>
        <time>2023-07-26T11:20:20.000Z</time>
      </trkpt>
      <trkpt lat="42.70956" lon="1.14166">
        <ele>1867.8000488281</ele>
        <time>2023-07-26T11:20:23.000Z</time>
      </trkpt>
      <trkpt lat="42.70962" lon="1.14161">
        <ele>1867</ele>
        <time>2023-07-26T11:20:29.000Z</time>
      </trkpt>
      <trkpt lat="42.70963" lon="1.14161">
        <ele>1866.8000488281</ele>
        <time>2023-07-26T11:20:30.000Z</time>
      </trkpt>
      <trkpt lat="42.70967" lon="1.14155">
        <ele>1865.5999755859</ele>
        <time>2023-07-26T11:20:37.000Z</time>
      </trkpt>
      <trkpt lat="42.70968" lon="1.14154">
        <ele>1865.4000244141</ele>
        <time>2023-07-26T11:20:38.000Z</time>
      </trkpt>
      <trkpt lat="42.70972" lon="1.14148">
        <ele>1864.4000244141</ele>
        <time>2023-07-26T11:20:43.000Z</time>
      </trkpt>
      <trkpt lat="42.70975" lon="1.14145">
        <ele>1863.4000244141</ele>
        <time>2023-07-26T11:20:48.000Z</time>
      </trkpt>
      <trkpt lat="42.70979" lon="1.1414">
        <ele>1862.8000488281</ele>
        <time>2023-07-26T11:20:51.000Z</time>
      </trkpt>
      <trkpt lat="42.70984" lon="1.14134">
        <ele>1862.1999511719</ele>
        <time>2023-07-26T11:20:57.000Z</time>
      </trkpt>
      <trkpt lat="42.70985" lon="1.14133">
        <ele>1862</ele>
        <time>2023-07-26T11:20:58.000Z</time>
      </trkpt>
      <trkpt lat="42.70987" lon="1.14125">
        <ele>1861.5999755859</ele>
        <time>2023-07-26T11:21:04.000Z</time>
      </trkpt>
      <trkpt lat="42.70987" lon="1.14121">
        <ele>1861.1999511719</ele>
        <time>2023-07-26T11:21:10.000Z</time>
      </trkpt>
      <trkpt lat="42.70988" lon="1.14123">
        <ele>1860.5999755859</ele>
        <time>2023-07-26T11:21:14.000Z</time>
      </trkpt>
      <trkpt lat="42.70991" lon="1.14124">
        <ele>1860.4000244141</ele>
        <time>2023-07-26T11:21:17.000Z</time>
      </trkpt>
      <trkpt lat="42.70995" lon="1.14124">
        <ele>1860.1999511719</ele>
        <time>2023-07-26T11:21:20.000Z</time>
      </trkpt>
      <trkpt lat="42.70999" lon="1.14121">
        <ele>1859.1999511719</ele>
        <time>2023-07-26T11:21:25.000Z</time>
      </trkpt>
      <trkpt lat="42.71001" lon="1.1412">
        <ele>1859</ele>
        <time>2023-07-26T11:21:27.000Z</time>
      </trkpt>
      <trkpt lat="42.71002" lon="1.14116">
        <ele>1858</ele>
        <time>2023-07-26T11:21:31.000Z</time>
      </trkpt>
      <trkpt lat="42.71002" lon="1.14114">
        <ele>1857.5999755859</ele>
        <time>2023-07-26T11:21:33.000Z</time>
      </trkpt>
      <trkpt lat="42.71003" lon="1.14111">
        <ele>1856.5999755859</ele>
        <time>2023-07-26T11:21:37.000Z</time>
      </trkpt>
      <trkpt lat="42.71006" lon="1.14109">
        <ele>1855.8000488281</ele>
        <time>2023-07-26T11:21:41.000Z</time>
      </trkpt>
      <trkpt lat="42.71006" lon="1.14108">
        <ele>1855.5999755859</ele>
        <time>2023-07-26T11:21:42.000Z</time>
      </trkpt>
      <trkpt lat="42.71011" lon="1.14101">
        <ele>1854.4000244141</ele>
        <time>2023-07-26T11:21:49.000Z</time>
      </trkpt>
      <trkpt lat="42.71015" lon="1.14097">
        <ele>1853.4000244141</ele>
        <time>2023-07-26T11:21:54.000Z</time>
      </trkpt>
      <trkpt lat="42.71015" lon="1.14094">
        <ele>1852.4000244141</ele>
        <time>2023-07-26T11:21:59.000Z</time>
      </trkpt>
      <trkpt lat="42.71015" lon="1.14092">
        <ele>1852.1999511719</ele>
        <time>2023-07-26T11:22:00.000Z</time>
      </trkpt>
      <trkpt lat="42.71014" lon="1.14088">
        <ele>1851.1999511719</ele>
        <time>2023-07-26T11:22:06.000Z</time>
      </trkpt>
      <trkpt lat="42.71013" lon="1.14086">
        <ele>1851</ele>
        <time>2023-07-26T11:22:07.000Z</time>
      </trkpt>
      <trkpt lat="42.71015" lon="1.14079">
        <ele>1850</ele>
        <time>2023-07-26T11:22:14.000Z</time>
      </trkpt>
      <trkpt lat="42.71015" lon="1.14078">
        <ele>1849.8000488281</ele>
        <time>2023-07-26T11:22:15.000Z</time>
      </trkpt>
      <trkpt lat="42.71018" lon="1.14072">
        <ele>1848.8000488281</ele>
        <time>2023-07-26T11:22:22.000Z</time>
      </trkpt>
      <trkpt lat="42.71018" lon="1.14071">
        <ele>1848.1999511719</ele>
        <time>2023-07-26T11:22:24.000Z</time>
      </trkpt>
      <trkpt lat="42.71019" lon="1.14071">
        <ele>1847.5999755859</ele>
        <time>2023-07-26T11:22:26.000Z</time>
      </trkpt>
      <trkpt lat="42.71022" lon="1.14071">
        <ele>1846.5999755859</ele>
        <time>2023-07-26T11:22:34.000Z</time>
      </trkpt>
      <trkpt lat="42.71023" lon="1.14072">
        <ele>1846.4000244141</ele>
        <time>2023-07-26T11:22:35.000Z</time>
      </trkpt>
      <trkpt lat="42.71026" lon="1.14074">
        <ele>1845.5999755859</ele>
        <time>2023-07-26T11:22:40.000Z</time>
      </trkpt>
      <trkpt lat="42.71031" lon="1.14074">
        <ele>1844.8000488281</ele>
        <time>2023-07-26T11:22:45.000Z</time>
      </trkpt>
      <trkpt lat="42.71031" lon="1.14073">
        <ele>1844.5999755859</ele>
        <time>2023-07-26T11:22:46.000Z</time>
      </trkpt>
      <trkpt lat="42.71034" lon="1.14065">
        <ele>1843.5999755859</ele>
        <time>2023-07-26T11:22:51.000Z</time>
      </trkpt>
      <trkpt lat="42.71034" lon="1.14064">
        <ele>1843.4000244141</ele>
        <time>2023-07-26T11:22:52.000Z</time>
      </trkpt>
      <trkpt lat="42.71033" lon="1.14056">
        <ele>1842.1999511719</ele>
        <time>2023-07-26T11:22:58.000Z</time>
      </trkpt>
      <trkpt lat="42.71033" lon="1.14054">
        <ele>1841.8000488281</ele>
        <time>2023-07-26T11:23:00.000Z</time>
      </trkpt>
      <trkpt lat="42.71032" lon="1.14051">
        <ele>1841.1999511719</ele>
        <time>2023-07-26T11:23:03.000Z</time>
      </trkpt>
      <trkpt lat="42.71031" lon="1.14048">
        <ele>1840.5999755859</ele>
        <time>2023-07-26T11:23:07.000Z</time>
      </trkpt>
      <trkpt lat="42.7103" lon="1.14046">
        <ele>1840.1999511719</ele>
        <time>2023-07-26T11:23:09.000Z</time>
      </trkpt>
      <trkpt lat="42.71029" lon="1.14039">
        <ele>1839.1999511719</ele>
        <time>2023-07-26T11:23:15.000Z</time>
      </trkpt>
      <trkpt lat="42.71029" lon="1.14038">
        <ele>1839</ele>
        <time>2023-07-26T11:23:16.000Z</time>
      </trkpt>
      <trkpt lat="42.71029" lon="1.14035">
        <ele>1838</ele>
        <time>2023-07-26T11:23:22.000Z</time>
      </trkpt>
      <trkpt lat="42.71029" lon="1.14035">
        <ele>1837.8000488281</ele>
        <time>2023-07-26T11:23:23.000Z</time>
      </trkpt>
      <trkpt lat="42.71032" lon="1.14034">
        <ele>1836.8000488281</ele>
        <time>2023-07-26T11:23:29.000Z</time>
      </trkpt>
      <trkpt lat="42.71033" lon="1.14034">
        <ele>1836.8000488281</ele>
        <time>2023-07-26T11:23:30.000Z</time>
      </trkpt>
      <trkpt lat="42.71038" lon="1.14031">
        <ele>1835.5999755859</ele>
        <time>2023-07-26T11:23:36.000Z</time>
      </trkpt>
      <trkpt lat="42.71039" lon="1.1403">
        <ele>1835.4000244141</ele>
        <time>2023-07-26T11:23:37.000Z</time>
      </trkpt>
      <trkpt lat="42.71042" lon="1.14028">
        <ele>1834.5999755859</ele>
        <time>2023-07-26T11:23:41.000Z</time>
      </trkpt>
      <trkpt lat="42.71043" lon="1.14027">
        <ele>1834</ele>
        <time>2023-07-26T11:23:44.000Z</time>
      </trkpt>
      <trkpt lat="42.71044" lon="1.14025">
        <ele>1833.4000244141</ele>
        <time>2023-07-26T11:23:47.000Z</time>
      </trkpt>
      <trkpt lat="42.71046" lon="1.14018">
        <ele>1832.5999755859</ele>
        <time>2023-07-26T11:23:53.000Z</time>
      </trkpt>
      <trkpt lat="42.71046" lon="1.14015">
        <ele>1832.4000244141</ele>
        <time>2023-07-26T11:23:55.000Z</time>
      </trkpt>
      <trkpt lat="42.71046" lon="1.14013">
        <ele>1831.5999755859</ele>
        <time>2023-07-26T11:24:01.000Z</time>
      </trkpt>
      <trkpt lat="42.71047" lon="1.14011">
        <ele>1831.1999511719</ele>
        <time>2023-07-26T11:24:03.000Z</time>
      </trkpt>
      <trkpt lat="42.71049" lon="1.14012">
        <ele>1830.1999511719</ele>
        <time>2023-07-26T11:24:09.000Z</time>
      </trkpt>
      <trkpt lat="42.71049" lon="1.1401">
        <ele>1829</ele>
        <time>2023-07-26T11:24:17.000Z</time>
      </trkpt>
      <trkpt lat="42.71049" lon="1.1401">
        <ele>1829</ele>
        <time>2023-07-26T11:24:18.000Z</time>
      </trkpt>
      <trkpt lat="42.71049" lon="1.14008">
        <ele>1828</ele>
        <time>2023-07-26T11:24:23.000Z</time>
      </trkpt>
      <trkpt lat="42.7105" lon="1.14007">
        <ele>1827.5999755859</ele>
        <time>2023-07-26T11:24:25.000Z</time>
      </trkpt>
      <trkpt lat="42.71052" lon="1.14008">
        <ele>1827</ele>
        <time>2023-07-26T11:24:31.000Z</time>
      </trkpt>
      <trkpt lat="42.71052" lon="1.1401">
        <ele>1826.8000488281</ele>
        <time>2023-07-26T11:24:32.000Z</time>
      </trkpt>
      <trkpt lat="42.71054" lon="1.14012">
        <ele>1825.8000488281</ele>
        <time>2023-07-26T11:24:37.000Z</time>
      </trkpt>
      <trkpt lat="42.71056" lon="1.14014">
        <ele>1825</ele>
        <time>2023-07-26T11:24:40.000Z</time>
      </trkpt>
      <trkpt lat="42.71057" lon="1.14014">
        <ele>1824.5999755859</ele>
        <time>2023-07-26T11:24:42.000Z</time>
      </trkpt>
      <trkpt lat="42.71063" lon="1.14012">
        <ele>1823.4000244141</ele>
        <time>2023-07-26T11:24:47.000Z</time>
      </trkpt>
      <trkpt lat="42.71064" lon="1.14008">
        <ele>1822.4000244141</ele>
        <time>2023-07-26T11:24:51.000Z</time>
      </trkpt>
      <trkpt lat="42.71065" lon="1.14007">
        <ele>1822</ele>
        <time>2023-07-26T11:24:54.000Z</time>
      </trkpt>
      <trkpt lat="42.71066" lon="1.14007">
        <ele>1821.4000244141</ele>
        <time>2023-07-26T11:24:57.000Z</time>
      </trkpt>
      <trkpt lat="42.71067" lon="1.14007">
        <ele>1820.4000244141</ele>
        <time>2023-07-26T11:25:02.000Z</time>
      </trkpt>
      <trkpt lat="42.71067" lon="1.14008">
        <ele>1820.4000244141</ele>
        <time>2023-07-26T11:25:03.000Z</time>
      </trkpt>
      <trkpt lat="42.71068" lon="1.1401">
        <ele>1820.1999511719</ele>
        <time>2023-07-26T11:25:11.000Z</time>
      </trkpt>
      <trkpt lat="42.71068" lon="1.14008">
        <ele>1820.1999511719</ele>
        <time>2023-07-26T11:25:21.000Z</time>
      </trkpt>
      <trkpt lat="42.71065" lon="1.14009">
        <ele>1820.4000244141</ele>
        <time>2023-07-26T11:25:29.000Z</time>
      </trkpt>
      <trkpt lat="42.71066" lon="1.14009">
        <ele>1820.4000244141</ele>
        <time>2023-07-26T11:25:39.000Z</time>
      </trkpt>
      <trkpt lat="42.71069" lon="1.14013">
        <ele>1820.5999755859</ele>
        <time>2023-07-26T11:25:49.000Z</time>
      </trkpt>
      <trkpt lat="42.7107" lon="1.14008">
        <ele>1820.8000488281</ele>
        <time>2023-07-26T11:25:58.000Z</time>
      </trkpt>
      <trkpt lat="42.71066" lon="1.14004">
        <ele>1820.8000488281</ele>
        <time>2023-07-26T11:26:05.000Z</time>
      </trkpt>
      <trkpt lat="42.71065" lon="1.14002">
        <ele>1820.8000488281</ele>
        <time>2023-07-26T11:26:14.000Z</time>
      </trkpt>
      <trkpt lat="42.71067" lon="1.14006">
        <ele>1820.5999755859</ele>
        <time>2023-07-26T11:26:21.000Z</time>
      </trkpt>
      <trkpt lat="42.7107" lon="1.14003">
        <ele>1820.5999755859</ele>
        <time>2023-07-26T11:26:28.000Z</time>
      </trkpt>
      <trkpt lat="42.71075" lon="1.13999">
        <ele>1819.1999511719</ele>
        <time>2023-07-26T11:26:36.000Z</time>
      </trkpt>
      <trkpt lat="42.71079" lon="1.13996">
        <ele>1818.1999511719</ele>
        <time>2023-07-26T11:26:42.000Z</time>
      </trkpt>
      <trkpt lat="42.71079" lon="1.13996">
        <ele>1818.1999511719</ele>
        <time>2023-07-26T11:26:43.000Z</time>
      </trkpt>
      <trkpt lat="42.7108" lon="1.13996">
        <ele>1817.1999511719</ele>
        <time>2023-07-26T11:26:47.000Z</time>
      </trkpt>
      <trkpt lat="42.71081" lon="1.13996">
        <ele>1816.5999755859</ele>
        <time>2023-07-26T11:26:49.000Z</time>
      </trkpt>
      <trkpt lat="42.71083" lon="1.13996">
        <ele>1816</ele>
        <time>2023-07-26T11:26:51.000Z</time>
      </trkpt>
      <trkpt lat="42.71085" lon="1.13998">
        <ele>1815</ele>
        <time>2023-07-26T11:26:56.000Z</time>
      </trkpt>
      <trkpt lat="42.71086" lon="1.13998">
        <ele>1814.5999755859</ele>
        <time>2023-07-26T11:26:58.000Z</time>
      </trkpt>
      <trkpt lat="42.71088" lon="1.13998">
        <ele>1813.8000488281</ele>
        <time>2023-07-26T11:27:03.000Z</time>
      </trkpt>
      <trkpt lat="42.7109" lon="1.13998">
        <ele>1813.5999755859</ele>
        <time>2023-07-26T11:27:05.000Z</time>
      </trkpt>
      <trkpt lat="42.71092" lon="1.13995">
        <ele>1813</ele>
        <time>2023-07-26T11:27:11.000Z</time>
      </trkpt>
      <trkpt lat="42.71092" lon="1.13993">
        <ele>1812.8000488281</ele>
        <time>2023-07-26T11:27:16.000Z</time>
      </trkpt>
      <trkpt lat="42.71093" lon="1.1399">
        <ele>1812</ele>
        <time>2023-07-26T11:27:19.000Z</time>
      </trkpt>
      <trkpt lat="42.71094" lon="1.13987">
        <ele>1811.5999755859</ele>
        <time>2023-07-26T11:27:24.000Z</time>
      </trkpt>
      <trkpt lat="42.71095" lon="1.13985">
        <ele>1810.8000488281</ele>
        <time>2023-07-26T11:27:27.000Z</time>
      </trkpt>
      <trkpt lat="42.71095" lon="1.13984">
        <ele>1810.4000244141</ele>
        <time>2023-07-26T11:27:28.000Z</time>
      </trkpt>
      <trkpt lat="42.71094" lon="1.13981">
        <ele>1809.1999511719</ele>
        <time>2023-07-26T11:27:34.000Z</time>
      </trkpt>
      <trkpt lat="42.71094" lon="1.13979">
        <ele>1809</ele>
        <time>2023-07-26T11:27:36.000Z</time>
      </trkpt>
      <trkpt lat="42.71094" lon="1.13978">
        <ele>1808.1999511719</ele>
        <time>2023-07-26T11:27:41.000Z</time>
      </trkpt>
      <trkpt lat="42.71095" lon="1.13976">
        <ele>1807.8000488281</ele>
        <time>2023-07-26T11:27:43.000Z</time>
      </trkpt>
      <trkpt lat="42.71096" lon="1.13972">
        <ele>1807</ele>
        <time>2023-07-26T11:27:48.000Z</time>
      </trkpt>
      <trkpt lat="42.71097" lon="1.1397">
        <ele>1806.5999755859</ele>
        <time>2023-07-26T11:27:51.000Z</time>
      </trkpt>
      <trkpt lat="42.71098" lon="1.13966">
        <ele>1805.8000488281</ele>
        <time>2023-07-26T11:27:56.000Z</time>
      </trkpt>
      <trkpt lat="42.71098" lon="1.13966">
        <ele>1805.4000244141</ele>
        <time>2023-07-26T11:27:58.000Z</time>
      </trkpt>
      <trkpt lat="42.711" lon="1.13963">
        <ele>1804.8000488281</ele>
        <time>2023-07-26T11:28:03.000Z</time>
      </trkpt>
      <trkpt lat="42.711" lon="1.13962">
        <ele>1804</ele>
        <time>2023-07-26T11:28:06.000Z</time>
      </trkpt>
      <trkpt lat="42.71101" lon="1.1396">
        <ele>1803.5999755859</ele>
        <time>2023-07-26T11:28:09.000Z</time>
      </trkpt>
      <trkpt lat="42.71103" lon="1.13961">
        <ele>1803</ele>
        <time>2023-07-26T11:28:12.000Z</time>
      </trkpt>
      <trkpt lat="42.71105" lon="1.13959">
        <ele>1802.5999755859</ele>
        <time>2023-07-26T11:28:15.000Z</time>
      </trkpt>
      <trkpt lat="42.71107" lon="1.13954">
        <ele>1801.5999755859</ele>
        <time>2023-07-26T11:28:21.000Z</time>
      </trkpt>
      <trkpt lat="42.71108" lon="1.13947">
        <ele>1800.5999755859</ele>
        <time>2023-07-26T11:28:29.000Z</time>
      </trkpt>
      <trkpt lat="42.71108" lon="1.13947">
        <ele>1800.4000244141</ele>
        <time>2023-07-26T11:28:30.000Z</time>
      </trkpt>
      <trkpt lat="42.7111" lon="1.13943">
        <ele>1799.5999755859</ele>
        <time>2023-07-26T11:28:35.000Z</time>
      </trkpt>
      <trkpt lat="42.7111" lon="1.13942">
        <ele>1799.4000244141</ele>
        <time>2023-07-26T11:28:36.000Z</time>
      </trkpt>
      <trkpt lat="42.71112" lon="1.13938">
        <ele>1798.1999511719</ele>
        <time>2023-07-26T11:28:43.000Z</time>
      </trkpt>
      <trkpt lat="42.71113" lon="1.13934">
        <ele>1797.1999511719</ele>
        <time>2023-07-26T11:28:48.000Z</time>
      </trkpt>
      <trkpt lat="42.71113" lon="1.13928">
        <ele>1796.5999755859</ele>
        <time>2023-07-26T11:28:52.000Z</time>
      </trkpt>
      <trkpt lat="42.71113" lon="1.13927">
        <ele>1796</ele>
        <time>2023-07-26T11:28:54.000Z</time>
      </trkpt>
      <trkpt lat="42.71113" lon="1.13926">
        <ele>1795.1999511719</ele>
        <time>2023-07-26T11:28:58.000Z</time>
      </trkpt>
      <trkpt lat="42.71113" lon="1.13925">
        <ele>1795</ele>
        <time>2023-07-26T11:28:59.000Z</time>
      </trkpt>
      <trkpt lat="42.71113" lon="1.1392">
        <ele>1794.1999511719</ele>
        <time>2023-07-26T11:29:04.000Z</time>
      </trkpt>
      <trkpt lat="42.71113" lon="1.1392">
        <ele>1794</ele>
        <time>2023-07-26T11:29:05.000Z</time>
      </trkpt>
      <trkpt lat="42.71113" lon="1.13914">
        <ele>1793</ele>
        <time>2023-07-26T11:29:10.000Z</time>
      </trkpt>
      <trkpt lat="42.71113" lon="1.13913">
        <ele>1792.5999755859</ele>
        <time>2023-07-26T11:29:12.000Z</time>
      </trkpt>
      <trkpt lat="42.71115" lon="1.1391">
        <ele>1791.8000488281</ele>
        <time>2023-07-26T11:29:16.000Z</time>
      </trkpt>
      <trkpt lat="42.71118" lon="1.13904">
        <ele>1790.5999755859</ele>
        <time>2023-07-26T11:29:22.000Z</time>
      </trkpt>
      <trkpt lat="42.71121" lon="1.13897">
        <ele>1789.5999755859</ele>
        <time>2023-07-26T11:29:28.000Z</time>
      </trkpt>
      <trkpt lat="42.71121" lon="1.13896">
        <ele>1789.1999511719</ele>
        <time>2023-07-26T11:29:29.000Z</time>
      </trkpt>
      <trkpt lat="42.71123" lon="1.13892">
        <ele>1788.5999755859</ele>
        <time>2023-07-26T11:29:33.000Z</time>
      </trkpt>
      <trkpt lat="42.71124" lon="1.13886">
        <ele>1787.5999755859</ele>
        <time>2023-07-26T11:29:37.000Z</time>
      </trkpt>
      <trkpt lat="42.71124" lon="1.13885">
        <ele>1787.4000244141</ele>
        <time>2023-07-26T11:29:38.000Z</time>
      </trkpt>
      <trkpt lat="42.71125" lon="1.1388">
        <ele>1786.1999511719</ele>
        <time>2023-07-26T11:29:43.000Z</time>
      </trkpt>
      <trkpt lat="42.71126" lon="1.13877">
        <ele>1785.5999755859</ele>
        <time>2023-07-26T11:29:46.000Z</time>
      </trkpt>
      <trkpt lat="42.71127" lon="1.13874">
        <ele>1785.1999511719</ele>
        <time>2023-07-26T11:29:48.000Z</time>
      </trkpt>
      <trkpt lat="42.71128" lon="1.13869">
        <ele>1784</ele>
        <time>2023-07-26T11:29:52.000Z</time>
      </trkpt>
      <trkpt lat="42.71128" lon="1.13867">
        <ele>1783.4000244141</ele>
        <time>2023-07-26T11:29:55.000Z</time>
      </trkpt>
      <trkpt lat="42.71129" lon="1.13863">
        <ele>1783</ele>
        <time>2023-07-26T11:29:58.000Z</time>
      </trkpt>
      <trkpt lat="42.71129" lon="1.13854">
        <ele>1782.1999511719</ele>
        <time>2023-07-26T11:30:04.000Z</time>
      </trkpt>
      <trkpt lat="42.71128" lon="1.13853">
        <ele>1782</ele>
        <time>2023-07-26T11:30:05.000Z</time>
      </trkpt>
      <trkpt lat="42.71128" lon="1.13847">
        <ele>1781</ele>
        <time>2023-07-26T11:30:12.000Z</time>
      </trkpt>
      <trkpt lat="42.71128" lon="1.13847">
        <ele>1780.8000488281</ele>
        <time>2023-07-26T11:30:13.000Z</time>
      </trkpt>
      <trkpt lat="42.71131" lon="1.13847">
        <ele>1780.1999511719</ele>
        <time>2023-07-26T11:30:20.000Z</time>
      </trkpt>
      <trkpt lat="42.7113" lon="1.13842">
        <ele>1779.8000488281</ele>
        <time>2023-07-26T11:30:28.000Z</time>
      </trkpt>
      <trkpt lat="42.7113" lon="1.13841">
        <ele>1779.5999755859</ele>
        <time>2023-07-26T11:30:29.000Z</time>
      </trkpt>
      <trkpt lat="42.71132" lon="1.13832">
        <ele>1779.1999511719</ele>
        <time>2023-07-26T11:30:35.000Z</time>
      </trkpt>
      <trkpt lat="42.71137" lon="1.13826">
        <ele>1778.5999755859</ele>
        <time>2023-07-26T11:30:39.000Z</time>
      </trkpt>
      <trkpt lat="42.7114" lon="1.13823">
        <ele>1778.4000244141</ele>
        <time>2023-07-26T11:30:41.000Z</time>
      </trkpt>
      <trkpt lat="42.71143" lon="1.13818">
        <ele>1777.5999755859</ele>
        <time>2023-07-26T11:30:47.000Z</time>
      </trkpt>
      <trkpt lat="42.71145" lon="1.13808">
        <ele>1776.8000488281</ele>
        <time>2023-07-26T11:30:56.000Z</time>
      </trkpt>
      <trkpt lat="42.7115" lon="1.13803">
        <ele>1776.5999755859</ele>
        <time>2023-07-26T11:31:03.000Z</time>
      </trkpt>
      <trkpt lat="42.71152" lon="1.13801">
        <ele>1776.4000244141</ele>
        <time>2023-07-26T11:31:05.000Z</time>
      </trkpt>
      <trkpt lat="42.71154" lon="1.13794">
        <ele>1776</ele>
        <time>2023-07-26T11:31:13.000Z</time>
      </trkpt>
      <trkpt lat="42.71158" lon="1.1379">
        <ele>1776</ele>
        <time>2023-07-26T11:31:20.000Z</time>
      </trkpt>
      <trkpt lat="42.71161" lon="1.13792">
        <ele>1775.8000488281</ele>
        <time>2023-07-26T11:31:23.000Z</time>
      </trkpt>
      <trkpt lat="42.71161" lon="1.13792">
        <ele>1775.5999755859</ele>
        <time>2023-07-26T11:31:26.000Z</time>
      </trkpt>
      <trkpt lat="42.71162" lon="1.13792">
        <ele>1775.5999755859</ele>
        <time>2023-07-26T11:31:27.000Z</time>
      </trkpt>
      <trkpt lat="42.71165" lon="1.1379">
        <ele>1775.4000244141</ele>
        <time>2023-07-26T11:31:33.000Z</time>
      </trkpt>
      <trkpt lat="42.71168" lon="1.13786">
        <ele>1775.1999511719</ele>
        <time>2023-07-26T11:31:41.000Z</time>
      </trkpt>
      <trkpt lat="42.71172" lon="1.13782">
        <ele>1774.5999755859</ele>
        <time>2023-07-26T11:31:50.000Z</time>
      </trkpt>
      <trkpt lat="42.71178" lon="1.13787">
        <ele>1774.4000244141</ele>
        <time>2023-07-26T11:32:00.000Z</time>
      </trkpt>
      <trkpt lat="42.71182" lon="1.13792">
        <ele>1774.1999511719</ele>
        <time>2023-07-26T11:32:06.000Z</time>
      </trkpt>
      <trkpt lat="42.7119" lon="1.1379">
        <ele>1774</ele>
        <time>2023-07-26T11:32:14.000Z</time>
      </trkpt>
      <trkpt lat="42.71189" lon="1.13785">
        <ele>1773.8000488281</ele>
        <time>2023-07-26T11:32:20.000Z</time>
      </trkpt>
      <trkpt lat="42.71192" lon="1.13781">
        <ele>1773.8000488281</ele>
        <time>2023-07-26T11:32:27.000Z</time>
      </trkpt>
      <trkpt lat="42.71194" lon="1.13772">
        <ele>1773.8000488281</ele>
        <time>2023-07-26T11:32:34.000Z</time>
      </trkpt>
      <trkpt lat="42.71195" lon="1.13769">
        <ele>1774</ele>
        <time>2023-07-26T11:32:41.000Z</time>
      </trkpt>
      <trkpt lat="42.71195" lon="1.13767">
        <ele>1774</ele>
        <time>2023-07-26T11:32:49.000Z</time>
      </trkpt>
      <trkpt lat="42.71194" lon="1.13768">
        <ele>1774</ele>
        <time>2023-07-26T11:32:55.000Z</time>
      </trkpt>
      <trkpt lat="42.71195" lon="1.13759">
        <ele>1774.1999511719</ele>
        <time>2023-07-26T11:33:03.000Z</time>
      </trkpt>
      <trkpt lat="42.71196" lon="1.13752">
        <ele>1774.5999755859</ele>
        <time>2023-07-26T11:33:10.000Z</time>
      </trkpt>
      <trkpt lat="42.71199" lon="1.13741">
        <ele>1775</ele>
        <time>2023-07-26T11:33:18.000Z</time>
      </trkpt>
      <trkpt lat="42.71201" lon="1.13729">
        <ele>1775</ele>
        <time>2023-07-26T11:33:26.000Z</time>
      </trkpt>
      <trkpt lat="42.71201" lon="1.13723">
        <ele>1774.4000244141</ele>
        <time>2023-07-26T11:33:34.000Z</time>
      </trkpt>
      <trkpt lat="42.71203" lon="1.13718">
        <ele>1773.8000488281</ele>
        <time>2023-07-26T11:33:42.000Z</time>
      </trkpt>
      <trkpt lat="42.71206" lon="1.13714">
        <ele>1773.5999755859</ele>
        <time>2023-07-26T11:33:50.000Z</time>
      </trkpt>
      <trkpt lat="42.71204" lon="1.13705">
        <ele>1773.8000488281</ele>
        <time>2023-07-26T11:33:58.000Z</time>
      </trkpt>
      <trkpt lat="42.71207" lon="1.137">
        <ele>1774</ele>
        <time>2023-07-26T11:34:05.000Z</time>
      </trkpt>
      <trkpt lat="42.71207" lon="1.13695">
        <ele>1773.8000488281</ele>
        <time>2023-07-26T11:34:14.000Z</time>
      </trkpt>
      <trkpt lat="42.7121" lon="1.13686">
        <ele>1773.5999755859</ele>
        <time>2023-07-26T11:34:22.000Z</time>
      </trkpt>
      <trkpt lat="42.7121" lon="1.13685">
        <ele>1773.5999755859</ele>
        <time>2023-07-26T11:34:23.000Z</time>
      </trkpt>
      <trkpt lat="42.71211" lon="1.13679">
        <ele>1773</ele>
        <time>2023-07-26T11:34:28.000Z</time>
      </trkpt>
      <trkpt lat="42.71213" lon="1.13672">
        <ele>1772.8000488281</ele>
        <time>2023-07-26T11:34:34.000Z</time>
      </trkpt>
      <trkpt lat="42.71216" lon="1.13665">
        <ele>1772.4000244141</ele>
        <time>2023-07-26T11:34:40.000Z</time>
      </trkpt>
      <trkpt lat="42.71216" lon="1.13664">
        <ele>1772.1999511719</ele>
        <time>2023-07-26T11:34:42.000Z</time>
      </trkpt>
      <trkpt lat="42.71219" lon="1.13656">
        <ele>1771.5999755859</ele>
        <time>2023-07-26T11:34:48.000Z</time>
      </trkpt>
      <trkpt lat="42.71221" lon="1.13652">
        <ele>1771.4000244141</ele>
        <time>2023-07-26T11:34:52.000Z</time>
      </trkpt>
      <trkpt lat="42.71222" lon="1.13649">
        <ele>1771</ele>
        <time>2023-07-26T11:34:54.000Z</time>
      </trkpt>
      <trkpt lat="42.71228" lon="1.13639">
        <ele>1770.5999755859</ele>
        <time>2023-07-26T11:35:03.000Z</time>
      </trkpt>
      <trkpt lat="42.7123" lon="1.13633">
        <ele>1770.1999511719</ele>
        <time>2023-07-26T11:35:06.000Z</time>
      </trkpt>
      <trkpt lat="42.71235" lon="1.13629">
        <ele>1769.8000488281</ele>
        <time>2023-07-26T11:35:11.000Z</time>
      </trkpt>
      <trkpt lat="42.7124" lon="1.13625">
        <ele>1769.5999755859</ele>
        <time>2023-07-26T11:35:18.000Z</time>
      </trkpt>
      <trkpt lat="42.71241" lon="1.13623">
        <ele>1769.1999511719</ele>
        <time>2023-07-26T11:35:20.000Z</time>
      </trkpt>
      <trkpt lat="42.71243" lon="1.13616">
        <ele>1768.5999755859</ele>
        <time>2023-07-26T11:35:24.000Z</time>
      </trkpt>
      <trkpt lat="42.71245" lon="1.13612">
        <ele>1768.1999511719</ele>
        <time>2023-07-26T11:35:27.000Z</time>
      </trkpt>
      <trkpt lat="42.71247" lon="1.13606">
        <ele>1767.1999511719</ele>
        <time>2023-07-26T11:35:32.000Z</time>
      </trkpt>
      <trkpt lat="42.71247" lon="1.13606">
        <ele>1767</ele>
        <time>2023-07-26T11:35:33.000Z</time>
      </trkpt>
      <trkpt lat="42.7125" lon="1.13602">
        <ele>1766</ele>
        <time>2023-07-26T11:35:38.000Z</time>
      </trkpt>
      <trkpt lat="42.71251" lon="1.136">
        <ele>1765.5999755859</ele>
        <time>2023-07-26T11:35:40.000Z</time>
      </trkpt>
      <trkpt lat="42.71255" lon="1.13595">
        <ele>1765</ele>
        <time>2023-07-26T11:35:46.000Z</time>
      </trkpt>
      <trkpt lat="42.71255" lon="1.13594">
        <ele>1764.8000488281</ele>
        <time>2023-07-26T11:35:47.000Z</time>
      </trkpt>
      <trkpt lat="42.71257" lon="1.13588">
        <ele>1763.8000488281</ele>
        <time>2023-07-26T11:35:53.000Z</time>
      </trkpt>
      <trkpt lat="42.71257" lon="1.13586">
        <ele>1763.5999755859</ele>
        <time>2023-07-26T11:35:55.000Z</time>
      </trkpt>
      <trkpt lat="42.71258" lon="1.13582">
        <ele>1762.8000488281</ele>
        <time>2023-07-26T11:36:01.000Z</time>
      </trkpt>
      <trkpt lat="42.71259" lon="1.1358">
        <ele>1762.4000244141</ele>
        <time>2023-07-26T11:36:03.000Z</time>
      </trkpt>
      <trkpt lat="42.7126" lon="1.13577">
        <ele>1761.5999755859</ele>
        <time>2023-07-26T11:36:07.000Z</time>
      </trkpt>
      <trkpt lat="42.71263" lon="1.13572">
        <ele>1761.4000244141</ele>
        <time>2023-07-26T11:36:11.000Z</time>
      </trkpt>
      <trkpt lat="42.71269" lon="1.13565">
        <ele>1760.8000488281</ele>
        <time>2023-07-26T11:36:19.000Z</time>
      </trkpt>
      <trkpt lat="42.7127" lon="1.13564">
        <ele>1760.5999755859</ele>
        <time>2023-07-26T11:36:21.000Z</time>
      </trkpt>
      <trkpt lat="42.71275" lon="1.13556">
        <ele>1760</ele>
        <time>2023-07-26T11:36:29.000Z</time>
      </trkpt>
      <trkpt lat="42.71276" lon="1.13554">
        <ele>1759.5999755859</ele>
        <time>2023-07-26T11:36:31.000Z</time>
      </trkpt>
      <trkpt lat="42.71279" lon="1.13545">
        <ele>1758.5999755859</ele>
        <time>2023-07-26T11:36:37.000Z</time>
      </trkpt>
      <trkpt lat="42.71284" lon="1.13533">
        <ele>1757.4000244141</ele>
        <time>2023-07-26T11:36:46.000Z</time>
      </trkpt>
      <trkpt lat="42.71285" lon="1.13532">
        <ele>1757.4000244141</ele>
        <time>2023-07-26T11:36:47.000Z</time>
      </trkpt>
      <trkpt lat="42.71288" lon="1.13523">
        <ele>1756.5999755859</ele>
        <time>2023-07-26T11:36:54.000Z</time>
      </trkpt>
      <trkpt lat="42.71289" lon="1.1352">
        <ele>1756.4000244141</ele>
        <time>2023-07-26T11:36:56.000Z</time>
      </trkpt>
      <trkpt lat="42.7129" lon="1.13513">
        <ele>1755.8000488281</ele>
        <time>2023-07-26T11:37:01.000Z</time>
      </trkpt>
      <trkpt lat="42.71293" lon="1.13503">
        <ele>1755.4000244141</ele>
        <time>2023-07-26T11:37:09.000Z</time>
      </trkpt>
      <trkpt lat="42.71297" lon="1.13489">
        <ele>1754.5999755859</ele>
        <time>2023-07-26T11:37:18.000Z</time>
      </trkpt>
      <trkpt lat="42.71298" lon="1.13487">
        <ele>1754.1999511719</ele>
        <time>2023-07-26T11:37:20.000Z</time>
      </trkpt>
      <trkpt lat="42.713" lon="1.13483">
        <ele>1753.5999755859</ele>
        <time>2023-07-26T11:37:25.000Z</time>
      </trkpt>
      <trkpt lat="42.71302" lon="1.1348">
        <ele>1753.1999511719</ele>
        <time>2023-07-26T11:37:28.000Z</time>
      </trkpt>
      <trkpt lat="42.71306" lon="1.13477">
        <ele>1752.4000244141</ele>
        <time>2023-07-26T11:37:34.000Z</time>
      </trkpt>
      <trkpt lat="42.71307" lon="1.13476">
        <ele>1752</ele>
        <time>2023-07-26T11:37:36.000Z</time>
      </trkpt>
      <trkpt lat="42.71309" lon="1.13474">
        <ele>1750.8000488281</ele>
        <time>2023-07-26T11:37:41.000Z</time>
      </trkpt>
      <trkpt lat="42.71309" lon="1.13474">
        <ele>1750.5999755859</ele>
        <time>2023-07-26T11:37:42.000Z</time>
      </trkpt>
      <trkpt lat="42.71311" lon="1.13471">
        <ele>1749.5999755859</ele>
        <time>2023-07-26T11:37:46.000Z</time>
      </trkpt>
      <trkpt lat="42.7131" lon="1.13468">
        <ele>1748.8000488281</ele>
        <time>2023-07-26T11:37:50.000Z</time>
      </trkpt>
      <trkpt lat="42.7131" lon="1.13468">
        <ele>1748.5999755859</ele>
        <time>2023-07-26T11:37:51.000Z</time>
      </trkpt>
      <trkpt lat="42.71311" lon="1.13465">
        <ele>1747.5999755859</ele>
        <time>2023-07-26T11:37:56.000Z</time>
      </trkpt>
      <trkpt lat="42.71313" lon="1.13463">
        <ele>1747</ele>
        <time>2023-07-26T11:37:58.000Z</time>
      </trkpt>
      <trkpt lat="42.71314" lon="1.13461">
        <ele>1746.4000244141</ele>
        <time>2023-07-26T11:38:01.000Z</time>
      </trkpt>
      <trkpt lat="42.71316" lon="1.13457">
        <ele>1745.4000244141</ele>
        <time>2023-07-26T11:38:06.000Z</time>
      </trkpt>
      <trkpt lat="42.71317" lon="1.13457">
        <ele>1745</ele>
        <time>2023-07-26T11:38:07.000Z</time>
      </trkpt>
      <trkpt lat="42.71318" lon="1.13454">
        <ele>1744.1999511719</ele>
        <time>2023-07-26T11:38:10.000Z</time>
      </trkpt>
      <trkpt lat="42.7132" lon="1.13449">
        <ele>1743.1999511719</ele>
        <time>2023-07-26T11:38:17.000Z</time>
      </trkpt>
      <trkpt lat="42.71324" lon="1.13444">
        <ele>1742</ele>
        <time>2023-07-26T11:38:24.000Z</time>
      </trkpt>
      <trkpt lat="42.71328" lon="1.13436">
        <ele>1741</ele>
        <time>2023-07-26T11:38:32.000Z</time>
      </trkpt>
      <trkpt lat="42.71327" lon="1.13432">
        <ele>1740</ele>
        <time>2023-07-26T11:38:37.000Z</time>
      </trkpt>
      <trkpt lat="42.71328" lon="1.13429">
        <ele>1739.4000244141</ele>
        <time>2023-07-26T11:38:40.000Z</time>
      </trkpt>
      <trkpt lat="42.7133" lon="1.13427">
        <ele>1738.8000488281</ele>
        <time>2023-07-26T11:38:42.000Z</time>
      </trkpt>
      <trkpt lat="42.71335" lon="1.1342">
        <ele>1737.8000488281</ele>
        <time>2023-07-26T11:38:48.000Z</time>
      </trkpt>
      <trkpt lat="42.71336" lon="1.13419">
        <ele>1737.4000244141</ele>
        <time>2023-07-26T11:38:49.000Z</time>
      </trkpt>
      <trkpt lat="42.71339" lon="1.13415">
        <ele>1736.5999755859</ele>
        <time>2023-07-26T11:38:53.000Z</time>
      </trkpt>
      <trkpt lat="42.71342" lon="1.13411">
        <ele>1736</ele>
        <time>2023-07-26T11:38:58.000Z</time>
      </trkpt>
      <trkpt lat="42.71342" lon="1.13409">
        <ele>1735.4000244141</ele>
        <time>2023-07-26T11:39:00.000Z</time>
      </trkpt>
      <trkpt lat="42.71344" lon="1.13404">
        <ele>1734.4000244141</ele>
        <time>2023-07-26T11:39:04.000Z</time>
      </trkpt>
      <trkpt lat="42.71344" lon="1.13402">
        <ele>1734</ele>
        <time>2023-07-26T11:39:05.000Z</time>
      </trkpt>
      <trkpt lat="42.71345" lon="1.13397">
        <ele>1733.4000244141</ele>
        <time>2023-07-26T11:39:09.000Z</time>
      </trkpt>
      <trkpt lat="42.71344" lon="1.13393">
        <ele>1732.4000244141</ele>
        <time>2023-07-26T11:39:15.000Z</time>
      </trkpt>
      <trkpt lat="42.71344" lon="1.13392">
        <ele>1732.1999511719</ele>
        <time>2023-07-26T11:39:16.000Z</time>
      </trkpt>
      <trkpt lat="42.71344" lon="1.13387">
        <ele>1731</ele>
        <time>2023-07-26T11:39:24.000Z</time>
      </trkpt>
      <trkpt lat="42.71345" lon="1.13386">
        <ele>1731</ele>
        <time>2023-07-26T11:39:25.000Z</time>
      </trkpt>
      <trkpt lat="42.71353" lon="1.13379">
        <ele>1729.8000488281</ele>
        <time>2023-07-26T11:39:32.000Z</time>
      </trkpt>
      <trkpt lat="42.71357" lon="1.13374">
        <ele>1728.8000488281</ele>
        <time>2023-07-26T11:39:39.000Z</time>
      </trkpt>
      <trkpt lat="42.71359" lon="1.13372">
        <ele>1728.4000244141</ele>
        <time>2023-07-26T11:39:41.000Z</time>
      </trkpt>
      <trkpt lat="42.7136" lon="1.13369">
        <ele>1727.8000488281</ele>
        <time>2023-07-26T11:39:44.000Z</time>
      </trkpt>
      <trkpt lat="42.71361" lon="1.13365">
        <ele>1727</ele>
        <time>2023-07-26T11:39:48.000Z</time>
      </trkpt>
      <trkpt lat="42.71361" lon="1.13363">
        <ele>1726.8000488281</ele>
        <time>2023-07-26T11:39:50.000Z</time>
      </trkpt>
      <trkpt lat="42.71362" lon="1.13358">
        <ele>1725.8000488281</ele>
        <time>2023-07-26T11:39:56.000Z</time>
      </trkpt>
      <trkpt lat="42.71361" lon="1.13355">
        <ele>1725.1999511719</ele>
        <time>2023-07-26T11:39:59.000Z</time>
      </trkpt>
      <trkpt lat="42.71361" lon="1.13353">
        <ele>1724.5999755859</ele>
        <time>2023-07-26T11:40:01.000Z</time>
      </trkpt>
      <trkpt lat="42.7136" lon="1.13351">
        <ele>1723.5999755859</ele>
        <time>2023-07-26T11:40:06.000Z</time>
      </trkpt>
      <trkpt lat="42.71361" lon="1.1335">
        <ele>1723.4000244141</ele>
        <time>2023-07-26T11:40:07.000Z</time>
      </trkpt>
      <trkpt lat="42.71364" lon="1.13348">
        <ele>1722.4000244141</ele>
        <time>2023-07-26T11:40:12.000Z</time>
      </trkpt>
      <trkpt lat="42.71363" lon="1.13346">
        <ele>1722.1999511719</ele>
        <time>2023-07-26T11:40:15.000Z</time>
      </trkpt>
      <trkpt lat="42.71364" lon="1.13341">
        <ele>1721.1999511719</ele>
        <time>2023-07-26T11:40:19.000Z</time>
      </trkpt>
      <trkpt lat="42.71365" lon="1.13339">
        <ele>1720.4000244141</ele>
        <time>2023-07-26T11:40:23.000Z</time>
      </trkpt>
      <trkpt lat="42.71365" lon="1.1334">
        <ele>1720.1999511719</ele>
        <time>2023-07-26T11:40:25.000Z</time>
      </trkpt>
      <trkpt lat="42.71366" lon="1.13341">
        <ele>1719.1999511719</ele>
        <time>2023-07-26T11:40:30.000Z</time>
      </trkpt>
      <trkpt lat="42.71365" lon="1.13342">
        <ele>1719</ele>
        <time>2023-07-26T11:40:31.000Z</time>
      </trkpt>
      <trkpt lat="42.71364" lon="1.13338">
        <ele>1717.8000488281</ele>
        <time>2023-07-26T11:40:38.000Z</time>
      </trkpt>
      <trkpt lat="42.71363" lon="1.13337">
        <ele>1717.5999755859</ele>
        <time>2023-07-26T11:40:39.000Z</time>
      </trkpt>
      <trkpt lat="42.7136" lon="1.13334">
        <ele>1716.5999755859</ele>
        <time>2023-07-26T11:40:43.000Z</time>
      </trkpt>
      <trkpt lat="42.7136" lon="1.13333">
        <ele>1716</ele>
        <time>2023-07-26T11:40:46.000Z</time>
      </trkpt>
      <trkpt lat="42.7136" lon="1.13331">
        <ele>1715.5999755859</ele>
        <time>2023-07-26T11:40:50.000Z</time>
      </trkpt>
      <trkpt lat="42.71362" lon="1.13329">
        <ele>1714.8000488281</ele>
        <time>2023-07-26T11:40:56.000Z</time>
      </trkpt>
      <trkpt lat="42.71361" lon="1.13328">
        <ele>1714.4000244141</ele>
        <time>2023-07-26T11:40:58.000Z</time>
      </trkpt>
      <trkpt lat="42.7136" lon="1.13323">
        <ele>1713.4000244141</ele>
        <time>2023-07-26T11:41:05.000Z</time>
      </trkpt>
      <trkpt lat="42.71361" lon="1.13321">
        <ele>1712.4000244141</ele>
        <time>2023-07-26T11:41:11.000Z</time>
      </trkpt>
      <trkpt lat="42.71361" lon="1.1332">
        <ele>1712.1999511719</ele>
        <time>2023-07-26T11:41:12.000Z</time>
      </trkpt>
      <trkpt lat="42.71362" lon="1.13318">
        <ele>1711.4000244141</ele>
        <time>2023-07-26T11:41:16.000Z</time>
      </trkpt>
      <trkpt lat="42.71362" lon="1.13315">
        <ele>1710.5999755859</ele>
        <time>2023-07-26T11:41:21.000Z</time>
      </trkpt>
      <trkpt lat="42.71361" lon="1.13313">
        <ele>1710.1999511719</ele>
        <time>2023-07-26T11:41:23.000Z</time>
      </trkpt>
      <trkpt lat="42.71363" lon="1.1331">
        <ele>1709</ele>
        <time>2023-07-26T11:41:29.000Z</time>
      </trkpt>
      <trkpt lat="42.71364" lon="1.13309">
        <ele>1709</ele>
        <time>2023-07-26T11:41:30.000Z</time>
      </trkpt>
      <trkpt lat="42.71365" lon="1.13306">
        <ele>1708</ele>
        <time>2023-07-26T11:41:34.000Z</time>
      </trkpt>
      <trkpt lat="42.71365" lon="1.13302">
        <ele>1707.1999511719</ele>
        <time>2023-07-26T11:41:39.000Z</time>
      </trkpt>
      <trkpt lat="42.71365" lon="1.133">
        <ele>1706.8000488281</ele>
        <time>2023-07-26T11:41:41.000Z</time>
      </trkpt>
      <trkpt lat="42.71366" lon="1.13296">
        <ele>1705.8000488281</ele>
        <time>2023-07-26T11:41:45.000Z</time>
      </trkpt>
      <trkpt lat="42.71366" lon="1.13295">
        <ele>1705.4000244141</ele>
        <time>2023-07-26T11:41:47.000Z</time>
      </trkpt>
      <trkpt lat="42.71366" lon="1.13293">
        <ele>1704.8000488281</ele>
        <time>2023-07-26T11:41:50.000Z</time>
      </trkpt>
      <trkpt lat="42.7137" lon="1.13289">
        <ele>1703.8000488281</ele>
        <time>2023-07-26T11:41:56.000Z</time>
      </trkpt>
      <trkpt lat="42.71371" lon="1.13287">
        <ele>1703.5999755859</ele>
        <time>2023-07-26T11:41:58.000Z</time>
      </trkpt>
      <trkpt lat="42.71379" lon="1.1328">
        <ele>1702.8000488281</ele>
        <time>2023-07-26T11:42:06.000Z</time>
      </trkpt>
      <trkpt lat="42.7138" lon="1.13279">
        <ele>1702.4000244141</ele>
        <time>2023-07-26T11:42:08.000Z</time>
      </trkpt>
      <trkpt lat="42.71381" lon="1.13276">
        <ele>1701.1999511719</ele>
        <time>2023-07-26T11:42:14.000Z</time>
      </trkpt>
      <trkpt lat="42.71383" lon="1.13272">
        <ele>1700.1999511719</ele>
        <time>2023-07-26T11:42:19.000Z</time>
      </trkpt>
      <trkpt lat="42.71384" lon="1.1327">
        <ele>1699.8000488281</ele>
        <time>2023-07-26T11:42:21.000Z</time>
      </trkpt>
      <trkpt lat="42.71387" lon="1.13267">
        <ele>1699.1999511719</ele>
        <time>2023-07-26T11:42:24.000Z</time>
      </trkpt>
      <trkpt lat="42.71389" lon="1.13262">
        <ele>1697.8000488281</ele>
        <time>2023-07-26T11:42:29.000Z</time>
      </trkpt>
      <trkpt lat="42.71391" lon="1.13258">
        <ele>1696.8000488281</ele>
        <time>2023-07-26T11:42:34.000Z</time>
      </trkpt>
      <trkpt lat="42.71395" lon="1.13251">
        <ele>1696</ele>
        <time>2023-07-26T11:42:39.000Z</time>
      </trkpt>
      <trkpt lat="42.71395" lon="1.1325">
        <ele>1695.8000488281</ele>
        <time>2023-07-26T11:42:40.000Z</time>
      </trkpt>
      <trkpt lat="42.714" lon="1.13242">
        <ele>1694.8000488281</ele>
        <time>2023-07-26T11:42:48.000Z</time>
      </trkpt>
      <trkpt lat="42.71401" lon="1.13239">
        <ele>1694.5999755859</ele>
        <time>2023-07-26T11:42:50.000Z</time>
      </trkpt>
      <trkpt lat="42.71406" lon="1.13234">
        <ele>1693.5999755859</ele>
        <time>2023-07-26T11:42:57.000Z</time>
      </trkpt>
      <trkpt lat="42.71408" lon="1.13232">
        <ele>1693.1999511719</ele>
        <time>2023-07-26T11:43:03.000Z</time>
      </trkpt>
      <trkpt lat="42.71408" lon="1.13233">
        <ele>1693</ele>
        <time>2023-07-26T11:43:07.000Z</time>
      </trkpt>
      <trkpt lat="42.71408" lon="1.13232">
        <ele>1693</ele>
        <time>2023-07-26T11:43:09.000Z</time>
      </trkpt>
      <trkpt lat="42.71408" lon="1.13232">
        <ele>1693</ele>
        <time>2023-07-26T11:43:10.000Z</time>
      </trkpt>
      <trkpt lat="42.7141" lon="1.13224">
        <ele>1692.5999755859</ele>
        <time>2023-07-26T11:43:24.000Z</time>
      </trkpt>
      <trkpt lat="42.71413" lon="1.13222">
        <ele>1691.8000488281</ele>
        <time>2023-07-26T11:43:31.000Z</time>
      </trkpt>
      <trkpt lat="42.71413" lon="1.13221">
        <ele>1691.5999755859</ele>
        <time>2023-07-26T11:43:32.000Z</time>
      </trkpt>
      <trkpt lat="42.71417" lon="1.13215">
        <ele>1691.1999511719</ele>
        <time>2023-07-26T11:43:40.000Z</time>
      </trkpt>
      <trkpt lat="42.71419" lon="1.1321">
        <ele>1690.5999755859</ele>
        <time>2023-07-26T11:43:49.000Z</time>
      </trkpt>
      <trkpt lat="42.71419" lon="1.13209">
        <ele>1690.4000244141</ele>
        <time>2023-07-26T11:43:50.000Z</time>
      </trkpt>
      <trkpt lat="42.71417" lon="1.13205">
        <ele>1689.8000488281</ele>
        <time>2023-07-26T11:43:58.000Z</time>
      </trkpt>
      <trkpt lat="42.71416" lon="1.13201">
        <ele>1689.4000244141</ele>
        <time>2023-07-26T11:44:01.000Z</time>
      </trkpt>
      <trkpt lat="42.71416" lon="1.13196">
        <ele>1688.5999755859</ele>
        <time>2023-07-26T11:44:05.000Z</time>
      </trkpt>
      <trkpt lat="42.71416" lon="1.13193">
        <ele>1688.1999511719</ele>
        <time>2023-07-26T11:44:09.000Z</time>
      </trkpt>
      <trkpt lat="42.71418" lon="1.13191">
        <ele>1687.5999755859</ele>
        <time>2023-07-26T11:44:13.000Z</time>
      </trkpt>
      <trkpt lat="42.71419" lon="1.13191">
        <ele>1687.1999511719</ele>
        <time>2023-07-26T11:44:15.000Z</time>
      </trkpt>
      <trkpt lat="42.71419" lon="1.13189">
        <ele>1686.5999755859</ele>
        <time>2023-07-26T11:44:24.000Z</time>
      </trkpt>
      <trkpt lat="42.7142" lon="1.13184">
        <ele>1686.4000244141</ele>
        <time>2023-07-26T11:44:35.000Z</time>
      </trkpt>
      <trkpt lat="42.71419" lon="1.13176">
        <ele>1685.4000244141</ele>
        <time>2023-07-26T11:44:48.000Z</time>
      </trkpt>
      <trkpt lat="42.71419" lon="1.13175">
        <ele>1685</ele>
        <time>2023-07-26T11:44:50.000Z</time>
      </trkpt>
      <trkpt lat="42.71419" lon="1.13172">
        <ele>1684</ele>
        <time>2023-07-26T11:44:54.000Z</time>
      </trkpt>
      <trkpt lat="42.71418" lon="1.13168">
        <ele>1683</ele>
        <time>2023-07-26T11:44:58.000Z</time>
      </trkpt>
      <trkpt lat="42.71418" lon="1.13167">
        <ele>1682.8000488281</ele>
        <time>2023-07-26T11:44:59.000Z</time>
      </trkpt>
      <trkpt lat="42.71419" lon="1.13159">
        <ele>1681.8000488281</ele>
        <time>2023-07-26T11:45:06.000Z</time>
      </trkpt>
      <trkpt lat="42.7142" lon="1.13157">
        <ele>1680.5999755859</ele>
        <time>2023-07-26T11:45:11.000Z</time>
      </trkpt>
      <trkpt lat="42.71423" lon="1.13152">
        <ele>1679.8000488281</ele>
        <time>2023-07-26T11:45:16.000Z</time>
      </trkpt>
      <trkpt lat="42.71423" lon="1.13151">
        <ele>1679.5999755859</ele>
        <time>2023-07-26T11:45:17.000Z</time>
      </trkpt>
      <trkpt lat="42.71425" lon="1.13142">
        <ele>1678.5999755859</ele>
        <time>2023-07-26T11:45:24.000Z</time>
      </trkpt>
      <trkpt lat="42.71425" lon="1.13141">
        <ele>1678.5999755859</ele>
        <time>2023-07-26T11:45:25.000Z</time>
      </trkpt>
      <trkpt lat="42.7143" lon="1.13132">
        <ele>1677.5999755859</ele>
        <time>2023-07-26T11:45:34.000Z</time>
      </trkpt>
      <trkpt lat="42.71432" lon="1.1313">
        <ele>1677.5999755859</ele>
        <time>2023-07-26T11:45:36.000Z</time>
      </trkpt>
      <trkpt lat="42.71435" lon="1.13124">
        <ele>1677.1999511719</ele>
        <time>2023-07-26T11:45:41.000Z</time>
      </trkpt>
      <trkpt lat="42.71437" lon="1.13113">
        <ele>1676.5999755859</ele>
        <time>2023-07-26T11:45:49.000Z</time>
      </trkpt>
      <trkpt lat="42.71438" lon="1.13112">
        <ele>1676.4000244141</ele>
        <time>2023-07-26T11:45:50.000Z</time>
      </trkpt>
      <trkpt lat="42.7144" lon="1.13104">
        <ele>1675.4000244141</ele>
        <time>2023-07-26T11:45:56.000Z</time>
      </trkpt>
      <trkpt lat="42.71441" lon="1.13102">
        <ele>1675</ele>
        <time>2023-07-26T11:45:58.000Z</time>
      </trkpt>
      <trkpt lat="42.71445" lon="1.13096">
        <ele>1674.4000244141</ele>
        <time>2023-07-26T11:46:07.000Z</time>
      </trkpt>
      <trkpt lat="42.71449" lon="1.13091">
        <ele>1674.4000244141</ele>
        <time>2023-07-26T11:46:14.000Z</time>
      </trkpt>
      <trkpt lat="42.71453" lon="1.13083">
        <ele>1674.4000244141</ele>
        <time>2023-07-26T11:46:21.000Z</time>
      </trkpt>
      <trkpt lat="42.71455" lon="1.13071">
        <ele>1673.4000244141</ele>
        <time>2023-07-26T11:46:29.000Z</time>
      </trkpt>
      <trkpt lat="42.71455" lon="1.1307">
        <ele>1673</ele>
        <time>2023-07-26T11:46:30.000Z</time>
      </trkpt>
      <trkpt lat="42.71455" lon="1.13067">
        <ele>1672.1999511719</ele>
        <time>2023-07-26T11:46:33.000Z</time>
      </trkpt>
      <trkpt lat="42.71457" lon="1.13063">
        <ele>1671.1999511719</ele>
        <time>2023-07-26T11:46:37.000Z</time>
      </trkpt>
      <trkpt lat="42.71458" lon="1.13062">
        <ele>1671.1999511719</ele>
        <time>2023-07-26T11:46:38.000Z</time>
      </trkpt>
      <trkpt lat="42.7146" lon="1.13054">
        <ele>1669.8000488281</ele>
        <time>2023-07-26T11:46:44.000Z</time>
      </trkpt>
      <trkpt lat="42.71461" lon="1.1305">
        <ele>1669.1999511719</ele>
        <time>2023-07-26T11:46:47.000Z</time>
      </trkpt>
      <trkpt lat="42.71462" lon="1.1305">
        <ele>1668.8000488281</ele>
        <time>2023-07-26T11:46:49.000Z</time>
      </trkpt>
      <trkpt lat="42.71465" lon="1.13045">
        <ele>1667.5999755859</ele>
        <time>2023-07-26T11:46:54.000Z</time>
      </trkpt>
      <trkpt lat="42.71467" lon="1.13038">
        <ele>1666.4000244141</ele>
        <time>2023-07-26T11:47:01.000Z</time>
      </trkpt>
      <trkpt lat="42.71467" lon="1.13035">
        <ele>1665.8000488281</ele>
        <time>2023-07-26T11:47:03.000Z</time>
      </trkpt>
      <trkpt lat="42.71468" lon="1.13033">
        <ele>1665.1999511719</ele>
        <time>2023-07-26T11:47:05.000Z</time>
      </trkpt>
      <trkpt lat="42.71472" lon="1.13027">
        <ele>1664.1999511719</ele>
        <time>2023-07-26T11:47:10.000Z</time>
      </trkpt>
      <trkpt lat="42.71473" lon="1.13025">
        <ele>1664</ele>
        <time>2023-07-26T11:47:11.000Z</time>
      </trkpt>
      <trkpt lat="42.71476" lon="1.1302">
        <ele>1663.1999511719</ele>
        <time>2023-07-26T11:47:17.000Z</time>
      </trkpt>
      <trkpt lat="42.71477" lon="1.13019">
        <ele>1663.1999511719</ele>
        <time>2023-07-26T11:47:18.000Z</time>
      </trkpt>
      <trkpt lat="42.71478" lon="1.13017">
        <ele>1662.4000244141</ele>
        <time>2023-07-26T11:47:23.000Z</time>
      </trkpt>
      <trkpt lat="42.71478" lon="1.13016">
        <ele>1662.1999511719</ele>
        <time>2023-07-26T11:47:27.000Z</time>
      </trkpt>
      <trkpt lat="42.7148" lon="1.13012">
        <ele>1661.5999755859</ele>
        <time>2023-07-26T11:47:31.000Z</time>
      </trkpt>
      <trkpt lat="42.71481" lon="1.1301">
        <ele>1661</ele>
        <time>2023-07-26T11:47:33.000Z</time>
      </trkpt>
      <trkpt lat="42.71483" lon="1.13009">
        <ele>1660.5999755859</ele>
        <time>2023-07-26T11:47:35.000Z</time>
      </trkpt>
      <trkpt lat="42.71486" lon="1.13005">
        <ele>1660</ele>
        <time>2023-07-26T11:47:39.000Z</time>
      </trkpt>
      <trkpt lat="42.71489" lon="1.13002">
        <ele>1659.1999511719</ele>
        <time>2023-07-26T11:47:42.000Z</time>
      </trkpt>
      <trkpt lat="42.7149" lon="1.13">
        <ele>1658.8000488281</ele>
        <time>2023-07-26T11:47:44.000Z</time>
      </trkpt>
      <trkpt lat="42.71493" lon="1.12997">
        <ele>1658.8000488281</ele>
        <time>2023-07-26T11:47:48.000Z</time>
      </trkpt>
      <trkpt lat="42.71499" lon="1.12992">
        <ele>1657.8000488281</ele>
        <time>2023-07-26T11:47:53.000Z</time>
      </trkpt>
      <trkpt lat="42.71504" lon="1.12988">
        <ele>1657.1999511719</ele>
        <time>2023-07-26T11:47:56.000Z</time>
      </trkpt>
      <trkpt lat="42.71506" lon="1.12987">
        <ele>1656.8000488281</ele>
        <time>2023-07-26T11:47:58.000Z</time>
      </trkpt>
      <trkpt lat="42.7151" lon="1.12985">
        <ele>1656</ele>
        <time>2023-07-26T11:48:02.000Z</time>
      </trkpt>
      <trkpt lat="42.71513" lon="1.12981">
        <ele>1655.8000488281</ele>
        <time>2023-07-26T11:48:07.000Z</time>
      </trkpt>
      <trkpt lat="42.71511" lon="1.12978">
        <ele>1655.4000244141</ele>
        <time>2023-07-26T11:48:12.000Z</time>
      </trkpt>
      <trkpt lat="42.71511" lon="1.12978">
        <ele>1655.4000244141</ele>
        <time>2023-07-26T11:48:13.000Z</time>
      </trkpt>
      <trkpt lat="42.71508" lon="1.12975">
        <ele>1655.8000488281</ele>
        <time>2023-07-26T11:48:21.000Z</time>
      </trkpt>
      <trkpt lat="42.71509" lon="1.12973">
        <ele>1656.4000244141</ele>
        <time>2023-07-26T11:48:28.000Z</time>
      </trkpt>
      <trkpt lat="42.71509" lon="1.12972">
        <ele>1656.8000488281</ele>
        <time>2023-07-26T11:48:31.000Z</time>
      </trkpt>
      <trkpt lat="42.71509" lon="1.12967">
        <ele>1657.4000244141</ele>
        <time>2023-07-26T11:48:36.000Z</time>
      </trkpt>
      <trkpt lat="42.71515" lon="1.12956">
        <ele>1656.1999511719</ele>
        <time>2023-07-26T11:48:44.000Z</time>
      </trkpt>
      <trkpt lat="42.71516" lon="1.12955">
        <ele>1656.4000244141</ele>
        <time>2023-07-26T11:48:52.000Z</time>
      </trkpt>
      <trkpt lat="42.71516" lon="1.12951">
        <ele>1655.8000488281</ele>
        <time>2023-07-26T11:48:56.000Z</time>
      </trkpt>
      <trkpt lat="42.71516" lon="1.12949">
        <ele>1655.5999755859</ele>
        <time>2023-07-26T11:48:58.000Z</time>
      </trkpt>
      <trkpt lat="42.71519" lon="1.12941">
        <ele>1655.4000244141</ele>
        <time>2023-07-26T11:49:08.000Z</time>
      </trkpt>
      <trkpt lat="42.71524" lon="1.12931">
        <ele>1654.8000488281</ele>
        <time>2023-07-26T11:49:16.000Z</time>
      </trkpt>
      <trkpt lat="42.71525" lon="1.1293">
        <ele>1654.5999755859</ele>
        <time>2023-07-26T11:49:17.000Z</time>
      </trkpt>
      <trkpt lat="42.71529" lon="1.12923">
        <ele>1655</ele>
        <time>2023-07-26T11:49:26.000Z</time>
      </trkpt>
      <trkpt lat="42.7153" lon="1.12911">
        <ele>1654.1999511719</ele>
        <time>2023-07-26T11:49:34.000Z</time>
      </trkpt>
      <trkpt lat="42.7153" lon="1.12908">
        <ele>1653.5999755859</ele>
        <time>2023-07-26T11:49:38.000Z</time>
      </trkpt>
      <trkpt lat="42.71531" lon="1.12905">
        <ele>1653.1999511719</ele>
        <time>2023-07-26T11:49:41.000Z</time>
      </trkpt>
      <trkpt lat="42.71533" lon="1.12898">
        <ele>1652.5999755859</ele>
        <time>2023-07-26T11:49:47.000Z</time>
      </trkpt>
      <trkpt lat="42.71533" lon="1.12893">
        <ele>1651.5999755859</ele>
        <time>2023-07-26T11:49:52.000Z</time>
      </trkpt>
      <trkpt lat="42.71533" lon="1.12891">
        <ele>1651.4000244141</ele>
        <time>2023-07-26T11:49:53.000Z</time>
      </trkpt>
      <trkpt lat="42.71533" lon="1.12885">
        <ele>1650.4000244141</ele>
        <time>2023-07-26T11:49:57.000Z</time>
      </trkpt>
      <trkpt lat="42.71533" lon="1.12875">
        <ele>1649.4000244141</ele>
        <time>2023-07-26T11:50:02.000Z</time>
      </trkpt>
      <trkpt lat="42.71534" lon="1.12872">
        <ele>1649.1999511719</ele>
        <time>2023-07-26T11:50:04.000Z</time>
      </trkpt>
      <trkpt lat="42.71536" lon="1.12861">
        <ele>1649</ele>
        <time>2023-07-26T11:50:11.000Z</time>
      </trkpt>
      <trkpt lat="42.71537" lon="1.12855">
        <ele>1649</ele>
        <time>2023-07-26T11:50:17.000Z</time>
      </trkpt>
      <trkpt lat="42.71537" lon="1.1285">
        <ele>1648</ele>
        <time>2023-07-26T11:50:23.000Z</time>
      </trkpt>
      <trkpt lat="42.71538" lon="1.12847">
        <ele>1648</ele>
        <time>2023-07-26T11:50:25.000Z</time>
      </trkpt>
      <trkpt lat="42.71539" lon="1.12835">
        <ele>1648</ele>
        <time>2023-07-26T11:50:32.000Z</time>
      </trkpt>
      <trkpt lat="42.71538" lon="1.12823">
        <ele>1648</ele>
        <time>2023-07-26T11:50:39.000Z</time>
      </trkpt>
      <trkpt lat="42.71538" lon="1.12816">
        <ele>1647.1999511719</ele>
        <time>2023-07-26T11:50:47.000Z</time>
      </trkpt>
      <trkpt lat="42.71538" lon="1.12815">
        <ele>1647</ele>
        <time>2023-07-26T11:50:48.000Z</time>
      </trkpt>
      <trkpt lat="42.71539" lon="1.12809">
        <ele>1646</ele>
        <time>2023-07-26T11:50:54.000Z</time>
      </trkpt>
      <trkpt lat="42.71539" lon="1.12807">
        <ele>1646</ele>
        <time>2023-07-26T11:50:55.000Z</time>
      </trkpt>
      <trkpt lat="42.71539" lon="1.128">
        <ele>1644.8000488281</ele>
        <time>2023-07-26T11:51:03.000Z</time>
      </trkpt>
      <trkpt lat="42.71539" lon="1.12793">
        <ele>1643.8000488281</ele>
        <time>2023-07-26T11:51:08.000Z</time>
      </trkpt>
      <trkpt lat="42.71538" lon="1.1279">
        <ele>1643.4000244141</ele>
        <time>2023-07-26T11:51:10.000Z</time>
      </trkpt>
      <trkpt lat="42.71538" lon="1.12786">
        <ele>1642.8000488281</ele>
        <time>2023-07-26T11:51:13.000Z</time>
      </trkpt>
      <trkpt lat="42.71539" lon="1.12782">
        <ele>1642</ele>
        <time>2023-07-26T11:51:17.000Z</time>
      </trkpt>
      <trkpt lat="42.7154" lon="1.12778">
        <ele>1641.5999755859</ele>
        <time>2023-07-26T11:51:20.000Z</time>
      </trkpt>
      <trkpt lat="42.71541" lon="1.12776">
        <ele>1640.4000244141</ele>
        <time>2023-07-26T11:51:25.000Z</time>
      </trkpt>
      <trkpt lat="42.71541" lon="1.12776">
        <ele>1640</ele>
        <time>2023-07-26T11:51:26.000Z</time>
      </trkpt>
      <trkpt lat="42.71543" lon="1.12767">
        <ele>1639</ele>
        <time>2023-07-26T11:51:30.000Z</time>
      </trkpt>
      <trkpt lat="42.71544" lon="1.12766">
        <ele>1638.5999755859</ele>
        <time>2023-07-26T11:51:32.000Z</time>
      </trkpt>
      <trkpt lat="42.71545" lon="1.12765">
        <ele>1638</ele>
        <time>2023-07-26T11:51:34.000Z</time>
      </trkpt>
      <trkpt lat="42.71552" lon="1.12761">
        <ele>1637.1999511719</ele>
        <time>2023-07-26T11:51:40.000Z</time>
      </trkpt>
      <trkpt lat="42.71556" lon="1.1276">
        <ele>1637</ele>
        <time>2023-07-26T11:51:44.000Z</time>
      </trkpt>
      <trkpt lat="42.71558" lon="1.12759">
        <ele>1636.1999511719</ele>
        <time>2023-07-26T11:51:49.000Z</time>
      </trkpt>
      <trkpt lat="42.71559" lon="1.12757">
        <ele>1635.8000488281</ele>
        <time>2023-07-26T11:51:51.000Z</time>
      </trkpt>
      <trkpt lat="42.71562" lon="1.12753">
        <ele>1634.8000488281</ele>
        <time>2023-07-26T11:51:54.000Z</time>
      </trkpt>
      <trkpt lat="42.71563" lon="1.12751">
        <ele>1634.5999755859</ele>
        <time>2023-07-26T11:51:55.000Z</time>
      </trkpt>
      <trkpt lat="42.71564" lon="1.1275">
        <ele>1633.5999755859</ele>
        <time>2023-07-26T11:51:58.000Z</time>
      </trkpt>
      <trkpt lat="42.71568" lon="1.12745">
        <ele>1632.4000244141</ele>
        <time>2023-07-26T11:52:03.000Z</time>
      </trkpt>
      <trkpt lat="42.7157" lon="1.12743">
        <ele>1632</ele>
        <time>2023-07-26T11:52:05.000Z</time>
      </trkpt>
      <trkpt lat="42.7157" lon="1.12735">
        <ele>1631.8000488281</ele>
        <time>2023-07-26T11:52:12.000Z</time>
      </trkpt>
      <trkpt lat="42.71569" lon="1.12726">
        <ele>1632</ele>
        <time>2023-07-26T11:52:19.000Z</time>
      </trkpt>
      <trkpt lat="42.71567" lon="1.12724">
        <ele>1632</ele>
        <time>2023-07-26T11:52:26.000Z</time>
      </trkpt>
      <trkpt lat="42.71563" lon="1.12717">
        <ele>1631.5999755859</ele>
        <time>2023-07-26T11:52:42.000Z</time>
      </trkpt>
      <trkpt lat="42.71561" lon="1.12708">
        <ele>1631.4000244141</ele>
        <time>2023-07-26T11:52:51.000Z</time>
      </trkpt>
      <trkpt lat="42.71561" lon="1.12706">
        <ele>1631.4000244141</ele>
        <time>2023-07-26T11:52:52.000Z</time>
      </trkpt>
      <trkpt lat="42.71562" lon="1.127">
        <ele>1630.1999511719</ele>
        <time>2023-07-26T11:52:58.000Z</time>
      </trkpt>
      <trkpt lat="42.71565" lon="1.12687">
        <ele>1630</ele>
        <time>2023-07-26T11:53:06.000Z</time>
      </trkpt>
      <trkpt lat="42.71569" lon="1.12675">
        <ele>1629.5999755859</ele>
        <time>2023-07-26T11:53:14.000Z</time>
      </trkpt>
      <trkpt lat="42.71571" lon="1.1267">
        <ele>1629.8000488281</ele>
        <time>2023-07-26T11:53:21.000Z</time>
      </trkpt>
      <trkpt lat="42.71576" lon="1.12659">
        <ele>1630.4000244141</ele>
        <time>2023-07-26T11:53:30.000Z</time>
      </trkpt>
      <trkpt lat="42.71576" lon="1.12653">
        <ele>1631.1999511719</ele>
        <time>2023-07-26T11:53:36.000Z</time>
      </trkpt>
      <trkpt lat="42.71575" lon="1.1265">
        <ele>1631.1999511719</ele>
        <time>2023-07-26T11:53:40.000Z</time>
      </trkpt>
      <trkpt lat="42.71576" lon="1.12639">
        <ele>1631</ele>
        <time>2023-07-26T11:53:49.000Z</time>
      </trkpt>
      <trkpt lat="42.71578" lon="1.12628">
        <ele>1630.5999755859</ele>
        <time>2023-07-26T11:53:58.000Z</time>
      </trkpt>
      <trkpt lat="42.71579" lon="1.12617">
        <ele>1630.4000244141</ele>
        <time>2023-07-26T11:54:05.000Z</time>
      </trkpt>
      <trkpt lat="42.71578" lon="1.1261">
        <ele>1630.1999511719</ele>
        <time>2023-07-26T11:54:09.000Z</time>
      </trkpt>
      <trkpt lat="42.71579" lon="1.12606">
        <ele>1630</ele>
        <time>2023-07-26T11:54:12.000Z</time>
      </trkpt>
      <trkpt lat="42.71584" lon="1.12594">
        <ele>1630.1999511719</ele>
        <time>2023-07-26T11:54:20.000Z</time>
      </trkpt>
      <trkpt lat="42.71586" lon="1.12591">
        <ele>1631</ele>
        <time>2023-07-26T11:54:26.000Z</time>
      </trkpt>
      <trkpt lat="42.71589" lon="1.12585">
        <ele>1630.8000488281</ele>
        <time>2023-07-26T11:54:34.000Z</time>
      </trkpt>
      <trkpt lat="42.71594" lon="1.12582">
        <ele>1630.5999755859</ele>
        <time>2023-07-26T11:54:40.000Z</time>
      </trkpt>
      <trkpt lat="42.71601" lon="1.12581">
        <ele>1629</ele>
        <time>2023-07-26T11:54:50.000Z</time>
      </trkpt>
      <trkpt lat="42.71609" lon="1.12576">
        <ele>1628</ele>
        <time>2023-07-26T11:54:58.000Z</time>
      </trkpt>
      <trkpt lat="42.71609" lon="1.12576">
        <ele>1627.8000488281</ele>
        <time>2023-07-26T11:54:59.000Z</time>
      </trkpt>
      <trkpt lat="42.71612" lon="1.12572">
        <ele>1627</ele>
        <time>2023-07-26T11:55:03.000Z</time>
      </trkpt>
      <trkpt lat="42.71616" lon="1.12568">
        <ele>1626</ele>
        <time>2023-07-26T11:55:07.000Z</time>
      </trkpt>
      <trkpt lat="42.71617" lon="1.12566">
        <ele>1625.4000244141</ele>
        <time>2023-07-26T11:55:09.000Z</time>
      </trkpt>
      <trkpt lat="42.71619" lon="1.12564">
        <ele>1625</ele>
        <time>2023-07-26T11:55:11.000Z</time>
      </trkpt>
      <trkpt lat="42.71621" lon="1.12558">
        <ele>1624</ele>
        <time>2023-07-26T11:55:16.000Z</time>
      </trkpt>
      <trkpt lat="42.71621" lon="1.12557">
        <ele>1623.8000488281</ele>
        <time>2023-07-26T11:55:17.000Z</time>
      </trkpt>
      <trkpt lat="42.71622" lon="1.12552">
        <ele>1623</ele>
        <time>2023-07-26T11:55:24.000Z</time>
      </trkpt>
      <trkpt lat="42.71622" lon="1.1255">
        <ele>1622.8000488281</ele>
        <time>2023-07-26T11:55:26.000Z</time>
      </trkpt>
      <trkpt lat="42.71622" lon="1.12545">
        <ele>1622.1999511719</ele>
        <time>2023-07-26T11:55:33.000Z</time>
      </trkpt>
      <trkpt lat="42.71624" lon="1.12542">
        <ele>1622.4000244141</ele>
        <time>2023-07-26T11:55:40.000Z</time>
      </trkpt>
      <trkpt lat="42.71626" lon="1.12535">
        <ele>1622</ele>
        <time>2023-07-26T11:55:48.000Z</time>
      </trkpt>
      <trkpt lat="42.71627" lon="1.12532">
        <ele>1621.8000488281</ele>
        <time>2023-07-26T11:55:50.000Z</time>
      </trkpt>
      <trkpt lat="42.71627" lon="1.12527">
        <ele>1621.5999755859</ele>
        <time>2023-07-26T11:55:54.000Z</time>
      </trkpt>
      <trkpt lat="42.71628" lon="1.12519">
        <ele>1621.1999511719</ele>
        <time>2023-07-26T11:56:00.000Z</time>
      </trkpt>
      <trkpt lat="42.7163" lon="1.12513">
        <ele>1621.1999511719</ele>
        <time>2023-07-26T11:56:06.000Z</time>
      </trkpt>
      <trkpt lat="42.71631" lon="1.12508">
        <ele>1621.5999755859</ele>
        <time>2023-07-26T11:56:11.000Z</time>
      </trkpt>
      <trkpt lat="42.71631" lon="1.12506">
        <ele>1621.4000244141</ele>
        <time>2023-07-26T11:56:19.000Z</time>
      </trkpt>
      <trkpt lat="42.71632" lon="1.125">
        <ele>1621.4000244141</ele>
        <time>2023-07-26T11:56:27.000Z</time>
      </trkpt>
      <trkpt lat="42.71632" lon="1.12493">
        <ele>1620.8000488281</ele>
        <time>2023-07-26T11:56:35.000Z</time>
      </trkpt>
      <trkpt lat="42.71629" lon="1.12487">
        <ele>1620.8000488281</ele>
        <time>2023-07-26T11:56:41.000Z</time>
      </trkpt>
      <trkpt lat="42.71629" lon="1.12488">
        <ele>1620.8000488281</ele>
        <time>2023-07-26T11:56:42.000Z</time>
      </trkpt>
      <trkpt lat="42.71626" lon="1.12479">
        <ele>1621</ele>
        <time>2023-07-26T11:56:49.000Z</time>
      </trkpt>
      <trkpt lat="42.71623" lon="1.12467">
        <ele>1621.4000244141</ele>
        <time>2023-07-26T11:56:58.000Z</time>
      </trkpt>
      <trkpt lat="42.71623" lon="1.1246">
        <ele>1621</ele>
        <time>2023-07-26T11:57:04.000Z</time>
      </trkpt>
      <trkpt lat="42.71627" lon="1.12451">
        <ele>1620.5999755859</ele>
        <time>2023-07-26T11:57:12.000Z</time>
      </trkpt>
      <trkpt lat="42.71628" lon="1.12447">
        <ele>1620</ele>
        <time>2023-07-26T11:57:17.000Z</time>
      </trkpt>
      <trkpt lat="42.71627" lon="1.12447">
        <ele>1619.8000488281</ele>
        <time>2023-07-26T11:57:24.000Z</time>
      </trkpt>
      <trkpt lat="42.71627" lon="1.12447">
        <ele>1619.8000488281</ele>
        <time>2023-07-26T11:57:25.000Z</time>
      </trkpt>
      <trkpt lat="42.71631" lon="1.12444">
        <ele>1619.4000244141</ele>
        <time>2023-07-26T11:57:32.000Z</time>
      </trkpt>
      <trkpt lat="42.71637" lon="1.12442">
        <ele>1619.1999511719</ele>
        <time>2023-07-26T11:57:40.000Z</time>
      </trkpt>
      <trkpt lat="42.71641" lon="1.12441">
        <ele>1618.4000244141</ele>
        <time>2023-07-26T11:57:45.000Z</time>
      </trkpt>
      <trkpt lat="42.71642" lon="1.1244">
        <ele>1618.1999511719</ele>
        <time>2023-07-26T11:57:47.000Z</time>
      </trkpt>
      <trkpt lat="42.71642" lon="1.12438">
        <ele>1617.1999511719</ele>
        <time>2023-07-26T11:57:51.000Z</time>
      </trkpt>
      <trkpt lat="42.71644" lon="1.12435">
        <ele>1616.1999511719</ele>
        <time>2023-07-26T11:57:55.000Z</time>
      </trkpt>
      <trkpt lat="42.71644" lon="1.12434">
        <ele>1615.8000488281</ele>
        <time>2023-07-26T11:57:56.000Z</time>
      </trkpt>
      <trkpt lat="42.71644" lon="1.12433">
        <ele>1615</ele>
        <time>2023-07-26T11:57:58.000Z</time>
      </trkpt>
      <trkpt lat="42.71644" lon="1.12426">
        <ele>1614</ele>
        <time>2023-07-26T11:58:03.000Z</time>
      </trkpt>
      <trkpt lat="42.71645" lon="1.12423">
        <ele>1612.8000488281</ele>
        <time>2023-07-26T11:58:07.000Z</time>
      </trkpt>
      <trkpt lat="42.71648" lon="1.1242">
        <ele>1612</ele>
        <time>2023-07-26T11:58:11.000Z</time>
      </trkpt>
      <trkpt lat="42.71649" lon="1.12419">
        <ele>1611.8000488281</ele>
        <time>2023-07-26T11:58:13.000Z</time>
      </trkpt>
      <trkpt lat="42.71653" lon="1.12415">
        <ele>1611.1999511719</ele>
        <time>2023-07-26T11:58:18.000Z</time>
      </trkpt>
      <trkpt lat="42.71657" lon="1.12409">
        <ele>1610.5999755859</ele>
        <time>2023-07-26T11:58:23.000Z</time>
      </trkpt>
      <trkpt lat="42.71658" lon="1.12405">
        <ele>1609.8000488281</ele>
        <time>2023-07-26T11:58:27.000Z</time>
      </trkpt>
      <trkpt lat="42.71659" lon="1.12404">
        <ele>1609.4000244141</ele>
        <time>2023-07-26T11:58:29.000Z</time>
      </trkpt>
      <trkpt lat="42.71661" lon="1.12399">
        <ele>1609.1999511719</ele>
        <time>2023-07-26T11:58:34.000Z</time>
      </trkpt>
      <trkpt lat="42.71662" lon="1.12394">
        <ele>1609.4000244141</ele>
        <time>2023-07-26T11:58:40.000Z</time>
      </trkpt>
      <trkpt lat="42.71662" lon="1.12389">
        <ele>1608.8000488281</ele>
        <time>2023-07-26T11:58:48.000Z</time>
      </trkpt>
      <trkpt lat="42.71661" lon="1.12389">
        <ele>1608.4000244141</ele>
        <time>2023-07-26T11:58:51.000Z</time>
      </trkpt>
      <trkpt lat="42.7166" lon="1.12387">
        <ele>1607</ele>
        <time>2023-07-26T11:58:56.000Z</time>
      </trkpt>
      <trkpt lat="42.71661" lon="1.12386">
        <ele>1606.5999755859</ele>
        <time>2023-07-26T11:59:02.000Z</time>
      </trkpt>
      <trkpt lat="42.71659" lon="1.12383">
        <ele>1605.8000488281</ele>
        <time>2023-07-26T11:59:07.000Z</time>
      </trkpt>
      <trkpt lat="42.71659" lon="1.12383">
        <ele>1605.4000244141</ele>
        <time>2023-07-26T11:59:08.000Z</time>
      </trkpt>
      <trkpt lat="42.71661" lon="1.12374">
        <ele>1605.1999511719</ele>
        <time>2023-07-26T11:59:16.000Z</time>
      </trkpt>
      <trkpt lat="42.71663" lon="1.12371">
        <ele>1604.5999755859</ele>
        <time>2023-07-26T11:59:19.000Z</time>
      </trkpt>
      <trkpt lat="42.71664" lon="1.12367">
        <ele>1603.8000488281</ele>
        <time>2023-07-26T11:59:25.000Z</time>
      </trkpt>
      <trkpt lat="42.71664" lon="1.12367">
        <ele>1603.5999755859</ele>
        <time>2023-07-26T11:59:26.000Z</time>
      </trkpt>
      <trkpt lat="42.71663" lon="1.12361">
        <ele>1603.1999511719</ele>
        <time>2023-07-26T11:59:32.000Z</time>
      </trkpt>
      <trkpt lat="42.71663" lon="1.1236">
        <ele>1602.4000244141</ele>
        <time>2023-07-26T11:59:36.000Z</time>
      </trkpt>
      <trkpt lat="42.71663" lon="1.12356">
        <ele>1601.8000488281</ele>
        <time>2023-07-26T11:59:40.000Z</time>
      </trkpt>
      <trkpt lat="42.71662" lon="1.12352">
        <ele>1601.4000244141</ele>
        <time>2023-07-26T11:59:44.000Z</time>
      </trkpt>
      <trkpt lat="42.71662" lon="1.12351">
        <ele>1601</ele>
        <time>2023-07-26T11:59:48.000Z</time>
      </trkpt>
      <trkpt lat="42.71664" lon="1.12347">
        <ele>1600.1999511719</ele>
        <time>2023-07-26T11:59:52.000Z</time>
      </trkpt>
      <trkpt lat="42.71664" lon="1.12345">
        <ele>1600</ele>
        <time>2023-07-26T11:59:54.000Z</time>
      </trkpt>
      <trkpt lat="42.71665" lon="1.12343">
        <ele>1599.1999511719</ele>
        <time>2023-07-26T11:59:59.000Z</time>
      </trkpt>
      <trkpt lat="42.71665" lon="1.12341">
        <ele>1598.4000244141</ele>
        <time>2023-07-26T12:00:02.000Z</time>
      </trkpt>
      <trkpt lat="42.71666" lon="1.1234">
        <ele>1598</ele>
        <time>2023-07-26T12:00:04.000Z</time>
      </trkpt>
      <trkpt lat="42.71667" lon="1.12336">
        <ele>1597</ele>
        <time>2023-07-26T12:00:08.000Z</time>
      </trkpt>
      <trkpt lat="42.71667" lon="1.12335">
        <ele>1596.5999755859</ele>
        <time>2023-07-26T12:00:10.000Z</time>
      </trkpt>
      <trkpt lat="42.71666" lon="1.12333">
        <ele>1596.1999511719</ele>
        <time>2023-07-26T12:00:13.000Z</time>
      </trkpt>
      <trkpt lat="42.71666" lon="1.12332">
        <ele>1596</ele>
        <time>2023-07-26T12:00:14.000Z</time>
      </trkpt>
      <trkpt lat="42.71664" lon="1.12333">
        <ele>1595</ele>
        <time>2023-07-26T12:00:18.000Z</time>
      </trkpt>
      <trkpt lat="42.71664" lon="1.12333">
        <ele>1594.8000488281</ele>
        <time>2023-07-26T12:00:19.000Z</time>
      </trkpt>
      <trkpt lat="42.71662" lon="1.1233">
        <ele>1593.8000488281</ele>
        <time>2023-07-26T12:00:24.000Z</time>
      </trkpt>
      <trkpt lat="42.71661" lon="1.12328">
        <ele>1593.1999511719</ele>
        <time>2023-07-26T12:00:27.000Z</time>
      </trkpt>
      <trkpt lat="42.71661" lon="1.12324">
        <ele>1592.5999755859</ele>
        <time>2023-07-26T12:00:31.000Z</time>
      </trkpt>
      <trkpt lat="42.71661" lon="1.12322">
        <ele>1592.1999511719</ele>
        <time>2023-07-26T12:00:33.000Z</time>
      </trkpt>
      <trkpt lat="42.71662" lon="1.12319">
        <ele>1591.4000244141</ele>
        <time>2023-07-26T12:00:37.000Z</time>
      </trkpt>
      <trkpt lat="42.71663" lon="1.12317">
        <ele>1590.8000488281</ele>
        <time>2023-07-26T12:00:40.000Z</time>
      </trkpt>
      <trkpt lat="42.71663" lon="1.12316">
        <ele>1590.1999511719</ele>
        <time>2023-07-26T12:00:43.000Z</time>
      </trkpt>
      <trkpt lat="42.71662" lon="1.12313">
        <ele>1589</ele>
        <time>2023-07-26T12:00:49.000Z</time>
      </trkpt>
      <trkpt lat="42.71663" lon="1.12308">
        <ele>1587.8000488281</ele>
        <time>2023-07-26T12:00:55.000Z</time>
      </trkpt>
      <trkpt lat="42.71662" lon="1.12306">
        <ele>1587.1999511719</ele>
        <time>2023-07-26T12:00:58.000Z</time>
      </trkpt>
      <trkpt lat="42.71662" lon="1.12305">
        <ele>1586.8000488281</ele>
        <time>2023-07-26T12:01:00.000Z</time>
      </trkpt>
      <trkpt lat="42.71662" lon="1.12303">
        <ele>1585.5999755859</ele>
        <time>2023-07-26T12:01:05.000Z</time>
      </trkpt>
      <trkpt lat="42.71662" lon="1.123">
        <ele>1584.5999755859</ele>
        <time>2023-07-26T12:01:09.000Z</time>
      </trkpt>
      <trkpt lat="42.71664" lon="1.12297">
        <ele>1583.8000488281</ele>
        <time>2023-07-26T12:01:13.000Z</time>
      </trkpt>
      <trkpt lat="42.71664" lon="1.12297">
        <ele>1583.4000244141</ele>
        <time>2023-07-26T12:01:14.000Z</time>
      </trkpt>
      <trkpt lat="42.71665" lon="1.12296">
        <ele>1582.1999511719</ele>
        <time>2023-07-26T12:01:19.000Z</time>
      </trkpt>
      <trkpt lat="42.71665" lon="1.12294">
        <ele>1581.5999755859</ele>
        <time>2023-07-26T12:01:22.000Z</time>
      </trkpt>
      <trkpt lat="42.71665" lon="1.12291">
        <ele>1581</ele>
        <time>2023-07-26T12:01:25.000Z</time>
      </trkpt>
      <trkpt lat="42.71665" lon="1.12285">
        <ele>1580</ele>
        <time>2023-07-26T12:01:29.000Z</time>
      </trkpt>
      <trkpt lat="42.71666" lon="1.12284">
        <ele>1579.4000244141</ele>
        <time>2023-07-26T12:01:31.000Z</time>
      </trkpt>
      <trkpt lat="42.71666" lon="1.12279">
        <ele>1579</ele>
        <time>2023-07-26T12:01:34.000Z</time>
      </trkpt>
      <trkpt lat="42.71666" lon="1.12274">
        <ele>1577.8000488281</ele>
        <time>2023-07-26T12:01:39.000Z</time>
      </trkpt>
      <trkpt lat="42.71667" lon="1.12272">
        <ele>1577</ele>
        <time>2023-07-26T12:01:42.000Z</time>
      </trkpt>
      <trkpt lat="42.71668" lon="1.12271">
        <ele>1576.5999755859</ele>
        <time>2023-07-26T12:01:44.000Z</time>
      </trkpt>
      <trkpt lat="42.71669" lon="1.12268">
        <ele>1575.4000244141</ele>
        <time>2023-07-26T12:01:48.000Z</time>
      </trkpt>
      <trkpt lat="42.7167" lon="1.12266">
        <ele>1574.8000488281</ele>
        <time>2023-07-26T12:01:50.000Z</time>
      </trkpt>
      <trkpt lat="42.7167" lon="1.12265">
        <ele>1574</ele>
        <time>2023-07-26T12:01:53.000Z</time>
      </trkpt>
      <trkpt lat="42.71669" lon="1.12264">
        <ele>1572.8000488281</ele>
        <time>2023-07-26T12:01:57.000Z</time>
      </trkpt>
      <trkpt lat="42.71669" lon="1.12264">
        <ele>1572.5999755859</ele>
        <time>2023-07-26T12:01:58.000Z</time>
      </trkpt>
      <trkpt lat="42.71667" lon="1.12265">
        <ele>1572</ele>
        <time>2023-07-26T12:02:01.000Z</time>
      </trkpt>
      <trkpt lat="42.71667" lon="1.12266">
        <ele>1571.8000488281</ele>
        <time>2023-07-26T12:02:02.000Z</time>
      </trkpt>
      <trkpt lat="42.71665" lon="1.12268">
        <ele>1570.8000488281</ele>
        <time>2023-07-26T12:02:06.000Z</time>
      </trkpt>
      <trkpt lat="42.71665" lon="1.12269">
        <ele>1570.1999511719</ele>
        <time>2023-07-26T12:02:09.000Z</time>
      </trkpt>
      <trkpt lat="42.71664" lon="1.12269">
        <ele>1569.5999755859</ele>
        <time>2023-07-26T12:02:11.000Z</time>
      </trkpt>
      <trkpt lat="42.71659" lon="1.12271">
        <ele>1568.5999755859</ele>
        <time>2023-07-26T12:02:17.000Z</time>
      </trkpt>
      <trkpt lat="42.71656" lon="1.12272">
        <ele>1568</ele>
        <time>2023-07-26T12:02:20.000Z</time>
      </trkpt>
      <trkpt lat="42.71654" lon="1.12272">
        <ele>1567.4000244141</ele>
        <time>2023-07-26T12:02:22.000Z</time>
      </trkpt>
      <trkpt lat="42.71651" lon="1.12272">
        <ele>1566.4000244141</ele>
        <time>2023-07-26T12:02:27.000Z</time>
      </trkpt>
      <trkpt lat="42.71651" lon="1.12272">
        <ele>1566</ele>
        <time>2023-07-26T12:02:29.000Z</time>
      </trkpt>
      <trkpt lat="42.71649" lon="1.12273">
        <ele>1565.4000244141</ele>
        <time>2023-07-26T12:02:32.000Z</time>
      </trkpt>
      <trkpt lat="42.71645" lon="1.12273">
        <ele>1564.1999511719</ele>
        <time>2023-07-26T12:02:37.000Z</time>
      </trkpt>
      <trkpt lat="42.71644" lon="1.12269">
        <ele>1563</ele>
        <time>2023-07-26T12:02:42.000Z</time>
      </trkpt>
      <trkpt lat="42.71645" lon="1.12266">
        <ele>1562.5999755859</ele>
        <time>2023-07-26T12:02:44.000Z</time>
      </trkpt>
      <trkpt lat="42.71646" lon="1.12264">
        <ele>1561.8000488281</ele>
        <time>2023-07-26T12:02:48.000Z</time>
      </trkpt>
      <trkpt lat="42.71646" lon="1.12262">
        <ele>1561</ele>
        <time>2023-07-26T12:02:51.000Z</time>
      </trkpt>
      <trkpt lat="42.71646" lon="1.12261">
        <ele>1560.5999755859</ele>
        <time>2023-07-26T12:02:53.000Z</time>
      </trkpt>
      <trkpt lat="42.71649" lon="1.12255">
        <ele>1559.5999755859</ele>
        <time>2023-07-26T12:02:58.000Z</time>
      </trkpt>
      <trkpt lat="42.71649" lon="1.12254">
        <ele>1559.4000244141</ele>
        <time>2023-07-26T12:02:59.000Z</time>
      </trkpt>
      <trkpt lat="42.71651" lon="1.12249">
        <ele>1558.5999755859</ele>
        <time>2023-07-26T12:03:05.000Z</time>
      </trkpt>
      <trkpt lat="42.71651" lon="1.12248">
        <ele>1558.1999511719</ele>
        <time>2023-07-26T12:03:07.000Z</time>
      </trkpt>
      <trkpt lat="42.71651" lon="1.12246">
        <ele>1557.5999755859</ele>
        <time>2023-07-26T12:03:13.000Z</time>
      </trkpt>
      <trkpt lat="42.71652" lon="1.12244">
        <ele>1557.4000244141</ele>
        <time>2023-07-26T12:03:14.000Z</time>
      </trkpt>
      <trkpt lat="42.71651" lon="1.12238">
        <ele>1556.4000244141</ele>
        <time>2023-07-26T12:03:19.000Z</time>
      </trkpt>
      <trkpt lat="42.71649" lon="1.12238">
        <ele>1555</ele>
        <time>2023-07-26T12:03:22.000Z</time>
      </trkpt>
      <trkpt lat="42.71648" lon="1.12239">
        <ele>1554.8000488281</ele>
        <time>2023-07-26T12:03:23.000Z</time>
      </trkpt>
      <trkpt lat="42.71646" lon="1.12241">
        <ele>1554</ele>
        <time>2023-07-26T12:03:26.000Z</time>
      </trkpt>
      <trkpt lat="42.71644" lon="1.12241">
        <ele>1552.8000488281</ele>
        <time>2023-07-26T12:03:30.000Z</time>
      </trkpt>
      <trkpt lat="42.71643" lon="1.12242">
        <ele>1552.1999511719</ele>
        <time>2023-07-26T12:03:32.000Z</time>
      </trkpt>
      <trkpt lat="42.7164" lon="1.12243">
        <ele>1551.5999755859</ele>
        <time>2023-07-26T12:03:35.000Z</time>
      </trkpt>
      <trkpt lat="42.7164" lon="1.12242">
        <ele>1551</ele>
        <time>2023-07-26T12:03:38.000Z</time>
      </trkpt>
      <trkpt lat="42.7164" lon="1.12242">
        <ele>1550.5999755859</ele>
        <time>2023-07-26T12:03:39.000Z</time>
      </trkpt>
      <trkpt lat="42.71635" lon="1.1224">
        <ele>1549.5999755859</ele>
        <time>2023-07-26T12:03:44.000Z</time>
      </trkpt>
      <trkpt lat="42.71632" lon="1.1224">
        <ele>1548.5999755859</ele>
        <time>2023-07-26T12:03:48.000Z</time>
      </trkpt>
      <trkpt lat="42.71632" lon="1.12239">
        <ele>1547.4000244141</ele>
        <time>2023-07-26T12:03:52.000Z</time>
      </trkpt>
      <trkpt lat="42.71632" lon="1.12238">
        <ele>1547.1999511719</ele>
        <time>2023-07-26T12:03:53.000Z</time>
      </trkpt>
      <trkpt lat="42.71634" lon="1.12237">
        <ele>1546.4000244141</ele>
        <time>2023-07-26T12:03:58.000Z</time>
      </trkpt>
      <trkpt lat="42.71633" lon="1.12236">
        <ele>1546</ele>
        <time>2023-07-26T12:04:00.000Z</time>
      </trkpt>
      <trkpt lat="42.71633" lon="1.12235">
        <ele>1545.8000488281</ele>
        <time>2023-07-26T12:04:01.000Z</time>
      </trkpt>
      <trkpt lat="42.71633" lon="1.12232">
        <ele>1545.4000244141</ele>
        <time>2023-07-26T12:04:03.000Z</time>
      </trkpt>
      <trkpt lat="42.71633" lon="1.1223">
        <ele>1544.5999755859</ele>
        <time>2023-07-26T12:04:06.000Z</time>
      </trkpt>
      <trkpt lat="42.71633" lon="1.12229">
        <ele>1544.4000244141</ele>
        <time>2023-07-26T12:04:07.000Z</time>
      </trkpt>
      <trkpt lat="42.71634" lon="1.12227">
        <ele>1543.1999511719</ele>
        <time>2023-07-26T12:04:13.000Z</time>
      </trkpt>
      <trkpt lat="42.71633" lon="1.12226">
        <ele>1542.8000488281</ele>
        <time>2023-07-26T12:04:14.000Z</time>
      </trkpt>
      <trkpt lat="42.71631" lon="1.12224">
        <ele>1542</ele>
        <time>2023-07-26T12:04:19.000Z</time>
      </trkpt>
      <trkpt lat="42.71631" lon="1.12223">
        <ele>1541.5999755859</ele>
        <time>2023-07-26T12:04:21.000Z</time>
      </trkpt>
      <trkpt lat="42.71632" lon="1.12221">
        <ele>1540.8000488281</ele>
        <time>2023-07-26T12:04:24.000Z</time>
      </trkpt>
      <trkpt lat="42.71633" lon="1.12217">
        <ele>1539.4000244141</ele>
        <time>2023-07-26T12:04:29.000Z</time>
      </trkpt>
      <trkpt lat="42.71634" lon="1.12216">
        <ele>1539.1999511719</ele>
        <time>2023-07-26T12:04:30.000Z</time>
      </trkpt>
      <trkpt lat="42.71635" lon="1.12211">
        <ele>1538.1999511719</ele>
        <time>2023-07-26T12:04:36.000Z</time>
      </trkpt>
      <trkpt lat="42.71635" lon="1.12207">
        <ele>1537.1999511719</ele>
        <time>2023-07-26T12:04:42.000Z</time>
      </trkpt>
      <trkpt lat="42.71635" lon="1.12204">
        <ele>1536.5999755859</ele>
        <time>2023-07-26T12:04:45.000Z</time>
      </trkpt>
      <trkpt lat="42.71634" lon="1.12203">
        <ele>1536.1999511719</ele>
        <time>2023-07-26T12:04:46.000Z</time>
      </trkpt>
      <trkpt lat="42.71634" lon="1.12198">
        <ele>1535</ele>
        <time>2023-07-26T12:04:51.000Z</time>
      </trkpt>
      <trkpt lat="42.71634" lon="1.12196">
        <ele>1534.4000244141</ele>
        <time>2023-07-26T12:04:54.000Z</time>
      </trkpt>
      <trkpt lat="42.71634" lon="1.12195">
        <ele>1534</ele>
        <time>2023-07-26T12:04:56.000Z</time>
      </trkpt>
      <trkpt lat="42.71633" lon="1.12195">
        <ele>1532.8000488281</ele>
        <time>2023-07-26T12:05:03.000Z</time>
      </trkpt>
      <trkpt lat="42.71634" lon="1.1219">
        <ele>1531.8000488281</ele>
        <time>2023-07-26T12:05:08.000Z</time>
      </trkpt>
      <trkpt lat="42.71634" lon="1.12188">
        <ele>1531.4000244141</ele>
        <time>2023-07-26T12:05:11.000Z</time>
      </trkpt>
      <trkpt lat="42.71636" lon="1.12184">
        <ele>1530.8000488281</ele>
        <time>2023-07-26T12:05:15.000Z</time>
      </trkpt>
      <trkpt lat="42.71637" lon="1.1218">
        <ele>1529.8000488281</ele>
        <time>2023-07-26T12:05:20.000Z</time>
      </trkpt>
      <trkpt lat="42.71637" lon="1.12179">
        <ele>1529.5999755859</ele>
        <time>2023-07-26T12:05:21.000Z</time>
      </trkpt>
      <trkpt lat="42.71637" lon="1.12175">
        <ele>1528.4000244141</ele>
        <time>2023-07-26T12:05:27.000Z</time>
      </trkpt>
      <trkpt lat="42.71638" lon="1.12173">
        <ele>1528</ele>
        <time>2023-07-26T12:05:29.000Z</time>
      </trkpt>
      <trkpt lat="42.71638" lon="1.12168">
        <ele>1527.1999511719</ele>
        <time>2023-07-26T12:05:33.000Z</time>
      </trkpt>
      <trkpt lat="42.71638" lon="1.12166">
        <ele>1526.1999511719</ele>
        <time>2023-07-26T12:05:38.000Z</time>
      </trkpt>
      <trkpt lat="42.7164" lon="1.12163">
        <ele>1525.1999511719</ele>
        <time>2023-07-26T12:05:43.000Z</time>
      </trkpt>
      <trkpt lat="42.7164" lon="1.12162">
        <ele>1524.5999755859</ele>
        <time>2023-07-26T12:05:45.000Z</time>
      </trkpt>
      <trkpt lat="42.71642" lon="1.1216">
        <ele>1524</ele>
        <time>2023-07-26T12:05:52.000Z</time>
      </trkpt>
      <trkpt lat="42.71643" lon="1.12159">
        <ele>1523.5999755859</ele>
        <time>2023-07-26T12:05:55.000Z</time>
      </trkpt>
      <trkpt lat="42.71642" lon="1.12155">
        <ele>1523</ele>
        <time>2023-07-26T12:06:00.000Z</time>
      </trkpt>
      <trkpt lat="42.71639" lon="1.12155">
        <ele>1522.8000488281</ele>
        <time>2023-07-26T12:06:03.000Z</time>
      </trkpt>
      <trkpt lat="42.71636" lon="1.12152">
        <ele>1521.8000488281</ele>
        <time>2023-07-26T12:06:09.000Z</time>
      </trkpt>
      <trkpt lat="42.71636" lon="1.12151">
        <ele>1521.4000244141</ele>
        <time>2023-07-26T12:06:11.000Z</time>
      </trkpt>
      <trkpt lat="42.71635" lon="1.12149">
        <ele>1520.8000488281</ele>
        <time>2023-07-26T12:06:14.000Z</time>
      </trkpt>
      <trkpt lat="42.71638" lon="1.12147">
        <ele>1520</ele>
        <time>2023-07-26T12:06:21.000Z</time>
      </trkpt>
      <trkpt lat="42.71639" lon="1.12146">
        <ele>1519.5999755859</ele>
        <time>2023-07-26T12:06:24.000Z</time>
      </trkpt>
      <trkpt lat="42.71638" lon="1.12146">
        <ele>1519</ele>
        <time>2023-07-26T12:06:29.000Z</time>
      </trkpt>
      <trkpt lat="42.7164" lon="1.12146">
        <ele>1519</ele>
        <time>2023-07-26T12:06:37.000Z</time>
      </trkpt>
      <trkpt lat="42.7164" lon="1.12144">
        <ele>1518.5999755859</ele>
        <time>2023-07-26T12:06:40.000Z</time>
      </trkpt>
      <trkpt lat="42.71642" lon="1.1214">
        <ele>1517.5999755859</ele>
        <time>2023-07-26T12:06:46.000Z</time>
      </trkpt>
      <trkpt lat="42.71641" lon="1.1214">
        <ele>1517.4000244141</ele>
        <time>2023-07-26T12:06:47.000Z</time>
      </trkpt>
      <trkpt lat="42.71639" lon="1.12139">
        <ele>1516.4000244141</ele>
        <time>2023-07-26T12:06:52.000Z</time>
      </trkpt>
      <trkpt lat="42.71637" lon="1.12138">
        <ele>1516</ele>
        <time>2023-07-26T12:06:54.000Z</time>
      </trkpt>
      <trkpt lat="42.71637" lon="1.12138">
        <ele>1515.4000244141</ele>
        <time>2023-07-26T12:06:58.000Z</time>
      </trkpt>
      <trkpt lat="42.71636" lon="1.12138">
        <ele>1515</ele>
        <time>2023-07-26T12:07:02.000Z</time>
      </trkpt>
      <trkpt lat="42.71634" lon="1.12138">
        <ele>1514.4000244141</ele>
        <time>2023-07-26T12:07:09.000Z</time>
      </trkpt>
      <trkpt lat="42.71634" lon="1.12139">
        <ele>1513.1999511719</ele>
        <time>2023-07-26T12:07:15.000Z</time>
      </trkpt>
      <trkpt lat="42.71633" lon="1.1214">
        <ele>1512.5999755859</ele>
        <time>2023-07-26T12:07:19.000Z</time>
      </trkpt>
      <trkpt lat="42.71631" lon="1.1214">
        <ele>1512</ele>
        <time>2023-07-26T12:07:24.000Z</time>
      </trkpt>
      <trkpt lat="42.71629" lon="1.12138">
        <ele>1511.5999755859</ele>
        <time>2023-07-26T12:07:26.000Z</time>
      </trkpt>
      <trkpt lat="42.71627" lon="1.12137">
        <ele>1511</ele>
        <time>2023-07-26T12:07:28.000Z</time>
      </trkpt>
      <trkpt lat="42.71626" lon="1.12136">
        <ele>1509.8000488281</ele>
        <time>2023-07-26T12:07:31.000Z</time>
      </trkpt>
      <trkpt lat="42.71624" lon="1.12136">
        <ele>1509</ele>
        <time>2023-07-26T12:07:33.000Z</time>
      </trkpt>
      <trkpt lat="42.71621" lon="1.12134">
        <ele>1508.5999755859</ele>
        <time>2023-07-26T12:07:35.000Z</time>
      </trkpt>
      <trkpt lat="42.71618" lon="1.12134">
        <ele>1508</ele>
        <time>2023-07-26T12:07:38.000Z</time>
      </trkpt>
      <trkpt lat="42.71617" lon="1.12134">
        <ele>1507.5999755859</ele>
        <time>2023-07-26T12:07:40.000Z</time>
      </trkpt>
      <trkpt lat="42.71616" lon="1.12133">
        <ele>1507.4000244141</ele>
        <time>2023-07-26T12:07:45.000Z</time>
      </trkpt>
      <trkpt lat="42.71616" lon="1.12133">
        <ele>1507.4000244141</ele>
        <time>2023-07-26T12:07:46.000Z</time>
      </trkpt>
      <trkpt lat="42.71616" lon="1.12131">
        <ele>1506.8000488281</ele>
        <time>2023-07-26T12:07:52.000Z</time>
      </trkpt>
      <trkpt lat="42.71619" lon="1.12133">
        <ele>1506.5999755859</ele>
        <time>2023-07-26T12:08:00.000Z</time>
      </trkpt>
      <trkpt lat="42.71621" lon="1.12131">
        <ele>1506.4000244141</ele>
        <time>2023-07-26T12:08:06.000Z</time>
      </trkpt>
      <trkpt lat="42.71622" lon="1.12128">
        <ele>1506</ele>
        <time>2023-07-26T12:08:09.000Z</time>
      </trkpt>
      <trkpt lat="42.71624" lon="1.12124">
        <ele>1505.4000244141</ele>
        <time>2023-07-26T12:08:14.000Z</time>
      </trkpt>
      <trkpt lat="42.71624" lon="1.12121">
        <ele>1504.5999755859</ele>
        <time>2023-07-26T12:08:18.000Z</time>
      </trkpt>
      <trkpt lat="42.71625" lon="1.12118">
        <ele>1504.1999511719</ele>
        <time>2023-07-26T12:08:20.000Z</time>
      </trkpt>
      <trkpt lat="42.71626" lon="1.12114">
        <ele>1503.1999511719</ele>
        <time>2023-07-26T12:08:25.000Z</time>
      </trkpt>
      <trkpt lat="42.71626" lon="1.12112">
        <ele>1503.1999511719</ele>
        <time>2023-07-26T12:08:26.000Z</time>
      </trkpt>
      <trkpt lat="42.71625" lon="1.12107">
        <ele>1502</ele>
        <time>2023-07-26T12:08:31.000Z</time>
      </trkpt>
      <trkpt lat="42.71625" lon="1.12104">
        <ele>1501.4000244141</ele>
        <time>2023-07-26T12:08:34.000Z</time>
      </trkpt>
      <trkpt lat="42.71625" lon="1.12102">
        <ele>1500.8000488281</ele>
        <time>2023-07-26T12:08:36.000Z</time>
      </trkpt>
      <trkpt lat="42.71625" lon="1.121">
        <ele>1500.1999511719</ele>
        <time>2023-07-26T12:08:40.000Z</time>
      </trkpt>
      <trkpt lat="42.71626" lon="1.12098">
        <ele>1499.5999755859</ele>
        <time>2023-07-26T12:08:42.000Z</time>
      </trkpt>
      <trkpt lat="42.71628" lon="1.12093">
        <ele>1499</ele>
        <time>2023-07-26T12:08:46.000Z</time>
      </trkpt>
      <trkpt lat="42.71628" lon="1.12092">
        <ele>1498.5999755859</ele>
        <time>2023-07-26T12:08:47.000Z</time>
      </trkpt>
      <trkpt lat="42.71631" lon="1.12086">
        <ele>1497.4000244141</ele>
        <time>2023-07-26T12:08:53.000Z</time>
      </trkpt>
      <trkpt lat="42.71631" lon="1.1208">
        <ele>1496.4000244141</ele>
        <time>2023-07-26T12:08:59.000Z</time>
      </trkpt>
      <trkpt lat="42.71631" lon="1.12079">
        <ele>1496.1999511719</ele>
        <time>2023-07-26T12:09:00.000Z</time>
      </trkpt>
      <trkpt lat="42.71632" lon="1.12073">
        <ele>1495.4000244141</ele>
        <time>2023-07-26T12:09:06.000Z</time>
      </trkpt>
      <trkpt lat="42.71634" lon="1.12067">
        <ele>1494.5999755859</ele>
        <time>2023-07-26T12:09:10.000Z</time>
      </trkpt>
      <trkpt lat="42.71636" lon="1.12064">
        <ele>1494</ele>
        <time>2023-07-26T12:09:13.000Z</time>
      </trkpt>
      <trkpt lat="42.71636" lon="1.12061">
        <ele>1493</ele>
        <time>2023-07-26T12:09:17.000Z</time>
      </trkpt>
      <trkpt lat="42.71636" lon="1.1206">
        <ele>1492.5999755859</ele>
        <time>2023-07-26T12:09:19.000Z</time>
      </trkpt>
      <trkpt lat="42.71638" lon="1.12055">
        <ele>1491.8000488281</ele>
        <time>2023-07-26T12:09:23.000Z</time>
      </trkpt>
      <trkpt lat="42.71638" lon="1.12053">
        <ele>1491.4000244141</ele>
        <time>2023-07-26T12:09:25.000Z</time>
      </trkpt>
      <trkpt lat="42.71639" lon="1.1205">
        <ele>1490.8000488281</ele>
        <time>2023-07-26T12:09:28.000Z</time>
      </trkpt>
      <trkpt lat="42.7164" lon="1.12045">
        <ele>1490</ele>
        <time>2023-07-26T12:09:32.000Z</time>
      </trkpt>
      <trkpt lat="42.7164" lon="1.12045">
        <ele>1489.5999755859</ele>
        <time>2023-07-26T12:09:33.000Z</time>
      </trkpt>
      <trkpt lat="42.71641" lon="1.12041">
        <ele>1488.4000244141</ele>
        <time>2023-07-26T12:09:38.000Z</time>
      </trkpt>
      <trkpt lat="42.71643" lon="1.12037">
        <ele>1487.8000488281</ele>
        <time>2023-07-26T12:09:41.000Z</time>
      </trkpt>
      <trkpt lat="42.71644" lon="1.12035">
        <ele>1487.1999511719</ele>
        <time>2023-07-26T12:09:43.000Z</time>
      </trkpt>
      <trkpt lat="42.71645" lon="1.12029">
        <ele>1486</ele>
        <time>2023-07-26T12:09:49.000Z</time>
      </trkpt>
      <trkpt lat="42.71645" lon="1.12027">
        <ele>1486</ele>
        <time>2023-07-26T12:09:50.000Z</time>
      </trkpt>
      <trkpt lat="42.71644" lon="1.12022">
        <ele>1485</ele>
        <time>2023-07-26T12:09:54.000Z</time>
      </trkpt>
      <trkpt lat="42.71643" lon="1.12018">
        <ele>1484</ele>
        <time>2023-07-26T12:09:57.000Z</time>
      </trkpt>
      <trkpt lat="42.71643" lon="1.12016">
        <ele>1483.1999511719</ele>
        <time>2023-07-26T12:10:00.000Z</time>
      </trkpt>
      <trkpt lat="42.71644" lon="1.12013">
        <ele>1482.8000488281</ele>
        <time>2023-07-26T12:10:02.000Z</time>
      </trkpt>
      <trkpt lat="42.71643" lon="1.12007">
        <ele>1481.5999755859</ele>
        <time>2023-07-26T12:10:08.000Z</time>
      </trkpt>
      <trkpt lat="42.71643" lon="1.12002">
        <ele>1480.5999755859</ele>
        <time>2023-07-26T12:10:13.000Z</time>
      </trkpt>
      <trkpt lat="42.71642" lon="1.12001">
        <ele>1479.1999511719</ele>
        <time>2023-07-26T12:10:17.000Z</time>
      </trkpt>
      <trkpt lat="42.71642" lon="1.12">
        <ele>1479.1999511719</ele>
        <time>2023-07-26T12:10:18.000Z</time>
      </trkpt>
      <trkpt lat="42.71641" lon="1.11999">
        <ele>1478.1999511719</ele>
        <time>2023-07-26T12:10:23.000Z</time>
      </trkpt>
      <trkpt lat="42.71639" lon="1.11999">
        <ele>1477.4000244141</ele>
        <time>2023-07-26T12:10:26.000Z</time>
      </trkpt>
      <trkpt lat="42.71638" lon="1.11998">
        <ele>1477</ele>
        <time>2023-07-26T12:10:28.000Z</time>
      </trkpt>
      <trkpt lat="42.71637" lon="1.11999">
        <ele>1475.8000488281</ele>
        <time>2023-07-26T12:10:32.000Z</time>
      </trkpt>
      <trkpt lat="42.71633" lon="1.11998">
        <ele>1475</ele>
        <time>2023-07-26T12:10:37.000Z</time>
      </trkpt>
      <trkpt lat="42.71631" lon="1.11998">
        <ele>1475</ele>
        <time>2023-07-26T12:10:44.000Z</time>
      </trkpt>
      <trkpt lat="42.71628" lon="1.11997">
        <ele>1475.8000488281</ele>
        <time>2023-07-26T12:10:53.000Z</time>
      </trkpt>
      <trkpt lat="42.71629" lon="1.11995">
        <ele>1476</ele>
        <time>2023-07-26T12:10:59.000Z</time>
      </trkpt>
      <trkpt lat="42.71636" lon="1.1199">
        <ele>1475.4000244141</ele>
        <time>2023-07-26T12:11:07.000Z</time>
      </trkpt>
      <trkpt lat="42.71637" lon="1.11991">
        <ele>1475.1999511719</ele>
        <time>2023-07-26T12:11:20.000Z</time>
      </trkpt>
      <trkpt lat="42.71635" lon="1.11993">
        <ele>1475.4000244141</ele>
        <time>2023-07-26T12:11:28.000Z</time>
      </trkpt>
      <trkpt lat="42.71634" lon="1.11997">
        <ele>1475.4000244141</ele>
        <time>2023-07-26T12:11:35.000Z</time>
      </trkpt>
      <trkpt lat="42.71634" lon="1.11998">
        <ele>1475</ele>
        <time>2023-07-26T12:11:42.000Z</time>
      </trkpt>
      <trkpt lat="42.71639" lon="1.11998">
        <ele>1475.1999511719</ele>
        <time>2023-07-26T12:11:48.000Z</time>
      </trkpt>
      <trkpt lat="42.7164" lon="1.11998">
        <ele>1476.4000244141</ele>
        <time>2023-07-26T12:11:57.000Z</time>
      </trkpt>
      <trkpt lat="42.7164" lon="1.11998">
        <ele>1476.8000488281</ele>
        <time>2023-07-26T12:11:59.000Z</time>
      </trkpt>
      <trkpt lat="42.71639" lon="1.11997">
        <ele>1478</ele>
        <time>2023-07-26T12:12:06.000Z</time>
      </trkpt>
      <trkpt lat="42.71642" lon="1.11999">
        <ele>1479</ele>
        <time>2023-07-26T12:12:14.000Z</time>
      </trkpt>
      <trkpt lat="42.71646" lon="1.12002">
        <ele>1480</ele>
        <time>2023-07-26T12:12:21.000Z</time>
      </trkpt>
      <trkpt lat="42.71645" lon="1.12002">
        <ele>1480</ele>
        <time>2023-07-26T12:12:25.000Z</time>
      </trkpt>
      <trkpt lat="42.71645" lon="1.12004">
        <ele>1481</ele>
        <time>2023-07-26T12:12:31.000Z</time>
      </trkpt>
      <trkpt lat="42.71645" lon="1.12005">
        <ele>1481.1999511719</ele>
        <time>2023-07-26T12:12:32.000Z</time>
      </trkpt>
      <trkpt lat="42.71647" lon="1.12011">
        <ele>1481.4000244141</ele>
        <time>2023-07-26T12:12:39.000Z</time>
      </trkpt>
      <trkpt lat="42.71645" lon="1.12011">
        <ele>1481.4000244141</ele>
        <time>2023-07-26T12:12:47.000Z</time>
      </trkpt>
      <trkpt lat="42.71642" lon="1.12012">
        <ele>1481.1999511719</ele>
        <time>2023-07-26T12:12:56.000Z</time>
      </trkpt>
      <trkpt lat="42.71641" lon="1.12009">
        <ele>1481.1999511719</ele>
        <time>2023-07-26T12:13:04.000Z</time>
      </trkpt>
      <trkpt lat="42.71642" lon="1.12009">
        <ele>1481.1999511719</ele>
        <time>2023-07-26T12:13:11.000Z</time>
      </trkpt>
      <trkpt lat="42.7164" lon="1.1201">
        <ele>1481</ele>
        <time>2023-07-26T12:13:18.000Z</time>
      </trkpt>
      <trkpt lat="42.71643" lon="1.12008">
        <ele>1481</ele>
        <time>2023-07-26T12:13:29.000Z</time>
      </trkpt>
      <trkpt lat="42.71645" lon="1.12008">
        <ele>1481</ele>
        <time>2023-07-26T12:13:37.000Z</time>
      </trkpt>
      <trkpt lat="42.71644" lon="1.1201">
        <ele>1481</ele>
        <time>2023-07-26T12:13:45.000Z</time>
      </trkpt>
      <trkpt lat="42.71648" lon="1.12007">
        <ele>1481</ele>
        <time>2023-07-26T12:13:51.000Z</time>
      </trkpt>
      <trkpt lat="42.71647" lon="1.12008">
        <ele>1481</ele>
        <time>2023-07-26T12:13:52.000Z</time>
      </trkpt>
      <trkpt lat="42.71646" lon="1.12014">
        <ele>1481.1999511719</ele>
        <time>2023-07-26T12:13:58.000Z</time>
      </trkpt>
      <trkpt lat="42.71642" lon="1.12019">
        <ele>1482.1999511719</ele>
        <time>2023-07-26T12:14:04.000Z</time>
      </trkpt>
      <trkpt lat="42.71642" lon="1.12022">
        <ele>1482.8000488281</ele>
        <time>2023-07-26T12:14:07.000Z</time>
      </trkpt>
      <trkpt lat="42.71641" lon="1.12024">
        <ele>1483.1999511719</ele>
        <time>2023-07-26T12:14:09.000Z</time>
      </trkpt>
      <trkpt lat="42.71642" lon="1.12028">
        <ele>1484.1999511719</ele>
        <time>2023-07-26T12:14:14.000Z</time>
      </trkpt>
      <trkpt lat="42.71642" lon="1.12029">
        <ele>1484.8000488281</ele>
        <time>2023-07-26T12:14:16.000Z</time>
      </trkpt>
      <trkpt lat="42.71642" lon="1.12033">
        <ele>1485.4000244141</ele>
        <time>2023-07-26T12:14:20.000Z</time>
      </trkpt>
      <trkpt lat="42.71642" lon="1.12034">
        <ele>1485.4000244141</ele>
        <time>2023-07-26T12:14:22.000Z</time>
      </trkpt>
      <trkpt lat="42.71644" lon="1.12039">
        <ele>1486.4000244141</ele>
        <time>2023-07-26T12:14:28.000Z</time>
      </trkpt>
      <trkpt lat="42.71646" lon="1.12044">
        <ele>1487</ele>
        <time>2023-07-26T12:14:33.000Z</time>
      </trkpt>
      <trkpt lat="42.7165" lon="1.12047">
        <ele>1487.4000244141</ele>
        <time>2023-07-26T12:14:35.000Z</time>
      </trkpt>
      <trkpt lat="42.71651" lon="1.12052">
        <ele>1488</ele>
        <time>2023-07-26T12:14:39.000Z</time>
      </trkpt>
      <trkpt lat="42.71651" lon="1.12054">
        <ele>1488.4000244141</ele>
        <time>2023-07-26T12:14:41.000Z</time>
      </trkpt>
      <trkpt lat="42.71651" lon="1.12057">
        <ele>1489.1999511719</ele>
        <time>2023-07-26T12:14:45.000Z</time>
      </trkpt>
      <trkpt lat="42.71651" lon="1.12058">
        <ele>1489.5999755859</ele>
        <time>2023-07-26T12:14:47.000Z</time>
      </trkpt>
      <trkpt lat="42.71651" lon="1.12064">
        <ele>1490.5999755859</ele>
        <time>2023-07-26T12:14:53.000Z</time>
      </trkpt>
      <trkpt lat="42.71651" lon="1.12064">
        <ele>1490.8000488281</ele>
        <time>2023-07-26T12:14:54.000Z</time>
      </trkpt>
      <trkpt lat="42.7165" lon="1.12061">
        <ele>1491.4000244141</ele>
        <time>2023-07-26T12:15:02.000Z</time>
      </trkpt>
      <trkpt lat="42.71649" lon="1.12059">
        <ele>1491.5999755859</ele>
        <time>2023-07-26T12:15:06.000Z</time>
      </trkpt>
      <trkpt lat="42.71638" lon="1.1205">
        <ele>1491.8000488281</ele>
        <time>2023-07-26T12:15:24.000Z</time>
      </trkpt>
      <trkpt lat="42.71641" lon="1.12049">
        <ele>1492</ele>
        <time>2023-07-26T12:15:31.000Z</time>
      </trkpt>
      <trkpt lat="42.71643" lon="1.12046">
        <ele>1491</ele>
        <time>2023-07-26T12:15:39.000Z</time>
      </trkpt>
      <trkpt lat="42.71645" lon="1.12044">
        <ele>1490.5999755859</ele>
        <time>2023-07-26T12:15:43.000Z</time>
      </trkpt>
      <trkpt lat="42.71647" lon="1.12039">
        <ele>1490.1999511719</ele>
        <time>2023-07-26T12:15:49.000Z</time>
      </trkpt>
      <trkpt lat="42.71648" lon="1.12032">
        <ele>1489.5999755859</ele>
        <time>2023-07-26T12:15:56.000Z</time>
      </trkpt>
      <trkpt lat="42.7165" lon="1.12027">
        <ele>1490</ele>
        <time>2023-07-26T12:16:05.000Z</time>
      </trkpt>
      <trkpt lat="42.71653" lon="1.12026">
        <ele>1490</ele>
        <time>2023-07-26T12:16:17.000Z</time>
      </trkpt>
      <trkpt lat="42.71654" lon="1.1202">
        <ele>1489.5999755859</ele>
        <time>2023-07-26T12:16:24.000Z</time>
      </trkpt>
      <trkpt lat="42.71654" lon="1.12018">
        <ele>1489.4000244141</ele>
        <time>2023-07-26T12:16:27.000Z</time>
      </trkpt>
      <trkpt lat="42.71656" lon="1.12012">
        <ele>1488.1999511719</ele>
        <time>2023-07-26T12:16:34.000Z</time>
      </trkpt>
      <trkpt lat="42.71658" lon="1.12006">
        <ele>1487</ele>
        <time>2023-07-26T12:16:39.000Z</time>
      </trkpt>
      <trkpt lat="42.71658" lon="1.12006">
        <ele>1486.1999511719</ele>
        <time>2023-07-26T12:16:42.000Z</time>
      </trkpt>
      <trkpt lat="42.71659" lon="1.12006">
        <ele>1486</ele>
        <time>2023-07-26T12:16:43.000Z</time>
      </trkpt>
      <trkpt lat="42.7166" lon="1.12004">
        <ele>1484.8000488281</ele>
        <time>2023-07-26T12:16:47.000Z</time>
      </trkpt>
      <trkpt lat="42.71661" lon="1.12001">
        <ele>1483.8000488281</ele>
        <time>2023-07-26T12:16:51.000Z</time>
      </trkpt>
      <trkpt lat="42.71661" lon="1.12">
        <ele>1483.4000244141</ele>
        <time>2023-07-26T12:16:52.000Z</time>
      </trkpt>
      <trkpt lat="42.71661" lon="1.11997">
        <ele>1482.8000488281</ele>
        <time>2023-07-26T12:16:55.000Z</time>
      </trkpt>
      <trkpt lat="42.71662" lon="1.1199">
        <ele>1481.5999755859</ele>
        <time>2023-07-26T12:17:00.000Z</time>
      </trkpt>
      <trkpt lat="42.71661" lon="1.11989">
        <ele>1481.1999511719</ele>
        <time>2023-07-26T12:17:02.000Z</time>
      </trkpt>
      <trkpt lat="42.7166" lon="1.11988">
        <ele>1480.4000244141</ele>
        <time>2023-07-26T12:17:06.000Z</time>
      </trkpt>
      <trkpt lat="42.7166" lon="1.11988">
        <ele>1479.8000488281</ele>
        <time>2023-07-26T12:17:09.000Z</time>
      </trkpt>
      <trkpt lat="42.71659" lon="1.11988">
        <ele>1479.4000244141</ele>
        <time>2023-07-26T12:17:11.000Z</time>
      </trkpt>
      <trkpt lat="42.71655" lon="1.1199">
        <ele>1478.1999511719</ele>
        <time>2023-07-26T12:17:17.000Z</time>
      </trkpt>
      <trkpt lat="42.71653" lon="1.11988">
        <ele>1477.5999755859</ele>
        <time>2023-07-26T12:17:24.000Z</time>
      </trkpt>
      <trkpt lat="42.71652" lon="1.11987">
        <ele>1477.1999511719</ele>
        <time>2023-07-26T12:17:26.000Z</time>
      </trkpt>
      <trkpt lat="42.71651" lon="1.11985">
        <ele>1476.4000244141</ele>
        <time>2023-07-26T12:17:30.000Z</time>
      </trkpt>
      <trkpt lat="42.71649" lon="1.11984">
        <ele>1476.1999511719</ele>
        <time>2023-07-26T12:17:33.000Z</time>
      </trkpt>
      <trkpt lat="42.7165" lon="1.11983">
        <ele>1475</ele>
        <time>2023-07-26T12:17:39.000Z</time>
      </trkpt>
      <trkpt lat="42.7165" lon="1.11982">
        <ele>1474.4000244141</ele>
        <time>2023-07-26T12:17:46.000Z</time>
      </trkpt>
      <trkpt lat="42.71652" lon="1.11979">
        <ele>1474</ele>
        <time>2023-07-26T12:17:49.000Z</time>
      </trkpt>
      <trkpt lat="42.71657" lon="1.11978">
        <ele>1472.8000488281</ele>
        <time>2023-07-26T12:17:55.000Z</time>
      </trkpt>
      <trkpt lat="42.7166" lon="1.11973">
        <ele>1471.5999755859</ele>
        <time>2023-07-26T12:18:00.000Z</time>
      </trkpt>
      <trkpt lat="42.7166" lon="1.11969">
        <ele>1470.4000244141</ele>
        <time>2023-07-26T12:18:04.000Z</time>
      </trkpt>
      <trkpt lat="42.71658" lon="1.11969">
        <ele>1469.4000244141</ele>
        <time>2023-07-26T12:18:09.000Z</time>
      </trkpt>
      <trkpt lat="42.71658" lon="1.11969">
        <ele>1469.1999511719</ele>
        <time>2023-07-26T12:18:10.000Z</time>
      </trkpt>
      <trkpt lat="42.71657" lon="1.11968">
        <ele>1468.8000488281</ele>
        <time>2023-07-26T12:18:12.000Z</time>
      </trkpt>
      <trkpt lat="42.71655" lon="1.11968">
        <ele>1468.1999511719</ele>
        <time>2023-07-26T12:18:14.000Z</time>
      </trkpt>
      <trkpt lat="42.71652" lon="1.11962">
        <ele>1467.1999511719</ele>
        <time>2023-07-26T12:18:20.000Z</time>
      </trkpt>
      <trkpt lat="42.71652" lon="1.11959">
        <ele>1466</ele>
        <time>2023-07-26T12:18:25.000Z</time>
      </trkpt>
      <trkpt lat="42.71652" lon="1.11957">
        <ele>1465.5999755859</ele>
        <time>2023-07-26T12:18:27.000Z</time>
      </trkpt>
      <trkpt lat="42.71652" lon="1.11954">
        <ele>1465</ele>
        <time>2023-07-26T12:18:30.000Z</time>
      </trkpt>
      <trkpt lat="42.71652" lon="1.11951">
        <ele>1464</ele>
        <time>2023-07-26T12:18:35.000Z</time>
      </trkpt>
      <trkpt lat="42.71653" lon="1.1195">
        <ele>1463</ele>
        <time>2023-07-26T12:18:39.000Z</time>
      </trkpt>
      <trkpt lat="42.71658" lon="1.11945">
        <ele>1462</ele>
        <time>2023-07-26T12:18:45.000Z</time>
      </trkpt>
      <trkpt lat="42.71659" lon="1.11945">
        <ele>1461.8000488281</ele>
        <time>2023-07-26T12:18:46.000Z</time>
      </trkpt>
      <trkpt lat="42.71661" lon="1.11945">
        <ele>1461.1999511719</ele>
        <time>2023-07-26T12:18:52.000Z</time>
      </trkpt>
      <trkpt lat="42.71666" lon="1.11944">
        <ele>1460.5999755859</ele>
        <time>2023-07-26T12:18:55.000Z</time>
      </trkpt>
      <trkpt lat="42.71667" lon="1.11944">
        <ele>1460.4000244141</ele>
        <time>2023-07-26T12:18:58.000Z</time>
      </trkpt>
      <trkpt lat="42.71665" lon="1.11942">
        <ele>1459.8000488281</ele>
        <time>2023-07-26T12:19:04.000Z</time>
      </trkpt>
      <trkpt lat="42.71665" lon="1.11941">
        <ele>1459.5999755859</ele>
        <time>2023-07-26T12:19:05.000Z</time>
      </trkpt>
      <trkpt lat="42.71659" lon="1.11937">
        <ele>1458.8000488281</ele>
        <time>2023-07-26T12:19:13.000Z</time>
      </trkpt>
      <trkpt lat="42.7166" lon="1.11937">
        <ele>1458.5999755859</ele>
        <time>2023-07-26T12:19:19.000Z</time>
      </trkpt>
      <trkpt lat="42.7166" lon="1.11936">
        <ele>1458.1999511719</ele>
        <time>2023-07-26T12:19:21.000Z</time>
      </trkpt>
      <trkpt lat="42.71657" lon="1.11935">
        <ele>1457.5999755859</ele>
        <time>2023-07-26T12:19:27.000Z</time>
      </trkpt>
      <trkpt lat="42.71656" lon="1.11935">
        <ele>1457.4000244141</ele>
        <time>2023-07-26T12:19:29.000Z</time>
      </trkpt>
      <trkpt lat="42.71653" lon="1.11937">
        <ele>1457.5999755859</ele>
        <time>2023-07-26T12:19:38.000Z</time>
      </trkpt>
      <trkpt lat="42.7165" lon="1.11939">
        <ele>1457</ele>
        <time>2023-07-26T12:19:45.000Z</time>
      </trkpt>
      <trkpt lat="42.71648" lon="1.1194">
        <ele>1456.4000244141</ele>
        <time>2023-07-26T12:19:48.000Z</time>
      </trkpt>
      <trkpt lat="42.71645" lon="1.11937">
        <ele>1455.5999755859</ele>
        <time>2023-07-26T12:19:53.000Z</time>
      </trkpt>
      <trkpt lat="42.71645" lon="1.11937">
        <ele>1455.4000244141</ele>
        <time>2023-07-26T12:19:54.000Z</time>
      </trkpt>
      <trkpt lat="42.71642" lon="1.11937">
        <ele>1454.8000488281</ele>
        <time>2023-07-26T12:20:00.000Z</time>
      </trkpt>
      <trkpt lat="42.71641" lon="1.11934">
        <ele>1454.5999755859</ele>
        <time>2023-07-26T12:20:07.000Z</time>
      </trkpt>
      <trkpt lat="42.71643" lon="1.11935">
        <ele>1454.8000488281</ele>
        <time>2023-07-26T12:20:13.000Z</time>
      </trkpt>
      <trkpt lat="42.71645" lon="1.11933">
        <ele>1455</ele>
        <time>2023-07-26T12:20:22.000Z</time>
      </trkpt>
      <trkpt lat="42.71643" lon="1.11937">
        <ele>1455.1999511719</ele>
        <time>2023-07-26T12:20:30.000Z</time>
      </trkpt>
      <trkpt lat="42.71638" lon="1.11935">
        <ele>1454.8000488281</ele>
        <time>2023-07-26T12:20:36.000Z</time>
      </trkpt>
      <trkpt lat="42.71636" lon="1.11934">
        <ele>1454.4000244141</ele>
        <time>2023-07-26T12:20:42.000Z</time>
      </trkpt>
      <trkpt lat="42.71638" lon="1.11928">
        <ele>1454.4000244141</ele>
        <time>2023-07-26T12:20:47.000Z</time>
      </trkpt>
      <trkpt lat="42.71639" lon="1.11928">
        <ele>1455.1999511719</ele>
        <time>2023-07-26T12:20:56.000Z</time>
      </trkpt>
      <trkpt lat="42.71647" lon="1.11931">
        <ele>1456.4000244141</ele>
        <time>2023-07-26T12:21:04.000Z</time>
      </trkpt>
      <trkpt lat="42.71648" lon="1.11931">
        <ele>1456.4000244141</ele>
        <time>2023-07-26T12:21:05.000Z</time>
      </trkpt>
      <trkpt lat="42.71657" lon="1.11936">
        <ele>1459.5999755859</ele>
        <time>2023-07-26T12:21:38.000Z</time>
      </trkpt>
      <trkpt lat="42.71674" lon="1.11957">
        <ele>1460</ele>
        <time>2023-07-26T12:22:07.000Z</time>
      </trkpt>
      <trkpt lat="42.71673" lon="1.11955">
        <ele>1460</ele>
        <time>2023-07-26T12:22:09.000Z</time>
      </trkpt>
      <trkpt lat="42.7167" lon="1.11951">
        <ele>1460.1999511719</ele>
        <time>2023-07-26T12:22:16.000Z</time>
      </trkpt>
      <trkpt lat="42.71666" lon="1.11948">
        <ele>1460</ele>
        <time>2023-07-26T12:22:27.000Z</time>
      </trkpt>
      <trkpt lat="42.71669" lon="1.11943">
        <ele>1459.1999511719</ele>
        <time>2023-07-26T12:22:50.000Z</time>
      </trkpt>
      <trkpt lat="42.71669" lon="1.11944">
        <ele>1460.1999511719</ele>
        <time>2023-07-26T12:23:00.000Z</time>
      </trkpt>
      <trkpt lat="42.71668" lon="1.11944">
        <ele>1460.5999755859</ele>
        <time>2023-07-26T12:23:04.000Z</time>
      </trkpt>
      <trkpt lat="42.71667" lon="1.11942">
        <ele>1461</ele>
        <time>2023-07-26T12:23:07.000Z</time>
      </trkpt>
      <trkpt lat="42.71661" lon="1.11938">
        <ele>1461.5999755859</ele>
        <time>2023-07-26T12:23:14.000Z</time>
      </trkpt>
      <trkpt lat="42.7166" lon="1.11938">
        <ele>1461.8000488281</ele>
        <time>2023-07-26T12:23:15.000Z</time>
      </trkpt>
      <trkpt lat="42.71655" lon="1.11946">
        <ele>1462.4000244141</ele>
        <time>2023-07-26T12:23:23.000Z</time>
      </trkpt>
      <trkpt lat="42.71652" lon="1.11949">
        <ele>1462.8000488281</ele>
        <time>2023-07-26T12:23:27.000Z</time>
      </trkpt>
      <trkpt lat="42.7165" lon="1.11951">
        <ele>1463.4000244141</ele>
        <time>2023-07-26T12:23:31.000Z</time>
      </trkpt>
      <trkpt lat="42.71648" lon="1.11952">
        <ele>1464</ele>
        <time>2023-07-26T12:23:35.000Z</time>
      </trkpt>
      <trkpt lat="42.71649" lon="1.11954">
        <ele>1464.5999755859</ele>
        <time>2023-07-26T12:23:39.000Z</time>
      </trkpt>
      <trkpt lat="42.7165" lon="1.11954">
        <ele>1465</ele>
        <time>2023-07-26T12:23:42.000Z</time>
      </trkpt>
      <trkpt lat="42.71651" lon="1.11959">
        <ele>1465.4000244141</ele>
        <time>2023-07-26T12:23:48.000Z</time>
      </trkpt>
      <trkpt lat="42.7165" lon="1.11961">
        <ele>1466</ele>
        <time>2023-07-26T12:23:52.000Z</time>
      </trkpt>
      <trkpt lat="42.71649" lon="1.11962">
        <ele>1466.5999755859</ele>
        <time>2023-07-26T12:23:55.000Z</time>
      </trkpt>
      <trkpt lat="42.71649" lon="1.11963">
        <ele>1467</ele>
        <time>2023-07-26T12:23:58.000Z</time>
      </trkpt>
      <trkpt lat="42.7165" lon="1.11967">
        <ele>1468</ele>
        <time>2023-07-26T12:24:03.000Z</time>
      </trkpt>
      <trkpt lat="42.7165" lon="1.11968">
        <ele>1468</ele>
        <time>2023-07-26T12:24:04.000Z</time>
      </trkpt>
      <trkpt lat="42.71652" lon="1.11969">
        <ele>1469.1999511719</ele>
        <time>2023-07-26T12:24:10.000Z</time>
      </trkpt>
      <trkpt lat="42.71658" lon="1.11974">
        <ele>1470.1999511719</ele>
        <time>2023-07-26T12:24:17.000Z</time>
      </trkpt>
      <trkpt lat="42.71658" lon="1.11974">
        <ele>1470.5999755859</ele>
        <time>2023-07-26T12:24:20.000Z</time>
      </trkpt>
      <trkpt lat="42.71657" lon="1.11972">
        <ele>1471.4000244141</ele>
        <time>2023-07-26T12:24:25.000Z</time>
      </trkpt>
      <trkpt lat="42.71657" lon="1.11973">
        <ele>1471.5999755859</ele>
        <time>2023-07-26T12:24:27.000Z</time>
      </trkpt>
      <trkpt lat="42.71653" lon="1.11972">
        <ele>1472.4000244141</ele>
        <time>2023-07-26T12:24:32.000Z</time>
      </trkpt>
      <trkpt lat="42.71653" lon="1.11973">
        <ele>1472.5999755859</ele>
        <time>2023-07-26T12:24:33.000Z</time>
      </trkpt>
      <trkpt lat="42.71652" lon="1.11974">
        <ele>1472.8000488281</ele>
        <time>2023-07-26T12:24:35.000Z</time>
      </trkpt>
      <trkpt lat="42.71651" lon="1.11976">
        <ele>1473.4000244141</ele>
        <time>2023-07-26T12:24:40.000Z</time>
      </trkpt>
      <trkpt lat="42.71648" lon="1.11978">
        <ele>1474</ele>
        <time>2023-07-26T12:24:45.000Z</time>
      </trkpt>
      <trkpt lat="42.71648" lon="1.11979">
        <ele>1474.4000244141</ele>
        <time>2023-07-26T12:24:47.000Z</time>
      </trkpt>
      <trkpt lat="42.71648" lon="1.11979">
        <ele>1474.5999755859</ele>
        <time>2023-07-26T12:24:48.000Z</time>
      </trkpt>
      <trkpt lat="42.71648" lon="1.1198">
        <ele>1475.1999511719</ele>
        <time>2023-07-26T12:24:53.000Z</time>
      </trkpt>
      <trkpt lat="42.71649" lon="1.11979">
        <ele>1475.5999755859</ele>
        <time>2023-07-26T12:24:56.000Z</time>
      </trkpt>
      <trkpt lat="42.71649" lon="1.11981">
        <ele>1476.1999511719</ele>
        <time>2023-07-26T12:25:00.000Z</time>
      </trkpt>
      <trkpt lat="42.71649" lon="1.11982">
        <ele>1476.8000488281</ele>
        <time>2023-07-26T12:25:07.000Z</time>
      </trkpt>
      <trkpt lat="42.7165" lon="1.11984">
        <ele>1477</ele>
        <time>2023-07-26T12:25:09.000Z</time>
      </trkpt>
      <trkpt lat="42.71656" lon="1.11993">
        <ele>1479.5999755859</ele>
        <time>2023-07-26T12:25:27.000Z</time>
      </trkpt>
      <trkpt lat="42.71657" lon="1.11993">
        <ele>1480</ele>
        <time>2023-07-26T12:25:30.000Z</time>
      </trkpt>
      <trkpt lat="42.71663" lon="1.11993">
        <ele>1481</ele>
        <time>2023-07-26T12:25:45.000Z</time>
      </trkpt>
      <trkpt lat="42.71663" lon="1.11993">
        <ele>1481</ele>
        <time>2023-07-26T12:25:46.000Z</time>
      </trkpt>
      <trkpt lat="42.71661" lon="1.11994">
        <ele>1482</ele>
        <time>2023-07-26T12:25:52.000Z</time>
      </trkpt>
      <trkpt lat="42.7166" lon="1.11997">
        <ele>1482.4000244141</ele>
        <time>2023-07-26T12:25:55.000Z</time>
      </trkpt>
      <trkpt lat="42.71657" lon="1.11998">
        <ele>1483</ele>
        <time>2023-07-26T12:25:59.000Z</time>
      </trkpt>
      <trkpt lat="42.71652" lon="1.11996">
        <ele>1483.5999755859</ele>
        <time>2023-07-26T12:26:02.000Z</time>
      </trkpt>
      <trkpt lat="42.71646" lon="1.11999">
        <ele>1485.1999511719</ele>
        <time>2023-07-26T12:26:13.000Z</time>
      </trkpt>
      <trkpt lat="42.71646" lon="1.12">
        <ele>1485.1999511719</ele>
        <time>2023-07-26T12:26:15.000Z</time>
      </trkpt>
      <trkpt lat="42.71645" lon="1.12006">
        <ele>1486.4000244141</ele>
        <time>2023-07-26T12:26:22.000Z</time>
      </trkpt>
      <trkpt lat="42.71645" lon="1.12006">
        <ele>1486.4000244141</ele>
        <time>2023-07-26T12:26:23.000Z</time>
      </trkpt>
      <trkpt lat="42.71645" lon="1.1201">
        <ele>1487.4000244141</ele>
        <time>2023-07-26T12:26:30.000Z</time>
      </trkpt>
      <trkpt lat="42.71645" lon="1.12013">
        <ele>1488</ele>
        <time>2023-07-26T12:26:33.000Z</time>
      </trkpt>
      <trkpt lat="42.71647" lon="1.12017">
        <ele>1488.4000244141</ele>
        <time>2023-07-26T12:26:37.000Z</time>
      </trkpt>
      <trkpt lat="42.71649" lon="1.12022">
        <ele>1489</ele>
        <time>2023-07-26T12:26:42.000Z</time>
      </trkpt>
      <trkpt lat="42.7165" lon="1.12031">
        <ele>1489.1999511719</ele>
        <time>2023-07-26T12:26:49.000Z</time>
      </trkpt>
      <trkpt lat="42.71649" lon="1.12029">
        <ele>1489.4000244141</ele>
        <time>2023-07-26T12:26:57.000Z</time>
      </trkpt>
      <trkpt lat="42.7165" lon="1.1203">
        <ele>1489.1999511719</ele>
        <time>2023-07-26T12:27:04.000Z</time>
      </trkpt>
      <trkpt lat="42.7165" lon="1.12039">
        <ele>1489.1999511719</ele>
        <time>2023-07-26T12:27:13.000Z</time>
      </trkpt>
      <trkpt lat="42.71647" lon="1.12044">
        <ele>1489.5999755859</ele>
        <time>2023-07-26T12:27:20.000Z</time>
      </trkpt>
      <trkpt lat="42.71642" lon="1.12047">
        <ele>1490</ele>
        <time>2023-07-26T12:27:28.000Z</time>
      </trkpt>
      <trkpt lat="42.71642" lon="1.12049">
        <ele>1490.5999755859</ele>
        <time>2023-07-26T12:27:32.000Z</time>
      </trkpt>
      <trkpt lat="42.7164" lon="1.12053">
        <ele>1491.4000244141</ele>
        <time>2023-07-26T12:27:37.000Z</time>
      </trkpt>
      <trkpt lat="42.71639" lon="1.12055">
        <ele>1491.5999755859</ele>
        <time>2023-07-26T12:27:40.000Z</time>
      </trkpt>
      <trkpt lat="42.71639" lon="1.12058">
        <ele>1491.1999511719</ele>
        <time>2023-07-26T12:27:44.000Z</time>
      </trkpt>
      <trkpt lat="42.71639" lon="1.12057">
        <ele>1491</ele>
        <time>2023-07-26T12:27:51.000Z</time>
      </trkpt>
      <trkpt lat="42.71638" lon="1.1205">
        <ele>1491</ele>
        <time>2023-07-26T12:27:58.000Z</time>
      </trkpt>
      <trkpt lat="42.71638" lon="1.12044">
        <ele>1490.5999755859</ele>
        <time>2023-07-26T12:28:05.000Z</time>
      </trkpt>
      <trkpt lat="42.71638" lon="1.12044">
        <ele>1490.5999755859</ele>
        <time>2023-07-26T12:28:06.000Z</time>
      </trkpt>
      <trkpt lat="42.71638" lon="1.12039">
        <ele>1489.4000244141</ele>
        <time>2023-07-26T12:28:12.000Z</time>
      </trkpt>
      <trkpt lat="42.71638" lon="1.12038">
        <ele>1489</ele>
        <time>2023-07-26T12:28:14.000Z</time>
      </trkpt>
      <trkpt lat="42.71639" lon="1.12035">
        <ele>1488.1999511719</ele>
        <time>2023-07-26T12:28:18.000Z</time>
      </trkpt>
      <trkpt lat="42.7164" lon="1.12033">
        <ele>1487.1999511719</ele>
        <time>2023-07-26T12:28:23.000Z</time>
      </trkpt>
      <trkpt lat="42.7164" lon="1.12033">
        <ele>1487</ele>
        <time>2023-07-26T12:28:24.000Z</time>
      </trkpt>
      <trkpt lat="42.71641" lon="1.12029">
        <ele>1486</ele>
        <time>2023-07-26T12:28:31.000Z</time>
      </trkpt>
      <trkpt lat="42.71641" lon="1.12029">
        <ele>1485.8000488281</ele>
        <time>2023-07-26T12:28:32.000Z</time>
      </trkpt>
      <trkpt lat="42.71642" lon="1.12025">
        <ele>1484.8000488281</ele>
        <time>2023-07-26T12:28:37.000Z</time>
      </trkpt>
      <trkpt lat="42.71636" lon="1.12014">
        <ele>1484</ele>
        <time>2023-07-26T12:29:00.000Z</time>
      </trkpt>
      <trkpt lat="42.71638" lon="1.12011">
        <ele>1483.8000488281</ele>
        <time>2023-07-26T12:29:05.000Z</time>
      </trkpt>
      <trkpt lat="42.7164" lon="1.12007">
        <ele>1483.4000244141</ele>
        <time>2023-07-26T12:29:08.000Z</time>
      </trkpt>
      <trkpt lat="42.71643" lon="1.12011">
        <ele>1482.8000488281</ele>
        <time>2023-07-26T12:29:13.000Z</time>
      </trkpt>
      <trkpt lat="42.71644" lon="1.12012">
        <ele>1482.5999755859</ele>
        <time>2023-07-26T12:29:15.000Z</time>
      </trkpt>
      <trkpt lat="42.71642" lon="1.12009">
        <ele>1482.5999755859</ele>
        <time>2023-07-26T12:29:23.000Z</time>
      </trkpt>
      <trkpt lat="42.7164" lon="1.12007">
        <ele>1482.5999755859</ele>
        <time>2023-07-26T12:29:32.000Z</time>
      </trkpt>
      <trkpt lat="42.71641" lon="1.12009">
        <ele>1482.8000488281</ele>
        <time>2023-07-26T12:29:44.000Z</time>
      </trkpt>
      <trkpt lat="42.71637" lon="1.12006">
        <ele>1482.5999755859</ele>
        <time>2023-07-26T12:29:53.000Z</time>
      </trkpt>
      <trkpt lat="42.71644" lon="1.1201">
        <ele>1482.4000244141</ele>
        <time>2023-07-26T12:30:02.000Z</time>
      </trkpt>
      <trkpt lat="42.71644" lon="1.1201">
        <ele>1482.4000244141</ele>
        <time>2023-07-26T12:30:09.000Z</time>
      </trkpt>
      <trkpt lat="42.71644" lon="1.12015">
        <ele>1482.5999755859</ele>
        <time>2023-07-26T12:30:17.000Z</time>
      </trkpt>
      <trkpt lat="42.71645" lon="1.12022">
        <ele>1484.1999511719</ele>
        <time>2023-07-26T12:30:31.000Z</time>
      </trkpt>
      <trkpt lat="42.71645" lon="1.12025">
        <ele>1484.8000488281</ele>
        <time>2023-07-26T12:30:35.000Z</time>
      </trkpt>
      <trkpt lat="42.71646" lon="1.12029">
        <ele>1485.8000488281</ele>
        <time>2023-07-26T12:30:40.000Z</time>
      </trkpt>
      <trkpt lat="42.71646" lon="1.12031">
        <ele>1486.1999511719</ele>
        <time>2023-07-26T12:30:42.000Z</time>
      </trkpt>
      <trkpt lat="42.71646" lon="1.12038">
        <ele>1487</ele>
        <time>2023-07-26T12:30:48.000Z</time>
      </trkpt>
      <trkpt lat="42.71645" lon="1.12039">
        <ele>1487.4000244141</ele>
        <time>2023-07-26T12:30:51.000Z</time>
      </trkpt>
      <trkpt lat="42.71644" lon="1.12042">
        <ele>1488</ele>
        <time>2023-07-26T12:30:54.000Z</time>
      </trkpt>
      <trkpt lat="42.71639" lon="1.12045">
        <ele>1489</ele>
        <time>2023-07-26T12:31:00.000Z</time>
      </trkpt>
      <trkpt lat="42.71638" lon="1.12045">
        <ele>1489</ele>
        <time>2023-07-26T12:31:01.000Z</time>
      </trkpt>
      <trkpt lat="42.71636" lon="1.12047">
        <ele>1490.1999511719</ele>
        <time>2023-07-26T12:31:06.000Z</time>
      </trkpt>
      <trkpt lat="42.71635" lon="1.12049">
        <ele>1490.5999755859</ele>
        <time>2023-07-26T12:31:09.000Z</time>
      </trkpt>
      <trkpt lat="42.71633" lon="1.12051">
        <ele>1491.1999511719</ele>
        <time>2023-07-26T12:31:13.000Z</time>
      </trkpt>
      <trkpt lat="42.71633" lon="1.12052">
        <ele>1491.8000488281</ele>
        <time>2023-07-26T12:31:16.000Z</time>
      </trkpt>
      <trkpt lat="42.71632" lon="1.12055">
        <ele>1492.4000244141</ele>
        <time>2023-07-26T12:31:19.000Z</time>
      </trkpt>
      <trkpt lat="42.71635" lon="1.12062">
        <ele>1493.1999511719</ele>
        <time>2023-07-26T12:31:25.000Z</time>
      </trkpt>
      <trkpt lat="42.71636" lon="1.12065">
        <ele>1493.4000244141</ele>
        <time>2023-07-26T12:31:27.000Z</time>
      </trkpt>
      <trkpt lat="42.71636" lon="1.12069">
        <ele>1493.4000244141</ele>
        <time>2023-07-26T12:31:35.000Z</time>
      </trkpt>
      <trkpt lat="42.71636" lon="1.12065">
        <ele>1493.4000244141</ele>
        <time>2023-07-26T12:31:45.000Z</time>
      </trkpt>
      <trkpt lat="42.71637" lon="1.12063">
        <ele>1493.4000244141</ele>
        <time>2023-07-26T12:31:51.000Z</time>
      </trkpt>
      <trkpt lat="42.71637" lon="1.12061">
        <ele>1493.1999511719</ele>
        <time>2023-07-26T12:31:56.000Z</time>
      </trkpt>
      <trkpt lat="42.71636" lon="1.1206">
        <ele>1492.1999511719</ele>
        <time>2023-07-26T12:32:02.000Z</time>
      </trkpt>
      <trkpt lat="42.71633" lon="1.12056">
        <ele>1491.5999755859</ele>
        <time>2023-07-26T12:32:08.000Z</time>
      </trkpt>
      <trkpt lat="42.71631" lon="1.12056">
        <ele>1491.1999511719</ele>
        <time>2023-07-26T12:32:13.000Z</time>
      </trkpt>
      <trkpt lat="42.71629" lon="1.12056">
        <ele>1490.5999755859</ele>
        <time>2023-07-26T12:32:17.000Z</time>
      </trkpt>
      <trkpt lat="42.71622" lon="1.12062">
        <ele>1488</ele>
        <time>2023-07-26T12:32:30.000Z</time>
      </trkpt>
      <trkpt lat="42.71615" lon="1.12067">
        <ele>1487.1999511719</ele>
        <time>2023-07-26T12:32:38.000Z</time>
      </trkpt>
      <trkpt lat="42.71611" lon="1.12069">
        <ele>1486.8000488281</ele>
        <time>2023-07-26T12:32:42.000Z</time>
      </trkpt>
      <trkpt lat="42.71609" lon="1.12068">
        <ele>1486</ele>
        <time>2023-07-26T12:32:46.000Z</time>
      </trkpt>
      <trkpt lat="42.7161" lon="1.12068">
        <ele>1485.8000488281</ele>
        <time>2023-07-26T12:32:47.000Z</time>
      </trkpt>
      <trkpt lat="42.71607" lon="1.12064">
        <ele>1485</ele>
        <time>2023-07-26T12:32:52.000Z</time>
      </trkpt>
      <trkpt lat="42.71606" lon="1.12063">
        <ele>1484.5999755859</ele>
        <time>2023-07-26T12:32:54.000Z</time>
      </trkpt>
      <trkpt lat="42.71606" lon="1.12064">
        <ele>1484.1999511719</ele>
        <time>2023-07-26T12:32:57.000Z</time>
      </trkpt>
      <trkpt lat="42.71606" lon="1.12063">
        <ele>1483.5999755859</ele>
        <time>2023-07-26T12:33:00.000Z</time>
      </trkpt>
      <trkpt lat="42.71603" lon="1.12064">
        <ele>1482.4000244141</ele>
        <time>2023-07-26T12:33:06.000Z</time>
      </trkpt>
      <trkpt lat="42.71601" lon="1.12064">
        <ele>1482.1999511719</ele>
        <time>2023-07-26T12:33:08.000Z</time>
      </trkpt>
      <trkpt lat="42.71597" lon="1.12063">
        <ele>1481.4000244141</ele>
        <time>2023-07-26T12:33:12.000Z</time>
      </trkpt>
      <trkpt lat="42.71595" lon="1.12062">
        <ele>1480.1999511719</ele>
        <time>2023-07-26T12:33:15.000Z</time>
      </trkpt>
      <trkpt lat="42.71592" lon="1.12058">
        <ele>1479</ele>
        <time>2023-07-26T12:33:20.000Z</time>
      </trkpt>
      <trkpt lat="42.7159" lon="1.12056">
        <ele>1478.4000244141</ele>
        <time>2023-07-26T12:33:23.000Z</time>
      </trkpt>
      <trkpt lat="42.7159" lon="1.12055">
        <ele>1477.8000488281</ele>
        <time>2023-07-26T12:33:25.000Z</time>
      </trkpt>
      <trkpt lat="42.71589" lon="1.12054">
        <ele>1476.8000488281</ele>
        <time>2023-07-26T12:33:29.000Z</time>
      </trkpt>
      <trkpt lat="42.71588" lon="1.12054">
        <ele>1476.5999755859</ele>
        <time>2023-07-26T12:33:31.000Z</time>
      </trkpt>
      <trkpt lat="42.71586" lon="1.12051">
        <ele>1475.8000488281</ele>
        <time>2023-07-26T12:33:34.000Z</time>
      </trkpt>
      <trkpt lat="42.71584" lon="1.12047">
        <ele>1475.1999511719</ele>
        <time>2023-07-26T12:33:38.000Z</time>
      </trkpt>
      <trkpt lat="42.71582" lon="1.12044">
        <ele>1474.5999755859</ele>
        <time>2023-07-26T12:33:43.000Z</time>
      </trkpt>
      <trkpt lat="42.71581" lon="1.12044">
        <ele>1473.8000488281</ele>
        <time>2023-07-26T12:33:45.000Z</time>
      </trkpt>
      <trkpt lat="42.71578" lon="1.1204">
        <ele>1472.8000488281</ele>
        <time>2023-07-26T12:33:50.000Z</time>
      </trkpt>
      <trkpt lat="42.71579" lon="1.1204">
        <ele>1472</ele>
        <time>2023-07-26T12:33:53.000Z</time>
      </trkpt>
      <trkpt lat="42.71585" lon="1.12046">
        <ele>1470</ele>
        <time>2023-07-26T12:34:02.000Z</time>
      </trkpt>
      <trkpt lat="42.71585" lon="1.12045">
        <ele>1469.5999755859</ele>
        <time>2023-07-26T12:34:04.000Z</time>
      </trkpt>
      <trkpt lat="42.71578" lon="1.12043">
        <ele>1468.4000244141</ele>
        <time>2023-07-26T12:34:08.000Z</time>
      </trkpt>
      <trkpt lat="42.71575" lon="1.12042">
        <ele>1468.1999511719</ele>
        <time>2023-07-26T12:34:09.000Z</time>
      </trkpt>
      <trkpt lat="42.71564" lon="1.12035">
        <ele>1467.4000244141</ele>
        <time>2023-07-26T12:34:15.000Z</time>
      </trkpt>
      <trkpt lat="42.71561" lon="1.12034">
        <ele>1467.1999511719</ele>
        <time>2023-07-26T12:34:19.000Z</time>
      </trkpt>
      <trkpt lat="42.71562" lon="1.12035">
        <ele>1467</ele>
        <time>2023-07-26T12:34:24.000Z</time>
      </trkpt>
      <trkpt lat="42.71562" lon="1.12037">
        <ele>1466.8000488281</ele>
        <time>2023-07-26T12:34:32.000Z</time>
      </trkpt>
      <trkpt lat="42.71562" lon="1.12035">
        <ele>1466.5999755859</ele>
        <time>2023-07-26T12:34:39.000Z</time>
      </trkpt>
      <trkpt lat="42.71564" lon="1.12037">
        <ele>1466.5999755859</ele>
        <time>2023-07-26T12:34:46.000Z</time>
      </trkpt>
      <trkpt lat="42.71566" lon="1.12039">
        <ele>1466.1999511719</ele>
        <time>2023-07-26T12:34:48.000Z</time>
      </trkpt>
      <trkpt lat="42.71569" lon="1.12042">
        <ele>1465.8000488281</ele>
        <time>2023-07-26T12:34:52.000Z</time>
      </trkpt>
      <trkpt lat="42.71571" lon="1.12039">
        <ele>1465.5999755859</ele>
        <time>2023-07-26T12:35:00.000Z</time>
      </trkpt>
      <trkpt lat="42.71569" lon="1.12034">
        <ele>1465.5999755859</ele>
        <time>2023-07-26T12:35:08.000Z</time>
      </trkpt>
      <trkpt lat="42.71569" lon="1.12029">
        <ele>1465.5999755859</ele>
        <time>2023-07-26T12:35:17.000Z</time>
      </trkpt>
      <trkpt lat="42.71567" lon="1.12018">
        <ele>1465.1999511719</ele>
        <time>2023-07-26T12:35:23.000Z</time>
      </trkpt>
      <trkpt lat="42.71567" lon="1.12016">
        <ele>1465</ele>
        <time>2023-07-26T12:35:25.000Z</time>
      </trkpt>
      <trkpt lat="42.71569" lon="1.12009">
        <ele>1464.8000488281</ele>
        <time>2023-07-26T12:35:32.000Z</time>
      </trkpt>
      <trkpt lat="42.71574" lon="1.12003">
        <ele>1464</ele>
        <time>2023-07-26T12:35:39.000Z</time>
      </trkpt>
      <trkpt lat="42.71578" lon="1.11994">
        <ele>1463.1999511719</ele>
        <time>2023-07-26T12:35:45.000Z</time>
      </trkpt>
      <trkpt lat="42.71579" lon="1.11992">
        <ele>1463</ele>
        <time>2023-07-26T12:35:47.000Z</time>
      </trkpt>
      <trkpt lat="42.71583" lon="1.11988">
        <ele>1462.4000244141</ele>
        <time>2023-07-26T12:35:51.000Z</time>
      </trkpt>
      <trkpt lat="42.71584" lon="1.11986">
        <ele>1461.8000488281</ele>
        <time>2023-07-26T12:35:54.000Z</time>
      </trkpt>
      <trkpt lat="42.71588" lon="1.11982">
        <ele>1461</ele>
        <time>2023-07-26T12:35:58.000Z</time>
      </trkpt>
      <trkpt lat="42.71588" lon="1.11981">
        <ele>1460.8000488281</ele>
        <time>2023-07-26T12:35:59.000Z</time>
      </trkpt>
      <trkpt lat="42.71592" lon="1.11978">
        <ele>1460.1999511719</ele>
        <time>2023-07-26T12:36:05.000Z</time>
      </trkpt>
      <trkpt lat="42.71593" lon="1.11979">
        <ele>1460.1999511719</ele>
        <time>2023-07-26T12:36:09.000Z</time>
      </trkpt>
      <trkpt lat="42.71593" lon="1.1198">
        <ele>1460.1999511719</ele>
        <time>2023-07-26T12:36:14.000Z</time>
      </trkpt>
      <trkpt lat="42.71593" lon="1.1198">
        <ele>1460.1999511719</ele>
        <time>2023-07-26T12:36:26.000Z</time>
      </trkpt>
      <trkpt lat="42.7159" lon="1.1198">
        <ele>1460</ele>
        <time>2023-07-26T12:36:38.000Z</time>
      </trkpt>
      <trkpt lat="42.71589" lon="1.11975">
        <ele>1460.1999511719</ele>
        <time>2023-07-26T12:36:44.000Z</time>
      </trkpt>
      <trkpt lat="42.71589" lon="1.11978">
        <ele>1460.4000244141</ele>
        <time>2023-07-26T12:36:51.000Z</time>
      </trkpt>
      <trkpt lat="42.71589" lon="1.11979">
        <ele>1460.4000244141</ele>
        <time>2023-07-26T12:36:58.000Z</time>
      </trkpt>
      <trkpt lat="42.71588" lon="1.11978">
        <ele>1460.1999511719</ele>
        <time>2023-07-26T12:37:06.000Z</time>
      </trkpt>
      <trkpt lat="42.71583" lon="1.11975">
        <ele>1459.5999755859</ele>
        <time>2023-07-26T12:37:13.000Z</time>
      </trkpt>
      <trkpt lat="42.71579" lon="1.11971">
        <ele>1458.5999755859</ele>
        <time>2023-07-26T12:37:18.000Z</time>
      </trkpt>
      <trkpt lat="42.71576" lon="1.1197">
        <ele>1458.4000244141</ele>
        <time>2023-07-26T12:37:20.000Z</time>
      </trkpt>
      <trkpt lat="42.7157" lon="1.11968">
        <ele>1457.8000488281</ele>
        <time>2023-07-26T12:37:26.000Z</time>
      </trkpt>
      <trkpt lat="42.71567" lon="1.11968">
        <ele>1457.5999755859</ele>
        <time>2023-07-26T12:37:29.000Z</time>
      </trkpt>
      <trkpt lat="42.71565" lon="1.11966">
        <ele>1457</ele>
        <time>2023-07-26T12:37:32.000Z</time>
      </trkpt>
      <trkpt lat="42.71556" lon="1.11961">
        <ele>1456.1999511719</ele>
        <time>2023-07-26T12:37:39.000Z</time>
      </trkpt>
      <trkpt lat="42.71554" lon="1.1196">
        <ele>1456</ele>
        <time>2023-07-26T12:37:40.000Z</time>
      </trkpt>
      <trkpt lat="42.71548" lon="1.11956">
        <ele>1455.1999511719</ele>
        <time>2023-07-26T12:37:46.000Z</time>
      </trkpt>
      <trkpt lat="42.71545" lon="1.11955">
        <ele>1455.1999511719</ele>
        <time>2023-07-26T12:37:48.000Z</time>
      </trkpt>
      <trkpt lat="42.71536" lon="1.11954">
        <ele>1454</ele>
        <time>2023-07-26T12:37:55.000Z</time>
      </trkpt>
      <trkpt lat="42.71531" lon="1.11956">
        <ele>1453</ele>
        <time>2023-07-26T12:38:00.000Z</time>
      </trkpt>
      <trkpt lat="42.71525" lon="1.11959">
        <ele>1451.8000488281</ele>
        <time>2023-07-26T12:38:04.000Z</time>
      </trkpt>
      <trkpt lat="42.71524" lon="1.1196">
        <ele>1451.5999755859</ele>
        <time>2023-07-26T12:38:05.000Z</time>
      </trkpt>
      <trkpt lat="42.71517" lon="1.11966">
        <ele>1450.8000488281</ele>
        <time>2023-07-26T12:38:12.000Z</time>
      </trkpt>
      <trkpt lat="42.71513" lon="1.11965">
        <ele>1450.1999511719</ele>
        <time>2023-07-26T12:38:18.000Z</time>
      </trkpt>
      <trkpt lat="42.71513" lon="1.11963">
        <ele>1449.5999755859</ele>
        <time>2023-07-26T12:38:20.000Z</time>
      </trkpt>
      <trkpt lat="42.71511" lon="1.11956">
        <ele>1448.4000244141</ele>
        <time>2023-07-26T12:38:24.000Z</time>
      </trkpt>
      <trkpt lat="42.71511" lon="1.11953">
        <ele>1447.8000488281</ele>
        <time>2023-07-26T12:38:26.000Z</time>
      </trkpt>
      <trkpt lat="42.71508" lon="1.11954">
        <ele>1447.1999511719</ele>
        <time>2023-07-26T12:38:31.000Z</time>
      </trkpt>
      <trkpt lat="42.71508" lon="1.11956">
        <ele>1447.4000244141</ele>
        <time>2023-07-26T12:38:33.000Z</time>
      </trkpt>
      <trkpt lat="42.71508" lon="1.11958">
        <ele>1447.1999511719</ele>
        <time>2023-07-26T12:38:36.000Z</time>
      </trkpt>
      <trkpt lat="42.71509" lon="1.11959">
        <ele>1447.1999511719</ele>
        <time>2023-07-26T12:38:41.000Z</time>
      </trkpt>
      <trkpt lat="42.71509" lon="1.11947">
        <ele>1446.1999511719</ele>
        <time>2023-07-26T12:38:47.000Z</time>
      </trkpt>
      <trkpt lat="42.71509" lon="1.11945">
        <ele>1446.1999511719</ele>
        <time>2023-07-26T12:38:48.000Z</time>
      </trkpt>
      <trkpt lat="42.7151" lon="1.11937">
        <ele>1446.1999511719</ele>
        <time>2023-07-26T12:38:54.000Z</time>
      </trkpt>
      <trkpt lat="42.71512" lon="1.11934">
        <ele>1445</ele>
        <time>2023-07-26T12:38:57.000Z</time>
      </trkpt>
      <trkpt lat="42.71517" lon="1.1193">
        <ele>1444.1999511719</ele>
        <time>2023-07-26T12:39:02.000Z</time>
      </trkpt>
      <trkpt lat="42.71518" lon="1.1193">
        <ele>1443.8000488281</ele>
        <time>2023-07-26T12:39:03.000Z</time>
      </trkpt>
      <trkpt lat="42.71524" lon="1.11926">
        <ele>1442.8000488281</ele>
        <time>2023-07-26T12:39:09.000Z</time>
      </trkpt>
      <trkpt lat="42.71528" lon="1.11923">
        <ele>1441.5999755859</ele>
        <time>2023-07-26T12:39:14.000Z</time>
      </trkpt>
      <trkpt lat="42.71529" lon="1.11923">
        <ele>1441.4000244141</ele>
        <time>2023-07-26T12:39:15.000Z</time>
      </trkpt>
      <trkpt lat="42.71533" lon="1.11921">
        <ele>1440.5999755859</ele>
        <time>2023-07-26T12:39:19.000Z</time>
      </trkpt>
      <trkpt lat="42.71538" lon="1.11916">
        <ele>1439.5999755859</ele>
        <time>2023-07-26T12:39:23.000Z</time>
      </trkpt>
      <trkpt lat="42.71544" lon="1.11908">
        <ele>1438.4000244141</ele>
        <time>2023-07-26T12:39:29.000Z</time>
      </trkpt>
      <trkpt lat="42.71545" lon="1.11907">
        <ele>1438.1999511719</ele>
        <time>2023-07-26T12:39:30.000Z</time>
      </trkpt>
      <trkpt lat="42.71553" lon="1.11902">
        <ele>1437.4000244141</ele>
        <time>2023-07-26T12:39:37.000Z</time>
      </trkpt>
      <trkpt lat="42.71561" lon="1.11902">
        <ele>1436.1999511719</ele>
        <time>2023-07-26T12:39:44.000Z</time>
      </trkpt>
      <trkpt lat="42.71562" lon="1.11903">
        <ele>1436</ele>
        <time>2023-07-26T12:39:45.000Z</time>
      </trkpt>
      <trkpt lat="42.71566" lon="1.11903">
        <ele>1435</ele>
        <time>2023-07-26T12:39:48.000Z</time>
      </trkpt>
      <trkpt lat="42.71571" lon="1.11904">
        <ele>1434.1999511719</ele>
        <time>2023-07-26T12:39:52.000Z</time>
      </trkpt>
      <trkpt lat="42.71573" lon="1.11904">
        <ele>1434</ele>
        <time>2023-07-26T12:39:53.000Z</time>
      </trkpt>
      <trkpt lat="42.7158" lon="1.11905">
        <ele>1432.8000488281</ele>
        <time>2023-07-26T12:39:58.000Z</time>
      </trkpt>
      <trkpt lat="42.71585" lon="1.11907">
        <ele>1432.1999511719</ele>
        <time>2023-07-26T12:40:02.000Z</time>
      </trkpt>
      <trkpt lat="42.71585" lon="1.11907">
        <ele>1431.8000488281</ele>
        <time>2023-07-26T12:40:03.000Z</time>
      </trkpt>
      <trkpt lat="42.71591" lon="1.11904">
        <ele>1430.8000488281</ele>
        <time>2023-07-26T12:40:10.000Z</time>
      </trkpt>
      <trkpt lat="42.7159" lon="1.11898">
        <ele>1430.4000244141</ele>
        <time>2023-07-26T12:40:13.000Z</time>
      </trkpt>
      <trkpt lat="42.71589" lon="1.11894">
        <ele>1429.8000488281</ele>
        <time>2023-07-26T12:40:16.000Z</time>
      </trkpt>
      <trkpt lat="42.71589" lon="1.11894">
        <ele>1429.5999755859</ele>
        <time>2023-07-26T12:40:17.000Z</time>
      </trkpt>
      <trkpt lat="42.71586" lon="1.1189">
        <ele>1429.4000244141</ele>
        <time>2023-07-26T12:40:24.000Z</time>
      </trkpt>
      <trkpt lat="42.71583" lon="1.1189">
        <ele>1428.5999755859</ele>
        <time>2023-07-26T12:40:29.000Z</time>
      </trkpt>
      <trkpt lat="42.71583" lon="1.11891">
        <ele>1428.4000244141</ele>
        <time>2023-07-26T12:40:34.000Z</time>
      </trkpt>
      <trkpt lat="42.71583" lon="1.1189">
        <ele>1428.4000244141</ele>
        <time>2023-07-26T12:40:43.000Z</time>
      </trkpt>
      <trkpt lat="42.71576" lon="1.11887">
        <ele>1427.5999755859</ele>
        <time>2023-07-26T12:40:51.000Z</time>
      </trkpt>
      <trkpt lat="42.71572" lon="1.11883">
        <ele>1426.4000244141</ele>
        <time>2023-07-26T12:40:56.000Z</time>
      </trkpt>
      <trkpt lat="42.71571" lon="1.11881">
        <ele>1426</ele>
        <time>2023-07-26T12:40:58.000Z</time>
      </trkpt>
      <trkpt lat="42.71567" lon="1.11877">
        <ele>1425.1999511719</ele>
        <time>2023-07-26T12:41:01.000Z</time>
      </trkpt>
      <trkpt lat="42.71564" lon="1.11872">
        <ele>1424.5999755859</ele>
        <time>2023-07-26T12:41:05.000Z</time>
      </trkpt>
      <trkpt lat="42.71562" lon="1.11869">
        <ele>1424</ele>
        <time>2023-07-26T12:41:07.000Z</time>
      </trkpt>
      <trkpt lat="42.71558" lon="1.11864">
        <ele>1423</ele>
        <time>2023-07-26T12:41:11.000Z</time>
      </trkpt>
      <trkpt lat="42.71558" lon="1.11863">
        <ele>1422.5999755859</ele>
        <time>2023-07-26T12:41:12.000Z</time>
      </trkpt>
      <trkpt lat="42.71556" lon="1.11859">
        <ele>1422</ele>
        <time>2023-07-26T12:41:15.000Z</time>
      </trkpt>
      <trkpt lat="42.71553" lon="1.11853">
        <ele>1421</ele>
        <time>2023-07-26T12:41:20.000Z</time>
      </trkpt>
      <trkpt lat="42.71551" lon="1.1185">
        <ele>1420.4000244141</ele>
        <time>2023-07-26T12:41:22.000Z</time>
      </trkpt>
      <trkpt lat="42.7155" lon="1.11847">
        <ele>1419.8000488281</ele>
        <time>2023-07-26T12:41:24.000Z</time>
      </trkpt>
      <trkpt lat="42.71546" lon="1.11842">
        <ele>1418.1999511719</ele>
        <time>2023-07-26T12:41:29.000Z</time>
      </trkpt>
      <trkpt lat="42.71541" lon="1.11838">
        <ele>1417.8000488281</ele>
        <time>2023-07-26T12:41:36.000Z</time>
      </trkpt>
      <trkpt lat="42.71538" lon="1.1183">
        <ele>1417.1999511719</ele>
        <time>2023-07-26T12:41:41.000Z</time>
      </trkpt>
      <trkpt lat="42.71536" lon="1.11826">
        <ele>1416.5999755859</ele>
        <time>2023-07-26T12:41:44.000Z</time>
      </trkpt>
      <trkpt lat="42.71533" lon="1.11824">
        <ele>1416</ele>
        <time>2023-07-26T12:41:47.000Z</time>
      </trkpt>
      <trkpt lat="42.7153" lon="1.1182">
        <ele>1415</ele>
        <time>2023-07-26T12:41:51.000Z</time>
      </trkpt>
      <trkpt lat="42.71528" lon="1.11819">
        <ele>1414.8000488281</ele>
        <time>2023-07-26T12:41:52.000Z</time>
      </trkpt>
      <trkpt lat="42.71523" lon="1.11818">
        <ele>1413.5999755859</ele>
        <time>2023-07-26T12:41:56.000Z</time>
      </trkpt>
      <trkpt lat="42.71522" lon="1.11817">
        <ele>1413.1999511719</ele>
        <time>2023-07-26T12:41:58.000Z</time>
      </trkpt>
      <trkpt lat="42.71522" lon="1.11816">
        <ele>1412.5999755859</ele>
        <time>2023-07-26T12:42:01.000Z</time>
      </trkpt>
      <trkpt lat="42.71522" lon="1.11816">
        <ele>1412.4000244141</ele>
        <time>2023-07-26T12:42:02.000Z</time>
      </trkpt>
      <trkpt lat="42.71521" lon="1.11816">
        <ele>1412.1999511719</ele>
        <time>2023-07-26T12:42:05.000Z</time>
      </trkpt>
      <trkpt lat="42.71523" lon="1.11817">
        <ele>1412.1999511719</ele>
        <time>2023-07-26T12:42:13.000Z</time>
      </trkpt>
      <trkpt lat="42.71522" lon="1.11817">
        <ele>1412.1999511719</ele>
        <time>2023-07-26T12:42:19.000Z</time>
      </trkpt>
      <trkpt lat="42.71513" lon="1.11818">
        <ele>1411.4000244141</ele>
        <time>2023-07-26T12:42:25.000Z</time>
      </trkpt>
      <trkpt lat="42.71512" lon="1.11819">
        <ele>1411.1999511719</ele>
        <time>2023-07-26T12:42:26.000Z</time>
      </trkpt>
      <trkpt lat="42.71508" lon="1.11824">
        <ele>1410.1999511719</ele>
        <time>2023-07-26T12:42:29.000Z</time>
      </trkpt>
      <trkpt lat="42.71506" lon="1.11827">
        <ele>1409.1999511719</ele>
        <time>2023-07-26T12:42:32.000Z</time>
      </trkpt>
      <trkpt lat="42.71505" lon="1.11828">
        <ele>1408.8000488281</ele>
        <time>2023-07-26T12:42:33.000Z</time>
      </trkpt>
      <trkpt lat="42.71502" lon="1.1183">
        <ele>1408.1999511719</ele>
        <time>2023-07-26T12:42:37.000Z</time>
      </trkpt>
      <trkpt lat="42.715" lon="1.11831">
        <ele>1407.5999755859</ele>
        <time>2023-07-26T12:42:40.000Z</time>
      </trkpt>
      <trkpt lat="42.71498" lon="1.11831">
        <ele>1407</ele>
        <time>2023-07-26T12:42:42.000Z</time>
      </trkpt>
      <trkpt lat="42.71492" lon="1.11831">
        <ele>1406</ele>
        <time>2023-07-26T12:42:47.000Z</time>
      </trkpt>
      <trkpt lat="42.71486" lon="1.1183">
        <ele>1405</ele>
        <time>2023-07-26T12:42:52.000Z</time>
      </trkpt>
      <trkpt lat="42.71483" lon="1.1183">
        <ele>1404.5999755859</ele>
        <time>2023-07-26T12:42:54.000Z</time>
      </trkpt>
      <trkpt lat="42.7148" lon="1.1183">
        <ele>1403.8000488281</ele>
        <time>2023-07-26T12:42:57.000Z</time>
      </trkpt>
      <trkpt lat="42.71476" lon="1.1183">
        <ele>1402.4000244141</ele>
        <time>2023-07-26T12:43:01.000Z</time>
      </trkpt>
      <trkpt lat="42.71472" lon="1.1183">
        <ele>1401.5999755859</ele>
        <time>2023-07-26T12:43:04.000Z</time>
      </trkpt>
      <trkpt lat="42.71471" lon="1.1183">
        <ele>1401.4000244141</ele>
        <time>2023-07-26T12:43:05.000Z</time>
      </trkpt>
      <trkpt lat="42.71467" lon="1.1183">
        <ele>1400.4000244141</ele>
        <time>2023-07-26T12:43:09.000Z</time>
      </trkpt>
      <trkpt lat="42.71461" lon="1.11831">
        <ele>1399</ele>
        <time>2023-07-26T12:43:13.000Z</time>
      </trkpt>
      <trkpt lat="42.71461" lon="1.1183">
        <ele>1398</ele>
        <time>2023-07-26T12:43:18.000Z</time>
      </trkpt>
      <trkpt lat="42.71461" lon="1.1183">
        <ele>1398</ele>
        <time>2023-07-26T12:43:19.000Z</time>
      </trkpt>
      <trkpt lat="42.71461" lon="1.1183">
        <ele>1397.5999755859</ele>
        <time>2023-07-26T12:43:28.000Z</time>
      </trkpt>
      <trkpt lat="42.71458" lon="1.11833">
        <ele>1397.8000488281</ele>
        <time>2023-07-26T12:43:36.000Z</time>
      </trkpt>
      <trkpt lat="42.71461" lon="1.11829">
        <ele>1397.5999755859</ele>
        <time>2023-07-26T12:43:41.000Z</time>
      </trkpt>
      <trkpt lat="42.71466" lon="1.11823">
        <ele>1396.8000488281</ele>
        <time>2023-07-26T12:43:47.000Z</time>
      </trkpt>
      <trkpt lat="42.71468" lon="1.11821">
        <ele>1396.4000244141</ele>
        <time>2023-07-26T12:43:49.000Z</time>
      </trkpt>
      <trkpt lat="42.71469" lon="1.11818">
        <ele>1395.8000488281</ele>
        <time>2023-07-26T12:43:51.000Z</time>
      </trkpt>
      <trkpt lat="42.71473" lon="1.11813">
        <ele>1394.4000244141</ele>
        <time>2023-07-26T12:43:56.000Z</time>
      </trkpt>
      <trkpt lat="42.71475" lon="1.1181">
        <ele>1394</ele>
        <time>2023-07-26T12:43:59.000Z</time>
      </trkpt>
      <trkpt lat="42.71477" lon="1.11809">
        <ele>1393.4000244141</ele>
        <time>2023-07-26T12:44:01.000Z</time>
      </trkpt>
      <trkpt lat="42.71481" lon="1.11806">
        <ele>1392.4000244141</ele>
        <time>2023-07-26T12:44:06.000Z</time>
      </trkpt>
      <trkpt lat="42.71481" lon="1.11806">
        <ele>1392.1999511719</ele>
        <time>2023-07-26T12:44:07.000Z</time>
      </trkpt>
      <trkpt lat="42.71487" lon="1.11798">
        <ele>1391.1999511719</ele>
        <time>2023-07-26T12:44:15.000Z</time>
      </trkpt>
      <trkpt lat="42.71487" lon="1.11796">
        <ele>1390.5999755859</ele>
        <time>2023-07-26T12:44:18.000Z</time>
      </trkpt>
      <trkpt lat="42.71485" lon="1.11795">
        <ele>1390.1999511719</ele>
        <time>2023-07-26T12:44:20.000Z</time>
      </trkpt>
      <trkpt lat="42.71478" lon="1.11798">
        <ele>1389.5999755859</ele>
        <time>2023-07-26T12:44:26.000Z</time>
      </trkpt>
      <trkpt lat="42.71477" lon="1.11798">
        <ele>1389.1999511719</ele>
        <time>2023-07-26T12:44:28.000Z</time>
      </trkpt>
      <trkpt lat="42.7147" lon="1.11801">
        <ele>1388.5999755859</ele>
        <time>2023-07-26T12:44:33.000Z</time>
      </trkpt>
      <trkpt lat="42.71468" lon="1.11804">
        <ele>1388</ele>
        <time>2023-07-26T12:44:37.000Z</time>
      </trkpt>
      <trkpt lat="42.71468" lon="1.11805">
        <ele>1388</ele>
        <time>2023-07-26T12:44:38.000Z</time>
      </trkpt>
      <trkpt lat="42.71468" lon="1.11807">
        <ele>1387.5999755859</ele>
        <time>2023-07-26T12:44:41.000Z</time>
      </trkpt>
      <trkpt lat="42.71468" lon="1.11809">
        <ele>1387.4000244141</ele>
        <time>2023-07-26T12:44:44.000Z</time>
      </trkpt>
      <trkpt lat="42.71468" lon="1.1181">
        <ele>1387.4000244141</ele>
        <time>2023-07-26T12:44:51.000Z</time>
      </trkpt>
      <trkpt lat="42.71466" lon="1.1181">
        <ele>1387.4000244141</ele>
        <time>2023-07-26T12:44:59.000Z</time>
      </trkpt>
      <trkpt lat="42.71463" lon="1.11809">
        <ele>1387</ele>
        <time>2023-07-26T12:45:03.000Z</time>
      </trkpt>
      <trkpt lat="42.7146" lon="1.11807">
        <ele>1386.1999511719</ele>
        <time>2023-07-26T12:45:05.000Z</time>
      </trkpt>
      <trkpt lat="42.71459" lon="1.11805">
        <ele>1386</ele>
        <time>2023-07-26T12:45:07.000Z</time>
      </trkpt>
      <trkpt lat="42.7146" lon="1.11804">
        <ele>1385.5999755859</ele>
        <time>2023-07-26T12:45:10.000Z</time>
      </trkpt>
      <trkpt lat="42.71461" lon="1.11803">
        <ele>1385.4000244141</ele>
        <time>2023-07-26T12:45:12.000Z</time>
      </trkpt>
      <trkpt lat="42.71462" lon="1.11801">
        <ele>1384.8000488281</ele>
        <time>2023-07-26T12:45:16.000Z</time>
      </trkpt>
      <trkpt lat="42.71466" lon="1.11795">
        <ele>1384</ele>
        <time>2023-07-26T12:45:21.000Z</time>
      </trkpt>
      <trkpt lat="42.71468" lon="1.11793">
        <ele>1383.5999755859</ele>
        <time>2023-07-26T12:45:23.000Z</time>
      </trkpt>
      <trkpt lat="42.71473" lon="1.11787">
        <ele>1382.8000488281</ele>
        <time>2023-07-26T12:45:28.000Z</time>
      </trkpt>
      <trkpt lat="42.71474" lon="1.11785">
        <ele>1382.5999755859</ele>
        <time>2023-07-26T12:45:29.000Z</time>
      </trkpt>
      <trkpt lat="42.71477" lon="1.11781">
        <ele>1381.5999755859</ele>
        <time>2023-07-26T12:45:34.000Z</time>
      </trkpt>
      <trkpt lat="42.71477" lon="1.1178">
        <ele>1381.4000244141</ele>
        <time>2023-07-26T12:45:35.000Z</time>
      </trkpt>
      <trkpt lat="42.71481" lon="1.11775">
        <ele>1380.1999511719</ele>
        <time>2023-07-26T12:45:41.000Z</time>
      </trkpt>
      <trkpt lat="42.71484" lon="1.11771">
        <ele>1379.1999511719</ele>
        <time>2023-07-26T12:45:45.000Z</time>
      </trkpt>
      <trkpt lat="42.71485" lon="1.1177">
        <ele>1379</ele>
        <time>2023-07-26T12:45:46.000Z</time>
      </trkpt>
      <trkpt lat="42.71489" lon="1.11765">
        <ele>1378</ele>
        <time>2023-07-26T12:45:51.000Z</time>
      </trkpt>
      <trkpt lat="42.7149" lon="1.11763">
        <ele>1377.5999755859</ele>
        <time>2023-07-26T12:45:53.000Z</time>
      </trkpt>
      <trkpt lat="42.71492" lon="1.11762">
        <ele>1377</ele>
        <time>2023-07-26T12:45:57.000Z</time>
      </trkpt>
      <trkpt lat="42.71493" lon="1.11761">
        <ele>1376.8000488281</ele>
        <time>2023-07-26T12:45:58.000Z</time>
      </trkpt>
      <trkpt lat="42.71498" lon="1.11756">
        <ele>1375.8000488281</ele>
        <time>2023-07-26T12:46:04.000Z</time>
      </trkpt>
      <trkpt lat="42.71501" lon="1.11754">
        <ele>1375.4000244141</ele>
        <time>2023-07-26T12:46:06.000Z</time>
      </trkpt>
      <trkpt lat="42.71508" lon="1.1175">
        <ele>1374.5999755859</ele>
        <time>2023-07-26T12:46:12.000Z</time>
      </trkpt>
      <trkpt lat="42.7151" lon="1.11749">
        <ele>1374.1999511719</ele>
        <time>2023-07-26T12:46:14.000Z</time>
      </trkpt>
      <trkpt lat="42.71517" lon="1.11748">
        <ele>1373.4000244141</ele>
        <time>2023-07-26T12:46:19.000Z</time>
      </trkpt>
      <trkpt lat="42.71519" lon="1.11747">
        <ele>1373.1999511719</ele>
        <time>2023-07-26T12:46:21.000Z</time>
      </trkpt>
      <trkpt lat="42.71521" lon="1.11746">
        <ele>1372.4000244141</ele>
        <time>2023-07-26T12:46:25.000Z</time>
      </trkpt>
      <trkpt lat="42.71526" lon="1.11744">
        <ele>1371</ele>
        <time>2023-07-26T12:46:30.000Z</time>
      </trkpt>
      <trkpt lat="42.7153" lon="1.11742">
        <ele>1369.8000488281</ele>
        <time>2023-07-26T12:46:35.000Z</time>
      </trkpt>
      <trkpt lat="42.71533" lon="1.11743">
        <ele>1369.4000244141</ele>
        <time>2023-07-26T12:46:37.000Z</time>
      </trkpt>
      <trkpt lat="42.7154" lon="1.11744">
        <ele>1368.5999755859</ele>
        <time>2023-07-26T12:46:41.000Z</time>
      </trkpt>
      <trkpt lat="42.71546" lon="1.11746">
        <ele>1368</ele>
        <time>2023-07-26T12:46:44.000Z</time>
      </trkpt>
      <trkpt lat="42.71549" lon="1.11746">
        <ele>1367.4000244141</ele>
        <time>2023-07-26T12:46:46.000Z</time>
      </trkpt>
      <trkpt lat="42.71554" lon="1.11746">
        <ele>1366.4000244141</ele>
        <time>2023-07-26T12:46:50.000Z</time>
      </trkpt>
      <trkpt lat="42.71555" lon="1.11746">
        <ele>1366.4000244141</ele>
        <time>2023-07-26T12:46:51.000Z</time>
      </trkpt>
      <trkpt lat="42.71564" lon="1.11745">
        <ele>1365.1999511719</ele>
        <time>2023-07-26T12:46:59.000Z</time>
      </trkpt>
      <trkpt lat="42.7157" lon="1.11743">
        <ele>1364</ele>
        <time>2023-07-26T12:47:04.000Z</time>
      </trkpt>
      <trkpt lat="42.71573" lon="1.11742">
        <ele>1363.1999511719</ele>
        <time>2023-07-26T12:47:07.000Z</time>
      </trkpt>
      <trkpt lat="42.71574" lon="1.11741">
        <ele>1362.8000488281</ele>
        <time>2023-07-26T12:47:08.000Z</time>
      </trkpt>
      <trkpt lat="42.71583" lon="1.11736">
        <ele>1361.8000488281</ele>
        <time>2023-07-26T12:47:15.000Z</time>
      </trkpt>
      <trkpt lat="42.71589" lon="1.1173">
        <ele>1360.8000488281</ele>
        <time>2023-07-26T12:47:23.000Z</time>
      </trkpt>
      <trkpt lat="42.71592" lon="1.11727">
        <ele>1360.1999511719</ele>
        <time>2023-07-26T12:47:26.000Z</time>
      </trkpt>
      <trkpt lat="42.71595" lon="1.11723">
        <ele>1359.4000244141</ele>
        <time>2023-07-26T12:47:29.000Z</time>
      </trkpt>
      <trkpt lat="42.71601" lon="1.11719">
        <ele>1358.4000244141</ele>
        <time>2023-07-26T12:47:34.000Z</time>
      </trkpt>
      <trkpt lat="42.71603" lon="1.1171">
        <ele>1357.4000244141</ele>
        <time>2023-07-26T12:47:41.000Z</time>
      </trkpt>
      <trkpt lat="42.71598" lon="1.11707">
        <ele>1356.4000244141</ele>
        <time>2023-07-26T12:47:47.000Z</time>
      </trkpt>
      <trkpt lat="42.71593" lon="1.11707">
        <ele>1355.1999511719</ele>
        <time>2023-07-26T12:47:51.000Z</time>
      </trkpt>
      <trkpt lat="42.71591" lon="1.11708">
        <ele>1354.5999755859</ele>
        <time>2023-07-26T12:47:53.000Z</time>
      </trkpt>
      <trkpt lat="42.71587" lon="1.11707">
        <ele>1354.1999511719</ele>
        <time>2023-07-26T12:47:56.000Z</time>
      </trkpt>
      <trkpt lat="42.71583" lon="1.11706">
        <ele>1353.1999511719</ele>
        <time>2023-07-26T12:48:00.000Z</time>
      </trkpt>
      <trkpt lat="42.71582" lon="1.11705">
        <ele>1353</ele>
        <time>2023-07-26T12:48:01.000Z</time>
      </trkpt>
      <trkpt lat="42.71577" lon="1.11704">
        <ele>1351.8000488281</ele>
        <time>2023-07-26T12:48:05.000Z</time>
      </trkpt>
      <trkpt lat="42.71574" lon="1.11703">
        <ele>1350.8000488281</ele>
        <time>2023-07-26T12:48:08.000Z</time>
      </trkpt>
      <trkpt lat="42.71573" lon="1.11702">
        <ele>1350.5999755859</ele>
        <time>2023-07-26T12:48:09.000Z</time>
      </trkpt>
      <trkpt lat="42.71569" lon="1.11699">
        <ele>1349.4000244141</ele>
        <time>2023-07-26T12:48:13.000Z</time>
      </trkpt>
      <trkpt lat="42.71565" lon="1.11694">
        <ele>1348.4000244141</ele>
        <time>2023-07-26T12:48:17.000Z</time>
      </trkpt>
      <trkpt lat="42.71564" lon="1.11693">
        <ele>1348.1999511719</ele>
        <time>2023-07-26T12:48:18.000Z</time>
      </trkpt>
      <trkpt lat="42.71559" lon="1.1169">
        <ele>1347.1999511719</ele>
        <time>2023-07-26T12:48:22.000Z</time>
      </trkpt>
      <trkpt lat="42.71556" lon="1.11686">
        <ele>1346.1999511719</ele>
        <time>2023-07-26T12:48:26.000Z</time>
      </trkpt>
      <trkpt lat="42.71555" lon="1.11685">
        <ele>1346</ele>
        <time>2023-07-26T12:48:27.000Z</time>
      </trkpt>
      <trkpt lat="42.71551" lon="1.11678">
        <ele>1345</ele>
        <time>2023-07-26T12:48:31.000Z</time>
      </trkpt>
      <trkpt lat="42.71548" lon="1.11674">
        <ele>1344.4000244141</ele>
        <time>2023-07-26T12:48:33.000Z</time>
      </trkpt>
      <trkpt lat="42.71546" lon="1.1167">
        <ele>1343.8000488281</ele>
        <time>2023-07-26T12:48:36.000Z</time>
      </trkpt>
      <trkpt lat="42.71542" lon="1.11667">
        <ele>1343</ele>
        <time>2023-07-26T12:48:39.000Z</time>
      </trkpt>
      <trkpt lat="42.7154" lon="1.11666">
        <ele>1342.5999755859</ele>
        <time>2023-07-26T12:48:41.000Z</time>
      </trkpt>
      <trkpt lat="42.71535" lon="1.11664">
        <ele>1341.4000244141</ele>
        <time>2023-07-26T12:48:46.000Z</time>
      </trkpt>
      <trkpt lat="42.71529" lon="1.11662">
        <ele>1340.1999511719</ele>
        <time>2023-07-26T12:48:50.000Z</time>
      </trkpt>
      <trkpt lat="42.71526" lon="1.11659">
        <ele>1339.1999511719</ele>
        <time>2023-07-26T12:48:54.000Z</time>
      </trkpt>
      <trkpt lat="42.71525" lon="1.11658">
        <ele>1339</ele>
        <time>2023-07-26T12:48:55.000Z</time>
      </trkpt>
      <trkpt lat="42.71522" lon="1.11655">
        <ele>1338</ele>
        <time>2023-07-26T12:48:59.000Z</time>
      </trkpt>
      <trkpt lat="42.71519" lon="1.11653">
        <ele>1337.1999511719</ele>
        <time>2023-07-26T12:49:02.000Z</time>
      </trkpt>
      <trkpt lat="42.71516" lon="1.11651">
        <ele>1336.8000488281</ele>
        <time>2023-07-26T12:49:04.000Z</time>
      </trkpt>
      <trkpt lat="42.71511" lon="1.11647">
        <ele>1335.8000488281</ele>
        <time>2023-07-26T12:49:08.000Z</time>
      </trkpt>
      <trkpt lat="42.7151" lon="1.11646">
        <ele>1335.4000244141</ele>
        <time>2023-07-26T12:49:09.000Z</time>
      </trkpt>
      <trkpt lat="42.71507" lon="1.11645">
        <ele>1334.4000244141</ele>
        <time>2023-07-26T12:49:12.000Z</time>
      </trkpt>
      <trkpt lat="42.71505" lon="1.11644">
        <ele>1333.8000488281</ele>
        <time>2023-07-26T12:49:15.000Z</time>
      </trkpt>
      <trkpt lat="42.71503" lon="1.11643">
        <ele>1333.1999511719</ele>
        <time>2023-07-26T12:49:17.000Z</time>
      </trkpt>
      <trkpt lat="42.71498" lon="1.11639">
        <ele>1332</ele>
        <time>2023-07-26T12:49:22.000Z</time>
      </trkpt>
      <trkpt lat="42.71493" lon="1.11635">
        <ele>1331.4000244141</ele>
        <time>2023-07-26T12:49:25.000Z</time>
      </trkpt>
      <trkpt lat="42.71489" lon="1.11632">
        <ele>1330.8000488281</ele>
        <time>2023-07-26T12:49:27.000Z</time>
      </trkpt>
      <trkpt lat="42.71484" lon="1.11629">
        <ele>1329.8000488281</ele>
        <time>2023-07-26T12:49:31.000Z</time>
      </trkpt>
      <trkpt lat="42.71483" lon="1.11629">
        <ele>1329.5999755859</ele>
        <time>2023-07-26T12:49:32.000Z</time>
      </trkpt>
      <trkpt lat="42.71476" lon="1.11629">
        <ele>1328.4000244141</ele>
        <time>2023-07-26T12:49:37.000Z</time>
      </trkpt>
      <trkpt lat="42.71474" lon="1.11629">
        <ele>1328.1999511719</ele>
        <time>2023-07-26T12:49:38.000Z</time>
      </trkpt>
      <trkpt lat="42.71467" lon="1.11627">
        <ele>1327.1999511719</ele>
        <time>2023-07-26T12:49:43.000Z</time>
      </trkpt>
      <trkpt lat="42.71457" lon="1.11625">
        <ele>1326.1999511719</ele>
        <time>2023-07-26T12:49:50.000Z</time>
      </trkpt>
      <trkpt lat="42.71457" lon="1.11625">
        <ele>1326.1999511719</ele>
        <time>2023-07-26T12:49:51.000Z</time>
      </trkpt>
      <trkpt lat="42.71452" lon="1.11624">
        <ele>1325.1999511719</ele>
        <time>2023-07-26T12:49:57.000Z</time>
      </trkpt>
      <trkpt lat="42.7145" lon="1.11624">
        <ele>1325</ele>
        <time>2023-07-26T12:49:58.000Z</time>
      </trkpt>
      <trkpt lat="42.71443" lon="1.11621">
        <ele>1324.1999511719</ele>
        <time>2023-07-26T12:50:04.000Z</time>
      </trkpt>
      <trkpt lat="42.71441" lon="1.1162">
        <ele>1324</ele>
        <time>2023-07-26T12:50:05.000Z</time>
      </trkpt>
      <trkpt lat="42.71437" lon="1.11614">
        <ele>1322.8000488281</ele>
        <time>2023-07-26T12:50:11.000Z</time>
      </trkpt>
      <trkpt lat="42.71437" lon="1.11602">
        <ele>1322.8000488281</ele>
        <time>2023-07-26T12:50:17.000Z</time>
      </trkpt>
      <trkpt lat="42.71434" lon="1.11593">
        <ele>1322.5999755859</ele>
        <time>2023-07-26T12:50:22.000Z</time>
      </trkpt>
      <trkpt lat="42.71427" lon="1.11588">
        <ele>1322.8000488281</ele>
        <time>2023-07-26T12:50:29.000Z</time>
      </trkpt>
      <trkpt lat="42.71422" lon="1.11588">
        <ele>1323.5999755859</ele>
        <time>2023-07-26T12:50:34.000Z</time>
      </trkpt>
      <trkpt lat="42.71418" lon="1.11587">
        <ele>1324</ele>
        <time>2023-07-26T12:50:37.000Z</time>
      </trkpt>
      <trkpt lat="42.71415" lon="1.11586">
        <ele>1324.1999511719</ele>
        <time>2023-07-26T12:50:39.000Z</time>
      </trkpt>
      <trkpt lat="42.71413" lon="1.11584">
        <ele>1325</ele>
        <time>2023-07-26T12:50:43.000Z</time>
      </trkpt>
      <trkpt lat="42.71412" lon="1.11584">
        <ele>1325</ele>
        <time>2023-07-26T12:50:44.000Z</time>
      </trkpt>
      <trkpt lat="42.71407" lon="1.11581">
        <ele>1326</ele>
        <time>2023-07-26T12:50:49.000Z</time>
      </trkpt>
      <trkpt lat="42.71406" lon="1.11581">
        <ele>1326.1999511719</ele>
        <time>2023-07-26T12:50:51.000Z</time>
      </trkpt>
      <trkpt lat="42.71399" lon="1.11579">
        <ele>1327.1999511719</ele>
        <time>2023-07-26T12:50:58.000Z</time>
      </trkpt>
      <trkpt lat="42.71394" lon="1.11575">
        <ele>1328.1999511719</ele>
        <time>2023-07-26T12:51:04.000Z</time>
      </trkpt>
      <trkpt lat="42.71388" lon="1.11569">
        <ele>1329.4000244141</ele>
        <time>2023-07-26T12:51:11.000Z</time>
      </trkpt>
      <trkpt lat="42.71388" lon="1.11568">
        <ele>1329.5999755859</ele>
        <time>2023-07-26T12:51:12.000Z</time>
      </trkpt>
      <trkpt lat="42.71385" lon="1.11567">
        <ele>1330.4000244141</ele>
        <time>2023-07-26T12:51:17.000Z</time>
      </trkpt>
      <trkpt lat="42.71384" lon="1.11566">
        <ele>1330.5999755859</ele>
        <time>2023-07-26T12:51:18.000Z</time>
      </trkpt>
      <trkpt lat="42.7138" lon="1.11563">
        <ele>1331.4000244141</ele>
        <time>2023-07-26T12:51:23.000Z</time>
      </trkpt>
      <trkpt lat="42.71378" lon="1.11561">
        <ele>1332</ele>
        <time>2023-07-26T12:51:30.000Z</time>
      </trkpt>
      <trkpt lat="42.71377" lon="1.11565">
        <ele>1332.1999511719</ele>
        <time>2023-07-26T12:51:37.000Z</time>
      </trkpt>
      <trkpt lat="42.71382" lon="1.11567">
        <ele>1332.1999511719</ele>
        <time>2023-07-26T12:51:45.000Z</time>
      </trkpt>
      <trkpt lat="42.71381" lon="1.11565">
        <ele>1332.1999511719</ele>
        <time>2023-07-26T12:51:53.000Z</time>
      </trkpt>
      <trkpt lat="42.71376" lon="1.11563">
        <ele>1332.5999755859</ele>
        <time>2023-07-26T12:51:57.000Z</time>
      </trkpt>
      <trkpt lat="42.71374" lon="1.11561">
        <ele>1332.8000488281</ele>
        <time>2023-07-26T12:51:59.000Z</time>
      </trkpt>
      <trkpt lat="42.71364" lon="1.11557">
        <ele>1333.4000244141</ele>
        <time>2023-07-26T12:52:05.000Z</time>
      </trkpt>
      <trkpt lat="42.71363" lon="1.11556">
        <ele>1333.5999755859</ele>
        <time>2023-07-26T12:52:06.000Z</time>
      </trkpt>
      <trkpt lat="42.71355" lon="1.1155">
        <ele>1334.4000244141</ele>
        <time>2023-07-26T12:52:13.000Z</time>
      </trkpt>
      <trkpt lat="42.71352" lon="1.11546">
        <ele>1334.5999755859</ele>
        <time>2023-07-26T12:52:16.000Z</time>
      </trkpt>
      <trkpt lat="42.71346" lon="1.1154">
        <ele>1335.1999511719</ele>
        <time>2023-07-26T12:52:21.000Z</time>
      </trkpt>
      <trkpt lat="42.71348" lon="1.11541">
        <ele>1335.1999511719</ele>
        <time>2023-07-26T12:52:27.000Z</time>
      </trkpt>
      <trkpt lat="42.71346" lon="1.1154">
        <ele>1335.1999511719</ele>
        <time>2023-07-26T12:52:35.000Z</time>
      </trkpt>
      <trkpt lat="42.7134" lon="1.11533">
        <ele>1335.5999755859</ele>
        <time>2023-07-26T12:52:40.000Z</time>
      </trkpt>
      <trkpt lat="42.71338" lon="1.1153">
        <ele>1335.8000488281</ele>
        <time>2023-07-26T12:52:42.000Z</time>
      </trkpt>
      <trkpt lat="42.71332" lon="1.11525">
        <ele>1336.5999755859</ele>
        <time>2023-07-26T12:52:49.000Z</time>
      </trkpt>
      <trkpt lat="42.71331" lon="1.11525">
        <ele>1336.8000488281</ele>
        <time>2023-07-26T12:52:51.000Z</time>
      </trkpt>
      <trkpt lat="42.71324" lon="1.11519">
        <ele>1337.4000244141</ele>
        <time>2023-07-26T12:52:56.000Z</time>
      </trkpt>
      <trkpt lat="42.71319" lon="1.11514">
        <ele>1337.8000488281</ele>
        <time>2023-07-26T12:53:00.000Z</time>
      </trkpt>
      <trkpt lat="42.71312" lon="1.11507">
        <ele>1338.1999511719</ele>
        <time>2023-07-26T12:53:04.000Z</time>
      </trkpt>
      <trkpt lat="42.71305" lon="1.11494">
        <ele>1338.8000488281</ele>
        <time>2023-07-26T12:53:12.000Z</time>
      </trkpt>
      <trkpt lat="42.713" lon="1.11482">
        <ele>1339.4000244141</ele>
        <time>2023-07-26T12:53:19.000Z</time>
      </trkpt>
      <trkpt lat="42.71297" lon="1.11471">
        <ele>1340</ele>
        <time>2023-07-26T12:53:25.000Z</time>
      </trkpt>
      <trkpt lat="42.71293" lon="1.11464">
        <ele>1340.4000244141</ele>
        <time>2023-07-26T12:53:32.000Z</time>
      </trkpt>
      <trkpt lat="42.71291" lon="1.11452">
        <ele>1340.8000488281</ele>
        <time>2023-07-26T12:53:38.000Z</time>
      </trkpt>
      <trkpt lat="42.71291" lon="1.11451">
        <ele>1341</ele>
        <time>2023-07-26T12:53:43.000Z</time>
      </trkpt>
      <trkpt lat="42.71291" lon="1.11451">
        <ele>1340.8000488281</ele>
        <time>2023-07-26T12:53:45.000Z</time>
      </trkpt>
      <trkpt lat="42.7129" lon="1.11447">
        <ele>1340.5999755859</ele>
        <time>2023-07-26T12:53:48.000Z</time>
      </trkpt>
      <trkpt lat="42.7129" lon="1.1144">
        <ele>1340.8000488281</ele>
        <time>2023-07-26T12:53:51.000Z</time>
      </trkpt>
      <trkpt lat="42.7129" lon="1.11428">
        <ele>1340.8000488281</ele>
        <time>2023-07-26T12:53:57.000Z</time>
      </trkpt>
      <trkpt lat="42.71287" lon="1.11411">
        <ele>1340.4000244141</ele>
        <time>2023-07-26T12:54:05.000Z</time>
      </trkpt>
      <trkpt lat="42.71285" lon="1.11392">
        <ele>1340.1999511719</ele>
        <time>2023-07-26T12:54:15.000Z</time>
      </trkpt>
      <trkpt lat="42.71283" lon="1.11382">
        <ele>1339.8000488281</ele>
        <time>2023-07-26T12:54:21.000Z</time>
      </trkpt>
      <trkpt lat="42.7128" lon="1.11371">
        <ele>1339.4000244141</ele>
        <time>2023-07-26T12:54:30.000Z</time>
      </trkpt>
      <trkpt lat="42.7127" lon="1.11358">
        <ele>1339.1999511719</ele>
        <time>2023-07-26T12:54:38.000Z</time>
      </trkpt>
      <trkpt lat="42.71265" lon="1.11348">
        <ele>1339</ele>
        <time>2023-07-26T12:54:44.000Z</time>
      </trkpt>
      <trkpt lat="42.71264" lon="1.11345">
        <ele>1339</ele>
        <time>2023-07-26T12:54:46.000Z</time>
      </trkpt>
      <trkpt lat="42.71256" lon="1.11326">
        <ele>1338.8000488281</ele>
        <time>2023-07-26T12:54:56.000Z</time>
      </trkpt>
      <trkpt lat="42.71249" lon="1.11308">
        <ele>1338.5999755859</ele>
        <time>2023-07-26T12:55:06.000Z</time>
      </trkpt>
      <trkpt lat="42.71246" lon="1.11294">
        <ele>1338.1999511719</ele>
        <time>2023-07-26T12:55:13.000Z</time>
      </trkpt>
      <trkpt lat="42.71246" lon="1.11292">
        <ele>1337.8000488281</ele>
        <time>2023-07-26T12:55:14.000Z</time>
      </trkpt>
      <trkpt lat="42.71243" lon="1.1128">
        <ele>1337.4000244141</ele>
        <time>2023-07-26T12:55:22.000Z</time>
      </trkpt>
      <trkpt lat="42.7124" lon="1.11267">
        <ele>1336.8000488281</ele>
        <time>2023-07-26T12:55:29.000Z</time>
      </trkpt>
      <trkpt lat="42.71239" lon="1.11265">
        <ele>1336.5999755859</ele>
        <time>2023-07-26T12:55:30.000Z</time>
      </trkpt>
      <trkpt lat="42.71235" lon="1.11257">
        <ele>1335.5999755859</ele>
        <time>2023-07-26T12:55:35.000Z</time>
      </trkpt>
      <trkpt lat="42.71232" lon="1.11243">
        <ele>1334.8000488281</ele>
        <time>2023-07-26T12:55:43.000Z</time>
      </trkpt>
      <trkpt lat="42.71232" lon="1.11242">
        <ele>1334.5999755859</ele>
        <time>2023-07-26T12:55:44.000Z</time>
      </trkpt>
      <trkpt lat="42.71232" lon="1.11232">
        <ele>1333.4000244141</ele>
        <time>2023-07-26T12:55:51.000Z</time>
      </trkpt>
      <trkpt lat="42.71232" lon="1.11223">
        <ele>1332.4000244141</ele>
        <time>2023-07-26T12:55:56.000Z</time>
      </trkpt>
      <trkpt lat="42.71231" lon="1.11221">
        <ele>1332</ele>
        <time>2023-07-26T12:55:58.000Z</time>
      </trkpt>
      <trkpt lat="42.71229" lon="1.11204">
        <ele>1331.1999511719</ele>
        <time>2023-07-26T12:56:07.000Z</time>
      </trkpt>
      <trkpt lat="42.71231" lon="1.11194">
        <ele>1331</ele>
        <time>2023-07-26T12:56:12.000Z</time>
      </trkpt>
      <trkpt lat="42.71226" lon="1.11184">
        <ele>1330.4000244141</ele>
        <time>2023-07-26T12:56:18.000Z</time>
      </trkpt>
      <trkpt lat="42.71223" lon="1.11179">
        <ele>1330.1999511719</ele>
        <time>2023-07-26T12:56:20.000Z</time>
      </trkpt>
      <trkpt lat="42.7122" lon="1.11167">
        <ele>1329.1999511719</ele>
        <time>2023-07-26T12:56:25.000Z</time>
      </trkpt>
      <trkpt lat="42.7122" lon="1.11166">
        <ele>1329.1999511719</ele>
        <time>2023-07-26T12:56:26.000Z</time>
      </trkpt>
      <trkpt lat="42.71216" lon="1.11162">
        <ele>1328.1999511719</ele>
        <time>2023-07-26T12:56:31.000Z</time>
      </trkpt>
      <trkpt lat="42.71215" lon="1.11161">
        <ele>1328</ele>
        <time>2023-07-26T12:56:33.000Z</time>
      </trkpt>
      <trkpt lat="42.71209" lon="1.1115">
        <ele>1327.4000244141</ele>
        <time>2023-07-26T12:56:39.000Z</time>
      </trkpt>
      <trkpt lat="42.71207" lon="1.11143">
        <ele>1327</ele>
        <time>2023-07-26T12:56:42.000Z</time>
      </trkpt>
      <trkpt lat="42.71201" lon="1.11131">
        <ele>1326</ele>
        <time>2023-07-26T12:56:48.000Z</time>
      </trkpt>
      <trkpt lat="42.712" lon="1.11129">
        <ele>1325.8000488281</ele>
        <time>2023-07-26T12:56:49.000Z</time>
      </trkpt>
      <trkpt lat="42.71194" lon="1.11118">
        <ele>1324.8000488281</ele>
        <time>2023-07-26T12:56:56.000Z</time>
      </trkpt>
      <trkpt lat="42.71192" lon="1.11117">
        <ele>1324.5999755859</ele>
        <time>2023-07-26T12:56:57.000Z</time>
      </trkpt>
      <trkpt lat="42.71188" lon="1.11111">
        <ele>1323.5999755859</ele>
        <time>2023-07-26T12:57:04.000Z</time>
      </trkpt>
      <trkpt lat="42.71183" lon="1.111">
        <ele>1322.8000488281</ele>
        <time>2023-07-26T12:57:10.000Z</time>
      </trkpt>
      <trkpt lat="42.71182" lon="1.11098">
        <ele>1322.4000244141</ele>
        <time>2023-07-26T12:57:11.000Z</time>
      </trkpt>
      <trkpt lat="42.71178" lon="1.11091">
        <ele>1321.5999755859</ele>
        <time>2023-07-26T12:57:16.000Z</time>
      </trkpt>
      <trkpt lat="42.71176" lon="1.11089">
        <ele>1321.4000244141</ele>
        <time>2023-07-26T12:57:18.000Z</time>
      </trkpt>
      <trkpt lat="42.71172" lon="1.11083">
        <ele>1320.5999755859</ele>
        <time>2023-07-26T12:57:23.000Z</time>
      </trkpt>
      <trkpt lat="42.71171" lon="1.11082">
        <ele>1320.4000244141</ele>
        <time>2023-07-26T12:57:24.000Z</time>
      </trkpt>
      <trkpt lat="42.71162" lon="1.1107">
        <ele>1319.4000244141</ele>
        <time>2023-07-26T12:57:32.000Z</time>
      </trkpt>
      <trkpt lat="42.71156" lon="1.11061">
        <ele>1318.4000244141</ele>
        <time>2023-07-26T12:57:39.000Z</time>
      </trkpt>
      <trkpt lat="42.71154" lon="1.11059">
        <ele>1318.1999511719</ele>
        <time>2023-07-26T12:57:41.000Z</time>
      </trkpt>
      <trkpt lat="42.7115" lon="1.11053">
        <ele>1317.5999755859</ele>
        <time>2023-07-26T12:57:45.000Z</time>
      </trkpt>
      <trkpt lat="42.71146" lon="1.11049">
        <ele>1317</ele>
        <time>2023-07-26T12:57:48.000Z</time>
      </trkpt>
      <trkpt lat="42.71138" lon="1.11041">
        <ele>1316</ele>
        <time>2023-07-26T12:57:54.000Z</time>
      </trkpt>
      <trkpt lat="42.71126" lon="1.11029">
        <ele>1315</ele>
        <time>2023-07-26T12:58:02.000Z</time>
      </trkpt>
      <trkpt lat="42.71125" lon="1.11029">
        <ele>1314.8000488281</ele>
        <time>2023-07-26T12:58:03.000Z</time>
      </trkpt>
      <trkpt lat="42.71116" lon="1.11023">
        <ele>1314.1999511719</ele>
        <time>2023-07-26T12:58:11.000Z</time>
      </trkpt>
      <trkpt lat="42.71114" lon="1.11022">
        <ele>1314</ele>
        <time>2023-07-26T12:58:13.000Z</time>
      </trkpt>
      <trkpt lat="42.71106" lon="1.11019">
        <ele>1313.4000244141</ele>
        <time>2023-07-26T12:58:19.000Z</time>
      </trkpt>
      <trkpt lat="42.71102" lon="1.11016">
        <ele>1313</ele>
        <time>2023-07-26T12:58:22.000Z</time>
      </trkpt>
      <trkpt lat="42.71098" lon="1.11013">
        <ele>1312.5999755859</ele>
        <time>2023-07-26T12:58:25.000Z</time>
      </trkpt>
      <trkpt lat="42.7109" lon="1.11008">
        <ele>1311.8000488281</ele>
        <time>2023-07-26T12:58:31.000Z</time>
      </trkpt>
      <trkpt lat="42.71087" lon="1.11007">
        <ele>1311.8000488281</ele>
        <time>2023-07-26T12:58:33.000Z</time>
      </trkpt>
      <trkpt lat="42.71077" lon="1.11002">
        <ele>1311.1999511719</ele>
        <time>2023-07-26T12:58:41.000Z</time>
      </trkpt>
      <trkpt lat="42.71073" lon="1.10996">
        <ele>1311</ele>
        <time>2023-07-26T12:58:46.000Z</time>
      </trkpt>
      <trkpt lat="42.71072" lon="1.10995">
        <ele>1310.8000488281</ele>
        <time>2023-07-26T12:58:47.000Z</time>
      </trkpt>
      <trkpt lat="42.71068" lon="1.10988">
        <ele>1310.4000244141</ele>
        <time>2023-07-26T12:58:52.000Z</time>
      </trkpt>
      <trkpt lat="42.71061" lon="1.10976">
        <ele>1309.8000488281</ele>
        <time>2023-07-26T12:58:59.000Z</time>
      </trkpt>
      <trkpt lat="42.7106" lon="1.10974">
        <ele>1309.5999755859</ele>
        <time>2023-07-26T12:59:01.000Z</time>
      </trkpt>
      <trkpt lat="42.71054" lon="1.10967">
        <ele>1309.1999511719</ele>
        <time>2023-07-26T12:59:05.000Z</time>
      </trkpt>
      <trkpt lat="42.71041" lon="1.10953">
        <ele>1308.5999755859</ele>
        <time>2023-07-26T12:59:14.000Z</time>
      </trkpt>
      <trkpt lat="42.71036" lon="1.10944">
        <ele>1308.1999511719</ele>
        <time>2023-07-26T12:59:21.000Z</time>
      </trkpt>
      <trkpt lat="42.71034" lon="1.10937">
        <ele>1307.5999755859</ele>
        <time>2023-07-26T12:59:26.000Z</time>
      </trkpt>
      <trkpt lat="42.71028" lon="1.10926">
        <ele>1306.8000488281</ele>
        <time>2023-07-26T12:59:33.000Z</time>
      </trkpt>
      <trkpt lat="42.71026" lon="1.1092">
        <ele>1306.5999755859</ele>
        <time>2023-07-26T12:59:36.000Z</time>
      </trkpt>
      <trkpt lat="42.71022" lon="1.1091">
        <ele>1305.8000488281</ele>
        <time>2023-07-26T12:59:43.000Z</time>
      </trkpt>
      <trkpt lat="42.71017" lon="1.109">
        <ele>1305.4000244141</ele>
        <time>2023-07-26T12:59:48.000Z</time>
      </trkpt>
      <trkpt lat="42.71013" lon="1.10891">
        <ele>1304.8000488281</ele>
        <time>2023-07-26T12:59:53.000Z</time>
      </trkpt>
      <trkpt lat="42.71011" lon="1.10887">
        <ele>1304.4000244141</ele>
        <time>2023-07-26T12:59:56.000Z</time>
      </trkpt>
      <trkpt lat="42.71008" lon="1.10881">
        <ele>1303.8000488281</ele>
        <time>2023-07-26T13:00:01.000Z</time>
      </trkpt>
      <trkpt lat="42.71005" lon="1.10875">
        <ele>1303.1999511719</ele>
        <time>2023-07-26T13:00:05.000Z</time>
      </trkpt>
      <trkpt lat="42.71002" lon="1.1087">
        <ele>1303</ele>
        <time>2023-07-26T13:00:08.000Z</time>
      </trkpt>
      <trkpt lat="42.70993" lon="1.10856">
        <ele>1302.4000244141</ele>
        <time>2023-07-26T13:00:16.000Z</time>
      </trkpt>
      <trkpt lat="42.70991" lon="1.10852">
        <ele>1302.1999511719</ele>
        <time>2023-07-26T13:00:18.000Z</time>
      </trkpt>
      <trkpt lat="42.70983" lon="1.10842">
        <ele>1301.8000488281</ele>
        <time>2023-07-26T13:00:25.000Z</time>
      </trkpt>
      <trkpt lat="42.70971" lon="1.10832">
        <ele>1301.4000244141</ele>
        <time>2023-07-26T13:00:33.000Z</time>
      </trkpt>
      <trkpt lat="42.70964" lon="1.10828">
        <ele>1301.1999511719</ele>
        <time>2023-07-26T13:00:38.000Z</time>
      </trkpt>
      <trkpt lat="42.7096" lon="1.10827">
        <ele>1300.8000488281</ele>
        <time>2023-07-26T13:00:41.000Z</time>
      </trkpt>
      <trkpt lat="42.70943" lon="1.10828">
        <ele>1300</ele>
        <time>2023-07-26T13:00:52.000Z</time>
      </trkpt>
      <trkpt lat="42.70942" lon="1.10829">
        <ele>1300</ele>
        <time>2023-07-26T13:00:53.000Z</time>
      </trkpt>
      <trkpt lat="42.70926" lon="1.10831">
        <ele>1299.1999511719</ele>
        <time>2023-07-26T13:01:02.000Z</time>
      </trkpt>
      <trkpt lat="42.70922" lon="1.10831">
        <ele>1299</ele>
        <time>2023-07-26T13:01:04.000Z</time>
      </trkpt>
      <trkpt lat="42.70914" lon="1.10829">
        <ele>1298</ele>
        <time>2023-07-26T13:01:10.000Z</time>
      </trkpt>
      <trkpt lat="42.70905" lon="1.10827">
        <ele>1297</ele>
        <time>2023-07-26T13:01:17.000Z</time>
      </trkpt>
      <trkpt lat="42.70891" lon="1.10826">
        <ele>1295.8000488281</ele>
        <time>2023-07-26T13:01:25.000Z</time>
      </trkpt>
      <trkpt lat="42.70884" lon="1.10825">
        <ele>1294.5999755859</ele>
        <time>2023-07-26T13:01:30.000Z</time>
      </trkpt>
      <trkpt lat="42.70878" lon="1.10821">
        <ele>1294.1999511719</ele>
        <time>2023-07-26T13:01:34.000Z</time>
      </trkpt>
      <trkpt lat="42.70872" lon="1.10815">
        <ele>1293.5999755859</ele>
        <time>2023-07-26T13:01:38.000Z</time>
      </trkpt>
      <trkpt lat="42.70868" lon="1.10811">
        <ele>1293.4000244141</ele>
        <time>2023-07-26T13:01:41.000Z</time>
      </trkpt>
      <trkpt lat="42.70858" lon="1.10803">
        <ele>1292.4000244141</ele>
        <time>2023-07-26T13:01:49.000Z</time>
      </trkpt>
      <trkpt lat="42.70842" lon="1.10795">
        <ele>1291.4000244141</ele>
        <time>2023-07-26T13:02:00.000Z</time>
      </trkpt>
      <trkpt lat="42.70834" lon="1.10791">
        <ele>1290.4000244141</ele>
        <time>2023-07-26T13:02:06.000Z</time>
      </trkpt>
      <trkpt lat="42.70825" lon="1.10787">
        <ele>1289.5999755859</ele>
        <time>2023-07-26T13:02:13.000Z</time>
      </trkpt>
      <trkpt lat="42.70817" lon="1.10781">
        <ele>1289.1999511719</ele>
        <time>2023-07-26T13:02:18.000Z</time>
      </trkpt>
      <trkpt lat="42.70804" lon="1.10769">
        <ele>1288.5999755859</ele>
        <time>2023-07-26T13:02:29.000Z</time>
      </trkpt>
      <trkpt lat="42.70789" lon="1.10752">
        <ele>1288.4000244141</ele>
        <time>2023-07-26T13:02:41.000Z</time>
      </trkpt>
      <trkpt lat="42.70785" lon="1.10746">
        <ele>1288.4000244141</ele>
        <time>2023-07-26T13:02:44.000Z</time>
      </trkpt>
      <trkpt lat="42.70775" lon="1.10725">
        <ele>1288.5999755859</ele>
        <time>2023-07-26T13:02:56.000Z</time>
      </trkpt>
      <trkpt lat="42.70773" lon="1.10722">
        <ele>1288.5999755859</ele>
        <time>2023-07-26T13:02:58.000Z</time>
      </trkpt>
      <trkpt lat="42.70768" lon="1.10709">
        <ele>1289</ele>
        <time>2023-07-26T13:03:07.000Z</time>
      </trkpt>
      <trkpt lat="42.70765" lon="1.10694">
        <ele>1289.1999511719</ele>
        <time>2023-07-26T13:03:15.000Z</time>
      </trkpt>
      <trkpt lat="42.70763" lon="1.10683">
        <ele>1289</ele>
        <time>2023-07-26T13:03:21.000Z</time>
      </trkpt>
      <trkpt lat="42.70761" lon="1.10671">
        <ele>1289.1999511719</ele>
        <time>2023-07-26T13:03:27.000Z</time>
      </trkpt>
      <trkpt lat="42.70762" lon="1.10663">
        <ele>1289.1999511719</ele>
        <time>2023-07-26T13:03:33.000Z</time>
      </trkpt>
      <trkpt lat="42.7076" lon="1.10649">
        <ele>1289</ele>
        <time>2023-07-26T13:03:39.000Z</time>
      </trkpt>
      <trkpt lat="42.70763" lon="1.10632">
        <ele>1289</ele>
        <time>2023-07-26T13:03:45.000Z</time>
      </trkpt>
      <trkpt lat="42.70762" lon="1.10618">
        <ele>1288.8000488281</ele>
        <time>2023-07-26T13:03:50.000Z</time>
      </trkpt>
      <trkpt lat="42.70765" lon="1.106">
        <ele>1288.5999755859</ele>
        <time>2023-07-26T13:03:58.000Z</time>
      </trkpt>
      <trkpt lat="42.70766" lon="1.10583">
        <ele>1288.4000244141</ele>
        <time>2023-07-26T13:04:07.000Z</time>
      </trkpt>
      <trkpt lat="42.70766" lon="1.10574">
        <ele>1288.1999511719</ele>
        <time>2023-07-26T13:04:12.000Z</time>
      </trkpt>
      <trkpt lat="42.70767" lon="1.1057">
        <ele>1288.1999511719</ele>
        <time>2023-07-26T13:04:14.000Z</time>
      </trkpt>
      <trkpt lat="42.70769" lon="1.10553">
        <ele>1287.5999755859</ele>
        <time>2023-07-26T13:04:22.000Z</time>
      </trkpt>
      <trkpt lat="42.70768" lon="1.10539">
        <ele>1287.1999511719</ele>
        <time>2023-07-26T13:04:29.000Z</time>
      </trkpt>
      <trkpt lat="42.70767" lon="1.10538">
        <ele>1287.1999511719</ele>
        <time>2023-07-26T13:04:30.000Z</time>
      </trkpt>
      <trkpt lat="42.70765" lon="1.10525">
        <ele>1287</ele>
        <time>2023-07-26T13:04:35.000Z</time>
      </trkpt>
      <trkpt lat="42.70764" lon="1.10515">
        <ele>1286.5999755859</ele>
        <time>2023-07-26T13:04:40.000Z</time>
      </trkpt>
      <trkpt lat="42.70762" lon="1.10502">
        <ele>1286.1999511719</ele>
        <time>2023-07-26T13:04:46.000Z</time>
      </trkpt>
      <trkpt lat="42.70761" lon="1.10496">
        <ele>1285.8000488281</ele>
        <time>2023-07-26T13:04:49.000Z</time>
      </trkpt>
      <trkpt lat="42.70758" lon="1.10477">
        <ele>1285</ele>
        <time>2023-07-26T13:04:58.000Z</time>
      </trkpt>
      <trkpt lat="42.70753" lon="1.1046">
        <ele>1284.5999755859</ele>
        <time>2023-07-26T13:05:08.000Z</time>
      </trkpt>
      <trkpt lat="42.70746" lon="1.10446">
        <ele>1284.4000244141</ele>
        <time>2023-07-26T13:05:17.000Z</time>
      </trkpt>
      <trkpt lat="42.70738" lon="1.10435">
        <ele>1284.4000244141</ele>
        <time>2023-07-26T13:05:23.000Z</time>
      </trkpt>
      <trkpt lat="42.70727" lon="1.10422">
        <ele>1284</ele>
        <time>2023-07-26T13:05:31.000Z</time>
      </trkpt>
      <trkpt lat="42.70724" lon="1.10418">
        <ele>1283.8000488281</ele>
        <time>2023-07-26T13:05:34.000Z</time>
      </trkpt>
      <trkpt lat="42.7071" lon="1.104">
        <ele>1283.8000488281</ele>
        <time>2023-07-26T13:05:45.000Z</time>
      </trkpt>
      <trkpt lat="42.70703" lon="1.10395">
        <ele>1283.8000488281</ele>
        <time>2023-07-26T13:05:50.000Z</time>
      </trkpt>
      <trkpt lat="42.70695" lon="1.10389">
        <ele>1284</ele>
        <time>2023-07-26T13:05:57.000Z</time>
      </trkpt>
      <trkpt lat="42.70688" lon="1.1038">
        <ele>1284</ele>
        <time>2023-07-26T13:06:05.000Z</time>
      </trkpt>
      <trkpt lat="42.70667" lon="1.10361">
        <ele>1285</ele>
        <time>2023-07-26T13:06:22.000Z</time>
      </trkpt>
      <trkpt lat="42.70665" lon="1.10357">
        <ele>1285</ele>
        <time>2023-07-26T13:06:24.000Z</time>
      </trkpt>
      <trkpt lat="42.70663" lon="1.10346">
        <ele>1285.1999511719</ele>
        <time>2023-07-26T13:06:29.000Z</time>
      </trkpt>
      <trkpt lat="42.70662" lon="1.10343">
        <ele>1285.4000244141</ele>
        <time>2023-07-26T13:06:31.000Z</time>
      </trkpt>
      <trkpt lat="42.70662" lon="1.10335">
        <ele>1285.5999755859</ele>
        <time>2023-07-26T13:06:34.000Z</time>
      </trkpt>
      <trkpt lat="42.70662" lon="1.10333">
        <ele>1285.5999755859</ele>
        <time>2023-07-26T13:06:35.000Z</time>
      </trkpt>
      <trkpt lat="42.70661" lon="1.10327">
        <ele>1286</ele>
        <time>2023-07-26T13:06:38.000Z</time>
      </trkpt>
      <trkpt lat="42.70661" lon="1.10317">
        <ele>1286.4000244141</ele>
        <time>2023-07-26T13:06:42.000Z</time>
      </trkpt>
      <trkpt lat="42.70659" lon="1.10296">
        <ele>1286.8000488281</ele>
        <time>2023-07-26T13:06:50.000Z</time>
      </trkpt>
      <trkpt lat="42.70659" lon="1.10289">
        <ele>1287.1999511719</ele>
        <time>2023-07-26T13:06:54.000Z</time>
      </trkpt>
      <trkpt lat="42.70659" lon="1.10279">
        <ele>1287.5999755859</ele>
        <time>2023-07-26T13:06:59.000Z</time>
      </trkpt>
      <trkpt lat="42.70659" lon="1.10264">
        <ele>1288</ele>
        <time>2023-07-26T13:07:07.000Z</time>
      </trkpt>
      <trkpt lat="42.70659" lon="1.10263">
        <ele>1288.1999511719</ele>
        <time>2023-07-26T13:07:08.000Z</time>
      </trkpt>
      <trkpt lat="42.70658" lon="1.10257">
        <ele>1288.5999755859</ele>
        <time>2023-07-26T13:07:14.000Z</time>
      </trkpt>
      <trkpt lat="42.70656" lon="1.10245">
        <ele>1289.1999511719</ele>
        <time>2023-07-26T13:07:22.000Z</time>
      </trkpt>
      <trkpt lat="42.70654" lon="1.1024">
        <ele>1289.4000244141</ele>
        <time>2023-07-26T13:07:25.000Z</time>
      </trkpt>
      <trkpt lat="42.70651" lon="1.10225">
        <ele>1289.8000488281</ele>
        <time>2023-07-26T13:07:32.000Z</time>
      </trkpt>
      <trkpt lat="42.70648" lon="1.10212">
        <ele>1290.1999511719</ele>
        <time>2023-07-26T13:07:39.000Z</time>
      </trkpt>
      <trkpt lat="42.70647" lon="1.10211">
        <ele>1290.1999511719</ele>
        <time>2023-07-26T13:07:40.000Z</time>
      </trkpt>
      <trkpt lat="42.70645" lon="1.10204">
        <ele>1290.4000244141</ele>
        <time>2023-07-26T13:07:44.000Z</time>
      </trkpt>
      <trkpt lat="42.70639" lon="1.10192">
        <ele>1290.1999511719</ele>
        <time>2023-07-26T13:07:51.000Z</time>
      </trkpt>
      <trkpt lat="42.70632" lon="1.10182">
        <ele>1289.1999511719</ele>
        <time>2023-07-26T13:07:57.000Z</time>
      </trkpt>
      <trkpt lat="42.70629" lon="1.10178">
        <ele>1289</ele>
        <time>2023-07-26T13:08:00.000Z</time>
      </trkpt>
      <trkpt lat="42.7062" lon="1.10171">
        <ele>1288.5999755859</ele>
        <time>2023-07-26T13:08:08.000Z</time>
      </trkpt>
      <trkpt lat="42.70616" lon="1.10169">
        <ele>1288.1999511719</ele>
        <time>2023-07-26T13:08:11.000Z</time>
      </trkpt>
      <trkpt lat="42.7061" lon="1.10165">
        <ele>1288</ele>
        <time>2023-07-26T13:08:15.000Z</time>
      </trkpt>
      <trkpt lat="42.70598" lon="1.10157">
        <ele>1287.4000244141</ele>
        <time>2023-07-26T13:08:23.000Z</time>
      </trkpt>
      <trkpt lat="42.70591" lon="1.10154">
        <ele>1287.1999511719</ele>
        <time>2023-07-26T13:08:27.000Z</time>
      </trkpt>
      <trkpt lat="42.70587" lon="1.10152">
        <ele>1286.8000488281</ele>
        <time>2023-07-26T13:08:30.000Z</time>
      </trkpt>
      <trkpt lat="42.70576" lon="1.1015">
        <ele>1286.1999511719</ele>
        <time>2023-07-26T13:08:37.000Z</time>
      </trkpt>
      <trkpt lat="42.70573" lon="1.1015">
        <ele>1286</ele>
        <time>2023-07-26T13:08:39.000Z</time>
      </trkpt>
      <trkpt lat="42.70562" lon="1.10148">
        <ele>1285.5999755859</ele>
        <time>2023-07-26T13:08:46.000Z</time>
      </trkpt>
      <trkpt lat="42.70549" lon="1.10142">
        <ele>1285</ele>
        <time>2023-07-26T13:08:55.000Z</time>
      </trkpt>
      <trkpt lat="42.70548" lon="1.10142">
        <ele>1285</ele>
        <time>2023-07-26T13:08:56.000Z</time>
      </trkpt>
      <trkpt lat="42.70539" lon="1.10137">
        <ele>1284.8000488281</ele>
        <time>2023-07-26T13:09:02.000Z</time>
      </trkpt>
      <trkpt lat="42.70528" lon="1.10132">
        <ele>1284.4000244141</ele>
        <time>2023-07-26T13:09:09.000Z</time>
      </trkpt>
      <trkpt lat="42.70521" lon="1.10128">
        <ele>1284</ele>
        <time>2023-07-26T13:09:15.000Z</time>
      </trkpt>
      <trkpt lat="42.70506" lon="1.10122">
        <ele>1283.8000488281</ele>
        <time>2023-07-26T13:09:25.000Z</time>
      </trkpt>
      <trkpt lat="42.70489" lon="1.10113">
        <ele>1283.1999511719</ele>
        <time>2023-07-26T13:09:34.000Z</time>
      </trkpt>
      <trkpt lat="42.70487" lon="1.10113">
        <ele>1283</ele>
        <time>2023-07-26T13:09:35.000Z</time>
      </trkpt>
      <trkpt lat="42.70474" lon="1.10104">
        <ele>1281.8000488281</ele>
        <time>2023-07-26T13:09:44.000Z</time>
      </trkpt>
      <trkpt lat="42.70463" lon="1.10097">
        <ele>1280.8000488281</ele>
        <time>2023-07-26T13:09:52.000Z</time>
      </trkpt>
      <trkpt lat="42.70462" lon="1.10097">
        <ele>1280.8000488281</ele>
        <time>2023-07-26T13:09:53.000Z</time>
      </trkpt>
      <trkpt lat="42.70455" lon="1.10093">
        <ele>1279.5999755859</ele>
        <time>2023-07-26T13:09:58.000Z</time>
      </trkpt>
      <trkpt lat="42.70448" lon="1.10089">
        <ele>1279.1999511719</ele>
        <time>2023-07-26T13:10:02.000Z</time>
      </trkpt>
      <trkpt lat="42.7044" lon="1.10084">
        <ele>1279</ele>
        <time>2023-07-26T13:10:08.000Z</time>
      </trkpt>
      <trkpt lat="42.70434" lon="1.10081">
        <ele>1278.5999755859</ele>
        <time>2023-07-26T13:10:12.000Z</time>
      </trkpt>
      <trkpt lat="42.70431" lon="1.10079">
        <ele>1278.4000244141</ele>
        <time>2023-07-26T13:10:14.000Z</time>
      </trkpt>
      <trkpt lat="42.70424" lon="1.10073">
        <ele>1277.8000488281</ele>
        <time>2023-07-26T13:10:20.000Z</time>
      </trkpt>
      <trkpt lat="42.70399" lon="1.10067">
        <ele>1277</ele>
        <time>2023-07-26T13:10:38.000Z</time>
      </trkpt>
      <trkpt lat="42.70394" lon="1.1007">
        <ele>1277</ele>
        <time>2023-07-26T13:10:42.000Z</time>
      </trkpt>
      <trkpt lat="42.70384" lon="1.10073">
        <ele>1277</ele>
        <time>2023-07-26T13:10:47.000Z</time>
      </trkpt>
      <trkpt lat="42.70378" lon="1.10078">
        <ele>1277.1999511719</ele>
        <time>2023-07-26T13:10:53.000Z</time>
      </trkpt>
      <trkpt lat="42.70359" lon="1.10087">
        <ele>1277.1999511719</ele>
        <time>2023-07-26T13:11:06.000Z</time>
      </trkpt>
      <trkpt lat="42.70339" lon="1.10099">
        <ele>1277.4000244141</ele>
        <time>2023-07-26T13:11:19.000Z</time>
      </trkpt>
      <trkpt lat="42.70329" lon="1.10108">
        <ele>1277.4000244141</ele>
        <time>2023-07-26T13:11:31.000Z</time>
      </trkpt>
      <trkpt lat="42.70317" lon="1.10117">
        <ele>1277.4000244141</ele>
        <time>2023-07-26T13:11:42.000Z</time>
      </trkpt>
      <trkpt lat="42.70297" lon="1.10124">
        <ele>1277.1999511719</ele>
        <time>2023-07-26T13:11:54.000Z</time>
      </trkpt>
      <trkpt lat="42.70292" lon="1.10125">
        <ele>1277.1999511719</ele>
        <time>2023-07-26T13:11:57.000Z</time>
      </trkpt>
      <trkpt lat="42.70274" lon="1.1014">
        <ele>1277.4000244141</ele>
        <time>2023-07-26T13:12:11.000Z</time>
      </trkpt>
      <trkpt lat="42.70264" lon="1.10147">
        <ele>1277.4000244141</ele>
        <time>2023-07-26T13:12:18.000Z</time>
      </trkpt>
      <trkpt lat="42.70258" lon="1.1015">
        <ele>1277.5999755859</ele>
        <time>2023-07-26T13:12:25.000Z</time>
      </trkpt>
      <trkpt lat="42.70248" lon="1.1015">
        <ele>1277.8000488281</ele>
        <time>2023-07-26T13:12:33.000Z</time>
      </trkpt>
      <trkpt lat="42.70238" lon="1.10152">
        <ele>1278</ele>
        <time>2023-07-26T13:12:40.000Z</time>
      </trkpt>
      <trkpt lat="42.70229" lon="1.10153">
        <ele>1278</ele>
        <time>2023-07-26T13:12:46.000Z</time>
      </trkpt>
      <trkpt lat="42.70219" lon="1.1015">
        <ele>1278</ele>
        <time>2023-07-26T13:12:53.000Z</time>
      </trkpt>
      <trkpt lat="42.70208" lon="1.10147">
        <ele>1277.8000488281</ele>
        <time>2023-07-26T13:13:01.000Z</time>
      </trkpt>
      <trkpt lat="42.70197" lon="1.10143">
        <ele>1277.4000244141</ele>
        <time>2023-07-26T13:13:10.000Z</time>
      </trkpt>
      <trkpt lat="42.70188" lon="1.10141">
        <ele>1276.8000488281</ele>
        <time>2023-07-26T13:13:18.000Z</time>
      </trkpt>
      <trkpt lat="42.70187" lon="1.10142">
        <ele>1276.8000488281</ele>
        <time>2023-07-26T13:13:19.000Z</time>
      </trkpt>
      <trkpt lat="42.70181" lon="1.1014">
        <ele>1276.5999755859</ele>
        <time>2023-07-26T13:13:23.000Z</time>
      </trkpt>
      <trkpt lat="42.70169" lon="1.10134">
        <ele>1276.8000488281</ele>
        <time>2023-07-26T13:13:31.000Z</time>
      </trkpt>
      <trkpt lat="42.70166" lon="1.10131">
        <ele>1276.4000244141</ele>
        <time>2023-07-26T13:13:37.000Z</time>
      </trkpt>
      <trkpt lat="42.70159" lon="1.10127">
        <ele>1276</ele>
        <time>2023-07-26T13:13:44.000Z</time>
      </trkpt>
      <trkpt lat="42.70145" lon="1.10124">
        <ele>1275.5999755859</ele>
        <time>2023-07-26T13:13:51.000Z</time>
      </trkpt>
      <trkpt lat="42.70143" lon="1.10124">
        <ele>1275.5999755859</ele>
        <time>2023-07-26T13:13:52.000Z</time>
      </trkpt>
      <trkpt lat="42.70136" lon="1.10122">
        <ele>1275.4000244141</ele>
        <time>2023-07-26T13:13:56.000Z</time>
      </trkpt>
    </trkseg>
  </trk>
</gpx>